
<gpx xmlns="http://www.topografix.com/GPX/1/1" xmlns:gpxx="http://www.garmin.com/xmlschemas/GpxExtensions/v3" xmlns:xsi="http://www.w3.org/2001/XMLSchema-instance" version="1.1" creator="Adze - https://getadze.com/" xsi:schemaLocation="http://www.topografix.com/GPX/1/1 http://www.topografix.com/GPX/1/1/gpx.xsd http://www.garmin.com/xmlschemas/GpxExtensions/v3 http://www.garmin.com/xmlschemas/GpxExtensionsv3.xsd">
    <metadata>
        <name>Untitled Document</name>
        <time>2019-04-10T01:23:40.350Z</time>
    </metadata>
    <wpt lon="101.510274" lat="12.929854">
        <name>Thomai Resort</name>
    </wpt>
    <trk>
        <name>March 2019 - Sunday</name>
        <type>1</type>
        <extensions>
            <gpxx:TrackExtension>
                <gpxx:DisplayColor>DarkMagenta</gpxx:DisplayColor>
            </gpxx:TrackExtension>
        </extensions>
        <trkseg>
            <trkpt lon="101.510252" lat="12.929652">
                <ele>59.500000</ele>
                <time>2019-03-16T04:39:32Z</time>
            </trkpt>
            <trkpt lon="101.510249" lat="12.929681">
                <ele>59.600000</ele>
                <time>2019-03-16T04:39:39Z</time>
            </trkpt>
            <trkpt lon="101.510256" lat="12.929765">
                <ele>59.600000</ele>
                <time>2019-03-16T04:40:26Z</time>
            </trkpt>
            <trkpt lon="101.510273" lat="12.929794">
                <ele>59.600000</ele>
                <time>2019-03-16T04:40:36Z</time>
            </trkpt>
            <trkpt lon="101.510264" lat="12.929820">
                <ele>59.600000</ele>
                <time>2019-03-16T04:40:39Z</time>
            </trkpt>
            <trkpt lon="101.510267" lat="12.929851">
                <ele>59.600000</ele>
                <time>2019-03-16T04:40:46Z</time>
            </trkpt>
            <trkpt lon="101.510292" lat="12.929879">
                <ele>59.600000</ele>
                <time>2019-03-16T04:40:49Z</time>
            </trkpt>
            <trkpt lon="101.510308" lat="12.929908">
                <ele>59.600000</ele>
                <time>2019-03-16T04:40:52Z</time>
            </trkpt>
            <trkpt lon="101.510269" lat="12.929879">
                <ele>59.700000</ele>
                <time>2019-03-16T04:42:03Z</time>
            </trkpt>
            <trkpt lon="101.510251" lat="12.929851">
                <ele>59.600000</ele>
                <time>2019-03-16T04:42:05Z</time>
            </trkpt>
            <trkpt lon="101.510290" lat="12.929824">
                <ele>59.600000</ele>
                <time>2019-03-16T04:43:03Z</time>
            </trkpt>
            <trkpt lon="101.510302" lat="12.929850">
                <ele>59.600000</ele>
                <time>2019-03-16T04:43:10Z</time>
            </trkpt>
            <trkpt lon="101.510268" lat="12.929899">
                <ele>59.700000</ele>
                <time>2019-03-16T04:43:43Z</time>
            </trkpt>
            <trkpt lon="101.510250" lat="12.929921">
                <ele>59.800000</ele>
                <time>2019-03-16T04:43:45Z</time>
            </trkpt>
            <trkpt lon="101.510235" lat="12.929966">
                <ele>60.000000</ele>
                <time>2019-03-16T04:43:47Z</time>
            </trkpt>
            <trkpt lon="101.510228" lat="12.929993">
                <ele>60.200000</ele>
                <time>2019-03-16T04:43:48Z</time>
            </trkpt>
            <trkpt lon="101.510226" lat="12.930021">
                <ele>60.200000</ele>
                <time>2019-03-16T04:43:49Z</time>
            </trkpt>
            <trkpt lon="101.510225" lat="12.930049">
                <ele>60.400000</ele>
                <time>2019-03-16T04:43:50Z</time>
            </trkpt>
            <trkpt lon="101.510226" lat="12.930099">
                <ele>60.500000</ele>
                <time>2019-03-16T04:43:52Z</time>
            </trkpt>
            <trkpt lon="101.510229" lat="12.930155">
                <ele>60.700000</ele>
                <time>2019-03-16T04:43:54Z</time>
            </trkpt>
            <trkpt lon="101.510229" lat="12.930188">
                <ele>60.800000</ele>
                <time>2019-03-16T04:43:55Z</time>
            </trkpt>
            <trkpt lon="101.510227" lat="12.930225">
                <ele>60.900000</ele>
                <time>2019-03-16T04:43:56Z</time>
            </trkpt>
            <trkpt lon="101.510226" lat="12.930263">
                <ele>61.000000</ele>
                <time>2019-03-16T04:43:57Z</time>
            </trkpt>
            <trkpt lon="101.510226" lat="12.930301">
                <ele>61.100000</ele>
                <time>2019-03-16T04:43:58Z</time>
            </trkpt>
            <trkpt lon="101.510229" lat="12.930337">
                <ele>61.200000</ele>
                <time>2019-03-16T04:43:59Z</time>
            </trkpt>
            <trkpt lon="101.510226" lat="12.930373">
                <ele>61.100000</ele>
                <time>2019-03-16T04:44:00Z</time>
            </trkpt>
            <trkpt lon="101.510223" lat="12.930404">
                <ele>61.100000</ele>
                <time>2019-03-16T04:44:01Z</time>
            </trkpt>
            <trkpt lon="101.510206" lat="12.930448">
                <ele>60.900000</ele>
                <time>2019-03-16T04:44:03Z</time>
            </trkpt>
            <trkpt lon="101.510211" lat="12.930488">
                <ele>60.800000</ele>
                <time>2019-03-16T04:44:05Z</time>
            </trkpt>
            <trkpt lon="101.510219" lat="12.930522">
                <ele>60.600000</ele>
                <time>2019-03-16T04:44:06Z</time>
            </trkpt>
            <trkpt lon="101.510233" lat="12.930556">
                <ele>60.500000</ele>
                <time>2019-03-16T04:44:07Z</time>
            </trkpt>
            <trkpt lon="101.510253" lat="12.930591">
                <ele>60.300000</ele>
                <time>2019-03-16T04:44:08Z</time>
            </trkpt>
            <trkpt lon="101.510280" lat="12.930626">
                <ele>60.200000</ele>
                <time>2019-03-16T04:44:09Z</time>
            </trkpt>
            <trkpt lon="101.510312" lat="12.930657">
                <ele>60.200000</ele>
                <time>2019-03-16T04:44:10Z</time>
            </trkpt>
            <trkpt lon="101.510348" lat="12.930688">
                <ele>60.100000</ele>
                <time>2019-03-16T04:44:11Z</time>
            </trkpt>
            <trkpt lon="101.510383" lat="12.930718">
                <ele>60.100000</ele>
                <time>2019-03-16T04:44:12Z</time>
            </trkpt>
            <trkpt lon="101.510426" lat="12.930750">
                <ele>60.100000</ele>
                <time>2019-03-16T04:44:13Z</time>
            </trkpt>
            <trkpt lon="101.510467" lat="12.930782">
                <ele>60.100000</ele>
                <time>2019-03-16T04:44:14Z</time>
            </trkpt>
            <trkpt lon="101.510507" lat="12.930812">
                <ele>60.100000</ele>
                <time>2019-03-16T04:44:15Z</time>
            </trkpt>
            <trkpt lon="101.510548" lat="12.930844">
                <ele>60.000000</ele>
                <time>2019-03-16T04:44:16Z</time>
            </trkpt>
            <trkpt lon="101.510590" lat="12.930875">
                <ele>60.000000</ele>
                <time>2019-03-16T04:44:17Z</time>
            </trkpt>
            <trkpt lon="101.510627" lat="12.930907">
                <ele>60.000000</ele>
                <time>2019-03-16T04:44:18Z</time>
            </trkpt>
            <trkpt lon="101.510670" lat="12.930940">
                <ele>60.000000</ele>
                <time>2019-03-16T04:44:19Z</time>
            </trkpt>
            <trkpt lon="101.510709" lat="12.930972">
                <ele>60.000000</ele>
                <time>2019-03-16T04:44:20Z</time>
            </trkpt>
            <trkpt lon="101.510748" lat="12.931003">
                <ele>59.900000</ele>
                <time>2019-03-16T04:44:21Z</time>
            </trkpt>
            <trkpt lon="101.510785" lat="12.931033">
                <ele>59.900000</ele>
                <time>2019-03-16T04:44:22Z</time>
            </trkpt>
            <trkpt lon="101.510823" lat="12.931062">
                <ele>59.900000</ele>
                <time>2019-03-16T04:44:23Z</time>
            </trkpt>
            <trkpt lon="101.510864" lat="12.931096">
                <ele>59.900000</ele>
                <time>2019-03-16T04:44:24Z</time>
            </trkpt>
            <trkpt lon="101.510902" lat="12.931127">
                <ele>59.900000</ele>
                <time>2019-03-16T04:44:25Z</time>
            </trkpt>
            <trkpt lon="101.510942" lat="12.931158">
                <ele>59.900000</ele>
                <time>2019-03-16T04:44:26Z</time>
            </trkpt>
            <trkpt lon="101.510979" lat="12.931187">
                <ele>59.800000</ele>
                <time>2019-03-16T04:44:27Z</time>
            </trkpt>
            <trkpt lon="101.511012" lat="12.931215">
                <ele>59.800000</ele>
                <time>2019-03-16T04:44:28Z</time>
            </trkpt>
            <trkpt lon="101.511044" lat="12.931242">
                <ele>59.800000</ele>
                <time>2019-03-16T04:44:29Z</time>
            </trkpt>
            <trkpt lon="101.511078" lat="12.931271">
                <ele>59.800000</ele>
                <time>2019-03-16T04:44:30Z</time>
            </trkpt>
            <trkpt lon="101.511111" lat="12.931298">
                <ele>59.800000</ele>
                <time>2019-03-16T04:44:31Z</time>
            </trkpt>
            <trkpt lon="101.511142" lat="12.931323">
                <ele>59.800000</ele>
                <time>2019-03-16T04:44:32Z</time>
            </trkpt>
            <trkpt lon="101.511172" lat="12.931347">
                <ele>59.800000</ele>
                <time>2019-03-16T04:44:33Z</time>
            </trkpt>
            <trkpt lon="101.511201" lat="12.931369">
                <ele>59.800000</ele>
                <time>2019-03-16T04:44:34Z</time>
            </trkpt>
            <trkpt lon="101.511233" lat="12.931389">
                <ele>59.800000</ele>
                <time>2019-03-16T04:44:35Z</time>
            </trkpt>
            <trkpt lon="101.511264" lat="12.931411">
                <ele>59.800000</ele>
                <time>2019-03-16T04:44:36Z</time>
            </trkpt>
            <trkpt lon="101.511291" lat="12.931433">
                <ele>59.800000</ele>
                <time>2019-03-16T04:44:37Z</time>
            </trkpt>
            <trkpt lon="101.511320" lat="12.931458">
                <ele>59.800000</ele>
                <time>2019-03-16T04:44:38Z</time>
            </trkpt>
            <trkpt lon="101.511350" lat="12.931480">
                <ele>59.800000</ele>
                <time>2019-03-16T04:44:39Z</time>
            </trkpt>
            <trkpt lon="101.511383" lat="12.931503">
                <ele>59.900000</ele>
                <time>2019-03-16T04:44:40Z</time>
            </trkpt>
            <trkpt lon="101.511412" lat="12.931525">
                <ele>60.000000</ele>
                <time>2019-03-16T04:44:41Z</time>
            </trkpt>
            <trkpt lon="101.511444" lat="12.931549">
                <ele>60.000000</ele>
                <time>2019-03-16T04:44:42Z</time>
            </trkpt>
            <trkpt lon="101.511475" lat="12.931574">
                <ele>60.100000</ele>
                <time>2019-03-16T04:44:43Z</time>
            </trkpt>
            <trkpt lon="101.511506" lat="12.931600">
                <ele>60.200000</ele>
                <time>2019-03-16T04:44:44Z</time>
            </trkpt>
            <trkpt lon="101.511537" lat="12.931627">
                <ele>60.200000</ele>
                <time>2019-03-16T04:44:45Z</time>
            </trkpt>
            <trkpt lon="101.511568" lat="12.931654">
                <ele>60.200000</ele>
                <time>2019-03-16T04:44:46Z</time>
            </trkpt>
            <trkpt lon="101.511600" lat="12.931684">
                <ele>60.300000</ele>
                <time>2019-03-16T04:44:47Z</time>
            </trkpt>
            <trkpt lon="101.511633" lat="12.931714">
                <ele>60.300000</ele>
                <time>2019-03-16T04:44:48Z</time>
            </trkpt>
            <trkpt lon="101.511664" lat="12.931738">
                <ele>60.300000</ele>
                <time>2019-03-16T04:44:49Z</time>
            </trkpt>
            <trkpt lon="101.511694" lat="12.931763">
                <ele>60.300000</ele>
                <time>2019-03-16T04:44:50Z</time>
            </trkpt>
            <trkpt lon="101.511723" lat="12.931787">
                <ele>60.300000</ele>
                <time>2019-03-16T04:44:51Z</time>
            </trkpt>
            <trkpt lon="101.511753" lat="12.931812">
                <ele>60.300000</ele>
                <time>2019-03-16T04:44:52Z</time>
            </trkpt>
            <trkpt lon="101.511784" lat="12.931835">
                <ele>60.300000</ele>
                <time>2019-03-16T04:44:53Z</time>
            </trkpt>
            <trkpt lon="101.511815" lat="12.931860">
                <ele>60.200000</ele>
                <time>2019-03-16T04:44:54Z</time>
            </trkpt>
            <trkpt lon="101.511850" lat="12.931891">
                <ele>60.200000</ele>
                <time>2019-03-16T04:44:55Z</time>
            </trkpt>
            <trkpt lon="101.511881" lat="12.931918">
                <ele>60.200000</ele>
                <time>2019-03-16T04:44:56Z</time>
            </trkpt>
            <trkpt lon="101.511916" lat="12.931946">
                <ele>60.200000</ele>
                <time>2019-03-16T04:44:57Z</time>
            </trkpt>
            <trkpt lon="101.511951" lat="12.931973">
                <ele>60.200000</ele>
                <time>2019-03-16T04:44:58Z</time>
            </trkpt>
            <trkpt lon="101.511984" lat="12.931998">
                <ele>60.200000</ele>
                <time>2019-03-16T04:44:59Z</time>
            </trkpt>
            <trkpt lon="101.512018" lat="12.932028">
                <ele>60.200000</ele>
                <time>2019-03-16T04:45:00Z</time>
            </trkpt>
            <trkpt lon="101.512049" lat="12.932053">
                <ele>60.200000</ele>
                <time>2019-03-16T04:45:01Z</time>
            </trkpt>
            <trkpt lon="101.512079" lat="12.932078">
                <ele>60.100000</ele>
                <time>2019-03-16T04:45:02Z</time>
            </trkpt>
            <trkpt lon="101.512110" lat="12.932103">
                <ele>60.100000</ele>
                <time>2019-03-16T04:45:03Z</time>
            </trkpt>
            <trkpt lon="101.512140" lat="12.932127">
                <ele>60.100000</ele>
                <time>2019-03-16T04:45:04Z</time>
            </trkpt>
            <trkpt lon="101.512172" lat="12.932151">
                <ele>60.100000</ele>
                <time>2019-03-16T04:45:05Z</time>
            </trkpt>
            <trkpt lon="101.512207" lat="12.932180">
                <ele>60.100000</ele>
                <time>2019-03-16T04:45:06Z</time>
            </trkpt>
            <trkpt lon="101.512238" lat="12.932204">
                <ele>60.100000</ele>
                <time>2019-03-16T04:45:07Z</time>
            </trkpt>
            <trkpt lon="101.512269" lat="12.932228">
                <ele>60.000000</ele>
                <time>2019-03-16T04:45:08Z</time>
            </trkpt>
            <trkpt lon="101.512300" lat="12.932255">
                <ele>60.000000</ele>
                <time>2019-03-16T04:45:09Z</time>
            </trkpt>
            <trkpt lon="101.512329" lat="12.932282">
                <ele>60.000000</ele>
                <time>2019-03-16T04:45:10Z</time>
            </trkpt>
            <trkpt lon="101.512355" lat="12.932305">
                <ele>60.000000</ele>
                <time>2019-03-16T04:45:11Z</time>
            </trkpt>
            <trkpt lon="101.512384" lat="12.932333">
                <ele>60.000000</ele>
                <time>2019-03-16T04:45:12Z</time>
            </trkpt>
            <trkpt lon="101.512415" lat="12.932358">
                <ele>60.000000</ele>
                <time>2019-03-16T04:45:13Z</time>
            </trkpt>
            <trkpt lon="101.512446" lat="12.932385">
                <ele>59.900000</ele>
                <time>2019-03-16T04:45:14Z</time>
            </trkpt>
            <trkpt lon="101.512479" lat="12.932413">
                <ele>59.900000</ele>
                <time>2019-03-16T04:45:15Z</time>
            </trkpt>
            <trkpt lon="101.512510" lat="12.932441">
                <ele>59.900000</ele>
                <time>2019-03-16T04:45:16Z</time>
            </trkpt>
            <trkpt lon="101.512541" lat="12.932470">
                <ele>59.800000</ele>
                <time>2019-03-16T04:45:17Z</time>
            </trkpt>
            <trkpt lon="101.512573" lat="12.932501">
                <ele>59.700000</ele>
                <time>2019-03-16T04:45:18Z</time>
            </trkpt>
            <trkpt lon="101.512604" lat="12.932531">
                <ele>59.600000</ele>
                <time>2019-03-16T04:45:19Z</time>
            </trkpt>
            <trkpt lon="101.512635" lat="12.932561">
                <ele>59.500000</ele>
                <time>2019-03-16T04:45:20Z</time>
            </trkpt>
            <trkpt lon="101.512667" lat="12.932590">
                <ele>59.400000</ele>
                <time>2019-03-16T04:45:21Z</time>
            </trkpt>
            <trkpt lon="101.512698" lat="12.932618">
                <ele>59.200000</ele>
                <time>2019-03-16T04:45:22Z</time>
            </trkpt>
            <trkpt lon="101.512731" lat="12.932647">
                <ele>59.200000</ele>
                <time>2019-03-16T04:45:23Z</time>
            </trkpt>
            <trkpt lon="101.512763" lat="12.932676">
                <ele>59.100000</ele>
                <time>2019-03-16T04:45:24Z</time>
            </trkpt>
            <trkpt lon="101.512794" lat="12.932704">
                <ele>59.000000</ele>
                <time>2019-03-16T04:45:25Z</time>
            </trkpt>
            <trkpt lon="101.512823" lat="12.932732">
                <ele>59.000000</ele>
                <time>2019-03-16T04:45:26Z</time>
            </trkpt>
            <trkpt lon="101.512851" lat="12.932762">
                <ele>59.000000</ele>
                <time>2019-03-16T04:45:27Z</time>
            </trkpt>
            <trkpt lon="101.512879" lat="12.932788">
                <ele>59.000000</ele>
                <time>2019-03-16T04:45:28Z</time>
            </trkpt>
            <trkpt lon="101.512910" lat="12.932821">
                <ele>58.900000</ele>
                <time>2019-03-16T04:45:29Z</time>
            </trkpt>
            <trkpt lon="101.512941" lat="12.932852">
                <ele>58.900000</ele>
                <time>2019-03-16T04:45:30Z</time>
            </trkpt>
            <trkpt lon="101.512973" lat="12.932883">
                <ele>58.900000</ele>
                <time>2019-03-16T04:45:31Z</time>
            </trkpt>
            <trkpt lon="101.513006" lat="12.932916">
                <ele>58.900000</ele>
                <time>2019-03-16T04:45:32Z</time>
            </trkpt>
            <trkpt lon="101.513040" lat="12.932948">
                <ele>58.900000</ele>
                <time>2019-03-16T04:45:33Z</time>
            </trkpt>
            <trkpt lon="101.513073" lat="12.932981">
                <ele>58.800000</ele>
                <time>2019-03-16T04:45:34Z</time>
            </trkpt>
            <trkpt lon="101.513105" lat="12.933014">
                <ele>58.800000</ele>
                <time>2019-03-16T04:45:35Z</time>
            </trkpt>
            <trkpt lon="101.513137" lat="12.933048">
                <ele>58.800000</ele>
                <time>2019-03-16T04:45:36Z</time>
            </trkpt>
            <trkpt lon="101.513171" lat="12.933086">
                <ele>58.800000</ele>
                <time>2019-03-16T04:45:37Z</time>
            </trkpt>
            <trkpt lon="101.513205" lat="12.933124">
                <ele>58.800000</ele>
                <time>2019-03-16T04:45:38Z</time>
            </trkpt>
            <trkpt lon="101.513239" lat="12.933160">
                <ele>58.800000</ele>
                <time>2019-03-16T04:45:39Z</time>
            </trkpt>
            <trkpt lon="101.513272" lat="12.933196">
                <ele>58.700000</ele>
                <time>2019-03-16T04:45:40Z</time>
            </trkpt>
            <trkpt lon="101.513305" lat="12.933231">
                <ele>58.700000</ele>
                <time>2019-03-16T04:45:41Z</time>
            </trkpt>
            <trkpt lon="101.513337" lat="12.933266">
                <ele>58.700000</ele>
                <time>2019-03-16T04:45:42Z</time>
            </trkpt>
            <trkpt lon="101.513370" lat="12.933301">
                <ele>58.700000</ele>
                <time>2019-03-16T04:45:43Z</time>
            </trkpt>
            <trkpt lon="101.513402" lat="12.933335">
                <ele>58.700000</ele>
                <time>2019-03-16T04:45:44Z</time>
            </trkpt>
            <trkpt lon="101.513435" lat="12.933370">
                <ele>58.600000</ele>
                <time>2019-03-16T04:45:45Z</time>
            </trkpt>
            <trkpt lon="101.513467" lat="12.933402">
                <ele>58.600000</ele>
                <time>2019-03-16T04:45:46Z</time>
            </trkpt>
            <trkpt lon="101.513500" lat="12.933436">
                <ele>58.500000</ele>
                <time>2019-03-16T04:45:47Z</time>
            </trkpt>
            <trkpt lon="101.513535" lat="12.933470">
                <ele>58.400000</ele>
                <time>2019-03-16T04:45:48Z</time>
            </trkpt>
            <trkpt lon="101.513569" lat="12.933504">
                <ele>58.400000</ele>
                <time>2019-03-16T04:45:49Z</time>
            </trkpt>
            <trkpt lon="101.513607" lat="12.933543">
                <ele>58.100000</ele>
                <time>2019-03-16T04:45:50Z</time>
            </trkpt>
            <trkpt lon="101.513644" lat="12.933580">
                <ele>57.900000</ele>
                <time>2019-03-16T04:45:51Z</time>
            </trkpt>
            <trkpt lon="101.513681" lat="12.933617">
                <ele>57.600000</ele>
                <time>2019-03-16T04:45:52Z</time>
            </trkpt>
            <trkpt lon="101.513715" lat="12.933655">
                <ele>57.300000</ele>
                <time>2019-03-16T04:45:53Z</time>
            </trkpt>
            <trkpt lon="101.513750" lat="12.933694">
                <ele>57.100000</ele>
                <time>2019-03-16T04:45:54Z</time>
            </trkpt>
            <trkpt lon="101.513786" lat="12.933734">
                <ele>57.000000</ele>
                <time>2019-03-16T04:45:55Z</time>
            </trkpt>
            <trkpt lon="101.513822" lat="12.933771">
                <ele>56.900000</ele>
                <time>2019-03-16T04:45:56Z</time>
            </trkpt>
            <trkpt lon="101.513861" lat="12.933808">
                <ele>56.900000</ele>
                <time>2019-03-16T04:45:57Z</time>
            </trkpt>
            <trkpt lon="101.513901" lat="12.933843">
                <ele>56.800000</ele>
                <time>2019-03-16T04:45:58Z</time>
            </trkpt>
            <trkpt lon="101.513941" lat="12.933879">
                <ele>56.800000</ele>
                <time>2019-03-16T04:45:59Z</time>
            </trkpt>
            <trkpt lon="101.513983" lat="12.933913">
                <ele>56.800000</ele>
                <time>2019-03-16T04:46:00Z</time>
            </trkpt>
            <trkpt lon="101.514025" lat="12.933947">
                <ele>56.800000</ele>
                <time>2019-03-16T04:46:01Z</time>
            </trkpt>
            <trkpt lon="101.514067" lat="12.933978">
                <ele>56.700000</ele>
                <time>2019-03-16T04:46:02Z</time>
            </trkpt>
            <trkpt lon="101.514108" lat="12.934010">
                <ele>56.700000</ele>
                <time>2019-03-16T04:46:03Z</time>
            </trkpt>
            <trkpt lon="101.514150" lat="12.934040">
                <ele>56.700000</ele>
                <time>2019-03-16T04:46:04Z</time>
            </trkpt>
            <trkpt lon="101.514192" lat="12.934069">
                <ele>56.700000</ele>
                <time>2019-03-16T04:46:05Z</time>
            </trkpt>
            <trkpt lon="101.514234" lat="12.934095">
                <ele>56.700000</ele>
                <time>2019-03-16T04:46:06Z</time>
            </trkpt>
            <trkpt lon="101.514275" lat="12.934122">
                <ele>56.600000</ele>
                <time>2019-03-16T04:46:07Z</time>
            </trkpt>
            <trkpt lon="101.514316" lat="12.934149">
                <ele>56.600000</ele>
                <time>2019-03-16T04:46:08Z</time>
            </trkpt>
            <trkpt lon="101.514356" lat="12.934174">
                <ele>56.600000</ele>
                <time>2019-03-16T04:46:09Z</time>
            </trkpt>
            <trkpt lon="101.514395" lat="12.934199">
                <ele>56.600000</ele>
                <time>2019-03-16T04:46:10Z</time>
            </trkpt>
            <trkpt lon="101.514435" lat="12.934222">
                <ele>56.600000</ele>
                <time>2019-03-16T04:46:11Z</time>
            </trkpt>
            <trkpt lon="101.514477" lat="12.934245">
                <ele>56.600000</ele>
                <time>2019-03-16T04:46:12Z</time>
            </trkpt>
            <trkpt lon="101.514519" lat="12.934268">
                <ele>56.500000</ele>
                <time>2019-03-16T04:46:13Z</time>
            </trkpt>
            <trkpt lon="101.514564" lat="12.934292">
                <ele>56.500000</ele>
                <time>2019-03-16T04:46:14Z</time>
            </trkpt>
            <trkpt lon="101.514610" lat="12.934316">
                <ele>56.500000</ele>
                <time>2019-03-16T04:46:15Z</time>
            </trkpt>
            <trkpt lon="101.514658" lat="12.934338">
                <ele>56.500000</ele>
                <time>2019-03-16T04:46:16Z</time>
            </trkpt>
            <trkpt lon="101.514706" lat="12.934358">
                <ele>56.500000</ele>
                <time>2019-03-16T04:46:17Z</time>
            </trkpt>
            <trkpt lon="101.514754" lat="12.934378">
                <ele>56.400000</ele>
                <time>2019-03-16T04:46:18Z</time>
            </trkpt>
            <trkpt lon="101.514801" lat="12.934398">
                <ele>56.400000</ele>
                <time>2019-03-16T04:46:19Z</time>
            </trkpt>
            <trkpt lon="101.514845" lat="12.934416">
                <ele>56.400000</ele>
                <time>2019-03-16T04:46:20Z</time>
            </trkpt>
            <trkpt lon="101.514889" lat="12.934433">
                <ele>56.400000</ele>
                <time>2019-03-16T04:46:21Z</time>
            </trkpt>
            <trkpt lon="101.514935" lat="12.934450">
                <ele>56.400000</ele>
                <time>2019-03-16T04:46:22Z</time>
            </trkpt>
            <trkpt lon="101.514981" lat="12.934466">
                <ele>56.400000</ele>
                <time>2019-03-16T04:46:23Z</time>
            </trkpt>
            <trkpt lon="101.515026" lat="12.934482">
                <ele>56.300000</ele>
                <time>2019-03-16T04:46:24Z</time>
            </trkpt>
            <trkpt lon="101.515072" lat="12.934497">
                <ele>56.300000</ele>
                <time>2019-03-16T04:46:25Z</time>
            </trkpt>
            <trkpt lon="101.515120" lat="12.934513">
                <ele>56.300000</ele>
                <time>2019-03-16T04:46:26Z</time>
            </trkpt>
            <trkpt lon="101.515167" lat="12.934528">
                <ele>56.300000</ele>
                <time>2019-03-16T04:46:27Z</time>
            </trkpt>
            <trkpt lon="101.515214" lat="12.934544">
                <ele>56.300000</ele>
                <time>2019-03-16T04:46:28Z</time>
            </trkpt>
            <trkpt lon="101.515261" lat="12.934561">
                <ele>56.300000</ele>
                <time>2019-03-16T04:46:29Z</time>
            </trkpt>
            <trkpt lon="101.515307" lat="12.934577">
                <ele>56.200000</ele>
                <time>2019-03-16T04:46:30Z</time>
            </trkpt>
            <trkpt lon="101.515352" lat="12.934594">
                <ele>56.200000</ele>
                <time>2019-03-16T04:46:31Z</time>
            </trkpt>
            <trkpt lon="101.515398" lat="12.934610">
                <ele>56.200000</ele>
                <time>2019-03-16T04:46:32Z</time>
            </trkpt>
            <trkpt lon="101.515443" lat="12.934624">
                <ele>56.200000</ele>
                <time>2019-03-16T04:46:33Z</time>
            </trkpt>
            <trkpt lon="101.515490" lat="12.934639">
                <ele>56.200000</ele>
                <time>2019-03-16T04:46:34Z</time>
            </trkpt>
            <trkpt lon="101.515533" lat="12.934655">
                <ele>56.200000</ele>
                <time>2019-03-16T04:46:35Z</time>
            </trkpt>
            <trkpt lon="101.515575" lat="12.934671">
                <ele>56.200000</ele>
                <time>2019-03-16T04:46:36Z</time>
            </trkpt>
            <trkpt lon="101.515620" lat="12.934688">
                <ele>56.200000</ele>
                <time>2019-03-16T04:46:37Z</time>
            </trkpt>
            <trkpt lon="101.515663" lat="12.934703">
                <ele>56.200000</ele>
                <time>2019-03-16T04:46:38Z</time>
            </trkpt>
            <trkpt lon="101.515705" lat="12.934714">
                <ele>56.300000</ele>
                <time>2019-03-16T04:46:39Z</time>
            </trkpt>
            <trkpt lon="101.515750" lat="12.934725">
                <ele>56.400000</ele>
                <time>2019-03-16T04:46:40Z</time>
            </trkpt>
            <trkpt lon="101.515793" lat="12.934739">
                <ele>56.600000</ele>
                <time>2019-03-16T04:46:41Z</time>
            </trkpt>
            <trkpt lon="101.515835" lat="12.934754">
                <ele>56.900000</ele>
                <time>2019-03-16T04:46:42Z</time>
            </trkpt>
            <trkpt lon="101.515877" lat="12.934770">
                <ele>57.300000</ele>
                <time>2019-03-16T04:46:43Z</time>
            </trkpt>
            <trkpt lon="101.515920" lat="12.934786">
                <ele>57.700000</ele>
                <time>2019-03-16T04:46:44Z</time>
            </trkpt>
            <trkpt lon="101.515961" lat="12.934801">
                <ele>58.100000</ele>
                <time>2019-03-16T04:46:45Z</time>
            </trkpt>
            <trkpt lon="101.516001" lat="12.934817">
                <ele>58.400000</ele>
                <time>2019-03-16T04:46:46Z</time>
            </trkpt>
            <trkpt lon="101.516039" lat="12.934832">
                <ele>58.600000</ele>
                <time>2019-03-16T04:46:47Z</time>
            </trkpt>
            <trkpt lon="101.516084" lat="12.934849">
                <ele>58.800000</ele>
                <time>2019-03-16T04:46:48Z</time>
            </trkpt>
            <trkpt lon="101.516127" lat="12.934864">
                <ele>58.900000</ele>
                <time>2019-03-16T04:46:49Z</time>
            </trkpt>
            <trkpt lon="101.516173" lat="12.934882">
                <ele>58.900000</ele>
                <time>2019-03-16T04:46:50Z</time>
            </trkpt>
            <trkpt lon="101.516219" lat="12.934900">
                <ele>58.900000</ele>
                <time>2019-03-16T04:46:51Z</time>
            </trkpt>
            <trkpt lon="101.516265" lat="12.934917">
                <ele>59.000000</ele>
                <time>2019-03-16T04:46:52Z</time>
            </trkpt>
            <trkpt lon="101.516308" lat="12.934931">
                <ele>58.900000</ele>
                <time>2019-03-16T04:46:53Z</time>
            </trkpt>
            <trkpt lon="101.516351" lat="12.934945">
                <ele>58.900000</ele>
                <time>2019-03-16T04:46:54Z</time>
            </trkpt>
            <trkpt lon="101.516393" lat="12.934959">
                <ele>58.900000</ele>
                <time>2019-03-16T04:46:55Z</time>
            </trkpt>
            <trkpt lon="101.516435" lat="12.934973">
                <ele>58.900000</ele>
                <time>2019-03-16T04:46:56Z</time>
            </trkpt>
            <trkpt lon="101.516478" lat="12.934988">
                <ele>58.900000</ele>
                <time>2019-03-16T04:46:57Z</time>
            </trkpt>
            <trkpt lon="101.516519" lat="12.935003">
                <ele>58.900000</ele>
                <time>2019-03-16T04:46:58Z</time>
            </trkpt>
            <trkpt lon="101.516561" lat="12.935020">
                <ele>58.800000</ele>
                <time>2019-03-16T04:46:59Z</time>
            </trkpt>
            <trkpt lon="101.516603" lat="12.935037">
                <ele>58.800000</ele>
                <time>2019-03-16T04:47:00Z</time>
            </trkpt>
            <trkpt lon="101.516644" lat="12.935053">
                <ele>58.800000</ele>
                <time>2019-03-16T04:47:01Z</time>
            </trkpt>
            <trkpt lon="101.516687" lat="12.935068">
                <ele>58.700000</ele>
                <time>2019-03-16T04:47:02Z</time>
            </trkpt>
            <trkpt lon="101.516731" lat="12.935082">
                <ele>58.600000</ele>
                <time>2019-03-16T04:47:03Z</time>
            </trkpt>
            <trkpt lon="101.516775" lat="12.935097">
                <ele>58.400000</ele>
                <time>2019-03-16T04:47:04Z</time>
            </trkpt>
            <trkpt lon="101.516818" lat="12.935112">
                <ele>58.100000</ele>
                <time>2019-03-16T04:47:05Z</time>
            </trkpt>
            <trkpt lon="101.516861" lat="12.935128">
                <ele>57.800000</ele>
                <time>2019-03-16T04:47:06Z</time>
            </trkpt>
            <trkpt lon="101.516904" lat="12.935143">
                <ele>57.600000</ele>
                <time>2019-03-16T04:47:07Z</time>
            </trkpt>
            <trkpt lon="101.516945" lat="12.935157">
                <ele>57.300000</ele>
                <time>2019-03-16T04:47:08Z</time>
            </trkpt>
            <trkpt lon="101.516987" lat="12.935171">
                <ele>57.200000</ele>
                <time>2019-03-16T04:47:09Z</time>
            </trkpt>
            <trkpt lon="101.517026" lat="12.935186">
                <ele>57.100000</ele>
                <time>2019-03-16T04:47:10Z</time>
            </trkpt>
            <trkpt lon="101.517066" lat="12.935203">
                <ele>57.100000</ele>
                <time>2019-03-16T04:47:11Z</time>
            </trkpt>
            <trkpt lon="101.517108" lat="12.935222">
                <ele>57.100000</ele>
                <time>2019-03-16T04:47:12Z</time>
            </trkpt>
            <trkpt lon="101.517153" lat="12.935240">
                <ele>57.200000</ele>
                <time>2019-03-16T04:47:13Z</time>
            </trkpt>
            <trkpt lon="101.517195" lat="12.935256">
                <ele>57.200000</ele>
                <time>2019-03-16T04:47:14Z</time>
            </trkpt>
            <trkpt lon="101.517241" lat="12.935274">
                <ele>57.300000</ele>
                <time>2019-03-16T04:47:15Z</time>
            </trkpt>
            <trkpt lon="101.517286" lat="12.935292">
                <ele>57.300000</ele>
                <time>2019-03-16T04:47:16Z</time>
            </trkpt>
            <trkpt lon="101.517331" lat="12.935308">
                <ele>57.300000</ele>
                <time>2019-03-16T04:47:17Z</time>
            </trkpt>
            <trkpt lon="101.517376" lat="12.935325">
                <ele>57.300000</ele>
                <time>2019-03-16T04:47:18Z</time>
            </trkpt>
            <trkpt lon="101.517421" lat="12.935339">
                <ele>57.300000</ele>
                <time>2019-03-16T04:47:19Z</time>
            </trkpt>
            <trkpt lon="101.517469" lat="12.935355">
                <ele>57.300000</ele>
                <time>2019-03-16T04:47:20Z</time>
            </trkpt>
            <trkpt lon="101.517516" lat="12.935371">
                <ele>57.300000</ele>
                <time>2019-03-16T04:47:21Z</time>
            </trkpt>
            <trkpt lon="101.517563" lat="12.935387">
                <ele>57.300000</ele>
                <time>2019-03-16T04:47:22Z</time>
            </trkpt>
            <trkpt lon="101.517611" lat="12.935405">
                <ele>57.300000</ele>
                <time>2019-03-16T04:47:23Z</time>
            </trkpt>
            <trkpt lon="101.517659" lat="12.935421">
                <ele>57.200000</ele>
                <time>2019-03-16T04:47:24Z</time>
            </trkpt>
            <trkpt lon="101.517708" lat="12.935438">
                <ele>57.200000</ele>
                <time>2019-03-16T04:47:25Z</time>
            </trkpt>
            <trkpt lon="101.517755" lat="12.935454">
                <ele>57.200000</ele>
                <time>2019-03-16T04:47:26Z</time>
            </trkpt>
            <trkpt lon="101.517801" lat="12.935469">
                <ele>57.200000</ele>
                <time>2019-03-16T04:47:27Z</time>
            </trkpt>
            <trkpt lon="101.517840" lat="12.935483">
                <ele>57.200000</ele>
                <time>2019-03-16T04:47:28Z</time>
            </trkpt>
            <trkpt lon="101.517884" lat="12.935495">
                <ele>57.200000</ele>
                <time>2019-03-16T04:47:29Z</time>
            </trkpt>
            <trkpt lon="101.517929" lat="12.935509">
                <ele>57.100000</ele>
                <time>2019-03-16T04:47:30Z</time>
            </trkpt>
            <trkpt lon="101.517973" lat="12.935522">
                <ele>57.100000</ele>
                <time>2019-03-16T04:47:31Z</time>
            </trkpt>
            <trkpt lon="101.518020" lat="12.935537">
                <ele>57.100000</ele>
                <time>2019-03-16T04:47:32Z</time>
            </trkpt>
            <trkpt lon="101.518066" lat="12.935552">
                <ele>57.100000</ele>
                <time>2019-03-16T04:47:33Z</time>
            </trkpt>
            <trkpt lon="101.518114" lat="12.935569">
                <ele>57.100000</ele>
                <time>2019-03-16T04:47:34Z</time>
            </trkpt>
            <trkpt lon="101.518160" lat="12.935587">
                <ele>57.000000</ele>
                <time>2019-03-16T04:47:35Z</time>
            </trkpt>
            <trkpt lon="101.518206" lat="12.935605">
                <ele>57.000000</ele>
                <time>2019-03-16T04:47:36Z</time>
            </trkpt>
            <trkpt lon="101.518250" lat="12.935621">
                <ele>57.000000</ele>
                <time>2019-03-16T04:47:37Z</time>
            </trkpt>
            <trkpt lon="101.518295" lat="12.935636">
                <ele>56.900000</ele>
                <time>2019-03-16T04:47:38Z</time>
            </trkpt>
            <trkpt lon="101.518339" lat="12.935652">
                <ele>56.800000</ele>
                <time>2019-03-16T04:47:39Z</time>
            </trkpt>
            <trkpt lon="101.518383" lat="12.935666">
                <ele>56.500000</ele>
                <time>2019-03-16T04:47:40Z</time>
            </trkpt>
            <trkpt lon="101.518426" lat="12.935680">
                <ele>56.200000</ele>
                <time>2019-03-16T04:47:41Z</time>
            </trkpt>
            <trkpt lon="101.518470" lat="12.935696">
                <ele>55.700000</ele>
                <time>2019-03-16T04:47:42Z</time>
            </trkpt>
            <trkpt lon="101.518515" lat="12.935713">
                <ele>54.900000</ele>
                <time>2019-03-16T04:47:43Z</time>
            </trkpt>
            <trkpt lon="101.518561" lat="12.935730">
                <ele>54.100000</ele>
                <time>2019-03-16T04:47:44Z</time>
            </trkpt>
            <trkpt lon="101.518609" lat="12.935747">
                <ele>53.100000</ele>
                <time>2019-03-16T04:47:45Z</time>
            </trkpt>
            <trkpt lon="101.518659" lat="12.935765">
                <ele>52.800000</ele>
                <time>2019-03-16T04:47:46Z</time>
            </trkpt>
            <trkpt lon="101.518707" lat="12.935783">
                <ele>52.700000</ele>
                <time>2019-03-16T04:47:47Z</time>
            </trkpt>
            <trkpt lon="101.518760" lat="12.935803">
                <ele>52.600000</ele>
                <time>2019-03-16T04:47:48Z</time>
            </trkpt>
            <trkpt lon="101.518814" lat="12.935822">
                <ele>52.400000</ele>
                <time>2019-03-16T04:47:49Z</time>
            </trkpt>
            <trkpt lon="101.518869" lat="12.935841">
                <ele>52.300000</ele>
                <time>2019-03-16T04:47:50Z</time>
            </trkpt>
            <trkpt lon="101.518925" lat="12.935861">
                <ele>52.100000</ele>
                <time>2019-03-16T04:47:51Z</time>
            </trkpt>
            <trkpt lon="101.518978" lat="12.935881">
                <ele>52.000000</ele>
                <time>2019-03-16T04:47:52Z</time>
            </trkpt>
            <trkpt lon="101.519031" lat="12.935900">
                <ele>51.900000</ele>
                <time>2019-03-16T04:47:53Z</time>
            </trkpt>
            <trkpt lon="101.519084" lat="12.935917">
                <ele>51.700000</ele>
                <time>2019-03-16T04:47:54Z</time>
            </trkpt>
            <trkpt lon="101.519139" lat="12.935934">
                <ele>51.600000</ele>
                <time>2019-03-16T04:47:55Z</time>
            </trkpt>
            <trkpt lon="101.519193" lat="12.935951">
                <ele>51.500000</ele>
                <time>2019-03-16T04:47:56Z</time>
            </trkpt>
            <trkpt lon="101.519249" lat="12.935968">
                <ele>51.300000</ele>
                <time>2019-03-16T04:47:57Z</time>
            </trkpt>
            <trkpt lon="101.519306" lat="12.935987">
                <ele>51.200000</ele>
                <time>2019-03-16T04:47:58Z</time>
            </trkpt>
            <trkpt lon="101.519362" lat="12.936005">
                <ele>51.100000</ele>
                <time>2019-03-16T04:47:59Z</time>
            </trkpt>
            <trkpt lon="101.519419" lat="12.936020">
                <ele>50.900000</ele>
                <time>2019-03-16T04:48:00Z</time>
            </trkpt>
            <trkpt lon="101.519476" lat="12.936037">
                <ele>50.800000</ele>
                <time>2019-03-16T04:48:01Z</time>
            </trkpt>
            <trkpt lon="101.519532" lat="12.936057">
                <ele>50.700000</ele>
                <time>2019-03-16T04:48:02Z</time>
            </trkpt>
            <trkpt lon="101.519590" lat="12.936080">
                <ele>50.500000</ele>
                <time>2019-03-16T04:48:03Z</time>
            </trkpt>
            <trkpt lon="101.519649" lat="12.936105">
                <ele>50.400000</ele>
                <time>2019-03-16T04:48:04Z</time>
            </trkpt>
            <trkpt lon="101.519709" lat="12.936130">
                <ele>50.200000</ele>
                <time>2019-03-16T04:48:05Z</time>
            </trkpt>
            <trkpt lon="101.519771" lat="12.936158">
                <ele>50.000000</ele>
                <time>2019-03-16T04:48:06Z</time>
            </trkpt>
            <trkpt lon="101.519834" lat="12.936191">
                <ele>49.900000</ele>
                <time>2019-03-16T04:48:07Z</time>
            </trkpt>
            <trkpt lon="101.519900" lat="12.936227">
                <ele>49.700000</ele>
                <time>2019-03-16T04:48:08Z</time>
            </trkpt>
            <trkpt lon="101.519967" lat="12.936260">
                <ele>49.500000</ele>
                <time>2019-03-16T04:48:09Z</time>
            </trkpt>
            <trkpt lon="101.520036" lat="12.936287">
                <ele>49.300000</ele>
                <time>2019-03-16T04:48:10Z</time>
            </trkpt>
            <trkpt lon="101.520106" lat="12.936312">
                <ele>49.200000</ele>
                <time>2019-03-16T04:48:11Z</time>
            </trkpt>
            <trkpt lon="101.520176" lat="12.936335">
                <ele>49.000000</ele>
                <time>2019-03-16T04:48:12Z</time>
            </trkpt>
            <trkpt lon="101.520246" lat="12.936361">
                <ele>48.800000</ele>
                <time>2019-03-16T04:48:13Z</time>
            </trkpt>
            <trkpt lon="101.520316" lat="12.936386">
                <ele>48.600000</ele>
                <time>2019-03-16T04:48:14Z</time>
            </trkpt>
            <trkpt lon="101.520386" lat="12.936411">
                <ele>48.500000</ele>
                <time>2019-03-16T04:48:15Z</time>
            </trkpt>
            <trkpt lon="101.520457" lat="12.936438">
                <ele>48.300000</ele>
                <time>2019-03-16T04:48:16Z</time>
            </trkpt>
            <trkpt lon="101.520528" lat="12.936461">
                <ele>48.100000</ele>
                <time>2019-03-16T04:48:17Z</time>
            </trkpt>
            <trkpt lon="101.520600" lat="12.936482">
                <ele>47.900000</ele>
                <time>2019-03-16T04:48:18Z</time>
            </trkpt>
            <trkpt lon="101.520672" lat="12.936504">
                <ele>47.700000</ele>
                <time>2019-03-16T04:48:19Z</time>
            </trkpt>
            <trkpt lon="101.520743" lat="12.936528">
                <ele>47.500000</ele>
                <time>2019-03-16T04:48:20Z</time>
            </trkpt>
            <trkpt lon="101.520813" lat="12.936554">
                <ele>47.300000</ele>
                <time>2019-03-16T04:48:21Z</time>
            </trkpt>
            <trkpt lon="101.520883" lat="12.936580">
                <ele>47.100000</ele>
                <time>2019-03-16T04:48:22Z</time>
            </trkpt>
            <trkpt lon="101.520953" lat="12.936604">
                <ele>46.900000</ele>
                <time>2019-03-16T04:48:23Z</time>
            </trkpt>
            <trkpt lon="101.521023" lat="12.936629">
                <ele>46.600000</ele>
                <time>2019-03-16T04:48:24Z</time>
            </trkpt>
            <trkpt lon="101.521091" lat="12.936657">
                <ele>46.400000</ele>
                <time>2019-03-16T04:48:25Z</time>
            </trkpt>
            <trkpt lon="101.521159" lat="12.936687">
                <ele>46.200000</ele>
                <time>2019-03-16T04:48:26Z</time>
            </trkpt>
            <trkpt lon="101.521227" lat="12.936717">
                <ele>46.000000</ele>
                <time>2019-03-16T04:48:27Z</time>
            </trkpt>
            <trkpt lon="101.521295" lat="12.936746">
                <ele>45.700000</ele>
                <time>2019-03-16T04:48:28Z</time>
            </trkpt>
            <trkpt lon="101.521363" lat="12.936770">
                <ele>45.400000</ele>
                <time>2019-03-16T04:48:29Z</time>
            </trkpt>
            <trkpt lon="101.521430" lat="12.936792">
                <ele>45.100000</ele>
                <time>2019-03-16T04:48:30Z</time>
            </trkpt>
            <trkpt lon="101.521492" lat="12.936813">
                <ele>44.700000</ele>
                <time>2019-03-16T04:48:31Z</time>
            </trkpt>
            <trkpt lon="101.521549" lat="12.936834">
                <ele>44.300000</ele>
                <time>2019-03-16T04:48:32Z</time>
            </trkpt>
            <trkpt lon="101.521600" lat="12.936858">
                <ele>44.000000</ele>
                <time>2019-03-16T04:48:33Z</time>
            </trkpt>
            <trkpt lon="101.521643" lat="12.936896">
                <ele>43.700000</ele>
                <time>2019-03-16T04:48:34Z</time>
            </trkpt>
            <trkpt lon="101.521668" lat="12.936949">
                <ele>43.600000</ele>
                <time>2019-03-16T04:48:35Z</time>
            </trkpt>
            <trkpt lon="101.521658" lat="12.937001">
                <ele>43.600000</ele>
                <time>2019-03-16T04:48:36Z</time>
            </trkpt>
            <trkpt lon="101.521636" lat="12.937048">
                <ele>43.700000</ele>
                <time>2019-03-16T04:48:37Z</time>
            </trkpt>
            <trkpt lon="101.521616" lat="12.937085">
                <ele>43.800000</ele>
                <time>2019-03-16T04:48:38Z</time>
            </trkpt>
            <trkpt lon="101.521596" lat="12.937125">
                <ele>43.900000</ele>
                <time>2019-03-16T04:48:39Z</time>
            </trkpt>
            <trkpt lon="101.521575" lat="12.937167">
                <ele>43.900000</ele>
                <time>2019-03-16T04:48:40Z</time>
            </trkpt>
            <trkpt lon="101.521555" lat="12.937210">
                <ele>44.000000</ele>
                <time>2019-03-16T04:48:41Z</time>
            </trkpt>
            <trkpt lon="101.521536" lat="12.937252">
                <ele>44.100000</ele>
                <time>2019-03-16T04:48:42Z</time>
            </trkpt>
            <trkpt lon="101.521520" lat="12.937292">
                <ele>44.100000</ele>
                <time>2019-03-16T04:48:43Z</time>
            </trkpt>
            <trkpt lon="101.521505" lat="12.937330">
                <ele>44.200000</ele>
                <time>2019-03-16T04:48:44Z</time>
            </trkpt>
            <trkpt lon="101.521492" lat="12.937366">
                <ele>44.300000</ele>
                <time>2019-03-16T04:48:45Z</time>
            </trkpt>
            <trkpt lon="101.521478" lat="12.937402">
                <ele>44.300000</ele>
                <time>2019-03-16T04:48:46Z</time>
            </trkpt>
            <trkpt lon="101.521464" lat="12.937437">
                <ele>44.400000</ele>
                <time>2019-03-16T04:48:47Z</time>
            </trkpt>
            <trkpt lon="101.521449" lat="12.937473">
                <ele>44.400000</ele>
                <time>2019-03-16T04:48:48Z</time>
            </trkpt>
            <trkpt lon="101.521435" lat="12.937509">
                <ele>44.500000</ele>
                <time>2019-03-16T04:48:49Z</time>
            </trkpt>
            <trkpt lon="101.521421" lat="12.937545">
                <ele>44.600000</ele>
                <time>2019-03-16T04:48:50Z</time>
            </trkpt>
            <trkpt lon="101.521407" lat="12.937581">
                <ele>44.600000</ele>
                <time>2019-03-16T04:48:51Z</time>
            </trkpt>
            <trkpt lon="101.521396" lat="12.937614">
                <ele>44.700000</ele>
                <time>2019-03-16T04:48:52Z</time>
            </trkpt>
            <trkpt lon="101.521385" lat="12.937645">
                <ele>44.700000</ele>
                <time>2019-03-16T04:48:53Z</time>
            </trkpt>
            <trkpt lon="101.521376" lat="12.937676">
                <ele>44.700000</ele>
                <time>2019-03-16T04:48:54Z</time>
            </trkpt>
            <trkpt lon="101.521368" lat="12.937705">
                <ele>44.800000</ele>
                <time>2019-03-16T04:48:55Z</time>
            </trkpt>
            <trkpt lon="101.521360" lat="12.937732">
                <ele>44.800000</ele>
                <time>2019-03-16T04:48:56Z</time>
            </trkpt>
            <trkpt lon="101.521351" lat="12.937773">
                <ele>44.800000</ele>
                <time>2019-03-16T04:48:58Z</time>
            </trkpt>
            <trkpt lon="101.521332" lat="12.937798">
                <ele>44.800000</ele>
                <time>2019-03-16T04:49:07Z</time>
            </trkpt>
            <trkpt lon="101.521312" lat="12.937819">
                <ele>44.900000</ele>
                <time>2019-03-16T04:49:13Z</time>
            </trkpt>
            <trkpt lon="101.521306" lat="12.937852">
                <ele>44.900000</ele>
                <time>2019-03-16T04:49:18Z</time>
            </trkpt>
            <trkpt lon="101.521299" lat="12.937881">
                <ele>44.900000</ele>
                <time>2019-03-16T04:49:23Z</time>
            </trkpt>
            <trkpt lon="101.521300" lat="12.937909">
                <ele>45.100000</ele>
                <time>2019-03-16T04:49:29Z</time>
            </trkpt>
            <trkpt lon="101.521301" lat="12.937938">
                <ele>45.200000</ele>
                <time>2019-03-16T04:49:39Z</time>
            </trkpt>
            <trkpt lon="101.521336" lat="12.937950">
                <ele>45.100000</ele>
                <time>2019-03-16T04:49:46Z</time>
            </trkpt>
            <trkpt lon="101.521374" lat="12.937963">
                <ele>45.000000</ele>
                <time>2019-03-16T04:49:48Z</time>
            </trkpt>
            <trkpt lon="101.521425" lat="12.937984">
                <ele>45.000000</ele>
                <time>2019-03-16T04:49:50Z</time>
            </trkpt>
            <trkpt lon="101.521453" lat="12.937994">
                <ele>45.000000</ele>
                <time>2019-03-16T04:49:51Z</time>
            </trkpt>
            <trkpt lon="101.521482" lat="12.938003">
                <ele>45.000000</ele>
                <time>2019-03-16T04:49:52Z</time>
            </trkpt>
            <trkpt lon="101.521512" lat="12.938012">
                <ele>44.900000</ele>
                <time>2019-03-16T04:49:53Z</time>
            </trkpt>
            <trkpt lon="101.521541" lat="12.938021">
                <ele>44.700000</ele>
                <time>2019-03-16T04:49:54Z</time>
            </trkpt>
            <trkpt lon="101.521570" lat="12.938030">
                <ele>44.700000</ele>
                <time>2019-03-16T04:49:55Z</time>
            </trkpt>
            <trkpt lon="101.521598" lat="12.938040">
                <ele>44.700000</ele>
                <time>2019-03-16T04:49:56Z</time>
            </trkpt>
            <trkpt lon="101.521626" lat="12.938050">
                <ele>44.500000</ele>
                <time>2019-03-16T04:49:57Z</time>
            </trkpt>
            <trkpt lon="101.521652" lat="12.938060">
                <ele>44.600000</ele>
                <time>2019-03-16T04:49:58Z</time>
            </trkpt>
            <trkpt lon="101.521678" lat="12.938071">
                <ele>44.500000</ele>
                <time>2019-03-16T04:49:59Z</time>
            </trkpt>
            <trkpt lon="101.521726" lat="12.938091">
                <ele>44.300000</ele>
                <time>2019-03-16T04:50:01Z</time>
            </trkpt>
            <trkpt lon="101.521757" lat="12.938102">
                <ele>44.100000</ele>
                <time>2019-03-16T04:50:03Z</time>
            </trkpt>
            <trkpt lon="101.521760" lat="12.938075">
                <ele>44.200000</ele>
                <time>2019-03-16T04:50:20Z</time>
            </trkpt>
            <trkpt lon="101.521763" lat="12.938036">
                <ele>44.000000</ele>
                <time>2019-03-16T04:50:23Z</time>
            </trkpt>
            <trkpt lon="101.521768" lat="12.938008">
                <ele>43.800000</ele>
                <time>2019-03-16T04:50:28Z</time>
            </trkpt>
            <trkpt lon="101.521762" lat="12.937977">
                <ele>43.600000</ele>
                <time>2019-03-16T04:50:33Z</time>
            </trkpt>
            <trkpt lon="101.521709" lat="12.937976">
                <ele>43.900000</ele>
                <time>2019-03-16T04:50:56Z</time>
            </trkpt>
            <trkpt lon="101.521689" lat="12.938004">
                <ele>44.400000</ele>
                <time>2019-03-16T04:50:58Z</time>
            </trkpt>
            <trkpt lon="101.521666" lat="12.938056">
                <ele>44.700000</ele>
                <time>2019-03-16T04:51:00Z</time>
            </trkpt>
            <trkpt lon="101.521651" lat="12.938088">
                <ele>45.200000</ele>
                <time>2019-03-16T04:51:01Z</time>
            </trkpt>
            <trkpt lon="101.521642" lat="12.938118">
                <ele>45.200000</ele>
                <time>2019-03-16T04:51:02Z</time>
            </trkpt>
            <trkpt lon="101.521635" lat="12.938150">
                <ele>45.300000</ele>
                <time>2019-03-16T04:51:03Z</time>
            </trkpt>
            <trkpt lon="101.521625" lat="12.938185">
                <ele>45.300000</ele>
                <time>2019-03-16T04:51:04Z</time>
            </trkpt>
            <trkpt lon="101.521616" lat="12.938221">
                <ele>45.300000</ele>
                <time>2019-03-16T04:51:05Z</time>
            </trkpt>
            <trkpt lon="101.521609" lat="12.938260">
                <ele>45.600000</ele>
                <time>2019-03-16T04:51:06Z</time>
            </trkpt>
            <trkpt lon="101.521597" lat="12.938300">
                <ele>45.700000</ele>
                <time>2019-03-16T04:51:07Z</time>
            </trkpt>
            <trkpt lon="101.521585" lat="12.938344">
                <ele>45.700000</ele>
                <time>2019-03-16T04:51:08Z</time>
            </trkpt>
            <trkpt lon="101.521573" lat="12.938382">
                <ele>45.700000</ele>
                <time>2019-03-16T04:51:09Z</time>
            </trkpt>
            <trkpt lon="101.521557" lat="12.938420">
                <ele>46.100000</ele>
                <time>2019-03-16T04:51:10Z</time>
            </trkpt>
            <trkpt lon="101.521547" lat="12.938454">
                <ele>46.300000</ele>
                <time>2019-03-16T04:51:11Z</time>
            </trkpt>
            <trkpt lon="101.521535" lat="12.938488">
                <ele>46.500000</ele>
                <time>2019-03-16T04:51:12Z</time>
            </trkpt>
            <trkpt lon="101.521526" lat="12.938519">
                <ele>46.500000</ele>
                <time>2019-03-16T04:51:13Z</time>
            </trkpt>
            <trkpt lon="101.521518" lat="12.938554">
                <ele>46.600000</ele>
                <time>2019-03-16T04:51:14Z</time>
            </trkpt>
            <trkpt lon="101.521510" lat="12.938590">
                <ele>46.700000</ele>
                <time>2019-03-16T04:51:15Z</time>
            </trkpt>
            <trkpt lon="101.521501" lat="12.938629">
                <ele>47.000000</ele>
                <time>2019-03-16T04:51:16Z</time>
            </trkpt>
            <trkpt lon="101.521492" lat="12.938670">
                <ele>47.300000</ele>
                <time>2019-03-16T04:51:17Z</time>
            </trkpt>
            <trkpt lon="101.521482" lat="12.938712">
                <ele>47.300000</ele>
                <time>2019-03-16T04:51:18Z</time>
            </trkpt>
            <trkpt lon="101.521470" lat="12.938756">
                <ele>47.400000</ele>
                <time>2019-03-16T04:51:19Z</time>
            </trkpt>
            <trkpt lon="101.521457" lat="12.938797">
                <ele>47.100000</ele>
                <time>2019-03-16T04:51:20Z</time>
            </trkpt>
            <trkpt lon="101.521445" lat="12.938838">
                <ele>46.900000</ele>
                <time>2019-03-16T04:51:21Z</time>
            </trkpt>
            <trkpt lon="101.521434" lat="12.938876">
                <ele>46.200000</ele>
                <time>2019-03-16T04:51:22Z</time>
            </trkpt>
            <trkpt lon="101.521421" lat="12.938915">
                <ele>46.000000</ele>
                <time>2019-03-16T04:51:23Z</time>
            </trkpt>
            <trkpt lon="101.521406" lat="12.938955">
                <ele>45.900000</ele>
                <time>2019-03-16T04:51:24Z</time>
            </trkpt>
            <trkpt lon="101.521393" lat="12.938992">
                <ele>45.500000</ele>
                <time>2019-03-16T04:51:25Z</time>
            </trkpt>
            <trkpt lon="101.521381" lat="12.939025">
                <ele>45.500000</ele>
                <time>2019-03-16T04:51:26Z</time>
            </trkpt>
            <trkpt lon="101.521373" lat="12.939054">
                <ele>45.500000</ele>
                <time>2019-03-16T04:51:27Z</time>
            </trkpt>
            <trkpt lon="101.521386" lat="12.939090">
                <ele>45.400000</ele>
                <time>2019-03-16T04:51:29Z</time>
            </trkpt>
            <trkpt lon="101.521417" lat="12.939091">
                <ele>45.700000</ele>
                <time>2019-03-16T04:51:31Z</time>
            </trkpt>
            <trkpt lon="101.521407" lat="12.939057">
                <ele>45.900000</ele>
                <time>2019-03-16T04:51:32Z</time>
            </trkpt>
            <trkpt lon="101.521392" lat="12.939022">
                <ele>45.700000</ele>
                <time>2019-03-16T04:51:35Z</time>
            </trkpt>
            <trkpt lon="101.521379" lat="12.938994">
                <ele>45.700000</ele>
                <time>2019-03-16T04:51:39Z</time>
            </trkpt>
            <trkpt lon="101.521376" lat="12.938963">
                <ele>45.900000</ele>
                <time>2019-03-16T04:51:44Z</time>
            </trkpt>
            <trkpt lon="101.521396" lat="12.938944">
                <ele>45.900000</ele>
                <time>2019-03-16T04:51:46Z</time>
            </trkpt>
            <trkpt lon="101.521426" lat="12.938920">
                <ele>46.500000</ele>
                <time>2019-03-16T04:51:49Z</time>
            </trkpt>
            <trkpt lon="101.521462" lat="12.938906">
                <ele>47.000000</ele>
                <time>2019-03-16T04:51:51Z</time>
            </trkpt>
            <trkpt lon="101.521499" lat="12.938914">
                <ele>47.500000</ele>
                <time>2019-03-16T04:51:53Z</time>
            </trkpt>
            <trkpt lon="101.521537" lat="12.938940">
                <ele>47.700000</ele>
                <time>2019-03-16T04:51:55Z</time>
            </trkpt>
            <trkpt lon="101.521583" lat="12.938954">
                <ele>47.600000</ele>
                <time>2019-03-16T04:51:57Z</time>
            </trkpt>
            <trkpt lon="101.521608" lat="12.938968">
                <ele>47.700000</ele>
                <time>2019-03-16T04:51:58Z</time>
            </trkpt>
            <trkpt lon="101.521632" lat="12.938982">
                <ele>47.900000</ele>
                <time>2019-03-16T04:51:59Z</time>
            </trkpt>
            <trkpt lon="101.521661" lat="12.938998">
                <ele>47.400000</ele>
                <time>2019-03-16T04:52:00Z</time>
            </trkpt>
            <trkpt lon="101.521695" lat="12.939009">
                <ele>47.400000</ele>
                <time>2019-03-16T04:52:01Z</time>
            </trkpt>
            <trkpt lon="101.521728" lat="12.939010">
                <ele>47.100000</ele>
                <time>2019-03-16T04:52:02Z</time>
            </trkpt>
            <trkpt lon="101.521757" lat="12.939005">
                <ele>46.700000</ele>
                <time>2019-03-16T04:52:03Z</time>
            </trkpt>
            <trkpt lon="101.521785" lat="12.939000">
                <ele>46.400000</ele>
                <time>2019-03-16T04:52:04Z</time>
            </trkpt>
            <trkpt lon="101.521834" lat="12.938993">
                <ele>45.900000</ele>
                <time>2019-03-16T04:52:06Z</time>
            </trkpt>
            <trkpt lon="101.521885" lat="12.938993">
                <ele>45.400000</ele>
                <time>2019-03-16T04:52:08Z</time>
            </trkpt>
            <trkpt lon="101.521933" lat="12.939005">
                <ele>44.800000</ele>
                <time>2019-03-16T04:52:10Z</time>
            </trkpt>
            <trkpt lon="101.521950" lat="12.939056">
                <ele>44.200000</ele>
                <time>2019-03-16T04:52:12Z</time>
            </trkpt>
            <trkpt lon="101.521947" lat="12.939083">
                <ele>43.700000</ele>
                <time>2019-03-16T04:52:13Z</time>
            </trkpt>
            <trkpt lon="101.521943" lat="12.939135">
                <ele>43.200000</ele>
                <time>2019-03-16T04:52:15Z</time>
            </trkpt>
            <trkpt lon="101.521966" lat="12.939178">
                <ele>42.300000</ele>
                <time>2019-03-16T04:52:17Z</time>
            </trkpt>
            <trkpt lon="101.522006" lat="12.939201">
                <ele>41.500000</ele>
                <time>2019-03-16T04:52:19Z</time>
            </trkpt>
            <trkpt lon="101.522047" lat="12.939205">
                <ele>41.400000</ele>
                <time>2019-03-16T04:52:21Z</time>
            </trkpt>
            <trkpt lon="101.522089" lat="12.939212">
                <ele>41.400000</ele>
                <time>2019-03-16T04:52:23Z</time>
            </trkpt>
            <trkpt lon="101.522130" lat="12.939228">
                <ele>41.300000</ele>
                <time>2019-03-16T04:52:25Z</time>
            </trkpt>
            <trkpt lon="101.522181" lat="12.939236">
                <ele>41.400000</ele>
                <time>2019-03-16T04:52:27Z</time>
            </trkpt>
            <trkpt lon="101.522213" lat="12.939238">
                <ele>41.700000</ele>
                <time>2019-03-16T04:52:28Z</time>
            </trkpt>
            <trkpt lon="101.522260" lat="12.939216">
                <ele>41.800000</ele>
                <time>2019-03-16T04:52:30Z</time>
            </trkpt>
            <trkpt lon="101.522294" lat="12.939176">
                <ele>41.700000</ele>
                <time>2019-03-16T04:52:32Z</time>
            </trkpt>
            <trkpt lon="101.522328" lat="12.939147">
                <ele>41.700000</ele>
                <time>2019-03-16T04:52:34Z</time>
            </trkpt>
            <trkpt lon="101.522358" lat="12.939117">
                <ele>41.900000</ele>
                <time>2019-03-16T04:52:36Z</time>
            </trkpt>
            <trkpt lon="101.522377" lat="12.939096">
                <ele>41.700000</ele>
                <time>2019-03-16T04:52:37Z</time>
            </trkpt>
            <trkpt lon="101.522397" lat="12.939075">
                <ele>41.900000</ele>
                <time>2019-03-16T04:52:38Z</time>
            </trkpt>
            <trkpt lon="101.522437" lat="12.939033">
                <ele>42.200000</ele>
                <time>2019-03-16T04:52:40Z</time>
            </trkpt>
            <trkpt lon="101.522463" lat="12.939015">
                <ele>42.200000</ele>
                <time>2019-03-16T04:52:41Z</time>
            </trkpt>
            <trkpt lon="101.522493" lat="12.938998">
                <ele>42.500000</ele>
                <time>2019-03-16T04:52:42Z</time>
            </trkpt>
            <trkpt lon="101.522519" lat="12.938986">
                <ele>42.800000</ele>
                <time>2019-03-16T04:52:43Z</time>
            </trkpt>
            <trkpt lon="101.522561" lat="12.938972">
                <ele>43.300000</ele>
                <time>2019-03-16T04:52:45Z</time>
            </trkpt>
            <trkpt lon="101.522599" lat="12.938967">
                <ele>43.800000</ele>
                <time>2019-03-16T04:52:48Z</time>
            </trkpt>
            <trkpt lon="101.522639" lat="12.938961">
                <ele>43.800000</ele>
                <time>2019-03-16T04:52:51Z</time>
            </trkpt>
            <trkpt lon="101.522672" lat="12.938956">
                <ele>44.300000</ele>
                <time>2019-03-16T04:52:53Z</time>
            </trkpt>
            <trkpt lon="101.522703" lat="12.938981">
                <ele>44.600000</ele>
                <time>2019-03-16T04:52:56Z</time>
            </trkpt>
            <trkpt lon="101.522721" lat="12.939011">
                <ele>44.400000</ele>
                <time>2019-03-16T04:52:59Z</time>
            </trkpt>
            <trkpt lon="101.522682" lat="12.938996">
                <ele>44.200000</ele>
                <time>2019-03-16T04:58:09Z</time>
            </trkpt>
            <trkpt lon="101.522719" lat="12.938986">
                <ele>44.500000</ele>
                <time>2019-03-16T04:58:37Z</time>
            </trkpt>
            <trkpt lon="101.522766" lat="12.939000">
                <ele>44.700000</ele>
                <time>2019-03-16T04:58:39Z</time>
            </trkpt>
            <trkpt lon="101.522793" lat="12.939010">
                <ele>44.900000</ele>
                <time>2019-03-16T04:58:40Z</time>
            </trkpt>
            <trkpt lon="101.522852" lat="12.939034">
                <ele>45.000000</ele>
                <time>2019-03-16T04:58:42Z</time>
            </trkpt>
            <trkpt lon="101.522899" lat="12.939060">
                <ele>44.900000</ele>
                <time>2019-03-16T04:58:44Z</time>
            </trkpt>
            <trkpt lon="101.522935" lat="12.939087">
                <ele>44.900000</ele>
                <time>2019-03-16T04:58:46Z</time>
            </trkpt>
            <trkpt lon="101.522973" lat="12.939114">
                <ele>44.600000</ele>
                <time>2019-03-16T04:58:48Z</time>
            </trkpt>
            <trkpt lon="101.523014" lat="12.939137">
                <ele>44.400000</ele>
                <time>2019-03-16T04:58:50Z</time>
            </trkpt>
            <trkpt lon="101.523049" lat="12.939161">
                <ele>44.400000</ele>
                <time>2019-03-16T04:58:52Z</time>
            </trkpt>
            <trkpt lon="101.523088" lat="12.939181">
                <ele>44.400000</ele>
                <time>2019-03-16T04:58:54Z</time>
            </trkpt>
            <trkpt lon="101.523130" lat="12.939213">
                <ele>44.400000</ele>
                <time>2019-03-16T04:58:56Z</time>
            </trkpt>
            <trkpt lon="101.523148" lat="12.939235">
                <ele>44.400000</ele>
                <time>2019-03-16T04:58:57Z</time>
            </trkpt>
            <trkpt lon="101.523180" lat="12.939275">
                <ele>44.400000</ele>
                <time>2019-03-16T04:58:59Z</time>
            </trkpt>
            <trkpt lon="101.523213" lat="12.939310">
                <ele>44.200000</ele>
                <time>2019-03-16T04:59:01Z</time>
            </trkpt>
            <trkpt lon="101.523248" lat="12.939342">
                <ele>44.000000</ele>
                <time>2019-03-16T04:59:03Z</time>
            </trkpt>
            <trkpt lon="101.523279" lat="12.939375">
                <ele>43.800000</ele>
                <time>2019-03-16T04:59:05Z</time>
            </trkpt>
            <trkpt lon="101.523296" lat="12.939400">
                <ele>43.900000</ele>
                <time>2019-03-16T04:59:06Z</time>
            </trkpt>
            <trkpt lon="101.523311" lat="12.939423">
                <ele>43.700000</ele>
                <time>2019-03-16T04:59:07Z</time>
            </trkpt>
            <trkpt lon="101.523341" lat="12.939457">
                <ele>44.000000</ele>
                <time>2019-03-16T04:59:09Z</time>
            </trkpt>
            <trkpt lon="101.523363" lat="12.939475">
                <ele>44.000000</ele>
                <time>2019-03-16T04:59:10Z</time>
            </trkpt>
            <trkpt lon="101.523387" lat="12.939493">
                <ele>44.400000</ele>
                <time>2019-03-16T04:59:11Z</time>
            </trkpt>
            <trkpt lon="101.523414" lat="12.939510">
                <ele>44.400000</ele>
                <time>2019-03-16T04:59:12Z</time>
            </trkpt>
            <trkpt lon="101.523444" lat="12.939527">
                <ele>44.500000</ele>
                <time>2019-03-16T04:59:13Z</time>
            </trkpt>
            <trkpt lon="101.523474" lat="12.939545">
                <ele>44.800000</ele>
                <time>2019-03-16T04:59:14Z</time>
            </trkpt>
            <trkpt lon="101.523499" lat="12.939562">
                <ele>44.800000</ele>
                <time>2019-03-16T04:59:15Z</time>
            </trkpt>
            <trkpt lon="101.523524" lat="12.939579">
                <ele>45.000000</ele>
                <time>2019-03-16T04:59:16Z</time>
            </trkpt>
            <trkpt lon="101.523553" lat="12.939598">
                <ele>45.000000</ele>
                <time>2019-03-16T04:59:17Z</time>
            </trkpt>
            <trkpt lon="101.523579" lat="12.939619">
                <ele>45.000000</ele>
                <time>2019-03-16T04:59:18Z</time>
            </trkpt>
            <trkpt lon="101.523604" lat="12.939640">
                <ele>44.800000</ele>
                <time>2019-03-16T04:59:19Z</time>
            </trkpt>
            <trkpt lon="101.523632" lat="12.939664">
                <ele>44.600000</ele>
                <time>2019-03-16T04:59:20Z</time>
            </trkpt>
            <trkpt lon="101.523659" lat="12.939688">
                <ele>44.700000</ele>
                <time>2019-03-16T04:59:21Z</time>
            </trkpt>
            <trkpt lon="101.523689" lat="12.939713">
                <ele>44.500000</ele>
                <time>2019-03-16T04:59:22Z</time>
            </trkpt>
            <trkpt lon="101.523722" lat="12.939736">
                <ele>44.200000</ele>
                <time>2019-03-16T04:59:23Z</time>
            </trkpt>
            <trkpt lon="101.523754" lat="12.939760">
                <ele>44.200000</ele>
                <time>2019-03-16T04:59:24Z</time>
            </trkpt>
            <trkpt lon="101.523788" lat="12.939784">
                <ele>43.500000</ele>
                <time>2019-03-16T04:59:25Z</time>
            </trkpt>
            <trkpt lon="101.523824" lat="12.939809">
                <ele>43.200000</ele>
                <time>2019-03-16T04:59:26Z</time>
            </trkpt>
            <trkpt lon="101.523860" lat="12.939834">
                <ele>42.700000</ele>
                <time>2019-03-16T04:59:27Z</time>
            </trkpt>
            <trkpt lon="101.523896" lat="12.939859">
                <ele>42.400000</ele>
                <time>2019-03-16T04:59:28Z</time>
            </trkpt>
            <trkpt lon="101.523923" lat="12.939883">
                <ele>42.400000</ele>
                <time>2019-03-16T04:59:29Z</time>
            </trkpt>
            <trkpt lon="101.523959" lat="12.939908">
                <ele>41.900000</ele>
                <time>2019-03-16T04:59:30Z</time>
            </trkpt>
            <trkpt lon="101.523997" lat="12.939936">
                <ele>41.500000</ele>
                <time>2019-03-16T04:59:31Z</time>
            </trkpt>
            <trkpt lon="101.524038" lat="12.939964">
                <ele>41.000000</ele>
                <time>2019-03-16T04:59:32Z</time>
            </trkpt>
            <trkpt lon="101.524085" lat="12.939995">
                <ele>40.700000</ele>
                <time>2019-03-16T04:59:33Z</time>
            </trkpt>
            <trkpt lon="101.524136" lat="12.940028">
                <ele>40.700000</ele>
                <time>2019-03-16T04:59:34Z</time>
            </trkpt>
            <trkpt lon="101.524192" lat="12.940062">
                <ele>40.800000</ele>
                <time>2019-03-16T04:59:35Z</time>
            </trkpt>
            <trkpt lon="101.524248" lat="12.940094">
                <ele>40.800000</ele>
                <time>2019-03-16T04:59:36Z</time>
            </trkpt>
            <trkpt lon="101.524309" lat="12.940128">
                <ele>40.500000</ele>
                <time>2019-03-16T04:59:37Z</time>
            </trkpt>
            <trkpt lon="101.524374" lat="12.940163">
                <ele>39.900000</ele>
                <time>2019-03-16T04:59:38Z</time>
            </trkpt>
            <trkpt lon="101.524443" lat="12.940202">
                <ele>39.300000</ele>
                <time>2019-03-16T04:59:39Z</time>
            </trkpt>
            <trkpt lon="101.524512" lat="12.940241">
                <ele>39.000000</ele>
                <time>2019-03-16T04:59:40Z</time>
            </trkpt>
            <trkpt lon="101.524580" lat="12.940279">
                <ele>38.900000</ele>
                <time>2019-03-16T04:59:41Z</time>
            </trkpt>
            <trkpt lon="101.524651" lat="12.940319">
                <ele>38.500000</ele>
                <time>2019-03-16T04:59:42Z</time>
            </trkpt>
            <trkpt lon="101.524724" lat="12.940361">
                <ele>38.100000</ele>
                <time>2019-03-16T04:59:43Z</time>
            </trkpt>
            <trkpt lon="101.524798" lat="12.940403">
                <ele>37.700000</ele>
                <time>2019-03-16T04:59:44Z</time>
            </trkpt>
            <trkpt lon="101.524872" lat="12.940446">
                <ele>37.500000</ele>
                <time>2019-03-16T04:59:45Z</time>
            </trkpt>
            <trkpt lon="101.524945" lat="12.940488">
                <ele>37.200000</ele>
                <time>2019-03-16T04:59:46Z</time>
            </trkpt>
            <trkpt lon="101.525017" lat="12.940529">
                <ele>37.300000</ele>
                <time>2019-03-16T04:59:47Z</time>
            </trkpt>
            <trkpt lon="101.525087" lat="12.940570">
                <ele>37.300000</ele>
                <time>2019-03-16T04:59:48Z</time>
            </trkpt>
            <trkpt lon="101.525157" lat="12.940611">
                <ele>37.300000</ele>
                <time>2019-03-16T04:59:49Z</time>
            </trkpt>
            <trkpt lon="101.525227" lat="12.940652">
                <ele>37.400000</ele>
                <time>2019-03-16T04:59:50Z</time>
            </trkpt>
            <trkpt lon="101.525296" lat="12.940694">
                <ele>37.400000</ele>
                <time>2019-03-16T04:59:51Z</time>
            </trkpt>
            <trkpt lon="101.525364" lat="12.940736">
                <ele>37.500000</ele>
                <time>2019-03-16T04:59:52Z</time>
            </trkpt>
            <trkpt lon="101.525428" lat="12.940779">
                <ele>37.300000</ele>
                <time>2019-03-16T04:59:53Z</time>
            </trkpt>
            <trkpt lon="101.525493" lat="12.940819">
                <ele>36.800000</ele>
                <time>2019-03-16T04:59:54Z</time>
            </trkpt>
            <trkpt lon="101.525558" lat="12.940857">
                <ele>36.700000</ele>
                <time>2019-03-16T04:59:55Z</time>
            </trkpt>
            <trkpt lon="101.525622" lat="12.940895">
                <ele>36.400000</ele>
                <time>2019-03-16T04:59:56Z</time>
            </trkpt>
            <trkpt lon="101.525688" lat="12.940931">
                <ele>36.000000</ele>
                <time>2019-03-16T04:59:57Z</time>
            </trkpt>
            <trkpt lon="101.525754" lat="12.940966">
                <ele>35.300000</ele>
                <time>2019-03-16T04:59:58Z</time>
            </trkpt>
            <trkpt lon="101.525817" lat="12.941004">
                <ele>35.200000</ele>
                <time>2019-03-16T04:59:59Z</time>
            </trkpt>
            <trkpt lon="101.525880" lat="12.941042">
                <ele>34.900000</ele>
                <time>2019-03-16T05:00:00Z</time>
            </trkpt>
            <trkpt lon="101.525942" lat="12.941081">
                <ele>34.600000</ele>
                <time>2019-03-16T05:00:01Z</time>
            </trkpt>
            <trkpt lon="101.526004" lat="12.941119">
                <ele>34.400000</ele>
                <time>2019-03-16T05:00:02Z</time>
            </trkpt>
            <trkpt lon="101.526065" lat="12.941157">
                <ele>34.500000</ele>
                <time>2019-03-16T05:00:03Z</time>
            </trkpt>
            <trkpt lon="101.526125" lat="12.941196">
                <ele>34.400000</ele>
                <time>2019-03-16T05:00:04Z</time>
            </trkpt>
            <trkpt lon="101.526185" lat="12.941233">
                <ele>34.500000</ele>
                <time>2019-03-16T05:00:05Z</time>
            </trkpt>
            <trkpt lon="101.526244" lat="12.941268">
                <ele>34.500000</ele>
                <time>2019-03-16T05:00:06Z</time>
            </trkpt>
            <trkpt lon="101.526302" lat="12.941300">
                <ele>34.800000</ele>
                <time>2019-03-16T05:00:07Z</time>
            </trkpt>
            <trkpt lon="101.526360" lat="12.941333">
                <ele>34.800000</ele>
                <time>2019-03-16T05:00:08Z</time>
            </trkpt>
            <trkpt lon="101.526416" lat="12.941365">
                <ele>35.100000</ele>
                <time>2019-03-16T05:00:09Z</time>
            </trkpt>
            <trkpt lon="101.526470" lat="12.941398">
                <ele>35.400000</ele>
                <time>2019-03-16T05:00:10Z</time>
            </trkpt>
            <trkpt lon="101.526523" lat="12.941429">
                <ele>35.600000</ele>
                <time>2019-03-16T05:00:11Z</time>
            </trkpt>
            <trkpt lon="101.526577" lat="12.941457">
                <ele>35.900000</ele>
                <time>2019-03-16T05:00:12Z</time>
            </trkpt>
            <trkpt lon="101.526631" lat="12.941483">
                <ele>36.200000</ele>
                <time>2019-03-16T05:00:13Z</time>
            </trkpt>
            <trkpt lon="101.526685" lat="12.941506">
                <ele>36.600000</ele>
                <time>2019-03-16T05:00:14Z</time>
            </trkpt>
            <trkpt lon="101.526738" lat="12.941529">
                <ele>36.800000</ele>
                <time>2019-03-16T05:00:15Z</time>
            </trkpt>
            <trkpt lon="101.526786" lat="12.941555">
                <ele>37.300000</ele>
                <time>2019-03-16T05:00:16Z</time>
            </trkpt>
            <trkpt lon="101.526830" lat="12.941582">
                <ele>37.400000</ele>
                <time>2019-03-16T05:00:17Z</time>
            </trkpt>
            <trkpt lon="101.526874" lat="12.941612">
                <ele>37.500000</ele>
                <time>2019-03-16T05:00:18Z</time>
            </trkpt>
            <trkpt lon="101.526917" lat="12.941639">
                <ele>37.500000</ele>
                <time>2019-03-16T05:00:19Z</time>
            </trkpt>
            <trkpt lon="101.526961" lat="12.941667">
                <ele>37.600000</ele>
                <time>2019-03-16T05:00:20Z</time>
            </trkpt>
            <trkpt lon="101.527004" lat="12.941692">
                <ele>37.400000</ele>
                <time>2019-03-16T05:00:21Z</time>
            </trkpt>
            <trkpt lon="101.527046" lat="12.941716">
                <ele>37.200000</ele>
                <time>2019-03-16T05:00:22Z</time>
            </trkpt>
            <trkpt lon="101.527087" lat="12.941739">
                <ele>37.000000</ele>
                <time>2019-03-16T05:00:23Z</time>
            </trkpt>
            <trkpt lon="101.527126" lat="12.941761">
                <ele>36.800000</ele>
                <time>2019-03-16T05:00:24Z</time>
            </trkpt>
            <trkpt lon="101.527161" lat="12.941784">
                <ele>36.400000</ele>
                <time>2019-03-16T05:00:25Z</time>
            </trkpt>
            <trkpt lon="101.527189" lat="12.941803">
                <ele>36.500000</ele>
                <time>2019-03-16T05:00:26Z</time>
            </trkpt>
            <trkpt lon="101.527224" lat="12.941826">
                <ele>36.000000</ele>
                <time>2019-03-16T05:00:28Z</time>
            </trkpt>
            <trkpt lon="101.527256" lat="12.941839">
                <ele>35.600000</ele>
                <time>2019-03-16T05:00:30Z</time>
            </trkpt>
            <trkpt lon="101.527278" lat="12.941882">
                <ele>35.100000</ele>
                <time>2019-03-16T05:00:32Z</time>
            </trkpt>
            <trkpt lon="101.527273" lat="12.941911">
                <ele>35.100000</ele>
                <time>2019-03-16T05:00:33Z</time>
            </trkpt>
            <trkpt lon="101.527266" lat="12.941942">
                <ele>35.100000</ele>
                <time>2019-03-16T05:00:34Z</time>
            </trkpt>
            <trkpt lon="101.527262" lat="12.941976">
                <ele>35.100000</ele>
                <time>2019-03-16T05:00:35Z</time>
            </trkpt>
            <trkpt lon="101.527259" lat="12.942012">
                <ele>35.100000</ele>
                <time>2019-03-16T05:00:36Z</time>
            </trkpt>
            <trkpt lon="101.527255" lat="12.942049">
                <ele>35.200000</ele>
                <time>2019-03-16T05:00:37Z</time>
            </trkpt>
            <trkpt lon="101.527251" lat="12.942088">
                <ele>35.200000</ele>
                <time>2019-03-16T05:00:38Z</time>
            </trkpt>
            <trkpt lon="101.527245" lat="12.942129">
                <ele>35.200000</ele>
                <time>2019-03-16T05:00:39Z</time>
            </trkpt>
            <trkpt lon="101.527239" lat="12.942170">
                <ele>35.200000</ele>
                <time>2019-03-16T05:00:40Z</time>
            </trkpt>
            <trkpt lon="101.527236" lat="12.942211">
                <ele>35.200000</ele>
                <time>2019-03-16T05:00:41Z</time>
            </trkpt>
            <trkpt lon="101.527233" lat="12.942253">
                <ele>35.200000</ele>
                <time>2019-03-16T05:00:42Z</time>
            </trkpt>
            <trkpt lon="101.527232" lat="12.942297">
                <ele>35.300000</ele>
                <time>2019-03-16T05:00:43Z</time>
            </trkpt>
            <trkpt lon="101.527231" lat="12.942342">
                <ele>35.300000</ele>
                <time>2019-03-16T05:00:44Z</time>
            </trkpt>
            <trkpt lon="101.527230" lat="12.942388">
                <ele>35.300000</ele>
                <time>2019-03-16T05:00:45Z</time>
            </trkpt>
            <trkpt lon="101.527228" lat="12.942435">
                <ele>35.300000</ele>
                <time>2019-03-16T05:00:46Z</time>
            </trkpt>
            <trkpt lon="101.527226" lat="12.942482">
                <ele>35.400000</ele>
                <time>2019-03-16T05:00:47Z</time>
            </trkpt>
            <trkpt lon="101.527225" lat="12.942530">
                <ele>35.400000</ele>
                <time>2019-03-16T05:00:48Z</time>
            </trkpt>
            <trkpt lon="101.527224" lat="12.942577">
                <ele>35.500000</ele>
                <time>2019-03-16T05:00:49Z</time>
            </trkpt>
            <trkpt lon="101.527222" lat="12.942626">
                <ele>35.500000</ele>
                <time>2019-03-16T05:00:50Z</time>
            </trkpt>
            <trkpt lon="101.527219" lat="12.942675">
                <ele>35.500000</ele>
                <time>2019-03-16T05:00:51Z</time>
            </trkpt>
            <trkpt lon="101.527216" lat="12.942725">
                <ele>35.600000</ele>
                <time>2019-03-16T05:00:52Z</time>
            </trkpt>
            <trkpt lon="101.527214" lat="12.942775">
                <ele>35.600000</ele>
                <time>2019-03-16T05:00:53Z</time>
            </trkpt>
            <trkpt lon="101.527212" lat="12.942825">
                <ele>35.700000</ele>
                <time>2019-03-16T05:00:54Z</time>
            </trkpt>
            <trkpt lon="101.527208" lat="12.942876">
                <ele>35.700000</ele>
                <time>2019-03-16T05:00:55Z</time>
            </trkpt>
            <trkpt lon="101.527204" lat="12.942925">
                <ele>35.800000</ele>
                <time>2019-03-16T05:00:56Z</time>
            </trkpt>
            <trkpt lon="101.527196" lat="12.942974">
                <ele>35.800000</ele>
                <time>2019-03-16T05:00:57Z</time>
            </trkpt>
            <trkpt lon="101.527189" lat="12.943023">
                <ele>35.900000</ele>
                <time>2019-03-16T05:00:58Z</time>
            </trkpt>
            <trkpt lon="101.527178" lat="12.943069">
                <ele>36.000000</ele>
                <time>2019-03-16T05:00:59Z</time>
            </trkpt>
            <trkpt lon="101.527167" lat="12.943117">
                <ele>36.000000</ele>
                <time>2019-03-16T05:01:00Z</time>
            </trkpt>
            <trkpt lon="101.527155" lat="12.943161">
                <ele>36.100000</ele>
                <time>2019-03-16T05:01:01Z</time>
            </trkpt>
            <trkpt lon="101.527142" lat="12.943209">
                <ele>36.200000</ele>
                <time>2019-03-16T05:01:02Z</time>
            </trkpt>
            <trkpt lon="101.527128" lat="12.943261">
                <ele>36.200000</ele>
                <time>2019-03-16T05:01:03Z</time>
            </trkpt>
            <trkpt lon="101.527114" lat="12.943310">
                <ele>36.300000</ele>
                <time>2019-03-16T05:01:04Z</time>
            </trkpt>
            <trkpt lon="101.527099" lat="12.943366">
                <ele>36.400000</ele>
                <time>2019-03-16T05:01:05Z</time>
            </trkpt>
            <trkpt lon="101.527084" lat="12.943421">
                <ele>36.500000</ele>
                <time>2019-03-16T05:01:06Z</time>
            </trkpt>
            <trkpt lon="101.527070" lat="12.943475">
                <ele>36.500000</ele>
                <time>2019-03-16T05:01:07Z</time>
            </trkpt>
            <trkpt lon="101.527054" lat="12.943529">
                <ele>36.600000</ele>
                <time>2019-03-16T05:01:08Z</time>
            </trkpt>
            <trkpt lon="101.527041" lat="12.943585">
                <ele>36.700000</ele>
                <time>2019-03-16T05:01:09Z</time>
            </trkpt>
            <trkpt lon="101.527026" lat="12.943642">
                <ele>36.700000</ele>
                <time>2019-03-16T05:01:10Z</time>
            </trkpt>
            <trkpt lon="101.527012" lat="12.943700">
                <ele>36.800000</ele>
                <time>2019-03-16T05:01:11Z</time>
            </trkpt>
            <trkpt lon="101.526998" lat="12.943758">
                <ele>36.800000</ele>
                <time>2019-03-16T05:01:12Z</time>
            </trkpt>
            <trkpt lon="101.526982" lat="12.943817">
                <ele>36.900000</ele>
                <time>2019-03-16T05:01:13Z</time>
            </trkpt>
            <trkpt lon="101.526964" lat="12.943875">
                <ele>37.000000</ele>
                <time>2019-03-16T05:01:14Z</time>
            </trkpt>
            <trkpt lon="101.526948" lat="12.943933">
                <ele>37.000000</ele>
                <time>2019-03-16T05:01:15Z</time>
            </trkpt>
            <trkpt lon="101.526932" lat="12.943991">
                <ele>37.100000</ele>
                <time>2019-03-16T05:01:16Z</time>
            </trkpt>
            <trkpt lon="101.526915" lat="12.944049">
                <ele>37.200000</ele>
                <time>2019-03-16T05:01:17Z</time>
            </trkpt>
            <trkpt lon="101.526899" lat="12.944106">
                <ele>37.300000</ele>
                <time>2019-03-16T05:01:18Z</time>
            </trkpt>
            <trkpt lon="101.526884" lat="12.944166">
                <ele>37.400000</ele>
                <time>2019-03-16T05:01:19Z</time>
            </trkpt>
            <trkpt lon="101.526869" lat="12.944225">
                <ele>37.500000</ele>
                <time>2019-03-16T05:01:20Z</time>
            </trkpt>
            <trkpt lon="101.526855" lat="12.944283">
                <ele>37.600000</ele>
                <time>2019-03-16T05:01:21Z</time>
            </trkpt>
            <trkpt lon="101.526840" lat="12.944340">
                <ele>37.700000</ele>
                <time>2019-03-16T05:01:22Z</time>
            </trkpt>
            <trkpt lon="101.526824" lat="12.944398">
                <ele>37.700000</ele>
                <time>2019-03-16T05:01:23Z</time>
            </trkpt>
            <trkpt lon="101.526809" lat="12.944456">
                <ele>37.800000</ele>
                <time>2019-03-16T05:01:24Z</time>
            </trkpt>
            <trkpt lon="101.526794" lat="12.944515">
                <ele>37.800000</ele>
                <time>2019-03-16T05:01:25Z</time>
            </trkpt>
            <trkpt lon="101.526778" lat="12.944575">
                <ele>37.900000</ele>
                <time>2019-03-16T05:01:26Z</time>
            </trkpt>
            <trkpt lon="101.526763" lat="12.944630">
                <ele>37.900000</ele>
                <time>2019-03-16T05:01:27Z</time>
            </trkpt>
            <trkpt lon="101.526747" lat="12.944689">
                <ele>38.000000</ele>
                <time>2019-03-16T05:01:28Z</time>
            </trkpt>
            <trkpt lon="101.526732" lat="12.944747">
                <ele>38.100000</ele>
                <time>2019-03-16T05:01:29Z</time>
            </trkpt>
            <trkpt lon="101.526717" lat="12.944807">
                <ele>38.200000</ele>
                <time>2019-03-16T05:01:30Z</time>
            </trkpt>
            <trkpt lon="101.526705" lat="12.944866">
                <ele>38.200000</ele>
                <time>2019-03-16T05:01:31Z</time>
            </trkpt>
            <trkpt lon="101.526694" lat="12.944924">
                <ele>38.300000</ele>
                <time>2019-03-16T05:01:32Z</time>
            </trkpt>
            <trkpt lon="101.526685" lat="12.944982">
                <ele>38.400000</ele>
                <time>2019-03-16T05:01:33Z</time>
            </trkpt>
            <trkpt lon="101.526678" lat="12.945042">
                <ele>38.400000</ele>
                <time>2019-03-16T05:01:34Z</time>
            </trkpt>
            <trkpt lon="101.526678" lat="12.945105">
                <ele>38.500000</ele>
                <time>2019-03-16T05:01:35Z</time>
            </trkpt>
            <trkpt lon="101.526681" lat="12.945166">
                <ele>38.500000</ele>
                <time>2019-03-16T05:01:36Z</time>
            </trkpt>
            <trkpt lon="101.526687" lat="12.945222">
                <ele>38.600000</ele>
                <time>2019-03-16T05:01:37Z</time>
            </trkpt>
            <trkpt lon="101.526700" lat="12.945285">
                <ele>38.600000</ele>
                <time>2019-03-16T05:01:38Z</time>
            </trkpt>
            <trkpt lon="101.526713" lat="12.945348">
                <ele>38.700000</ele>
                <time>2019-03-16T05:01:39Z</time>
            </trkpt>
            <trkpt lon="101.526733" lat="12.945408">
                <ele>38.700000</ele>
                <time>2019-03-16T05:01:40Z</time>
            </trkpt>
            <trkpt lon="101.526752" lat="12.945467">
                <ele>38.800000</ele>
                <time>2019-03-16T05:01:41Z</time>
            </trkpt>
            <trkpt lon="101.526772" lat="12.945528">
                <ele>38.800000</ele>
                <time>2019-03-16T05:01:42Z</time>
            </trkpt>
            <trkpt lon="101.526791" lat="12.945584">
                <ele>38.900000</ele>
                <time>2019-03-16T05:01:43Z</time>
            </trkpt>
            <trkpt lon="101.526812" lat="12.945637">
                <ele>38.900000</ele>
                <time>2019-03-16T05:01:44Z</time>
            </trkpt>
            <trkpt lon="101.526835" lat="12.945696">
                <ele>39.000000</ele>
                <time>2019-03-16T05:01:45Z</time>
            </trkpt>
            <trkpt lon="101.526860" lat="12.945751">
                <ele>39.000000</ele>
                <time>2019-03-16T05:01:46Z</time>
            </trkpt>
            <trkpt lon="101.526883" lat="12.945810">
                <ele>39.100000</ele>
                <time>2019-03-16T05:01:47Z</time>
            </trkpt>
            <trkpt lon="101.526903" lat="12.945865">
                <ele>39.100000</ele>
                <time>2019-03-16T05:01:48Z</time>
            </trkpt>
            <trkpt lon="101.526925" lat="12.945923">
                <ele>39.200000</ele>
                <time>2019-03-16T05:01:49Z</time>
            </trkpt>
            <trkpt lon="101.526947" lat="12.945981">
                <ele>39.200000</ele>
                <time>2019-03-16T05:01:50Z</time>
            </trkpt>
            <trkpt lon="101.526970" lat="12.946042">
                <ele>39.200000</ele>
                <time>2019-03-16T05:01:51Z</time>
            </trkpt>
            <trkpt lon="101.526995" lat="12.946097">
                <ele>39.000000</ele>
                <time>2019-03-16T05:01:52Z</time>
            </trkpt>
            <trkpt lon="101.527020" lat="12.946155">
                <ele>38.700000</ele>
                <time>2019-03-16T05:01:53Z</time>
            </trkpt>
            <trkpt lon="101.527043" lat="12.946212">
                <ele>38.400000</ele>
                <time>2019-03-16T05:01:54Z</time>
            </trkpt>
            <trkpt lon="101.527067" lat="12.946270">
                <ele>38.200000</ele>
                <time>2019-03-16T05:01:55Z</time>
            </trkpt>
            <trkpt lon="101.527087" lat="12.946328">
                <ele>38.100000</ele>
                <time>2019-03-16T05:01:56Z</time>
            </trkpt>
            <trkpt lon="101.527109" lat="12.946387">
                <ele>37.900000</ele>
                <time>2019-03-16T05:01:57Z</time>
            </trkpt>
            <trkpt lon="101.527130" lat="12.946448">
                <ele>37.800000</ele>
                <time>2019-03-16T05:01:58Z</time>
            </trkpt>
            <trkpt lon="101.527150" lat="12.946503">
                <ele>37.600000</ele>
                <time>2019-03-16T05:01:59Z</time>
            </trkpt>
            <trkpt lon="101.527169" lat="12.946560">
                <ele>37.500000</ele>
                <time>2019-03-16T05:02:00Z</time>
            </trkpt>
            <trkpt lon="101.527190" lat="12.946616">
                <ele>37.300000</ele>
                <time>2019-03-16T05:02:01Z</time>
            </trkpt>
            <trkpt lon="101.527210" lat="12.946671">
                <ele>37.200000</ele>
                <time>2019-03-16T05:02:02Z</time>
            </trkpt>
            <trkpt lon="101.527230" lat="12.946722">
                <ele>37.100000</ele>
                <time>2019-03-16T05:02:03Z</time>
            </trkpt>
            <trkpt lon="101.527253" lat="12.946778">
                <ele>37.000000</ele>
                <time>2019-03-16T05:02:04Z</time>
            </trkpt>
            <trkpt lon="101.527279" lat="12.946831">
                <ele>36.900000</ele>
                <time>2019-03-16T05:02:05Z</time>
            </trkpt>
            <trkpt lon="101.527306" lat="12.946883">
                <ele>36.900000</ele>
                <time>2019-03-16T05:02:06Z</time>
            </trkpt>
            <trkpt lon="101.527338" lat="12.946933">
                <ele>36.800000</ele>
                <time>2019-03-16T05:02:07Z</time>
            </trkpt>
            <trkpt lon="101.527371" lat="12.946981">
                <ele>36.600000</ele>
                <time>2019-03-16T05:02:08Z</time>
            </trkpt>
            <trkpt lon="101.527408" lat="12.947028">
                <ele>36.300000</ele>
                <time>2019-03-16T05:02:09Z</time>
            </trkpt>
            <trkpt lon="101.527447" lat="12.947072">
                <ele>36.100000</ele>
                <time>2019-03-16T05:02:10Z</time>
            </trkpt>
            <trkpt lon="101.527486" lat="12.947115">
                <ele>35.900000</ele>
                <time>2019-03-16T05:02:11Z</time>
            </trkpt>
            <trkpt lon="101.527525" lat="12.947158">
                <ele>35.800000</ele>
                <time>2019-03-16T05:02:12Z</time>
            </trkpt>
            <trkpt lon="101.527565" lat="12.947201">
                <ele>35.700000</ele>
                <time>2019-03-16T05:02:13Z</time>
            </trkpt>
            <trkpt lon="101.527604" lat="12.947241">
                <ele>35.500000</ele>
                <time>2019-03-16T05:02:14Z</time>
            </trkpt>
            <trkpt lon="101.527643" lat="12.947279">
                <ele>35.400000</ele>
                <time>2019-03-16T05:02:15Z</time>
            </trkpt>
            <trkpt lon="101.527682" lat="12.947316">
                <ele>35.200000</ele>
                <time>2019-03-16T05:02:16Z</time>
            </trkpt>
            <trkpt lon="101.527719" lat="12.947351">
                <ele>35.000000</ele>
                <time>2019-03-16T05:02:17Z</time>
            </trkpt>
            <trkpt lon="101.527754" lat="12.947384">
                <ele>34.900000</ele>
                <time>2019-03-16T05:02:18Z</time>
            </trkpt>
            <trkpt lon="101.527785" lat="12.947423">
                <ele>34.900000</ele>
                <time>2019-03-16T05:02:19Z</time>
            </trkpt>
            <trkpt lon="101.527806" lat="12.947465">
                <ele>34.800000</ele>
                <time>2019-03-16T05:02:20Z</time>
            </trkpt>
            <trkpt lon="101.527811" lat="12.947513">
                <ele>34.700000</ele>
                <time>2019-03-16T05:02:21Z</time>
            </trkpt>
            <trkpt lon="101.527810" lat="12.947558">
                <ele>34.800000</ele>
                <time>2019-03-16T05:02:22Z</time>
            </trkpt>
            <trkpt lon="101.527800" lat="12.947605">
                <ele>35.200000</ele>
                <time>2019-03-16T05:02:23Z</time>
            </trkpt>
            <trkpt lon="101.527784" lat="12.947656">
                <ele>35.600000</ele>
                <time>2019-03-16T05:02:24Z</time>
            </trkpt>
            <trkpt lon="101.527767" lat="12.947706">
                <ele>36.300000</ele>
                <time>2019-03-16T05:02:25Z</time>
            </trkpt>
            <trkpt lon="101.527745" lat="12.947754">
                <ele>36.800000</ele>
                <time>2019-03-16T05:02:26Z</time>
            </trkpt>
            <trkpt lon="101.527724" lat="12.947803">
                <ele>37.100000</ele>
                <time>2019-03-16T05:02:27Z</time>
            </trkpt>
            <trkpt lon="101.527707" lat="12.947854">
                <ele>37.300000</ele>
                <time>2019-03-16T05:02:28Z</time>
            </trkpt>
            <trkpt lon="101.527695" lat="12.947903">
                <ele>37.600000</ele>
                <time>2019-03-16T05:02:29Z</time>
            </trkpt>
            <trkpt lon="101.527681" lat="12.947949">
                <ele>37.900000</ele>
                <time>2019-03-16T05:02:30Z</time>
            </trkpt>
            <trkpt lon="101.527667" lat="12.947992">
                <ele>38.100000</ele>
                <time>2019-03-16T05:02:31Z</time>
            </trkpt>
            <trkpt lon="101.527657" lat="12.948035">
                <ele>38.300000</ele>
                <time>2019-03-16T05:02:32Z</time>
            </trkpt>
            <trkpt lon="101.527650" lat="12.948076">
                <ele>38.600000</ele>
                <time>2019-03-16T05:02:33Z</time>
            </trkpt>
            <trkpt lon="101.527640" lat="12.948118">
                <ele>38.800000</ele>
                <time>2019-03-16T05:02:34Z</time>
            </trkpt>
            <trkpt lon="101.527634" lat="12.948158">
                <ele>39.100000</ele>
                <time>2019-03-16T05:02:35Z</time>
            </trkpt>
            <trkpt lon="101.527632" lat="12.948198">
                <ele>39.300000</ele>
                <time>2019-03-16T05:02:36Z</time>
            </trkpt>
            <trkpt lon="101.527627" lat="12.948237">
                <ele>39.600000</ele>
                <time>2019-03-16T05:02:37Z</time>
            </trkpt>
            <trkpt lon="101.527624" lat="12.948280">
                <ele>39.700000</ele>
                <time>2019-03-16T05:02:38Z</time>
            </trkpt>
            <trkpt lon="101.527619" lat="12.948323">
                <ele>39.800000</ele>
                <time>2019-03-16T05:02:39Z</time>
            </trkpt>
            <trkpt lon="101.527615" lat="12.948365">
                <ele>39.800000</ele>
                <time>2019-03-16T05:02:40Z</time>
            </trkpt>
            <trkpt lon="101.527609" lat="12.948411">
                <ele>39.600000</ele>
                <time>2019-03-16T05:02:41Z</time>
            </trkpt>
            <trkpt lon="101.527601" lat="12.948457">
                <ele>39.600000</ele>
                <time>2019-03-16T05:02:42Z</time>
            </trkpt>
            <trkpt lon="101.527596" lat="12.948502">
                <ele>39.600000</ele>
                <time>2019-03-16T05:02:43Z</time>
            </trkpt>
            <trkpt lon="101.527585" lat="12.948551">
                <ele>39.600000</ele>
                <time>2019-03-16T05:02:44Z</time>
            </trkpt>
            <trkpt lon="101.527575" lat="12.948598">
                <ele>39.500000</ele>
                <time>2019-03-16T05:02:45Z</time>
            </trkpt>
            <trkpt lon="101.527567" lat="12.948645">
                <ele>39.500000</ele>
                <time>2019-03-16T05:02:46Z</time>
            </trkpt>
            <trkpt lon="101.527559" lat="12.948691">
                <ele>39.500000</ele>
                <time>2019-03-16T05:02:47Z</time>
            </trkpt>
            <trkpt lon="101.527550" lat="12.948736">
                <ele>39.600000</ele>
                <time>2019-03-16T05:02:48Z</time>
            </trkpt>
            <trkpt lon="101.527539" lat="12.948782">
                <ele>39.700000</ele>
                <time>2019-03-16T05:02:49Z</time>
            </trkpt>
            <trkpt lon="101.527529" lat="12.948828">
                <ele>39.700000</ele>
                <time>2019-03-16T05:02:50Z</time>
            </trkpt>
            <trkpt lon="101.527520" lat="12.948874">
                <ele>39.400000</ele>
                <time>2019-03-16T05:02:51Z</time>
            </trkpt>
            <trkpt lon="101.527511" lat="12.948919">
                <ele>39.200000</ele>
                <time>2019-03-16T05:02:52Z</time>
            </trkpt>
            <trkpt lon="101.527503" lat="12.948963">
                <ele>39.200000</ele>
                <time>2019-03-16T05:02:53Z</time>
            </trkpt>
            <trkpt lon="101.527497" lat="12.949005">
                <ele>39.200000</ele>
                <time>2019-03-16T05:02:54Z</time>
            </trkpt>
            <trkpt lon="101.527491" lat="12.949050">
                <ele>39.200000</ele>
                <time>2019-03-16T05:02:55Z</time>
            </trkpt>
            <trkpt lon="101.527487" lat="12.949092">
                <ele>39.200000</ele>
                <time>2019-03-16T05:02:56Z</time>
            </trkpt>
            <trkpt lon="101.527484" lat="12.949134">
                <ele>39.200000</ele>
                <time>2019-03-16T05:02:57Z</time>
            </trkpt>
            <trkpt lon="101.527483" lat="12.949175">
                <ele>39.100000</ele>
                <time>2019-03-16T05:02:58Z</time>
            </trkpt>
            <trkpt lon="101.527481" lat="12.949220">
                <ele>38.900000</ele>
                <time>2019-03-16T05:02:59Z</time>
            </trkpt>
            <trkpt lon="101.527479" lat="12.949268">
                <ele>38.600000</ele>
                <time>2019-03-16T05:03:00Z</time>
            </trkpt>
            <trkpt lon="101.527475" lat="12.949314">
                <ele>38.500000</ele>
                <time>2019-03-16T05:03:01Z</time>
            </trkpt>
            <trkpt lon="101.527470" lat="12.949361">
                <ele>38.300000</ele>
                <time>2019-03-16T05:03:02Z</time>
            </trkpt>
            <trkpt lon="101.527464" lat="12.949411">
                <ele>38.000000</ele>
                <time>2019-03-16T05:03:03Z</time>
            </trkpt>
            <trkpt lon="101.527460" lat="12.949462">
                <ele>37.600000</ele>
                <time>2019-03-16T05:03:04Z</time>
            </trkpt>
            <trkpt lon="101.527454" lat="12.949515">
                <ele>37.100000</ele>
                <time>2019-03-16T05:03:05Z</time>
            </trkpt>
            <trkpt lon="101.527448" lat="12.949570">
                <ele>37.000000</ele>
                <time>2019-03-16T05:03:06Z</time>
            </trkpt>
            <trkpt lon="101.527442" lat="12.949624">
                <ele>36.900000</ele>
                <time>2019-03-16T05:03:07Z</time>
            </trkpt>
            <trkpt lon="101.527434" lat="12.949680">
                <ele>36.700000</ele>
                <time>2019-03-16T05:03:08Z</time>
            </trkpt>
            <trkpt lon="101.527427" lat="12.949738">
                <ele>36.500000</ele>
                <time>2019-03-16T05:03:09Z</time>
            </trkpt>
            <trkpt lon="101.527418" lat="12.949795">
                <ele>36.300000</ele>
                <time>2019-03-16T05:03:10Z</time>
            </trkpt>
            <trkpt lon="101.527411" lat="12.949853">
                <ele>35.500000</ele>
                <time>2019-03-16T05:03:11Z</time>
            </trkpt>
            <trkpt lon="101.527406" lat="12.949908">
                <ele>35.100000</ele>
                <time>2019-03-16T05:03:12Z</time>
            </trkpt>
            <trkpt lon="101.527398" lat="12.949968">
                <ele>34.900000</ele>
                <time>2019-03-16T05:03:13Z</time>
            </trkpt>
            <trkpt lon="101.527391" lat="12.950030">
                <ele>34.400000</ele>
                <time>2019-03-16T05:03:14Z</time>
            </trkpt>
            <trkpt lon="101.527384" lat="12.950091">
                <ele>33.900000</ele>
                <time>2019-03-16T05:03:15Z</time>
            </trkpt>
            <trkpt lon="101.527376" lat="12.950153">
                <ele>33.300000</ele>
                <time>2019-03-16T05:03:16Z</time>
            </trkpt>
            <trkpt lon="101.527367" lat="12.950215">
                <ele>32.100000</ele>
                <time>2019-03-16T05:03:17Z</time>
            </trkpt>
            <trkpt lon="101.527356" lat="12.950278">
                <ele>31.300000</ele>
                <time>2019-03-16T05:03:18Z</time>
            </trkpt>
            <trkpt lon="101.527344" lat="12.950339">
                <ele>30.700000</ele>
                <time>2019-03-16T05:03:19Z</time>
            </trkpt>
            <trkpt lon="101.527333" lat="12.950399">
                <ele>30.300000</ele>
                <time>2019-03-16T05:03:20Z</time>
            </trkpt>
            <trkpt lon="101.527320" lat="12.950460">
                <ele>29.800000</ele>
                <time>2019-03-16T05:03:21Z</time>
            </trkpt>
            <trkpt lon="101.527310" lat="12.950518">
                <ele>29.300000</ele>
                <time>2019-03-16T05:03:22Z</time>
            </trkpt>
            <trkpt lon="101.527304" lat="12.950571">
                <ele>29.000000</ele>
                <time>2019-03-16T05:03:23Z</time>
            </trkpt>
            <trkpt lon="101.527300" lat="12.950621">
                <ele>28.900000</ele>
                <time>2019-03-16T05:03:24Z</time>
            </trkpt>
            <trkpt lon="101.527294" lat="12.950673">
                <ele>28.900000</ele>
                <time>2019-03-16T05:03:25Z</time>
            </trkpt>
            <trkpt lon="101.527290" lat="12.950722">
                <ele>28.800000</ele>
                <time>2019-03-16T05:03:26Z</time>
            </trkpt>
            <trkpt lon="101.527287" lat="12.950773">
                <ele>28.700000</ele>
                <time>2019-03-16T05:03:27Z</time>
            </trkpt>
            <trkpt lon="101.527283" lat="12.950826">
                <ele>28.600000</ele>
                <time>2019-03-16T05:03:28Z</time>
            </trkpt>
            <trkpt lon="101.527283" lat="12.950879">
                <ele>28.500000</ele>
                <time>2019-03-16T05:03:29Z</time>
            </trkpt>
            <trkpt lon="101.527285" lat="12.950935">
                <ele>28.400000</ele>
                <time>2019-03-16T05:03:30Z</time>
            </trkpt>
            <trkpt lon="101.527287" lat="12.950990">
                <ele>28.200000</ele>
                <time>2019-03-16T05:03:31Z</time>
            </trkpt>
            <trkpt lon="101.527291" lat="12.951044">
                <ele>28.100000</ele>
                <time>2019-03-16T05:03:32Z</time>
            </trkpt>
            <trkpt lon="101.527295" lat="12.951104">
                <ele>28.000000</ele>
                <time>2019-03-16T05:03:33Z</time>
            </trkpt>
            <trkpt lon="101.527298" lat="12.951164">
                <ele>28.000000</ele>
                <time>2019-03-16T05:03:34Z</time>
            </trkpt>
            <trkpt lon="101.527301" lat="12.951223">
                <ele>28.000000</ele>
                <time>2019-03-16T05:03:35Z</time>
            </trkpt>
            <trkpt lon="101.527305" lat="12.951282">
                <ele>28.000000</ele>
                <time>2019-03-16T05:03:36Z</time>
            </trkpt>
            <trkpt lon="101.527311" lat="12.951339">
                <ele>28.100000</ele>
                <time>2019-03-16T05:03:37Z</time>
            </trkpt>
            <trkpt lon="101.527318" lat="12.951400">
                <ele>28.300000</ele>
                <time>2019-03-16T05:03:38Z</time>
            </trkpt>
            <trkpt lon="101.527330" lat="12.951461">
                <ele>28.500000</ele>
                <time>2019-03-16T05:03:39Z</time>
            </trkpt>
            <trkpt lon="101.527340" lat="12.951523">
                <ele>28.600000</ele>
                <time>2019-03-16T05:03:40Z</time>
            </trkpt>
            <trkpt lon="101.527351" lat="12.951583">
                <ele>28.800000</ele>
                <time>2019-03-16T05:03:41Z</time>
            </trkpt>
            <trkpt lon="101.527363" lat="12.951643">
                <ele>29.100000</ele>
                <time>2019-03-16T05:03:42Z</time>
            </trkpt>
            <trkpt lon="101.527374" lat="12.951702">
                <ele>29.500000</ele>
                <time>2019-03-16T05:03:43Z</time>
            </trkpt>
            <trkpt lon="101.527387" lat="12.951758">
                <ele>29.600000</ele>
                <time>2019-03-16T05:03:44Z</time>
            </trkpt>
            <trkpt lon="101.527398" lat="12.951807">
                <ele>29.800000</ele>
                <time>2019-03-16T05:03:45Z</time>
            </trkpt>
            <trkpt lon="101.527401" lat="12.951850">
                <ele>30.200000</ele>
                <time>2019-03-16T05:03:46Z</time>
            </trkpt>
            <trkpt lon="101.527386" lat="12.951886">
                <ele>30.500000</ele>
                <time>2019-03-16T05:03:47Z</time>
            </trkpt>
            <trkpt lon="101.527350" lat="12.951916">
                <ele>30.500000</ele>
                <time>2019-03-16T05:03:48Z</time>
            </trkpt>
            <trkpt lon="101.527303" lat="12.951934">
                <ele>30.200000</ele>
                <time>2019-03-16T05:03:49Z</time>
            </trkpt>
            <trkpt lon="101.527253" lat="12.951933">
                <ele>30.000000</ele>
                <time>2019-03-16T05:03:50Z</time>
            </trkpt>
            <trkpt lon="101.527202" lat="12.951933">
                <ele>29.700000</ele>
                <time>2019-03-16T05:03:51Z</time>
            </trkpt>
            <trkpt lon="101.527148" lat="12.951933">
                <ele>29.500000</ele>
                <time>2019-03-16T05:03:52Z</time>
            </trkpt>
            <trkpt lon="101.527095" lat="12.951936">
                <ele>29.300000</ele>
                <time>2019-03-16T05:03:53Z</time>
            </trkpt>
            <trkpt lon="101.527041" lat="12.951943">
                <ele>29.300000</ele>
                <time>2019-03-16T05:03:54Z</time>
            </trkpt>
            <trkpt lon="101.526987" lat="12.951951">
                <ele>29.500000</ele>
                <time>2019-03-16T05:03:55Z</time>
            </trkpt>
            <trkpt lon="101.526931" lat="12.951960">
                <ele>29.900000</ele>
                <time>2019-03-16T05:03:56Z</time>
            </trkpt>
            <trkpt lon="101.526873" lat="12.951967">
                <ele>30.100000</ele>
                <time>2019-03-16T05:03:57Z</time>
            </trkpt>
            <trkpt lon="101.526814" lat="12.951975">
                <ele>30.400000</ele>
                <time>2019-03-16T05:03:58Z</time>
            </trkpt>
            <trkpt lon="101.526755" lat="12.951981">
                <ele>30.600000</ele>
                <time>2019-03-16T05:03:59Z</time>
            </trkpt>
            <trkpt lon="101.526700" lat="12.951988">
                <ele>30.600000</ele>
                <time>2019-03-16T05:04:00Z</time>
            </trkpt>
            <trkpt lon="101.526643" lat="12.951998">
                <ele>30.800000</ele>
                <time>2019-03-16T05:04:01Z</time>
            </trkpt>
            <trkpt lon="101.526588" lat="12.952005">
                <ele>30.800000</ele>
                <time>2019-03-16T05:04:02Z</time>
            </trkpt>
            <trkpt lon="101.526532" lat="12.952011">
                <ele>30.800000</ele>
                <time>2019-03-16T05:04:03Z</time>
            </trkpt>
            <trkpt lon="101.526477" lat="12.952016">
                <ele>30.800000</ele>
                <time>2019-03-16T05:04:04Z</time>
            </trkpt>
            <trkpt lon="101.526423" lat="12.952021">
                <ele>30.800000</ele>
                <time>2019-03-16T05:04:05Z</time>
            </trkpt>
            <trkpt lon="101.526370" lat="12.952023">
                <ele>30.800000</ele>
                <time>2019-03-16T05:04:06Z</time>
            </trkpt>
            <trkpt lon="101.526316" lat="12.952024">
                <ele>30.800000</ele>
                <time>2019-03-16T05:04:07Z</time>
            </trkpt>
            <trkpt lon="101.526264" lat="12.952025">
                <ele>30.900000</ele>
                <time>2019-03-16T05:04:08Z</time>
            </trkpt>
            <trkpt lon="101.526209" lat="12.952027">
                <ele>31.100000</ele>
                <time>2019-03-16T05:04:09Z</time>
            </trkpt>
            <trkpt lon="101.526155" lat="12.952030">
                <ele>31.600000</ele>
                <time>2019-03-16T05:04:10Z</time>
            </trkpt>
            <trkpt lon="101.526102" lat="12.952034">
                <ele>32.100000</ele>
                <time>2019-03-16T05:04:11Z</time>
            </trkpt>
            <trkpt lon="101.526051" lat="12.952040">
                <ele>32.400000</ele>
                <time>2019-03-16T05:04:12Z</time>
            </trkpt>
            <trkpt lon="101.525998" lat="12.952047">
                <ele>32.600000</ele>
                <time>2019-03-16T05:04:13Z</time>
            </trkpt>
            <trkpt lon="101.525944" lat="12.952051">
                <ele>33.100000</ele>
                <time>2019-03-16T05:04:14Z</time>
            </trkpt>
            <trkpt lon="101.525890" lat="12.952057">
                <ele>33.300000</ele>
                <time>2019-03-16T05:04:15Z</time>
            </trkpt>
            <trkpt lon="101.525836" lat="12.952063">
                <ele>33.500000</ele>
                <time>2019-03-16T05:04:16Z</time>
            </trkpt>
            <trkpt lon="101.525784" lat="12.952070">
                <ele>33.600000</ele>
                <time>2019-03-16T05:04:17Z</time>
            </trkpt>
            <trkpt lon="101.525739" lat="12.952079">
                <ele>34.300000</ele>
                <time>2019-03-16T05:04:18Z</time>
            </trkpt>
            <trkpt lon="101.525695" lat="12.952089">
                <ele>34.300000</ele>
                <time>2019-03-16T05:04:19Z</time>
            </trkpt>
            <trkpt lon="101.525653" lat="12.952095">
                <ele>34.300000</ele>
                <time>2019-03-16T05:04:20Z</time>
            </trkpt>
            <trkpt lon="101.525611" lat="12.952099">
                <ele>34.300000</ele>
                <time>2019-03-16T05:04:21Z</time>
            </trkpt>
            <trkpt lon="101.525566" lat="12.952104">
                <ele>34.300000</ele>
                <time>2019-03-16T05:04:22Z</time>
            </trkpt>
            <trkpt lon="101.525527" lat="12.952112">
                <ele>34.300000</ele>
                <time>2019-03-16T05:04:23Z</time>
            </trkpt>
            <trkpt lon="101.525487" lat="12.952120">
                <ele>34.400000</ele>
                <time>2019-03-16T05:04:24Z</time>
            </trkpt>
            <trkpt lon="101.525444" lat="12.952127">
                <ele>34.400000</ele>
                <time>2019-03-16T05:04:25Z</time>
            </trkpt>
            <trkpt lon="101.525398" lat="12.952136">
                <ele>34.300000</ele>
                <time>2019-03-16T05:04:26Z</time>
            </trkpt>
            <trkpt lon="101.525357" lat="12.952142">
                <ele>34.100000</ele>
                <time>2019-03-16T05:04:27Z</time>
            </trkpt>
            <trkpt lon="101.525322" lat="12.952149">
                <ele>33.900000</ele>
                <time>2019-03-16T05:04:28Z</time>
            </trkpt>
            <trkpt lon="101.525286" lat="12.952158">
                <ele>33.700000</ele>
                <time>2019-03-16T05:04:29Z</time>
            </trkpt>
            <trkpt lon="101.525240" lat="12.952170">
                <ele>33.800000</ele>
                <time>2019-03-16T05:04:30Z</time>
            </trkpt>
            <trkpt lon="101.525193" lat="12.952183">
                <ele>33.700000</ele>
                <time>2019-03-16T05:04:31Z</time>
            </trkpt>
            <trkpt lon="101.525142" lat="12.952197">
                <ele>33.600000</ele>
                <time>2019-03-16T05:04:32Z</time>
            </trkpt>
            <trkpt lon="101.525089" lat="12.952207">
                <ele>33.500000</ele>
                <time>2019-03-16T05:04:33Z</time>
            </trkpt>
            <trkpt lon="101.525040" lat="12.952218">
                <ele>33.400000</ele>
                <time>2019-03-16T05:04:34Z</time>
            </trkpt>
            <trkpt lon="101.524991" lat="12.952227">
                <ele>33.400000</ele>
                <time>2019-03-16T05:04:35Z</time>
            </trkpt>
            <trkpt lon="101.524944" lat="12.952237">
                <ele>33.400000</ele>
                <time>2019-03-16T05:04:36Z</time>
            </trkpt>
            <trkpt lon="101.524894" lat="12.952248">
                <ele>33.400000</ele>
                <time>2019-03-16T05:04:37Z</time>
            </trkpt>
            <trkpt lon="101.524841" lat="12.952256">
                <ele>33.400000</ele>
                <time>2019-03-16T05:04:38Z</time>
            </trkpt>
            <trkpt lon="101.524793" lat="12.952265">
                <ele>33.400000</ele>
                <time>2019-03-16T05:04:39Z</time>
            </trkpt>
            <trkpt lon="101.524743" lat="12.952274">
                <ele>33.400000</ele>
                <time>2019-03-16T05:04:40Z</time>
            </trkpt>
            <trkpt lon="101.524693" lat="12.952284">
                <ele>33.600000</ele>
                <time>2019-03-16T05:04:41Z</time>
            </trkpt>
            <trkpt lon="101.524644" lat="12.952293">
                <ele>33.600000</ele>
                <time>2019-03-16T05:04:42Z</time>
            </trkpt>
            <trkpt lon="101.524592" lat="12.952300">
                <ele>33.600000</ele>
                <time>2019-03-16T05:04:43Z</time>
            </trkpt>
            <trkpt lon="101.524539" lat="12.952308">
                <ele>33.600000</ele>
                <time>2019-03-16T05:04:44Z</time>
            </trkpt>
            <trkpt lon="101.524486" lat="12.952317">
                <ele>33.600000</ele>
                <time>2019-03-16T05:04:45Z</time>
            </trkpt>
            <trkpt lon="101.524435" lat="12.952325">
                <ele>33.600000</ele>
                <time>2019-03-16T05:04:46Z</time>
            </trkpt>
            <trkpt lon="101.524385" lat="12.952331">
                <ele>33.700000</ele>
                <time>2019-03-16T05:04:47Z</time>
            </trkpt>
            <trkpt lon="101.524331" lat="12.952341">
                <ele>33.400000</ele>
                <time>2019-03-16T05:04:48Z</time>
            </trkpt>
            <trkpt lon="101.524283" lat="12.952350">
                <ele>33.200000</ele>
                <time>2019-03-16T05:04:49Z</time>
            </trkpt>
            <trkpt lon="101.524233" lat="12.952357">
                <ele>32.900000</ele>
                <time>2019-03-16T05:04:50Z</time>
            </trkpt>
            <trkpt lon="101.524185" lat="12.952366">
                <ele>33.100000</ele>
                <time>2019-03-16T05:04:51Z</time>
            </trkpt>
            <trkpt lon="101.524139" lat="12.952375">
                <ele>33.300000</ele>
                <time>2019-03-16T05:04:52Z</time>
            </trkpt>
            <trkpt lon="101.524095" lat="12.952385">
                <ele>33.400000</ele>
                <time>2019-03-16T05:04:53Z</time>
            </trkpt>
            <trkpt lon="101.524052" lat="12.952395">
                <ele>33.600000</ele>
                <time>2019-03-16T05:04:54Z</time>
            </trkpt>
            <trkpt lon="101.524006" lat="12.952405">
                <ele>33.700000</ele>
                <time>2019-03-16T05:04:55Z</time>
            </trkpt>
            <trkpt lon="101.523962" lat="12.952413">
                <ele>34.100000</ele>
                <time>2019-03-16T05:04:56Z</time>
            </trkpt>
            <trkpt lon="101.523918" lat="12.952422">
                <ele>34.300000</ele>
                <time>2019-03-16T05:04:57Z</time>
            </trkpt>
            <trkpt lon="101.523873" lat="12.952432">
                <ele>34.200000</ele>
                <time>2019-03-16T05:04:58Z</time>
            </trkpt>
            <trkpt lon="101.523834" lat="12.952439">
                <ele>34.000000</ele>
                <time>2019-03-16T05:04:59Z</time>
            </trkpt>
            <trkpt lon="101.523797" lat="12.952447">
                <ele>33.700000</ele>
                <time>2019-03-16T05:05:00Z</time>
            </trkpt>
            <trkpt lon="101.523757" lat="12.952454">
                <ele>33.800000</ele>
                <time>2019-03-16T05:05:01Z</time>
            </trkpt>
            <trkpt lon="101.523716" lat="12.952460">
                <ele>33.500000</ele>
                <time>2019-03-16T05:05:02Z</time>
            </trkpt>
            <trkpt lon="101.523675" lat="12.952469">
                <ele>33.400000</ele>
                <time>2019-03-16T05:05:03Z</time>
            </trkpt>
            <trkpt lon="101.523637" lat="12.952479">
                <ele>33.400000</ele>
                <time>2019-03-16T05:05:04Z</time>
            </trkpt>
            <trkpt lon="101.523601" lat="12.952492">
                <ele>33.400000</ele>
                <time>2019-03-16T05:05:05Z</time>
            </trkpt>
            <trkpt lon="101.523567" lat="12.952508">
                <ele>33.400000</ele>
                <time>2019-03-16T05:05:06Z</time>
            </trkpt>
            <trkpt lon="101.523540" lat="12.952527">
                <ele>33.400000</ele>
                <time>2019-03-16T05:05:07Z</time>
            </trkpt>
            <trkpt lon="101.523516" lat="12.952544">
                <ele>33.400000</ele>
                <time>2019-03-16T05:05:08Z</time>
            </trkpt>
            <trkpt lon="101.523503" lat="12.952587">
                <ele>33.400000</ele>
                <time>2019-03-16T05:05:10Z</time>
            </trkpt>
            <trkpt lon="101.523517" lat="12.952635">
                <ele>33.500000</ele>
                <time>2019-03-16T05:05:12Z</time>
            </trkpt>
            <trkpt lon="101.523530" lat="12.952662">
                <ele>33.500000</ele>
                <time>2019-03-16T05:05:13Z</time>
            </trkpt>
            <trkpt lon="101.523543" lat="12.952689">
                <ele>33.500000</ele>
                <time>2019-03-16T05:05:14Z</time>
            </trkpt>
            <trkpt lon="101.523556" lat="12.952715">
                <ele>33.500000</ele>
                <time>2019-03-16T05:05:15Z</time>
            </trkpt>
            <trkpt lon="101.523569" lat="12.952744">
                <ele>33.500000</ele>
                <time>2019-03-16T05:05:16Z</time>
            </trkpt>
            <trkpt lon="101.523582" lat="12.952771">
                <ele>33.500000</ele>
                <time>2019-03-16T05:05:17Z</time>
            </trkpt>
            <trkpt lon="101.523596" lat="12.952797">
                <ele>33.300000</ele>
                <time>2019-03-16T05:05:18Z</time>
            </trkpt>
            <trkpt lon="101.523610" lat="12.952823">
                <ele>33.300000</ele>
                <time>2019-03-16T05:05:19Z</time>
            </trkpt>
            <trkpt lon="101.523623" lat="12.952849">
                <ele>33.200000</ele>
                <time>2019-03-16T05:05:20Z</time>
            </trkpt>
            <trkpt lon="101.523638" lat="12.952875">
                <ele>33.200000</ele>
                <time>2019-03-16T05:05:21Z</time>
            </trkpt>
            <trkpt lon="101.523654" lat="12.952904">
                <ele>33.200000</ele>
                <time>2019-03-16T05:05:22Z</time>
            </trkpt>
            <trkpt lon="101.523672" lat="12.952933">
                <ele>33.300000</ele>
                <time>2019-03-16T05:05:23Z</time>
            </trkpt>
            <trkpt lon="101.523693" lat="12.952965">
                <ele>33.100000</ele>
                <time>2019-03-16T05:05:24Z</time>
            </trkpt>
            <trkpt lon="101.523713" lat="12.953000">
                <ele>32.900000</ele>
                <time>2019-03-16T05:05:25Z</time>
            </trkpt>
            <trkpt lon="101.523733" lat="12.953037">
                <ele>32.800000</ele>
                <time>2019-03-16T05:05:26Z</time>
            </trkpt>
            <trkpt lon="101.523754" lat="12.953073">
                <ele>32.800000</ele>
                <time>2019-03-16T05:05:27Z</time>
            </trkpt>
            <trkpt lon="101.523776" lat="12.953110">
                <ele>32.800000</ele>
                <time>2019-03-16T05:05:28Z</time>
            </trkpt>
            <trkpt lon="101.523797" lat="12.953149">
                <ele>32.600000</ele>
                <time>2019-03-16T05:05:29Z</time>
            </trkpt>
            <trkpt lon="101.523817" lat="12.953190">
                <ele>32.600000</ele>
                <time>2019-03-16T05:05:30Z</time>
            </trkpt>
            <trkpt lon="101.523836" lat="12.953230">
                <ele>32.400000</ele>
                <time>2019-03-16T05:05:31Z</time>
            </trkpt>
            <trkpt lon="101.523856" lat="12.953267">
                <ele>32.400000</ele>
                <time>2019-03-16T05:05:32Z</time>
            </trkpt>
            <trkpt lon="101.523877" lat="12.953304">
                <ele>32.100000</ele>
                <time>2019-03-16T05:05:33Z</time>
            </trkpt>
            <trkpt lon="101.523897" lat="12.953341">
                <ele>32.100000</ele>
                <time>2019-03-16T05:05:34Z</time>
            </trkpt>
            <trkpt lon="101.523919" lat="12.953381">
                <ele>31.900000</ele>
                <time>2019-03-16T05:05:35Z</time>
            </trkpt>
            <trkpt lon="101.523942" lat="12.953421">
                <ele>31.900000</ele>
                <time>2019-03-16T05:05:36Z</time>
            </trkpt>
            <trkpt lon="101.523966" lat="12.953465">
                <ele>31.600000</ele>
                <time>2019-03-16T05:05:37Z</time>
            </trkpt>
            <trkpt lon="101.523994" lat="12.953514">
                <ele>31.600000</ele>
                <time>2019-03-16T05:05:38Z</time>
            </trkpt>
            <trkpt lon="101.524022" lat="12.953562">
                <ele>31.600000</ele>
                <time>2019-03-16T05:05:39Z</time>
            </trkpt>
            <trkpt lon="101.524051" lat="12.953612">
                <ele>31.400000</ele>
                <time>2019-03-16T05:05:40Z</time>
            </trkpt>
            <trkpt lon="101.524078" lat="12.953663">
                <ele>31.400000</ele>
                <time>2019-03-16T05:05:41Z</time>
            </trkpt>
            <trkpt lon="101.524102" lat="12.953714">
                <ele>31.100000</ele>
                <time>2019-03-16T05:05:42Z</time>
            </trkpt>
            <trkpt lon="101.524113" lat="12.953771">
                <ele>30.900000</ele>
                <time>2019-03-16T05:05:43Z</time>
            </trkpt>
            <trkpt lon="101.524128" lat="12.953826">
                <ele>30.600000</ele>
                <time>2019-03-16T05:05:44Z</time>
            </trkpt>
            <trkpt lon="101.524146" lat="12.953878">
                <ele>30.400000</ele>
                <time>2019-03-16T05:05:45Z</time>
            </trkpt>
            <trkpt lon="101.524168" lat="12.953925">
                <ele>30.100000</ele>
                <time>2019-03-16T05:05:46Z</time>
            </trkpt>
            <trkpt lon="101.524191" lat="12.953970">
                <ele>30.300000</ele>
                <time>2019-03-16T05:05:47Z</time>
            </trkpt>
            <trkpt lon="101.524214" lat="12.954015">
                <ele>30.200000</ele>
                <time>2019-03-16T05:05:48Z</time>
            </trkpt>
            <trkpt lon="101.524238" lat="12.954055">
                <ele>30.600000</ele>
                <time>2019-03-16T05:05:49Z</time>
            </trkpt>
            <trkpt lon="101.524262" lat="12.954094">
                <ele>30.600000</ele>
                <time>2019-03-16T05:05:50Z</time>
            </trkpt>
            <trkpt lon="101.524285" lat="12.954130">
                <ele>31.100000</ele>
                <time>2019-03-16T05:05:51Z</time>
            </trkpt>
            <trkpt lon="101.524306" lat="12.954164">
                <ele>31.100000</ele>
                <time>2019-03-16T05:05:52Z</time>
            </trkpt>
            <trkpt lon="101.524327" lat="12.954197">
                <ele>31.400000</ele>
                <time>2019-03-16T05:05:53Z</time>
            </trkpt>
            <trkpt lon="101.524345" lat="12.954227">
                <ele>31.200000</ele>
                <time>2019-03-16T05:05:54Z</time>
            </trkpt>
            <trkpt lon="101.524364" lat="12.954257">
                <ele>31.400000</ele>
                <time>2019-03-16T05:05:55Z</time>
            </trkpt>
            <trkpt lon="101.524383" lat="12.954287">
                <ele>31.400000</ele>
                <time>2019-03-16T05:05:56Z</time>
            </trkpt>
            <trkpt lon="101.524400" lat="12.954317">
                <ele>31.500000</ele>
                <time>2019-03-16T05:05:57Z</time>
            </trkpt>
            <trkpt lon="101.524417" lat="12.954345">
                <ele>32.000000</ele>
                <time>2019-03-16T05:05:58Z</time>
            </trkpt>
            <trkpt lon="101.524434" lat="12.954373">
                <ele>32.000000</ele>
                <time>2019-03-16T05:05:59Z</time>
            </trkpt>
            <trkpt lon="101.524451" lat="12.954399">
                <ele>32.500000</ele>
                <time>2019-03-16T05:06:00Z</time>
            </trkpt>
            <trkpt lon="101.524469" lat="12.954428">
                <ele>32.700000</ele>
                <time>2019-03-16T05:06:01Z</time>
            </trkpt>
            <trkpt lon="101.524486" lat="12.954456">
                <ele>32.700000</ele>
                <time>2019-03-16T05:06:02Z</time>
            </trkpt>
            <trkpt lon="101.524502" lat="12.954484">
                <ele>33.100000</ele>
                <time>2019-03-16T05:06:03Z</time>
            </trkpt>
            <trkpt lon="101.524519" lat="12.954512">
                <ele>33.200000</ele>
                <time>2019-03-16T05:06:04Z</time>
            </trkpt>
            <trkpt lon="101.524535" lat="12.954541">
                <ele>33.400000</ele>
                <time>2019-03-16T05:06:05Z</time>
            </trkpt>
            <trkpt lon="101.524552" lat="12.954570">
                <ele>33.400000</ele>
                <time>2019-03-16T05:06:06Z</time>
            </trkpt>
            <trkpt lon="101.524569" lat="12.954600">
                <ele>33.500000</ele>
                <time>2019-03-16T05:06:07Z</time>
            </trkpt>
            <trkpt lon="101.524586" lat="12.954628">
                <ele>33.600000</ele>
                <time>2019-03-16T05:06:08Z</time>
            </trkpt>
            <trkpt lon="101.524602" lat="12.954655">
                <ele>33.600000</ele>
                <time>2019-03-16T05:06:09Z</time>
            </trkpt>
            <trkpt lon="101.524619" lat="12.954682">
                <ele>33.800000</ele>
                <time>2019-03-16T05:06:10Z</time>
            </trkpt>
            <trkpt lon="101.524636" lat="12.954708">
                <ele>33.800000</ele>
                <time>2019-03-16T05:06:11Z</time>
            </trkpt>
            <trkpt lon="101.524653" lat="12.954734">
                <ele>33.800000</ele>
                <time>2019-03-16T05:06:12Z</time>
            </trkpt>
            <trkpt lon="101.524670" lat="12.954761">
                <ele>34.200000</ele>
                <time>2019-03-16T05:06:13Z</time>
            </trkpt>
            <trkpt lon="101.524686" lat="12.954786">
                <ele>34.200000</ele>
                <time>2019-03-16T05:06:14Z</time>
            </trkpt>
            <trkpt lon="101.524702" lat="12.954814">
                <ele>34.200000</ele>
                <time>2019-03-16T05:06:15Z</time>
            </trkpt>
            <trkpt lon="101.524717" lat="12.954842">
                <ele>33.700000</ele>
                <time>2019-03-16T05:06:16Z</time>
            </trkpt>
            <trkpt lon="101.524733" lat="12.954869">
                <ele>33.700000</ele>
                <time>2019-03-16T05:06:17Z</time>
            </trkpt>
            <trkpt lon="101.524750" lat="12.954896">
                <ele>33.400000</ele>
                <time>2019-03-16T05:06:18Z</time>
            </trkpt>
            <trkpt lon="101.524768" lat="12.954925">
                <ele>32.900000</ele>
                <time>2019-03-16T05:06:19Z</time>
            </trkpt>
            <trkpt lon="101.524787" lat="12.954957">
                <ele>33.200000</ele>
                <time>2019-03-16T05:06:20Z</time>
            </trkpt>
            <trkpt lon="101.524805" lat="12.954988">
                <ele>32.900000</ele>
                <time>2019-03-16T05:06:21Z</time>
            </trkpt>
            <trkpt lon="101.524824" lat="12.955018">
                <ele>32.800000</ele>
                <time>2019-03-16T05:06:22Z</time>
            </trkpt>
            <trkpt lon="101.524843" lat="12.955050">
                <ele>32.800000</ele>
                <time>2019-03-16T05:06:23Z</time>
            </trkpt>
            <trkpt lon="101.524862" lat="12.955083">
                <ele>32.800000</ele>
                <time>2019-03-16T05:06:24Z</time>
            </trkpt>
            <trkpt lon="101.524880" lat="12.955116">
                <ele>32.600000</ele>
                <time>2019-03-16T05:06:25Z</time>
            </trkpt>
            <trkpt lon="101.524900" lat="12.955150">
                <ele>32.500000</ele>
                <time>2019-03-16T05:06:26Z</time>
            </trkpt>
            <trkpt lon="101.524921" lat="12.955183">
                <ele>33.000000</ele>
                <time>2019-03-16T05:06:27Z</time>
            </trkpt>
            <trkpt lon="101.524943" lat="12.955219">
                <ele>33.000000</ele>
                <time>2019-03-16T05:06:28Z</time>
            </trkpt>
            <trkpt lon="101.524966" lat="12.955257">
                <ele>33.500000</ele>
                <time>2019-03-16T05:06:29Z</time>
            </trkpt>
            <trkpt lon="101.524990" lat="12.955295">
                <ele>33.500000</ele>
                <time>2019-03-16T05:06:30Z</time>
            </trkpt>
            <trkpt lon="101.525013" lat="12.955334">
                <ele>33.800000</ele>
                <time>2019-03-16T05:06:31Z</time>
            </trkpt>
            <trkpt lon="101.525036" lat="12.955371">
                <ele>33.700000</ele>
                <time>2019-03-16T05:06:32Z</time>
            </trkpt>
            <trkpt lon="101.525059" lat="12.955408">
                <ele>33.800000</ele>
                <time>2019-03-16T05:06:33Z</time>
            </trkpt>
            <trkpt lon="101.525079" lat="12.955441">
                <ele>33.600000</ele>
                <time>2019-03-16T05:06:34Z</time>
            </trkpt>
            <trkpt lon="101.525099" lat="12.955475">
                <ele>33.800000</ele>
                <time>2019-03-16T05:06:35Z</time>
            </trkpt>
            <trkpt lon="101.525119" lat="12.955510">
                <ele>33.500000</ele>
                <time>2019-03-16T05:06:36Z</time>
            </trkpt>
            <trkpt lon="101.525139" lat="12.955544">
                <ele>33.900000</ele>
                <time>2019-03-16T05:06:37Z</time>
            </trkpt>
            <trkpt lon="101.525160" lat="12.955580">
                <ele>33.500000</ele>
                <time>2019-03-16T05:06:38Z</time>
            </trkpt>
            <trkpt lon="101.525181" lat="12.955615">
                <ele>33.400000</ele>
                <time>2019-03-16T05:06:39Z</time>
            </trkpt>
            <trkpt lon="101.525203" lat="12.955650">
                <ele>33.000000</ele>
                <time>2019-03-16T05:06:40Z</time>
            </trkpt>
            <trkpt lon="101.525225" lat="12.955684">
                <ele>32.700000</ele>
                <time>2019-03-16T05:06:41Z</time>
            </trkpt>
            <trkpt lon="101.525248" lat="12.955717">
                <ele>32.300000</ele>
                <time>2019-03-16T05:06:42Z</time>
            </trkpt>
            <trkpt lon="101.525272" lat="12.955749">
                <ele>32.600000</ele>
                <time>2019-03-16T05:06:43Z</time>
            </trkpt>
            <trkpt lon="101.525296" lat="12.955777">
                <ele>32.000000</ele>
                <time>2019-03-16T05:06:44Z</time>
            </trkpt>
            <trkpt lon="101.525322" lat="12.955802">
                <ele>31.900000</ele>
                <time>2019-03-16T05:06:45Z</time>
            </trkpt>
            <trkpt lon="101.525348" lat="12.955824">
                <ele>32.200000</ele>
                <time>2019-03-16T05:06:46Z</time>
            </trkpt>
            <trkpt lon="101.525372" lat="12.955847">
                <ele>32.000000</ele>
                <time>2019-03-16T05:06:47Z</time>
            </trkpt>
            <trkpt lon="101.525394" lat="12.955871">
                <ele>32.100000</ele>
                <time>2019-03-16T05:06:48Z</time>
            </trkpt>
            <trkpt lon="101.525414" lat="12.955897">
                <ele>31.900000</ele>
                <time>2019-03-16T05:06:49Z</time>
            </trkpt>
            <trkpt lon="101.525425" lat="12.955926">
                <ele>31.700000</ele>
                <time>2019-03-16T05:06:50Z</time>
            </trkpt>
            <trkpt lon="101.525434" lat="12.955954">
                <ele>31.900000</ele>
                <time>2019-03-16T05:06:51Z</time>
            </trkpt>
            <trkpt lon="101.525440" lat="12.955985">
                <ele>31.900000</ele>
                <time>2019-03-16T05:06:52Z</time>
            </trkpt>
            <trkpt lon="101.525448" lat="12.956016">
                <ele>32.100000</ele>
                <time>2019-03-16T05:06:53Z</time>
            </trkpt>
            <trkpt lon="101.525454" lat="12.956050">
                <ele>32.300000</ele>
                <time>2019-03-16T05:06:54Z</time>
            </trkpt>
            <trkpt lon="101.525461" lat="12.956085">
                <ele>32.300000</ele>
                <time>2019-03-16T05:06:55Z</time>
            </trkpt>
            <trkpt lon="101.525468" lat="12.956123">
                <ele>32.500000</ele>
                <time>2019-03-16T05:06:56Z</time>
            </trkpt>
            <trkpt lon="101.525474" lat="12.956162">
                <ele>32.600000</ele>
                <time>2019-03-16T05:06:57Z</time>
            </trkpt>
            <trkpt lon="101.525481" lat="12.956201">
                <ele>32.600000</ele>
                <time>2019-03-16T05:06:58Z</time>
            </trkpt>
            <trkpt lon="101.525490" lat="12.956242">
                <ele>32.600000</ele>
                <time>2019-03-16T05:06:59Z</time>
            </trkpt>
            <trkpt lon="101.525499" lat="12.956282">
                <ele>32.600000</ele>
                <time>2019-03-16T05:07:00Z</time>
            </trkpt>
            <trkpt lon="101.525507" lat="12.956322">
                <ele>32.600000</ele>
                <time>2019-03-16T05:07:01Z</time>
            </trkpt>
            <trkpt lon="101.525518" lat="12.956363">
                <ele>32.600000</ele>
                <time>2019-03-16T05:07:02Z</time>
            </trkpt>
            <trkpt lon="101.525528" lat="12.956406">
                <ele>32.600000</ele>
                <time>2019-03-16T05:07:03Z</time>
            </trkpt>
            <trkpt lon="101.525539" lat="12.956449">
                <ele>32.600000</ele>
                <time>2019-03-16T05:07:04Z</time>
            </trkpt>
            <trkpt lon="101.525549" lat="12.956493">
                <ele>32.700000</ele>
                <time>2019-03-16T05:07:05Z</time>
            </trkpt>
            <trkpt lon="101.525560" lat="12.956534">
                <ele>33.000000</ele>
                <time>2019-03-16T05:07:06Z</time>
            </trkpt>
            <trkpt lon="101.525571" lat="12.956575">
                <ele>33.200000</ele>
                <time>2019-03-16T05:07:07Z</time>
            </trkpt>
            <trkpt lon="101.525581" lat="12.956616">
                <ele>33.500000</ele>
                <time>2019-03-16T05:07:08Z</time>
            </trkpt>
            <trkpt lon="101.525590" lat="12.956658">
                <ele>33.600000</ele>
                <time>2019-03-16T05:07:09Z</time>
            </trkpt>
            <trkpt lon="101.525600" lat="12.956701">
                <ele>33.600000</ele>
                <time>2019-03-16T05:07:10Z</time>
            </trkpt>
            <trkpt lon="101.525612" lat="12.956742">
                <ele>33.800000</ele>
                <time>2019-03-16T05:07:11Z</time>
            </trkpt>
            <trkpt lon="101.525624" lat="12.956783">
                <ele>33.800000</ele>
                <time>2019-03-16T05:07:12Z</time>
            </trkpt>
            <trkpt lon="101.525635" lat="12.956825">
                <ele>33.800000</ele>
                <time>2019-03-16T05:07:13Z</time>
            </trkpt>
            <trkpt lon="101.525645" lat="12.956867">
                <ele>33.700000</ele>
                <time>2019-03-16T05:07:14Z</time>
            </trkpt>
            <trkpt lon="101.525655" lat="12.956910">
                <ele>33.800000</ele>
                <time>2019-03-16T05:07:15Z</time>
            </trkpt>
            <trkpt lon="101.525665" lat="12.956951">
                <ele>33.700000</ele>
                <time>2019-03-16T05:07:16Z</time>
            </trkpt>
            <trkpt lon="101.525674" lat="12.956990">
                <ele>33.700000</ele>
                <time>2019-03-16T05:07:17Z</time>
            </trkpt>
            <trkpt lon="101.525683" lat="12.957029">
                <ele>33.800000</ele>
                <time>2019-03-16T05:07:18Z</time>
            </trkpt>
            <trkpt lon="101.525689" lat="12.957068">
                <ele>33.800000</ele>
                <time>2019-03-16T05:07:19Z</time>
            </trkpt>
            <trkpt lon="101.525691" lat="12.957107">
                <ele>33.900000</ele>
                <time>2019-03-16T05:07:20Z</time>
            </trkpt>
            <trkpt lon="101.525689" lat="12.957148">
                <ele>34.000000</ele>
                <time>2019-03-16T05:07:21Z</time>
            </trkpt>
            <trkpt lon="101.525682" lat="12.957190">
                <ele>34.600000</ele>
                <time>2019-03-16T05:07:22Z</time>
            </trkpt>
            <trkpt lon="101.525670" lat="12.957232">
                <ele>34.900000</ele>
                <time>2019-03-16T05:07:23Z</time>
            </trkpt>
            <trkpt lon="101.525658" lat="12.957275">
                <ele>35.100000</ele>
                <time>2019-03-16T05:07:24Z</time>
            </trkpt>
            <trkpt lon="101.525646" lat="12.957318">
                <ele>35.500000</ele>
                <time>2019-03-16T05:07:25Z</time>
            </trkpt>
            <trkpt lon="101.525639" lat="12.957360">
                <ele>36.700000</ele>
                <time>2019-03-16T05:07:26Z</time>
            </trkpt>
            <trkpt lon="101.525631" lat="12.957402">
                <ele>37.200000</ele>
                <time>2019-03-16T05:07:27Z</time>
            </trkpt>
            <trkpt lon="101.525624" lat="12.957442">
                <ele>37.600000</ele>
                <time>2019-03-16T05:07:28Z</time>
            </trkpt>
            <trkpt lon="101.525621" lat="12.957484">
                <ele>38.100000</ele>
                <time>2019-03-16T05:07:29Z</time>
            </trkpt>
            <trkpt lon="101.525620" lat="12.957525">
                <ele>38.500000</ele>
                <time>2019-03-16T05:07:30Z</time>
            </trkpt>
            <trkpt lon="101.525619" lat="12.957566">
                <ele>39.000000</ele>
                <time>2019-03-16T05:07:31Z</time>
            </trkpt>
            <trkpt lon="101.525623" lat="12.957608">
                <ele>39.400000</ele>
                <time>2019-03-16T05:07:32Z</time>
            </trkpt>
            <trkpt lon="101.525626" lat="12.957645">
                <ele>39.900000</ele>
                <time>2019-03-16T05:07:33Z</time>
            </trkpt>
            <trkpt lon="101.525630" lat="12.957683">
                <ele>40.400000</ele>
                <time>2019-03-16T05:07:34Z</time>
            </trkpt>
            <trkpt lon="101.525636" lat="12.957722">
                <ele>40.900000</ele>
                <time>2019-03-16T05:07:35Z</time>
            </trkpt>
            <trkpt lon="101.525638" lat="12.957757">
                <ele>40.900000</ele>
                <time>2019-03-16T05:07:36Z</time>
            </trkpt>
            <trkpt lon="101.525641" lat="12.957798">
                <ele>41.400000</ele>
                <time>2019-03-16T05:07:37Z</time>
            </trkpt>
            <trkpt lon="101.525647" lat="12.957834">
                <ele>40.500000</ele>
                <time>2019-03-16T05:07:38Z</time>
            </trkpt>
            <trkpt lon="101.525652" lat="12.957873">
                <ele>40.800000</ele>
                <time>2019-03-16T05:07:39Z</time>
            </trkpt>
            <trkpt lon="101.525657" lat="12.957912">
                <ele>41.000000</ele>
                <time>2019-03-16T05:07:40Z</time>
            </trkpt>
            <trkpt lon="101.525661" lat="12.957951">
                <ele>41.300000</ele>
                <time>2019-03-16T05:07:41Z</time>
            </trkpt>
            <trkpt lon="101.525663" lat="12.957991">
                <ele>41.500000</ele>
                <time>2019-03-16T05:07:42Z</time>
            </trkpt>
            <trkpt lon="101.525668" lat="12.958035">
                <ele>41.700000</ele>
                <time>2019-03-16T05:07:43Z</time>
            </trkpt>
            <trkpt lon="101.525677" lat="12.958077">
                <ele>42.000000</ele>
                <time>2019-03-16T05:07:44Z</time>
            </trkpt>
            <trkpt lon="101.525682" lat="12.958115">
                <ele>42.200000</ele>
                <time>2019-03-16T05:07:45Z</time>
            </trkpt>
            <trkpt lon="101.525686" lat="12.958148">
                <ele>42.400000</ele>
                <time>2019-03-16T05:07:46Z</time>
            </trkpt>
            <trkpt lon="101.525690" lat="12.958183">
                <ele>41.800000</ele>
                <time>2019-03-16T05:07:47Z</time>
            </trkpt>
            <trkpt lon="101.525694" lat="12.958217">
                <ele>41.800000</ele>
                <time>2019-03-16T05:07:48Z</time>
            </trkpt>
            <trkpt lon="101.525700" lat="12.958255">
                <ele>42.000000</ele>
                <time>2019-03-16T05:07:49Z</time>
            </trkpt>
            <trkpt lon="101.525704" lat="12.958299">
                <ele>42.200000</ele>
                <time>2019-03-16T05:07:50Z</time>
            </trkpt>
            <trkpt lon="101.525710" lat="12.958343">
                <ele>42.200000</ele>
                <time>2019-03-16T05:07:51Z</time>
            </trkpt>
            <trkpt lon="101.525718" lat="12.958386">
                <ele>42.100000</ele>
                <time>2019-03-16T05:07:52Z</time>
            </trkpt>
            <trkpt lon="101.525725" lat="12.958426">
                <ele>42.000000</ele>
                <time>2019-03-16T05:07:53Z</time>
            </trkpt>
            <trkpt lon="101.525732" lat="12.958460">
                <ele>41.000000</ele>
                <time>2019-03-16T05:07:54Z</time>
            </trkpt>
            <trkpt lon="101.525737" lat="12.958496">
                <ele>40.800000</ele>
                <time>2019-03-16T05:07:55Z</time>
            </trkpt>
            <trkpt lon="101.525742" lat="12.958534">
                <ele>40.600000</ele>
                <time>2019-03-16T05:07:56Z</time>
            </trkpt>
            <trkpt lon="101.525745" lat="12.958572">
                <ele>40.300000</ele>
                <time>2019-03-16T05:07:57Z</time>
            </trkpt>
            <trkpt lon="101.525748" lat="12.958608">
                <ele>40.100000</ele>
                <time>2019-03-16T05:07:58Z</time>
            </trkpt>
            <trkpt lon="101.525750" lat="12.958641">
                <ele>40.100000</ele>
                <time>2019-03-16T05:07:59Z</time>
            </trkpt>
            <trkpt lon="101.525753" lat="12.958676">
                <ele>39.900000</ele>
                <time>2019-03-16T05:08:00Z</time>
            </trkpt>
            <trkpt lon="101.525760" lat="12.958707">
                <ele>39.600000</ele>
                <time>2019-03-16T05:08:01Z</time>
            </trkpt>
            <trkpt lon="101.525764" lat="12.958744">
                <ele>39.400000</ele>
                <time>2019-03-16T05:08:02Z</time>
            </trkpt>
            <trkpt lon="101.525768" lat="12.958781">
                <ele>39.100000</ele>
                <time>2019-03-16T05:08:03Z</time>
            </trkpt>
            <trkpt lon="101.525774" lat="12.958822">
                <ele>39.000000</ele>
                <time>2019-03-16T05:08:04Z</time>
            </trkpt>
            <trkpt lon="101.525780" lat="12.958861">
                <ele>38.400000</ele>
                <time>2019-03-16T05:08:05Z</time>
            </trkpt>
            <trkpt lon="101.525787" lat="12.958898">
                <ele>38.700000</ele>
                <time>2019-03-16T05:08:06Z</time>
            </trkpt>
            <trkpt lon="101.525787" lat="12.958937">
                <ele>38.900000</ele>
                <time>2019-03-16T05:08:07Z</time>
            </trkpt>
            <trkpt lon="101.525787" lat="12.958977">
                <ele>39.200000</ele>
                <time>2019-03-16T05:08:08Z</time>
            </trkpt>
            <trkpt lon="101.525789" lat="12.959017">
                <ele>39.200000</ele>
                <time>2019-03-16T05:08:09Z</time>
            </trkpt>
            <trkpt lon="101.525790" lat="12.959046">
                <ele>39.500000</ele>
                <time>2019-03-16T05:08:10Z</time>
            </trkpt>
            <trkpt lon="101.525793" lat="12.959082">
                <ele>39.800000</ele>
                <time>2019-03-16T05:08:12Z</time>
            </trkpt>
            <trkpt lon="101.525810" lat="12.959110">
                <ele>40.100000</ele>
                <time>2019-03-16T05:08:14Z</time>
            </trkpt>
            <trkpt lon="101.525839" lat="12.959116">
                <ele>39.600000</ele>
                <time>2019-03-16T05:08:15Z</time>
            </trkpt>
            <trkpt lon="101.525872" lat="12.959112">
                <ele>39.000000</ele>
                <time>2019-03-16T05:08:16Z</time>
            </trkpt>
            <trkpt lon="101.525910" lat="12.959105">
                <ele>38.600000</ele>
                <time>2019-03-16T05:08:17Z</time>
            </trkpt>
            <trkpt lon="101.525951" lat="12.959102">
                <ele>38.000000</ele>
                <time>2019-03-16T05:08:18Z</time>
            </trkpt>
            <trkpt lon="101.525997" lat="12.959092">
                <ele>37.200000</ele>
                <time>2019-03-16T05:08:19Z</time>
            </trkpt>
            <trkpt lon="101.526043" lat="12.959083">
                <ele>36.500000</ele>
                <time>2019-03-16T05:08:20Z</time>
            </trkpt>
            <trkpt lon="101.526089" lat="12.959075">
                <ele>36.000000</ele>
                <time>2019-03-16T05:08:21Z</time>
            </trkpt>
            <trkpt lon="101.526136" lat="12.959066">
                <ele>35.500000</ele>
                <time>2019-03-16T05:08:22Z</time>
            </trkpt>
            <trkpt lon="101.526183" lat="12.959055">
                <ele>34.800000</ele>
                <time>2019-03-16T05:08:23Z</time>
            </trkpt>
            <trkpt lon="101.526232" lat="12.959047">
                <ele>34.300000</ele>
                <time>2019-03-16T05:08:24Z</time>
            </trkpt>
            <trkpt lon="101.526284" lat="12.959039">
                <ele>33.800000</ele>
                <time>2019-03-16T05:08:25Z</time>
            </trkpt>
            <trkpt lon="101.526341" lat="12.959027">
                <ele>33.700000</ele>
                <time>2019-03-16T05:08:26Z</time>
            </trkpt>
            <trkpt lon="101.526392" lat="12.959013">
                <ele>33.700000</ele>
                <time>2019-03-16T05:08:27Z</time>
            </trkpt>
            <trkpt lon="101.526447" lat="12.958993">
                <ele>33.500000</ele>
                <time>2019-03-16T05:08:28Z</time>
            </trkpt>
            <trkpt lon="101.526510" lat="12.958981">
                <ele>33.400000</ele>
                <time>2019-03-16T05:08:29Z</time>
            </trkpt>
            <trkpt lon="101.526581" lat="12.958969">
                <ele>33.400000</ele>
                <time>2019-03-16T05:08:30Z</time>
            </trkpt>
            <trkpt lon="101.526658" lat="12.958957">
                <ele>33.700000</ele>
                <time>2019-03-16T05:08:31Z</time>
            </trkpt>
            <trkpt lon="101.526737" lat="12.958948">
                <ele>33.800000</ele>
                <time>2019-03-16T05:08:32Z</time>
            </trkpt>
            <trkpt lon="101.526815" lat="12.958941">
                <ele>33.900000</ele>
                <time>2019-03-16T05:08:33Z</time>
            </trkpt>
            <trkpt lon="101.526891" lat="12.958933">
                <ele>34.700000</ele>
                <time>2019-03-16T05:08:34Z</time>
            </trkpt>
            <trkpt lon="101.526964" lat="12.958925">
                <ele>35.400000</ele>
                <time>2019-03-16T05:08:35Z</time>
            </trkpt>
            <trkpt lon="101.527035" lat="12.958915">
                <ele>35.900000</ele>
                <time>2019-03-16T05:08:36Z</time>
            </trkpt>
            <trkpt lon="101.527108" lat="12.958909">
                <ele>36.800000</ele>
                <time>2019-03-16T05:08:37Z</time>
            </trkpt>
            <trkpt lon="101.527179" lat="12.958904">
                <ele>38.400000</ele>
                <time>2019-03-16T05:08:38Z</time>
            </trkpt>
            <trkpt lon="101.527249" lat="12.958895">
                <ele>39.100000</ele>
                <time>2019-03-16T05:08:39Z</time>
            </trkpt>
            <trkpt lon="101.527317" lat="12.958883">
                <ele>39.800000</ele>
                <time>2019-03-16T05:08:40Z</time>
            </trkpt>
            <trkpt lon="101.527383" lat="12.958871">
                <ele>40.900000</ele>
                <time>2019-03-16T05:08:41Z</time>
            </trkpt>
            <trkpt lon="101.527447" lat="12.958862">
                <ele>40.900000</ele>
                <time>2019-03-16T05:08:42Z</time>
            </trkpt>
            <trkpt lon="101.527509" lat="12.958853">
                <ele>40.900000</ele>
                <time>2019-03-16T05:08:43Z</time>
            </trkpt>
            <trkpt lon="101.527569" lat="12.958846">
                <ele>41.300000</ele>
                <time>2019-03-16T05:08:44Z</time>
            </trkpt>
            <trkpt lon="101.527628" lat="12.958839">
                <ele>42.400000</ele>
                <time>2019-03-16T05:08:45Z</time>
            </trkpt>
            <trkpt lon="101.527683" lat="12.958830">
                <ele>42.800000</ele>
                <time>2019-03-16T05:08:46Z</time>
            </trkpt>
            <trkpt lon="101.527733" lat="12.958821">
                <ele>42.800000</ele>
                <time>2019-03-16T05:08:47Z</time>
            </trkpt>
            <trkpt lon="101.527782" lat="12.958813">
                <ele>43.400000</ele>
                <time>2019-03-16T05:08:48Z</time>
            </trkpt>
            <trkpt lon="101.527829" lat="12.958806">
                <ele>43.900000</ele>
                <time>2019-03-16T05:08:49Z</time>
            </trkpt>
            <trkpt lon="101.527875" lat="12.958797">
                <ele>44.000000</ele>
                <time>2019-03-16T05:08:50Z</time>
            </trkpt>
            <trkpt lon="101.527923" lat="12.958788">
                <ele>44.100000</ele>
                <time>2019-03-16T05:08:51Z</time>
            </trkpt>
            <trkpt lon="101.527970" lat="12.958782">
                <ele>44.200000</ele>
                <time>2019-03-16T05:08:52Z</time>
            </trkpt>
            <trkpt lon="101.528018" lat="12.958774">
                <ele>44.500000</ele>
                <time>2019-03-16T05:08:53Z</time>
            </trkpt>
            <trkpt lon="101.528064" lat="12.958766">
                <ele>45.000000</ele>
                <time>2019-03-16T05:08:54Z</time>
            </trkpt>
            <trkpt lon="101.528107" lat="12.958756">
                <ele>45.300000</ele>
                <time>2019-03-16T05:08:55Z</time>
            </trkpt>
            <trkpt lon="101.528152" lat="12.958746">
                <ele>45.100000</ele>
                <time>2019-03-16T05:08:56Z</time>
            </trkpt>
            <trkpt lon="101.528195" lat="12.958735">
                <ele>44.900000</ele>
                <time>2019-03-16T05:08:57Z</time>
            </trkpt>
            <trkpt lon="101.528238" lat="12.958724">
                <ele>44.800000</ele>
                <time>2019-03-16T05:08:58Z</time>
            </trkpt>
            <trkpt lon="101.528279" lat="12.958714">
                <ele>44.700000</ele>
                <time>2019-03-16T05:08:59Z</time>
            </trkpt>
            <trkpt lon="101.528317" lat="12.958709">
                <ele>44.900000</ele>
                <time>2019-03-16T05:09:00Z</time>
            </trkpt>
            <trkpt lon="101.528356" lat="12.958709">
                <ele>45.100000</ele>
                <time>2019-03-16T05:09:01Z</time>
            </trkpt>
            <trkpt lon="101.528387" lat="12.958725">
                <ele>44.300000</ele>
                <time>2019-03-16T05:09:02Z</time>
            </trkpt>
            <trkpt lon="101.528403" lat="12.958759">
                <ele>44.600000</ele>
                <time>2019-03-16T05:09:03Z</time>
            </trkpt>
            <trkpt lon="101.528413" lat="12.958802">
                <ele>43.800000</ele>
                <time>2019-03-16T05:09:04Z</time>
            </trkpt>
            <trkpt lon="101.528420" lat="12.958852">
                <ele>42.600000</ele>
                <time>2019-03-16T05:09:05Z</time>
            </trkpt>
            <trkpt lon="101.528428" lat="12.958899">
                <ele>42.100000</ele>
                <time>2019-03-16T05:09:06Z</time>
            </trkpt>
            <trkpt lon="101.528437" lat="12.958949">
                <ele>42.200000</ele>
                <time>2019-03-16T05:09:07Z</time>
            </trkpt>
            <trkpt lon="101.528443" lat="12.959005">
                <ele>41.900000</ele>
                <time>2019-03-16T05:09:08Z</time>
            </trkpt>
            <trkpt lon="101.528451" lat="12.959061">
                <ele>41.700000</ele>
                <time>2019-03-16T05:09:09Z</time>
            </trkpt>
            <trkpt lon="101.528462" lat="12.959117">
                <ele>41.600000</ele>
                <time>2019-03-16T05:09:10Z</time>
            </trkpt>
            <trkpt lon="101.528481" lat="12.959171">
                <ele>42.300000</ele>
                <time>2019-03-16T05:09:11Z</time>
            </trkpt>
            <trkpt lon="101.528497" lat="12.959226">
                <ele>41.600000</ele>
                <time>2019-03-16T05:09:12Z</time>
            </trkpt>
            <trkpt lon="101.528513" lat="12.959280">
                <ele>40.200000</ele>
                <time>2019-03-16T05:09:13Z</time>
            </trkpt>
            <trkpt lon="101.528529" lat="12.959335">
                <ele>39.900000</ele>
                <time>2019-03-16T05:09:14Z</time>
            </trkpt>
            <trkpt lon="101.528546" lat="12.959390">
                <ele>38.900000</ele>
                <time>2019-03-16T05:09:15Z</time>
            </trkpt>
            <trkpt lon="101.528560" lat="12.959445">
                <ele>36.900000</ele>
                <time>2019-03-16T05:09:16Z</time>
            </trkpt>
            <trkpt lon="101.528572" lat="12.959499">
                <ele>36.500000</ele>
                <time>2019-03-16T05:09:17Z</time>
            </trkpt>
            <trkpt lon="101.528584" lat="12.959553">
                <ele>35.800000</ele>
                <time>2019-03-16T05:09:18Z</time>
            </trkpt>
            <trkpt lon="101.528599" lat="12.959604">
                <ele>34.400000</ele>
                <time>2019-03-16T05:09:19Z</time>
            </trkpt>
            <trkpt lon="101.528614" lat="12.959655">
                <ele>33.800000</ele>
                <time>2019-03-16T05:09:20Z</time>
            </trkpt>
            <trkpt lon="101.528630" lat="12.959706">
                <ele>33.300000</ele>
                <time>2019-03-16T05:09:21Z</time>
            </trkpt>
            <trkpt lon="101.528644" lat="12.959754">
                <ele>32.800000</ele>
                <time>2019-03-16T05:09:22Z</time>
            </trkpt>
            <trkpt lon="101.528657" lat="12.959803">
                <ele>32.300000</ele>
                <time>2019-03-16T05:09:23Z</time>
            </trkpt>
            <trkpt lon="101.528666" lat="12.959852">
                <ele>32.000000</ele>
                <time>2019-03-16T05:09:24Z</time>
            </trkpt>
            <trkpt lon="101.528675" lat="12.959901">
                <ele>32.000000</ele>
                <time>2019-03-16T05:09:25Z</time>
            </trkpt>
            <trkpt lon="101.528687" lat="12.959948">
                <ele>32.000000</ele>
                <time>2019-03-16T05:09:26Z</time>
            </trkpt>
            <trkpt lon="101.528703" lat="12.959996">
                <ele>32.000000</ele>
                <time>2019-03-16T05:09:27Z</time>
            </trkpt>
            <trkpt lon="101.528718" lat="12.960044">
                <ele>32.300000</ele>
                <time>2019-03-16T05:09:28Z</time>
            </trkpt>
            <trkpt lon="101.528732" lat="12.960091">
                <ele>32.500000</ele>
                <time>2019-03-16T05:09:29Z</time>
            </trkpt>
            <trkpt lon="101.528749" lat="12.960136">
                <ele>32.800000</ele>
                <time>2019-03-16T05:09:30Z</time>
            </trkpt>
            <trkpt lon="101.528763" lat="12.960179">
                <ele>33.000000</ele>
                <time>2019-03-16T05:09:31Z</time>
            </trkpt>
            <trkpt lon="101.528775" lat="12.960220">
                <ele>33.100000</ele>
                <time>2019-03-16T05:09:32Z</time>
            </trkpt>
            <trkpt lon="101.528785" lat="12.960264">
                <ele>33.300000</ele>
                <time>2019-03-16T05:09:33Z</time>
            </trkpt>
            <trkpt lon="101.528795" lat="12.960307">
                <ele>33.500000</ele>
                <time>2019-03-16T05:09:34Z</time>
            </trkpt>
            <trkpt lon="101.528805" lat="12.960348">
                <ele>33.700000</ele>
                <time>2019-03-16T05:09:35Z</time>
            </trkpt>
            <trkpt lon="101.528815" lat="12.960392">
                <ele>34.000000</ele>
                <time>2019-03-16T05:09:36Z</time>
            </trkpt>
            <trkpt lon="101.528829" lat="12.960438">
                <ele>34.500000</ele>
                <time>2019-03-16T05:09:37Z</time>
            </trkpt>
            <trkpt lon="101.528844" lat="12.960484">
                <ele>35.000000</ele>
                <time>2019-03-16T05:09:38Z</time>
            </trkpt>
            <trkpt lon="101.528857" lat="12.960529">
                <ele>35.000000</ele>
                <time>2019-03-16T05:09:39Z</time>
            </trkpt>
            <trkpt lon="101.528869" lat="12.960573">
                <ele>35.000000</ele>
                <time>2019-03-16T05:09:40Z</time>
            </trkpt>
            <trkpt lon="101.528885" lat="12.960619">
                <ele>35.000000</ele>
                <time>2019-03-16T05:09:41Z</time>
            </trkpt>
            <trkpt lon="101.528899" lat="12.960668">
                <ele>35.000000</ele>
                <time>2019-03-16T05:09:42Z</time>
            </trkpt>
            <trkpt lon="101.528913" lat="12.960718">
                <ele>35.300000</ele>
                <time>2019-03-16T05:09:43Z</time>
            </trkpt>
            <trkpt lon="101.528927" lat="12.960772">
                <ele>35.500000</ele>
                <time>2019-03-16T05:09:44Z</time>
            </trkpt>
            <trkpt lon="101.528942" lat="12.960825">
                <ele>36.000000</ele>
                <time>2019-03-16T05:09:45Z</time>
            </trkpt>
            <trkpt lon="101.528957" lat="12.960879">
                <ele>36.000000</ele>
                <time>2019-03-16T05:09:46Z</time>
            </trkpt>
            <trkpt lon="101.528973" lat="12.960931">
                <ele>36.000000</ele>
                <time>2019-03-16T05:09:47Z</time>
            </trkpt>
            <trkpt lon="101.528989" lat="12.960986">
                <ele>35.900000</ele>
                <time>2019-03-16T05:09:48Z</time>
            </trkpt>
            <trkpt lon="101.529003" lat="12.961038">
                <ele>35.700000</ele>
                <time>2019-03-16T05:09:49Z</time>
            </trkpt>
            <trkpt lon="101.529018" lat="12.961091">
                <ele>35.500000</ele>
                <time>2019-03-16T05:09:50Z</time>
            </trkpt>
            <trkpt lon="101.529032" lat="12.961143">
                <ele>35.200000</ele>
                <time>2019-03-16T05:09:51Z</time>
            </trkpt>
            <trkpt lon="101.529047" lat="12.961195">
                <ele>34.400000</ele>
                <time>2019-03-16T05:09:52Z</time>
            </trkpt>
            <trkpt lon="101.529061" lat="12.961248">
                <ele>33.900000</ele>
                <time>2019-03-16T05:09:53Z</time>
            </trkpt>
            <trkpt lon="101.529077" lat="12.961299">
                <ele>33.500000</ele>
                <time>2019-03-16T05:09:54Z</time>
            </trkpt>
            <trkpt lon="101.529096" lat="12.961351">
                <ele>33.300000</ele>
                <time>2019-03-16T05:09:55Z</time>
            </trkpt>
            <trkpt lon="101.529115" lat="12.961406">
                <ele>32.600000</ele>
                <time>2019-03-16T05:09:56Z</time>
            </trkpt>
            <trkpt lon="101.529134" lat="12.961461">
                <ele>32.300000</ele>
                <time>2019-03-16T05:09:57Z</time>
            </trkpt>
            <trkpt lon="101.529154" lat="12.961518">
                <ele>31.900000</ele>
                <time>2019-03-16T05:09:58Z</time>
            </trkpt>
            <trkpt lon="101.529174" lat="12.961574">
                <ele>31.300000</ele>
                <time>2019-03-16T05:09:59Z</time>
            </trkpt>
            <trkpt lon="101.529194" lat="12.961634">
                <ele>31.100000</ele>
                <time>2019-03-16T05:10:00Z</time>
            </trkpt>
            <trkpt lon="101.529214" lat="12.961695">
                <ele>30.700000</ele>
                <time>2019-03-16T05:10:01Z</time>
            </trkpt>
            <trkpt lon="101.529235" lat="12.961757">
                <ele>30.300000</ele>
                <time>2019-03-16T05:10:02Z</time>
            </trkpt>
            <trkpt lon="101.529258" lat="12.961820">
                <ele>29.900000</ele>
                <time>2019-03-16T05:10:03Z</time>
            </trkpt>
            <trkpt lon="101.529282" lat="12.961881">
                <ele>29.800000</ele>
                <time>2019-03-16T05:10:04Z</time>
            </trkpt>
            <trkpt lon="101.529305" lat="12.961942">
                <ele>29.600000</ele>
                <time>2019-03-16T05:10:05Z</time>
            </trkpt>
            <trkpt lon="101.529330" lat="12.962000">
                <ele>28.700000</ele>
                <time>2019-03-16T05:10:06Z</time>
            </trkpt>
            <trkpt lon="101.529353" lat="12.962059">
                <ele>28.000000</ele>
                <time>2019-03-16T05:10:07Z</time>
            </trkpt>
            <trkpt lon="101.529374" lat="12.962118">
                <ele>27.000000</ele>
                <time>2019-03-16T05:10:08Z</time>
            </trkpt>
            <trkpt lon="101.529391" lat="12.962177">
                <ele>26.800000</ele>
                <time>2019-03-16T05:10:09Z</time>
            </trkpt>
            <trkpt lon="101.529409" lat="12.962234">
                <ele>26.800000</ele>
                <time>2019-03-16T05:10:10Z</time>
            </trkpt>
            <trkpt lon="101.529426" lat="12.962292">
                <ele>26.900000</ele>
                <time>2019-03-16T05:10:11Z</time>
            </trkpt>
            <trkpt lon="101.529444" lat="12.962350">
                <ele>26.900000</ele>
                <time>2019-03-16T05:10:12Z</time>
            </trkpt>
            <trkpt lon="101.529463" lat="12.962404">
                <ele>26.900000</ele>
                <time>2019-03-16T05:10:13Z</time>
            </trkpt>
            <trkpt lon="101.529482" lat="12.962457">
                <ele>26.900000</ele>
                <time>2019-03-16T05:10:14Z</time>
            </trkpt>
            <trkpt lon="101.529499" lat="12.962508">
                <ele>26.800000</ele>
                <time>2019-03-16T05:10:15Z</time>
            </trkpt>
            <trkpt lon="101.529515" lat="12.962561">
                <ele>26.800000</ele>
                <time>2019-03-16T05:10:16Z</time>
            </trkpt>
            <trkpt lon="101.529530" lat="12.962615">
                <ele>26.900000</ele>
                <time>2019-03-16T05:10:17Z</time>
            </trkpt>
            <trkpt lon="101.529541" lat="12.962670">
                <ele>26.900000</ele>
                <time>2019-03-16T05:10:18Z</time>
            </trkpt>
            <trkpt lon="101.529555" lat="12.962726">
                <ele>27.100000</ele>
                <time>2019-03-16T05:10:19Z</time>
            </trkpt>
            <trkpt lon="101.529568" lat="12.962782">
                <ele>27.000000</ele>
                <time>2019-03-16T05:10:20Z</time>
            </trkpt>
            <trkpt lon="101.529584" lat="12.962839">
                <ele>26.800000</ele>
                <time>2019-03-16T05:10:21Z</time>
            </trkpt>
            <trkpt lon="101.529605" lat="12.962894">
                <ele>26.600000</ele>
                <time>2019-03-16T05:10:22Z</time>
            </trkpt>
            <trkpt lon="101.529624" lat="12.962949">
                <ele>26.100000</ele>
                <time>2019-03-16T05:10:23Z</time>
            </trkpt>
            <trkpt lon="101.529640" lat="12.963000">
                <ele>25.900000</ele>
                <time>2019-03-16T05:10:24Z</time>
            </trkpt>
            <trkpt lon="101.529655" lat="12.963053">
                <ele>25.700000</ele>
                <time>2019-03-16T05:10:25Z</time>
            </trkpt>
            <trkpt lon="101.529669" lat="12.963105">
                <ele>25.500000</ele>
                <time>2019-03-16T05:10:26Z</time>
            </trkpt>
            <trkpt lon="101.529683" lat="12.963158">
                <ele>25.000000</ele>
                <time>2019-03-16T05:10:27Z</time>
            </trkpt>
            <trkpt lon="101.529696" lat="12.963209">
                <ele>24.900000</ele>
                <time>2019-03-16T05:10:28Z</time>
            </trkpt>
            <trkpt lon="101.529705" lat="12.963259">
                <ele>24.900000</ele>
                <time>2019-03-16T05:10:29Z</time>
            </trkpt>
            <trkpt lon="101.529715" lat="12.963307">
                <ele>24.900000</ele>
                <time>2019-03-16T05:10:30Z</time>
            </trkpt>
            <trkpt lon="101.529730" lat="12.963352">
                <ele>25.000000</ele>
                <time>2019-03-16T05:10:31Z</time>
            </trkpt>
            <trkpt lon="101.529748" lat="12.963393">
                <ele>25.000000</ele>
                <time>2019-03-16T05:10:32Z</time>
            </trkpt>
            <trkpt lon="101.529762" lat="12.963433">
                <ele>24.900000</ele>
                <time>2019-03-16T05:10:33Z</time>
            </trkpt>
            <trkpt lon="101.529777" lat="12.963476">
                <ele>25.100000</ele>
                <time>2019-03-16T05:10:34Z</time>
            </trkpt>
            <trkpt lon="101.529788" lat="12.963520">
                <ele>25.300000</ele>
                <time>2019-03-16T05:10:35Z</time>
            </trkpt>
            <trkpt lon="101.529797" lat="12.963560">
                <ele>25.600000</ele>
                <time>2019-03-16T05:10:36Z</time>
            </trkpt>
            <trkpt lon="101.529806" lat="12.963600">
                <ele>26.000000</ele>
                <time>2019-03-16T05:10:37Z</time>
            </trkpt>
            <trkpt lon="101.529814" lat="12.963639">
                <ele>26.600000</ele>
                <time>2019-03-16T05:10:38Z</time>
            </trkpt>
            <trkpt lon="101.529825" lat="12.963674">
                <ele>26.900000</ele>
                <time>2019-03-16T05:10:39Z</time>
            </trkpt>
            <trkpt lon="101.529836" lat="12.963712">
                <ele>27.000000</ele>
                <time>2019-03-16T05:10:40Z</time>
            </trkpt>
            <trkpt lon="101.529845" lat="12.963753">
                <ele>27.000000</ele>
                <time>2019-03-16T05:10:41Z</time>
            </trkpt>
            <trkpt lon="101.529856" lat="12.963792">
                <ele>27.000000</ele>
                <time>2019-03-16T05:10:42Z</time>
            </trkpt>
            <trkpt lon="101.529867" lat="12.963835">
                <ele>27.000000</ele>
                <time>2019-03-16T05:10:43Z</time>
            </trkpt>
            <trkpt lon="101.529878" lat="12.963874">
                <ele>27.000000</ele>
                <time>2019-03-16T05:10:44Z</time>
            </trkpt>
            <trkpt lon="101.529892" lat="12.963917">
                <ele>27.000000</ele>
                <time>2019-03-16T05:10:45Z</time>
            </trkpt>
            <trkpt lon="101.529903" lat="12.963959">
                <ele>26.900000</ele>
                <time>2019-03-16T05:10:46Z</time>
            </trkpt>
            <trkpt lon="101.529913" lat="12.964005">
                <ele>26.900000</ele>
                <time>2019-03-16T05:10:47Z</time>
            </trkpt>
            <trkpt lon="101.529925" lat="12.964053">
                <ele>26.900000</ele>
                <time>2019-03-16T05:10:48Z</time>
            </trkpt>
            <trkpt lon="101.529937" lat="12.964102">
                <ele>26.600000</ele>
                <time>2019-03-16T05:10:49Z</time>
            </trkpt>
            <trkpt lon="101.529951" lat="12.964149">
                <ele>26.700000</ele>
                <time>2019-03-16T05:10:50Z</time>
            </trkpt>
            <trkpt lon="101.529966" lat="12.964196">
                <ele>26.600000</ele>
                <time>2019-03-16T05:10:51Z</time>
            </trkpt>
            <trkpt lon="101.529984" lat="12.964242">
                <ele>26.300000</ele>
                <time>2019-03-16T05:10:52Z</time>
            </trkpt>
            <trkpt lon="101.530002" lat="12.964287">
                <ele>26.300000</ele>
                <time>2019-03-16T05:10:53Z</time>
            </trkpt>
            <trkpt lon="101.530020" lat="12.964329">
                <ele>26.300000</ele>
                <time>2019-03-16T05:10:54Z</time>
            </trkpt>
            <trkpt lon="101.530035" lat="12.964370">
                <ele>26.100000</ele>
                <time>2019-03-16T05:10:55Z</time>
            </trkpt>
            <trkpt lon="101.530050" lat="12.964413">
                <ele>26.600000</ele>
                <time>2019-03-16T05:10:56Z</time>
            </trkpt>
            <trkpt lon="101.530066" lat="12.964459">
                <ele>26.800000</ele>
                <time>2019-03-16T05:10:57Z</time>
            </trkpt>
            <trkpt lon="101.530082" lat="12.964509">
                <ele>27.000000</ele>
                <time>2019-03-16T05:10:58Z</time>
            </trkpt>
            <trkpt lon="101.530098" lat="12.964558">
                <ele>27.300000</ele>
                <time>2019-03-16T05:10:59Z</time>
            </trkpt>
            <trkpt lon="101.530113" lat="12.964609">
                <ele>27.300000</ele>
                <time>2019-03-16T05:11:00Z</time>
            </trkpt>
            <trkpt lon="101.530127" lat="12.964661">
                <ele>27.600000</ele>
                <time>2019-03-16T05:11:01Z</time>
            </trkpt>
            <trkpt lon="101.530142" lat="12.964712">
                <ele>27.800000</ele>
                <time>2019-03-16T05:11:02Z</time>
            </trkpt>
            <trkpt lon="101.530156" lat="12.964765">
                <ele>27.500000</ele>
                <time>2019-03-16T05:11:03Z</time>
            </trkpt>
            <trkpt lon="101.530172" lat="12.964817">
                <ele>27.400000</ele>
                <time>2019-03-16T05:11:04Z</time>
            </trkpt>
            <trkpt lon="101.530188" lat="12.964866">
                <ele>27.300000</ele>
                <time>2019-03-16T05:11:05Z</time>
            </trkpt>
            <trkpt lon="101.530206" lat="12.964917">
                <ele>27.000000</ele>
                <time>2019-03-16T05:11:06Z</time>
            </trkpt>
            <trkpt lon="101.530223" lat="12.964966">
                <ele>27.000000</ele>
                <time>2019-03-16T05:11:07Z</time>
            </trkpt>
            <trkpt lon="101.530238" lat="12.965019">
                <ele>27.000000</ele>
                <time>2019-03-16T05:11:08Z</time>
            </trkpt>
            <trkpt lon="101.530250" lat="12.965074">
                <ele>26.900000</ele>
                <time>2019-03-16T05:11:09Z</time>
            </trkpt>
            <trkpt lon="101.530266" lat="12.965123">
                <ele>26.900000</ele>
                <time>2019-03-16T05:11:10Z</time>
            </trkpt>
            <trkpt lon="101.530286" lat="12.965167">
                <ele>27.000000</ele>
                <time>2019-03-16T05:11:11Z</time>
            </trkpt>
            <trkpt lon="101.530304" lat="12.965207">
                <ele>27.000000</ele>
                <time>2019-03-16T05:11:12Z</time>
            </trkpt>
            <trkpt lon="101.530318" lat="12.965252">
                <ele>27.200000</ele>
                <time>2019-03-16T05:11:13Z</time>
            </trkpt>
            <trkpt lon="101.530330" lat="12.965295">
                <ele>27.200000</ele>
                <time>2019-03-16T05:11:14Z</time>
            </trkpt>
            <trkpt lon="101.530341" lat="12.965335">
                <ele>27.000000</ele>
                <time>2019-03-16T05:11:15Z</time>
            </trkpt>
            <trkpt lon="101.530352" lat="12.965376">
                <ele>26.700000</ele>
                <time>2019-03-16T05:11:16Z</time>
            </trkpt>
            <trkpt lon="101.530362" lat="12.965417">
                <ele>26.400000</ele>
                <time>2019-03-16T05:11:17Z</time>
            </trkpt>
            <trkpt lon="101.530374" lat="12.965459">
                <ele>26.000000</ele>
                <time>2019-03-16T05:11:18Z</time>
            </trkpt>
            <trkpt lon="101.530387" lat="12.965501">
                <ele>25.900000</ele>
                <time>2019-03-16T05:11:19Z</time>
            </trkpt>
            <trkpt lon="101.530400" lat="12.965543">
                <ele>25.800000</ele>
                <time>2019-03-16T05:11:20Z</time>
            </trkpt>
            <trkpt lon="101.530415" lat="12.965586">
                <ele>25.800000</ele>
                <time>2019-03-16T05:11:21Z</time>
            </trkpt>
            <trkpt lon="101.530428" lat="12.965629">
                <ele>25.900000</ele>
                <time>2019-03-16T05:11:22Z</time>
            </trkpt>
            <trkpt lon="101.530442" lat="12.965672">
                <ele>26.000000</ele>
                <time>2019-03-16T05:11:23Z</time>
            </trkpt>
            <trkpt lon="101.530453" lat="12.965712">
                <ele>26.100000</ele>
                <time>2019-03-16T05:11:24Z</time>
            </trkpt>
            <trkpt lon="101.530464" lat="12.965752">
                <ele>26.100000</ele>
                <time>2019-03-16T05:11:25Z</time>
            </trkpt>
            <trkpt lon="101.530478" lat="12.965787">
                <ele>26.100000</ele>
                <time>2019-03-16T05:11:26Z</time>
            </trkpt>
            <trkpt lon="101.530489" lat="12.965814">
                <ele>26.000000</ele>
                <time>2019-03-16T05:11:27Z</time>
            </trkpt>
            <trkpt lon="101.530511" lat="12.965858">
                <ele>25.900000</ele>
                <time>2019-03-16T05:11:29Z</time>
            </trkpt>
            <trkpt lon="101.530528" lat="12.965892">
                <ele>25.700000</ele>
                <time>2019-03-16T05:11:31Z</time>
            </trkpt>
            <trkpt lon="101.530530" lat="12.965920">
                <ele>25.600000</ele>
                <time>2019-03-16T05:11:44Z</time>
            </trkpt>
            <trkpt lon="101.530512" lat="12.965897">
                <ele>25.700000</ele>
                <time>2019-03-16T05:11:51Z</time>
            </trkpt>
            <trkpt lon="101.530491" lat="12.965859">
                <ele>25.900000</ele>
                <time>2019-03-16T05:11:53Z</time>
            </trkpt>
            <trkpt lon="101.530476" lat="12.965833">
                <ele>26.000000</ele>
                <time>2019-03-16T05:11:54Z</time>
            </trkpt>
            <trkpt lon="101.530462" lat="12.965808">
                <ele>26.000000</ele>
                <time>2019-03-16T05:11:55Z</time>
            </trkpt>
            <trkpt lon="101.530448" lat="12.965778">
                <ele>26.100000</ele>
                <time>2019-03-16T05:11:56Z</time>
            </trkpt>
            <trkpt lon="101.530438" lat="12.965750">
                <ele>26.100000</ele>
                <time>2019-03-16T05:11:57Z</time>
            </trkpt>
            <trkpt lon="101.530418" lat="12.965703">
                <ele>26.000000</ele>
                <time>2019-03-16T05:11:59Z</time>
            </trkpt>
            <trkpt lon="101.530407" lat="12.965669">
                <ele>25.800000</ele>
                <time>2019-03-16T05:12:01Z</time>
            </trkpt>
            <trkpt lon="101.530397" lat="12.965629">
                <ele>25.700000</ele>
                <time>2019-03-16T05:12:03Z</time>
            </trkpt>
            <trkpt lon="101.530387" lat="12.965583">
                <ele>25.700000</ele>
                <time>2019-03-16T05:12:05Z</time>
            </trkpt>
            <trkpt lon="101.530378" lat="12.965532">
                <ele>25.800000</ele>
                <time>2019-03-16T05:12:07Z</time>
            </trkpt>
            <trkpt lon="101.530364" lat="12.965479">
                <ele>26.000000</ele>
                <time>2019-03-16T05:12:09Z</time>
            </trkpt>
            <trkpt lon="101.530356" lat="12.965451">
                <ele>26.300000</ele>
                <time>2019-03-16T05:12:10Z</time>
            </trkpt>
            <trkpt lon="101.530345" lat="12.965422">
                <ele>26.300000</ele>
                <time>2019-03-16T05:12:11Z</time>
            </trkpt>
            <trkpt lon="101.530334" lat="12.965392">
                <ele>26.600000</ele>
                <time>2019-03-16T05:12:12Z</time>
            </trkpt>
            <trkpt lon="101.530325" lat="12.965358">
                <ele>26.900000</ele>
                <time>2019-03-16T05:12:13Z</time>
            </trkpt>
            <trkpt lon="101.530314" lat="12.965326">
                <ele>27.100000</ele>
                <time>2019-03-16T05:12:14Z</time>
            </trkpt>
            <trkpt lon="101.530305" lat="12.965298">
                <ele>27.100000</ele>
                <time>2019-03-16T05:12:15Z</time>
            </trkpt>
            <trkpt lon="101.530295" lat="12.965272">
                <ele>27.100000</ele>
                <time>2019-03-16T05:12:16Z</time>
            </trkpt>
            <trkpt lon="101.530283" lat="12.965246">
                <ele>27.000000</ele>
                <time>2019-03-16T05:12:17Z</time>
            </trkpt>
            <trkpt lon="101.530272" lat="12.965217">
                <ele>27.000000</ele>
                <time>2019-03-16T05:12:18Z</time>
            </trkpt>
            <trkpt lon="101.530259" lat="12.965187">
                <ele>26.900000</ele>
                <time>2019-03-16T05:12:19Z</time>
            </trkpt>
            <trkpt lon="101.530250" lat="12.965155">
                <ele>26.800000</ele>
                <time>2019-03-16T05:12:20Z</time>
            </trkpt>
            <trkpt lon="101.530240" lat="12.965124">
                <ele>26.800000</ele>
                <time>2019-03-16T05:12:21Z</time>
            </trkpt>
            <trkpt lon="101.530233" lat="12.965091">
                <ele>26.800000</ele>
                <time>2019-03-16T05:12:22Z</time>
            </trkpt>
            <trkpt lon="101.530223" lat="12.965060">
                <ele>26.800000</ele>
                <time>2019-03-16T05:12:23Z</time>
            </trkpt>
            <trkpt lon="101.530215" lat="12.965027">
                <ele>26.800000</ele>
                <time>2019-03-16T05:12:25Z</time>
            </trkpt>
            <trkpt lon="101.530181" lat="12.965030">
                <ele>26.900000</ele>
                <time>2019-03-16T05:12:28Z</time>
            </trkpt>
            <trkpt lon="101.530138" lat="12.965048">
                <ele>26.900000</ele>
                <time>2019-03-16T05:12:31Z</time>
            </trkpt>
            <trkpt lon="101.530090" lat="12.965069">
                <ele>26.900000</ele>
                <time>2019-03-16T05:12:33Z</time>
            </trkpt>
            <trkpt lon="101.530063" lat="12.965081">
                <ele>26.700000</ele>
                <time>2019-03-16T05:12:34Z</time>
            </trkpt>
            <trkpt lon="101.530032" lat="12.965094">
                <ele>26.800000</ele>
                <time>2019-03-16T05:12:35Z</time>
            </trkpt>
            <trkpt lon="101.530003" lat="12.965111">
                <ele>26.600000</ele>
                <time>2019-03-16T05:12:36Z</time>
            </trkpt>
            <trkpt lon="101.529975" lat="12.965125">
                <ele>26.300000</ele>
                <time>2019-03-16T05:12:37Z</time>
            </trkpt>
            <trkpt lon="101.529948" lat="12.965140">
                <ele>26.300000</ele>
                <time>2019-03-16T05:12:38Z</time>
            </trkpt>
            <trkpt lon="101.529921" lat="12.965154">
                <ele>26.000000</ele>
                <time>2019-03-16T05:12:39Z</time>
            </trkpt>
            <trkpt lon="101.529894" lat="12.965168">
                <ele>26.000000</ele>
                <time>2019-03-16T05:12:40Z</time>
            </trkpt>
            <trkpt lon="101.529866" lat="12.965182">
                <ele>25.700000</ele>
                <time>2019-03-16T05:12:41Z</time>
            </trkpt>
            <trkpt lon="101.529837" lat="12.965196">
                <ele>25.500000</ele>
                <time>2019-03-16T05:12:42Z</time>
            </trkpt>
            <trkpt lon="101.529808" lat="12.965210">
                <ele>25.200000</ele>
                <time>2019-03-16T05:12:43Z</time>
            </trkpt>
            <trkpt lon="101.529780" lat="12.965224">
                <ele>25.100000</ele>
                <time>2019-03-16T05:12:44Z</time>
            </trkpt>
            <trkpt lon="101.529754" lat="12.965239">
                <ele>24.900000</ele>
                <time>2019-03-16T05:12:45Z</time>
            </trkpt>
            <trkpt lon="101.529727" lat="12.965253">
                <ele>24.800000</ele>
                <time>2019-03-16T05:12:46Z</time>
            </trkpt>
            <trkpt lon="101.529702" lat="12.965266">
                <ele>24.500000</ele>
                <time>2019-03-16T05:12:47Z</time>
            </trkpt>
            <trkpt lon="101.529677" lat="12.965279">
                <ele>24.200000</ele>
                <time>2019-03-16T05:12:48Z</time>
            </trkpt>
            <trkpt lon="101.529653" lat="12.965295">
                <ele>24.300000</ele>
                <time>2019-03-16T05:12:49Z</time>
            </trkpt>
            <trkpt lon="101.529629" lat="12.965311">
                <ele>24.000000</ele>
                <time>2019-03-16T05:12:50Z</time>
            </trkpt>
            <trkpt lon="101.529606" lat="12.965327">
                <ele>24.000000</ele>
                <time>2019-03-16T05:12:51Z</time>
            </trkpt>
            <trkpt lon="101.529565" lat="12.965351">
                <ele>23.900000</ele>
                <time>2019-03-16T05:12:53Z</time>
            </trkpt>
            <trkpt lon="101.529522" lat="12.965368">
                <ele>23.700000</ele>
                <time>2019-03-16T05:12:55Z</time>
            </trkpt>
            <trkpt lon="101.529477" lat="12.965394">
                <ele>23.900000</ele>
                <time>2019-03-16T05:12:57Z</time>
            </trkpt>
            <trkpt lon="101.529438" lat="12.965423">
                <ele>24.100000</ele>
                <time>2019-03-16T05:12:59Z</time>
            </trkpt>
            <trkpt lon="101.529404" lat="12.965453">
                <ele>24.200000</ele>
                <time>2019-03-16T05:13:01Z</time>
            </trkpt>
            <trkpt lon="101.529359" lat="12.965479">
                <ele>24.700000</ele>
                <time>2019-03-16T05:13:03Z</time>
            </trkpt>
            <trkpt lon="101.529319" lat="12.965505">
                <ele>25.100000</ele>
                <time>2019-03-16T05:13:05Z</time>
            </trkpt>
            <trkpt lon="101.529298" lat="12.965539">
                <ele>25.100000</ele>
                <time>2019-03-16T05:13:07Z</time>
            </trkpt>
            <trkpt lon="101.529301" lat="12.965568">
                <ele>25.300000</ele>
                <time>2019-03-16T05:13:09Z</time>
            </trkpt>
            <trkpt lon="101.529331" lat="12.965597">
                <ele>25.600000</ele>
                <time>2019-03-16T05:13:11Z</time>
            </trkpt>
            <trkpt lon="101.529365" lat="12.965629">
                <ele>25.700000</ele>
                <time>2019-03-16T05:13:13Z</time>
            </trkpt>
            <trkpt lon="101.529384" lat="12.965650">
                <ele>25.500000</ele>
                <time>2019-03-16T05:13:14Z</time>
            </trkpt>
            <trkpt lon="101.529424" lat="12.965685">
                <ele>25.800000</ele>
                <time>2019-03-16T05:13:16Z</time>
            </trkpt>
            <trkpt lon="101.529465" lat="12.965718">
                <ele>26.100000</ele>
                <time>2019-03-16T05:13:18Z</time>
            </trkpt>
            <trkpt lon="101.529484" lat="12.965742">
                <ele>26.100000</ele>
                <time>2019-03-16T05:13:19Z</time>
            </trkpt>
            <trkpt lon="101.529509" lat="12.965762">
                <ele>26.400000</ele>
                <time>2019-03-16T05:13:20Z</time>
            </trkpt>
            <trkpt lon="101.529550" lat="12.965795">
                <ele>26.700000</ele>
                <time>2019-03-16T05:13:22Z</time>
            </trkpt>
            <trkpt lon="101.529576" lat="12.965830">
                <ele>26.600000</ele>
                <time>2019-03-16T05:13:24Z</time>
            </trkpt>
            <trkpt lon="101.529612" lat="12.965870">
                <ele>26.500000</ele>
                <time>2019-03-16T05:13:26Z</time>
            </trkpt>
            <trkpt lon="101.529633" lat="12.965887">
                <ele>26.500000</ele>
                <time>2019-03-16T05:13:27Z</time>
            </trkpt>
            <trkpt lon="101.529672" lat="12.965928">
                <ele>26.200000</ele>
                <time>2019-03-16T05:13:29Z</time>
            </trkpt>
            <trkpt lon="101.529701" lat="12.965971">
                <ele>25.900000</ele>
                <time>2019-03-16T05:13:31Z</time>
            </trkpt>
            <trkpt lon="101.529726" lat="12.966016">
                <ele>25.500000</ele>
                <time>2019-03-16T05:13:33Z</time>
            </trkpt>
            <trkpt lon="101.529758" lat="12.966055">
                <ele>25.500000</ele>
                <time>2019-03-16T05:13:35Z</time>
            </trkpt>
            <trkpt lon="101.529789" lat="12.966089">
                <ele>25.200000</ele>
                <time>2019-03-16T05:13:37Z</time>
            </trkpt>
            <trkpt lon="101.529818" lat="12.966127">
                <ele>25.000000</ele>
                <time>2019-03-16T05:13:39Z</time>
            </trkpt>
            <trkpt lon="101.529849" lat="12.966167">
                <ele>25.000000</ele>
                <time>2019-03-16T05:13:41Z</time>
            </trkpt>
            <trkpt lon="101.529875" lat="12.966205">
                <ele>24.700000</ele>
                <time>2019-03-16T05:13:43Z</time>
            </trkpt>
            <trkpt lon="101.529901" lat="12.966233">
                <ele>24.600000</ele>
                <time>2019-03-16T05:13:45Z</time>
            </trkpt>
            <trkpt lon="101.529933" lat="12.966260">
                <ele>24.600000</ele>
                <time>2019-03-16T05:13:47Z</time>
            </trkpt>
            <trkpt lon="101.529967" lat="12.966289">
                <ele>24.500000</ele>
                <time>2019-03-16T05:13:49Z</time>
            </trkpt>
            <trkpt lon="101.529997" lat="12.966320">
                <ele>24.500000</ele>
                <time>2019-03-16T05:13:51Z</time>
            </trkpt>
            <trkpt lon="101.530023" lat="12.966352">
                <ele>24.600000</ele>
                <time>2019-03-16T05:13:53Z</time>
            </trkpt>
            <trkpt lon="101.530053" lat="12.966387">
                <ele>24.500000</ele>
                <time>2019-03-16T05:13:55Z</time>
            </trkpt>
            <trkpt lon="101.530090" lat="12.966418">
                <ele>24.700000</ele>
                <time>2019-03-16T05:13:57Z</time>
            </trkpt>
            <trkpt lon="101.530123" lat="12.966455">
                <ele>24.800000</ele>
                <time>2019-03-16T05:13:59Z</time>
            </trkpt>
            <trkpt lon="101.530152" lat="12.966487">
                <ele>25.100000</ele>
                <time>2019-03-16T05:14:01Z</time>
            </trkpt>
            <trkpt lon="101.530170" lat="12.966516">
                <ele>25.200000</ele>
                <time>2019-03-16T05:14:03Z</time>
            </trkpt>
            <trkpt lon="101.530177" lat="12.966565">
                <ele>25.500000</ele>
                <time>2019-03-16T05:14:05Z</time>
            </trkpt>
            <trkpt lon="101.530176" lat="12.966593">
                <ele>25.900000</ele>
                <time>2019-03-16T05:14:06Z</time>
            </trkpt>
            <trkpt lon="101.530174" lat="12.966638">
                <ele>26.400000</ele>
                <time>2019-03-16T05:14:08Z</time>
            </trkpt>
            <trkpt lon="101.530169" lat="12.966670">
                <ele>26.400000</ele>
                <time>2019-03-16T05:14:10Z</time>
            </trkpt>
            <trkpt lon="101.530163" lat="12.966709">
                <ele>26.900000</ele>
                <time>2019-03-16T05:14:12Z</time>
            </trkpt>
            <trkpt lon="101.530159" lat="12.966752">
                <ele>27.600000</ele>
                <time>2019-03-16T05:14:14Z</time>
            </trkpt>
            <trkpt lon="101.530168" lat="12.966793">
                <ele>28.200000</ele>
                <time>2019-03-16T05:14:16Z</time>
            </trkpt>
            <trkpt lon="101.530177" lat="12.966833">
                <ele>28.800000</ele>
                <time>2019-03-16T05:14:18Z</time>
            </trkpt>
            <trkpt lon="101.530188" lat="12.966877">
                <ele>29.300000</ele>
                <time>2019-03-16T05:14:20Z</time>
            </trkpt>
            <trkpt lon="101.530198" lat="12.966920">
                <ele>29.400000</ele>
                <time>2019-03-16T05:14:22Z</time>
            </trkpt>
            <trkpt lon="101.530213" lat="12.966956">
                <ele>29.600000</ele>
                <time>2019-03-16T05:14:24Z</time>
            </trkpt>
            <trkpt lon="101.530225" lat="12.966998">
                <ele>29.900000</ele>
                <time>2019-03-16T05:14:26Z</time>
            </trkpt>
            <trkpt lon="101.530230" lat="12.967039">
                <ele>30.000000</ele>
                <time>2019-03-16T05:14:28Z</time>
            </trkpt>
            <trkpt lon="101.530215" lat="12.967086">
                <ele>30.100000</ele>
                <time>2019-03-16T05:14:30Z</time>
            </trkpt>
            <trkpt lon="101.530195" lat="12.967134">
                <ele>30.000000</ele>
                <time>2019-03-16T05:14:32Z</time>
            </trkpt>
            <trkpt lon="101.530171" lat="12.967172">
                <ele>30.300000</ele>
                <time>2019-03-16T05:14:34Z</time>
            </trkpt>
            <trkpt lon="101.530152" lat="12.967196">
                <ele>29.900000</ele>
                <time>2019-03-16T05:14:35Z</time>
            </trkpt>
            <trkpt lon="101.530119" lat="12.967230">
                <ele>29.700000</ele>
                <time>2019-03-16T05:14:37Z</time>
            </trkpt>
            <trkpt lon="101.530090" lat="12.967271">
                <ele>29.400000</ele>
                <time>2019-03-16T05:14:39Z</time>
            </trkpt>
            <trkpt lon="101.530060" lat="12.967319">
                <ele>29.100000</ele>
                <time>2019-03-16T05:14:41Z</time>
            </trkpt>
            <trkpt lon="101.530041" lat="12.967343">
                <ele>28.500000</ele>
                <time>2019-03-16T05:14:42Z</time>
            </trkpt>
            <trkpt lon="101.530019" lat="12.967363">
                <ele>28.700000</ele>
                <time>2019-03-16T05:14:43Z</time>
            </trkpt>
            <trkpt lon="101.529978" lat="12.967395">
                <ele>28.100000</ele>
                <time>2019-03-16T05:14:45Z</time>
            </trkpt>
            <trkpt lon="101.529954" lat="12.967412">
                <ele>28.100000</ele>
                <time>2019-03-16T05:14:46Z</time>
            </trkpt>
            <trkpt lon="101.529914" lat="12.967437">
                <ele>27.600000</ele>
                <time>2019-03-16T05:14:48Z</time>
            </trkpt>
            <trkpt lon="101.529869" lat="12.967461">
                <ele>27.900000</ele>
                <time>2019-03-16T05:14:50Z</time>
            </trkpt>
            <trkpt lon="101.529834" lat="12.967485">
                <ele>27.500000</ele>
                <time>2019-03-16T05:14:52Z</time>
            </trkpt>
            <trkpt lon="101.529800" lat="12.967510">
                <ele>27.400000</ele>
                <time>2019-03-16T05:14:54Z</time>
            </trkpt>
            <trkpt lon="101.529773" lat="12.967530">
                <ele>27.400000</ele>
                <time>2019-03-16T05:14:56Z</time>
            </trkpt>
            <trkpt lon="101.529782" lat="12.967590">
                <ele>26.800000</ele>
                <time>2019-03-16T05:15:41Z</time>
            </trkpt>
            <trkpt lon="101.529803" lat="12.967615">
                <ele>26.500000</ele>
                <time>2019-03-16T05:15:46Z</time>
            </trkpt>
            <trkpt lon="101.529824" lat="12.967639">
                <ele>25.900000</ele>
                <time>2019-03-16T05:15:49Z</time>
            </trkpt>
            <trkpt lon="101.529845" lat="12.967664">
                <ele>25.900000</ele>
                <time>2019-03-16T05:15:52Z</time>
            </trkpt>
            <trkpt lon="101.529863" lat="12.967685">
                <ele>25.700000</ele>
                <time>2019-03-16T05:15:55Z</time>
            </trkpt>
            <trkpt lon="101.529872" lat="12.967714">
                <ele>25.700000</ele>
                <time>2019-03-16T05:15:59Z</time>
            </trkpt>
            <trkpt lon="101.529890" lat="12.967740">
                <ele>26.000000</ele>
                <time>2019-03-16T05:16:11Z</time>
            </trkpt>
            <trkpt lon="101.529905" lat="12.967780">
                <ele>26.400000</ele>
                <time>2019-03-16T05:20:28Z</time>
            </trkpt>
            <trkpt lon="101.529914" lat="12.967806">
                <ele>26.600000</ele>
                <time>2019-03-16T05:20:30Z</time>
            </trkpt>
            <trkpt lon="101.529930" lat="12.967831">
                <ele>26.600000</ele>
                <time>2019-03-16T05:20:34Z</time>
            </trkpt>
            <trkpt lon="101.529952" lat="12.967849">
                <ele>26.700000</ele>
                <time>2019-03-16T05:20:40Z</time>
            </trkpt>
            <trkpt lon="101.529969" lat="12.967872">
                <ele>26.700000</ele>
                <time>2019-03-16T05:20:47Z</time>
            </trkpt>
            <trkpt lon="101.530000" lat="12.967870">
                <ele>26.700000</ele>
                <time>2019-03-16T05:20:51Z</time>
            </trkpt>
            <trkpt lon="101.529950" lat="12.967914">
                <ele>26.500000</ele>
                <time>2019-03-16T05:25:31Z</time>
            </trkpt>
            <trkpt lon="101.529925" lat="12.967936">
                <ele>26.200000</ele>
                <time>2019-03-16T05:25:33Z</time>
            </trkpt>
            <trkpt lon="101.529896" lat="12.967960">
                <ele>26.200000</ele>
                <time>2019-03-16T05:25:35Z</time>
            </trkpt>
            <trkpt lon="101.529863" lat="12.967989">
                <ele>25.600000</ele>
                <time>2019-03-16T05:25:37Z</time>
            </trkpt>
            <trkpt lon="101.529837" lat="12.968023">
                <ele>25.100000</ele>
                <time>2019-03-16T05:25:39Z</time>
            </trkpt>
            <trkpt lon="101.529821" lat="12.968061">
                <ele>25.000000</ele>
                <time>2019-03-16T05:25:41Z</time>
            </trkpt>
            <trkpt lon="101.529805" lat="12.968101">
                <ele>24.800000</ele>
                <time>2019-03-16T05:25:43Z</time>
            </trkpt>
            <trkpt lon="101.529789" lat="12.968133">
                <ele>24.800000</ele>
                <time>2019-03-16T05:25:45Z</time>
            </trkpt>
            <trkpt lon="101.529771" lat="12.968158">
                <ele>24.800000</ele>
                <time>2019-03-16T05:25:47Z</time>
            </trkpt>
            <trkpt lon="101.529733" lat="12.968174">
                <ele>24.600000</ele>
                <time>2019-03-16T05:25:50Z</time>
            </trkpt>
            <trkpt lon="101.529695" lat="12.968180">
                <ele>24.600000</ele>
                <time>2019-03-16T05:25:52Z</time>
            </trkpt>
            <trkpt lon="101.529658" lat="12.968190">
                <ele>24.600000</ele>
                <time>2019-03-16T05:25:54Z</time>
            </trkpt>
            <trkpt lon="101.529616" lat="12.968211">
                <ele>24.600000</ele>
                <time>2019-03-16T05:25:56Z</time>
            </trkpt>
            <trkpt lon="101.529571" lat="12.968239">
                <ele>24.900000</ele>
                <time>2019-03-16T05:25:58Z</time>
            </trkpt>
            <trkpt lon="101.529534" lat="12.968268">
                <ele>25.100000</ele>
                <time>2019-03-16T05:26:00Z</time>
            </trkpt>
            <trkpt lon="101.529498" lat="12.968304">
                <ele>25.400000</ele>
                <time>2019-03-16T05:26:02Z</time>
            </trkpt>
            <trkpt lon="101.529464" lat="12.968343">
                <ele>25.400000</ele>
                <time>2019-03-16T05:26:04Z</time>
            </trkpt>
            <trkpt lon="101.529432" lat="12.968377">
                <ele>25.800000</ele>
                <time>2019-03-16T05:26:06Z</time>
            </trkpt>
            <trkpt lon="101.529400" lat="12.968413">
                <ele>26.300000</ele>
                <time>2019-03-16T05:26:08Z</time>
            </trkpt>
            <trkpt lon="101.529362" lat="12.968450">
                <ele>26.800000</ele>
                <time>2019-03-16T05:26:10Z</time>
            </trkpt>
            <trkpt lon="101.529340" lat="12.968469">
                <ele>26.800000</ele>
                <time>2019-03-16T05:26:11Z</time>
            </trkpt>
            <trkpt lon="101.529311" lat="12.968506">
                <ele>27.200000</ele>
                <time>2019-03-16T05:26:13Z</time>
            </trkpt>
            <trkpt lon="101.529306" lat="12.968556">
                <ele>28.000000</ele>
                <time>2019-03-16T05:26:15Z</time>
            </trkpt>
            <trkpt lon="101.529313" lat="12.968605">
                <ele>28.300000</ele>
                <time>2019-03-16T05:26:17Z</time>
            </trkpt>
            <trkpt lon="101.529318" lat="12.968652">
                <ele>28.600000</ele>
                <time>2019-03-16T05:26:19Z</time>
            </trkpt>
            <trkpt lon="101.529320" lat="12.968695">
                <ele>28.800000</ele>
                <time>2019-03-16T05:26:21Z</time>
            </trkpt>
            <trkpt lon="101.529326" lat="12.968734">
                <ele>28.900000</ele>
                <time>2019-03-16T05:26:23Z</time>
            </trkpt>
            <trkpt lon="101.529343" lat="12.968771">
                <ele>28.700000</ele>
                <time>2019-03-16T05:26:25Z</time>
            </trkpt>
            <trkpt lon="101.529360" lat="12.968811">
                <ele>28.700000</ele>
                <time>2019-03-16T05:26:27Z</time>
            </trkpt>
            <trkpt lon="101.529380" lat="12.968851">
                <ele>28.500000</ele>
                <time>2019-03-16T05:26:29Z</time>
            </trkpt>
            <trkpt lon="101.529398" lat="12.968891">
                <ele>28.700000</ele>
                <time>2019-03-16T05:26:31Z</time>
            </trkpt>
            <trkpt lon="101.529411" lat="12.968932">
                <ele>29.100000</ele>
                <time>2019-03-16T05:26:33Z</time>
            </trkpt>
            <trkpt lon="101.529421" lat="12.968968">
                <ele>29.100000</ele>
                <time>2019-03-16T05:26:35Z</time>
            </trkpt>
            <trkpt lon="101.529433" lat="12.969004">
                <ele>29.100000</ele>
                <time>2019-03-16T05:26:37Z</time>
            </trkpt>
            <trkpt lon="101.529447" lat="12.969045">
                <ele>29.400000</ele>
                <time>2019-03-16T05:26:39Z</time>
            </trkpt>
            <trkpt lon="101.529464" lat="12.969089">
                <ele>29.600000</ele>
                <time>2019-03-16T05:26:41Z</time>
            </trkpt>
            <trkpt lon="101.529480" lat="12.969130">
                <ele>29.500000</ele>
                <time>2019-03-16T05:26:43Z</time>
            </trkpt>
            <trkpt lon="101.529499" lat="12.969169">
                <ele>29.600000</ele>
                <time>2019-03-16T05:26:45Z</time>
            </trkpt>
            <trkpt lon="101.529515" lat="12.969211">
                <ele>29.700000</ele>
                <time>2019-03-16T05:26:47Z</time>
            </trkpt>
            <trkpt lon="101.529531" lat="12.969255">
                <ele>29.700000</ele>
                <time>2019-03-16T05:26:49Z</time>
            </trkpt>
            <trkpt lon="101.529548" lat="12.969297">
                <ele>29.700000</ele>
                <time>2019-03-16T05:26:51Z</time>
            </trkpt>
            <trkpt lon="101.529565" lat="12.969340">
                <ele>29.600000</ele>
                <time>2019-03-16T05:26:53Z</time>
            </trkpt>
            <trkpt lon="101.529581" lat="12.969384">
                <ele>29.600000</ele>
                <time>2019-03-16T05:26:55Z</time>
            </trkpt>
            <trkpt lon="101.529596" lat="12.969428">
                <ele>29.600000</ele>
                <time>2019-03-16T05:26:57Z</time>
            </trkpt>
            <trkpt lon="101.529614" lat="12.969469">
                <ele>29.500000</ele>
                <time>2019-03-16T05:26:59Z</time>
            </trkpt>
            <trkpt lon="101.529629" lat="12.969510">
                <ele>29.500000</ele>
                <time>2019-03-16T05:27:01Z</time>
            </trkpt>
            <trkpt lon="101.529645" lat="12.969550">
                <ele>29.600000</ele>
                <time>2019-03-16T05:27:03Z</time>
            </trkpt>
            <trkpt lon="101.529659" lat="12.969593">
                <ele>29.700000</ele>
                <time>2019-03-16T05:27:05Z</time>
            </trkpt>
            <trkpt lon="101.529673" lat="12.969637">
                <ele>29.800000</ele>
                <time>2019-03-16T05:27:07Z</time>
            </trkpt>
            <trkpt lon="101.529688" lat="12.969673">
                <ele>29.600000</ele>
                <time>2019-03-16T05:27:09Z</time>
            </trkpt>
            <trkpt lon="101.529698" lat="12.969703">
                <ele>29.700000</ele>
                <time>2019-03-16T05:27:11Z</time>
            </trkpt>
            <trkpt lon="101.529700" lat="12.969736">
                <ele>29.700000</ele>
                <time>2019-03-16T05:27:13Z</time>
            </trkpt>
            <trkpt lon="101.529717" lat="12.969775">
                <ele>29.700000</ele>
                <time>2019-03-16T05:27:15Z</time>
            </trkpt>
            <trkpt lon="101.529733" lat="12.969816">
                <ele>29.600000</ele>
                <time>2019-03-16T05:27:17Z</time>
            </trkpt>
            <trkpt lon="101.529743" lat="12.969852">
                <ele>29.500000</ele>
                <time>2019-03-16T05:27:19Z</time>
            </trkpt>
            <trkpt lon="101.529757" lat="12.969897">
                <ele>29.300000</ele>
                <time>2019-03-16T05:27:21Z</time>
            </trkpt>
            <trkpt lon="101.529767" lat="12.969924">
                <ele>29.300000</ele>
                <time>2019-03-16T05:27:22Z</time>
            </trkpt>
            <trkpt lon="101.529777" lat="12.969952">
                <ele>29.000000</ele>
                <time>2019-03-16T05:27:23Z</time>
            </trkpt>
            <trkpt lon="101.529786" lat="12.969978">
                <ele>28.700000</ele>
                <time>2019-03-16T05:27:24Z</time>
            </trkpt>
            <trkpt lon="101.529803" lat="12.970025">
                <ele>28.300000</ele>
                <time>2019-03-16T05:27:26Z</time>
            </trkpt>
            <trkpt lon="101.529817" lat="12.970071">
                <ele>28.100000</ele>
                <time>2019-03-16T05:27:28Z</time>
            </trkpt>
            <trkpt lon="101.529833" lat="12.970117">
                <ele>27.800000</ele>
                <time>2019-03-16T05:27:30Z</time>
            </trkpt>
            <trkpt lon="101.529850" lat="12.970165">
                <ele>27.600000</ele>
                <time>2019-03-16T05:27:32Z</time>
            </trkpt>
            <trkpt lon="101.529864" lat="12.970210">
                <ele>27.500000</ele>
                <time>2019-03-16T05:27:34Z</time>
            </trkpt>
            <trkpt lon="101.529876" lat="12.970252">
                <ele>27.400000</ele>
                <time>2019-03-16T05:27:36Z</time>
            </trkpt>
            <trkpt lon="101.529885" lat="12.970279">
                <ele>27.400000</ele>
                <time>2019-03-16T05:27:37Z</time>
            </trkpt>
            <trkpt lon="101.529900" lat="12.970327">
                <ele>27.400000</ele>
                <time>2019-03-16T05:27:39Z</time>
            </trkpt>
            <trkpt lon="101.529917" lat="12.970372">
                <ele>27.600000</ele>
                <time>2019-03-16T05:27:41Z</time>
            </trkpt>
            <trkpt lon="101.529931" lat="12.970416">
                <ele>27.900000</ele>
                <time>2019-03-16T05:27:43Z</time>
            </trkpt>
            <trkpt lon="101.529951" lat="12.970455">
                <ele>28.200000</ele>
                <time>2019-03-16T05:27:45Z</time>
            </trkpt>
            <trkpt lon="101.529981" lat="12.970496">
                <ele>28.500000</ele>
                <time>2019-03-16T05:27:47Z</time>
            </trkpt>
            <trkpt lon="101.529998" lat="12.970523">
                <ele>28.700000</ele>
                <time>2019-03-16T05:27:48Z</time>
            </trkpt>
            <trkpt lon="101.530012" lat="12.970549">
                <ele>28.700000</ele>
                <time>2019-03-16T05:27:49Z</time>
            </trkpt>
            <trkpt lon="101.530026" lat="12.970580">
                <ele>28.700000</ele>
                <time>2019-03-16T05:27:50Z</time>
            </trkpt>
            <trkpt lon="101.530043" lat="12.970616">
                <ele>28.700000</ele>
                <time>2019-03-16T05:27:51Z</time>
            </trkpt>
            <trkpt lon="101.530060" lat="12.970653">
                <ele>28.600000</ele>
                <time>2019-03-16T05:27:52Z</time>
            </trkpt>
            <trkpt lon="101.530078" lat="12.970692">
                <ele>28.500000</ele>
                <time>2019-03-16T05:27:53Z</time>
            </trkpt>
            <trkpt lon="101.530091" lat="12.970724">
                <ele>28.500000</ele>
                <time>2019-03-16T05:27:54Z</time>
            </trkpt>
            <trkpt lon="101.530101" lat="12.970756">
                <ele>28.400000</ele>
                <time>2019-03-16T05:27:55Z</time>
            </trkpt>
            <trkpt lon="101.530113" lat="12.970791">
                <ele>28.400000</ele>
                <time>2019-03-16T05:27:56Z</time>
            </trkpt>
            <trkpt lon="101.530123" lat="12.970820">
                <ele>28.400000</ele>
                <time>2019-03-16T05:27:57Z</time>
            </trkpt>
            <trkpt lon="101.530133" lat="12.970849">
                <ele>28.400000</ele>
                <time>2019-03-16T05:27:58Z</time>
            </trkpt>
            <trkpt lon="101.530141" lat="12.970877">
                <ele>28.600000</ele>
                <time>2019-03-16T05:27:59Z</time>
            </trkpt>
            <trkpt lon="101.530152" lat="12.970909">
                <ele>28.800000</ele>
                <time>2019-03-16T05:28:00Z</time>
            </trkpt>
            <trkpt lon="101.530164" lat="12.970940">
                <ele>29.200000</ele>
                <time>2019-03-16T05:28:01Z</time>
            </trkpt>
            <trkpt lon="101.530175" lat="12.970967">
                <ele>29.100000</ele>
                <time>2019-03-16T05:28:02Z</time>
            </trkpt>
            <trkpt lon="101.530186" lat="12.971024">
                <ele>29.700000</ele>
                <time>2019-03-16T05:28:04Z</time>
            </trkpt>
            <trkpt lon="101.530195" lat="12.971056">
                <ele>29.600000</ele>
                <time>2019-03-16T05:28:05Z</time>
            </trkpt>
            <trkpt lon="101.530202" lat="12.971083">
                <ele>29.800000</ele>
                <time>2019-03-16T05:28:06Z</time>
            </trkpt>
            <trkpt lon="101.530208" lat="12.971110">
                <ele>29.800000</ele>
                <time>2019-03-16T05:28:07Z</time>
            </trkpt>
            <trkpt lon="101.530213" lat="12.971137">
                <ele>29.800000</ele>
                <time>2019-03-16T05:28:08Z</time>
            </trkpt>
            <trkpt lon="101.530225" lat="12.971190">
                <ele>29.500000</ele>
                <time>2019-03-16T05:28:10Z</time>
            </trkpt>
            <trkpt lon="101.530231" lat="12.971222">
                <ele>29.500000</ele>
                <time>2019-03-16T05:28:11Z</time>
            </trkpt>
            <trkpt lon="101.530234" lat="12.971252">
                <ele>29.300000</ele>
                <time>2019-03-16T05:28:12Z</time>
            </trkpt>
            <trkpt lon="101.530238" lat="12.971282">
                <ele>28.900000</ele>
                <time>2019-03-16T05:28:13Z</time>
            </trkpt>
            <trkpt lon="101.530244" lat="12.971310">
                <ele>28.900000</ele>
                <time>2019-03-16T05:28:14Z</time>
            </trkpt>
            <trkpt lon="101.530251" lat="12.971337">
                <ele>28.700000</ele>
                <time>2019-03-16T05:28:15Z</time>
            </trkpt>
            <trkpt lon="101.530258" lat="12.971366">
                <ele>28.400000</ele>
                <time>2019-03-16T05:28:16Z</time>
            </trkpt>
            <trkpt lon="101.530264" lat="12.971398">
                <ele>28.200000</ele>
                <time>2019-03-16T05:28:17Z</time>
            </trkpt>
            <trkpt lon="101.530269" lat="12.971433">
                <ele>28.200000</ele>
                <time>2019-03-16T05:28:18Z</time>
            </trkpt>
            <trkpt lon="101.530274" lat="12.971466">
                <ele>27.900000</ele>
                <time>2019-03-16T05:28:19Z</time>
            </trkpt>
            <trkpt lon="101.530278" lat="12.971497">
                <ele>27.700000</ele>
                <time>2019-03-16T05:28:20Z</time>
            </trkpt>
            <trkpt lon="101.530280" lat="12.971530">
                <ele>27.400000</ele>
                <time>2019-03-16T05:28:21Z</time>
            </trkpt>
            <trkpt lon="101.530281" lat="12.971559">
                <ele>27.400000</ele>
                <time>2019-03-16T05:28:22Z</time>
            </trkpt>
            <trkpt lon="101.530283" lat="12.971588">
                <ele>27.100000</ele>
                <time>2019-03-16T05:28:23Z</time>
            </trkpt>
            <trkpt lon="101.530289" lat="12.971641">
                <ele>26.800000</ele>
                <time>2019-03-16T05:28:25Z</time>
            </trkpt>
            <trkpt lon="101.530294" lat="12.971696">
                <ele>26.300000</ele>
                <time>2019-03-16T05:28:27Z</time>
            </trkpt>
            <trkpt lon="101.530296" lat="12.971724">
                <ele>26.300000</ele>
                <time>2019-03-16T05:28:28Z</time>
            </trkpt>
            <trkpt lon="101.530298" lat="12.971752">
                <ele>26.100000</ele>
                <time>2019-03-16T05:28:29Z</time>
            </trkpt>
            <trkpt lon="101.530300" lat="12.971779">
                <ele>26.000000</ele>
                <time>2019-03-16T05:28:30Z</time>
            </trkpt>
            <trkpt lon="101.530301" lat="12.971809">
                <ele>26.000000</ele>
                <time>2019-03-16T05:28:31Z</time>
            </trkpt>
            <trkpt lon="101.530302" lat="12.971837">
                <ele>26.000000</ele>
                <time>2019-03-16T05:28:32Z</time>
            </trkpt>
            <trkpt lon="101.530305" lat="12.971866">
                <ele>26.000000</ele>
                <time>2019-03-16T05:28:33Z</time>
            </trkpt>
            <trkpt lon="101.530305" lat="12.971894">
                <ele>26.000000</ele>
                <time>2019-03-16T05:28:34Z</time>
            </trkpt>
            <trkpt lon="101.530307" lat="12.971923">
                <ele>26.200000</ele>
                <time>2019-03-16T05:28:35Z</time>
            </trkpt>
            <trkpt lon="101.530317" lat="12.971974">
                <ele>26.500000</ele>
                <time>2019-03-16T05:28:37Z</time>
            </trkpt>
            <trkpt lon="101.530324" lat="12.972003">
                <ele>26.500000</ele>
                <time>2019-03-16T05:28:38Z</time>
            </trkpt>
            <trkpt lon="101.530328" lat="12.972031">
                <ele>26.900000</ele>
                <time>2019-03-16T05:28:39Z</time>
            </trkpt>
            <trkpt lon="101.530332" lat="12.972060">
                <ele>26.900000</ele>
                <time>2019-03-16T05:28:40Z</time>
            </trkpt>
            <trkpt lon="101.530330" lat="12.972088">
                <ele>27.400000</ele>
                <time>2019-03-16T05:28:41Z</time>
            </trkpt>
            <trkpt lon="101.530331" lat="12.972115">
                <ele>27.800000</ele>
                <time>2019-03-16T05:28:42Z</time>
            </trkpt>
            <trkpt lon="101.530333" lat="12.972165">
                <ele>28.200000</ele>
                <time>2019-03-16T05:28:44Z</time>
            </trkpt>
            <trkpt lon="101.530332" lat="12.972194">
                <ele>28.600000</ele>
                <time>2019-03-16T05:28:45Z</time>
            </trkpt>
            <trkpt lon="101.530327" lat="12.972225">
                <ele>28.600000</ele>
                <time>2019-03-16T05:28:46Z</time>
            </trkpt>
            <trkpt lon="101.530324" lat="12.972277">
                <ele>29.100000</ele>
                <time>2019-03-16T05:28:48Z</time>
            </trkpt>
            <trkpt lon="101.530321" lat="12.972309">
                <ele>28.800000</ele>
                <time>2019-03-16T05:28:49Z</time>
            </trkpt>
            <trkpt lon="101.530316" lat="12.972339">
                <ele>28.900000</ele>
                <time>2019-03-16T05:28:50Z</time>
            </trkpt>
            <trkpt lon="101.530310" lat="12.972368">
                <ele>28.800000</ele>
                <time>2019-03-16T05:28:51Z</time>
            </trkpt>
            <trkpt lon="101.530303" lat="12.972413">
                <ele>28.700000</ele>
                <time>2019-03-16T05:28:53Z</time>
            </trkpt>
            <trkpt lon="101.530301" lat="12.972457">
                <ele>28.600000</ele>
                <time>2019-03-16T05:28:55Z</time>
            </trkpt>
            <trkpt lon="101.530296" lat="12.972511">
                <ele>28.500000</ele>
                <time>2019-03-16T05:28:57Z</time>
            </trkpt>
            <trkpt lon="101.530286" lat="12.972561">
                <ele>28.500000</ele>
                <time>2019-03-16T05:28:59Z</time>
            </trkpt>
            <trkpt lon="101.530280" lat="12.972589">
                <ele>28.500000</ele>
                <time>2019-03-16T05:29:00Z</time>
            </trkpt>
            <trkpt lon="101.530267" lat="12.972641">
                <ele>28.500000</ele>
                <time>2019-03-16T05:29:02Z</time>
            </trkpt>
            <trkpt lon="101.530262" lat="12.972683">
                <ele>28.500000</ele>
                <time>2019-03-16T05:29:04Z</time>
            </trkpt>
            <trkpt lon="101.530267" lat="12.972724">
                <ele>28.500000</ele>
                <time>2019-03-16T05:29:06Z</time>
            </trkpt>
            <trkpt lon="101.530278" lat="12.972767">
                <ele>28.500000</ele>
                <time>2019-03-16T05:29:08Z</time>
            </trkpt>
            <trkpt lon="101.530289" lat="12.972818">
                <ele>28.500000</ele>
                <time>2019-03-16T05:29:10Z</time>
            </trkpt>
            <trkpt lon="101.530300" lat="12.972875">
                <ele>28.500000</ele>
                <time>2019-03-16T05:29:12Z</time>
            </trkpt>
            <trkpt lon="101.530302" lat="12.972907">
                <ele>28.500000</ele>
                <time>2019-03-16T05:29:13Z</time>
            </trkpt>
            <trkpt lon="101.530304" lat="12.972935">
                <ele>28.500000</ele>
                <time>2019-03-16T05:29:14Z</time>
            </trkpt>
            <trkpt lon="101.530299" lat="12.972970">
                <ele>28.500000</ele>
                <time>2019-03-16T05:29:15Z</time>
            </trkpt>
            <trkpt lon="101.530295" lat="12.973005">
                <ele>28.500000</ele>
                <time>2019-03-16T05:29:16Z</time>
            </trkpt>
            <trkpt lon="101.530287" lat="12.973047">
                <ele>28.600000</ele>
                <time>2019-03-16T05:29:17Z</time>
            </trkpt>
            <trkpt lon="101.530283" lat="12.973077">
                <ele>28.700000</ele>
                <time>2019-03-16T05:29:18Z</time>
            </trkpt>
            <trkpt lon="101.530280" lat="12.973126">
                <ele>29.100000</ele>
                <time>2019-03-16T05:29:20Z</time>
            </trkpt>
            <trkpt lon="101.530276" lat="12.973177">
                <ele>29.300000</ele>
                <time>2019-03-16T05:29:22Z</time>
            </trkpt>
            <trkpt lon="101.530274" lat="12.973209">
                <ele>29.300000</ele>
                <time>2019-03-16T05:29:23Z</time>
            </trkpt>
            <trkpt lon="101.530271" lat="12.973245">
                <ele>29.400000</ele>
                <time>2019-03-16T05:29:24Z</time>
            </trkpt>
            <trkpt lon="101.530268" lat="12.973279">
                <ele>29.400000</ele>
                <time>2019-03-16T05:29:25Z</time>
            </trkpt>
            <trkpt lon="101.530264" lat="12.973313">
                <ele>29.400000</ele>
                <time>2019-03-16T05:29:26Z</time>
            </trkpt>
            <trkpt lon="101.530256" lat="12.973351">
                <ele>29.400000</ele>
                <time>2019-03-16T05:29:27Z</time>
            </trkpt>
            <trkpt lon="101.530245" lat="12.973389">
                <ele>29.400000</ele>
                <time>2019-03-16T05:29:28Z</time>
            </trkpt>
            <trkpt lon="101.530236" lat="12.973430">
                <ele>29.400000</ele>
                <time>2019-03-16T05:29:29Z</time>
            </trkpt>
            <trkpt lon="101.530227" lat="12.973468">
                <ele>29.400000</ele>
                <time>2019-03-16T05:29:30Z</time>
            </trkpt>
            <trkpt lon="101.530215" lat="12.973500">
                <ele>29.400000</ele>
                <time>2019-03-16T05:29:31Z</time>
            </trkpt>
            <trkpt lon="101.530201" lat="12.973528">
                <ele>29.400000</ele>
                <time>2019-03-16T05:29:32Z</time>
            </trkpt>
            <trkpt lon="101.530179" lat="12.973554">
                <ele>29.400000</ele>
                <time>2019-03-16T05:29:33Z</time>
            </trkpt>
            <trkpt lon="101.530155" lat="12.973573">
                <ele>29.400000</ele>
                <time>2019-03-16T05:29:34Z</time>
            </trkpt>
            <trkpt lon="101.530133" lat="12.973593">
                <ele>29.400000</ele>
                <time>2019-03-16T05:29:35Z</time>
            </trkpt>
            <trkpt lon="101.530105" lat="12.973615">
                <ele>29.400000</ele>
                <time>2019-03-16T05:29:36Z</time>
            </trkpt>
            <trkpt lon="101.530078" lat="12.973639">
                <ele>29.400000</ele>
                <time>2019-03-16T05:29:37Z</time>
            </trkpt>
            <trkpt lon="101.530048" lat="12.973663">
                <ele>29.400000</ele>
                <time>2019-03-16T05:29:38Z</time>
            </trkpt>
            <trkpt lon="101.530011" lat="12.973686">
                <ele>29.400000</ele>
                <time>2019-03-16T05:29:39Z</time>
            </trkpt>
            <trkpt lon="101.529979" lat="12.973705">
                <ele>29.600000</ele>
                <time>2019-03-16T05:29:40Z</time>
            </trkpt>
            <trkpt lon="101.529949" lat="12.973726">
                <ele>29.600000</ele>
                <time>2019-03-16T05:29:41Z</time>
            </trkpt>
            <trkpt lon="101.529919" lat="12.973746">
                <ele>29.900000</ele>
                <time>2019-03-16T05:29:42Z</time>
            </trkpt>
            <trkpt lon="101.529892" lat="12.973766">
                <ele>29.800000</ele>
                <time>2019-03-16T05:29:43Z</time>
            </trkpt>
            <trkpt lon="101.529864" lat="12.973787">
                <ele>30.000000</ele>
                <time>2019-03-16T05:29:44Z</time>
            </trkpt>
            <trkpt lon="101.529836" lat="12.973810">
                <ele>29.800000</ele>
                <time>2019-03-16T05:29:45Z</time>
            </trkpt>
            <trkpt lon="101.529808" lat="12.973831">
                <ele>29.800000</ele>
                <time>2019-03-16T05:29:46Z</time>
            </trkpt>
            <trkpt lon="101.529781" lat="12.973849">
                <ele>29.800000</ele>
                <time>2019-03-16T05:29:47Z</time>
            </trkpt>
            <trkpt lon="101.529756" lat="12.973869">
                <ele>29.500000</ele>
                <time>2019-03-16T05:29:48Z</time>
            </trkpt>
            <trkpt lon="101.529730" lat="12.973887">
                <ele>29.500000</ele>
                <time>2019-03-16T05:29:49Z</time>
            </trkpt>
            <trkpt lon="101.529702" lat="12.973907">
                <ele>29.400000</ele>
                <time>2019-03-16T05:29:50Z</time>
            </trkpt>
            <trkpt lon="101.529680" lat="12.973925">
                <ele>29.400000</ele>
                <time>2019-03-16T05:29:51Z</time>
            </trkpt>
            <trkpt lon="101.529658" lat="12.973943">
                <ele>29.400000</ele>
                <time>2019-03-16T05:29:52Z</time>
            </trkpt>
            <trkpt lon="101.529635" lat="12.973961">
                <ele>29.400000</ele>
                <time>2019-03-16T05:29:53Z</time>
            </trkpt>
            <trkpt lon="101.529612" lat="12.973980">
                <ele>29.400000</ele>
                <time>2019-03-16T05:29:54Z</time>
            </trkpt>
            <trkpt lon="101.529587" lat="12.974000">
                <ele>29.400000</ele>
                <time>2019-03-16T05:29:55Z</time>
            </trkpt>
            <trkpt lon="101.529565" lat="12.974017">
                <ele>29.400000</ele>
                <time>2019-03-16T05:29:56Z</time>
            </trkpt>
            <trkpt lon="101.529542" lat="12.974033">
                <ele>29.500000</ele>
                <time>2019-03-16T05:29:57Z</time>
            </trkpt>
            <trkpt lon="101.529521" lat="12.974050">
                <ele>29.500000</ele>
                <time>2019-03-16T05:29:58Z</time>
            </trkpt>
            <trkpt lon="101.529483" lat="12.974083">
                <ele>29.600000</ele>
                <time>2019-03-16T05:30:00Z</time>
            </trkpt>
            <trkpt lon="101.529443" lat="12.974117">
                <ele>29.600000</ele>
                <time>2019-03-16T05:30:02Z</time>
            </trkpt>
            <trkpt lon="101.529399" lat="12.974147">
                <ele>29.700000</ele>
                <time>2019-03-16T05:30:04Z</time>
            </trkpt>
            <trkpt lon="101.529375" lat="12.974161">
                <ele>29.600000</ele>
                <time>2019-03-16T05:30:05Z</time>
            </trkpt>
            <trkpt lon="101.529331" lat="12.974191">
                <ele>29.800000</ele>
                <time>2019-03-16T05:30:07Z</time>
            </trkpt>
            <trkpt lon="101.529306" lat="12.974206">
                <ele>29.800000</ele>
                <time>2019-03-16T05:30:08Z</time>
            </trkpt>
            <trkpt lon="101.529259" lat="12.974242">
                <ele>30.000000</ele>
                <time>2019-03-16T05:30:10Z</time>
            </trkpt>
            <trkpt lon="101.529226" lat="12.974264">
                <ele>30.300000</ele>
                <time>2019-03-16T05:30:11Z</time>
            </trkpt>
            <trkpt lon="101.529195" lat="12.974288">
                <ele>30.500000</ele>
                <time>2019-03-16T05:30:12Z</time>
            </trkpt>
            <trkpt lon="101.529164" lat="12.974310">
                <ele>30.600000</ele>
                <time>2019-03-16T05:30:13Z</time>
            </trkpt>
            <trkpt lon="101.529136" lat="12.974332">
                <ele>30.700000</ele>
                <time>2019-03-16T05:30:14Z</time>
            </trkpt>
            <trkpt lon="101.529110" lat="12.974353">
                <ele>31.000000</ele>
                <time>2019-03-16T05:30:15Z</time>
            </trkpt>
            <trkpt lon="101.529084" lat="12.974372">
                <ele>31.000000</ele>
                <time>2019-03-16T05:30:16Z</time>
            </trkpt>
            <trkpt lon="101.529060" lat="12.974389">
                <ele>31.200000</ele>
                <time>2019-03-16T05:30:17Z</time>
            </trkpt>
            <trkpt lon="101.529037" lat="12.974408">
                <ele>31.200000</ele>
                <time>2019-03-16T05:30:18Z</time>
            </trkpt>
            <trkpt lon="101.529013" lat="12.974429">
                <ele>31.500000</ele>
                <time>2019-03-16T05:30:19Z</time>
            </trkpt>
            <trkpt lon="101.528990" lat="12.974453">
                <ele>31.700000</ele>
                <time>2019-03-16T05:30:20Z</time>
            </trkpt>
            <trkpt lon="101.528965" lat="12.974475">
                <ele>31.700000</ele>
                <time>2019-03-16T05:30:21Z</time>
            </trkpt>
            <trkpt lon="101.528941" lat="12.974499">
                <ele>32.000000</ele>
                <time>2019-03-16T05:30:22Z</time>
            </trkpt>
            <trkpt lon="101.528918" lat="12.974524">
                <ele>32.000000</ele>
                <time>2019-03-16T05:30:23Z</time>
            </trkpt>
            <trkpt lon="101.528896" lat="12.974544">
                <ele>32.100000</ele>
                <time>2019-03-16T05:30:24Z</time>
            </trkpt>
            <trkpt lon="101.528873" lat="12.974563">
                <ele>32.100000</ele>
                <time>2019-03-16T05:30:25Z</time>
            </trkpt>
            <trkpt lon="101.528845" lat="12.974581">
                <ele>32.100000</ele>
                <time>2019-03-16T05:30:26Z</time>
            </trkpt>
            <trkpt lon="101.528820" lat="12.974600">
                <ele>32.300000</ele>
                <time>2019-03-16T05:30:27Z</time>
            </trkpt>
            <trkpt lon="101.528779" lat="12.974635">
                <ele>32.100000</ele>
                <time>2019-03-16T05:30:29Z</time>
            </trkpt>
            <trkpt lon="101.528758" lat="12.974654">
                <ele>32.300000</ele>
                <time>2019-03-16T05:30:30Z</time>
            </trkpt>
            <trkpt lon="101.528738" lat="12.974673">
                <ele>32.100000</ele>
                <time>2019-03-16T05:30:31Z</time>
            </trkpt>
            <trkpt lon="101.528716" lat="12.974693">
                <ele>32.300000</ele>
                <time>2019-03-16T05:30:32Z</time>
            </trkpt>
            <trkpt lon="101.528695" lat="12.974711">
                <ele>32.100000</ele>
                <time>2019-03-16T05:30:33Z</time>
            </trkpt>
            <trkpt lon="101.528653" lat="12.974747">
                <ele>32.000000</ele>
                <time>2019-03-16T05:30:35Z</time>
            </trkpt>
            <trkpt lon="101.528629" lat="12.974765">
                <ele>32.100000</ele>
                <time>2019-03-16T05:30:36Z</time>
            </trkpt>
            <trkpt lon="101.528607" lat="12.974781">
                <ele>32.100000</ele>
                <time>2019-03-16T05:30:37Z</time>
            </trkpt>
            <trkpt lon="101.528584" lat="12.974798">
                <ele>32.100000</ele>
                <time>2019-03-16T05:30:38Z</time>
            </trkpt>
            <trkpt lon="101.528538" lat="12.974833">
                <ele>32.200000</ele>
                <time>2019-03-16T05:30:40Z</time>
            </trkpt>
            <trkpt lon="101.528497" lat="12.974871">
                <ele>32.200000</ele>
                <time>2019-03-16T05:30:42Z</time>
            </trkpt>
            <trkpt lon="101.528473" lat="12.974913">
                <ele>32.100000</ele>
                <time>2019-03-16T05:30:44Z</time>
            </trkpt>
            <trkpt lon="101.528484" lat="12.974956">
                <ele>31.800000</ele>
                <time>2019-03-16T05:30:46Z</time>
            </trkpt>
            <trkpt lon="101.528524" lat="12.974987">
                <ele>31.600000</ele>
                <time>2019-03-16T05:30:48Z</time>
            </trkpt>
            <trkpt lon="101.528566" lat="12.975021">
                <ele>31.400000</ele>
                <time>2019-03-16T05:30:50Z</time>
            </trkpt>
            <trkpt lon="101.528602" lat="12.975052">
                <ele>31.400000</ele>
                <time>2019-03-16T05:30:52Z</time>
            </trkpt>
            <trkpt lon="101.528642" lat="12.975083">
                <ele>31.400000</ele>
                <time>2019-03-16T05:30:54Z</time>
            </trkpt>
            <trkpt lon="101.528682" lat="12.975113">
                <ele>31.400000</ele>
                <time>2019-03-16T05:30:56Z</time>
            </trkpt>
            <trkpt lon="101.528728" lat="12.975144">
                <ele>31.400000</ele>
                <time>2019-03-16T05:30:58Z</time>
            </trkpt>
            <trkpt lon="101.528761" lat="12.975180">
                <ele>31.400000</ele>
                <time>2019-03-16T05:31:00Z</time>
            </trkpt>
            <trkpt lon="101.528773" lat="12.975228">
                <ele>31.400000</ele>
                <time>2019-03-16T05:31:02Z</time>
            </trkpt>
            <trkpt lon="101.528784" lat="12.975270">
                <ele>31.300000</ele>
                <time>2019-03-16T05:31:04Z</time>
            </trkpt>
            <trkpt lon="101.528817" lat="12.975305">
                <ele>31.300000</ele>
                <time>2019-03-16T05:31:06Z</time>
            </trkpt>
            <trkpt lon="101.528864" lat="12.975332">
                <ele>31.400000</ele>
                <time>2019-03-16T05:31:08Z</time>
            </trkpt>
            <trkpt lon="101.528890" lat="12.975343">
                <ele>31.500000</ele>
                <time>2019-03-16T05:31:09Z</time>
            </trkpt>
            <trkpt lon="101.528915" lat="12.975355">
                <ele>31.700000</ele>
                <time>2019-03-16T05:31:10Z</time>
            </trkpt>
            <trkpt lon="101.528964" lat="12.975379">
                <ele>31.900000</ele>
                <time>2019-03-16T05:31:12Z</time>
            </trkpt>
            <trkpt lon="101.528992" lat="12.975396">
                <ele>32.100000</ele>
                <time>2019-03-16T05:31:13Z</time>
            </trkpt>
            <trkpt lon="101.529018" lat="12.975412">
                <ele>32.200000</ele>
                <time>2019-03-16T05:31:14Z</time>
            </trkpt>
            <trkpt lon="101.529044" lat="12.975431">
                <ele>32.300000</ele>
                <time>2019-03-16T05:31:15Z</time>
            </trkpt>
            <trkpt lon="101.529070" lat="12.975450">
                <ele>32.300000</ele>
                <time>2019-03-16T05:31:16Z</time>
            </trkpt>
            <trkpt lon="101.529094" lat="12.975470">
                <ele>32.300000</ele>
                <time>2019-03-16T05:31:17Z</time>
            </trkpt>
            <trkpt lon="101.529118" lat="12.975489">
                <ele>32.300000</ele>
                <time>2019-03-16T05:31:18Z</time>
            </trkpt>
            <trkpt lon="101.529142" lat="12.975512">
                <ele>32.300000</ele>
                <time>2019-03-16T05:31:19Z</time>
            </trkpt>
            <trkpt lon="101.529166" lat="12.975536">
                <ele>32.300000</ele>
                <time>2019-03-16T05:31:20Z</time>
            </trkpt>
            <trkpt lon="101.529186" lat="12.975557">
                <ele>32.300000</ele>
                <time>2019-03-16T05:31:21Z</time>
            </trkpt>
            <trkpt lon="101.529209" lat="12.975582">
                <ele>32.300000</ele>
                <time>2019-03-16T05:31:22Z</time>
            </trkpt>
            <trkpt lon="101.529232" lat="12.975607">
                <ele>32.300000</ele>
                <time>2019-03-16T05:31:23Z</time>
            </trkpt>
            <trkpt lon="101.529252" lat="12.975632">
                <ele>32.300000</ele>
                <time>2019-03-16T05:31:24Z</time>
            </trkpt>
            <trkpt lon="101.529275" lat="12.975657">
                <ele>32.300000</ele>
                <time>2019-03-16T05:31:25Z</time>
            </trkpt>
            <trkpt lon="101.529297" lat="12.975683">
                <ele>32.300000</ele>
                <time>2019-03-16T05:31:26Z</time>
            </trkpt>
            <trkpt lon="101.529320" lat="12.975708">
                <ele>32.300000</ele>
                <time>2019-03-16T05:31:27Z</time>
            </trkpt>
            <trkpt lon="101.529342" lat="12.975734">
                <ele>32.400000</ele>
                <time>2019-03-16T05:31:28Z</time>
            </trkpt>
            <trkpt lon="101.529365" lat="12.975758">
                <ele>32.400000</ele>
                <time>2019-03-16T05:31:29Z</time>
            </trkpt>
            <trkpt lon="101.529387" lat="12.975781">
                <ele>32.400000</ele>
                <time>2019-03-16T05:31:30Z</time>
            </trkpt>
            <trkpt lon="101.529410" lat="12.975802">
                <ele>32.400000</ele>
                <time>2019-03-16T05:31:31Z</time>
            </trkpt>
            <trkpt lon="101.529432" lat="12.975826">
                <ele>32.400000</ele>
                <time>2019-03-16T05:31:32Z</time>
            </trkpt>
            <trkpt lon="101.529454" lat="12.975851">
                <ele>32.400000</ele>
                <time>2019-03-16T05:31:33Z</time>
            </trkpt>
            <trkpt lon="101.529476" lat="12.975875">
                <ele>32.400000</ele>
                <time>2019-03-16T05:31:34Z</time>
            </trkpt>
            <trkpt lon="101.529499" lat="12.975901">
                <ele>32.400000</ele>
                <time>2019-03-16T05:31:35Z</time>
            </trkpt>
            <trkpt lon="101.529521" lat="12.975927">
                <ele>32.400000</ele>
                <time>2019-03-16T05:31:36Z</time>
            </trkpt>
            <trkpt lon="101.529541" lat="12.975954">
                <ele>32.500000</ele>
                <time>2019-03-16T05:31:37Z</time>
            </trkpt>
            <trkpt lon="101.529565" lat="12.975980">
                <ele>32.700000</ele>
                <time>2019-03-16T05:31:38Z</time>
            </trkpt>
            <trkpt lon="101.529587" lat="12.976005">
                <ele>32.900000</ele>
                <time>2019-03-16T05:31:39Z</time>
            </trkpt>
            <trkpt lon="101.529611" lat="12.976031">
                <ele>33.100000</ele>
                <time>2019-03-16T05:31:40Z</time>
            </trkpt>
            <trkpt lon="101.529635" lat="12.976056">
                <ele>33.200000</ele>
                <time>2019-03-16T05:31:41Z</time>
            </trkpt>
            <trkpt lon="101.529659" lat="12.976084">
                <ele>33.300000</ele>
                <time>2019-03-16T05:31:42Z</time>
            </trkpt>
            <trkpt lon="101.529684" lat="12.976112">
                <ele>33.400000</ele>
                <time>2019-03-16T05:31:43Z</time>
            </trkpt>
            <trkpt lon="101.529709" lat="12.976138">
                <ele>33.600000</ele>
                <time>2019-03-16T05:31:44Z</time>
            </trkpt>
            <trkpt lon="101.529733" lat="12.976163">
                <ele>33.800000</ele>
                <time>2019-03-16T05:31:45Z</time>
            </trkpt>
            <trkpt lon="101.529757" lat="12.976188">
                <ele>34.000000</ele>
                <time>2019-03-16T05:31:46Z</time>
            </trkpt>
            <trkpt lon="101.529781" lat="12.976213">
                <ele>34.200000</ele>
                <time>2019-03-16T05:31:47Z</time>
            </trkpt>
            <trkpt lon="101.529804" lat="12.976238">
                <ele>34.300000</ele>
                <time>2019-03-16T05:31:48Z</time>
            </trkpt>
            <trkpt lon="101.529827" lat="12.976263">
                <ele>34.300000</ele>
                <time>2019-03-16T05:31:49Z</time>
            </trkpt>
            <trkpt lon="101.529851" lat="12.976288">
                <ele>34.400000</ele>
                <time>2019-03-16T05:31:50Z</time>
            </trkpt>
            <trkpt lon="101.529875" lat="12.976314">
                <ele>34.400000</ele>
                <time>2019-03-16T05:31:51Z</time>
            </trkpt>
            <trkpt lon="101.529899" lat="12.976343">
                <ele>34.400000</ele>
                <time>2019-03-16T05:31:52Z</time>
            </trkpt>
            <trkpt lon="101.529920" lat="12.976367">
                <ele>34.400000</ele>
                <time>2019-03-16T05:31:53Z</time>
            </trkpt>
            <trkpt lon="101.529941" lat="12.976388">
                <ele>34.400000</ele>
                <time>2019-03-16T05:31:54Z</time>
            </trkpt>
            <trkpt lon="101.529965" lat="12.976411">
                <ele>34.400000</ele>
                <time>2019-03-16T05:31:55Z</time>
            </trkpt>
            <trkpt lon="101.529991" lat="12.976437">
                <ele>34.400000</ele>
                <time>2019-03-16T05:31:56Z</time>
            </trkpt>
            <trkpt lon="101.530017" lat="12.976462">
                <ele>34.400000</ele>
                <time>2019-03-16T05:31:57Z</time>
            </trkpt>
            <trkpt lon="101.530039" lat="12.976485">
                <ele>34.400000</ele>
                <time>2019-03-16T05:31:58Z</time>
            </trkpt>
            <trkpt lon="101.530064" lat="12.976509">
                <ele>34.400000</ele>
                <time>2019-03-16T05:31:59Z</time>
            </trkpt>
            <trkpt lon="101.530088" lat="12.976534">
                <ele>34.400000</ele>
                <time>2019-03-16T05:32:00Z</time>
            </trkpt>
            <trkpt lon="101.530113" lat="12.976558">
                <ele>34.400000</ele>
                <time>2019-03-16T05:32:01Z</time>
            </trkpt>
            <trkpt lon="101.530138" lat="12.976582">
                <ele>34.400000</ele>
                <time>2019-03-16T05:32:02Z</time>
            </trkpt>
            <trkpt lon="101.530161" lat="12.976606">
                <ele>34.400000</ele>
                <time>2019-03-16T05:32:03Z</time>
            </trkpt>
            <trkpt lon="101.530185" lat="12.976628">
                <ele>34.400000</ele>
                <time>2019-03-16T05:32:04Z</time>
            </trkpt>
            <trkpt lon="101.530210" lat="12.976651">
                <ele>34.400000</ele>
                <time>2019-03-16T05:32:05Z</time>
            </trkpt>
            <trkpt lon="101.530234" lat="12.976675">
                <ele>34.400000</ele>
                <time>2019-03-16T05:32:06Z</time>
            </trkpt>
            <trkpt lon="101.530259" lat="12.976700">
                <ele>34.400000</ele>
                <time>2019-03-16T05:32:07Z</time>
            </trkpt>
            <trkpt lon="101.530284" lat="12.976725">
                <ele>34.400000</ele>
                <time>2019-03-16T05:32:08Z</time>
            </trkpt>
            <trkpt lon="101.530310" lat="12.976748">
                <ele>34.400000</ele>
                <time>2019-03-16T05:32:09Z</time>
            </trkpt>
            <trkpt lon="101.530336" lat="12.976772">
                <ele>34.400000</ele>
                <time>2019-03-16T05:32:10Z</time>
            </trkpt>
            <trkpt lon="101.530361" lat="12.976795">
                <ele>34.400000</ele>
                <time>2019-03-16T05:32:11Z</time>
            </trkpt>
            <trkpt lon="101.530383" lat="12.976817">
                <ele>34.400000</ele>
                <time>2019-03-16T05:32:12Z</time>
            </trkpt>
            <trkpt lon="101.530403" lat="12.976837">
                <ele>34.500000</ele>
                <time>2019-03-16T05:32:13Z</time>
            </trkpt>
            <trkpt lon="101.530423" lat="12.976858">
                <ele>34.500000</ele>
                <time>2019-03-16T05:32:14Z</time>
            </trkpt>
            <trkpt lon="101.530445" lat="12.976881">
                <ele>34.600000</ele>
                <time>2019-03-16T05:32:15Z</time>
            </trkpt>
            <trkpt lon="101.530466" lat="12.976903">
                <ele>34.700000</ele>
                <time>2019-03-16T05:32:16Z</time>
            </trkpt>
            <trkpt lon="101.530489" lat="12.976924">
                <ele>35.000000</ele>
                <time>2019-03-16T05:32:17Z</time>
            </trkpt>
            <trkpt lon="101.530510" lat="12.976946">
                <ele>35.200000</ele>
                <time>2019-03-16T05:32:18Z</time>
            </trkpt>
            <trkpt lon="101.530531" lat="12.976970">
                <ele>35.300000</ele>
                <time>2019-03-16T05:32:19Z</time>
            </trkpt>
            <trkpt lon="101.530567" lat="12.977011">
                <ele>35.400000</ele>
                <time>2019-03-16T05:32:21Z</time>
            </trkpt>
            <trkpt lon="101.530598" lat="12.977048">
                <ele>35.600000</ele>
                <time>2019-03-16T05:32:23Z</time>
            </trkpt>
            <trkpt lon="101.530613" lat="12.977084">
                <ele>35.900000</ele>
                <time>2019-03-16T05:32:25Z</time>
            </trkpt>
            <trkpt lon="101.530606" lat="12.977111">
                <ele>36.000000</ele>
                <time>2019-03-16T05:32:27Z</time>
            </trkpt>
            <trkpt lon="101.530657" lat="12.977152">
                <ele>36.200000</ele>
                <time>2019-03-16T05:33:57Z</time>
            </trkpt>
            <trkpt lon="101.530683" lat="12.977175">
                <ele>36.500000</ele>
                <time>2019-03-16T05:33:58Z</time>
            </trkpt>
            <trkpt lon="101.530722" lat="12.977209">
                <ele>36.900000</ele>
                <time>2019-03-16T05:34:00Z</time>
            </trkpt>
            <trkpt lon="101.530765" lat="12.977244">
                <ele>37.300000</ele>
                <time>2019-03-16T05:34:02Z</time>
            </trkpt>
            <trkpt lon="101.530789" lat="12.977263">
                <ele>37.500000</ele>
                <time>2019-03-16T05:34:03Z</time>
            </trkpt>
            <trkpt lon="101.530825" lat="12.977286">
                <ele>37.800000</ele>
                <time>2019-03-16T05:34:05Z</time>
            </trkpt>
            <trkpt lon="101.530870" lat="12.977325">
                <ele>38.400000</ele>
                <time>2019-03-16T05:34:07Z</time>
            </trkpt>
            <trkpt lon="101.530891" lat="12.977344">
                <ele>38.500000</ele>
                <time>2019-03-16T05:34:08Z</time>
            </trkpt>
            <trkpt lon="101.530911" lat="12.977363">
                <ele>38.600000</ele>
                <time>2019-03-16T05:34:09Z</time>
            </trkpt>
            <trkpt lon="101.530941" lat="12.977388">
                <ele>38.700000</ele>
                <time>2019-03-16T05:34:10Z</time>
            </trkpt>
            <trkpt lon="101.530971" lat="12.977406">
                <ele>38.800000</ele>
                <time>2019-03-16T05:34:11Z</time>
            </trkpt>
            <trkpt lon="101.530998" lat="12.977429">
                <ele>39.000000</ele>
                <time>2019-03-16T05:34:12Z</time>
            </trkpt>
            <trkpt lon="101.531019" lat="12.977447">
                <ele>39.100000</ele>
                <time>2019-03-16T05:34:13Z</time>
            </trkpt>
            <trkpt lon="101.531060" lat="12.977482">
                <ele>39.300000</ele>
                <time>2019-03-16T05:34:15Z</time>
            </trkpt>
            <trkpt lon="101.531102" lat="12.977520">
                <ele>39.400000</ele>
                <time>2019-03-16T05:34:17Z</time>
            </trkpt>
            <trkpt lon="101.531126" lat="12.977541">
                <ele>39.400000</ele>
                <time>2019-03-16T05:34:18Z</time>
            </trkpt>
            <trkpt lon="101.531161" lat="12.977562">
                <ele>39.500000</ele>
                <time>2019-03-16T05:34:19Z</time>
            </trkpt>
            <trkpt lon="101.531186" lat="12.977576">
                <ele>39.500000</ele>
                <time>2019-03-16T05:34:20Z</time>
            </trkpt>
            <trkpt lon="101.531210" lat="12.977592">
                <ele>39.500000</ele>
                <time>2019-03-16T05:34:21Z</time>
            </trkpt>
            <trkpt lon="101.531236" lat="12.977611">
                <ele>39.600000</ele>
                <time>2019-03-16T05:34:22Z</time>
            </trkpt>
            <trkpt lon="101.531260" lat="12.977635">
                <ele>39.700000</ele>
                <time>2019-03-16T05:34:23Z</time>
            </trkpt>
            <trkpt lon="101.531286" lat="12.977660">
                <ele>39.800000</ele>
                <time>2019-03-16T05:34:24Z</time>
            </trkpt>
            <trkpt lon="101.531312" lat="12.977682">
                <ele>40.200000</ele>
                <time>2019-03-16T05:34:25Z</time>
            </trkpt>
            <trkpt lon="101.531337" lat="12.977705">
                <ele>40.600000</ele>
                <time>2019-03-16T05:34:26Z</time>
            </trkpt>
            <trkpt lon="101.531363" lat="12.977728">
                <ele>40.900000</ele>
                <time>2019-03-16T05:34:27Z</time>
            </trkpt>
            <trkpt lon="101.531388" lat="12.977749">
                <ele>41.100000</ele>
                <time>2019-03-16T05:34:28Z</time>
            </trkpt>
            <trkpt lon="101.531412" lat="12.977772">
                <ele>41.400000</ele>
                <time>2019-03-16T05:34:29Z</time>
            </trkpt>
            <trkpt lon="101.531437" lat="12.977793">
                <ele>41.500000</ele>
                <time>2019-03-16T05:34:30Z</time>
            </trkpt>
            <trkpt lon="101.531461" lat="12.977814">
                <ele>41.600000</ele>
                <time>2019-03-16T05:34:31Z</time>
            </trkpt>
            <trkpt lon="101.531485" lat="12.977831">
                <ele>41.700000</ele>
                <time>2019-03-16T05:34:32Z</time>
            </trkpt>
            <trkpt lon="101.531513" lat="12.977853">
                <ele>41.700000</ele>
                <time>2019-03-16T05:34:33Z</time>
            </trkpt>
            <trkpt lon="101.531536" lat="12.977869">
                <ele>41.700000</ele>
                <time>2019-03-16T05:34:34Z</time>
            </trkpt>
            <trkpt lon="101.531558" lat="12.977888">
                <ele>41.700000</ele>
                <time>2019-03-16T05:34:35Z</time>
            </trkpt>
            <trkpt lon="101.531597" lat="12.977918">
                <ele>41.600000</ele>
                <time>2019-03-16T05:34:37Z</time>
            </trkpt>
            <trkpt lon="101.531620" lat="12.977935">
                <ele>41.500000</ele>
                <time>2019-03-16T05:34:38Z</time>
            </trkpt>
            <trkpt lon="101.531647" lat="12.977949">
                <ele>41.500000</ele>
                <time>2019-03-16T05:34:39Z</time>
            </trkpt>
            <trkpt lon="101.531679" lat="12.977965">
                <ele>41.500000</ele>
                <time>2019-03-16T05:34:40Z</time>
            </trkpt>
            <trkpt lon="101.531712" lat="12.977979">
                <ele>41.500000</ele>
                <time>2019-03-16T05:34:41Z</time>
            </trkpt>
            <trkpt lon="101.531748" lat="12.977990">
                <ele>41.500000</ele>
                <time>2019-03-16T05:34:42Z</time>
            </trkpt>
            <trkpt lon="101.531781" lat="12.978003">
                <ele>41.500000</ele>
                <time>2019-03-16T05:34:43Z</time>
            </trkpt>
            <trkpt lon="101.531814" lat="12.978017">
                <ele>41.400000</ele>
                <time>2019-03-16T05:34:44Z</time>
            </trkpt>
            <trkpt lon="101.531840" lat="12.978036">
                <ele>41.400000</ele>
                <time>2019-03-16T05:34:45Z</time>
            </trkpt>
            <trkpt lon="101.531865" lat="12.978056">
                <ele>41.300000</ele>
                <time>2019-03-16T05:34:46Z</time>
            </trkpt>
            <trkpt lon="101.531890" lat="12.978078">
                <ele>41.300000</ele>
                <time>2019-03-16T05:34:47Z</time>
            </trkpt>
            <trkpt lon="101.531912" lat="12.978104">
                <ele>41.800000</ele>
                <time>2019-03-16T05:34:48Z</time>
            </trkpt>
            <trkpt lon="101.531934" lat="12.978132">
                <ele>42.300000</ele>
                <time>2019-03-16T05:34:49Z</time>
            </trkpt>
            <trkpt lon="101.531959" lat="12.978157">
                <ele>42.400000</ele>
                <time>2019-03-16T05:34:50Z</time>
            </trkpt>
            <trkpt lon="101.531988" lat="12.978181">
                <ele>42.900000</ele>
                <time>2019-03-16T05:34:51Z</time>
            </trkpt>
            <trkpt lon="101.532016" lat="12.978205">
                <ele>43.100000</ele>
                <time>2019-03-16T05:34:52Z</time>
            </trkpt>
            <trkpt lon="101.532044" lat="12.978232">
                <ele>43.900000</ele>
                <time>2019-03-16T05:34:53Z</time>
            </trkpt>
            <trkpt lon="101.532074" lat="12.978257">
                <ele>44.500000</ele>
                <time>2019-03-16T05:34:54Z</time>
            </trkpt>
            <trkpt lon="101.532106" lat="12.978279">
                <ele>44.600000</ele>
                <time>2019-03-16T05:34:55Z</time>
            </trkpt>
            <trkpt lon="101.532137" lat="12.978301">
                <ele>45.400000</ele>
                <time>2019-03-16T05:34:56Z</time>
            </trkpt>
            <trkpt lon="101.532168" lat="12.978319">
                <ele>45.400000</ele>
                <time>2019-03-16T05:34:57Z</time>
            </trkpt>
            <trkpt lon="101.532200" lat="12.978335">
                <ele>45.700000</ele>
                <time>2019-03-16T05:34:58Z</time>
            </trkpt>
            <trkpt lon="101.532234" lat="12.978352">
                <ele>46.400000</ele>
                <time>2019-03-16T05:34:59Z</time>
            </trkpt>
            <trkpt lon="101.532268" lat="12.978365">
                <ele>46.700000</ele>
                <time>2019-03-16T05:35:00Z</time>
            </trkpt>
            <trkpt lon="101.532304" lat="12.978381">
                <ele>47.600000</ele>
                <time>2019-03-16T05:35:01Z</time>
            </trkpt>
            <trkpt lon="101.532338" lat="12.978394">
                <ele>47.600000</ele>
                <time>2019-03-16T05:35:02Z</time>
            </trkpt>
            <trkpt lon="101.532369" lat="12.978398">
                <ele>48.500000</ele>
                <time>2019-03-16T05:35:03Z</time>
            </trkpt>
            <trkpt lon="101.532402" lat="12.978398">
                <ele>49.500000</ele>
                <time>2019-03-16T05:35:04Z</time>
            </trkpt>
            <trkpt lon="101.532440" lat="12.978397">
                <ele>50.400000</ele>
                <time>2019-03-16T05:35:05Z</time>
            </trkpt>
            <trkpt lon="101.532474" lat="12.978395">
                <ele>51.200000</ele>
                <time>2019-03-16T05:35:06Z</time>
            </trkpt>
            <trkpt lon="101.532509" lat="12.978395">
                <ele>51.200000</ele>
                <time>2019-03-16T05:35:07Z</time>
            </trkpt>
            <trkpt lon="101.532548" lat="12.978391">
                <ele>51.700000</ele>
                <time>2019-03-16T05:35:08Z</time>
            </trkpt>
            <trkpt lon="101.532582" lat="12.978389">
                <ele>52.300000</ele>
                <time>2019-03-16T05:35:09Z</time>
            </trkpt>
            <trkpt lon="101.532620" lat="12.978387">
                <ele>52.800000</ele>
                <time>2019-03-16T05:35:10Z</time>
            </trkpt>
            <trkpt lon="101.532658" lat="12.978381">
                <ele>53.200000</ele>
                <time>2019-03-16T05:35:11Z</time>
            </trkpt>
            <trkpt lon="101.532695" lat="12.978374">
                <ele>53.200000</ele>
                <time>2019-03-16T05:35:12Z</time>
            </trkpt>
            <trkpt lon="101.532732" lat="12.978368">
                <ele>53.500000</ele>
                <time>2019-03-16T05:35:13Z</time>
            </trkpt>
            <trkpt lon="101.532786" lat="12.978366">
                <ele>53.700000</ele>
                <time>2019-03-16T05:35:15Z</time>
            </trkpt>
            <trkpt lon="101.532816" lat="12.978362">
                <ele>53.900000</ele>
                <time>2019-03-16T05:35:16Z</time>
            </trkpt>
            <trkpt lon="101.532853" lat="12.978354">
                <ele>53.900000</ele>
                <time>2019-03-16T05:35:17Z</time>
            </trkpt>
            <trkpt lon="101.532890" lat="12.978350">
                <ele>53.900000</ele>
                <time>2019-03-16T05:35:18Z</time>
            </trkpt>
            <trkpt lon="101.532939" lat="12.978347">
                <ele>53.900000</ele>
                <time>2019-03-16T05:35:20Z</time>
            </trkpt>
            <trkpt lon="101.532992" lat="12.978353">
                <ele>53.900000</ele>
                <time>2019-03-16T05:35:22Z</time>
            </trkpt>
            <trkpt lon="101.533019" lat="12.978360">
                <ele>53.900000</ele>
                <time>2019-03-16T05:35:23Z</time>
            </trkpt>
            <trkpt lon="101.533054" lat="12.978369">
                <ele>54.200000</ele>
                <time>2019-03-16T05:35:24Z</time>
            </trkpt>
            <trkpt lon="101.533085" lat="12.978376">
                <ele>54.400000</ele>
                <time>2019-03-16T05:35:25Z</time>
            </trkpt>
            <trkpt lon="101.533114" lat="12.978382">
                <ele>55.000000</ele>
                <time>2019-03-16T05:35:26Z</time>
            </trkpt>
            <trkpt lon="101.533152" lat="12.978395">
                <ele>55.000000</ele>
                <time>2019-03-16T05:35:27Z</time>
            </trkpt>
            <trkpt lon="101.533191" lat="12.978410">
                <ele>55.100000</ele>
                <time>2019-03-16T05:35:28Z</time>
            </trkpt>
            <trkpt lon="101.533221" lat="12.978422">
                <ele>55.100000</ele>
                <time>2019-03-16T05:35:29Z</time>
            </trkpt>
            <trkpt lon="101.533258" lat="12.978436">
                <ele>55.400000</ele>
                <time>2019-03-16T05:35:30Z</time>
            </trkpt>
            <trkpt lon="101.533297" lat="12.978447">
                <ele>55.400000</ele>
                <time>2019-03-16T05:35:31Z</time>
            </trkpt>
            <trkpt lon="101.533327" lat="12.978460">
                <ele>55.400000</ele>
                <time>2019-03-16T05:35:32Z</time>
            </trkpt>
            <trkpt lon="101.533358" lat="12.978471">
                <ele>55.700000</ele>
                <time>2019-03-16T05:35:33Z</time>
            </trkpt>
            <trkpt lon="101.533390" lat="12.978480">
                <ele>55.800000</ele>
                <time>2019-03-16T05:35:34Z</time>
            </trkpt>
            <trkpt lon="101.533422" lat="12.978490">
                <ele>55.800000</ele>
                <time>2019-03-16T05:35:35Z</time>
            </trkpt>
            <trkpt lon="101.533453" lat="12.978500">
                <ele>55.800000</ele>
                <time>2019-03-16T05:35:36Z</time>
            </trkpt>
            <trkpt lon="101.533502" lat="12.978520">
                <ele>56.100000</ele>
                <time>2019-03-16T05:35:38Z</time>
            </trkpt>
            <trkpt lon="101.533529" lat="12.978532">
                <ele>56.100000</ele>
                <time>2019-03-16T05:35:39Z</time>
            </trkpt>
            <trkpt lon="101.533558" lat="12.978546">
                <ele>56.300000</ele>
                <time>2019-03-16T05:35:40Z</time>
            </trkpt>
            <trkpt lon="101.533586" lat="12.978562">
                <ele>56.400000</ele>
                <time>2019-03-16T05:35:41Z</time>
            </trkpt>
            <trkpt lon="101.533620" lat="12.978581">
                <ele>56.400000</ele>
                <time>2019-03-16T05:35:42Z</time>
            </trkpt>
            <trkpt lon="101.533656" lat="12.978598">
                <ele>56.200000</ele>
                <time>2019-03-16T05:35:43Z</time>
            </trkpt>
            <trkpt lon="101.533685" lat="12.978614">
                <ele>56.200000</ele>
                <time>2019-03-16T05:35:44Z</time>
            </trkpt>
            <trkpt lon="101.533725" lat="12.978634">
                <ele>55.700000</ele>
                <time>2019-03-16T05:35:45Z</time>
            </trkpt>
            <trkpt lon="101.533759" lat="12.978653">
                <ele>55.600000</ele>
                <time>2019-03-16T05:35:46Z</time>
            </trkpt>
            <trkpt lon="101.533795" lat="12.978670">
                <ele>55.600000</ele>
                <time>2019-03-16T05:35:47Z</time>
            </trkpt>
            <trkpt lon="101.533830" lat="12.978687">
                <ele>55.200000</ele>
                <time>2019-03-16T05:35:48Z</time>
            </trkpt>
            <trkpt lon="101.533863" lat="12.978701">
                <ele>55.100000</ele>
                <time>2019-03-16T05:35:49Z</time>
            </trkpt>
            <trkpt lon="101.533897" lat="12.978718">
                <ele>54.800000</ele>
                <time>2019-03-16T05:35:50Z</time>
            </trkpt>
            <trkpt lon="101.533932" lat="12.978735">
                <ele>54.800000</ele>
                <time>2019-03-16T05:35:51Z</time>
            </trkpt>
            <trkpt lon="101.533967" lat="12.978748">
                <ele>54.800000</ele>
                <time>2019-03-16T05:35:52Z</time>
            </trkpt>
            <trkpt lon="101.533997" lat="12.978761">
                <ele>54.300000</ele>
                <time>2019-03-16T05:35:53Z</time>
            </trkpt>
            <trkpt lon="101.534024" lat="12.978775">
                <ele>54.200000</ele>
                <time>2019-03-16T05:35:54Z</time>
            </trkpt>
            <trkpt lon="101.534050" lat="12.978786">
                <ele>54.200000</ele>
                <time>2019-03-16T05:35:55Z</time>
            </trkpt>
            <trkpt lon="101.534102" lat="12.978807">
                <ele>53.600000</ele>
                <time>2019-03-16T05:35:57Z</time>
            </trkpt>
            <trkpt lon="101.534156" lat="12.978825">
                <ele>53.500000</ele>
                <time>2019-03-16T05:35:59Z</time>
            </trkpt>
            <trkpt lon="101.534181" lat="12.978837">
                <ele>53.500000</ele>
                <time>2019-03-16T05:36:00Z</time>
            </trkpt>
            <trkpt lon="101.534208" lat="12.978845">
                <ele>53.100000</ele>
                <time>2019-03-16T05:36:01Z</time>
            </trkpt>
            <trkpt lon="101.534262" lat="12.978862">
                <ele>53.100000</ele>
                <time>2019-03-16T05:36:03Z</time>
            </trkpt>
            <trkpt lon="101.534289" lat="12.978874">
                <ele>53.100000</ele>
                <time>2019-03-16T05:36:04Z</time>
            </trkpt>
            <trkpt lon="101.534318" lat="12.978883">
                <ele>53.000000</ele>
                <time>2019-03-16T05:36:05Z</time>
            </trkpt>
            <trkpt lon="101.534346" lat="12.978894">
                <ele>53.000000</ele>
                <time>2019-03-16T05:36:06Z</time>
            </trkpt>
            <trkpt lon="101.534395" lat="12.978908">
                <ele>53.000000</ele>
                <time>2019-03-16T05:36:08Z</time>
            </trkpt>
            <trkpt lon="101.534425" lat="12.978908">
                <ele>53.000000</ele>
                <time>2019-03-16T05:36:09Z</time>
            </trkpt>
            <trkpt lon="101.534458" lat="12.978905">
                <ele>53.000000</ele>
                <time>2019-03-16T05:36:10Z</time>
            </trkpt>
            <trkpt lon="101.534498" lat="12.978901">
                <ele>53.000000</ele>
                <time>2019-03-16T05:36:11Z</time>
            </trkpt>
            <trkpt lon="101.534536" lat="12.978894">
                <ele>53.100000</ele>
                <time>2019-03-16T05:36:12Z</time>
            </trkpt>
            <trkpt lon="101.534572" lat="12.978895">
                <ele>53.300000</ele>
                <time>2019-03-16T05:36:13Z</time>
            </trkpt>
            <trkpt lon="101.534601" lat="12.978900">
                <ele>53.300000</ele>
                <time>2019-03-16T05:36:14Z</time>
            </trkpt>
            <trkpt lon="101.534630" lat="12.978933">
                <ele>53.600000</ele>
                <time>2019-03-16T05:36:16Z</time>
            </trkpt>
            <trkpt lon="101.534662" lat="12.978970">
                <ele>53.800000</ele>
                <time>2019-03-16T05:36:18Z</time>
            </trkpt>
            <trkpt lon="101.534682" lat="12.978990">
                <ele>53.800000</ele>
                <time>2019-03-16T05:36:19Z</time>
            </trkpt>
            <trkpt lon="101.534711" lat="12.979034">
                <ele>54.100000</ele>
                <time>2019-03-16T05:36:21Z</time>
            </trkpt>
            <trkpt lon="101.534725" lat="12.979059">
                <ele>54.100000</ele>
                <time>2019-03-16T05:36:22Z</time>
            </trkpt>
            <trkpt lon="101.534741" lat="12.979081">
                <ele>54.100000</ele>
                <time>2019-03-16T05:36:23Z</time>
            </trkpt>
            <trkpt lon="101.534759" lat="12.979102">
                <ele>54.300000</ele>
                <time>2019-03-16T05:36:24Z</time>
            </trkpt>
            <trkpt lon="101.534776" lat="12.979124">
                <ele>54.300000</ele>
                <time>2019-03-16T05:36:25Z</time>
            </trkpt>
            <trkpt lon="101.534787" lat="12.979149">
                <ele>54.600000</ele>
                <time>2019-03-16T05:36:26Z</time>
            </trkpt>
            <trkpt lon="101.534805" lat="12.979197">
                <ele>54.600000</ele>
                <time>2019-03-16T05:36:28Z</time>
            </trkpt>
            <trkpt lon="101.534816" lat="12.979223">
                <ele>54.500000</ele>
                <time>2019-03-16T05:36:29Z</time>
            </trkpt>
            <trkpt lon="101.534837" lat="12.979267">
                <ele>54.800000</ele>
                <time>2019-03-16T05:36:31Z</time>
            </trkpt>
            <trkpt lon="101.534856" lat="12.979308">
                <ele>54.700000</ele>
                <time>2019-03-16T05:36:33Z</time>
            </trkpt>
            <trkpt lon="101.534869" lat="12.979356">
                <ele>54.700000</ele>
                <time>2019-03-16T05:36:35Z</time>
            </trkpt>
            <trkpt lon="101.534875" lat="12.979408">
                <ele>55.000000</ele>
                <time>2019-03-16T05:36:37Z</time>
            </trkpt>
            <trkpt lon="101.534885" lat="12.979461">
                <ele>54.800000</ele>
                <time>2019-03-16T05:36:39Z</time>
            </trkpt>
            <trkpt lon="101.534905" lat="12.979503">
                <ele>54.500000</ele>
                <time>2019-03-16T05:36:41Z</time>
            </trkpt>
            <trkpt lon="101.534913" lat="12.979530">
                <ele>54.300000</ele>
                <time>2019-03-16T05:36:42Z</time>
            </trkpt>
            <trkpt lon="101.534928" lat="12.979574">
                <ele>54.500000</ele>
                <time>2019-03-16T05:36:44Z</time>
            </trkpt>
            <trkpt lon="101.534944" lat="12.979611">
                <ele>54.000000</ele>
                <time>2019-03-16T05:36:46Z</time>
            </trkpt>
            <trkpt lon="101.534966" lat="12.979652">
                <ele>54.300000</ele>
                <time>2019-03-16T05:36:48Z</time>
            </trkpt>
            <trkpt lon="101.534986" lat="12.979691">
                <ele>53.900000</ele>
                <time>2019-03-16T05:36:50Z</time>
            </trkpt>
            <trkpt lon="101.534998" lat="12.979739">
                <ele>53.600000</ele>
                <time>2019-03-16T05:36:52Z</time>
            </trkpt>
            <trkpt lon="101.535011" lat="12.979781">
                <ele>53.900000</ele>
                <time>2019-03-16T05:36:54Z</time>
            </trkpt>
            <trkpt lon="101.535019" lat="12.979822">
                <ele>53.500000</ele>
                <time>2019-03-16T05:36:56Z</time>
            </trkpt>
            <trkpt lon="101.535033" lat="12.979861">
                <ele>53.100000</ele>
                <time>2019-03-16T05:36:58Z</time>
            </trkpt>
            <trkpt lon="101.535045" lat="12.979907">
                <ele>53.200000</ele>
                <time>2019-03-16T05:37:00Z</time>
            </trkpt>
            <trkpt lon="101.535061" lat="12.979942">
                <ele>53.400000</ele>
                <time>2019-03-16T05:37:02Z</time>
            </trkpt>
            <trkpt lon="101.535077" lat="12.979965">
                <ele>53.400000</ele>
                <time>2019-03-16T05:37:04Z</time>
            </trkpt>
            <trkpt lon="101.535100" lat="12.979980">
                <ele>54.000000</ele>
                <time>2019-03-16T05:37:05Z</time>
            </trkpt>
            <trkpt lon="101.535140" lat="12.980008">
                <ele>54.400000</ele>
                <time>2019-03-16T05:37:07Z</time>
            </trkpt>
            <trkpt lon="101.535184" lat="12.980020">
                <ele>54.800000</ele>
                <time>2019-03-16T05:37:09Z</time>
            </trkpt>
            <trkpt lon="101.535224" lat="12.980016">
                <ele>55.000000</ele>
                <time>2019-03-16T05:37:11Z</time>
            </trkpt>
            <trkpt lon="101.535273" lat="12.980009">
                <ele>55.000000</ele>
                <time>2019-03-16T05:37:13Z</time>
            </trkpt>
            <trkpt lon="101.535322" lat="12.980012">
                <ele>55.000000</ele>
                <time>2019-03-16T05:37:15Z</time>
            </trkpt>
            <trkpt lon="101.535371" lat="12.980026">
                <ele>55.000000</ele>
                <time>2019-03-16T05:37:17Z</time>
            </trkpt>
            <trkpt lon="101.535406" lat="12.980039">
                <ele>55.100000</ele>
                <time>2019-03-16T05:37:19Z</time>
            </trkpt>
            <trkpt lon="101.535435" lat="12.980056">
                <ele>55.400000</ele>
                <time>2019-03-16T05:37:21Z</time>
            </trkpt>
            <trkpt lon="101.535465" lat="12.980080">
                <ele>55.400000</ele>
                <time>2019-03-16T05:37:23Z</time>
            </trkpt>
            <trkpt lon="101.535465" lat="12.980113">
                <ele>55.700000</ele>
                <time>2019-03-16T05:37:25Z</time>
            </trkpt>
            <trkpt lon="101.535461" lat="12.980165">
                <ele>55.900000</ele>
                <time>2019-03-16T05:37:27Z</time>
            </trkpt>
            <trkpt lon="101.535460" lat="12.980197">
                <ele>56.200000</ele>
                <time>2019-03-16T05:37:28Z</time>
            </trkpt>
            <trkpt lon="101.535464" lat="12.980246">
                <ele>56.400000</ele>
                <time>2019-03-16T05:37:30Z</time>
            </trkpt>
            <trkpt lon="101.535471" lat="12.980296">
                <ele>56.800000</ele>
                <time>2019-03-16T05:37:32Z</time>
            </trkpt>
            <trkpt lon="101.535478" lat="12.980336">
                <ele>57.500000</ele>
                <time>2019-03-16T05:37:34Z</time>
            </trkpt>
            <trkpt lon="101.535489" lat="12.980374">
                <ele>57.900000</ele>
                <time>2019-03-16T05:37:36Z</time>
            </trkpt>
            <trkpt lon="101.535496" lat="12.980408">
                <ele>58.400000</ele>
                <time>2019-03-16T05:37:38Z</time>
            </trkpt>
            <trkpt lon="101.535508" lat="12.980437">
                <ele>59.100000</ele>
                <time>2019-03-16T05:37:40Z</time>
            </trkpt>
            <trkpt lon="101.535520" lat="12.980466">
                <ele>59.600000</ele>
                <time>2019-03-16T05:37:42Z</time>
            </trkpt>
            <trkpt lon="101.535536" lat="12.980500">
                <ele>60.400000</ele>
                <time>2019-03-16T05:37:45Z</time>
            </trkpt>
            <trkpt lon="101.535540" lat="12.980538">
                <ele>61.100000</ele>
                <time>2019-03-16T05:37:47Z</time>
            </trkpt>
            <trkpt lon="101.535551" lat="12.980581">
                <ele>61.700000</ele>
                <time>2019-03-16T05:37:49Z</time>
            </trkpt>
            <trkpt lon="101.535560" lat="12.980620">
                <ele>62.400000</ele>
                <time>2019-03-16T05:37:51Z</time>
            </trkpt>
            <trkpt lon="101.535570" lat="12.980668">
                <ele>62.700000</ele>
                <time>2019-03-16T05:37:53Z</time>
            </trkpt>
            <trkpt lon="101.535577" lat="12.980708">
                <ele>62.900000</ele>
                <time>2019-03-16T05:37:55Z</time>
            </trkpt>
            <trkpt lon="101.535595" lat="12.980737">
                <ele>63.200000</ele>
                <time>2019-03-16T05:37:57Z</time>
            </trkpt>
            <trkpt lon="101.535620" lat="12.980769">
                <ele>63.900000</ele>
                <time>2019-03-16T05:37:59Z</time>
            </trkpt>
            <trkpt lon="101.535653" lat="12.980794">
                <ele>64.700000</ele>
                <time>2019-03-16T05:38:01Z</time>
            </trkpt>
            <trkpt lon="101.535690" lat="12.980817">
                <ele>65.500000</ele>
                <time>2019-03-16T05:38:03Z</time>
            </trkpt>
            <trkpt lon="101.535722" lat="12.980840">
                <ele>65.500000</ele>
                <time>2019-03-16T05:38:05Z</time>
            </trkpt>
            <trkpt lon="101.535757" lat="12.980862">
                <ele>65.800000</ele>
                <time>2019-03-16T05:38:07Z</time>
            </trkpt>
            <trkpt lon="101.535804" lat="12.980871">
                <ele>65.800000</ele>
                <time>2019-03-16T05:38:09Z</time>
            </trkpt>
            <trkpt lon="101.535846" lat="12.980898">
                <ele>66.000000</ele>
                <time>2019-03-16T05:38:11Z</time>
            </trkpt>
            <trkpt lon="101.535886" lat="12.980925">
                <ele>66.000000</ele>
                <time>2019-03-16T05:38:13Z</time>
            </trkpt>
            <trkpt lon="101.535922" lat="12.980948">
                <ele>65.700000</ele>
                <time>2019-03-16T05:38:15Z</time>
            </trkpt>
            <trkpt lon="101.535959" lat="12.980968">
                <ele>65.400000</ele>
                <time>2019-03-16T05:38:17Z</time>
            </trkpt>
            <trkpt lon="101.536002" lat="12.980991">
                <ele>65.400000</ele>
                <time>2019-03-16T05:38:19Z</time>
            </trkpt>
            <trkpt lon="101.536045" lat="12.981011">
                <ele>65.200000</ele>
                <time>2019-03-16T05:38:21Z</time>
            </trkpt>
            <trkpt lon="101.536087" lat="12.981030">
                <ele>65.700000</ele>
                <time>2019-03-16T05:38:23Z</time>
            </trkpt>
            <trkpt lon="101.536141" lat="12.981053">
                <ele>65.700000</ele>
                <time>2019-03-16T05:38:25Z</time>
            </trkpt>
            <trkpt lon="101.536174" lat="12.981057">
                <ele>66.100000</ele>
                <time>2019-03-16T05:38:26Z</time>
            </trkpt>
            <trkpt lon="101.536203" lat="12.981063">
                <ele>66.100000</ele>
                <time>2019-03-16T05:38:27Z</time>
            </trkpt>
            <trkpt lon="101.536258" lat="12.981075">
                <ele>66.300000</ele>
                <time>2019-03-16T05:38:29Z</time>
            </trkpt>
            <trkpt lon="101.536289" lat="12.981081">
                <ele>66.500000</ele>
                <time>2019-03-16T05:38:30Z</time>
            </trkpt>
            <trkpt lon="101.536318" lat="12.981088">
                <ele>66.500000</ele>
                <time>2019-03-16T05:38:31Z</time>
            </trkpt>
            <trkpt lon="101.536348" lat="12.981096">
                <ele>66.700000</ele>
                <time>2019-03-16T05:38:32Z</time>
            </trkpt>
            <trkpt lon="101.536380" lat="12.981102">
                <ele>67.000000</ele>
                <time>2019-03-16T05:38:33Z</time>
            </trkpt>
            <trkpt lon="101.536411" lat="12.981107">
                <ele>67.000000</ele>
                <time>2019-03-16T05:38:34Z</time>
            </trkpt>
            <trkpt lon="101.536443" lat="12.981111">
                <ele>67.200000</ele>
                <time>2019-03-16T05:38:35Z</time>
            </trkpt>
            <trkpt lon="101.536490" lat="12.981122">
                <ele>67.400000</ele>
                <time>2019-03-16T05:38:37Z</time>
            </trkpt>
            <trkpt lon="101.536520" lat="12.981125">
                <ele>67.700000</ele>
                <time>2019-03-16T05:38:38Z</time>
            </trkpt>
            <trkpt lon="101.536549" lat="12.981129">
                <ele>67.900000</ele>
                <time>2019-03-16T05:38:39Z</time>
            </trkpt>
            <trkpt lon="101.536601" lat="12.981139">
                <ele>67.900000</ele>
                <time>2019-03-16T05:38:41Z</time>
            </trkpt>
            <trkpt lon="101.536650" lat="12.981147">
                <ele>67.800000</ele>
                <time>2019-03-16T05:38:43Z</time>
            </trkpt>
            <trkpt lon="101.536678" lat="12.981153">
                <ele>67.600000</ele>
                <time>2019-03-16T05:38:44Z</time>
            </trkpt>
            <trkpt lon="101.536731" lat="12.981165">
                <ele>67.500000</ele>
                <time>2019-03-16T05:38:46Z</time>
            </trkpt>
            <trkpt lon="101.536782" lat="12.981175">
                <ele>67.000000</ele>
                <time>2019-03-16T05:38:48Z</time>
            </trkpt>
            <trkpt lon="101.536837" lat="12.981186">
                <ele>66.000000</ele>
                <time>2019-03-16T05:38:50Z</time>
            </trkpt>
            <trkpt lon="101.536866" lat="12.981196">
                <ele>65.300000</ele>
                <time>2019-03-16T05:38:51Z</time>
            </trkpt>
            <trkpt lon="101.536920" lat="12.981216">
                <ele>64.500000</ele>
                <time>2019-03-16T05:38:53Z</time>
            </trkpt>
            <trkpt lon="101.536950" lat="12.981227">
                <ele>64.100000</ele>
                <time>2019-03-16T05:38:54Z</time>
            </trkpt>
            <trkpt lon="101.536977" lat="12.981241">
                <ele>64.000000</ele>
                <time>2019-03-16T05:38:55Z</time>
            </trkpt>
            <trkpt lon="101.537003" lat="12.981252">
                <ele>64.000000</ele>
                <time>2019-03-16T05:38:56Z</time>
            </trkpt>
            <trkpt lon="101.537033" lat="12.981262">
                <ele>64.000000</ele>
                <time>2019-03-16T05:38:57Z</time>
            </trkpt>
            <trkpt lon="101.537062" lat="12.981272">
                <ele>63.700000</ele>
                <time>2019-03-16T05:38:58Z</time>
            </trkpt>
            <trkpt lon="101.537095" lat="12.981283">
                <ele>63.700000</ele>
                <time>2019-03-16T05:38:59Z</time>
            </trkpt>
            <trkpt lon="101.537123" lat="12.981294">
                <ele>63.300000</ele>
                <time>2019-03-16T05:39:00Z</time>
            </trkpt>
            <trkpt lon="101.537167" lat="12.981327">
                <ele>62.600000</ele>
                <time>2019-03-16T05:39:02Z</time>
            </trkpt>
            <trkpt lon="101.537194" lat="12.981346">
                <ele>62.100000</ele>
                <time>2019-03-16T05:39:03Z</time>
            </trkpt>
            <trkpt lon="101.537226" lat="12.981370">
                <ele>61.800000</ele>
                <time>2019-03-16T05:39:04Z</time>
            </trkpt>
            <trkpt lon="101.537252" lat="12.981385">
                <ele>61.300000</ele>
                <time>2019-03-16T05:39:05Z</time>
            </trkpt>
            <trkpt lon="101.537279" lat="12.981409">
                <ele>60.900000</ele>
                <time>2019-03-16T05:39:06Z</time>
            </trkpt>
            <trkpt lon="101.537304" lat="12.981433">
                <ele>60.900000</ele>
                <time>2019-03-16T05:39:07Z</time>
            </trkpt>
            <trkpt lon="101.537326" lat="12.981458">
                <ele>61.100000</ele>
                <time>2019-03-16T05:39:08Z</time>
            </trkpt>
            <trkpt lon="101.537346" lat="12.981477">
                <ele>61.900000</ele>
                <time>2019-03-16T05:39:09Z</time>
            </trkpt>
            <trkpt lon="101.537371" lat="12.981495">
                <ele>61.400000</ele>
                <time>2019-03-16T05:39:10Z</time>
            </trkpt>
            <trkpt lon="101.537391" lat="12.981515">
                <ele>61.400000</ele>
                <time>2019-03-16T05:39:11Z</time>
            </trkpt>
            <trkpt lon="101.537421" lat="12.981536">
                <ele>61.600000</ele>
                <time>2019-03-16T05:39:13Z</time>
            </trkpt>
            <trkpt lon="101.537472" lat="12.981584">
                <ele>62.200000</ele>
                <time>2019-03-16T05:39:15Z</time>
            </trkpt>
            <trkpt lon="101.537513" lat="12.981631">
                <ele>62.800000</ele>
                <time>2019-03-16T05:39:17Z</time>
            </trkpt>
            <trkpt lon="101.537529" lat="12.981655">
                <ele>63.500000</ele>
                <time>2019-03-16T05:39:18Z</time>
            </trkpt>
            <trkpt lon="101.537561" lat="12.981685">
                <ele>63.900000</ele>
                <time>2019-03-16T05:39:20Z</time>
            </trkpt>
            <trkpt lon="101.537603" lat="12.981718">
                <ele>63.700000</ele>
                <time>2019-03-16T05:39:22Z</time>
            </trkpt>
            <trkpt lon="101.537629" lat="12.981758">
                <ele>63.700000</ele>
                <time>2019-03-16T05:39:24Z</time>
            </trkpt>
            <trkpt lon="101.537652" lat="12.981813">
                <ele>64.300000</ele>
                <time>2019-03-16T05:39:26Z</time>
            </trkpt>
            <trkpt lon="101.537672" lat="12.981860">
                <ele>64.300000</ele>
                <time>2019-03-16T05:39:28Z</time>
            </trkpt>
            <trkpt lon="101.537692" lat="12.981884">
                <ele>64.300000</ele>
                <time>2019-03-16T05:39:29Z</time>
            </trkpt>
            <trkpt lon="101.537708" lat="12.981908">
                <ele>64.400000</ele>
                <time>2019-03-16T05:39:30Z</time>
            </trkpt>
            <trkpt lon="101.537729" lat="12.981933">
                <ele>64.400000</ele>
                <time>2019-03-16T05:39:31Z</time>
            </trkpt>
            <trkpt lon="101.537751" lat="12.981957">
                <ele>64.400000</ele>
                <time>2019-03-16T05:39:32Z</time>
            </trkpt>
            <trkpt lon="101.537767" lat="12.981985">
                <ele>64.700000</ele>
                <time>2019-03-16T05:39:33Z</time>
            </trkpt>
            <trkpt lon="101.537786" lat="12.982008">
                <ele>64.700000</ele>
                <time>2019-03-16T05:39:34Z</time>
            </trkpt>
            <trkpt lon="101.537812" lat="12.982047">
                <ele>64.700000</ele>
                <time>2019-03-16T05:39:36Z</time>
            </trkpt>
            <trkpt lon="101.537843" lat="12.982087">
                <ele>64.700000</ele>
                <time>2019-03-16T05:39:38Z</time>
            </trkpt>
            <trkpt lon="101.537861" lat="12.982118">
                <ele>65.200000</ele>
                <time>2019-03-16T05:39:39Z</time>
            </trkpt>
            <trkpt lon="101.537874" lat="12.982144">
                <ele>65.200000</ele>
                <time>2019-03-16T05:39:40Z</time>
            </trkpt>
            <trkpt lon="101.537888" lat="12.982171">
                <ele>65.500000</ele>
                <time>2019-03-16T05:39:41Z</time>
            </trkpt>
            <trkpt lon="101.537918" lat="12.982210">
                <ele>66.000000</ele>
                <time>2019-03-16T05:39:43Z</time>
            </trkpt>
            <trkpt lon="101.537937" lat="12.982240">
                <ele>66.100000</ele>
                <time>2019-03-16T05:39:44Z</time>
            </trkpt>
            <trkpt lon="101.537970" lat="12.982288">
                <ele>66.100000</ele>
                <time>2019-03-16T05:39:46Z</time>
            </trkpt>
            <trkpt lon="101.537983" lat="12.982313">
                <ele>66.100000</ele>
                <time>2019-03-16T05:39:47Z</time>
            </trkpt>
            <trkpt lon="101.537999" lat="12.982362">
                <ele>66.000000</ele>
                <time>2019-03-16T05:39:49Z</time>
            </trkpt>
            <trkpt lon="101.538019" lat="12.982406">
                <ele>66.000000</ele>
                <time>2019-03-16T05:39:51Z</time>
            </trkpt>
            <trkpt lon="101.538039" lat="12.982439">
                <ele>66.200000</ele>
                <time>2019-03-16T05:39:53Z</time>
            </trkpt>
            <trkpt lon="101.538050" lat="12.982483">
                <ele>66.200000</ele>
                <time>2019-03-16T05:39:55Z</time>
            </trkpt>
            <trkpt lon="101.538062" lat="12.982526">
                <ele>66.300000</ele>
                <time>2019-03-16T05:39:57Z</time>
            </trkpt>
            <trkpt lon="101.538080" lat="12.982566">
                <ele>66.400000</ele>
                <time>2019-03-16T05:39:59Z</time>
            </trkpt>
            <trkpt lon="101.538113" lat="12.982598">
                <ele>66.200000</ele>
                <time>2019-03-16T05:40:01Z</time>
            </trkpt>
            <trkpt lon="101.538150" lat="12.982637">
                <ele>66.300000</ele>
                <time>2019-03-16T05:40:03Z</time>
            </trkpt>
            <trkpt lon="101.538170" lat="12.982658">
                <ele>66.600000</ele>
                <time>2019-03-16T05:40:04Z</time>
            </trkpt>
            <trkpt lon="101.538192" lat="12.982679">
                <ele>66.600000</ele>
                <time>2019-03-16T05:40:05Z</time>
            </trkpt>
            <trkpt lon="101.538214" lat="12.982702">
                <ele>66.800000</ele>
                <time>2019-03-16T05:40:06Z</time>
            </trkpt>
            <trkpt lon="101.538239" lat="12.982727">
                <ele>66.800000</ele>
                <time>2019-03-16T05:40:07Z</time>
            </trkpt>
            <trkpt lon="101.538266" lat="12.982753">
                <ele>67.100000</ele>
                <time>2019-03-16T05:40:08Z</time>
            </trkpt>
            <trkpt lon="101.538297" lat="12.982782">
                <ele>67.300000</ele>
                <time>2019-03-16T05:40:09Z</time>
            </trkpt>
            <trkpt lon="101.538332" lat="12.982813">
                <ele>67.400000</ele>
                <time>2019-03-16T05:40:10Z</time>
            </trkpt>
            <trkpt lon="101.538364" lat="12.982842">
                <ele>67.800000</ele>
                <time>2019-03-16T05:40:11Z</time>
            </trkpt>
            <trkpt lon="101.538403" lat="12.982864">
                <ele>68.300000</ele>
                <time>2019-03-16T05:40:12Z</time>
            </trkpt>
            <trkpt lon="101.538437" lat="12.982884">
                <ele>68.500000</ele>
                <time>2019-03-16T05:40:13Z</time>
            </trkpt>
            <trkpt lon="101.538480" lat="12.982917">
                <ele>69.200000</ele>
                <time>2019-03-16T05:40:15Z</time>
            </trkpt>
            <trkpt lon="101.538507" lat="12.982927">
                <ele>69.200000</ele>
                <time>2019-03-16T05:40:16Z</time>
            </trkpt>
            <trkpt lon="101.538559" lat="12.982946">
                <ele>69.900000</ele>
                <time>2019-03-16T05:40:18Z</time>
            </trkpt>
            <trkpt lon="101.538607" lat="12.982964">
                <ele>69.900000</ele>
                <time>2019-03-16T05:40:20Z</time>
            </trkpt>
            <trkpt lon="101.538653" lat="12.982989">
                <ele>70.500000</ele>
                <time>2019-03-16T05:40:22Z</time>
            </trkpt>
            <trkpt lon="101.538678" lat="12.983003">
                <ele>70.500000</ele>
                <time>2019-03-16T05:40:23Z</time>
            </trkpt>
            <trkpt lon="101.538716" lat="12.983026">
                <ele>70.800000</ele>
                <time>2019-03-16T05:40:25Z</time>
            </trkpt>
            <trkpt lon="101.538743" lat="12.983047">
                <ele>70.400000</ele>
                <time>2019-03-16T05:40:27Z</time>
            </trkpt>
            <trkpt lon="101.538775" lat="12.983061">
                <ele>70.400000</ele>
                <time>2019-03-16T05:40:29Z</time>
            </trkpt>
            <trkpt lon="101.538805" lat="12.983070">
                <ele>70.300000</ele>
                <time>2019-03-16T05:40:31Z</time>
            </trkpt>
            <trkpt lon="101.538821" lat="12.983108">
                <ele>70.600000</ele>
                <time>2019-03-16T05:40:34Z</time>
            </trkpt>
            <trkpt lon="101.538813" lat="12.983149">
                <ele>72.300000</ele>
                <time>2019-03-16T05:40:36Z</time>
            </trkpt>
            <trkpt lon="101.538810" lat="12.983189">
                <ele>72.300000</ele>
                <time>2019-03-16T05:40:38Z</time>
            </trkpt>
            <trkpt lon="101.538818" lat="12.983226">
                <ele>73.000000</ele>
                <time>2019-03-16T05:40:40Z</time>
            </trkpt>
            <trkpt lon="101.538823" lat="12.983261">
                <ele>73.300000</ele>
                <time>2019-03-16T05:40:42Z</time>
            </trkpt>
            <trkpt lon="101.538828" lat="12.983296">
                <ele>74.100000</ele>
                <time>2019-03-16T05:40:44Z</time>
            </trkpt>
            <trkpt lon="101.538843" lat="12.983328">
                <ele>74.900000</ele>
                <time>2019-03-16T05:40:46Z</time>
            </trkpt>
            <trkpt lon="101.538862" lat="12.983352">
                <ele>74.900000</ele>
                <time>2019-03-16T05:40:48Z</time>
            </trkpt>
            <trkpt lon="101.538883" lat="12.983382">
                <ele>75.400000</ele>
                <time>2019-03-16T05:40:50Z</time>
            </trkpt>
            <trkpt lon="101.538909" lat="12.983422">
                <ele>75.900000</ele>
                <time>2019-03-16T05:40:52Z</time>
            </trkpt>
            <trkpt lon="101.538933" lat="12.983466">
                <ele>76.600000</ele>
                <time>2019-03-16T05:40:54Z</time>
            </trkpt>
            <trkpt lon="101.538944" lat="12.983510">
                <ele>77.200000</ele>
                <time>2019-03-16T05:40:56Z</time>
            </trkpt>
            <trkpt lon="101.538947" lat="12.983540">
                <ele>77.900000</ele>
                <time>2019-03-16T05:40:57Z</time>
            </trkpt>
            <trkpt lon="101.538961" lat="12.983574">
                <ele>77.700000</ele>
                <time>2019-03-16T05:40:58Z</time>
            </trkpt>
            <trkpt lon="101.538966" lat="12.983610">
                <ele>78.200000</ele>
                <time>2019-03-16T05:40:59Z</time>
            </trkpt>
            <trkpt lon="101.538971" lat="12.983644">
                <ele>78.200000</ele>
                <time>2019-03-16T05:41:00Z</time>
            </trkpt>
            <trkpt lon="101.538975" lat="12.983682">
                <ele>78.700000</ele>
                <time>2019-03-16T05:41:01Z</time>
            </trkpt>
            <trkpt lon="101.538983" lat="12.983728">
                <ele>79.300000</ele>
                <time>2019-03-16T05:41:02Z</time>
            </trkpt>
            <trkpt lon="101.538993" lat="12.983764">
                <ele>78.400000</ele>
                <time>2019-03-16T05:41:03Z</time>
            </trkpt>
            <trkpt lon="101.539002" lat="12.983799">
                <ele>78.700000</ele>
                <time>2019-03-16T05:41:04Z</time>
            </trkpt>
            <trkpt lon="101.539018" lat="12.983841">
                <ele>78.900000</ele>
                <time>2019-03-16T05:41:05Z</time>
            </trkpt>
            <trkpt lon="101.539029" lat="12.983885">
                <ele>79.200000</ele>
                <time>2019-03-16T05:41:06Z</time>
            </trkpt>
            <trkpt lon="101.539049" lat="12.983928">
                <ele>78.100000</ele>
                <time>2019-03-16T05:41:07Z</time>
            </trkpt>
            <trkpt lon="101.539063" lat="12.983966">
                <ele>78.200000</ele>
                <time>2019-03-16T05:41:08Z</time>
            </trkpt>
            <trkpt lon="101.539075" lat="12.984002">
                <ele>78.300000</ele>
                <time>2019-03-16T05:41:09Z</time>
            </trkpt>
            <trkpt lon="101.539087" lat="12.984034">
                <ele>77.400000</ele>
                <time>2019-03-16T05:41:10Z</time>
            </trkpt>
            <trkpt lon="101.539111" lat="12.984077">
                <ele>77.700000</ele>
                <time>2019-03-16T05:41:11Z</time>
            </trkpt>
            <trkpt lon="101.539134" lat="12.984136">
                <ele>77.200000</ele>
                <time>2019-03-16T05:41:12Z</time>
            </trkpt>
            <trkpt lon="101.539169" lat="12.984210">
                <ele>77.400000</ele>
                <time>2019-03-16T05:41:13Z</time>
            </trkpt>
            <trkpt lon="101.539196" lat="12.984268">
                <ele>77.900000</ele>
                <time>2019-03-16T05:41:14Z</time>
            </trkpt>
            <trkpt lon="101.539204" lat="12.984306">
                <ele>78.400000</ele>
                <time>2019-03-16T05:41:15Z</time>
            </trkpt>
            <trkpt lon="101.539204" lat="12.984356">
                <ele>78.900000</ele>
                <time>2019-03-16T05:41:16Z</time>
            </trkpt>
            <trkpt lon="101.539195" lat="12.984394">
                <ele>79.400000</ele>
                <time>2019-03-16T05:41:18Z</time>
            </trkpt>
            <trkpt lon="101.539189" lat="12.984423">
                <ele>79.600000</ele>
                <time>2019-03-16T05:41:21Z</time>
            </trkpt>
            <trkpt lon="101.539179" lat="12.984454">
                <ele>79.600000</ele>
                <time>2019-03-16T05:41:33Z</time>
            </trkpt>
            <trkpt lon="101.539248" lat="12.984481">
                <ele>78.800000</ele>
                <time>2019-03-16T05:41:59Z</time>
            </trkpt>
            <trkpt lon="101.539276" lat="12.984518">
                <ele>78.100000</ele>
                <time>2019-03-16T05:42:01Z</time>
            </trkpt>
            <trkpt lon="101.539293" lat="12.984544">
                <ele>77.300000</ele>
                <time>2019-03-16T05:42:02Z</time>
            </trkpt>
            <trkpt lon="101.539308" lat="12.984570">
                <ele>77.300000</ele>
                <time>2019-03-16T05:42:03Z</time>
            </trkpt>
            <trkpt lon="101.539322" lat="12.984605">
                <ele>77.300000</ele>
                <time>2019-03-16T05:42:04Z</time>
            </trkpt>
            <trkpt lon="101.539334" lat="12.984649">
                <ele>77.300000</ele>
                <time>2019-03-16T05:42:05Z</time>
            </trkpt>
            <trkpt lon="101.539336" lat="12.984700">
                <ele>76.700000</ele>
                <time>2019-03-16T05:42:06Z</time>
            </trkpt>
            <trkpt lon="101.539327" lat="12.984746">
                <ele>77.300000</ele>
                <time>2019-03-16T05:42:07Z</time>
            </trkpt>
            <trkpt lon="101.539306" lat="12.984785">
                <ele>77.300000</ele>
                <time>2019-03-16T05:42:08Z</time>
            </trkpt>
            <trkpt lon="101.539275" lat="12.984815">
                <ele>78.100000</ele>
                <time>2019-03-16T05:42:09Z</time>
            </trkpt>
            <trkpt lon="101.539248" lat="12.984847">
                <ele>78.800000</ele>
                <time>2019-03-16T05:42:10Z</time>
            </trkpt>
            <trkpt lon="101.539223" lat="12.984888">
                <ele>78.800000</ele>
                <time>2019-03-16T05:42:11Z</time>
            </trkpt>
            <trkpt lon="101.539197" lat="12.984924">
                <ele>79.600000</ele>
                <time>2019-03-16T05:42:12Z</time>
            </trkpt>
            <trkpt lon="101.539174" lat="12.984958">
                <ele>79.600000</ele>
                <time>2019-03-16T05:42:13Z</time>
            </trkpt>
            <trkpt lon="101.539152" lat="12.984993">
                <ele>80.100000</ele>
                <time>2019-03-16T05:42:14Z</time>
            </trkpt>
            <trkpt lon="101.539118" lat="12.985031">
                <ele>80.400000</ele>
                <time>2019-03-16T05:42:15Z</time>
            </trkpt>
            <trkpt lon="101.539097" lat="12.985060">
                <ele>80.400000</ele>
                <time>2019-03-16T05:42:16Z</time>
            </trkpt>
            <trkpt lon="101.539076" lat="12.985087">
                <ele>80.400000</ele>
                <time>2019-03-16T05:42:17Z</time>
            </trkpt>
            <trkpt lon="101.539055" lat="12.985115">
                <ele>80.000000</ele>
                <time>2019-03-16T05:42:18Z</time>
            </trkpt>
            <trkpt lon="101.539034" lat="12.985140">
                <ele>80.400000</ele>
                <time>2019-03-16T05:42:19Z</time>
            </trkpt>
            <trkpt lon="101.539008" lat="12.985176">
                <ele>80.100000</ele>
                <time>2019-03-16T05:42:21Z</time>
            </trkpt>
            <trkpt lon="101.538988" lat="12.985200">
                <ele>80.300000</ele>
                <time>2019-03-16T05:42:23Z</time>
            </trkpt>
            <trkpt lon="101.538965" lat="12.985232">
                <ele>80.300000</ele>
                <time>2019-03-16T05:42:25Z</time>
            </trkpt>
            <trkpt lon="101.538944" lat="12.985251">
                <ele>80.500000</ele>
                <time>2019-03-16T05:42:26Z</time>
            </trkpt>
            <trkpt lon="101.538919" lat="12.985277">
                <ele>80.500000</ele>
                <time>2019-03-16T05:42:28Z</time>
            </trkpt>
            <trkpt lon="101.538892" lat="12.985304">
                <ele>80.800000</ele>
                <time>2019-03-16T05:42:30Z</time>
            </trkpt>
            <trkpt lon="101.538869" lat="12.985338">
                <ele>80.500000</ele>
                <time>2019-03-16T05:42:32Z</time>
            </trkpt>
            <trkpt lon="101.538846" lat="12.985369">
                <ele>80.800000</ele>
                <time>2019-03-16T05:42:33Z</time>
            </trkpt>
            <trkpt lon="101.538801" lat="12.985405">
                <ele>81.300000</ele>
                <time>2019-03-16T05:42:34Z</time>
            </trkpt>
            <trkpt lon="101.538786" lat="12.985434">
                <ele>81.200000</ele>
                <time>2019-03-16T05:42:36Z</time>
            </trkpt>
            <trkpt lon="101.538763" lat="12.985476">
                <ele>81.700000</ele>
                <time>2019-03-16T05:42:38Z</time>
            </trkpt>
            <trkpt lon="101.538743" lat="12.985496">
                <ele>81.700000</ele>
                <time>2019-03-16T05:42:39Z</time>
            </trkpt>
            <trkpt lon="101.538724" lat="12.985518">
                <ele>82.200000</ele>
                <time>2019-03-16T05:42:40Z</time>
            </trkpt>
            <trkpt lon="101.538707" lat="12.985544">
                <ele>82.200000</ele>
                <time>2019-03-16T05:42:41Z</time>
            </trkpt>
            <trkpt lon="101.538685" lat="12.985570">
                <ele>82.700000</ele>
                <time>2019-03-16T05:42:42Z</time>
            </trkpt>
            <trkpt lon="101.538657" lat="12.985608">
                <ele>82.500000</ele>
                <time>2019-03-16T05:42:43Z</time>
            </trkpt>
            <trkpt lon="101.538645" lat="12.985639">
                <ele>82.600000</ele>
                <time>2019-03-16T05:42:44Z</time>
            </trkpt>
            <trkpt lon="101.538625" lat="12.985660">
                <ele>82.300000</ele>
                <time>2019-03-16T05:42:45Z</time>
            </trkpt>
            <trkpt lon="101.538575" lat="12.985700">
                <ele>82.100000</ele>
                <time>2019-03-16T05:42:47Z</time>
            </trkpt>
            <trkpt lon="101.538551" lat="12.985742">
                <ele>81.800000</ele>
                <time>2019-03-16T05:42:49Z</time>
            </trkpt>
            <trkpt lon="101.538530" lat="12.985770">
                <ele>81.800000</ele>
                <time>2019-03-16T05:42:50Z</time>
            </trkpt>
            <trkpt lon="101.538501" lat="12.985807">
                <ele>81.500000</ele>
                <time>2019-03-16T05:42:52Z</time>
            </trkpt>
            <trkpt lon="101.538471" lat="12.985847">
                <ele>81.300000</ele>
                <time>2019-03-16T05:42:54Z</time>
            </trkpt>
            <trkpt lon="101.538425" lat="12.985902">
                <ele>81.100000</ele>
                <time>2019-03-16T05:42:56Z</time>
            </trkpt>
            <trkpt lon="101.538395" lat="12.985932">
                <ele>80.800000</ele>
                <time>2019-03-16T05:42:58Z</time>
            </trkpt>
            <trkpt lon="101.538371" lat="12.985964">
                <ele>80.600000</ele>
                <time>2019-03-16T05:42:59Z</time>
            </trkpt>
            <trkpt lon="101.538339" lat="12.985994">
                <ele>80.300000</ele>
                <time>2019-03-16T05:43:00Z</time>
            </trkpt>
            <trkpt lon="101.538324" lat="12.986025">
                <ele>80.300000</ele>
                <time>2019-03-16T05:43:01Z</time>
            </trkpt>
            <trkpt lon="101.538306" lat="12.986052">
                <ele>80.100000</ele>
                <time>2019-03-16T05:43:02Z</time>
            </trkpt>
            <trkpt lon="101.538279" lat="12.986075">
                <ele>80.000000</ele>
                <time>2019-03-16T05:43:03Z</time>
            </trkpt>
            <trkpt lon="101.538253" lat="12.986116">
                <ele>80.000000</ele>
                <time>2019-03-16T05:43:05Z</time>
            </trkpt>
            <trkpt lon="101.538172" lat="12.986160">
                <ele>79.500000</ele>
                <time>2019-03-16T05:43:06Z</time>
            </trkpt>
            <trkpt lon="101.538151" lat="12.986200">
                <ele>79.500000</ele>
                <time>2019-03-16T05:43:08Z</time>
            </trkpt>
            <trkpt lon="101.538116" lat="12.986244">
                <ele>78.800000</ele>
                <time>2019-03-16T05:43:10Z</time>
            </trkpt>
            <trkpt lon="101.538105" lat="12.986269">
                <ele>78.800000</ele>
                <time>2019-03-16T05:43:11Z</time>
            </trkpt>
            <trkpt lon="101.538090" lat="12.986297">
                <ele>78.300000</ele>
                <time>2019-03-16T05:43:12Z</time>
            </trkpt>
            <trkpt lon="101.538052" lat="12.986336">
                <ele>78.300000</ele>
                <time>2019-03-16T05:43:14Z</time>
            </trkpt>
            <trkpt lon="101.538014" lat="12.986378">
                <ele>77.800000</ele>
                <time>2019-03-16T05:43:16Z</time>
            </trkpt>
            <trkpt lon="101.537974" lat="12.986411">
                <ele>77.500000</ele>
                <time>2019-03-16T05:43:18Z</time>
            </trkpt>
            <trkpt lon="101.537953" lat="12.986432">
                <ele>77.200000</ele>
                <time>2019-03-16T05:43:19Z</time>
            </trkpt>
            <trkpt lon="101.537929" lat="12.986458">
                <ele>77.400000</ele>
                <time>2019-03-16T05:43:20Z</time>
            </trkpt>
            <trkpt lon="101.537897" lat="12.986501">
                <ele>77.700000</ele>
                <time>2019-03-16T05:43:22Z</time>
            </trkpt>
            <trkpt lon="101.537880" lat="12.986523">
                <ele>77.700000</ele>
                <time>2019-03-16T05:43:23Z</time>
            </trkpt>
            <trkpt lon="101.537851" lat="12.986552">
                <ele>77.900000</ele>
                <time>2019-03-16T05:43:24Z</time>
            </trkpt>
            <trkpt lon="101.537830" lat="12.986580">
                <ele>78.000000</ele>
                <time>2019-03-16T05:43:25Z</time>
            </trkpt>
            <trkpt lon="101.537793" lat="12.986623">
                <ele>78.100000</ele>
                <time>2019-03-16T05:43:27Z</time>
            </trkpt>
            <trkpt lon="101.537765" lat="12.986644">
                <ele>78.000000</ele>
                <time>2019-03-16T05:43:28Z</time>
            </trkpt>
            <trkpt lon="101.537725" lat="12.986665">
                <ele>78.200000</ele>
                <time>2019-03-16T05:43:29Z</time>
            </trkpt>
            <trkpt lon="101.537695" lat="12.986695">
                <ele>78.400000</ele>
                <time>2019-03-16T05:43:31Z</time>
            </trkpt>
            <trkpt lon="101.537655" lat="12.986737">
                <ele>78.800000</ele>
                <time>2019-03-16T05:43:33Z</time>
            </trkpt>
            <trkpt lon="101.537620" lat="12.986778">
                <ele>79.000000</ele>
                <time>2019-03-16T05:43:35Z</time>
            </trkpt>
            <trkpt lon="101.537587" lat="12.986801">
                <ele>79.600000</ele>
                <time>2019-03-16T05:43:36Z</time>
            </trkpt>
            <trkpt lon="101.537568" lat="12.986829">
                <ele>80.300000</ele>
                <time>2019-03-16T05:43:37Z</time>
            </trkpt>
            <trkpt lon="101.537529" lat="12.986876">
                <ele>81.100000</ele>
                <time>2019-03-16T05:43:39Z</time>
            </trkpt>
            <trkpt lon="101.537511" lat="12.986897">
                <ele>81.100000</ele>
                <time>2019-03-16T05:43:40Z</time>
            </trkpt>
            <trkpt lon="101.537477" lat="12.986935">
                <ele>81.700000</ele>
                <time>2019-03-16T05:43:42Z</time>
            </trkpt>
            <trkpt lon="101.537459" lat="12.986966">
                <ele>81.700000</ele>
                <time>2019-03-16T05:43:43Z</time>
            </trkpt>
            <trkpt lon="101.537418" lat="12.987008">
                <ele>82.200000</ele>
                <time>2019-03-16T05:43:44Z</time>
            </trkpt>
            <trkpt lon="101.537388" lat="12.987044">
                <ele>82.700000</ele>
                <time>2019-03-16T05:43:45Z</time>
            </trkpt>
            <trkpt lon="101.537375" lat="12.987069">
                <ele>82.700000</ele>
                <time>2019-03-16T05:43:46Z</time>
            </trkpt>
            <trkpt lon="101.537350" lat="12.987094">
                <ele>82.900000</ele>
                <time>2019-03-16T05:43:47Z</time>
            </trkpt>
            <trkpt lon="101.537332" lat="12.987122">
                <ele>82.400000</ele>
                <time>2019-03-16T05:43:48Z</time>
            </trkpt>
            <trkpt lon="101.537307" lat="12.987150">
                <ele>82.900000</ele>
                <time>2019-03-16T05:43:50Z</time>
            </trkpt>
            <trkpt lon="101.537278" lat="12.987177">
                <ele>82.400000</ele>
                <time>2019-03-16T05:43:52Z</time>
            </trkpt>
            <trkpt lon="101.537257" lat="12.987195">
                <ele>82.800000</ele>
                <time>2019-03-16T05:43:53Z</time>
            </trkpt>
            <trkpt lon="101.537235" lat="12.987221">
                <ele>82.300000</ele>
                <time>2019-03-16T05:43:54Z</time>
            </trkpt>
            <trkpt lon="101.537207" lat="12.987240">
                <ele>82.500000</ele>
                <time>2019-03-16T05:43:55Z</time>
            </trkpt>
            <trkpt lon="101.537175" lat="12.987261">
                <ele>82.400000</ele>
                <time>2019-03-16T05:43:56Z</time>
            </trkpt>
            <trkpt lon="101.537141" lat="12.987284">
                <ele>82.700000</ele>
                <time>2019-03-16T05:43:57Z</time>
            </trkpt>
            <trkpt lon="101.537116" lat="12.987308">
                <ele>82.400000</ele>
                <time>2019-03-16T05:43:58Z</time>
            </trkpt>
            <trkpt lon="101.537083" lat="12.987336">
                <ele>82.400000</ele>
                <time>2019-03-16T05:43:59Z</time>
            </trkpt>
            <trkpt lon="101.537054" lat="12.987367">
                <ele>82.600000</ele>
                <time>2019-03-16T05:44:00Z</time>
            </trkpt>
            <trkpt lon="101.537030" lat="12.987395">
                <ele>82.400000</ele>
                <time>2019-03-16T05:44:01Z</time>
            </trkpt>
            <trkpt lon="101.536997" lat="12.987424">
                <ele>82.600000</ele>
                <time>2019-03-16T05:44:02Z</time>
            </trkpt>
            <trkpt lon="101.536965" lat="12.987447">
                <ele>82.800000</ele>
                <time>2019-03-16T05:44:03Z</time>
            </trkpt>
            <trkpt lon="101.536941" lat="12.987462">
                <ele>82.800000</ele>
                <time>2019-03-16T05:44:04Z</time>
            </trkpt>
            <trkpt lon="101.536918" lat="12.987486">
                <ele>83.000000</ele>
                <time>2019-03-16T05:44:06Z</time>
            </trkpt>
            <trkpt lon="101.536892" lat="12.987522">
                <ele>83.000000</ele>
                <time>2019-03-16T05:44:08Z</time>
            </trkpt>
            <trkpt lon="101.536866" lat="12.987560">
                <ele>83.000000</ele>
                <time>2019-03-16T05:44:10Z</time>
            </trkpt>
            <trkpt lon="101.536837" lat="12.987596">
                <ele>83.100000</ele>
                <time>2019-03-16T05:44:12Z</time>
            </trkpt>
            <trkpt lon="101.536823" lat="12.987621">
                <ele>83.100000</ele>
                <time>2019-03-16T05:44:13Z</time>
            </trkpt>
            <trkpt lon="101.536803" lat="12.987651">
                <ele>83.400000</ele>
                <time>2019-03-16T05:44:14Z</time>
            </trkpt>
            <trkpt lon="101.536782" lat="12.987683">
                <ele>83.600000</ele>
                <time>2019-03-16T05:44:15Z</time>
            </trkpt>
            <trkpt lon="101.536751" lat="12.987727">
                <ele>83.900000</ele>
                <time>2019-03-16T05:44:17Z</time>
            </trkpt>
            <trkpt lon="101.536715" lat="12.987762">
                <ele>84.100000</ele>
                <time>2019-03-16T05:44:19Z</time>
            </trkpt>
            <trkpt lon="101.536689" lat="12.987792">
                <ele>84.400000</ele>
                <time>2019-03-16T05:44:20Z</time>
            </trkpt>
            <trkpt lon="101.536666" lat="12.987819">
                <ele>84.400000</ele>
                <time>2019-03-16T05:44:21Z</time>
            </trkpt>
            <trkpt lon="101.536638" lat="12.987851">
                <ele>84.600000</ele>
                <time>2019-03-16T05:44:22Z</time>
            </trkpt>
            <trkpt lon="101.536601" lat="12.987894">
                <ele>84.900000</ele>
                <time>2019-03-16T05:44:24Z</time>
            </trkpt>
            <trkpt lon="101.536578" lat="12.987923">
                <ele>85.100000</ele>
                <time>2019-03-16T05:44:25Z</time>
            </trkpt>
            <trkpt lon="101.536557" lat="12.987952">
                <ele>85.100000</ele>
                <time>2019-03-16T05:44:26Z</time>
            </trkpt>
            <trkpt lon="101.536536" lat="12.987975">
                <ele>85.300000</ele>
                <time>2019-03-16T05:44:27Z</time>
            </trkpt>
            <trkpt lon="101.536507" lat="12.988014">
                <ele>85.400000</ele>
                <time>2019-03-16T05:44:29Z</time>
            </trkpt>
            <trkpt lon="101.536475" lat="12.988053">
                <ele>85.400000</ele>
                <time>2019-03-16T05:44:31Z</time>
            </trkpt>
            <trkpt lon="101.536449" lat="12.988096">
                <ele>85.400000</ele>
                <time>2019-03-16T05:44:33Z</time>
            </trkpt>
            <trkpt lon="101.536425" lat="12.988129">
                <ele>85.800000</ele>
                <time>2019-03-16T05:44:35Z</time>
            </trkpt>
            <trkpt lon="101.536404" lat="12.988161">
                <ele>85.700000</ele>
                <time>2019-03-16T05:44:37Z</time>
            </trkpt>
            <trkpt lon="101.536383" lat="12.988182">
                <ele>86.200000</ele>
                <time>2019-03-16T05:44:38Z</time>
            </trkpt>
            <trkpt lon="101.536354" lat="12.988236">
                <ele>86.500000</ele>
                <time>2019-03-16T05:44:40Z</time>
            </trkpt>
            <trkpt lon="101.536336" lat="12.988264">
                <ele>86.700000</ele>
                <time>2019-03-16T05:44:41Z</time>
            </trkpt>
            <trkpt lon="101.536320" lat="12.988289">
                <ele>86.400000</ele>
                <time>2019-03-16T05:44:42Z</time>
            </trkpt>
            <trkpt lon="101.536307" lat="12.988316">
                <ele>86.400000</ele>
                <time>2019-03-16T05:44:44Z</time>
            </trkpt>
            <trkpt lon="101.536297" lat="12.988362">
                <ele>86.400000</ele>
                <time>2019-03-16T05:44:46Z</time>
            </trkpt>
            <trkpt lon="101.536294" lat="12.988389">
                <ele>86.400000</ele>
                <time>2019-03-16T05:44:47Z</time>
            </trkpt>
            <trkpt lon="101.536282" lat="12.988447">
                <ele>86.300000</ele>
                <time>2019-03-16T05:44:48Z</time>
            </trkpt>
            <trkpt lon="101.536273" lat="12.988479">
                <ele>86.500000</ele>
                <time>2019-03-16T05:44:49Z</time>
            </trkpt>
            <trkpt lon="101.536263" lat="12.988505">
                <ele>86.700000</ele>
                <time>2019-03-16T05:44:50Z</time>
            </trkpt>
            <trkpt lon="101.536255" lat="12.988538">
                <ele>86.700000</ele>
                <time>2019-03-16T05:44:51Z</time>
            </trkpt>
            <trkpt lon="101.536246" lat="12.988566">
                <ele>86.900000</ele>
                <time>2019-03-16T05:44:52Z</time>
            </trkpt>
            <trkpt lon="101.536235" lat="12.988595">
                <ele>86.800000</ele>
                <time>2019-03-16T05:44:53Z</time>
            </trkpt>
            <trkpt lon="101.536218" lat="12.988623">
                <ele>86.800000</ele>
                <time>2019-03-16T05:44:54Z</time>
            </trkpt>
            <trkpt lon="101.536204" lat="12.988647">
                <ele>86.600000</ele>
                <time>2019-03-16T05:44:55Z</time>
            </trkpt>
            <trkpt lon="101.536187" lat="12.988671">
                <ele>86.300000</ele>
                <time>2019-03-16T05:44:56Z</time>
            </trkpt>
            <trkpt lon="101.536169" lat="12.988701">
                <ele>86.300000</ele>
                <time>2019-03-16T05:44:57Z</time>
            </trkpt>
            <trkpt lon="101.536149" lat="12.988733">
                <ele>86.100000</ele>
                <time>2019-03-16T05:44:58Z</time>
            </trkpt>
            <trkpt lon="101.536132" lat="12.988762">
                <ele>85.900000</ele>
                <time>2019-03-16T05:44:59Z</time>
            </trkpt>
            <trkpt lon="101.536107" lat="12.988800">
                <ele>85.600000</ele>
                <time>2019-03-16T05:45:01Z</time>
            </trkpt>
            <trkpt lon="101.536081" lat="12.988840">
                <ele>85.400000</ele>
                <time>2019-03-16T05:45:03Z</time>
            </trkpt>
            <trkpt lon="101.536060" lat="12.988863">
                <ele>85.400000</ele>
                <time>2019-03-16T05:45:04Z</time>
            </trkpt>
            <trkpt lon="101.536039" lat="12.988904">
                <ele>85.200000</ele>
                <time>2019-03-16T05:45:06Z</time>
            </trkpt>
            <trkpt lon="101.536019" lat="12.988931">
                <ele>85.100000</ele>
                <time>2019-03-16T05:45:07Z</time>
            </trkpt>
            <trkpt lon="101.535998" lat="12.988966">
                <ele>84.700000</ele>
                <time>2019-03-16T05:45:08Z</time>
            </trkpt>
            <trkpt lon="101.535977" lat="12.989008">
                <ele>84.700000</ele>
                <time>2019-03-16T05:45:09Z</time>
            </trkpt>
            <trkpt lon="101.535949" lat="12.989044">
                <ele>84.700000</ele>
                <time>2019-03-16T05:45:10Z</time>
            </trkpt>
            <trkpt lon="101.535920" lat="12.989084">
                <ele>84.800000</ele>
                <time>2019-03-16T05:45:12Z</time>
            </trkpt>
            <trkpt lon="101.535901" lat="12.989109">
                <ele>84.900000</ele>
                <time>2019-03-16T05:45:13Z</time>
            </trkpt>
            <trkpt lon="101.535875" lat="12.989132">
                <ele>84.400000</ele>
                <time>2019-03-16T05:45:14Z</time>
            </trkpt>
            <trkpt lon="101.535848" lat="12.989172">
                <ele>84.700000</ele>
                <time>2019-03-16T05:45:16Z</time>
            </trkpt>
            <trkpt lon="101.535813" lat="12.989210">
                <ele>85.400000</ele>
                <time>2019-03-16T05:45:18Z</time>
            </trkpt>
            <trkpt lon="101.535782" lat="12.989251">
                <ele>84.900000</ele>
                <time>2019-03-16T05:45:20Z</time>
            </trkpt>
            <trkpt lon="101.535737" lat="12.989286">
                <ele>85.200000</ele>
                <time>2019-03-16T05:45:22Z</time>
            </trkpt>
            <trkpt lon="101.535708" lat="12.989322">
                <ele>85.400000</ele>
                <time>2019-03-16T05:45:23Z</time>
            </trkpt>
            <trkpt lon="101.535689" lat="12.989353">
                <ele>84.900000</ele>
                <time>2019-03-16T05:45:24Z</time>
            </trkpt>
            <trkpt lon="101.535662" lat="12.989364">
                <ele>85.700000</ele>
                <time>2019-03-16T05:45:25Z</time>
            </trkpt>
            <trkpt lon="101.535620" lat="12.989387">
                <ele>86.400000</ele>
                <time>2019-03-16T05:45:26Z</time>
            </trkpt>
            <trkpt lon="101.535551" lat="12.989419">
                <ele>87.700000</ele>
                <time>2019-03-16T05:45:27Z</time>
            </trkpt>
            <trkpt lon="101.535515" lat="12.989441">
                <ele>87.800000</ele>
                <time>2019-03-16T05:45:28Z</time>
            </trkpt>
            <trkpt lon="101.535489" lat="12.989456">
                <ele>87.800000</ele>
                <time>2019-03-16T05:45:29Z</time>
            </trkpt>
            <trkpt lon="101.535453" lat="12.989474">
                <ele>88.000000</ele>
                <time>2019-03-16T05:45:31Z</time>
            </trkpt>
            <trkpt lon="101.535435" lat="12.989497">
                <ele>88.000000</ele>
                <time>2019-03-16T05:45:33Z</time>
            </trkpt>
            <trkpt lon="101.535411" lat="12.989519">
                <ele>88.300000</ele>
                <time>2019-03-16T05:45:35Z</time>
            </trkpt>
            <trkpt lon="101.535378" lat="12.989548">
                <ele>88.500000</ele>
                <time>2019-03-16T05:45:37Z</time>
            </trkpt>
            <trkpt lon="101.535344" lat="12.989567">
                <ele>89.000000</ele>
                <time>2019-03-16T05:45:40Z</time>
            </trkpt>
            <trkpt lon="101.535323" lat="12.989588">
                <ele>88.700000</ele>
                <time>2019-03-16T05:45:42Z</time>
            </trkpt>
            <trkpt lon="101.535296" lat="12.989616">
                <ele>89.200000</ele>
                <time>2019-03-16T05:45:44Z</time>
            </trkpt>
            <trkpt lon="101.535253" lat="12.989656">
                <ele>89.200000</ele>
                <time>2019-03-16T05:45:47Z</time>
            </trkpt>
            <trkpt lon="101.535228" lat="12.989675">
                <ele>88.700000</ele>
                <time>2019-03-16T05:45:48Z</time>
            </trkpt>
            <trkpt lon="101.535197" lat="12.989700">
                <ele>88.800000</ele>
                <time>2019-03-16T05:45:49Z</time>
            </trkpt>
            <trkpt lon="101.535161" lat="12.989730">
                <ele>88.300000</ele>
                <time>2019-03-16T05:45:50Z</time>
            </trkpt>
            <trkpt lon="101.535134" lat="12.989755">
                <ele>87.600000</ele>
                <time>2019-03-16T05:45:51Z</time>
            </trkpt>
            <trkpt lon="101.535109" lat="12.989779">
                <ele>87.600000</ele>
                <time>2019-03-16T05:45:52Z</time>
            </trkpt>
            <trkpt lon="101.535083" lat="12.989804">
                <ele>86.600000</ele>
                <time>2019-03-16T05:45:53Z</time>
            </trkpt>
            <trkpt lon="101.535059" lat="12.989827">
                <ele>86.600000</ele>
                <time>2019-03-16T05:45:54Z</time>
            </trkpt>
            <trkpt lon="101.535033" lat="12.989873">
                <ele>85.500000</ele>
                <time>2019-03-16T05:45:56Z</time>
            </trkpt>
            <trkpt lon="101.535006" lat="12.989908">
                <ele>84.600000</ele>
                <time>2019-03-16T05:45:58Z</time>
            </trkpt>
            <trkpt lon="101.534984" lat="12.989931">
                <ele>83.800000</ele>
                <time>2019-03-16T05:46:00Z</time>
            </trkpt>
            <trkpt lon="101.534952" lat="12.989961">
                <ele>83.700000</ele>
                <time>2019-03-16T05:46:02Z</time>
            </trkpt>
            <trkpt lon="101.534924" lat="12.989982">
                <ele>83.100000</ele>
                <time>2019-03-16T05:46:04Z</time>
            </trkpt>
            <trkpt lon="101.534889" lat="12.990001">
                <ele>83.000000</ele>
                <time>2019-03-16T05:46:05Z</time>
            </trkpt>
            <trkpt lon="101.534841" lat="12.990024">
                <ele>82.500000</ele>
                <time>2019-03-16T05:46:07Z</time>
            </trkpt>
            <trkpt lon="101.534801" lat="12.990047">
                <ele>82.800000</ele>
                <time>2019-03-16T05:46:09Z</time>
            </trkpt>
            <trkpt lon="101.534755" lat="12.990068">
                <ele>82.200000</ele>
                <time>2019-03-16T05:46:11Z</time>
            </trkpt>
            <trkpt lon="101.534732" lat="12.990083">
                <ele>82.500000</ele>
                <time>2019-03-16T05:46:12Z</time>
            </trkpt>
            <trkpt lon="101.534691" lat="12.990102">
                <ele>81.900000</ele>
                <time>2019-03-16T05:46:14Z</time>
            </trkpt>
            <trkpt lon="101.534645" lat="12.990104">
                <ele>82.400000</ele>
                <time>2019-03-16T05:46:16Z</time>
            </trkpt>
            <trkpt lon="101.534602" lat="12.990115">
                <ele>82.900000</ele>
                <time>2019-03-16T05:46:18Z</time>
            </trkpt>
            <trkpt lon="101.534558" lat="12.990125">
                <ele>83.400000</ele>
                <time>2019-03-16T05:46:20Z</time>
            </trkpt>
            <trkpt lon="101.534515" lat="12.990130">
                <ele>83.800000</ele>
                <time>2019-03-16T05:46:22Z</time>
            </trkpt>
            <trkpt lon="101.534475" lat="12.990138">
                <ele>83.000000</ele>
                <time>2019-03-16T05:46:24Z</time>
            </trkpt>
            <trkpt lon="101.534437" lat="12.990148">
                <ele>83.400000</ele>
                <time>2019-03-16T05:46:26Z</time>
            </trkpt>
            <trkpt lon="101.534396" lat="12.990150">
                <ele>83.800000</ele>
                <time>2019-03-16T05:46:28Z</time>
            </trkpt>
            <trkpt lon="101.534354" lat="12.990152">
                <ele>83.800000</ele>
                <time>2019-03-16T05:46:30Z</time>
            </trkpt>
            <trkpt lon="101.534310" lat="12.990157">
                <ele>83.700000</ele>
                <time>2019-03-16T05:46:32Z</time>
            </trkpt>
            <trkpt lon="101.534271" lat="12.990166">
                <ele>83.700000</ele>
                <time>2019-03-16T05:46:34Z</time>
            </trkpt>
            <trkpt lon="101.534230" lat="12.990169">
                <ele>83.700000</ele>
                <time>2019-03-16T05:46:36Z</time>
            </trkpt>
            <trkpt lon="101.534193" lat="12.990178">
                <ele>81.800000</ele>
                <time>2019-03-16T05:46:38Z</time>
            </trkpt>
            <trkpt lon="101.534165" lat="12.990188">
                <ele>82.000000</ele>
                <time>2019-03-16T05:46:40Z</time>
            </trkpt>
            <trkpt lon="101.534134" lat="12.990197">
                <ele>82.300000</ele>
                <time>2019-03-16T05:46:42Z</time>
            </trkpt>
            <trkpt lon="101.534097" lat="12.990200">
                <ele>82.600000</ele>
                <time>2019-03-16T05:46:45Z</time>
            </trkpt>
            <trkpt lon="101.534064" lat="12.990192">
                <ele>82.600000</ele>
                <time>2019-03-16T05:46:47Z</time>
            </trkpt>
            <trkpt lon="101.534026" lat="12.990177">
                <ele>82.900000</ele>
                <time>2019-03-16T05:46:49Z</time>
            </trkpt>
            <trkpt lon="101.533974" lat="12.990151">
                <ele>84.400000</ele>
                <time>2019-03-16T05:46:51Z</time>
            </trkpt>
            <trkpt lon="101.533950" lat="12.990134">
                <ele>84.600000</ele>
                <time>2019-03-16T05:46:52Z</time>
            </trkpt>
            <trkpt lon="101.533923" lat="12.990117">
                <ele>85.600000</ele>
                <time>2019-03-16T05:46:53Z</time>
            </trkpt>
            <trkpt lon="101.533888" lat="12.990094">
                <ele>85.600000</ele>
                <time>2019-03-16T05:46:55Z</time>
            </trkpt>
            <trkpt lon="101.533851" lat="12.990077">
                <ele>86.600000</ele>
                <time>2019-03-16T05:46:57Z</time>
            </trkpt>
            <trkpt lon="101.533818" lat="12.990067">
                <ele>86.700000</ele>
                <time>2019-03-16T05:46:59Z</time>
            </trkpt>
            <trkpt lon="101.533785" lat="12.990041">
                <ele>87.900000</ele>
                <time>2019-03-16T05:47:01Z</time>
            </trkpt>
            <trkpt lon="101.533761" lat="12.990025">
                <ele>87.900000</ele>
                <time>2019-03-16T05:47:03Z</time>
            </trkpt>
            <trkpt lon="101.533724" lat="12.990008">
                <ele>88.000000</ele>
                <time>2019-03-16T05:47:06Z</time>
            </trkpt>
            <trkpt lon="101.533694" lat="12.989999">
                <ele>88.900000</ele>
                <time>2019-03-16T05:47:09Z</time>
            </trkpt>
            <trkpt lon="101.533663" lat="12.990000">
                <ele>89.400000</ele>
                <time>2019-03-16T05:47:11Z</time>
            </trkpt>
            <trkpt lon="101.533632" lat="12.990008">
                <ele>88.600000</ele>
                <time>2019-03-16T05:47:14Z</time>
            </trkpt>
            <trkpt lon="101.533600" lat="12.990032">
                <ele>89.300000</ele>
                <time>2019-03-16T05:47:17Z</time>
            </trkpt>
            <trkpt lon="101.533577" lat="12.990049">
                <ele>89.400000</ele>
                <time>2019-03-16T05:47:19Z</time>
            </trkpt>
            <trkpt lon="101.533548" lat="12.990074">
                <ele>89.400000</ele>
                <time>2019-03-16T05:47:22Z</time>
            </trkpt>
            <trkpt lon="101.533521" lat="12.990109">
                <ele>89.700000</ele>
                <time>2019-03-16T05:47:24Z</time>
            </trkpt>
            <trkpt lon="101.533491" lat="12.990156">
                <ele>90.300000</ele>
                <time>2019-03-16T05:47:26Z</time>
            </trkpt>
            <trkpt lon="101.533462" lat="12.990189">
                <ele>90.100000</ele>
                <time>2019-03-16T05:47:27Z</time>
            </trkpt>
            <trkpt lon="101.533446" lat="12.990216">
                <ele>90.800000</ele>
                <time>2019-03-16T05:47:28Z</time>
            </trkpt>
            <trkpt lon="101.533430" lat="12.990244">
                <ele>90.800000</ele>
                <time>2019-03-16T05:47:29Z</time>
            </trkpt>
            <trkpt lon="101.533436" lat="12.990298">
                <ele>90.700000</ele>
                <time>2019-03-16T05:47:31Z</time>
            </trkpt>
            <trkpt lon="101.533435" lat="12.990333">
                <ele>90.900000</ele>
                <time>2019-03-16T05:47:33Z</time>
            </trkpt>
            <trkpt lon="101.533406" lat="12.990379">
                <ele>91.900000</ele>
                <time>2019-03-16T05:48:31Z</time>
            </trkpt>
            <trkpt lon="101.533430" lat="12.990411">
                <ele>91.200000</ele>
                <time>2019-03-16T05:48:33Z</time>
            </trkpt>
            <trkpt lon="101.533460" lat="12.990440">
                <ele>90.600000</ele>
                <time>2019-03-16T05:48:35Z</time>
            </trkpt>
            <trkpt lon="101.533493" lat="12.990462">
                <ele>90.600000</ele>
                <time>2019-03-16T05:48:37Z</time>
            </trkpt>
            <trkpt lon="101.533521" lat="12.990467">
                <ele>90.000000</ele>
                <time>2019-03-16T05:48:39Z</time>
            </trkpt>
            <trkpt lon="101.533554" lat="12.990479">
                <ele>89.000000</ele>
                <time>2019-03-16T05:48:41Z</time>
            </trkpt>
            <trkpt lon="101.533585" lat="12.990484">
                <ele>88.000000</ele>
                <time>2019-03-16T05:48:44Z</time>
            </trkpt>
            <trkpt lon="101.533619" lat="12.990493">
                <ele>88.000000</ele>
                <time>2019-03-16T05:48:47Z</time>
            </trkpt>
            <trkpt lon="101.533645" lat="12.990507">
                <ele>87.000000</ele>
                <time>2019-03-16T05:48:51Z</time>
            </trkpt>
            <trkpt lon="101.533668" lat="12.990537">
                <ele>87.300000</ele>
                <time>2019-03-16T05:48:54Z</time>
            </trkpt>
            <trkpt lon="101.533698" lat="12.990551">
                <ele>86.600000</ele>
                <time>2019-03-16T05:48:58Z</time>
            </trkpt>
            <trkpt lon="101.533725" lat="12.990570">
                <ele>85.800000</ele>
                <time>2019-03-16T05:49:02Z</time>
            </trkpt>
            <trkpt lon="101.533738" lat="12.990594">
                <ele>86.300000</ele>
                <time>2019-03-16T05:49:05Z</time>
            </trkpt>
            <trkpt lon="101.533737" lat="12.990623">
                <ele>86.300000</ele>
                <time>2019-03-16T05:49:08Z</time>
            </trkpt>
            <trkpt lon="101.533740" lat="12.990663">
                <ele>87.000000</ele>
                <time>2019-03-16T05:49:11Z</time>
            </trkpt>
            <trkpt lon="101.533748" lat="12.990696">
                <ele>87.600000</ele>
                <time>2019-03-16T05:49:14Z</time>
            </trkpt>
            <trkpt lon="101.533747" lat="12.990729">
                <ele>88.300000</ele>
                <time>2019-03-16T05:49:17Z</time>
            </trkpt>
            <trkpt lon="101.533734" lat="12.990755">
                <ele>88.300000</ele>
                <time>2019-03-16T05:49:20Z</time>
            </trkpt>
            <trkpt lon="101.533727" lat="12.990787">
                <ele>88.900000</ele>
                <time>2019-03-16T05:49:23Z</time>
            </trkpt>
            <trkpt lon="101.533723" lat="12.990813">
                <ele>89.500000</ele>
                <time>2019-03-16T05:49:25Z</time>
            </trkpt>
            <trkpt lon="101.533727" lat="12.990841">
                <ele>89.500000</ele>
                <time>2019-03-16T05:49:28Z</time>
            </trkpt>
            <trkpt lon="101.533745" lat="12.990874">
                <ele>90.100000</ele>
                <time>2019-03-16T05:49:32Z</time>
            </trkpt>
            <trkpt lon="101.533750" lat="12.990901">
                <ele>90.700000</ele>
                <time>2019-03-16T05:49:35Z</time>
            </trkpt>
            <trkpt lon="101.533770" lat="12.990932">
                <ele>90.300000</ele>
                <time>2019-03-16T05:49:41Z</time>
            </trkpt>
            <trkpt lon="101.533799" lat="12.990965">
                <ele>90.300000</ele>
                <time>2019-03-16T05:49:44Z</time>
            </trkpt>
            <trkpt lon="101.533818" lat="12.990989">
                <ele>89.800000</ele>
                <time>2019-03-16T05:49:46Z</time>
            </trkpt>
            <trkpt lon="101.533840" lat="12.991014">
                <ele>90.000000</ele>
                <time>2019-03-16T05:49:48Z</time>
            </trkpt>
            <trkpt lon="101.533859" lat="12.991041">
                <ele>89.500000</ele>
                <time>2019-03-16T05:49:50Z</time>
            </trkpt>
            <trkpt lon="101.533881" lat="12.991070">
                <ele>89.800000</ele>
                <time>2019-03-16T05:49:52Z</time>
            </trkpt>
            <trkpt lon="101.533906" lat="12.991101">
                <ele>89.500000</ele>
                <time>2019-03-16T05:49:54Z</time>
            </trkpt>
            <trkpt lon="101.533933" lat="12.991121">
                <ele>89.300000</ele>
                <time>2019-03-16T05:49:56Z</time>
            </trkpt>
            <trkpt lon="101.533968" lat="12.991149">
                <ele>88.800000</ele>
                <time>2019-03-16T05:49:58Z</time>
            </trkpt>
            <trkpt lon="101.533994" lat="12.991181">
                <ele>88.000000</ele>
                <time>2019-03-16T05:50:00Z</time>
            </trkpt>
            <trkpt lon="101.534025" lat="12.991215">
                <ele>87.700000</ele>
                <time>2019-03-16T05:50:02Z</time>
            </trkpt>
            <trkpt lon="101.534043" lat="12.991249">
                <ele>87.300000</ele>
                <time>2019-03-16T05:50:04Z</time>
            </trkpt>
            <trkpt lon="101.534050" lat="12.991276">
                <ele>86.700000</ele>
                <time>2019-03-16T05:50:06Z</time>
            </trkpt>
            <trkpt lon="101.534064" lat="12.991312">
                <ele>85.900000</ele>
                <time>2019-03-16T05:50:09Z</time>
            </trkpt>
            <trkpt lon="101.534066" lat="12.991350">
                <ele>85.300000</ele>
                <time>2019-03-16T05:50:12Z</time>
            </trkpt>
            <trkpt lon="101.534079" lat="12.991385">
                <ele>85.300000</ele>
                <time>2019-03-16T05:50:14Z</time>
            </trkpt>
            <trkpt lon="101.534086" lat="12.991421">
                <ele>84.700000</ele>
                <time>2019-03-16T05:50:16Z</time>
            </trkpt>
            <trkpt lon="101.534092" lat="12.991467">
                <ele>84.200000</ele>
                <time>2019-03-16T05:50:18Z</time>
            </trkpt>
            <trkpt lon="101.534107" lat="12.991522">
                <ele>84.000000</ele>
                <time>2019-03-16T05:50:20Z</time>
            </trkpt>
            <trkpt lon="101.534127" lat="12.991547">
                <ele>84.000000</ele>
                <time>2019-03-16T05:50:21Z</time>
            </trkpt>
            <trkpt lon="101.534149" lat="12.991573">
                <ele>84.000000</ele>
                <time>2019-03-16T05:50:22Z</time>
            </trkpt>
            <trkpt lon="101.534165" lat="12.991597">
                <ele>83.900000</ele>
                <time>2019-03-16T05:50:23Z</time>
            </trkpt>
            <trkpt lon="101.534184" lat="12.991638">
                <ele>84.100000</ele>
                <time>2019-03-16T05:50:25Z</time>
            </trkpt>
            <trkpt lon="101.534188" lat="12.991672">
                <ele>84.300000</ele>
                <time>2019-03-16T05:50:26Z</time>
            </trkpt>
            <trkpt lon="101.534184" lat="12.991706">
                <ele>84.300000</ele>
                <time>2019-03-16T05:50:27Z</time>
            </trkpt>
            <trkpt lon="101.534186" lat="12.991737">
                <ele>84.800000</ele>
                <time>2019-03-16T05:50:28Z</time>
            </trkpt>
            <trkpt lon="101.534193" lat="12.991772">
                <ele>85.000000</ele>
                <time>2019-03-16T05:50:29Z</time>
            </trkpt>
            <trkpt lon="101.534202" lat="12.991804">
                <ele>85.200000</ele>
                <time>2019-03-16T05:50:30Z</time>
            </trkpt>
            <trkpt lon="101.534222" lat="12.991858">
                <ele>85.500000</ele>
                <time>2019-03-16T05:50:32Z</time>
            </trkpt>
            <trkpt lon="101.534243" lat="12.991899">
                <ele>85.300000</ele>
                <time>2019-03-16T05:50:34Z</time>
            </trkpt>
            <trkpt lon="101.534284" lat="12.991928">
                <ele>84.800000</ele>
                <time>2019-03-16T05:50:36Z</time>
            </trkpt>
            <trkpt lon="101.534313" lat="12.991943">
                <ele>84.900000</ele>
                <time>2019-03-16T05:50:37Z</time>
            </trkpt>
            <trkpt lon="101.534365" lat="12.991969">
                <ele>83.900000</ele>
                <time>2019-03-16T05:50:39Z</time>
            </trkpt>
            <trkpt lon="101.534399" lat="12.991981">
                <ele>83.900000</ele>
                <time>2019-03-16T05:50:40Z</time>
            </trkpt>
            <trkpt lon="101.534436" lat="12.991991">
                <ele>83.400000</ele>
                <time>2019-03-16T05:50:41Z</time>
            </trkpt>
            <trkpt lon="101.534470" lat="12.991995">
                <ele>82.900000</ele>
                <time>2019-03-16T05:50:42Z</time>
            </trkpt>
            <trkpt lon="101.534502" lat="12.992006">
                <ele>82.400000</ele>
                <time>2019-03-16T05:50:43Z</time>
            </trkpt>
            <trkpt lon="101.534533" lat="12.992023">
                <ele>81.900000</ele>
                <time>2019-03-16T05:50:44Z</time>
            </trkpt>
            <trkpt lon="101.534563" lat="12.992033">
                <ele>81.900000</ele>
                <time>2019-03-16T05:50:45Z</time>
            </trkpt>
            <trkpt lon="101.534598" lat="12.992038">
                <ele>81.700000</ele>
                <time>2019-03-16T05:50:46Z</time>
            </trkpt>
            <trkpt lon="101.534639" lat="12.992054">
                <ele>81.400000</ele>
                <time>2019-03-16T05:50:47Z</time>
            </trkpt>
            <trkpt lon="101.534677" lat="12.992073">
                <ele>81.200000</ele>
                <time>2019-03-16T05:50:48Z</time>
            </trkpt>
            <trkpt lon="101.534703" lat="12.992087">
                <ele>81.000000</ele>
                <time>2019-03-16T05:50:49Z</time>
            </trkpt>
            <trkpt lon="101.534741" lat="12.992108">
                <ele>80.900000</ele>
                <time>2019-03-16T05:50:50Z</time>
            </trkpt>
            <trkpt lon="101.534794" lat="12.992131">
                <ele>80.900000</ele>
                <time>2019-03-16T05:50:52Z</time>
            </trkpt>
            <trkpt lon="101.534823" lat="12.992142">
                <ele>80.700000</ele>
                <time>2019-03-16T05:50:53Z</time>
            </trkpt>
            <trkpt lon="101.534852" lat="12.992153">
                <ele>80.700000</ele>
                <time>2019-03-16T05:50:54Z</time>
            </trkpt>
            <trkpt lon="101.534885" lat="12.992163">
                <ele>80.700000</ele>
                <time>2019-03-16T05:50:55Z</time>
            </trkpt>
            <trkpt lon="101.534926" lat="12.992183">
                <ele>80.600000</ele>
                <time>2019-03-16T05:50:56Z</time>
            </trkpt>
            <trkpt lon="101.534958" lat="12.992197">
                <ele>80.800000</ele>
                <time>2019-03-16T05:50:57Z</time>
            </trkpt>
            <trkpt lon="101.534990" lat="12.992208">
                <ele>80.800000</ele>
                <time>2019-03-16T05:50:58Z</time>
            </trkpt>
            <trkpt lon="101.535027" lat="12.992212">
                <ele>80.900000</ele>
                <time>2019-03-16T05:50:59Z</time>
            </trkpt>
            <trkpt lon="101.535062" lat="12.992216">
                <ele>80.900000</ele>
                <time>2019-03-16T05:51:00Z</time>
            </trkpt>
            <trkpt lon="101.535103" lat="12.992224">
                <ele>80.600000</ele>
                <time>2019-03-16T05:51:01Z</time>
            </trkpt>
            <trkpt lon="101.535144" lat="12.992232">
                <ele>80.400000</ele>
                <time>2019-03-16T05:51:02Z</time>
            </trkpt>
            <trkpt lon="101.535179" lat="12.992246">
                <ele>80.100000</ele>
                <time>2019-03-16T05:51:03Z</time>
            </trkpt>
            <trkpt lon="101.535214" lat="12.992258">
                <ele>80.100000</ele>
                <time>2019-03-16T05:51:04Z</time>
            </trkpt>
            <trkpt lon="101.535249" lat="12.992262">
                <ele>79.700000</ele>
                <time>2019-03-16T05:51:05Z</time>
            </trkpt>
            <trkpt lon="101.535304" lat="12.992247">
                <ele>78.800000</ele>
                <time>2019-03-16T05:51:07Z</time>
            </trkpt>
            <trkpt lon="101.535337" lat="12.992241">
                <ele>78.800000</ele>
                <time>2019-03-16T05:51:08Z</time>
            </trkpt>
            <trkpt lon="101.535374" lat="12.992244">
                <ele>78.400000</ele>
                <time>2019-03-16T05:51:09Z</time>
            </trkpt>
            <trkpt lon="101.535409" lat="12.992243">
                <ele>77.900000</ele>
                <time>2019-03-16T05:51:10Z</time>
            </trkpt>
            <trkpt lon="101.535441" lat="12.992239">
                <ele>77.700000</ele>
                <time>2019-03-16T05:51:11Z</time>
            </trkpt>
            <trkpt lon="101.535472" lat="12.992245">
                <ele>77.700000</ele>
                <time>2019-03-16T05:51:12Z</time>
            </trkpt>
            <trkpt lon="101.535499" lat="12.992255">
                <ele>77.400000</ele>
                <time>2019-03-16T05:51:13Z</time>
            </trkpt>
            <trkpt lon="101.535527" lat="12.992262">
                <ele>77.100000</ele>
                <time>2019-03-16T05:51:14Z</time>
            </trkpt>
            <trkpt lon="101.535555" lat="12.992270">
                <ele>77.300000</ele>
                <time>2019-03-16T05:51:15Z</time>
            </trkpt>
            <trkpt lon="101.535604" lat="12.992291">
                <ele>76.500000</ele>
                <time>2019-03-16T05:51:17Z</time>
            </trkpt>
            <trkpt lon="101.535617" lat="12.992320">
                <ele>76.700000</ele>
                <time>2019-03-16T05:51:19Z</time>
            </trkpt>
            <trkpt lon="101.535601" lat="12.992347">
                <ele>77.200000</ele>
                <time>2019-03-16T05:51:22Z</time>
            </trkpt>
            <trkpt lon="101.535577" lat="12.992362">
                <ele>77.500000</ele>
                <time>2019-03-16T05:51:25Z</time>
            </trkpt>
            <trkpt lon="101.535542" lat="12.992374">
                <ele>77.900000</ele>
                <time>2019-03-16T05:51:27Z</time>
            </trkpt>
            <trkpt lon="101.535511" lat="12.992387">
                <ele>78.300000</ele>
                <time>2019-03-16T05:51:29Z</time>
            </trkpt>
            <trkpt lon="101.535480" lat="12.992399">
                <ele>78.600000</ele>
                <time>2019-03-16T05:51:31Z</time>
            </trkpt>
            <trkpt lon="101.535444" lat="12.992412">
                <ele>79.100000</ele>
                <time>2019-03-16T05:51:33Z</time>
            </trkpt>
            <trkpt lon="101.535412" lat="12.992421">
                <ele>79.600000</ele>
                <time>2019-03-16T05:51:35Z</time>
            </trkpt>
            <trkpt lon="101.535377" lat="12.992426">
                <ele>79.900000</ele>
                <time>2019-03-16T05:51:37Z</time>
            </trkpt>
            <trkpt lon="101.535329" lat="12.992432">
                <ele>80.500000</ele>
                <time>2019-03-16T05:51:39Z</time>
            </trkpt>
            <trkpt lon="101.535292" lat="12.992422">
                <ele>80.500000</ele>
                <time>2019-03-16T05:51:41Z</time>
            </trkpt>
            <trkpt lon="101.535257" lat="12.992432">
                <ele>81.000000</ele>
                <time>2019-03-16T05:51:43Z</time>
            </trkpt>
            <trkpt lon="101.535225" lat="12.992439">
                <ele>81.000000</ele>
                <time>2019-03-16T05:51:45Z</time>
            </trkpt>
            <trkpt lon="101.535187" lat="12.992443">
                <ele>81.000000</ele>
                <time>2019-03-16T05:51:47Z</time>
            </trkpt>
            <trkpt lon="101.535144" lat="12.992455">
                <ele>81.000000</ele>
                <time>2019-03-16T05:51:49Z</time>
            </trkpt>
            <trkpt lon="101.535099" lat="12.992468">
                <ele>81.000000</ele>
                <time>2019-03-16T05:51:51Z</time>
            </trkpt>
            <trkpt lon="101.535063" lat="12.992478">
                <ele>80.700000</ele>
                <time>2019-03-16T05:51:53Z</time>
            </trkpt>
            <trkpt lon="101.535033" lat="12.992488">
                <ele>80.300000</ele>
                <time>2019-03-16T05:51:55Z</time>
            </trkpt>
            <trkpt lon="101.534990" lat="12.992490">
                <ele>79.800000</ele>
                <time>2019-03-16T05:51:58Z</time>
            </trkpt>
            <trkpt lon="101.534938" lat="12.992492">
                <ele>79.300000</ele>
                <time>2019-03-16T05:52:00Z</time>
            </trkpt>
            <trkpt lon="101.534894" lat="12.992495">
                <ele>78.800000</ele>
                <time>2019-03-16T05:52:02Z</time>
            </trkpt>
            <trkpt lon="101.534859" lat="12.992495">
                <ele>78.400000</ele>
                <time>2019-03-16T05:52:04Z</time>
            </trkpt>
            <trkpt lon="101.534822" lat="12.992497">
                <ele>78.000000</ele>
                <time>2019-03-16T05:52:06Z</time>
            </trkpt>
            <trkpt lon="101.534780" lat="12.992497">
                <ele>77.500000</ele>
                <time>2019-03-16T05:52:09Z</time>
            </trkpt>
            <trkpt lon="101.534752" lat="12.992494">
                <ele>77.500000</ele>
                <time>2019-03-16T05:52:11Z</time>
            </trkpt>
            <trkpt lon="101.534720" lat="12.992495">
                <ele>77.100000</ele>
                <time>2019-03-16T05:52:13Z</time>
            </trkpt>
            <trkpt lon="101.534680" lat="12.992498">
                <ele>77.100000</ele>
                <time>2019-03-16T05:52:16Z</time>
            </trkpt>
            <trkpt lon="101.534641" lat="12.992505">
                <ele>77.300000</ele>
                <time>2019-03-16T05:52:19Z</time>
            </trkpt>
            <trkpt lon="101.534612" lat="12.992511">
                <ele>77.500000</ele>
                <time>2019-03-16T05:52:21Z</time>
            </trkpt>
            <trkpt lon="101.534580" lat="12.992517">
                <ele>77.300000</ele>
                <time>2019-03-16T05:52:23Z</time>
            </trkpt>
            <trkpt lon="101.534550" lat="12.992521">
                <ele>77.400000</ele>
                <time>2019-03-16T05:52:25Z</time>
            </trkpt>
            <trkpt lon="101.534519" lat="12.992522">
                <ele>77.700000</ele>
                <time>2019-03-16T05:52:28Z</time>
            </trkpt>
            <trkpt lon="101.534480" lat="12.992534">
                <ele>78.100000</ele>
                <time>2019-03-16T05:52:31Z</time>
            </trkpt>
            <trkpt lon="101.534451" lat="12.992529">
                <ele>78.100000</ele>
                <time>2019-03-16T05:52:33Z</time>
            </trkpt>
            <trkpt lon="101.534414" lat="12.992539">
                <ele>78.400000</ele>
                <time>2019-03-16T05:52:36Z</time>
            </trkpt>
            <trkpt lon="101.534377" lat="12.992551">
                <ele>78.800000</ele>
                <time>2019-03-16T05:52:38Z</time>
            </trkpt>
            <trkpt lon="101.534343" lat="12.992553">
                <ele>79.300000</ele>
                <time>2019-03-16T05:52:40Z</time>
            </trkpt>
            <trkpt lon="101.534314" lat="12.992551">
                <ele>79.900000</ele>
                <time>2019-03-16T05:52:42Z</time>
            </trkpt>
            <trkpt lon="101.534284" lat="12.992559">
                <ele>79.300000</ele>
                <time>2019-03-16T05:52:45Z</time>
            </trkpt>
            <trkpt lon="101.534247" lat="12.992562">
                <ele>79.900000</ele>
                <time>2019-03-16T05:53:39Z</time>
            </trkpt>
            <trkpt lon="101.534253" lat="12.992596">
                <ele>79.900000</ele>
                <time>2019-03-16T05:53:41Z</time>
            </trkpt>
            <trkpt lon="101.534258" lat="12.992637">
                <ele>79.300000</ele>
                <time>2019-03-16T05:53:43Z</time>
            </trkpt>
            <trkpt lon="101.534268" lat="12.992677">
                <ele>78.800000</ele>
                <time>2019-03-16T05:53:45Z</time>
            </trkpt>
            <trkpt lon="101.534283" lat="12.992722">
                <ele>78.200000</ele>
                <time>2019-03-16T05:53:47Z</time>
            </trkpt>
            <trkpt lon="101.534300" lat="12.992761">
                <ele>77.800000</ele>
                <time>2019-03-16T05:53:49Z</time>
            </trkpt>
            <trkpt lon="101.534309" lat="12.992797">
                <ele>77.400000</ele>
                <time>2019-03-16T05:53:51Z</time>
            </trkpt>
            <trkpt lon="101.534326" lat="12.992828">
                <ele>77.000000</ele>
                <time>2019-03-16T05:53:53Z</time>
            </trkpt>
            <trkpt lon="101.534345" lat="12.992862">
                <ele>76.700000</ele>
                <time>2019-03-16T05:53:55Z</time>
            </trkpt>
            <trkpt lon="101.534347" lat="12.992895">
                <ele>76.400000</ele>
                <time>2019-03-16T05:53:57Z</time>
            </trkpt>
            <trkpt lon="101.534338" lat="12.992932">
                <ele>76.500000</ele>
                <time>2019-03-16T05:54:00Z</time>
            </trkpt>
            <trkpt lon="101.534331" lat="12.992970">
                <ele>76.200000</ele>
                <time>2019-03-16T05:54:02Z</time>
            </trkpt>
            <trkpt lon="101.534340" lat="12.993016">
                <ele>76.000000</ele>
                <time>2019-03-16T05:54:04Z</time>
            </trkpt>
            <trkpt lon="101.534338" lat="12.993062">
                <ele>75.600000</ele>
                <time>2019-03-16T05:54:06Z</time>
            </trkpt>
            <trkpt lon="101.534337" lat="12.993115">
                <ele>75.500000</ele>
                <time>2019-03-16T05:54:08Z</time>
            </trkpt>
            <trkpt lon="101.534339" lat="12.993162">
                <ele>75.700000</ele>
                <time>2019-03-16T05:54:10Z</time>
            </trkpt>
            <trkpt lon="101.534356" lat="12.993205">
                <ele>76.000000</ele>
                <time>2019-03-16T05:54:12Z</time>
            </trkpt>
            <trkpt lon="101.534372" lat="12.993252">
                <ele>76.300000</ele>
                <time>2019-03-16T05:54:14Z</time>
            </trkpt>
            <trkpt lon="101.534390" lat="12.993285">
                <ele>76.500000</ele>
                <time>2019-03-16T05:54:16Z</time>
            </trkpt>
            <trkpt lon="101.534411" lat="12.993325">
                <ele>76.700000</ele>
                <time>2019-03-16T05:54:18Z</time>
            </trkpt>
            <trkpt lon="101.534417" lat="12.993352">
                <ele>76.800000</ele>
                <time>2019-03-16T05:54:19Z</time>
            </trkpt>
            <trkpt lon="101.534416" lat="12.993391">
                <ele>76.800000</ele>
                <time>2019-03-16T05:54:21Z</time>
            </trkpt>
            <trkpt lon="101.534411" lat="12.993432">
                <ele>77.000000</ele>
                <time>2019-03-16T05:54:23Z</time>
            </trkpt>
            <trkpt lon="101.534403" lat="12.993470">
                <ele>77.000000</ele>
                <time>2019-03-16T05:54:25Z</time>
            </trkpt>
            <trkpt lon="101.534398" lat="12.993507">
                <ele>76.800000</ele>
                <time>2019-03-16T05:54:27Z</time>
            </trkpt>
            <trkpt lon="101.534393" lat="12.993540">
                <ele>76.900000</ele>
                <time>2019-03-16T05:54:29Z</time>
            </trkpt>
            <trkpt lon="101.534384" lat="12.993568">
                <ele>76.900000</ele>
                <time>2019-03-16T05:54:32Z</time>
            </trkpt>
            <trkpt lon="101.534366" lat="12.993591">
                <ele>76.900000</ele>
                <time>2019-03-16T05:54:39Z</time>
            </trkpt>
            <trkpt lon="101.534360" lat="12.993619">
                <ele>77.000000</ele>
                <time>2019-03-16T05:54:44Z</time>
            </trkpt>
            <trkpt lon="101.534369" lat="12.993647">
                <ele>77.000000</ele>
                <time>2019-03-16T05:54:52Z</time>
            </trkpt>
            <trkpt lon="101.534376" lat="12.993675">
                <ele>77.100000</ele>
                <time>2019-03-16T05:54:56Z</time>
            </trkpt>
            <trkpt lon="101.534383" lat="12.993704">
                <ele>77.100000</ele>
                <time>2019-03-16T05:55:01Z</time>
            </trkpt>
            <trkpt lon="101.534387" lat="12.993736">
                <ele>77.100000</ele>
                <time>2019-03-16T05:55:05Z</time>
            </trkpt>
            <trkpt lon="101.534389" lat="12.993766">
                <ele>77.200000</ele>
                <time>2019-03-16T05:55:09Z</time>
            </trkpt>
            <trkpt lon="101.534392" lat="12.993795">
                <ele>77.100000</ele>
                <time>2019-03-16T05:55:12Z</time>
            </trkpt>
            <trkpt lon="101.534398" lat="12.993823">
                <ele>76.900000</ele>
                <time>2019-03-16T05:55:15Z</time>
            </trkpt>
            <trkpt lon="101.534403" lat="12.993850">
                <ele>77.300000</ele>
                <time>2019-03-16T05:55:17Z</time>
            </trkpt>
            <trkpt lon="101.534409" lat="12.993885">
                <ele>77.000000</ele>
                <time>2019-03-16T05:55:22Z</time>
            </trkpt>
            <trkpt lon="101.534417" lat="12.993949">
                <ele>76.700000</ele>
                <time>2019-03-16T05:56:43Z</time>
            </trkpt>
            <trkpt lon="101.534427" lat="12.993990">
                <ele>76.500000</ele>
                <time>2019-03-16T05:56:45Z</time>
            </trkpt>
            <trkpt lon="101.534435" lat="12.994037">
                <ele>76.200000</ele>
                <time>2019-03-16T05:56:47Z</time>
            </trkpt>
            <trkpt lon="101.534444" lat="12.994091">
                <ele>76.500000</ele>
                <time>2019-03-16T05:56:49Z</time>
            </trkpt>
            <trkpt lon="101.534449" lat="12.994120">
                <ele>76.500000</ele>
                <time>2019-03-16T05:56:50Z</time>
            </trkpt>
            <trkpt lon="101.534453" lat="12.994153">
                <ele>76.500000</ele>
                <time>2019-03-16T05:56:51Z</time>
            </trkpt>
            <trkpt lon="101.534459" lat="12.994181">
                <ele>76.600000</ele>
                <time>2019-03-16T05:56:52Z</time>
            </trkpt>
            <trkpt lon="101.534463" lat="12.994214">
                <ele>76.600000</ele>
                <time>2019-03-16T05:56:53Z</time>
            </trkpt>
            <trkpt lon="101.534465" lat="12.994241">
                <ele>76.600000</ele>
                <time>2019-03-16T05:56:54Z</time>
            </trkpt>
            <trkpt lon="101.534465" lat="12.994268">
                <ele>76.700000</ele>
                <time>2019-03-16T05:56:55Z</time>
            </trkpt>
            <trkpt lon="101.534471" lat="12.994317">
                <ele>76.000000</ele>
                <time>2019-03-16T05:56:57Z</time>
            </trkpt>
            <trkpt lon="101.534496" lat="12.994349">
                <ele>76.400000</ele>
                <time>2019-03-16T05:56:59Z</time>
            </trkpt>
            <trkpt lon="101.534535" lat="12.994352">
                <ele>76.800000</ele>
                <time>2019-03-16T05:57:01Z</time>
            </trkpt>
            <trkpt lon="101.534583" lat="12.994348">
                <ele>77.000000</ele>
                <time>2019-03-16T05:57:03Z</time>
            </trkpt>
            <trkpt lon="101.534632" lat="12.994343">
                <ele>77.200000</ele>
                <time>2019-03-16T05:57:05Z</time>
            </trkpt>
            <trkpt lon="101.534687" lat="12.994336">
                <ele>77.300000</ele>
                <time>2019-03-16T05:57:07Z</time>
            </trkpt>
            <trkpt lon="101.534718" lat="12.994333">
                <ele>77.400000</ele>
                <time>2019-03-16T05:57:08Z</time>
            </trkpt>
            <trkpt lon="101.534748" lat="12.994333">
                <ele>77.300000</ele>
                <time>2019-03-16T05:57:09Z</time>
            </trkpt>
            <trkpt lon="101.534782" lat="12.994333">
                <ele>77.300000</ele>
                <time>2019-03-16T05:57:10Z</time>
            </trkpt>
            <trkpt lon="101.534813" lat="12.994332">
                <ele>77.300000</ele>
                <time>2019-03-16T05:57:11Z</time>
            </trkpt>
            <trkpt lon="101.534844" lat="12.994332">
                <ele>77.100000</ele>
                <time>2019-03-16T05:57:12Z</time>
            </trkpt>
            <trkpt lon="101.534877" lat="12.994327">
                <ele>77.000000</ele>
                <time>2019-03-16T05:57:13Z</time>
            </trkpt>
            <trkpt lon="101.534912" lat="12.994325">
                <ele>77.100000</ele>
                <time>2019-03-16T05:57:14Z</time>
            </trkpt>
            <trkpt lon="101.534946" lat="12.994322">
                <ele>76.800000</ele>
                <time>2019-03-16T05:57:15Z</time>
            </trkpt>
            <trkpt lon="101.534985" lat="12.994321">
                <ele>76.600000</ele>
                <time>2019-03-16T05:57:16Z</time>
            </trkpt>
            <trkpt lon="101.535020" lat="12.994317">
                <ele>76.400000</ele>
                <time>2019-03-16T05:57:17Z</time>
            </trkpt>
            <trkpt lon="101.535058" lat="12.994315">
                <ele>76.100000</ele>
                <time>2019-03-16T05:57:18Z</time>
            </trkpt>
            <trkpt lon="101.535093" lat="12.994312">
                <ele>76.200000</ele>
                <time>2019-03-16T05:57:19Z</time>
            </trkpt>
            <trkpt lon="101.535132" lat="12.994309">
                <ele>75.800000</ele>
                <time>2019-03-16T05:57:20Z</time>
            </trkpt>
            <trkpt lon="101.535164" lat="12.994309">
                <ele>75.800000</ele>
                <time>2019-03-16T05:57:21Z</time>
            </trkpt>
            <trkpt lon="101.535199" lat="12.994308">
                <ele>75.400000</ele>
                <time>2019-03-16T05:57:22Z</time>
            </trkpt>
            <trkpt lon="101.535229" lat="12.994306">
                <ele>75.100000</ele>
                <time>2019-03-16T05:57:23Z</time>
            </trkpt>
            <trkpt lon="101.535260" lat="12.994304">
                <ele>75.100000</ele>
                <time>2019-03-16T05:57:24Z</time>
            </trkpt>
            <trkpt lon="101.535316" lat="12.994299">
                <ele>75.100000</ele>
                <time>2019-03-16T05:57:26Z</time>
            </trkpt>
            <trkpt lon="101.535368" lat="12.994294">
                <ele>75.200000</ele>
                <time>2019-03-16T05:57:28Z</time>
            </trkpt>
            <trkpt lon="101.535419" lat="12.994291">
                <ele>75.200000</ele>
                <time>2019-03-16T05:57:30Z</time>
            </trkpt>
            <trkpt lon="101.535474" lat="12.994289">
                <ele>75.200000</ele>
                <time>2019-03-16T05:57:32Z</time>
            </trkpt>
            <trkpt lon="101.535505" lat="12.994283">
                <ele>75.300000</ele>
                <time>2019-03-16T05:57:33Z</time>
            </trkpt>
            <trkpt lon="101.535537" lat="12.994280">
                <ele>75.300000</ele>
                <time>2019-03-16T05:57:34Z</time>
            </trkpt>
            <trkpt lon="101.535568" lat="12.994277">
                <ele>75.400000</ele>
                <time>2019-03-16T05:57:35Z</time>
            </trkpt>
            <trkpt lon="101.535603" lat="12.994277">
                <ele>75.100000</ele>
                <time>2019-03-16T05:57:36Z</time>
            </trkpt>
            <trkpt lon="101.535633" lat="12.994275">
                <ele>75.100000</ele>
                <time>2019-03-16T05:57:37Z</time>
            </trkpt>
            <trkpt lon="101.535666" lat="12.994273">
                <ele>74.800000</ele>
                <time>2019-03-16T05:57:38Z</time>
            </trkpt>
            <trkpt lon="101.535698" lat="12.994268">
                <ele>74.800000</ele>
                <time>2019-03-16T05:57:39Z</time>
            </trkpt>
            <trkpt lon="101.535732" lat="12.994270">
                <ele>74.600000</ele>
                <time>2019-03-16T05:57:40Z</time>
            </trkpt>
            <trkpt lon="101.535760" lat="12.994270">
                <ele>74.700000</ele>
                <time>2019-03-16T05:57:41Z</time>
            </trkpt>
            <trkpt lon="101.535790" lat="12.994273">
                <ele>74.200000</ele>
                <time>2019-03-16T05:57:42Z</time>
            </trkpt>
            <trkpt lon="101.535820" lat="12.994271">
                <ele>74.200000</ele>
                <time>2019-03-16T05:57:43Z</time>
            </trkpt>
            <trkpt lon="101.535853" lat="12.994271">
                <ele>74.300000</ele>
                <time>2019-03-16T05:57:44Z</time>
            </trkpt>
            <trkpt lon="101.535903" lat="12.994273">
                <ele>73.700000</ele>
                <time>2019-03-16T05:57:46Z</time>
            </trkpt>
            <trkpt lon="101.535951" lat="12.994274">
                <ele>73.600000</ele>
                <time>2019-03-16T05:57:48Z</time>
            </trkpt>
            <trkpt lon="101.536010" lat="12.994274">
                <ele>73.700000</ele>
                <time>2019-03-16T05:57:50Z</time>
            </trkpt>
            <trkpt lon="101.536046" lat="12.994273">
                <ele>73.600000</ele>
                <time>2019-03-16T05:57:51Z</time>
            </trkpt>
            <trkpt lon="101.536087" lat="12.994272">
                <ele>73.300000</ele>
                <time>2019-03-16T05:57:52Z</time>
            </trkpt>
            <trkpt lon="101.536126" lat="12.994270">
                <ele>73.300000</ele>
                <time>2019-03-16T05:57:53Z</time>
            </trkpt>
            <trkpt lon="101.536172" lat="12.994268">
                <ele>72.800000</ele>
                <time>2019-03-16T05:57:54Z</time>
            </trkpt>
            <trkpt lon="101.536215" lat="12.994265">
                <ele>72.300000</ele>
                <time>2019-03-16T05:57:55Z</time>
            </trkpt>
            <trkpt lon="101.536262" lat="12.994262">
                <ele>72.100000</ele>
                <time>2019-03-16T05:57:56Z</time>
            </trkpt>
            <trkpt lon="101.536311" lat="12.994259">
                <ele>71.800000</ele>
                <time>2019-03-16T05:57:57Z</time>
            </trkpt>
            <trkpt lon="101.536363" lat="12.994255">
                <ele>71.500000</ele>
                <time>2019-03-16T05:57:58Z</time>
            </trkpt>
            <trkpt lon="101.536412" lat="12.994251">
                <ele>71.300000</ele>
                <time>2019-03-16T05:57:59Z</time>
            </trkpt>
            <trkpt lon="101.536464" lat="12.994246">
                <ele>70.400000</ele>
                <time>2019-03-16T05:58:00Z</time>
            </trkpt>
            <trkpt lon="101.536518" lat="12.994241">
                <ele>69.900000</ele>
                <time>2019-03-16T05:58:01Z</time>
            </trkpt>
            <trkpt lon="101.536581" lat="12.994235">
                <ele>69.500000</ele>
                <time>2019-03-16T05:58:02Z</time>
            </trkpt>
            <trkpt lon="101.536648" lat="12.994227">
                <ele>69.400000</ele>
                <time>2019-03-16T05:58:03Z</time>
            </trkpt>
            <trkpt lon="101.536713" lat="12.994219">
                <ele>69.400000</ele>
                <time>2019-03-16T05:58:04Z</time>
            </trkpt>
            <trkpt lon="101.536778" lat="12.994211">
                <ele>69.400000</ele>
                <time>2019-03-16T05:58:05Z</time>
            </trkpt>
            <trkpt lon="101.536842" lat="12.994204">
                <ele>69.400000</ele>
                <time>2019-03-16T05:58:06Z</time>
            </trkpt>
            <trkpt lon="101.536908" lat="12.994196">
                <ele>69.400000</ele>
                <time>2019-03-16T05:58:07Z</time>
            </trkpt>
            <trkpt lon="101.536976" lat="12.994187">
                <ele>69.000000</ele>
                <time>2019-03-16T05:58:08Z</time>
            </trkpt>
            <trkpt lon="101.537045" lat="12.994177">
                <ele>68.700000</ele>
                <time>2019-03-16T05:58:09Z</time>
            </trkpt>
            <trkpt lon="101.537113" lat="12.994168">
                <ele>68.200000</ele>
                <time>2019-03-16T05:58:10Z</time>
            </trkpt>
            <trkpt lon="101.537182" lat="12.994158">
                <ele>67.800000</ele>
                <time>2019-03-16T05:58:11Z</time>
            </trkpt>
            <trkpt lon="101.537252" lat="12.994149">
                <ele>67.100000</ele>
                <time>2019-03-16T05:58:12Z</time>
            </trkpt>
            <trkpt lon="101.537324" lat="12.994139">
                <ele>66.800000</ele>
                <time>2019-03-16T05:58:13Z</time>
            </trkpt>
            <trkpt lon="101.537397" lat="12.994129">
                <ele>66.600000</ele>
                <time>2019-03-16T05:58:14Z</time>
            </trkpt>
            <trkpt lon="101.537473" lat="12.994119">
                <ele>66.200000</ele>
                <time>2019-03-16T05:58:15Z</time>
            </trkpt>
            <trkpt lon="101.537551" lat="12.994109">
                <ele>66.200000</ele>
                <time>2019-03-16T05:58:16Z</time>
            </trkpt>
            <trkpt lon="101.537628" lat="12.994100">
                <ele>66.500000</ele>
                <time>2019-03-16T05:58:17Z</time>
            </trkpt>
            <trkpt lon="101.537705" lat="12.994085">
                <ele>66.500000</ele>
                <time>2019-03-16T05:58:18Z</time>
            </trkpt>
            <trkpt lon="101.537781" lat="12.994072">
                <ele>66.500000</ele>
                <time>2019-03-16T05:58:19Z</time>
            </trkpt>
            <trkpt lon="101.537854" lat="12.994063">
                <ele>66.500000</ele>
                <time>2019-03-16T05:58:20Z</time>
            </trkpt>
            <trkpt lon="101.537924" lat="12.994058">
                <ele>66.700000</ele>
                <time>2019-03-16T05:58:21Z</time>
            </trkpt>
            <trkpt lon="101.537989" lat="12.994058">
                <ele>66.800000</ele>
                <time>2019-03-16T05:58:22Z</time>
            </trkpt>
            <trkpt lon="101.538048" lat="12.994062">
                <ele>66.900000</ele>
                <time>2019-03-16T05:58:23Z</time>
            </trkpt>
            <trkpt lon="101.538098" lat="12.994067">
                <ele>66.500000</ele>
                <time>2019-03-16T05:58:24Z</time>
            </trkpt>
            <trkpt lon="101.538153" lat="12.994073">
                <ele>66.400000</ele>
                <time>2019-03-16T05:58:25Z</time>
            </trkpt>
            <trkpt lon="101.538210" lat="12.994077">
                <ele>66.100000</ele>
                <time>2019-03-16T05:58:26Z</time>
            </trkpt>
            <trkpt lon="101.538269" lat="12.994078">
                <ele>65.700000</ele>
                <time>2019-03-16T05:58:27Z</time>
            </trkpt>
            <trkpt lon="101.538328" lat="12.994080">
                <ele>65.600000</ele>
                <time>2019-03-16T05:58:28Z</time>
            </trkpt>
            <trkpt lon="101.538387" lat="12.994086">
                <ele>65.600000</ele>
                <time>2019-03-16T05:58:29Z</time>
            </trkpt>
            <trkpt lon="101.538441" lat="12.994093">
                <ele>65.500000</ele>
                <time>2019-03-16T05:58:30Z</time>
            </trkpt>
            <trkpt lon="101.538487" lat="12.994097">
                <ele>65.500000</ele>
                <time>2019-03-16T05:58:31Z</time>
            </trkpt>
            <trkpt lon="101.538533" lat="12.994100">
                <ele>65.500000</ele>
                <time>2019-03-16T05:58:32Z</time>
            </trkpt>
            <trkpt lon="101.538575" lat="12.994108">
                <ele>65.200000</ele>
                <time>2019-03-16T05:58:33Z</time>
            </trkpt>
            <trkpt lon="101.538609" lat="12.994113">
                <ele>65.200000</ele>
                <time>2019-03-16T05:58:34Z</time>
            </trkpt>
            <trkpt lon="101.538644" lat="12.994118">
                <ele>65.200000</ele>
                <time>2019-03-16T05:58:35Z</time>
            </trkpt>
            <trkpt lon="101.538686" lat="12.994120">
                <ele>65.400000</ele>
                <time>2019-03-16T05:58:36Z</time>
            </trkpt>
            <trkpt lon="101.538724" lat="12.994123">
                <ele>65.600000</ele>
                <time>2019-03-16T05:58:37Z</time>
            </trkpt>
            <trkpt lon="101.538762" lat="12.994127">
                <ele>65.800000</ele>
                <time>2019-03-16T05:58:38Z</time>
            </trkpt>
            <trkpt lon="101.538801" lat="12.994128">
                <ele>66.000000</ele>
                <time>2019-03-16T05:58:39Z</time>
            </trkpt>
            <trkpt lon="101.538830" lat="12.994133">
                <ele>66.000000</ele>
                <time>2019-03-16T05:58:40Z</time>
            </trkpt>
            <trkpt lon="101.538859" lat="12.994136">
                <ele>66.000000</ele>
                <time>2019-03-16T05:58:41Z</time>
            </trkpt>
            <trkpt lon="101.538890" lat="12.994139">
                <ele>66.000000</ele>
                <time>2019-03-16T05:58:42Z</time>
            </trkpt>
            <trkpt lon="101.538923" lat="12.994142">
                <ele>66.000000</ele>
                <time>2019-03-16T05:58:43Z</time>
            </trkpt>
            <trkpt lon="101.538962" lat="12.994144">
                <ele>66.000000</ele>
                <time>2019-03-16T05:58:44Z</time>
            </trkpt>
            <trkpt lon="101.538998" lat="12.994143">
                <ele>66.200000</ele>
                <time>2019-03-16T05:58:45Z</time>
            </trkpt>
            <trkpt lon="101.539040" lat="12.994142">
                <ele>66.400000</ele>
                <time>2019-03-16T05:58:46Z</time>
            </trkpt>
            <trkpt lon="101.539082" lat="12.994138">
                <ele>66.700000</ele>
                <time>2019-03-16T05:58:47Z</time>
            </trkpt>
            <trkpt lon="101.539123" lat="12.994136">
                <ele>66.900000</ele>
                <time>2019-03-16T05:58:48Z</time>
            </trkpt>
            <trkpt lon="101.539158" lat="12.994134">
                <ele>66.900000</ele>
                <time>2019-03-16T05:58:49Z</time>
            </trkpt>
            <trkpt lon="101.539192" lat="12.994134">
                <ele>67.300000</ele>
                <time>2019-03-16T05:58:50Z</time>
            </trkpt>
            <trkpt lon="101.539232" lat="12.994138">
                <ele>67.800000</ele>
                <time>2019-03-16T05:58:51Z</time>
            </trkpt>
            <trkpt lon="101.539269" lat="12.994141">
                <ele>68.300000</ele>
                <time>2019-03-16T05:58:52Z</time>
            </trkpt>
            <trkpt lon="101.539306" lat="12.994142">
                <ele>68.800000</ele>
                <time>2019-03-16T05:58:53Z</time>
            </trkpt>
            <trkpt lon="101.539343" lat="12.994143">
                <ele>69.200000</ele>
                <time>2019-03-16T05:58:54Z</time>
            </trkpt>
            <trkpt lon="101.539373" lat="12.994142">
                <ele>69.200000</ele>
                <time>2019-03-16T05:58:55Z</time>
            </trkpt>
            <trkpt lon="101.539431" lat="12.994139">
                <ele>69.700000</ele>
                <time>2019-03-16T05:58:57Z</time>
            </trkpt>
            <trkpt lon="101.539464" lat="12.994143">
                <ele>69.900000</ele>
                <time>2019-03-16T05:58:58Z</time>
            </trkpt>
            <trkpt lon="101.539524" lat="12.994148">
                <ele>69.500000</ele>
                <time>2019-03-16T05:59:00Z</time>
            </trkpt>
            <trkpt lon="101.539593" lat="12.994155">
                <ele>69.500000</ele>
                <time>2019-03-16T05:59:02Z</time>
            </trkpt>
            <trkpt lon="101.539631" lat="12.994156">
                <ele>69.500000</ele>
                <time>2019-03-16T05:59:03Z</time>
            </trkpt>
            <trkpt lon="101.539665" lat="12.994156">
                <ele>69.400000</ele>
                <time>2019-03-16T05:59:04Z</time>
            </trkpt>
            <trkpt lon="101.539698" lat="12.994156">
                <ele>69.400000</ele>
                <time>2019-03-16T05:59:05Z</time>
            </trkpt>
            <trkpt lon="101.539733" lat="12.994158">
                <ele>69.200000</ele>
                <time>2019-03-16T05:59:06Z</time>
            </trkpt>
            <trkpt lon="101.539768" lat="12.994162">
                <ele>69.100000</ele>
                <time>2019-03-16T05:59:07Z</time>
            </trkpt>
            <trkpt lon="101.539803" lat="12.994165">
                <ele>69.100000</ele>
                <time>2019-03-16T05:59:08Z</time>
            </trkpt>
            <trkpt lon="101.539836" lat="12.994167">
                <ele>69.000000</ele>
                <time>2019-03-16T05:59:09Z</time>
            </trkpt>
            <trkpt lon="101.539875" lat="12.994162">
                <ele>68.900000</ele>
                <time>2019-03-16T05:59:10Z</time>
            </trkpt>
            <trkpt lon="101.539912" lat="12.994152">
                <ele>68.800000</ele>
                <time>2019-03-16T05:59:11Z</time>
            </trkpt>
            <trkpt lon="101.539973" lat="12.994143">
                <ele>68.700000</ele>
                <time>2019-03-16T05:59:13Z</time>
            </trkpt>
            <trkpt lon="101.540008" lat="12.994140">
                <ele>68.500000</ele>
                <time>2019-03-16T05:59:14Z</time>
            </trkpt>
            <trkpt lon="101.540039" lat="12.994140">
                <ele>68.300000</ele>
                <time>2019-03-16T05:59:15Z</time>
            </trkpt>
            <trkpt lon="101.540067" lat="12.994141">
                <ele>68.000000</ele>
                <time>2019-03-16T05:59:16Z</time>
            </trkpt>
            <trkpt lon="101.540099" lat="12.994143">
                <ele>68.000000</ele>
                <time>2019-03-16T05:59:17Z</time>
            </trkpt>
            <trkpt lon="101.540128" lat="12.994144">
                <ele>67.800000</ele>
                <time>2019-03-16T05:59:18Z</time>
            </trkpt>
            <trkpt lon="101.540166" lat="12.994143">
                <ele>67.500000</ele>
                <time>2019-03-16T05:59:19Z</time>
            </trkpt>
            <trkpt lon="101.540200" lat="12.994143">
                <ele>67.500000</ele>
                <time>2019-03-16T05:59:20Z</time>
            </trkpt>
            <trkpt lon="101.540256" lat="12.994141">
                <ele>67.500000</ele>
                <time>2019-03-16T05:59:21Z</time>
            </trkpt>
            <trkpt lon="101.540293" lat="12.994142">
                <ele>67.500000</ele>
                <time>2019-03-16T05:59:22Z</time>
            </trkpt>
            <trkpt lon="101.540357" lat="12.994140">
                <ele>67.600000</ele>
                <time>2019-03-16T05:59:23Z</time>
            </trkpt>
            <trkpt lon="101.540405" lat="12.994139">
                <ele>67.700000</ele>
                <time>2019-03-16T05:59:24Z</time>
            </trkpt>
            <trkpt lon="101.540449" lat="12.994138">
                <ele>67.900000</ele>
                <time>2019-03-16T05:59:25Z</time>
            </trkpt>
            <trkpt lon="101.540479" lat="12.994140">
                <ele>68.100000</ele>
                <time>2019-03-16T05:59:26Z</time>
            </trkpt>
            <trkpt lon="101.540509" lat="12.994144">
                <ele>68.300000</ele>
                <time>2019-03-16T05:59:27Z</time>
            </trkpt>
            <trkpt lon="101.540543" lat="12.994146">
                <ele>68.400000</ele>
                <time>2019-03-16T05:59:28Z</time>
            </trkpt>
            <trkpt lon="101.540596" lat="12.994143">
                <ele>68.400000</ele>
                <time>2019-03-16T05:59:29Z</time>
            </trkpt>
            <trkpt lon="101.540653" lat="12.994144">
                <ele>68.400000</ele>
                <time>2019-03-16T05:59:30Z</time>
            </trkpt>
            <trkpt lon="101.540716" lat="12.994145">
                <ele>68.400000</ele>
                <time>2019-03-16T05:59:31Z</time>
            </trkpt>
            <trkpt lon="101.540776" lat="12.994144">
                <ele>68.400000</ele>
                <time>2019-03-16T05:59:32Z</time>
            </trkpt>
            <trkpt lon="101.540833" lat="12.994143">
                <ele>68.400000</ele>
                <time>2019-03-16T05:59:33Z</time>
            </trkpt>
            <trkpt lon="101.540888" lat="12.994148">
                <ele>68.400000</ele>
                <time>2019-03-16T05:59:34Z</time>
            </trkpt>
            <trkpt lon="101.540945" lat="12.994153">
                <ele>68.200000</ele>
                <time>2019-03-16T05:59:35Z</time>
            </trkpt>
            <trkpt lon="101.541012" lat="12.994155">
                <ele>67.900000</ele>
                <time>2019-03-16T05:59:36Z</time>
            </trkpt>
            <trkpt lon="101.541072" lat="12.994152">
                <ele>68.100000</ele>
                <time>2019-03-16T05:59:37Z</time>
            </trkpt>
            <trkpt lon="101.541120" lat="12.994155">
                <ele>68.600000</ele>
                <time>2019-03-16T05:59:38Z</time>
            </trkpt>
            <trkpt lon="101.541158" lat="12.994158">
                <ele>69.100000</ele>
                <time>2019-03-16T05:59:39Z</time>
            </trkpt>
            <trkpt lon="101.541182" lat="12.994141">
                <ele>69.400000</ele>
                <time>2019-03-16T05:59:45Z</time>
            </trkpt>
            <trkpt lon="101.541293" lat="12.994222">
                <ele>70.600000</ele>
                <time>2019-03-16T06:01:32Z</time>
            </trkpt>
            <trkpt lon="101.541279" lat="12.994265">
                <ele>70.800000</ele>
                <time>2019-03-16T06:01:34Z</time>
            </trkpt>
            <trkpt lon="101.541268" lat="12.994292">
                <ele>70.800000</ele>
                <time>2019-03-16T06:01:35Z</time>
            </trkpt>
            <trkpt lon="101.541255" lat="12.994322">
                <ele>70.500000</ele>
                <time>2019-03-16T06:01:36Z</time>
            </trkpt>
            <trkpt lon="101.541239" lat="12.994358">
                <ele>70.500000</ele>
                <time>2019-03-16T06:01:37Z</time>
            </trkpt>
            <trkpt lon="101.541220" lat="12.994389">
                <ele>70.300000</ele>
                <time>2019-03-16T06:01:38Z</time>
            </trkpt>
            <trkpt lon="101.541203" lat="12.994424">
                <ele>70.400000</ele>
                <time>2019-03-16T06:01:39Z</time>
            </trkpt>
            <trkpt lon="101.541184" lat="12.994456">
                <ele>70.600000</ele>
                <time>2019-03-16T06:01:40Z</time>
            </trkpt>
            <trkpt lon="101.541164" lat="12.994484">
                <ele>70.900000</ele>
                <time>2019-03-16T06:01:41Z</time>
            </trkpt>
            <trkpt lon="101.541144" lat="12.994517">
                <ele>70.900000</ele>
                <time>2019-03-16T06:01:42Z</time>
            </trkpt>
            <trkpt lon="101.541129" lat="12.994545">
                <ele>71.100000</ele>
                <time>2019-03-16T06:01:43Z</time>
            </trkpt>
            <trkpt lon="101.541119" lat="12.994576">
                <ele>71.400000</ele>
                <time>2019-03-16T06:01:44Z</time>
            </trkpt>
            <trkpt lon="101.541112" lat="12.994605">
                <ele>71.400000</ele>
                <time>2019-03-16T06:01:45Z</time>
            </trkpt>
            <trkpt lon="101.541113" lat="12.994653">
                <ele>71.400000</ele>
                <time>2019-03-16T06:01:47Z</time>
            </trkpt>
            <trkpt lon="101.541122" lat="12.994701">
                <ele>71.400000</ele>
                <time>2019-03-16T06:01:49Z</time>
            </trkpt>
            <trkpt lon="101.541105" lat="12.994790">
                <ele>71.300000</ele>
                <time>2019-03-16T06:01:51Z</time>
            </trkpt>
            <trkpt lon="101.541084" lat="12.994880">
                <ele>70.800000</ele>
                <time>2019-03-16T06:01:52Z</time>
            </trkpt>
            <trkpt lon="101.541082" lat="12.994936">
                <ele>70.600000</ele>
                <time>2019-03-16T06:01:53Z</time>
            </trkpt>
            <trkpt lon="101.541091" lat="12.994965">
                <ele>70.400000</ele>
                <time>2019-03-16T06:01:54Z</time>
            </trkpt>
            <trkpt lon="101.541132" lat="12.994997">
                <ele>70.400000</ele>
                <time>2019-03-16T06:01:56Z</time>
            </trkpt>
            <trkpt lon="101.541156" lat="12.995014">
                <ele>70.600000</ele>
                <time>2019-03-16T06:01:57Z</time>
            </trkpt>
            <trkpt lon="101.541194" lat="12.995025">
                <ele>70.600000</ele>
                <time>2019-03-16T06:01:58Z</time>
            </trkpt>
            <trkpt lon="101.541234" lat="12.995042">
                <ele>70.800000</ele>
                <time>2019-03-16T06:01:59Z</time>
            </trkpt>
            <trkpt lon="101.541263" lat="12.995057">
                <ele>70.800000</ele>
                <time>2019-03-16T06:02:00Z</time>
            </trkpt>
            <trkpt lon="101.541302" lat="12.995067">
                <ele>70.800000</ele>
                <time>2019-03-16T06:02:01Z</time>
            </trkpt>
            <trkpt lon="101.541333" lat="12.995076">
                <ele>71.100000</ele>
                <time>2019-03-16T06:02:02Z</time>
            </trkpt>
            <trkpt lon="101.541370" lat="12.995080">
                <ele>71.300000</ele>
                <time>2019-03-16T06:02:03Z</time>
            </trkpt>
            <trkpt lon="101.541413" lat="12.995089">
                <ele>71.400000</ele>
                <time>2019-03-16T06:02:04Z</time>
            </trkpt>
            <trkpt lon="101.541446" lat="12.995099">
                <ele>71.400000</ele>
                <time>2019-03-16T06:02:05Z</time>
            </trkpt>
            <trkpt lon="101.541477" lat="12.995106">
                <ele>71.400000</ele>
                <time>2019-03-16T06:02:06Z</time>
            </trkpt>
            <trkpt lon="101.541518" lat="12.995121">
                <ele>71.400000</ele>
                <time>2019-03-16T06:02:07Z</time>
            </trkpt>
            <trkpt lon="101.541560" lat="12.995127">
                <ele>71.400000</ele>
                <time>2019-03-16T06:02:08Z</time>
            </trkpt>
            <trkpt lon="101.541606" lat="12.995132">
                <ele>71.400000</ele>
                <time>2019-03-16T06:02:09Z</time>
            </trkpt>
            <trkpt lon="101.541649" lat="12.995143">
                <ele>71.400000</ele>
                <time>2019-03-16T06:02:10Z</time>
            </trkpt>
            <trkpt lon="101.541696" lat="12.995152">
                <ele>71.400000</ele>
                <time>2019-03-16T06:02:11Z</time>
            </trkpt>
            <trkpt lon="101.541736" lat="12.995162">
                <ele>71.400000</ele>
                <time>2019-03-16T06:02:12Z</time>
            </trkpt>
            <trkpt lon="101.541776" lat="12.995172">
                <ele>71.400000</ele>
                <time>2019-03-16T06:02:13Z</time>
            </trkpt>
            <trkpt lon="101.541816" lat="12.995185">
                <ele>71.400000</ele>
                <time>2019-03-16T06:02:14Z</time>
            </trkpt>
            <trkpt lon="101.541850" lat="12.995198">
                <ele>71.400000</ele>
                <time>2019-03-16T06:02:15Z</time>
            </trkpt>
            <trkpt lon="101.541885" lat="12.995209">
                <ele>71.400000</ele>
                <time>2019-03-16T06:02:16Z</time>
            </trkpt>
            <trkpt lon="101.541915" lat="12.995215">
                <ele>71.500000</ele>
                <time>2019-03-16T06:02:17Z</time>
            </trkpt>
            <trkpt lon="101.541951" lat="12.995220">
                <ele>71.500000</ele>
                <time>2019-03-16T06:02:18Z</time>
            </trkpt>
            <trkpt lon="101.541985" lat="12.995233">
                <ele>71.400000</ele>
                <time>2019-03-16T06:02:19Z</time>
            </trkpt>
            <trkpt lon="101.542021" lat="12.995245">
                <ele>71.500000</ele>
                <time>2019-03-16T06:02:20Z</time>
            </trkpt>
            <trkpt lon="101.542065" lat="12.995252">
                <ele>71.500000</ele>
                <time>2019-03-16T06:02:21Z</time>
            </trkpt>
            <trkpt lon="101.542106" lat="12.995259">
                <ele>71.600000</ele>
                <time>2019-03-16T06:02:22Z</time>
            </trkpt>
            <trkpt lon="101.542156" lat="12.995260">
                <ele>71.800000</ele>
                <time>2019-03-16T06:02:23Z</time>
            </trkpt>
            <trkpt lon="101.542194" lat="12.995281">
                <ele>72.100000</ele>
                <time>2019-03-16T06:02:24Z</time>
            </trkpt>
            <trkpt lon="101.542251" lat="12.995294">
                <ele>72.300000</ele>
                <time>2019-03-16T06:02:25Z</time>
            </trkpt>
            <trkpt lon="101.542289" lat="12.995306">
                <ele>72.400000</ele>
                <time>2019-03-16T06:02:26Z</time>
            </trkpt>
            <trkpt lon="101.542328" lat="12.995311">
                <ele>72.400000</ele>
                <time>2019-03-16T06:02:27Z</time>
            </trkpt>
            <trkpt lon="101.542370" lat="12.995326">
                <ele>72.400000</ele>
                <time>2019-03-16T06:02:28Z</time>
            </trkpt>
            <trkpt lon="101.542421" lat="12.995336">
                <ele>72.400000</ele>
                <time>2019-03-16T06:02:29Z</time>
            </trkpt>
            <trkpt lon="101.542467" lat="12.995348">
                <ele>72.400000</ele>
                <time>2019-03-16T06:02:30Z</time>
            </trkpt>
            <trkpt lon="101.542504" lat="12.995361">
                <ele>72.200000</ele>
                <time>2019-03-16T06:02:31Z</time>
            </trkpt>
            <trkpt lon="101.542533" lat="12.995366">
                <ele>72.000000</ele>
                <time>2019-03-16T06:02:32Z</time>
            </trkpt>
            <trkpt lon="101.542576" lat="12.995380">
                <ele>71.800000</ele>
                <time>2019-03-16T06:02:33Z</time>
            </trkpt>
            <trkpt lon="101.542623" lat="12.995389">
                <ele>71.700000</ele>
                <time>2019-03-16T06:02:34Z</time>
            </trkpt>
            <trkpt lon="101.542660" lat="12.995393">
                <ele>71.600000</ele>
                <time>2019-03-16T06:02:35Z</time>
            </trkpt>
            <trkpt lon="101.542688" lat="12.995407">
                <ele>71.500000</ele>
                <time>2019-03-16T06:02:36Z</time>
            </trkpt>
            <trkpt lon="101.542731" lat="12.995416">
                <ele>71.400000</ele>
                <time>2019-03-16T06:02:37Z</time>
            </trkpt>
            <trkpt lon="101.542775" lat="12.995429">
                <ele>71.400000</ele>
                <time>2019-03-16T06:02:38Z</time>
            </trkpt>
            <trkpt lon="101.542817" lat="12.995433">
                <ele>71.400000</ele>
                <time>2019-03-16T06:02:39Z</time>
            </trkpt>
            <trkpt lon="101.542874" lat="12.995450">
                <ele>71.400000</ele>
                <time>2019-03-16T06:02:40Z</time>
            </trkpt>
            <trkpt lon="101.542928" lat="12.995461">
                <ele>71.400000</ele>
                <time>2019-03-16T06:02:41Z</time>
            </trkpt>
            <trkpt lon="101.542973" lat="12.995473">
                <ele>71.400000</ele>
                <time>2019-03-16T06:02:42Z</time>
            </trkpt>
            <trkpt lon="101.543003" lat="12.995483">
                <ele>71.400000</ele>
                <time>2019-03-16T06:02:43Z</time>
            </trkpt>
            <trkpt lon="101.543046" lat="12.995502">
                <ele>71.400000</ele>
                <time>2019-03-16T06:02:44Z</time>
            </trkpt>
            <trkpt lon="101.543094" lat="12.995531">
                <ele>71.400000</ele>
                <time>2019-03-16T06:02:45Z</time>
            </trkpt>
            <trkpt lon="101.543145" lat="12.995555">
                <ele>71.200000</ele>
                <time>2019-03-16T06:02:46Z</time>
            </trkpt>
            <trkpt lon="101.543216" lat="12.995572">
                <ele>70.200000</ele>
                <time>2019-03-16T06:02:47Z</time>
            </trkpt>
            <trkpt lon="101.543287" lat="12.995566">
                <ele>69.300000</ele>
                <time>2019-03-16T06:02:48Z</time>
            </trkpt>
            <trkpt lon="101.543359" lat="12.995581">
                <ele>69.100000</ele>
                <time>2019-03-16T06:02:49Z</time>
            </trkpt>
            <trkpt lon="101.543408" lat="12.995600">
                <ele>68.800000</ele>
                <time>2019-03-16T06:02:50Z</time>
            </trkpt>
            <trkpt lon="101.543446" lat="12.995612">
                <ele>68.600000</ele>
                <time>2019-03-16T06:02:51Z</time>
            </trkpt>
            <trkpt lon="101.543487" lat="12.995621">
                <ele>68.300000</ele>
                <time>2019-03-16T06:02:52Z</time>
            </trkpt>
            <trkpt lon="101.543532" lat="12.995633">
                <ele>68.000000</ele>
                <time>2019-03-16T06:02:53Z</time>
            </trkpt>
            <trkpt lon="101.543566" lat="12.995642">
                <ele>67.700000</ele>
                <time>2019-03-16T06:02:54Z</time>
            </trkpt>
            <trkpt lon="101.543598" lat="12.995648">
                <ele>67.400000</ele>
                <time>2019-03-16T06:02:55Z</time>
            </trkpt>
            <trkpt lon="101.543635" lat="12.995659">
                <ele>66.800000</ele>
                <time>2019-03-16T06:02:56Z</time>
            </trkpt>
            <trkpt lon="101.543685" lat="12.995670">
                <ele>66.300000</ele>
                <time>2019-03-16T06:02:57Z</time>
            </trkpt>
            <trkpt lon="101.543737" lat="12.995676">
                <ele>65.800000</ele>
                <time>2019-03-16T06:02:58Z</time>
            </trkpt>
            <trkpt lon="101.543789" lat="12.995689">
                <ele>65.300000</ele>
                <time>2019-03-16T06:02:59Z</time>
            </trkpt>
            <trkpt lon="101.543842" lat="12.995699">
                <ele>64.400000</ele>
                <time>2019-03-16T06:03:00Z</time>
            </trkpt>
            <trkpt lon="101.543900" lat="12.995716">
                <ele>64.200000</ele>
                <time>2019-03-16T06:03:01Z</time>
            </trkpt>
            <trkpt lon="101.543945" lat="12.995726">
                <ele>63.900000</ele>
                <time>2019-03-16T06:03:02Z</time>
            </trkpt>
            <trkpt lon="101.543978" lat="12.995739">
                <ele>63.600000</ele>
                <time>2019-03-16T06:03:03Z</time>
            </trkpt>
            <trkpt lon="101.544018" lat="12.995750">
                <ele>63.800000</ele>
                <time>2019-03-16T06:03:04Z</time>
            </trkpt>
            <trkpt lon="101.544060" lat="12.995756">
                <ele>64.100000</ele>
                <time>2019-03-16T06:03:05Z</time>
            </trkpt>
            <trkpt lon="101.544102" lat="12.995766">
                <ele>64.300000</ele>
                <time>2019-03-16T06:03:06Z</time>
            </trkpt>
            <trkpt lon="101.544160" lat="12.995776">
                <ele>64.600000</ele>
                <time>2019-03-16T06:03:07Z</time>
            </trkpt>
            <trkpt lon="101.544222" lat="12.995802">
                <ele>64.800000</ele>
                <time>2019-03-16T06:03:08Z</time>
            </trkpt>
            <trkpt lon="101.544265" lat="12.995812">
                <ele>65.100000</ele>
                <time>2019-03-16T06:03:09Z</time>
            </trkpt>
            <trkpt lon="101.544329" lat="12.995818">
                <ele>65.700000</ele>
                <time>2019-03-16T06:03:10Z</time>
            </trkpt>
            <trkpt lon="101.544445" lat="12.995834">
                <ele>66.300000</ele>
                <time>2019-03-16T06:03:12Z</time>
            </trkpt>
            <trkpt lon="101.544492" lat="12.995859">
                <ele>66.400000</ele>
                <time>2019-03-16T06:03:13Z</time>
            </trkpt>
            <trkpt lon="101.544566" lat="12.995868">
                <ele>66.400000</ele>
                <time>2019-03-16T06:03:14Z</time>
            </trkpt>
            <trkpt lon="101.544610" lat="12.995890">
                <ele>66.400000</ele>
                <time>2019-03-16T06:03:15Z</time>
            </trkpt>
            <trkpt lon="101.544653" lat="12.995901">
                <ele>66.400000</ele>
                <time>2019-03-16T06:03:16Z</time>
            </trkpt>
            <trkpt lon="101.544699" lat="12.995907">
                <ele>66.400000</ele>
                <time>2019-03-16T06:03:17Z</time>
            </trkpt>
            <trkpt lon="101.544764" lat="12.995923">
                <ele>66.400000</ele>
                <time>2019-03-16T06:03:18Z</time>
            </trkpt>
            <trkpt lon="101.544825" lat="12.995937">
                <ele>66.400000</ele>
                <time>2019-03-16T06:03:19Z</time>
            </trkpt>
            <trkpt lon="101.544883" lat="12.995958">
                <ele>66.600000</ele>
                <time>2019-03-16T06:03:20Z</time>
            </trkpt>
            <trkpt lon="101.544958" lat="12.995973">
                <ele>66.600000</ele>
                <time>2019-03-16T06:03:21Z</time>
            </trkpt>
            <trkpt lon="101.545038" lat="12.995991">
                <ele>66.700000</ele>
                <time>2019-03-16T06:03:22Z</time>
            </trkpt>
            <trkpt lon="101.545112" lat="12.996008">
                <ele>66.000000</ele>
                <time>2019-03-16T06:03:23Z</time>
            </trkpt>
            <trkpt lon="101.545184" lat="12.996032">
                <ele>65.300000</ele>
                <time>2019-03-16T06:03:24Z</time>
            </trkpt>
            <trkpt lon="101.545251" lat="12.996056">
                <ele>65.000000</ele>
                <time>2019-03-16T06:03:25Z</time>
            </trkpt>
            <trkpt lon="101.545299" lat="12.996066">
                <ele>64.700000</ele>
                <time>2019-03-16T06:03:26Z</time>
            </trkpt>
            <trkpt lon="101.545344" lat="12.996082">
                <ele>64.300000</ele>
                <time>2019-03-16T06:03:27Z</time>
            </trkpt>
            <trkpt lon="101.545385" lat="12.996097">
                <ele>64.300000</ele>
                <time>2019-03-16T06:03:28Z</time>
            </trkpt>
            <trkpt lon="101.545435" lat="12.996105">
                <ele>63.800000</ele>
                <time>2019-03-16T06:03:29Z</time>
            </trkpt>
            <trkpt lon="101.545481" lat="12.996115">
                <ele>63.600000</ele>
                <time>2019-03-16T06:03:30Z</time>
            </trkpt>
            <trkpt lon="101.545524" lat="12.996124">
                <ele>63.400000</ele>
                <time>2019-03-16T06:03:31Z</time>
            </trkpt>
            <trkpt lon="101.545563" lat="12.996132">
                <ele>63.500000</ele>
                <time>2019-03-16T06:03:32Z</time>
            </trkpt>
            <trkpt lon="101.545591" lat="12.996135">
                <ele>63.500000</ele>
                <time>2019-03-16T06:03:33Z</time>
            </trkpt>
            <trkpt lon="101.545641" lat="12.996149">
                <ele>63.500000</ele>
                <time>2019-03-16T06:03:34Z</time>
            </trkpt>
            <trkpt lon="101.545686" lat="12.996157">
                <ele>63.800000</ele>
                <time>2019-03-16T06:03:35Z</time>
            </trkpt>
            <trkpt lon="101.545723" lat="12.996161">
                <ele>63.700000</ele>
                <time>2019-03-16T06:03:36Z</time>
            </trkpt>
            <trkpt lon="101.545782" lat="12.996189">
                <ele>62.500000</ele>
                <time>2019-03-16T06:03:37Z</time>
            </trkpt>
            <trkpt lon="101.545830" lat="12.996214">
                <ele>61.900000</ele>
                <time>2019-03-16T06:03:38Z</time>
            </trkpt>
            <trkpt lon="101.545882" lat="12.996240">
                <ele>61.100000</ele>
                <time>2019-03-16T06:03:39Z</time>
            </trkpt>
            <trkpt lon="101.545924" lat="12.996269">
                <ele>59.900000</ele>
                <time>2019-03-16T06:03:40Z</time>
            </trkpt>
            <trkpt lon="101.545955" lat="12.996300">
                <ele>58.500000</ele>
                <time>2019-03-16T06:03:41Z</time>
            </trkpt>
            <trkpt lon="101.545975" lat="12.996327">
                <ele>58.400000</ele>
                <time>2019-03-16T06:03:42Z</time>
            </trkpt>
            <trkpt lon="101.545989" lat="12.996350">
                <ele>57.000000</ele>
                <time>2019-03-16T06:03:43Z</time>
            </trkpt>
            <trkpt lon="101.546006" lat="12.996378">
                <ele>56.800000</ele>
                <time>2019-03-16T06:03:44Z</time>
            </trkpt>
            <trkpt lon="101.546009" lat="12.996408">
                <ele>56.600000</ele>
                <time>2019-03-16T06:03:45Z</time>
            </trkpt>
            <trkpt lon="101.546015" lat="12.996466">
                <ele>56.400000</ele>
                <time>2019-03-16T06:03:47Z</time>
            </trkpt>
            <trkpt lon="101.546022" lat="12.996496">
                <ele>56.100000</ele>
                <time>2019-03-16T06:03:48Z</time>
            </trkpt>
            <trkpt lon="101.546021" lat="12.996539">
                <ele>55.800000</ele>
                <time>2019-03-16T06:03:49Z</time>
            </trkpt>
            <trkpt lon="101.546019" lat="12.996576">
                <ele>55.500000</ele>
                <time>2019-03-16T06:03:50Z</time>
            </trkpt>
            <trkpt lon="101.546023" lat="12.996612">
                <ele>55.500000</ele>
                <time>2019-03-16T06:03:51Z</time>
            </trkpt>
            <trkpt lon="101.546029" lat="12.996641">
                <ele>55.000000</ele>
                <time>2019-03-16T06:03:52Z</time>
            </trkpt>
            <trkpt lon="101.546032" lat="12.996673">
                <ele>53.500000</ele>
                <time>2019-03-16T06:03:53Z</time>
            </trkpt>
            <trkpt lon="101.546031" lat="12.996707">
                <ele>53.000000</ele>
                <time>2019-03-16T06:03:54Z</time>
            </trkpt>
            <trkpt lon="101.546026" lat="12.996736">
                <ele>53.900000</ele>
                <time>2019-03-16T06:03:55Z</time>
            </trkpt>
            <trkpt lon="101.546027" lat="12.996771">
                <ele>53.400000</ele>
                <time>2019-03-16T06:03:56Z</time>
            </trkpt>
            <trkpt lon="101.546030" lat="12.996802">
                <ele>53.000000</ele>
                <time>2019-03-16T06:03:57Z</time>
            </trkpt>
            <trkpt lon="101.546029" lat="12.996841">
                <ele>52.600000</ele>
                <time>2019-03-16T06:03:58Z</time>
            </trkpt>
            <trkpt lon="101.546022" lat="12.996879">
                <ele>52.300000</ele>
                <time>2019-03-16T06:03:59Z</time>
            </trkpt>
            <trkpt lon="101.546014" lat="12.996938">
                <ele>51.900000</ele>
                <time>2019-03-16T06:04:00Z</time>
            </trkpt>
            <trkpt lon="101.545998" lat="12.996984">
                <ele>51.600000</ele>
                <time>2019-03-16T06:04:01Z</time>
            </trkpt>
            <trkpt lon="101.545993" lat="12.997024">
                <ele>51.200000</ele>
                <time>2019-03-16T06:04:02Z</time>
            </trkpt>
            <trkpt lon="101.546000" lat="12.997078">
                <ele>50.600000</ele>
                <time>2019-03-16T06:04:03Z</time>
            </trkpt>
            <trkpt lon="101.546015" lat="12.997125">
                <ele>50.400000</ele>
                <time>2019-03-16T06:04:04Z</time>
            </trkpt>
            <trkpt lon="101.546030" lat="12.997167">
                <ele>50.400000</ele>
                <time>2019-03-16T06:04:05Z</time>
            </trkpt>
            <trkpt lon="101.546052" lat="12.997205">
                <ele>50.400000</ele>
                <time>2019-03-16T06:04:06Z</time>
            </trkpt>
            <trkpt lon="101.546079" lat="12.997235">
                <ele>50.300000</ele>
                <time>2019-03-16T06:04:07Z</time>
            </trkpt>
            <trkpt lon="101.546105" lat="12.997279">
                <ele>50.400000</ele>
                <time>2019-03-16T06:04:08Z</time>
            </trkpt>
            <trkpt lon="101.546126" lat="12.997324">
                <ele>50.800000</ele>
                <time>2019-03-16T06:04:09Z</time>
            </trkpt>
            <trkpt lon="101.546144" lat="12.997368">
                <ele>51.100000</ele>
                <time>2019-03-16T06:04:10Z</time>
            </trkpt>
            <trkpt lon="101.546161" lat="12.997409">
                <ele>51.300000</ele>
                <time>2019-03-16T06:04:11Z</time>
            </trkpt>
            <trkpt lon="101.546170" lat="12.997467">
                <ele>51.500000</ele>
                <time>2019-03-16T06:04:12Z</time>
            </trkpt>
            <trkpt lon="101.546179" lat="12.997515">
                <ele>51.500000</ele>
                <time>2019-03-16T06:04:13Z</time>
            </trkpt>
            <trkpt lon="101.546180" lat="12.997573">
                <ele>51.500000</ele>
                <time>2019-03-16T06:04:14Z</time>
            </trkpt>
            <trkpt lon="101.546182" lat="12.997621">
                <ele>51.500000</ele>
                <time>2019-03-16T06:04:15Z</time>
            </trkpt>
            <trkpt lon="101.546184" lat="12.997666">
                <ele>51.300000</ele>
                <time>2019-03-16T06:04:16Z</time>
            </trkpt>
            <trkpt lon="101.546186" lat="12.997709">
                <ele>51.100000</ele>
                <time>2019-03-16T06:04:17Z</time>
            </trkpt>
            <trkpt lon="101.546192" lat="12.997751">
                <ele>50.900000</ele>
                <time>2019-03-16T06:04:18Z</time>
            </trkpt>
            <trkpt lon="101.546195" lat="12.997789">
                <ele>50.800000</ele>
                <time>2019-03-16T06:04:19Z</time>
            </trkpt>
            <trkpt lon="101.546196" lat="12.997838">
                <ele>50.800000</ele>
                <time>2019-03-16T06:04:20Z</time>
            </trkpt>
            <trkpt lon="101.546196" lat="12.997873">
                <ele>50.800000</ele>
                <time>2019-03-16T06:04:21Z</time>
            </trkpt>
            <trkpt lon="101.546197" lat="12.997911">
                <ele>50.800000</ele>
                <time>2019-03-16T06:04:22Z</time>
            </trkpt>
            <trkpt lon="101.546200" lat="12.997951">
                <ele>50.800000</ele>
                <time>2019-03-16T06:04:23Z</time>
            </trkpt>
            <trkpt lon="101.546203" lat="12.997992">
                <ele>50.400000</ele>
                <time>2019-03-16T06:04:24Z</time>
            </trkpt>
            <trkpt lon="101.546205" lat="12.998031">
                <ele>50.400000</ele>
                <time>2019-03-16T06:04:25Z</time>
            </trkpt>
            <trkpt lon="101.546205" lat="12.998073">
                <ele>50.400000</ele>
                <time>2019-03-16T06:04:26Z</time>
            </trkpt>
            <trkpt lon="101.546207" lat="12.998109">
                <ele>50.400000</ele>
                <time>2019-03-16T06:04:27Z</time>
            </trkpt>
            <trkpt lon="101.546208" lat="12.998148">
                <ele>50.600000</ele>
                <time>2019-03-16T06:04:28Z</time>
            </trkpt>
            <trkpt lon="101.546209" lat="12.998188">
                <ele>51.100000</ele>
                <time>2019-03-16T06:04:29Z</time>
            </trkpt>
            <trkpt lon="101.546211" lat="12.998223">
                <ele>51.600000</ele>
                <time>2019-03-16T06:04:30Z</time>
            </trkpt>
            <trkpt lon="101.546211" lat="12.998260">
                <ele>52.100000</ele>
                <time>2019-03-16T06:04:31Z</time>
            </trkpt>
            <trkpt lon="101.546211" lat="12.998289">
                <ele>53.200000</ele>
                <time>2019-03-16T06:04:32Z</time>
            </trkpt>
            <trkpt lon="101.546213" lat="12.998339">
                <ele>54.600000</ele>
                <time>2019-03-16T06:04:34Z</time>
            </trkpt>
            <trkpt lon="101.546214" lat="12.998389">
                <ele>56.100000</ele>
                <time>2019-03-16T06:04:36Z</time>
            </trkpt>
            <trkpt lon="101.546215" lat="12.998434">
                <ele>57.600000</ele>
                <time>2019-03-16T06:04:38Z</time>
            </trkpt>
            <trkpt lon="101.546215" lat="12.998466">
                <ele>58.900000</ele>
                <time>2019-03-16T06:04:40Z</time>
            </trkpt>
            <trkpt lon="101.546211" lat="12.998507">
                <ele>60.100000</ele>
                <time>2019-03-16T06:04:42Z</time>
            </trkpt>
            <trkpt lon="101.546218" lat="12.998556">
                <ele>61.400000</ele>
                <time>2019-03-16T06:04:44Z</time>
            </trkpt>
            <trkpt lon="101.546232" lat="12.998615">
                <ele>62.600000</ele>
                <time>2019-03-16T06:04:46Z</time>
            </trkpt>
            <trkpt lon="101.546230" lat="12.998653">
                <ele>63.500000</ele>
                <time>2019-03-16T06:04:47Z</time>
            </trkpt>
            <trkpt lon="101.546228" lat="12.998690">
                <ele>64.300000</ele>
                <time>2019-03-16T06:04:48Z</time>
            </trkpt>
            <trkpt lon="101.546234" lat="12.998750">
                <ele>65.800000</ele>
                <time>2019-03-16T06:04:50Z</time>
            </trkpt>
            <trkpt lon="101.546238" lat="12.998790">
                <ele>66.200000</ele>
                <time>2019-03-16T06:04:51Z</time>
            </trkpt>
            <trkpt lon="101.546241" lat="12.998823">
                <ele>66.200000</ele>
                <time>2019-03-16T06:04:52Z</time>
            </trkpt>
            <trkpt lon="101.546241" lat="12.998857">
                <ele>66.200000</ele>
                <time>2019-03-16T06:04:53Z</time>
            </trkpt>
            <trkpt lon="101.546242" lat="12.998888">
                <ele>66.200000</ele>
                <time>2019-03-16T06:04:54Z</time>
            </trkpt>
            <trkpt lon="101.546242" lat="12.998923">
                <ele>66.200000</ele>
                <time>2019-03-16T06:04:55Z</time>
            </trkpt>
            <trkpt lon="101.546244" lat="12.998958">
                <ele>66.100000</ele>
                <time>2019-03-16T06:04:56Z</time>
            </trkpt>
            <trkpt lon="101.546245" lat="12.998992">
                <ele>65.400000</ele>
                <time>2019-03-16T06:04:57Z</time>
            </trkpt>
            <trkpt lon="101.546247" lat="12.999027">
                <ele>65.200000</ele>
                <time>2019-03-16T06:04:58Z</time>
            </trkpt>
            <trkpt lon="101.546249" lat="12.999061">
                <ele>65.100000</ele>
                <time>2019-03-16T06:04:59Z</time>
            </trkpt>
            <trkpt lon="101.546250" lat="12.999092">
                <ele>64.900000</ele>
                <time>2019-03-16T06:05:00Z</time>
            </trkpt>
            <trkpt lon="101.546252" lat="12.999123">
                <ele>64.700000</ele>
                <time>2019-03-16T06:05:01Z</time>
            </trkpt>
            <trkpt lon="101.546253" lat="12.999156">
                <ele>64.700000</ele>
                <time>2019-03-16T06:05:02Z</time>
            </trkpt>
            <trkpt lon="101.546255" lat="12.999186">
                <ele>64.600000</ele>
                <time>2019-03-16T06:05:03Z</time>
            </trkpt>
            <trkpt lon="101.546258" lat="12.999216">
                <ele>64.400000</ele>
                <time>2019-03-16T06:05:04Z</time>
            </trkpt>
            <trkpt lon="101.546261" lat="12.999271">
                <ele>64.200000</ele>
                <time>2019-03-16T06:05:06Z</time>
            </trkpt>
            <trkpt lon="101.546263" lat="12.999299">
                <ele>64.000000</ele>
                <time>2019-03-16T06:05:07Z</time>
            </trkpt>
            <trkpt lon="101.546266" lat="12.999331">
                <ele>63.700000</ele>
                <time>2019-03-16T06:05:08Z</time>
            </trkpt>
            <trkpt lon="101.546268" lat="12.999364">
                <ele>63.700000</ele>
                <time>2019-03-16T06:05:09Z</time>
            </trkpt>
            <trkpt lon="101.546269" lat="12.999397">
                <ele>63.500000</ele>
                <time>2019-03-16T06:05:10Z</time>
            </trkpt>
            <trkpt lon="101.546272" lat="12.999430">
                <ele>63.200000</ele>
                <time>2019-03-16T06:05:11Z</time>
            </trkpt>
            <trkpt lon="101.546277" lat="12.999464">
                <ele>63.000000</ele>
                <time>2019-03-16T06:05:12Z</time>
            </trkpt>
            <trkpt lon="101.546289" lat="12.999497">
                <ele>62.700000</ele>
                <time>2019-03-16T06:05:13Z</time>
            </trkpt>
            <trkpt lon="101.546306" lat="12.999530">
                <ele>62.500000</ele>
                <time>2019-03-16T06:05:14Z</time>
            </trkpt>
            <trkpt lon="101.546327" lat="12.999560">
                <ele>62.200000</ele>
                <time>2019-03-16T06:05:15Z</time>
            </trkpt>
            <trkpt lon="101.546357" lat="12.999575">
                <ele>62.000000</ele>
                <time>2019-03-16T06:05:16Z</time>
            </trkpt>
            <trkpt lon="101.546390" lat="12.999578">
                <ele>61.800000</ele>
                <time>2019-03-16T06:05:17Z</time>
            </trkpt>
            <trkpt lon="101.546426" lat="12.999572">
                <ele>61.700000</ele>
                <time>2019-03-16T06:05:18Z</time>
            </trkpt>
            <trkpt lon="101.546463" lat="12.999558">
                <ele>61.600000</ele>
                <time>2019-03-16T06:05:19Z</time>
            </trkpt>
            <trkpt lon="101.546495" lat="12.999545">
                <ele>61.600000</ele>
                <time>2019-03-16T06:05:20Z</time>
            </trkpt>
            <trkpt lon="101.546527" lat="12.999531">
                <ele>61.500000</ele>
                <time>2019-03-16T06:05:21Z</time>
            </trkpt>
            <trkpt lon="101.546560" lat="12.999511">
                <ele>61.400000</ele>
                <time>2019-03-16T06:05:22Z</time>
            </trkpt>
            <trkpt lon="101.546607" lat="12.999487">
                <ele>61.400000</ele>
                <time>2019-03-16T06:05:24Z</time>
            </trkpt>
            <trkpt lon="101.546660" lat="12.999467">
                <ele>61.400000</ele>
                <time>2019-03-16T06:05:26Z</time>
            </trkpt>
            <trkpt lon="101.546695" lat="12.999446">
                <ele>61.300000</ele>
                <time>2019-03-16T06:05:27Z</time>
            </trkpt>
            <trkpt lon="101.546729" lat="12.999423">
                <ele>61.300000</ele>
                <time>2019-03-16T06:05:28Z</time>
            </trkpt>
            <trkpt lon="101.546762" lat="12.999401">
                <ele>60.900000</ele>
                <time>2019-03-16T06:05:29Z</time>
            </trkpt>
            <trkpt lon="101.546795" lat="12.999377">
                <ele>60.900000</ele>
                <time>2019-03-16T06:05:30Z</time>
            </trkpt>
            <trkpt lon="101.546822" lat="12.999356">
                <ele>60.400000</ele>
                <time>2019-03-16T06:05:31Z</time>
            </trkpt>
            <trkpt lon="101.546846" lat="12.999336">
                <ele>60.200000</ele>
                <time>2019-03-16T06:05:32Z</time>
            </trkpt>
            <trkpt lon="101.546870" lat="12.999318">
                <ele>59.700000</ele>
                <time>2019-03-16T06:05:33Z</time>
            </trkpt>
            <trkpt lon="101.546920" lat="12.999293">
                <ele>59.800000</ele>
                <time>2019-03-16T06:05:35Z</time>
            </trkpt>
            <trkpt lon="101.546974" lat="12.999284">
                <ele>59.600000</ele>
                <time>2019-03-16T06:05:37Z</time>
            </trkpt>
            <trkpt lon="101.547003" lat="12.999271">
                <ele>59.900000</ele>
                <time>2019-03-16T06:05:38Z</time>
            </trkpt>
            <trkpt lon="101.547040" lat="12.999254">
                <ele>60.100000</ele>
                <time>2019-03-16T06:05:39Z</time>
            </trkpt>
            <trkpt lon="101.547070" lat="12.999244">
                <ele>59.900000</ele>
                <time>2019-03-16T06:05:40Z</time>
            </trkpt>
            <trkpt lon="101.547109" lat="12.999238">
                <ele>60.300000</ele>
                <time>2019-03-16T06:05:41Z</time>
            </trkpt>
            <trkpt lon="101.547149" lat="12.999239">
                <ele>60.600000</ele>
                <time>2019-03-16T06:05:42Z</time>
            </trkpt>
            <trkpt lon="101.547182" lat="12.999241">
                <ele>60.600000</ele>
                <time>2019-03-16T06:05:43Z</time>
            </trkpt>
            <trkpt lon="101.547232" lat="12.999247">
                <ele>61.000000</ele>
                <time>2019-03-16T06:05:45Z</time>
            </trkpt>
            <trkpt lon="101.547288" lat="12.999245">
                <ele>61.000000</ele>
                <time>2019-03-16T06:05:47Z</time>
            </trkpt>
            <trkpt lon="101.547317" lat="12.999242">
                <ele>61.000000</ele>
                <time>2019-03-16T06:05:48Z</time>
            </trkpt>
            <trkpt lon="101.547354" lat="12.999238">
                <ele>61.000000</ele>
                <time>2019-03-16T06:05:49Z</time>
            </trkpt>
            <trkpt lon="101.547394" lat="12.999240">
                <ele>61.000000</ele>
                <time>2019-03-16T06:05:50Z</time>
            </trkpt>
            <trkpt lon="101.547423" lat="12.999250">
                <ele>61.300000</ele>
                <time>2019-03-16T06:05:51Z</time>
            </trkpt>
            <trkpt lon="101.547470" lat="12.999252">
                <ele>61.300000</ele>
                <time>2019-03-16T06:05:52Z</time>
            </trkpt>
            <trkpt lon="101.547501" lat="12.999254">
                <ele>61.300000</ele>
                <time>2019-03-16T06:05:53Z</time>
            </trkpt>
            <trkpt lon="101.547536" lat="12.999258">
                <ele>61.300000</ele>
                <time>2019-03-16T06:05:54Z</time>
            </trkpt>
            <trkpt lon="101.547568" lat="12.999261">
                <ele>61.300000</ele>
                <time>2019-03-16T06:05:55Z</time>
            </trkpt>
            <trkpt lon="101.547601" lat="12.999266">
                <ele>61.300000</ele>
                <time>2019-03-16T06:05:56Z</time>
            </trkpt>
            <trkpt lon="101.547630" lat="12.999269">
                <ele>61.300000</ele>
                <time>2019-03-16T06:05:57Z</time>
            </trkpt>
            <trkpt lon="101.547666" lat="12.999277">
                <ele>61.300000</ele>
                <time>2019-03-16T06:05:58Z</time>
            </trkpt>
            <trkpt lon="101.547726" lat="12.999281">
                <ele>61.300000</ele>
                <time>2019-03-16T06:05:59Z</time>
            </trkpt>
            <trkpt lon="101.547770" lat="12.999282">
                <ele>61.100000</ele>
                <time>2019-03-16T06:06:00Z</time>
            </trkpt>
            <trkpt lon="101.547807" lat="12.999289">
                <ele>60.900000</ele>
                <time>2019-03-16T06:06:01Z</time>
            </trkpt>
            <trkpt lon="101.547839" lat="12.999298">
                <ele>60.800000</ele>
                <time>2019-03-16T06:06:02Z</time>
            </trkpt>
            <trkpt lon="101.547892" lat="12.999308">
                <ele>60.600000</ele>
                <time>2019-03-16T06:06:04Z</time>
            </trkpt>
            <trkpt lon="101.547925" lat="12.999315">
                <ele>60.700000</ele>
                <time>2019-03-16T06:06:05Z</time>
            </trkpt>
            <trkpt lon="101.547976" lat="12.999326">
                <ele>60.900000</ele>
                <time>2019-03-16T06:06:07Z</time>
            </trkpt>
            <trkpt lon="101.548008" lat="12.999330">
                <ele>61.100000</ele>
                <time>2019-03-16T06:06:08Z</time>
            </trkpt>
            <trkpt lon="101.548064" lat="12.999341">
                <ele>61.400000</ele>
                <time>2019-03-16T06:06:10Z</time>
            </trkpt>
            <trkpt lon="101.548108" lat="12.999350">
                <ele>61.400000</ele>
                <time>2019-03-16T06:06:11Z</time>
            </trkpt>
            <trkpt lon="101.548179" lat="12.999352">
                <ele>61.400000</ele>
                <time>2019-03-16T06:06:12Z</time>
            </trkpt>
            <trkpt lon="101.548246" lat="12.999351">
                <ele>61.400000</ele>
                <time>2019-03-16T06:06:13Z</time>
            </trkpt>
            <trkpt lon="101.548288" lat="12.999352">
                <ele>61.500000</ele>
                <time>2019-03-16T06:06:14Z</time>
            </trkpt>
            <trkpt lon="101.548334" lat="12.999358">
                <ele>61.700000</ele>
                <time>2019-03-16T06:06:15Z</time>
            </trkpt>
            <trkpt lon="101.548395" lat="12.999363">
                <ele>62.000000</ele>
                <time>2019-03-16T06:06:16Z</time>
            </trkpt>
            <trkpt lon="101.548445" lat="12.999383">
                <ele>61.900000</ele>
                <time>2019-03-16T06:06:18Z</time>
            </trkpt>
            <trkpt lon="101.548483" lat="12.999386">
                <ele>62.100000</ele>
                <time>2019-03-16T06:06:19Z</time>
            </trkpt>
            <trkpt lon="101.548530" lat="12.999391">
                <ele>62.200000</ele>
                <time>2019-03-16T06:06:20Z</time>
            </trkpt>
            <trkpt lon="101.548570" lat="12.999392">
                <ele>62.400000</ele>
                <time>2019-03-16T06:06:21Z</time>
            </trkpt>
            <trkpt lon="101.548602" lat="12.999406">
                <ele>62.400000</ele>
                <time>2019-03-16T06:06:22Z</time>
            </trkpt>
            <trkpt lon="101.548648" lat="12.999407">
                <ele>63.000000</ele>
                <time>2019-03-16T06:06:23Z</time>
            </trkpt>
            <trkpt lon="101.548689" lat="12.999408">
                <ele>63.000000</ele>
                <time>2019-03-16T06:06:24Z</time>
            </trkpt>
            <trkpt lon="101.548750" lat="12.999412">
                <ele>63.700000</ele>
                <time>2019-03-16T06:06:25Z</time>
            </trkpt>
            <trkpt lon="101.548795" lat="12.999420">
                <ele>63.700000</ele>
                <time>2019-03-16T06:06:26Z</time>
            </trkpt>
            <trkpt lon="101.548841" lat="12.999425">
                <ele>63.900000</ele>
                <time>2019-03-16T06:06:27Z</time>
            </trkpt>
            <trkpt lon="101.548886" lat="12.999430">
                <ele>64.100000</ele>
                <time>2019-03-16T06:06:28Z</time>
            </trkpt>
            <trkpt lon="101.548934" lat="12.999430">
                <ele>64.400000</ele>
                <time>2019-03-16T06:06:29Z</time>
            </trkpt>
            <trkpt lon="101.548975" lat="12.999435">
                <ele>64.300000</ele>
                <time>2019-03-16T06:06:30Z</time>
            </trkpt>
            <trkpt lon="101.549006" lat="12.999439">
                <ele>64.000000</ele>
                <time>2019-03-16T06:06:31Z</time>
            </trkpt>
            <trkpt lon="101.549048" lat="12.999441">
                <ele>63.800000</ele>
                <time>2019-03-16T06:06:33Z</time>
            </trkpt>
            <trkpt lon="101.549078" lat="12.999443">
                <ele>63.500000</ele>
                <time>2019-03-16T06:06:34Z</time>
            </trkpt>
            <trkpt lon="101.549107" lat="12.999445">
                <ele>63.500000</ele>
                <time>2019-03-16T06:06:35Z</time>
            </trkpt>
            <trkpt lon="101.549140" lat="12.999448">
                <ele>63.300000</ele>
                <time>2019-03-16T06:06:36Z</time>
            </trkpt>
            <trkpt lon="101.549196" lat="12.999443">
                <ele>63.000000</ele>
                <time>2019-03-16T06:06:38Z</time>
            </trkpt>
            <trkpt lon="101.549232" lat="12.999440">
                <ele>62.800000</ele>
                <time>2019-03-16T06:06:39Z</time>
            </trkpt>
            <trkpt lon="101.549261" lat="12.999439">
                <ele>62.500000</ele>
                <time>2019-03-16T06:06:40Z</time>
            </trkpt>
            <trkpt lon="101.549291" lat="12.999436">
                <ele>62.500000</ele>
                <time>2019-03-16T06:06:41Z</time>
            </trkpt>
            <trkpt lon="101.549342" lat="12.999427">
                <ele>62.400000</ele>
                <time>2019-03-16T06:06:42Z</time>
            </trkpt>
            <trkpt lon="101.549389" lat="12.999431">
                <ele>62.400000</ele>
                <time>2019-03-16T06:06:43Z</time>
            </trkpt>
            <trkpt lon="101.549479" lat="12.999454">
                <ele>62.400000</ele>
                <time>2019-03-16T06:06:44Z</time>
            </trkpt>
            <trkpt lon="101.549555" lat="12.999454">
                <ele>62.500000</ele>
                <time>2019-03-16T06:06:45Z</time>
            </trkpt>
            <trkpt lon="101.549618" lat="12.999472">
                <ele>62.400000</ele>
                <time>2019-03-16T06:06:46Z</time>
            </trkpt>
            <trkpt lon="101.549701" lat="12.999480">
                <ele>62.000000</ele>
                <time>2019-03-16T06:06:47Z</time>
            </trkpt>
            <trkpt lon="101.549778" lat="12.999473">
                <ele>61.500000</ele>
                <time>2019-03-16T06:06:48Z</time>
            </trkpt>
            <trkpt lon="101.549843" lat="12.999472">
                <ele>61.100000</ele>
                <time>2019-03-16T06:06:49Z</time>
            </trkpt>
            <trkpt lon="101.549878" lat="12.999470">
                <ele>60.600000</ele>
                <time>2019-03-16T06:06:50Z</time>
            </trkpt>
            <trkpt lon="101.549928" lat="12.999475">
                <ele>60.100000</ele>
                <time>2019-03-16T06:06:51Z</time>
            </trkpt>
            <trkpt lon="101.549969" lat="12.999483">
                <ele>59.600000</ele>
                <time>2019-03-16T06:06:52Z</time>
            </trkpt>
            <trkpt lon="101.550014" lat="12.999491">
                <ele>59.100000</ele>
                <time>2019-03-16T06:06:53Z</time>
            </trkpt>
            <trkpt lon="101.550065" lat="12.999496">
                <ele>58.100000</ele>
                <time>2019-03-16T06:06:54Z</time>
            </trkpt>
            <trkpt lon="101.550112" lat="12.999511">
                <ele>57.600000</ele>
                <time>2019-03-16T06:06:55Z</time>
            </trkpt>
            <trkpt lon="101.550154" lat="12.999526">
                <ele>57.200000</ele>
                <time>2019-03-16T06:06:56Z</time>
            </trkpt>
            <trkpt lon="101.550198" lat="12.999529">
                <ele>56.800000</ele>
                <time>2019-03-16T06:06:57Z</time>
            </trkpt>
            <trkpt lon="101.550235" lat="12.999532">
                <ele>56.800000</ele>
                <time>2019-03-16T06:06:58Z</time>
            </trkpt>
            <trkpt lon="101.550268" lat="12.999532">
                <ele>56.400000</ele>
                <time>2019-03-16T06:06:59Z</time>
            </trkpt>
            <trkpt lon="101.550312" lat="12.999519">
                <ele>56.000000</ele>
                <time>2019-03-16T06:07:00Z</time>
            </trkpt>
            <trkpt lon="101.550341" lat="12.999524">
                <ele>55.500000</ele>
                <time>2019-03-16T06:07:01Z</time>
            </trkpt>
            <trkpt lon="101.550429" lat="12.999527">
                <ele>54.500000</ele>
                <time>2019-03-16T06:07:02Z</time>
            </trkpt>
            <trkpt lon="101.550530" lat="12.999534">
                <ele>53.600000</ele>
                <time>2019-03-16T06:07:03Z</time>
            </trkpt>
            <trkpt lon="101.550621" lat="12.999511">
                <ele>52.700000</ele>
                <time>2019-03-16T06:07:04Z</time>
            </trkpt>
            <trkpt lon="101.550672" lat="12.999518">
                <ele>51.900000</ele>
                <time>2019-03-16T06:07:05Z</time>
            </trkpt>
            <trkpt lon="101.550702" lat="12.999553">
                <ele>52.400000</ele>
                <time>2019-03-16T06:07:07Z</time>
            </trkpt>
            <trkpt lon="101.550729" lat="12.999572">
                <ele>51.900000</ele>
                <time>2019-03-16T06:07:08Z</time>
            </trkpt>
            <trkpt lon="101.550755" lat="12.999583">
                <ele>51.900000</ele>
                <time>2019-03-16T06:07:12Z</time>
            </trkpt>
            <trkpt lon="101.550794" lat="12.999584">
                <ele>51.400000</ele>
                <time>2019-03-16T06:07:18Z</time>
            </trkpt>
            <trkpt lon="101.550835" lat="12.999549">
                <ele>50.900000</ele>
                <time>2019-03-16T06:07:20Z</time>
            </trkpt>
            <trkpt lon="101.550860" lat="12.999519">
                <ele>49.700000</ele>
                <time>2019-03-16T06:07:21Z</time>
            </trkpt>
            <trkpt lon="101.550880" lat="12.999482">
                <ele>48.500000</ele>
                <time>2019-03-16T06:07:22Z</time>
            </trkpt>
            <trkpt lon="101.550898" lat="12.999439">
                <ele>48.000000</ele>
                <time>2019-03-16T06:07:23Z</time>
            </trkpt>
            <trkpt lon="101.550914" lat="12.999401">
                <ele>47.600000</ele>
                <time>2019-03-16T06:07:24Z</time>
            </trkpt>
            <trkpt lon="101.550928" lat="12.999357">
                <ele>46.600000</ele>
                <time>2019-03-16T06:07:25Z</time>
            </trkpt>
            <trkpt lon="101.550943" lat="12.999323">
                <ele>46.500000</ele>
                <time>2019-03-16T06:07:26Z</time>
            </trkpt>
            <trkpt lon="101.550958" lat="12.999289">
                <ele>46.500000</ele>
                <time>2019-03-16T06:07:27Z</time>
            </trkpt>
            <trkpt lon="101.550970" lat="12.999258">
                <ele>46.400000</ele>
                <time>2019-03-16T06:07:28Z</time>
            </trkpt>
            <trkpt lon="101.550983" lat="12.999220">
                <ele>46.300000</ele>
                <time>2019-03-16T06:07:29Z</time>
            </trkpt>
            <trkpt lon="101.550996" lat="12.999180">
                <ele>46.100000</ele>
                <time>2019-03-16T06:07:30Z</time>
            </trkpt>
            <trkpt lon="101.551015" lat="12.999123">
                <ele>46.000000</ele>
                <time>2019-03-16T06:07:31Z</time>
            </trkpt>
            <trkpt lon="101.551029" lat="12.999082">
                <ele>45.900000</ele>
                <time>2019-03-16T06:07:32Z</time>
            </trkpt>
            <trkpt lon="101.551043" lat="12.999041">
                <ele>45.800000</ele>
                <time>2019-03-16T06:07:33Z</time>
            </trkpt>
            <trkpt lon="101.551054" lat="12.998995">
                <ele>45.700000</ele>
                <time>2019-03-16T06:07:34Z</time>
            </trkpt>
            <trkpt lon="101.551066" lat="12.998954">
                <ele>45.600000</ele>
                <time>2019-03-16T06:07:35Z</time>
            </trkpt>
            <trkpt lon="101.551076" lat="12.998918">
                <ele>45.500000</ele>
                <time>2019-03-16T06:07:36Z</time>
            </trkpt>
            <trkpt lon="101.551086" lat="12.998878">
                <ele>45.400000</ele>
                <time>2019-03-16T06:07:37Z</time>
            </trkpt>
            <trkpt lon="101.551095" lat="12.998826">
                <ele>45.200000</ele>
                <time>2019-03-16T06:07:38Z</time>
            </trkpt>
            <trkpt lon="101.551104" lat="12.998780">
                <ele>45.100000</ele>
                <time>2019-03-16T06:07:39Z</time>
            </trkpt>
            <trkpt lon="101.551113" lat="12.998733">
                <ele>45.000000</ele>
                <time>2019-03-16T06:07:40Z</time>
            </trkpt>
            <trkpt lon="101.551116" lat="12.998680">
                <ele>44.800000</ele>
                <time>2019-03-16T06:07:41Z</time>
            </trkpt>
            <trkpt lon="101.551123" lat="12.998619">
                <ele>44.600000</ele>
                <time>2019-03-16T06:07:42Z</time>
            </trkpt>
            <trkpt lon="101.551130" lat="12.998579">
                <ele>44.500000</ele>
                <time>2019-03-16T06:07:43Z</time>
            </trkpt>
            <trkpt lon="101.551139" lat="12.998534">
                <ele>44.400000</ele>
                <time>2019-03-16T06:07:44Z</time>
            </trkpt>
            <trkpt lon="101.551147" lat="12.998494">
                <ele>44.200000</ele>
                <time>2019-03-16T06:07:45Z</time>
            </trkpt>
            <trkpt lon="101.551156" lat="12.998452">
                <ele>44.100000</ele>
                <time>2019-03-16T06:07:46Z</time>
            </trkpt>
            <trkpt lon="101.551165" lat="12.998406">
                <ele>44.000000</ele>
                <time>2019-03-16T06:07:47Z</time>
            </trkpt>
            <trkpt lon="101.551171" lat="12.998371">
                <ele>43.900000</ele>
                <time>2019-03-16T06:07:48Z</time>
            </trkpt>
            <trkpt lon="101.551183" lat="12.998327">
                <ele>43.700000</ele>
                <time>2019-03-16T06:07:49Z</time>
            </trkpt>
            <trkpt lon="101.551194" lat="12.998279">
                <ele>43.600000</ele>
                <time>2019-03-16T06:07:50Z</time>
            </trkpt>
            <trkpt lon="101.551203" lat="12.998231">
                <ele>43.400000</ele>
                <time>2019-03-16T06:07:51Z</time>
            </trkpt>
            <trkpt lon="101.551211" lat="12.998174">
                <ele>43.300000</ele>
                <time>2019-03-16T06:07:52Z</time>
            </trkpt>
            <trkpt lon="101.551217" lat="12.998123">
                <ele>43.100000</ele>
                <time>2019-03-16T06:07:53Z</time>
            </trkpt>
            <trkpt lon="101.551219" lat="12.998077">
                <ele>43.000000</ele>
                <time>2019-03-16T06:07:54Z</time>
            </trkpt>
            <trkpt lon="101.551222" lat="12.998020">
                <ele>42.800000</ele>
                <time>2019-03-16T06:07:55Z</time>
            </trkpt>
            <trkpt lon="101.551243" lat="12.997983">
                <ele>42.700000</ele>
                <time>2019-03-16T06:07:56Z</time>
            </trkpt>
            <trkpt lon="101.551302" lat="12.997987">
                <ele>42.200000</ele>
                <time>2019-03-16T06:07:58Z</time>
            </trkpt>
            <trkpt lon="101.551334" lat="12.998012">
                <ele>41.400000</ele>
                <time>2019-03-16T06:07:59Z</time>
            </trkpt>
            <trkpt lon="101.551370" lat="12.998042">
                <ele>40.900000</ele>
                <time>2019-03-16T06:08:00Z</time>
            </trkpt>
            <trkpt lon="101.551404" lat="12.998070">
                <ele>40.800000</ele>
                <time>2019-03-16T06:08:01Z</time>
            </trkpt>
            <trkpt lon="101.551437" lat="12.998097">
                <ele>40.700000</ele>
                <time>2019-03-16T06:08:02Z</time>
            </trkpt>
            <trkpt lon="101.551474" lat="12.998122">
                <ele>40.600000</ele>
                <time>2019-03-16T06:08:03Z</time>
            </trkpt>
            <trkpt lon="101.551514" lat="12.998139">
                <ele>40.600000</ele>
                <time>2019-03-16T06:08:04Z</time>
            </trkpt>
            <trkpt lon="101.551560" lat="12.998148">
                <ele>40.600000</ele>
                <time>2019-03-16T06:08:05Z</time>
            </trkpt>
            <trkpt lon="101.551607" lat="12.998152">
                <ele>40.600000</ele>
                <time>2019-03-16T06:08:06Z</time>
            </trkpt>
            <trkpt lon="101.551655" lat="12.998145">
                <ele>40.600000</ele>
                <time>2019-03-16T06:08:07Z</time>
            </trkpt>
            <trkpt lon="101.551698" lat="12.998129">
                <ele>40.700000</ele>
                <time>2019-03-16T06:08:08Z</time>
            </trkpt>
            <trkpt lon="101.551739" lat="12.998109">
                <ele>41.000000</ele>
                <time>2019-03-16T06:08:09Z</time>
            </trkpt>
            <trkpt lon="101.551775" lat="12.998085">
                <ele>41.000000</ele>
                <time>2019-03-16T06:08:10Z</time>
            </trkpt>
            <trkpt lon="101.551804" lat="12.998059">
                <ele>41.300000</ele>
                <time>2019-03-16T06:08:11Z</time>
            </trkpt>
            <trkpt lon="101.551832" lat="12.998030">
                <ele>41.500000</ele>
                <time>2019-03-16T06:08:12Z</time>
            </trkpt>
            <trkpt lon="101.551857" lat="12.998000">
                <ele>41.500000</ele>
                <time>2019-03-16T06:08:13Z</time>
            </trkpt>
            <trkpt lon="101.551885" lat="12.997966">
                <ele>41.500000</ele>
                <time>2019-03-16T06:08:14Z</time>
            </trkpt>
            <trkpt lon="101.551912" lat="12.997933">
                <ele>41.500000</ele>
                <time>2019-03-16T06:08:15Z</time>
            </trkpt>
            <trkpt lon="101.551938" lat="12.997900">
                <ele>41.500000</ele>
                <time>2019-03-16T06:08:16Z</time>
            </trkpt>
            <trkpt lon="101.551961" lat="12.997868">
                <ele>41.500000</ele>
                <time>2019-03-16T06:08:17Z</time>
            </trkpt>
            <trkpt lon="101.551982" lat="12.997836">
                <ele>41.500000</ele>
                <time>2019-03-16T06:08:18Z</time>
            </trkpt>
            <trkpt lon="101.552008" lat="12.997800">
                <ele>41.500000</ele>
                <time>2019-03-16T06:08:19Z</time>
            </trkpt>
            <trkpt lon="101.552030" lat="12.997766">
                <ele>41.500000</ele>
                <time>2019-03-16T06:08:20Z</time>
            </trkpt>
            <trkpt lon="101.552053" lat="12.997732">
                <ele>41.500000</ele>
                <time>2019-03-16T06:08:21Z</time>
            </trkpt>
            <trkpt lon="101.552076" lat="12.997697">
                <ele>41.500000</ele>
                <time>2019-03-16T06:08:22Z</time>
            </trkpt>
            <trkpt lon="101.552097" lat="12.997661">
                <ele>41.500000</ele>
                <time>2019-03-16T06:08:23Z</time>
            </trkpt>
            <trkpt lon="101.552124" lat="12.997622">
                <ele>41.400000</ele>
                <time>2019-03-16T06:08:24Z</time>
            </trkpt>
            <trkpt lon="101.552158" lat="12.997580">
                <ele>41.400000</ele>
                <time>2019-03-16T06:08:25Z</time>
            </trkpt>
            <trkpt lon="101.552186" lat="12.997545">
                <ele>41.400000</ele>
                <time>2019-03-16T06:08:26Z</time>
            </trkpt>
            <trkpt lon="101.552213" lat="12.997510">
                <ele>41.500000</ele>
                <time>2019-03-16T06:08:27Z</time>
            </trkpt>
            <trkpt lon="101.552240" lat="12.997473">
                <ele>41.400000</ele>
                <time>2019-03-16T06:08:28Z</time>
            </trkpt>
            <trkpt lon="101.552267" lat="12.997436">
                <ele>41.300000</ele>
                <time>2019-03-16T06:08:29Z</time>
            </trkpt>
            <trkpt lon="101.552290" lat="12.997399">
                <ele>41.200000</ele>
                <time>2019-03-16T06:08:30Z</time>
            </trkpt>
            <trkpt lon="101.552313" lat="12.997361">
                <ele>41.200000</ele>
                <time>2019-03-16T06:08:31Z</time>
            </trkpt>
            <trkpt lon="101.552334" lat="12.997320">
                <ele>41.100000</ele>
                <time>2019-03-16T06:08:32Z</time>
            </trkpt>
            <trkpt lon="101.552357" lat="12.997281">
                <ele>41.200000</ele>
                <time>2019-03-16T06:08:33Z</time>
            </trkpt>
            <trkpt lon="101.552380" lat="12.997244">
                <ele>41.200000</ele>
                <time>2019-03-16T06:08:34Z</time>
            </trkpt>
            <trkpt lon="101.552399" lat="12.997206">
                <ele>41.000000</ele>
                <time>2019-03-16T06:08:35Z</time>
            </trkpt>
            <trkpt lon="101.552421" lat="12.997164">
                <ele>40.800000</ele>
                <time>2019-03-16T06:08:36Z</time>
            </trkpt>
            <trkpt lon="101.552444" lat="12.997122">
                <ele>40.500000</ele>
                <time>2019-03-16T06:08:37Z</time>
            </trkpt>
            <trkpt lon="101.552464" lat="12.997082">
                <ele>40.300000</ele>
                <time>2019-03-16T06:08:38Z</time>
            </trkpt>
            <trkpt lon="101.552485" lat="12.997042">
                <ele>40.000000</ele>
                <time>2019-03-16T06:08:39Z</time>
            </trkpt>
            <trkpt lon="101.552505" lat="12.997003">
                <ele>39.700000</ele>
                <time>2019-03-16T06:08:40Z</time>
            </trkpt>
            <trkpt lon="101.552523" lat="12.996966">
                <ele>39.500000</ele>
                <time>2019-03-16T06:08:41Z</time>
            </trkpt>
            <trkpt lon="101.552538" lat="12.996929">
                <ele>39.200000</ele>
                <time>2019-03-16T06:08:42Z</time>
            </trkpt>
            <trkpt lon="101.552553" lat="12.996892">
                <ele>39.000000</ele>
                <time>2019-03-16T06:08:43Z</time>
            </trkpt>
            <trkpt lon="101.552571" lat="12.996853">
                <ele>38.800000</ele>
                <time>2019-03-16T06:08:44Z</time>
            </trkpt>
            <trkpt lon="101.552591" lat="12.996814">
                <ele>38.600000</ele>
                <time>2019-03-16T06:08:45Z</time>
            </trkpt>
            <trkpt lon="101.552614" lat="12.996774">
                <ele>38.700000</ele>
                <time>2019-03-16T06:08:46Z</time>
            </trkpt>
            <trkpt lon="101.552635" lat="12.996736">
                <ele>38.700000</ele>
                <time>2019-03-16T06:08:47Z</time>
            </trkpt>
            <trkpt lon="101.552656" lat="12.996698">
                <ele>38.900000</ele>
                <time>2019-03-16T06:08:48Z</time>
            </trkpt>
            <trkpt lon="101.552676" lat="12.996663">
                <ele>38.900000</ele>
                <time>2019-03-16T06:08:49Z</time>
            </trkpt>
            <trkpt lon="101.552697" lat="12.996629">
                <ele>39.100000</ele>
                <time>2019-03-16T06:08:50Z</time>
            </trkpt>
            <trkpt lon="101.552721" lat="12.996594">
                <ele>39.200000</ele>
                <time>2019-03-16T06:08:51Z</time>
            </trkpt>
            <trkpt lon="101.552746" lat="12.996561">
                <ele>39.700000</ele>
                <time>2019-03-16T06:08:52Z</time>
            </trkpt>
            <trkpt lon="101.552773" lat="12.996529">
                <ele>40.000000</ele>
                <time>2019-03-16T06:08:53Z</time>
            </trkpt>
            <trkpt lon="101.552798" lat="12.996501">
                <ele>40.000000</ele>
                <time>2019-03-16T06:08:54Z</time>
            </trkpt>
            <trkpt lon="101.552825" lat="12.996475">
                <ele>40.200000</ele>
                <time>2019-03-16T06:08:55Z</time>
            </trkpt>
            <trkpt lon="101.552855" lat="12.996453">
                <ele>40.200000</ele>
                <time>2019-03-16T06:08:56Z</time>
            </trkpt>
            <trkpt lon="101.552884" lat="12.996429">
                <ele>40.200000</ele>
                <time>2019-03-16T06:08:57Z</time>
            </trkpt>
            <trkpt lon="101.552917" lat="12.996401">
                <ele>40.200000</ele>
                <time>2019-03-16T06:08:58Z</time>
            </trkpt>
            <trkpt lon="101.552949" lat="12.996376">
                <ele>40.200000</ele>
                <time>2019-03-16T06:08:59Z</time>
            </trkpt>
            <trkpt lon="101.552983" lat="12.996350">
                <ele>40.200000</ele>
                <time>2019-03-16T06:09:00Z</time>
            </trkpt>
            <trkpt lon="101.553017" lat="12.996325">
                <ele>40.200000</ele>
                <time>2019-03-16T06:09:01Z</time>
            </trkpt>
            <trkpt lon="101.553051" lat="12.996299">
                <ele>40.200000</ele>
                <time>2019-03-16T06:09:02Z</time>
            </trkpt>
            <trkpt lon="101.553083" lat="12.996275">
                <ele>40.300000</ele>
                <time>2019-03-16T06:09:03Z</time>
            </trkpt>
            <trkpt lon="101.553114" lat="12.996251">
                <ele>40.200000</ele>
                <time>2019-03-16T06:09:04Z</time>
            </trkpt>
            <trkpt lon="101.553148" lat="12.996224">
                <ele>40.400000</ele>
                <time>2019-03-16T06:09:05Z</time>
            </trkpt>
            <trkpt lon="101.553187" lat="12.996197">
                <ele>40.300000</ele>
                <time>2019-03-16T06:09:06Z</time>
            </trkpt>
            <trkpt lon="101.553225" lat="12.996171">
                <ele>40.200000</ele>
                <time>2019-03-16T06:09:07Z</time>
            </trkpt>
            <trkpt lon="101.553264" lat="12.996145">
                <ele>40.200000</ele>
                <time>2019-03-16T06:09:08Z</time>
            </trkpt>
            <trkpt lon="101.553299" lat="12.996121">
                <ele>40.200000</ele>
                <time>2019-03-16T06:09:09Z</time>
            </trkpt>
            <trkpt lon="101.553338" lat="12.996095">
                <ele>40.100000</ele>
                <time>2019-03-16T06:09:10Z</time>
            </trkpt>
            <trkpt lon="101.553370" lat="12.996076">
                <ele>40.100000</ele>
                <time>2019-03-16T06:09:11Z</time>
            </trkpt>
            <trkpt lon="101.553404" lat="12.996056">
                <ele>39.800000</ele>
                <time>2019-03-16T06:09:12Z</time>
            </trkpt>
            <trkpt lon="101.553435" lat="12.996036">
                <ele>39.800000</ele>
                <time>2019-03-16T06:09:13Z</time>
            </trkpt>
            <trkpt lon="101.553466" lat="12.996016">
                <ele>39.300000</ele>
                <time>2019-03-16T06:09:14Z</time>
            </trkpt>
            <trkpt lon="101.553498" lat="12.995996">
                <ele>39.200000</ele>
                <time>2019-03-16T06:09:15Z</time>
            </trkpt>
            <trkpt lon="101.553530" lat="12.995975">
                <ele>38.800000</ele>
                <time>2019-03-16T06:09:16Z</time>
            </trkpt>
            <trkpt lon="101.553565" lat="12.995949">
                <ele>38.600000</ele>
                <time>2019-03-16T06:09:17Z</time>
            </trkpt>
            <trkpt lon="101.553597" lat="12.995926">
                <ele>38.100000</ele>
                <time>2019-03-16T06:09:18Z</time>
            </trkpt>
            <trkpt lon="101.553627" lat="12.995905">
                <ele>38.300000</ele>
                <time>2019-03-16T06:09:19Z</time>
            </trkpt>
            <trkpt lon="101.553663" lat="12.995878">
                <ele>38.000000</ele>
                <time>2019-03-16T06:09:20Z</time>
            </trkpt>
            <trkpt lon="101.553694" lat="12.995857">
                <ele>37.700000</ele>
                <time>2019-03-16T06:09:21Z</time>
            </trkpt>
            <trkpt lon="101.553726" lat="12.995836">
                <ele>37.800000</ele>
                <time>2019-03-16T06:09:22Z</time>
            </trkpt>
            <trkpt lon="101.553759" lat="12.995815">
                <ele>37.500000</ele>
                <time>2019-03-16T06:09:23Z</time>
            </trkpt>
            <trkpt lon="101.553792" lat="12.995796">
                <ele>37.500000</ele>
                <time>2019-03-16T06:09:24Z</time>
            </trkpt>
            <trkpt lon="101.553827" lat="12.995775">
                <ele>37.300000</ele>
                <time>2019-03-16T06:09:25Z</time>
            </trkpt>
            <trkpt lon="101.553862" lat="12.995754">
                <ele>37.500000</ele>
                <time>2019-03-16T06:09:26Z</time>
            </trkpt>
            <trkpt lon="101.553894" lat="12.995739">
                <ele>37.700000</ele>
                <time>2019-03-16T06:09:27Z</time>
            </trkpt>
            <trkpt lon="101.553930" lat="12.995722">
                <ele>37.300000</ele>
                <time>2019-03-16T06:09:28Z</time>
            </trkpt>
            <trkpt lon="101.553970" lat="12.995702">
                <ele>37.100000</ele>
                <time>2019-03-16T06:09:29Z</time>
            </trkpt>
            <trkpt lon="101.554009" lat="12.995682">
                <ele>36.700000</ele>
                <time>2019-03-16T06:09:30Z</time>
            </trkpt>
            <trkpt lon="101.554048" lat="12.995664">
                <ele>36.600000</ele>
                <time>2019-03-16T06:09:31Z</time>
            </trkpt>
            <trkpt lon="101.554084" lat="12.995648">
                <ele>36.200000</ele>
                <time>2019-03-16T06:09:32Z</time>
            </trkpt>
            <trkpt lon="101.554115" lat="12.995637">
                <ele>36.100000</ele>
                <time>2019-03-16T06:09:33Z</time>
            </trkpt>
            <trkpt lon="101.554151" lat="12.995625">
                <ele>36.100000</ele>
                <time>2019-03-16T06:09:34Z</time>
            </trkpt>
            <trkpt lon="101.554185" lat="12.995616">
                <ele>36.000000</ele>
                <time>2019-03-16T06:09:35Z</time>
            </trkpt>
            <trkpt lon="101.554216" lat="12.995610">
                <ele>36.000000</ele>
                <time>2019-03-16T06:09:36Z</time>
            </trkpt>
            <trkpt lon="101.554248" lat="12.995603">
                <ele>35.900000</ele>
                <time>2019-03-16T06:09:37Z</time>
            </trkpt>
            <trkpt lon="101.554283" lat="12.995598">
                <ele>35.800000</ele>
                <time>2019-03-16T06:09:38Z</time>
            </trkpt>
            <trkpt lon="101.554318" lat="12.995596">
                <ele>35.600000</ele>
                <time>2019-03-16T06:09:39Z</time>
            </trkpt>
            <trkpt lon="101.554350" lat="12.995594">
                <ele>35.600000</ele>
                <time>2019-03-16T06:09:40Z</time>
            </trkpt>
            <trkpt lon="101.554385" lat="12.995591">
                <ele>35.300000</ele>
                <time>2019-03-16T06:09:41Z</time>
            </trkpt>
            <trkpt lon="101.554415" lat="12.995599">
                <ele>35.100000</ele>
                <time>2019-03-16T06:09:42Z</time>
            </trkpt>
            <trkpt lon="101.554472" lat="12.995600">
                <ele>34.900000</ele>
                <time>2019-03-16T06:09:44Z</time>
            </trkpt>
            <trkpt lon="101.554529" lat="12.995603">
                <ele>34.900000</ele>
                <time>2019-03-16T06:09:46Z</time>
            </trkpt>
            <trkpt lon="101.554556" lat="12.995612">
                <ele>35.000000</ele>
                <time>2019-03-16T06:09:47Z</time>
            </trkpt>
            <trkpt lon="101.554584" lat="12.995615">
                <ele>34.900000</ele>
                <time>2019-03-16T06:09:48Z</time>
            </trkpt>
            <trkpt lon="101.554637" lat="12.995627">
                <ele>34.900000</ele>
                <time>2019-03-16T06:09:50Z</time>
            </trkpt>
            <trkpt lon="101.554666" lat="12.995631">
                <ele>35.000000</ele>
                <time>2019-03-16T06:09:51Z</time>
            </trkpt>
            <trkpt lon="101.554695" lat="12.995637">
                <ele>34.900000</ele>
                <time>2019-03-16T06:09:52Z</time>
            </trkpt>
            <trkpt lon="101.554743" lat="12.995644">
                <ele>35.000000</ele>
                <time>2019-03-16T06:09:54Z</time>
            </trkpt>
            <trkpt lon="101.554790" lat="12.995650">
                <ele>35.200000</ele>
                <time>2019-03-16T06:09:56Z</time>
            </trkpt>
            <trkpt lon="101.554845" lat="12.995652">
                <ele>35.800000</ele>
                <time>2019-03-16T06:09:58Z</time>
            </trkpt>
            <trkpt lon="101.554879" lat="12.995656">
                <ele>36.200000</ele>
                <time>2019-03-16T06:09:59Z</time>
            </trkpt>
            <trkpt lon="101.554916" lat="12.995660">
                <ele>36.600000</ele>
                <time>2019-03-16T06:10:00Z</time>
            </trkpt>
            <trkpt lon="101.554951" lat="12.995662">
                <ele>36.600000</ele>
                <time>2019-03-16T06:10:01Z</time>
            </trkpt>
            <trkpt lon="101.554985" lat="12.995664">
                <ele>36.900000</ele>
                <time>2019-03-16T06:10:02Z</time>
            </trkpt>
            <trkpt lon="101.555016" lat="12.995666">
                <ele>37.000000</ele>
                <time>2019-03-16T06:10:03Z</time>
            </trkpt>
            <trkpt lon="101.555045" lat="12.995669">
                <ele>37.100000</ele>
                <time>2019-03-16T06:10:04Z</time>
            </trkpt>
            <trkpt lon="101.555097" lat="12.995673">
                <ele>37.200000</ele>
                <time>2019-03-16T06:10:06Z</time>
            </trkpt>
            <trkpt lon="101.555150" lat="12.995679">
                <ele>37.200000</ele>
                <time>2019-03-16T06:10:08Z</time>
            </trkpt>
            <trkpt lon="101.555206" lat="12.995683">
                <ele>37.200000</ele>
                <time>2019-03-16T06:10:10Z</time>
            </trkpt>
            <trkpt lon="101.555234" lat="12.995687">
                <ele>37.200000</ele>
                <time>2019-03-16T06:10:11Z</time>
            </trkpt>
            <trkpt lon="101.555293" lat="12.995688">
                <ele>37.200000</ele>
                <time>2019-03-16T06:10:13Z</time>
            </trkpt>
            <trkpt lon="101.555322" lat="12.995689">
                <ele>37.200000</ele>
                <time>2019-03-16T06:10:14Z</time>
            </trkpt>
            <trkpt lon="101.555373" lat="12.995696">
                <ele>37.500000</ele>
                <time>2019-03-16T06:10:16Z</time>
            </trkpt>
            <trkpt lon="101.555415" lat="12.995715">
                <ele>37.500000</ele>
                <time>2019-03-16T06:10:18Z</time>
            </trkpt>
            <trkpt lon="101.555450" lat="12.995735">
                <ele>37.700000</ele>
                <time>2019-03-16T06:10:20Z</time>
            </trkpt>
            <trkpt lon="101.555485" lat="12.995771">
                <ele>37.700000</ele>
                <time>2019-03-16T06:10:22Z</time>
            </trkpt>
            <trkpt lon="101.555506" lat="12.995789">
                <ele>38.100000</ele>
                <time>2019-03-16T06:10:23Z</time>
            </trkpt>
            <trkpt lon="101.555530" lat="12.995808">
                <ele>38.100000</ele>
                <time>2019-03-16T06:10:24Z</time>
            </trkpt>
            <trkpt lon="101.555552" lat="12.995826">
                <ele>38.600000</ele>
                <time>2019-03-16T06:10:25Z</time>
            </trkpt>
            <trkpt lon="101.555596" lat="12.995862">
                <ele>39.100000</ele>
                <time>2019-03-16T06:10:27Z</time>
            </trkpt>
            <trkpt lon="101.555618" lat="12.995880">
                <ele>39.100000</ele>
                <time>2019-03-16T06:10:28Z</time>
            </trkpt>
            <trkpt lon="101.555653" lat="12.995915">
                <ele>39.500000</ele>
                <time>2019-03-16T06:10:30Z</time>
            </trkpt>
            <trkpt lon="101.555683" lat="12.995950">
                <ele>39.600000</ele>
                <time>2019-03-16T06:10:32Z</time>
            </trkpt>
            <trkpt lon="101.555732" lat="12.995949">
                <ele>39.100000</ele>
                <time>2019-03-16T06:11:29Z</time>
            </trkpt>
            <trkpt lon="101.555710" lat="12.995966">
                <ele>39.400000</ele>
                <time>2019-03-16T06:11:50Z</time>
            </trkpt>
            <trkpt lon="101.555699" lat="12.995940">
                <ele>39.200000</ele>
                <time>2019-03-16T06:13:19Z</time>
            </trkpt>
            <trkpt lon="101.555677" lat="12.995921">
                <ele>39.500000</ele>
                <time>2019-03-16T06:13:41Z</time>
            </trkpt>
            <trkpt lon="101.555673" lat="12.995894">
                <ele>39.000000</ele>
                <time>2019-03-16T06:14:12Z</time>
            </trkpt>
            <trkpt lon="101.555635" lat="12.995869">
                <ele>39.000000</ele>
                <time>2019-03-16T06:14:55Z</time>
            </trkpt>
            <trkpt lon="101.555616" lat="12.995846">
                <ele>38.500000</ele>
                <time>2019-03-16T06:14:56Z</time>
            </trkpt>
            <trkpt lon="101.555593" lat="12.995823">
                <ele>38.500000</ele>
                <time>2019-03-16T06:14:57Z</time>
            </trkpt>
            <trkpt lon="101.555570" lat="12.995800">
                <ele>38.000000</ele>
                <time>2019-03-16T06:14:58Z</time>
            </trkpt>
            <trkpt lon="101.555522" lat="12.995763">
                <ele>37.500000</ele>
                <time>2019-03-16T06:15:00Z</time>
            </trkpt>
            <trkpt lon="101.555497" lat="12.995738">
                <ele>37.600000</ele>
                <time>2019-03-16T06:15:01Z</time>
            </trkpt>
            <trkpt lon="101.555473" lat="12.995716">
                <ele>37.300000</ele>
                <time>2019-03-16T06:15:02Z</time>
            </trkpt>
            <trkpt lon="101.555444" lat="12.995697">
                <ele>37.300000</ele>
                <time>2019-03-16T06:15:03Z</time>
            </trkpt>
            <trkpt lon="101.555418" lat="12.995679">
                <ele>37.100000</ele>
                <time>2019-03-16T06:15:04Z</time>
            </trkpt>
            <trkpt lon="101.555389" lat="12.995663">
                <ele>37.000000</ele>
                <time>2019-03-16T06:15:05Z</time>
            </trkpt>
            <trkpt lon="101.555357" lat="12.995648">
                <ele>36.800000</ele>
                <time>2019-03-16T06:15:06Z</time>
            </trkpt>
            <trkpt lon="101.555326" lat="12.995633">
                <ele>36.800000</ele>
                <time>2019-03-16T06:15:07Z</time>
            </trkpt>
            <trkpt lon="101.555292" lat="12.995623">
                <ele>36.800000</ele>
                <time>2019-03-16T06:15:08Z</time>
            </trkpt>
            <trkpt lon="101.555255" lat="12.995613">
                <ele>36.800000</ele>
                <time>2019-03-16T06:15:09Z</time>
            </trkpt>
            <trkpt lon="101.555219" lat="12.995605">
                <ele>36.600000</ele>
                <time>2019-03-16T06:15:10Z</time>
            </trkpt>
            <trkpt lon="101.555185" lat="12.995597">
                <ele>36.600000</ele>
                <time>2019-03-16T06:15:11Z</time>
            </trkpt>
            <trkpt lon="101.555150" lat="12.995589">
                <ele>36.600000</ele>
                <time>2019-03-16T06:15:12Z</time>
            </trkpt>
            <trkpt lon="101.555111" lat="12.995583">
                <ele>36.600000</ele>
                <time>2019-03-16T06:15:13Z</time>
            </trkpt>
            <trkpt lon="101.555077" lat="12.995579">
                <ele>36.600000</ele>
                <time>2019-03-16T06:15:14Z</time>
            </trkpt>
            <trkpt lon="101.555042" lat="12.995573">
                <ele>36.600000</ele>
                <time>2019-03-16T06:15:15Z</time>
            </trkpt>
            <trkpt lon="101.555006" lat="12.995568">
                <ele>36.600000</ele>
                <time>2019-03-16T06:15:16Z</time>
            </trkpt>
            <trkpt lon="101.554966" lat="12.995563">
                <ele>36.600000</ele>
                <time>2019-03-16T06:15:17Z</time>
            </trkpt>
            <trkpt lon="101.554933" lat="12.995572">
                <ele>36.200000</ele>
                <time>2019-03-16T06:15:18Z</time>
            </trkpt>
            <trkpt lon="101.554897" lat="12.995569">
                <ele>35.700000</ele>
                <time>2019-03-16T06:15:19Z</time>
            </trkpt>
            <trkpt lon="101.554860" lat="12.995568">
                <ele>35.200000</ele>
                <time>2019-03-16T06:15:20Z</time>
            </trkpt>
            <trkpt lon="101.554824" lat="12.995565">
                <ele>35.000000</ele>
                <time>2019-03-16T06:15:21Z</time>
            </trkpt>
            <trkpt lon="101.554794" lat="12.995572">
                <ele>34.800000</ele>
                <time>2019-03-16T06:15:22Z</time>
            </trkpt>
            <trkpt lon="101.554762" lat="12.995568">
                <ele>34.600000</ele>
                <time>2019-03-16T06:15:23Z</time>
            </trkpt>
            <trkpt lon="101.554728" lat="12.995563">
                <ele>34.700000</ele>
                <time>2019-03-16T06:15:24Z</time>
            </trkpt>
            <trkpt lon="101.554692" lat="12.995559">
                <ele>34.600000</ele>
                <time>2019-03-16T06:15:25Z</time>
            </trkpt>
            <trkpt lon="101.554655" lat="12.995554">
                <ele>34.500000</ele>
                <time>2019-03-16T06:15:26Z</time>
            </trkpt>
            <trkpt lon="101.554617" lat="12.995552">
                <ele>34.500000</ele>
                <time>2019-03-16T06:15:27Z</time>
            </trkpt>
            <trkpt lon="101.554580" lat="12.995549">
                <ele>34.500000</ele>
                <time>2019-03-16T06:15:28Z</time>
            </trkpt>
            <trkpt lon="101.554543" lat="12.995546">
                <ele>34.500000</ele>
                <time>2019-03-16T06:15:29Z</time>
            </trkpt>
            <trkpt lon="101.554503" lat="12.995542">
                <ele>34.500000</ele>
                <time>2019-03-16T06:15:30Z</time>
            </trkpt>
            <trkpt lon="101.554465" lat="12.995539">
                <ele>34.400000</ele>
                <time>2019-03-16T06:15:31Z</time>
            </trkpt>
            <trkpt lon="101.554427" lat="12.995546">
                <ele>34.500000</ele>
                <time>2019-03-16T06:15:32Z</time>
            </trkpt>
            <trkpt lon="101.554388" lat="12.995542">
                <ele>34.700000</ele>
                <time>2019-03-16T06:15:33Z</time>
            </trkpt>
            <trkpt lon="101.554349" lat="12.995539">
                <ele>34.900000</ele>
                <time>2019-03-16T06:15:34Z</time>
            </trkpt>
            <trkpt lon="101.554309" lat="12.995539">
                <ele>35.000000</ele>
                <time>2019-03-16T06:15:35Z</time>
            </trkpt>
            <trkpt lon="101.554270" lat="12.995539">
                <ele>35.000000</ele>
                <time>2019-03-16T06:15:36Z</time>
            </trkpt>
            <trkpt lon="101.554232" lat="12.995549">
                <ele>35.100000</ele>
                <time>2019-03-16T06:15:37Z</time>
            </trkpt>
            <trkpt lon="101.554195" lat="12.995558">
                <ele>35.200000</ele>
                <time>2019-03-16T06:15:38Z</time>
            </trkpt>
            <trkpt lon="101.554156" lat="12.995569">
                <ele>35.400000</ele>
                <time>2019-03-16T06:15:39Z</time>
            </trkpt>
            <trkpt lon="101.554115" lat="12.995574">
                <ele>35.400000</ele>
                <time>2019-03-16T06:15:40Z</time>
            </trkpt>
            <trkpt lon="101.554079" lat="12.995584">
                <ele>35.400000</ele>
                <time>2019-03-16T06:15:41Z</time>
            </trkpt>
            <trkpt lon="101.554043" lat="12.995598">
                <ele>35.400000</ele>
                <time>2019-03-16T06:15:42Z</time>
            </trkpt>
            <trkpt lon="101.554006" lat="12.995614">
                <ele>35.700000</ele>
                <time>2019-03-16T06:15:43Z</time>
            </trkpt>
            <trkpt lon="101.553969" lat="12.995632">
                <ele>35.700000</ele>
                <time>2019-03-16T06:15:44Z</time>
            </trkpt>
            <trkpt lon="101.553933" lat="12.995651">
                <ele>35.700000</ele>
                <time>2019-03-16T06:15:45Z</time>
            </trkpt>
            <trkpt lon="101.553897" lat="12.995665">
                <ele>36.100000</ele>
                <time>2019-03-16T06:15:46Z</time>
            </trkpt>
            <trkpt lon="101.553859" lat="12.995685">
                <ele>36.000000</ele>
                <time>2019-03-16T06:15:47Z</time>
            </trkpt>
            <trkpt lon="101.553829" lat="12.995708">
                <ele>36.200000</ele>
                <time>2019-03-16T06:15:48Z</time>
            </trkpt>
            <trkpt lon="101.553795" lat="12.995730">
                <ele>36.100000</ele>
                <time>2019-03-16T06:15:49Z</time>
            </trkpt>
            <trkpt lon="101.553758" lat="12.995757">
                <ele>36.300000</ele>
                <time>2019-03-16T06:15:50Z</time>
            </trkpt>
            <trkpt lon="101.553725" lat="12.995782">
                <ele>36.600000</ele>
                <time>2019-03-16T06:15:51Z</time>
            </trkpt>
            <trkpt lon="101.553695" lat="12.995805">
                <ele>36.600000</ele>
                <time>2019-03-16T06:15:52Z</time>
            </trkpt>
            <trkpt lon="101.553664" lat="12.995825">
                <ele>36.900000</ele>
                <time>2019-03-16T06:15:53Z</time>
            </trkpt>
            <trkpt lon="101.553631" lat="12.995848">
                <ele>36.900000</ele>
                <time>2019-03-16T06:15:54Z</time>
            </trkpt>
            <trkpt lon="101.553602" lat="12.995870">
                <ele>37.000000</ele>
                <time>2019-03-16T06:15:55Z</time>
            </trkpt>
            <trkpt lon="101.553568" lat="12.995896">
                <ele>37.100000</ele>
                <time>2019-03-16T06:15:56Z</time>
            </trkpt>
            <trkpt lon="101.553535" lat="12.995921">
                <ele>37.600000</ele>
                <time>2019-03-16T06:15:57Z</time>
            </trkpt>
            <trkpt lon="101.553502" lat="12.995944">
                <ele>37.900000</ele>
                <time>2019-03-16T06:15:58Z</time>
            </trkpt>
            <trkpt lon="101.553470" lat="12.995967">
                <ele>38.100000</ele>
                <time>2019-03-16T06:15:59Z</time>
            </trkpt>
            <trkpt lon="101.553437" lat="12.995989">
                <ele>38.600000</ele>
                <time>2019-03-16T06:16:00Z</time>
            </trkpt>
            <trkpt lon="101.553403" lat="12.996013">
                <ele>38.800000</ele>
                <time>2019-03-16T06:16:01Z</time>
            </trkpt>
            <trkpt lon="101.553368" lat="12.996038">
                <ele>39.000000</ele>
                <time>2019-03-16T06:16:02Z</time>
            </trkpt>
            <trkpt lon="101.553332" lat="12.996066">
                <ele>39.000000</ele>
                <time>2019-03-16T06:16:03Z</time>
            </trkpt>
            <trkpt lon="101.553298" lat="12.996091">
                <ele>39.200000</ele>
                <time>2019-03-16T06:16:04Z</time>
            </trkpt>
            <trkpt lon="101.553264" lat="12.996117">
                <ele>39.200000</ele>
                <time>2019-03-16T06:16:05Z</time>
            </trkpt>
            <trkpt lon="101.553228" lat="12.996143">
                <ele>39.300000</ele>
                <time>2019-03-16T06:16:06Z</time>
            </trkpt>
            <trkpt lon="101.553195" lat="12.996167">
                <ele>39.400000</ele>
                <time>2019-03-16T06:16:07Z</time>
            </trkpt>
            <trkpt lon="101.553163" lat="12.996189">
                <ele>39.400000</ele>
                <time>2019-03-16T06:16:08Z</time>
            </trkpt>
            <trkpt lon="101.553130" lat="12.996212">
                <ele>39.400000</ele>
                <time>2019-03-16T06:16:09Z</time>
            </trkpt>
            <trkpt lon="101.553096" lat="12.996236">
                <ele>39.500000</ele>
                <time>2019-03-16T06:16:10Z</time>
            </trkpt>
            <trkpt lon="101.553061" lat="12.996263">
                <ele>39.300000</ele>
                <time>2019-03-16T06:16:11Z</time>
            </trkpt>
            <trkpt lon="101.553026" lat="12.996288">
                <ele>39.200000</ele>
                <time>2019-03-16T06:16:12Z</time>
            </trkpt>
            <trkpt lon="101.552992" lat="12.996314">
                <ele>39.200000</ele>
                <time>2019-03-16T06:16:13Z</time>
            </trkpt>
            <trkpt lon="101.552958" lat="12.996340">
                <ele>39.200000</ele>
                <time>2019-03-16T06:16:14Z</time>
            </trkpt>
            <trkpt lon="101.552922" lat="12.996366">
                <ele>39.200000</ele>
                <time>2019-03-16T06:16:15Z</time>
            </trkpt>
            <trkpt lon="101.552888" lat="12.996392">
                <ele>39.200000</ele>
                <time>2019-03-16T06:16:16Z</time>
            </trkpt>
            <trkpt lon="101.552856" lat="12.996419">
                <ele>39.100000</ele>
                <time>2019-03-16T06:16:17Z</time>
            </trkpt>
            <trkpt lon="101.552826" lat="12.996448">
                <ele>39.100000</ele>
                <time>2019-03-16T06:16:18Z</time>
            </trkpt>
            <trkpt lon="101.552795" lat="12.996476">
                <ele>39.000000</ele>
                <time>2019-03-16T06:16:19Z</time>
            </trkpt>
            <trkpt lon="101.552765" lat="12.996505">
                <ele>38.800000</ele>
                <time>2019-03-16T06:16:20Z</time>
            </trkpt>
            <trkpt lon="101.552736" lat="12.996536">
                <ele>38.500000</ele>
                <time>2019-03-16T06:16:21Z</time>
            </trkpt>
            <trkpt lon="101.552712" lat="12.996567">
                <ele>38.300000</ele>
                <time>2019-03-16T06:16:22Z</time>
            </trkpt>
            <trkpt lon="101.552689" lat="12.996599">
                <ele>38.100000</ele>
                <time>2019-03-16T06:16:23Z</time>
            </trkpt>
            <trkpt lon="101.552664" lat="12.996632">
                <ele>37.700000</ele>
                <time>2019-03-16T06:16:24Z</time>
            </trkpt>
            <trkpt lon="101.552642" lat="12.996668">
                <ele>37.700000</ele>
                <time>2019-03-16T06:16:25Z</time>
            </trkpt>
            <trkpt lon="101.552621" lat="12.996704">
                <ele>37.500000</ele>
                <time>2019-03-16T06:16:26Z</time>
            </trkpt>
            <trkpt lon="101.552603" lat="12.996742">
                <ele>37.400000</ele>
                <time>2019-03-16T06:16:27Z</time>
            </trkpt>
            <trkpt lon="101.552584" lat="12.996780">
                <ele>37.200000</ele>
                <time>2019-03-16T06:16:28Z</time>
            </trkpt>
            <trkpt lon="101.552566" lat="12.996819">
                <ele>37.300000</ele>
                <time>2019-03-16T06:16:29Z</time>
            </trkpt>
            <trkpt lon="101.552551" lat="12.996856">
                <ele>37.500000</ele>
                <time>2019-03-16T06:16:30Z</time>
            </trkpt>
            <trkpt lon="101.552535" lat="12.996897">
                <ele>37.700000</ele>
                <time>2019-03-16T06:16:31Z</time>
            </trkpt>
            <trkpt lon="101.552521" lat="12.996933">
                <ele>38.000000</ele>
                <time>2019-03-16T06:16:32Z</time>
            </trkpt>
            <trkpt lon="101.552506" lat="12.996970">
                <ele>38.200000</ele>
                <time>2019-03-16T06:16:33Z</time>
            </trkpt>
            <trkpt lon="101.552490" lat="12.997009">
                <ele>38.400000</ele>
                <time>2019-03-16T06:16:34Z</time>
            </trkpt>
            <trkpt lon="101.552472" lat="12.997045">
                <ele>38.700000</ele>
                <time>2019-03-16T06:16:35Z</time>
            </trkpt>
            <trkpt lon="101.552454" lat="12.997082">
                <ele>38.900000</ele>
                <time>2019-03-16T06:16:36Z</time>
            </trkpt>
            <trkpt lon="101.552436" lat="12.997119">
                <ele>39.200000</ele>
                <time>2019-03-16T06:16:37Z</time>
            </trkpt>
            <trkpt lon="101.552417" lat="12.997157">
                <ele>39.400000</ele>
                <time>2019-03-16T06:16:38Z</time>
            </trkpt>
            <trkpt lon="101.552399" lat="12.997193">
                <ele>39.400000</ele>
                <time>2019-03-16T06:16:39Z</time>
            </trkpt>
            <trkpt lon="101.552380" lat="12.997230">
                <ele>39.500000</ele>
                <time>2019-03-16T06:16:40Z</time>
            </trkpt>
            <trkpt lon="101.552359" lat="12.997267">
                <ele>39.800000</ele>
                <time>2019-03-16T06:16:41Z</time>
            </trkpt>
            <trkpt lon="101.552336" lat="12.997304">
                <ele>39.700000</ele>
                <time>2019-03-16T06:16:42Z</time>
            </trkpt>
            <trkpt lon="101.552315" lat="12.997338">
                <ele>39.700000</ele>
                <time>2019-03-16T06:16:43Z</time>
            </trkpt>
            <trkpt lon="101.552293" lat="12.997372">
                <ele>39.800000</ele>
                <time>2019-03-16T06:16:44Z</time>
            </trkpt>
            <trkpt lon="101.552271" lat="12.997405">
                <ele>39.700000</ele>
                <time>2019-03-16T06:16:45Z</time>
            </trkpt>
            <trkpt lon="101.552247" lat="12.997441">
                <ele>39.900000</ele>
                <time>2019-03-16T06:16:46Z</time>
            </trkpt>
            <trkpt lon="101.552227" lat="12.997472">
                <ele>40.000000</ele>
                <time>2019-03-16T06:16:47Z</time>
            </trkpt>
            <trkpt lon="101.552208" lat="12.997502">
                <ele>39.900000</ele>
                <time>2019-03-16T06:16:48Z</time>
            </trkpt>
            <trkpt lon="101.552187" lat="12.997534">
                <ele>39.900000</ele>
                <time>2019-03-16T06:16:49Z</time>
            </trkpt>
            <trkpt lon="101.552165" lat="12.997566">
                <ele>39.900000</ele>
                <time>2019-03-16T06:16:50Z</time>
            </trkpt>
            <trkpt lon="101.552145" lat="12.997598">
                <ele>39.900000</ele>
                <time>2019-03-16T06:16:51Z</time>
            </trkpt>
            <trkpt lon="101.552122" lat="12.997630">
                <ele>39.900000</ele>
                <time>2019-03-16T06:16:52Z</time>
            </trkpt>
            <trkpt lon="101.552096" lat="12.997667">
                <ele>39.900000</ele>
                <time>2019-03-16T06:16:53Z</time>
            </trkpt>
            <trkpt lon="101.552075" lat="12.997697">
                <ele>39.900000</ele>
                <time>2019-03-16T06:16:54Z</time>
            </trkpt>
            <trkpt lon="101.552052" lat="12.997729">
                <ele>39.900000</ele>
                <time>2019-03-16T06:16:55Z</time>
            </trkpt>
            <trkpt lon="101.552028" lat="12.997760">
                <ele>39.900000</ele>
                <time>2019-03-16T06:16:56Z</time>
            </trkpt>
            <trkpt lon="101.552004" lat="12.997792">
                <ele>39.900000</ele>
                <time>2019-03-16T06:16:57Z</time>
            </trkpt>
            <trkpt lon="101.551979" lat="12.997828">
                <ele>39.900000</ele>
                <time>2019-03-16T06:16:58Z</time>
            </trkpt>
            <trkpt lon="101.551952" lat="12.997864">
                <ele>39.900000</ele>
                <time>2019-03-16T06:16:59Z</time>
            </trkpt>
            <trkpt lon="101.551927" lat="12.997896">
                <ele>39.900000</ele>
                <time>2019-03-16T06:17:00Z</time>
            </trkpt>
            <trkpt lon="101.551899" lat="12.997934">
                <ele>39.900000</ele>
                <time>2019-03-16T06:17:01Z</time>
            </trkpt>
            <trkpt lon="101.551870" lat="12.997970">
                <ele>39.900000</ele>
                <time>2019-03-16T06:17:02Z</time>
            </trkpt>
            <trkpt lon="101.551836" lat="12.998006">
                <ele>39.800000</ele>
                <time>2019-03-16T06:17:03Z</time>
            </trkpt>
            <trkpt lon="101.551802" lat="12.998037">
                <ele>39.600000</ele>
                <time>2019-03-16T06:17:04Z</time>
            </trkpt>
            <trkpt lon="101.551766" lat="12.998064">
                <ele>39.400000</ele>
                <time>2019-03-16T06:17:05Z</time>
            </trkpt>
            <trkpt lon="101.551724" lat="12.998088">
                <ele>39.100000</ele>
                <time>2019-03-16T06:17:06Z</time>
            </trkpt>
            <trkpt lon="101.551685" lat="12.998102">
                <ele>38.900000</ele>
                <time>2019-03-16T06:17:07Z</time>
            </trkpt>
            <trkpt lon="101.551645" lat="12.998109">
                <ele>38.900000</ele>
                <time>2019-03-16T06:17:08Z</time>
            </trkpt>
            <trkpt lon="101.551606" lat="12.998111">
                <ele>38.800000</ele>
                <time>2019-03-16T06:17:09Z</time>
            </trkpt>
            <trkpt lon="101.551568" lat="12.998107">
                <ele>38.800000</ele>
                <time>2019-03-16T06:17:10Z</time>
            </trkpt>
            <trkpt lon="101.551532" lat="12.998092">
                <ele>38.800000</ele>
                <time>2019-03-16T06:17:11Z</time>
            </trkpt>
            <trkpt lon="101.551499" lat="12.998072">
                <ele>38.800000</ele>
                <time>2019-03-16T06:17:12Z</time>
            </trkpt>
            <trkpt lon="101.551466" lat="12.998048">
                <ele>38.900000</ele>
                <time>2019-03-16T06:17:13Z</time>
            </trkpt>
            <trkpt lon="101.551435" lat="12.998022">
                <ele>39.100000</ele>
                <time>2019-03-16T06:17:14Z</time>
            </trkpt>
            <trkpt lon="101.551407" lat="12.997993">
                <ele>39.100000</ele>
                <time>2019-03-16T06:17:15Z</time>
            </trkpt>
            <trkpt lon="101.551379" lat="12.997966">
                <ele>39.500000</ele>
                <time>2019-03-16T06:17:16Z</time>
            </trkpt>
            <trkpt lon="101.551348" lat="12.997938">
                <ele>40.000000</ele>
                <time>2019-03-16T06:17:17Z</time>
            </trkpt>
            <trkpt lon="101.551319" lat="12.997914">
                <ele>40.000000</ele>
                <time>2019-03-16T06:17:18Z</time>
            </trkpt>
            <trkpt lon="101.551292" lat="12.997894">
                <ele>40.600000</ele>
                <time>2019-03-16T06:17:19Z</time>
            </trkpt>
            <trkpt lon="101.551267" lat="12.997871">
                <ele>40.600000</ele>
                <time>2019-03-16T06:17:20Z</time>
            </trkpt>
            <trkpt lon="101.551244" lat="12.997848">
                <ele>41.300000</ele>
                <time>2019-03-16T06:17:21Z</time>
            </trkpt>
            <trkpt lon="101.551215" lat="12.997804">
                <ele>42.200000</ele>
                <time>2019-03-16T06:17:23Z</time>
            </trkpt>
            <trkpt lon="101.551210" lat="12.997755">
                <ele>42.000000</ele>
                <time>2019-03-16T06:17:25Z</time>
            </trkpt>
            <trkpt lon="101.551217" lat="12.997727">
                <ele>42.000000</ele>
                <time>2019-03-16T06:17:26Z</time>
            </trkpt>
            <trkpt lon="101.551226" lat="12.997700">
                <ele>41.900000</ele>
                <time>2019-03-16T06:17:27Z</time>
            </trkpt>
            <trkpt lon="101.551236" lat="12.997667">
                <ele>41.800000</ele>
                <time>2019-03-16T06:17:28Z</time>
            </trkpt>
            <trkpt lon="101.551245" lat="12.997633">
                <ele>41.700000</ele>
                <time>2019-03-16T06:17:29Z</time>
            </trkpt>
            <trkpt lon="101.551253" lat="12.997600">
                <ele>41.700000</ele>
                <time>2019-03-16T06:17:30Z</time>
            </trkpt>
            <trkpt lon="101.551260" lat="12.997559">
                <ele>41.600000</ele>
                <time>2019-03-16T06:17:31Z</time>
            </trkpt>
            <trkpt lon="101.551267" lat="12.997522">
                <ele>41.600000</ele>
                <time>2019-03-16T06:17:32Z</time>
            </trkpt>
            <trkpt lon="101.551273" lat="12.997483">
                <ele>41.600000</ele>
                <time>2019-03-16T06:17:33Z</time>
            </trkpt>
            <trkpt lon="101.551279" lat="12.997446">
                <ele>41.600000</ele>
                <time>2019-03-16T06:17:34Z</time>
            </trkpt>
            <trkpt lon="101.551287" lat="12.997407">
                <ele>41.600000</ele>
                <time>2019-03-16T06:17:35Z</time>
            </trkpt>
            <trkpt lon="101.551294" lat="12.997368">
                <ele>41.600000</ele>
                <time>2019-03-16T06:17:36Z</time>
            </trkpt>
            <trkpt lon="101.551302" lat="12.997323">
                <ele>41.500000</ele>
                <time>2019-03-16T06:17:37Z</time>
            </trkpt>
            <trkpt lon="101.551309" lat="12.997277">
                <ele>41.500000</ele>
                <time>2019-03-16T06:17:38Z</time>
            </trkpt>
            <trkpt lon="101.551316" lat="12.997236">
                <ele>41.500000</ele>
                <time>2019-03-16T06:17:39Z</time>
            </trkpt>
            <trkpt lon="101.551323" lat="12.997199">
                <ele>41.400000</ele>
                <time>2019-03-16T06:17:40Z</time>
            </trkpt>
            <trkpt lon="101.551333" lat="12.997155">
                <ele>41.400000</ele>
                <time>2019-03-16T06:17:41Z</time>
            </trkpt>
            <trkpt lon="101.551342" lat="12.997109">
                <ele>41.300000</ele>
                <time>2019-03-16T06:17:42Z</time>
            </trkpt>
            <trkpt lon="101.551350" lat="12.997062">
                <ele>41.300000</ele>
                <time>2019-03-16T06:17:43Z</time>
            </trkpt>
            <trkpt lon="101.551359" lat="12.997017">
                <ele>41.200000</ele>
                <time>2019-03-16T06:17:44Z</time>
            </trkpt>
            <trkpt lon="101.551364" lat="12.996972">
                <ele>41.200000</ele>
                <time>2019-03-16T06:17:45Z</time>
            </trkpt>
            <trkpt lon="101.551373" lat="12.996924">
                <ele>41.100000</ele>
                <time>2019-03-16T06:17:46Z</time>
            </trkpt>
            <trkpt lon="101.551381" lat="12.996874">
                <ele>41.000000</ele>
                <time>2019-03-16T06:17:47Z</time>
            </trkpt>
            <trkpt lon="101.551390" lat="12.996826">
                <ele>40.900000</ele>
                <time>2019-03-16T06:17:48Z</time>
            </trkpt>
            <trkpt lon="101.551400" lat="12.996778">
                <ele>40.900000</ele>
                <time>2019-03-16T06:17:49Z</time>
            </trkpt>
            <trkpt lon="101.551409" lat="12.996731">
                <ele>40.800000</ele>
                <time>2019-03-16T06:17:50Z</time>
            </trkpt>
            <trkpt lon="101.551417" lat="12.996685">
                <ele>40.700000</ele>
                <time>2019-03-16T06:17:51Z</time>
            </trkpt>
            <trkpt lon="101.551426" lat="12.996638">
                <ele>40.600000</ele>
                <time>2019-03-16T06:17:52Z</time>
            </trkpt>
            <trkpt lon="101.551435" lat="12.996593">
                <ele>40.500000</ele>
                <time>2019-03-16T06:17:53Z</time>
            </trkpt>
            <trkpt lon="101.551442" lat="12.996550">
                <ele>40.400000</ele>
                <time>2019-03-16T06:17:54Z</time>
            </trkpt>
            <trkpt lon="101.551450" lat="12.996509">
                <ele>40.200000</ele>
                <time>2019-03-16T06:17:55Z</time>
            </trkpt>
            <trkpt lon="101.551458" lat="12.996467">
                <ele>40.100000</ele>
                <time>2019-03-16T06:17:56Z</time>
            </trkpt>
            <trkpt lon="101.551466" lat="12.996424">
                <ele>40.000000</ele>
                <time>2019-03-16T06:17:57Z</time>
            </trkpt>
            <trkpt lon="101.551473" lat="12.996387">
                <ele>39.800000</ele>
                <time>2019-03-16T06:17:58Z</time>
            </trkpt>
            <trkpt lon="101.551480" lat="12.996349">
                <ele>39.700000</ele>
                <time>2019-03-16T06:17:59Z</time>
            </trkpt>
            <trkpt lon="101.551486" lat="12.996312">
                <ele>39.600000</ele>
                <time>2019-03-16T06:18:00Z</time>
            </trkpt>
            <trkpt lon="101.551492" lat="12.996277">
                <ele>39.500000</ele>
                <time>2019-03-16T06:18:01Z</time>
            </trkpt>
            <trkpt lon="101.551498" lat="12.996242">
                <ele>39.500000</ele>
                <time>2019-03-16T06:18:02Z</time>
            </trkpt>
            <trkpt lon="101.551505" lat="12.996210">
                <ele>39.400000</ele>
                <time>2019-03-16T06:18:03Z</time>
            </trkpt>
            <trkpt lon="101.551512" lat="12.996177">
                <ele>39.300000</ele>
                <time>2019-03-16T06:18:04Z</time>
            </trkpt>
            <trkpt lon="101.551517" lat="12.996142">
                <ele>39.200000</ele>
                <time>2019-03-16T06:18:05Z</time>
            </trkpt>
            <trkpt lon="101.551522" lat="12.996107">
                <ele>39.100000</ele>
                <time>2019-03-16T06:18:06Z</time>
            </trkpt>
            <trkpt lon="101.551528" lat="12.996072">
                <ele>39.100000</ele>
                <time>2019-03-16T06:18:07Z</time>
            </trkpt>
            <trkpt lon="101.551534" lat="12.996033">
                <ele>39.000000</ele>
                <time>2019-03-16T06:18:08Z</time>
            </trkpt>
            <trkpt lon="101.551539" lat="12.995995">
                <ele>39.000000</ele>
                <time>2019-03-16T06:18:09Z</time>
            </trkpt>
            <trkpt lon="101.551544" lat="12.995955">
                <ele>38.900000</ele>
                <time>2019-03-16T06:18:10Z</time>
            </trkpt>
            <trkpt lon="101.551549" lat="12.995915">
                <ele>38.900000</ele>
                <time>2019-03-16T06:18:11Z</time>
            </trkpt>
            <trkpt lon="101.551556" lat="12.995877">
                <ele>38.900000</ele>
                <time>2019-03-16T06:18:12Z</time>
            </trkpt>
            <trkpt lon="101.551561" lat="12.995837">
                <ele>38.900000</ele>
                <time>2019-03-16T06:18:13Z</time>
            </trkpt>
            <trkpt lon="101.551566" lat="12.995800">
                <ele>38.900000</ele>
                <time>2019-03-16T06:18:14Z</time>
            </trkpt>
            <trkpt lon="101.551573" lat="12.995763">
                <ele>38.900000</ele>
                <time>2019-03-16T06:18:15Z</time>
            </trkpt>
            <trkpt lon="101.551581" lat="12.995726">
                <ele>38.900000</ele>
                <time>2019-03-16T06:18:16Z</time>
            </trkpt>
            <trkpt lon="101.551587" lat="12.995688">
                <ele>38.900000</ele>
                <time>2019-03-16T06:18:17Z</time>
            </trkpt>
            <trkpt lon="101.551593" lat="12.995650">
                <ele>38.900000</ele>
                <time>2019-03-16T06:18:18Z</time>
            </trkpt>
            <trkpt lon="101.551600" lat="12.995615">
                <ele>38.800000</ele>
                <time>2019-03-16T06:18:19Z</time>
            </trkpt>
            <trkpt lon="101.551608" lat="12.995576">
                <ele>38.800000</ele>
                <time>2019-03-16T06:18:20Z</time>
            </trkpt>
            <trkpt lon="101.551614" lat="12.995536">
                <ele>38.700000</ele>
                <time>2019-03-16T06:18:21Z</time>
            </trkpt>
            <trkpt lon="101.551621" lat="12.995498">
                <ele>38.600000</ele>
                <time>2019-03-16T06:18:22Z</time>
            </trkpt>
            <trkpt lon="101.551628" lat="12.995460">
                <ele>38.500000</ele>
                <time>2019-03-16T06:18:23Z</time>
            </trkpt>
            <trkpt lon="101.551636" lat="12.995422">
                <ele>38.400000</ele>
                <time>2019-03-16T06:18:24Z</time>
            </trkpt>
            <trkpt lon="101.551643" lat="12.995384">
                <ele>38.300000</ele>
                <time>2019-03-16T06:18:25Z</time>
            </trkpt>
            <trkpt lon="101.551650" lat="12.995349">
                <ele>38.200000</ele>
                <time>2019-03-16T06:18:26Z</time>
            </trkpt>
            <trkpt lon="101.551656" lat="12.995314">
                <ele>38.100000</ele>
                <time>2019-03-16T06:18:27Z</time>
            </trkpt>
            <trkpt lon="101.551664" lat="12.995279">
                <ele>38.000000</ele>
                <time>2019-03-16T06:18:28Z</time>
            </trkpt>
            <trkpt lon="101.551675" lat="12.995240">
                <ele>37.800000</ele>
                <time>2019-03-16T06:18:29Z</time>
            </trkpt>
            <trkpt lon="101.551694" lat="12.995209">
                <ele>37.700000</ele>
                <time>2019-03-16T06:18:30Z</time>
            </trkpt>
            <trkpt lon="101.551719" lat="12.995187">
                <ele>37.600000</ele>
                <time>2019-03-16T06:18:31Z</time>
            </trkpt>
            <trkpt lon="101.551746" lat="12.995175">
                <ele>37.500000</ele>
                <time>2019-03-16T06:18:32Z</time>
            </trkpt>
            <trkpt lon="101.551775" lat="12.995170">
                <ele>37.500000</ele>
                <time>2019-03-16T06:18:33Z</time>
            </trkpt>
            <trkpt lon="101.551808" lat="12.995169">
                <ele>37.300000</ele>
                <time>2019-03-16T06:18:34Z</time>
            </trkpt>
            <trkpt lon="101.551840" lat="12.995174">
                <ele>37.000000</ele>
                <time>2019-03-16T06:18:35Z</time>
            </trkpt>
            <trkpt lon="101.551873" lat="12.995175">
                <ele>36.800000</ele>
                <time>2019-03-16T06:18:36Z</time>
            </trkpt>
            <trkpt lon="101.551908" lat="12.995174">
                <ele>36.800000</ele>
                <time>2019-03-16T06:18:37Z</time>
            </trkpt>
            <trkpt lon="101.551946" lat="12.995167">
                <ele>36.500000</ele>
                <time>2019-03-16T06:18:38Z</time>
            </trkpt>
            <trkpt lon="101.551978" lat="12.995157">
                <ele>36.300000</ele>
                <time>2019-03-16T06:18:39Z</time>
            </trkpt>
            <trkpt lon="101.552009" lat="12.995145">
                <ele>36.000000</ele>
                <time>2019-03-16T06:18:40Z</time>
            </trkpt>
            <trkpt lon="101.552044" lat="12.995129">
                <ele>35.900000</ele>
                <time>2019-03-16T06:18:41Z</time>
            </trkpt>
            <trkpt lon="101.552080" lat="12.995108">
                <ele>35.900000</ele>
                <time>2019-03-16T06:18:42Z</time>
            </trkpt>
            <trkpt lon="101.552113" lat="12.995086">
                <ele>36.000000</ele>
                <time>2019-03-16T06:18:43Z</time>
            </trkpt>
            <trkpt lon="101.552143" lat="12.995066">
                <ele>36.000000</ele>
                <time>2019-03-16T06:18:44Z</time>
            </trkpt>
            <trkpt lon="101.552175" lat="12.995045">
                <ele>36.200000</ele>
                <time>2019-03-16T06:18:45Z</time>
            </trkpt>
            <trkpt lon="101.552208" lat="12.995022">
                <ele>36.500000</ele>
                <time>2019-03-16T06:18:46Z</time>
            </trkpt>
            <trkpt lon="101.552239" lat="12.994999">
                <ele>36.500000</ele>
                <time>2019-03-16T06:18:47Z</time>
            </trkpt>
            <trkpt lon="101.552269" lat="12.994977">
                <ele>36.800000</ele>
                <time>2019-03-16T06:18:48Z</time>
            </trkpt>
            <trkpt lon="101.552302" lat="12.994954">
                <ele>36.800000</ele>
                <time>2019-03-16T06:18:49Z</time>
            </trkpt>
            <trkpt lon="101.552332" lat="12.994933">
                <ele>37.000000</ele>
                <time>2019-03-16T06:18:50Z</time>
            </trkpt>
            <trkpt lon="101.552366" lat="12.994910">
                <ele>37.000000</ele>
                <time>2019-03-16T06:18:51Z</time>
            </trkpt>
            <trkpt lon="101.552397" lat="12.994889">
                <ele>37.200000</ele>
                <time>2019-03-16T06:18:52Z</time>
            </trkpt>
            <trkpt lon="101.552426" lat="12.994868">
                <ele>37.200000</ele>
                <time>2019-03-16T06:18:53Z</time>
            </trkpt>
            <trkpt lon="101.552456" lat="12.994847">
                <ele>37.400000</ele>
                <time>2019-03-16T06:18:54Z</time>
            </trkpt>
            <trkpt lon="101.552488" lat="12.994825">
                <ele>37.400000</ele>
                <time>2019-03-16T06:18:55Z</time>
            </trkpt>
            <trkpt lon="101.552515" lat="12.994806">
                <ele>37.700000</ele>
                <time>2019-03-16T06:18:56Z</time>
            </trkpt>
            <trkpt lon="101.552545" lat="12.994787">
                <ele>37.700000</ele>
                <time>2019-03-16T06:18:57Z</time>
            </trkpt>
            <trkpt lon="101.552578" lat="12.994768">
                <ele>37.800000</ele>
                <time>2019-03-16T06:18:58Z</time>
            </trkpt>
            <trkpt lon="101.552610" lat="12.994748">
                <ele>37.500000</ele>
                <time>2019-03-16T06:18:59Z</time>
            </trkpt>
            <trkpt lon="101.552642" lat="12.994725">
                <ele>37.300000</ele>
                <time>2019-03-16T06:19:00Z</time>
            </trkpt>
            <trkpt lon="101.552675" lat="12.994703">
                <ele>37.300000</ele>
                <time>2019-03-16T06:19:01Z</time>
            </trkpt>
            <trkpt lon="101.552707" lat="12.994681">
                <ele>37.000000</ele>
                <time>2019-03-16T06:19:02Z</time>
            </trkpt>
            <trkpt lon="101.552736" lat="12.994659">
                <ele>36.800000</ele>
                <time>2019-03-16T06:19:03Z</time>
            </trkpt>
            <trkpt lon="101.552770" lat="12.994632">
                <ele>36.500000</ele>
                <time>2019-03-16T06:19:04Z</time>
            </trkpt>
            <trkpt lon="101.552801" lat="12.994602">
                <ele>36.500000</ele>
                <time>2019-03-16T06:19:05Z</time>
            </trkpt>
            <trkpt lon="101.552832" lat="12.994567">
                <ele>36.200000</ele>
                <time>2019-03-16T06:19:06Z</time>
            </trkpt>
            <trkpt lon="101.552859" lat="12.994533">
                <ele>35.700000</ele>
                <time>2019-03-16T06:19:07Z</time>
            </trkpt>
            <trkpt lon="101.552883" lat="12.994498">
                <ele>35.500000</ele>
                <time>2019-03-16T06:19:08Z</time>
            </trkpt>
            <trkpt lon="101.552905" lat="12.994458">
                <ele>35.100000</ele>
                <time>2019-03-16T06:19:09Z</time>
            </trkpt>
            <trkpt lon="101.552922" lat="12.994419">
                <ele>34.800000</ele>
                <time>2019-03-16T06:19:10Z</time>
            </trkpt>
            <trkpt lon="101.552931" lat="12.994379">
                <ele>34.600000</ele>
                <time>2019-03-16T06:19:11Z</time>
            </trkpt>
            <trkpt lon="101.552939" lat="12.994343">
                <ele>34.300000</ele>
                <time>2019-03-16T06:19:12Z</time>
            </trkpt>
            <trkpt lon="101.552940" lat="12.994308">
                <ele>34.100000</ele>
                <time>2019-03-16T06:19:13Z</time>
            </trkpt>
            <trkpt lon="101.552937" lat="12.994269">
                <ele>33.900000</ele>
                <time>2019-03-16T06:19:14Z</time>
            </trkpt>
            <trkpt lon="101.552930" lat="12.994229">
                <ele>33.900000</ele>
                <time>2019-03-16T06:19:15Z</time>
            </trkpt>
            <trkpt lon="101.552917" lat="12.994194">
                <ele>33.900000</ele>
                <time>2019-03-16T06:19:16Z</time>
            </trkpt>
            <trkpt lon="101.552900" lat="12.994155">
                <ele>33.900000</ele>
                <time>2019-03-16T06:19:17Z</time>
            </trkpt>
            <trkpt lon="101.552879" lat="12.994120">
                <ele>34.200000</ele>
                <time>2019-03-16T06:19:18Z</time>
            </trkpt>
            <trkpt lon="101.552858" lat="12.994091">
                <ele>34.300000</ele>
                <time>2019-03-16T06:19:19Z</time>
            </trkpt>
            <trkpt lon="101.552839" lat="12.994061">
                <ele>35.100000</ele>
                <time>2019-03-16T06:19:20Z</time>
            </trkpt>
            <trkpt lon="101.552819" lat="12.994033">
                <ele>35.100000</ele>
                <time>2019-03-16T06:19:21Z</time>
            </trkpt>
            <trkpt lon="101.552800" lat="12.994002">
                <ele>35.900000</ele>
                <time>2019-03-16T06:19:22Z</time>
            </trkpt>
            <trkpt lon="101.552789" lat="12.993969">
                <ele>36.300000</ele>
                <time>2019-03-16T06:19:23Z</time>
            </trkpt>
            <trkpt lon="101.552797" lat="12.993937">
                <ele>36.300000</ele>
                <time>2019-03-16T06:19:24Z</time>
            </trkpt>
            <trkpt lon="101.552810" lat="12.993907">
                <ele>36.600000</ele>
                <time>2019-03-16T06:19:25Z</time>
            </trkpt>
            <trkpt lon="101.552834" lat="12.993882">
                <ele>36.800000</ele>
                <time>2019-03-16T06:19:26Z</time>
            </trkpt>
            <trkpt lon="101.552860" lat="12.993860">
                <ele>36.600000</ele>
                <time>2019-03-16T06:19:27Z</time>
            </trkpt>
            <trkpt lon="101.552885" lat="12.993831">
                <ele>37.300000</ele>
                <time>2019-03-16T06:19:28Z</time>
            </trkpt>
            <trkpt lon="101.552905" lat="12.993799">
                <ele>37.700000</ele>
                <time>2019-03-16T06:19:29Z</time>
            </trkpt>
            <trkpt lon="101.552917" lat="12.993766">
                <ele>38.000000</ele>
                <time>2019-03-16T06:19:30Z</time>
            </trkpt>
            <trkpt lon="101.552920" lat="12.993729">
                <ele>38.000000</ele>
                <time>2019-03-16T06:19:31Z</time>
            </trkpt>
            <trkpt lon="101.552917" lat="12.993696">
                <ele>38.300000</ele>
                <time>2019-03-16T06:19:32Z</time>
            </trkpt>
            <trkpt lon="101.552912" lat="12.993663">
                <ele>38.600000</ele>
                <time>2019-03-16T06:19:33Z</time>
            </trkpt>
            <trkpt lon="101.552908" lat="12.993631">
                <ele>38.800000</ele>
                <time>2019-03-16T06:19:34Z</time>
            </trkpt>
            <trkpt lon="101.552902" lat="12.993597">
                <ele>39.100000</ele>
                <time>2019-03-16T06:19:35Z</time>
            </trkpt>
            <trkpt lon="101.552894" lat="12.993561">
                <ele>39.100000</ele>
                <time>2019-03-16T06:19:36Z</time>
            </trkpt>
            <trkpt lon="101.552885" lat="12.993521">
                <ele>39.300000</ele>
                <time>2019-03-16T06:19:37Z</time>
            </trkpt>
            <trkpt lon="101.552876" lat="12.993481">
                <ele>39.600000</ele>
                <time>2019-03-16T06:19:38Z</time>
            </trkpt>
            <trkpt lon="101.552868" lat="12.993440">
                <ele>39.800000</ele>
                <time>2019-03-16T06:19:39Z</time>
            </trkpt>
            <trkpt lon="101.552859" lat="12.993394">
                <ele>39.900000</ele>
                <time>2019-03-16T06:19:40Z</time>
            </trkpt>
            <trkpt lon="101.552856" lat="12.993346">
                <ele>39.900000</ele>
                <time>2019-03-16T06:19:41Z</time>
            </trkpt>
            <trkpt lon="101.552856" lat="12.993301">
                <ele>39.900000</ele>
                <time>2019-03-16T06:19:42Z</time>
            </trkpt>
            <trkpt lon="101.552857" lat="12.993259">
                <ele>39.700000</ele>
                <time>2019-03-16T06:19:43Z</time>
            </trkpt>
            <trkpt lon="101.552859" lat="12.993216">
                <ele>39.400000</ele>
                <time>2019-03-16T06:19:44Z</time>
            </trkpt>
            <trkpt lon="101.552863" lat="12.993174">
                <ele>39.200000</ele>
                <time>2019-03-16T06:19:45Z</time>
            </trkpt>
            <trkpt lon="101.552866" lat="12.993136">
                <ele>38.900000</ele>
                <time>2019-03-16T06:19:46Z</time>
            </trkpt>
            <trkpt lon="101.552867" lat="12.993100">
                <ele>38.900000</ele>
                <time>2019-03-16T06:19:47Z</time>
            </trkpt>
            <trkpt lon="101.552863" lat="12.993054">
                <ele>38.900000</ele>
                <time>2019-03-16T06:19:49Z</time>
            </trkpt>
            <trkpt lon="101.552852" lat="12.993012">
                <ele>38.900000</ele>
                <time>2019-03-16T06:19:51Z</time>
            </trkpt>
            <trkpt lon="101.552846" lat="12.992980">
                <ele>38.900000</ele>
                <time>2019-03-16T06:19:52Z</time>
            </trkpt>
            <trkpt lon="101.552841" lat="12.992947">
                <ele>38.900000</ele>
                <time>2019-03-16T06:19:53Z</time>
            </trkpt>
            <trkpt lon="101.552840" lat="12.992909">
                <ele>38.700000</ele>
                <time>2019-03-16T06:19:54Z</time>
            </trkpt>
            <trkpt lon="101.552841" lat="12.992872">
                <ele>38.400000</ele>
                <time>2019-03-16T06:19:55Z</time>
            </trkpt>
            <trkpt lon="101.552841" lat="12.992833">
                <ele>38.200000</ele>
                <time>2019-03-16T06:19:56Z</time>
            </trkpt>
            <trkpt lon="101.552839" lat="12.992792">
                <ele>38.000000</ele>
                <time>2019-03-16T06:19:57Z</time>
            </trkpt>
            <trkpt lon="101.552834" lat="12.992754">
                <ele>37.800000</ele>
                <time>2019-03-16T06:19:58Z</time>
            </trkpt>
            <trkpt lon="101.552824" lat="12.992712">
                <ele>37.700000</ele>
                <time>2019-03-16T06:19:59Z</time>
            </trkpt>
            <trkpt lon="101.552814" lat="12.992672">
                <ele>37.600000</ele>
                <time>2019-03-16T06:20:00Z</time>
            </trkpt>
            <trkpt lon="101.552806" lat="12.992634">
                <ele>37.300000</ele>
                <time>2019-03-16T06:20:01Z</time>
            </trkpt>
            <trkpt lon="101.552796" lat="12.992596">
                <ele>37.100000</ele>
                <time>2019-03-16T06:20:02Z</time>
            </trkpt>
            <trkpt lon="101.552783" lat="12.992557">
                <ele>37.100000</ele>
                <time>2019-03-16T06:20:03Z</time>
            </trkpt>
            <trkpt lon="101.552767" lat="12.992519">
                <ele>36.600000</ele>
                <time>2019-03-16T06:20:04Z</time>
            </trkpt>
            <trkpt lon="101.552751" lat="12.992484">
                <ele>36.300000</ele>
                <time>2019-03-16T06:20:05Z</time>
            </trkpt>
            <trkpt lon="101.552739" lat="12.992452">
                <ele>36.100000</ele>
                <time>2019-03-16T06:20:06Z</time>
            </trkpt>
            <trkpt lon="101.552724" lat="12.992422">
                <ele>35.700000</ele>
                <time>2019-03-16T06:20:07Z</time>
            </trkpt>
            <trkpt lon="101.552706" lat="12.992391">
                <ele>35.700000</ele>
                <time>2019-03-16T06:20:08Z</time>
            </trkpt>
            <trkpt lon="101.552687" lat="12.992360">
                <ele>35.700000</ele>
                <time>2019-03-16T06:20:09Z</time>
            </trkpt>
            <trkpt lon="101.552672" lat="12.992332">
                <ele>35.200000</ele>
                <time>2019-03-16T06:20:10Z</time>
            </trkpt>
            <trkpt lon="101.552650" lat="12.992298">
                <ele>35.100000</ele>
                <time>2019-03-16T06:20:11Z</time>
            </trkpt>
            <trkpt lon="101.552628" lat="12.992266">
                <ele>34.700000</ele>
                <time>2019-03-16T06:20:12Z</time>
            </trkpt>
            <trkpt lon="101.552600" lat="12.992231">
                <ele>34.600000</ele>
                <time>2019-03-16T06:20:13Z</time>
            </trkpt>
            <trkpt lon="101.552572" lat="12.992193">
                <ele>34.100000</ele>
                <time>2019-03-16T06:20:14Z</time>
            </trkpt>
            <trkpt lon="101.552545" lat="12.992155">
                <ele>33.900000</ele>
                <time>2019-03-16T06:20:15Z</time>
            </trkpt>
            <trkpt lon="101.552514" lat="12.992118">
                <ele>33.900000</ele>
                <time>2019-03-16T06:20:16Z</time>
            </trkpt>
            <trkpt lon="101.552484" lat="12.992080">
                <ele>34.100000</ele>
                <time>2019-03-16T06:20:17Z</time>
            </trkpt>
            <trkpt lon="101.552454" lat="12.992044">
                <ele>34.600000</ele>
                <time>2019-03-16T06:20:18Z</time>
            </trkpt>
            <trkpt lon="101.552425" lat="12.992010">
                <ele>35.000000</ele>
                <time>2019-03-16T06:20:19Z</time>
            </trkpt>
            <trkpt lon="101.552397" lat="12.991979">
                <ele>35.200000</ele>
                <time>2019-03-16T06:20:20Z</time>
            </trkpt>
            <trkpt lon="101.552371" lat="12.991951">
                <ele>35.900000</ele>
                <time>2019-03-16T06:20:21Z</time>
            </trkpt>
            <trkpt lon="101.552344" lat="12.991924">
                <ele>36.400000</ele>
                <time>2019-03-16T06:20:22Z</time>
            </trkpt>
            <trkpt lon="101.552315" lat="12.991895">
                <ele>36.600000</ele>
                <time>2019-03-16T06:20:23Z</time>
            </trkpt>
            <trkpt lon="101.552285" lat="12.991868">
                <ele>37.400000</ele>
                <time>2019-03-16T06:20:24Z</time>
            </trkpt>
            <trkpt lon="101.552254" lat="12.991842">
                <ele>37.900000</ele>
                <time>2019-03-16T06:20:25Z</time>
            </trkpt>
            <trkpt lon="101.552221" lat="12.991820">
                <ele>38.100000</ele>
                <time>2019-03-16T06:20:26Z</time>
            </trkpt>
            <trkpt lon="101.552186" lat="12.991802">
                <ele>38.900000</ele>
                <time>2019-03-16T06:20:27Z</time>
            </trkpt>
            <trkpt lon="101.552151" lat="12.991789">
                <ele>39.100000</ele>
                <time>2019-03-16T06:20:28Z</time>
            </trkpt>
            <trkpt lon="101.552115" lat="12.991780">
                <ele>39.400000</ele>
                <time>2019-03-16T06:20:29Z</time>
            </trkpt>
            <trkpt lon="101.552079" lat="12.991775">
                <ele>39.700000</ele>
                <time>2019-03-16T06:20:30Z</time>
            </trkpt>
            <trkpt lon="101.552042" lat="12.991770">
                <ele>39.700000</ele>
                <time>2019-03-16T06:20:31Z</time>
            </trkpt>
            <trkpt lon="101.552004" lat="12.991764">
                <ele>39.700000</ele>
                <time>2019-03-16T06:20:32Z</time>
            </trkpt>
            <trkpt lon="101.551964" lat="12.991759">
                <ele>39.700000</ele>
                <time>2019-03-16T06:20:33Z</time>
            </trkpt>
            <trkpt lon="101.551927" lat="12.991754">
                <ele>39.400000</ele>
                <time>2019-03-16T06:20:34Z</time>
            </trkpt>
            <trkpt lon="101.551889" lat="12.991750">
                <ele>39.200000</ele>
                <time>2019-03-16T06:20:35Z</time>
            </trkpt>
            <trkpt lon="101.551849" lat="12.991744">
                <ele>38.900000</ele>
                <time>2019-03-16T06:20:36Z</time>
            </trkpt>
            <trkpt lon="101.551809" lat="12.991736">
                <ele>38.600000</ele>
                <time>2019-03-16T06:20:37Z</time>
            </trkpt>
            <trkpt lon="101.551770" lat="12.991727">
                <ele>38.300000</ele>
                <time>2019-03-16T06:20:38Z</time>
            </trkpt>
            <trkpt lon="101.551731" lat="12.991717">
                <ele>38.100000</ele>
                <time>2019-03-16T06:20:39Z</time>
            </trkpt>
            <trkpt lon="101.551693" lat="12.991708">
                <ele>37.800000</ele>
                <time>2019-03-16T06:20:40Z</time>
            </trkpt>
            <trkpt lon="101.551657" lat="12.991696">
                <ele>37.800000</ele>
                <time>2019-03-16T06:20:41Z</time>
            </trkpt>
            <trkpt lon="101.551621" lat="12.991682">
                <ele>37.500000</ele>
                <time>2019-03-16T06:20:42Z</time>
            </trkpt>
            <trkpt lon="101.551586" lat="12.991667">
                <ele>37.300000</ele>
                <time>2019-03-16T06:20:43Z</time>
            </trkpt>
            <trkpt lon="101.551553" lat="12.991652">
                <ele>37.000000</ele>
                <time>2019-03-16T06:20:44Z</time>
            </trkpt>
            <trkpt lon="101.551522" lat="12.991639">
                <ele>36.900000</ele>
                <time>2019-03-16T06:20:45Z</time>
            </trkpt>
            <trkpt lon="101.551495" lat="12.991624">
                <ele>36.900000</ele>
                <time>2019-03-16T06:20:46Z</time>
            </trkpt>
            <trkpt lon="101.551448" lat="12.991590">
                <ele>36.700000</ele>
                <time>2019-03-16T06:20:48Z</time>
            </trkpt>
            <trkpt lon="101.551437" lat="12.991563">
                <ele>36.700000</ele>
                <time>2019-03-16T06:20:49Z</time>
            </trkpt>
            <trkpt lon="101.551479" lat="12.991522">
                <ele>36.500000</ele>
                <time>2019-03-16T06:20:51Z</time>
            </trkpt>
            <trkpt lon="101.551512" lat="12.991506">
                <ele>36.200000</ele>
                <time>2019-03-16T06:20:52Z</time>
            </trkpt>
            <trkpt lon="101.551551" lat="12.991485">
                <ele>36.400000</ele>
                <time>2019-03-16T06:20:53Z</time>
            </trkpt>
            <trkpt lon="101.551590" lat="12.991464">
                <ele>36.700000</ele>
                <time>2019-03-16T06:20:54Z</time>
            </trkpt>
            <trkpt lon="101.551629" lat="12.991442">
                <ele>37.200000</ele>
                <time>2019-03-16T06:20:55Z</time>
            </trkpt>
            <trkpt lon="101.551666" lat="12.991423">
                <ele>37.700000</ele>
                <time>2019-03-16T06:20:56Z</time>
            </trkpt>
            <trkpt lon="101.551697" lat="12.991407">
                <ele>38.100000</ele>
                <time>2019-03-16T06:20:57Z</time>
            </trkpt>
            <trkpt lon="101.551731" lat="12.991390">
                <ele>38.100000</ele>
                <time>2019-03-16T06:20:58Z</time>
            </trkpt>
            <trkpt lon="101.551763" lat="12.991384">
                <ele>38.600000</ele>
                <time>2019-03-16T06:20:59Z</time>
            </trkpt>
            <trkpt lon="101.551800" lat="12.991388">
                <ele>39.100000</ele>
                <time>2019-03-16T06:21:00Z</time>
            </trkpt>
            <trkpt lon="101.551836" lat="12.991396">
                <ele>39.600000</ele>
                <time>2019-03-16T06:21:01Z</time>
            </trkpt>
            <trkpt lon="101.551874" lat="12.991406">
                <ele>40.100000</ele>
                <time>2019-03-16T06:21:02Z</time>
            </trkpt>
            <trkpt lon="101.551909" lat="12.991411">
                <ele>40.100000</ele>
                <time>2019-03-16T06:21:03Z</time>
            </trkpt>
            <trkpt lon="101.551941" lat="12.991414">
                <ele>40.500000</ele>
                <time>2019-03-16T06:21:04Z</time>
            </trkpt>
            <trkpt lon="101.551977" lat="12.991414">
                <ele>40.900000</ele>
                <time>2019-03-16T06:21:05Z</time>
            </trkpt>
            <trkpt lon="101.552006" lat="12.991413">
                <ele>41.300000</ele>
                <time>2019-03-16T06:21:06Z</time>
            </trkpt>
            <trkpt lon="101.552039" lat="12.991411">
                <ele>41.500000</ele>
                <time>2019-03-16T06:21:07Z</time>
            </trkpt>
            <trkpt lon="101.552073" lat="12.991406">
                <ele>41.500000</ele>
                <time>2019-03-16T06:21:08Z</time>
            </trkpt>
            <trkpt lon="101.552114" lat="12.991404">
                <ele>41.300000</ele>
                <time>2019-03-16T06:21:09Z</time>
            </trkpt>
            <trkpt lon="101.552154" lat="12.991401">
                <ele>41.100000</ele>
                <time>2019-03-16T06:21:10Z</time>
            </trkpt>
            <trkpt lon="101.552194" lat="12.991398">
                <ele>41.000000</ele>
                <time>2019-03-16T06:21:11Z</time>
            </trkpt>
            <trkpt lon="101.552234" lat="12.991395">
                <ele>40.800000</ele>
                <time>2019-03-16T06:21:12Z</time>
            </trkpt>
            <trkpt lon="101.552274" lat="12.991392">
                <ele>40.500000</ele>
                <time>2019-03-16T06:21:13Z</time>
            </trkpt>
            <trkpt lon="101.552315" lat="12.991391">
                <ele>40.300000</ele>
                <time>2019-03-16T06:21:14Z</time>
            </trkpt>
            <trkpt lon="101.552353" lat="12.991394">
                <ele>40.000000</ele>
                <time>2019-03-16T06:21:15Z</time>
            </trkpt>
            <trkpt lon="101.552391" lat="12.991399">
                <ele>39.800000</ele>
                <time>2019-03-16T06:21:16Z</time>
            </trkpt>
            <trkpt lon="101.552426" lat="12.991410">
                <ele>39.500000</ele>
                <time>2019-03-16T06:21:17Z</time>
            </trkpt>
            <trkpt lon="101.552459" lat="12.991425">
                <ele>39.500000</ele>
                <time>2019-03-16T06:21:18Z</time>
            </trkpt>
            <trkpt lon="101.552492" lat="12.991443">
                <ele>39.200000</ele>
                <time>2019-03-16T06:21:19Z</time>
            </trkpt>
            <trkpt lon="101.552524" lat="12.991464">
                <ele>38.900000</ele>
                <time>2019-03-16T06:21:20Z</time>
            </trkpt>
            <trkpt lon="101.552553" lat="12.991488">
                <ele>38.700000</ele>
                <time>2019-03-16T06:21:21Z</time>
            </trkpt>
            <trkpt lon="101.552585" lat="12.991514">
                <ele>38.100000</ele>
                <time>2019-03-16T06:21:22Z</time>
            </trkpt>
            <trkpt lon="101.552616" lat="12.991544">
                <ele>37.800000</ele>
                <time>2019-03-16T06:21:23Z</time>
            </trkpt>
            <trkpt lon="101.552642" lat="12.991570">
                <ele>37.300000</ele>
                <time>2019-03-16T06:21:24Z</time>
            </trkpt>
            <trkpt lon="101.552675" lat="12.991602">
                <ele>37.200000</ele>
                <time>2019-03-16T06:21:25Z</time>
            </trkpt>
            <trkpt lon="101.552705" lat="12.991629">
                <ele>37.000000</ele>
                <time>2019-03-16T06:21:26Z</time>
            </trkpt>
            <trkpt lon="101.552739" lat="12.991659">
                <ele>36.800000</ele>
                <time>2019-03-16T06:21:27Z</time>
            </trkpt>
            <trkpt lon="101.552772" lat="12.991686">
                <ele>36.500000</ele>
                <time>2019-03-16T06:21:28Z</time>
            </trkpt>
            <trkpt lon="101.552806" lat="12.991713">
                <ele>36.500000</ele>
                <time>2019-03-16T06:21:29Z</time>
            </trkpt>
            <trkpt lon="101.552837" lat="12.991738">
                <ele>36.300000</ele>
                <time>2019-03-16T06:21:30Z</time>
            </trkpt>
            <trkpt lon="101.552866" lat="12.991763">
                <ele>36.100000</ele>
                <time>2019-03-16T06:21:31Z</time>
            </trkpt>
            <trkpt lon="101.552895" lat="12.991789">
                <ele>36.100000</ele>
                <time>2019-03-16T06:21:32Z</time>
            </trkpt>
            <trkpt lon="101.552928" lat="12.991818">
                <ele>36.200000</ele>
                <time>2019-03-16T06:21:33Z</time>
            </trkpt>
            <trkpt lon="101.552960" lat="12.991850">
                <ele>36.500000</ele>
                <time>2019-03-16T06:21:34Z</time>
            </trkpt>
            <trkpt lon="101.552992" lat="12.991883">
                <ele>36.500000</ele>
                <time>2019-03-16T06:21:35Z</time>
            </trkpt>
            <trkpt lon="101.553023" lat="12.991917">
                <ele>36.700000</ele>
                <time>2019-03-16T06:21:36Z</time>
            </trkpt>
            <trkpt lon="101.553052" lat="12.991949">
                <ele>36.900000</ele>
                <time>2019-03-16T06:21:37Z</time>
            </trkpt>
            <trkpt lon="101.553077" lat="12.991983">
                <ele>36.800000</ele>
                <time>2019-03-16T06:21:38Z</time>
            </trkpt>
            <trkpt lon="101.553103" lat="12.992017">
                <ele>36.800000</ele>
                <time>2019-03-16T06:21:39Z</time>
            </trkpt>
            <trkpt lon="101.553127" lat="12.992051">
                <ele>36.700000</ele>
                <time>2019-03-16T06:21:40Z</time>
            </trkpt>
            <trkpt lon="101.553149" lat="12.992085">
                <ele>36.800000</ele>
                <time>2019-03-16T06:21:41Z</time>
            </trkpt>
            <trkpt lon="101.553174" lat="12.992120">
                <ele>36.900000</ele>
                <time>2019-03-16T06:21:42Z</time>
            </trkpt>
            <trkpt lon="101.553199" lat="12.992155">
                <ele>37.200000</ele>
                <time>2019-03-16T06:21:43Z</time>
            </trkpt>
            <trkpt lon="101.553224" lat="12.992192">
                <ele>37.400000</ele>
                <time>2019-03-16T06:21:44Z</time>
            </trkpt>
            <trkpt lon="101.553254" lat="12.992229">
                <ele>37.800000</ele>
                <time>2019-03-16T06:21:45Z</time>
            </trkpt>
            <trkpt lon="101.553285" lat="12.992268">
                <ele>38.200000</ele>
                <time>2019-03-16T06:21:46Z</time>
            </trkpt>
            <trkpt lon="101.553316" lat="12.992305">
                <ele>38.200000</ele>
                <time>2019-03-16T06:21:47Z</time>
            </trkpt>
            <trkpt lon="101.553349" lat="12.992339">
                <ele>38.500000</ele>
                <time>2019-03-16T06:21:48Z</time>
            </trkpt>
            <trkpt lon="101.553382" lat="12.992372">
                <ele>38.700000</ele>
                <time>2019-03-16T06:21:49Z</time>
            </trkpt>
            <trkpt lon="101.553416" lat="12.992405">
                <ele>39.100000</ele>
                <time>2019-03-16T06:21:50Z</time>
            </trkpt>
            <trkpt lon="101.553449" lat="12.992433">
                <ele>39.100000</ele>
                <time>2019-03-16T06:21:51Z</time>
            </trkpt>
            <trkpt lon="101.553480" lat="12.992460">
                <ele>39.600000</ele>
                <time>2019-03-16T06:21:52Z</time>
            </trkpt>
            <trkpt lon="101.553509" lat="12.992489">
                <ele>40.100000</ele>
                <time>2019-03-16T06:21:53Z</time>
            </trkpt>
            <trkpt lon="101.553537" lat="12.992515">
                <ele>40.100000</ele>
                <time>2019-03-16T06:21:54Z</time>
            </trkpt>
            <trkpt lon="101.553566" lat="12.992546">
                <ele>40.600000</ele>
                <time>2019-03-16T06:21:55Z</time>
            </trkpt>
            <trkpt lon="101.553596" lat="12.992578">
                <ele>40.900000</ele>
                <time>2019-03-16T06:21:56Z</time>
            </trkpt>
            <trkpt lon="101.553621" lat="12.992611">
                <ele>40.800000</ele>
                <time>2019-03-16T06:21:57Z</time>
            </trkpt>
            <trkpt lon="101.553645" lat="12.992644">
                <ele>40.600000</ele>
                <time>2019-03-16T06:21:58Z</time>
            </trkpt>
            <trkpt lon="101.553667" lat="12.992680">
                <ele>40.600000</ele>
                <time>2019-03-16T06:21:59Z</time>
            </trkpt>
            <trkpt lon="101.553691" lat="12.992723">
                <ele>40.300000</ele>
                <time>2019-03-16T06:22:00Z</time>
            </trkpt>
            <trkpt lon="101.553710" lat="12.992763">
                <ele>40.100000</ele>
                <time>2019-03-16T06:22:01Z</time>
            </trkpt>
            <trkpt lon="101.553732" lat="12.992806">
                <ele>39.800000</ele>
                <time>2019-03-16T06:22:02Z</time>
            </trkpt>
            <trkpt lon="101.553751" lat="12.992846">
                <ele>39.600000</ele>
                <time>2019-03-16T06:22:03Z</time>
            </trkpt>
            <trkpt lon="101.553771" lat="12.992886">
                <ele>39.300000</ele>
                <time>2019-03-16T06:22:04Z</time>
            </trkpt>
            <trkpt lon="101.553789" lat="12.992924">
                <ele>39.100000</ele>
                <time>2019-03-16T06:22:05Z</time>
            </trkpt>
            <trkpt lon="101.553808" lat="12.992961">
                <ele>38.800000</ele>
                <time>2019-03-16T06:22:06Z</time>
            </trkpt>
            <trkpt lon="101.553831" lat="12.992998">
                <ele>38.600000</ele>
                <time>2019-03-16T06:22:07Z</time>
            </trkpt>
            <trkpt lon="101.553856" lat="12.993034">
                <ele>38.300000</ele>
                <time>2019-03-16T06:22:08Z</time>
            </trkpt>
            <trkpt lon="101.553883" lat="12.993071">
                <ele>38.100000</ele>
                <time>2019-03-16T06:22:09Z</time>
            </trkpt>
            <trkpt lon="101.553913" lat="12.993097">
                <ele>38.100000</ele>
                <time>2019-03-16T06:22:10Z</time>
            </trkpt>
            <trkpt lon="101.553945" lat="12.993123">
                <ele>38.100000</ele>
                <time>2019-03-16T06:22:11Z</time>
            </trkpt>
            <trkpt lon="101.553984" lat="12.993137">
                <ele>38.600000</ele>
                <time>2019-03-16T06:22:12Z</time>
            </trkpt>
            <trkpt lon="101.554027" lat="12.993145">
                <ele>39.200000</ele>
                <time>2019-03-16T06:22:13Z</time>
            </trkpt>
            <trkpt lon="101.554066" lat="12.993146">
                <ele>39.600000</ele>
                <time>2019-03-16T06:22:14Z</time>
            </trkpt>
            <trkpt lon="101.554103" lat="12.993140">
                <ele>40.100000</ele>
                <time>2019-03-16T06:22:15Z</time>
            </trkpt>
            <trkpt lon="101.554135" lat="12.993129">
                <ele>40.100000</ele>
                <time>2019-03-16T06:22:16Z</time>
            </trkpt>
            <trkpt lon="101.554164" lat="12.993108">
                <ele>40.600000</ele>
                <time>2019-03-16T06:22:17Z</time>
            </trkpt>
            <trkpt lon="101.554186" lat="12.993075">
                <ele>41.000000</ele>
                <time>2019-03-16T06:22:18Z</time>
            </trkpt>
            <trkpt lon="101.554199" lat="12.993038">
                <ele>40.800000</ele>
                <time>2019-03-16T06:22:19Z</time>
            </trkpt>
            <trkpt lon="101.554202" lat="12.993000">
                <ele>40.700000</ele>
                <time>2019-03-16T06:22:20Z</time>
            </trkpt>
            <trkpt lon="101.554200" lat="12.992955">
                <ele>40.500000</ele>
                <time>2019-03-16T06:22:21Z</time>
            </trkpt>
            <trkpt lon="101.554190" lat="12.992909">
                <ele>40.700000</ele>
                <time>2019-03-16T06:22:22Z</time>
            </trkpt>
            <trkpt lon="101.554178" lat="12.992865">
                <ele>40.700000</ele>
                <time>2019-03-16T06:22:23Z</time>
            </trkpt>
            <trkpt lon="101.554163" lat="12.992824">
                <ele>40.900000</ele>
                <time>2019-03-16T06:22:24Z</time>
            </trkpt>
            <trkpt lon="101.554141" lat="12.992783">
                <ele>40.900000</ele>
                <time>2019-03-16T06:22:25Z</time>
            </trkpt>
            <trkpt lon="101.554116" lat="12.992743">
                <ele>41.200000</ele>
                <time>2019-03-16T06:22:26Z</time>
            </trkpt>
            <trkpt lon="101.554093" lat="12.992706">
                <ele>41.200000</ele>
                <time>2019-03-16T06:22:27Z</time>
            </trkpt>
            <trkpt lon="101.554071" lat="12.992672">
                <ele>41.500000</ele>
                <time>2019-03-16T06:22:28Z</time>
            </trkpt>
            <trkpt lon="101.554046" lat="12.992634">
                <ele>41.800000</ele>
                <time>2019-03-16T06:22:29Z</time>
            </trkpt>
            <trkpt lon="101.554020" lat="12.992595">
                <ele>41.900000</ele>
                <time>2019-03-16T06:22:30Z</time>
            </trkpt>
            <trkpt lon="101.553999" lat="12.992556">
                <ele>41.900000</ele>
                <time>2019-03-16T06:22:31Z</time>
            </trkpt>
            <trkpt lon="101.553977" lat="12.992519">
                <ele>41.900000</ele>
                <time>2019-03-16T06:22:32Z</time>
            </trkpt>
            <trkpt lon="101.553955" lat="12.992481">
                <ele>41.900000</ele>
                <time>2019-03-16T06:22:33Z</time>
            </trkpt>
            <trkpt lon="101.553934" lat="12.992446">
                <ele>41.900000</ele>
                <time>2019-03-16T06:22:34Z</time>
            </trkpt>
            <trkpt lon="101.553914" lat="12.992412">
                <ele>41.700000</ele>
                <time>2019-03-16T06:22:35Z</time>
            </trkpt>
            <trkpt lon="101.553890" lat="12.992376">
                <ele>41.500000</ele>
                <time>2019-03-16T06:22:36Z</time>
            </trkpt>
            <trkpt lon="101.553869" lat="12.992339">
                <ele>41.200000</ele>
                <time>2019-03-16T06:22:37Z</time>
            </trkpt>
            <trkpt lon="101.553850" lat="12.992297">
                <ele>41.000000</ele>
                <time>2019-03-16T06:22:38Z</time>
            </trkpt>
            <trkpt lon="101.553835" lat="12.992256">
                <ele>40.800000</ele>
                <time>2019-03-16T06:22:39Z</time>
            </trkpt>
            <trkpt lon="101.553820" lat="12.992213">
                <ele>40.600000</ele>
                <time>2019-03-16T06:22:40Z</time>
            </trkpt>
            <trkpt lon="101.553805" lat="12.992172">
                <ele>40.400000</ele>
                <time>2019-03-16T06:22:41Z</time>
            </trkpt>
            <trkpt lon="101.553790" lat="12.992133">
                <ele>40.100000</ele>
                <time>2019-03-16T06:22:42Z</time>
            </trkpt>
            <trkpt lon="101.553778" lat="12.992095">
                <ele>39.800000</ele>
                <time>2019-03-16T06:22:43Z</time>
            </trkpt>
            <trkpt lon="101.553769" lat="12.992052">
                <ele>39.600000</ele>
                <time>2019-03-16T06:22:44Z</time>
            </trkpt>
            <trkpt lon="101.553765" lat="12.992010">
                <ele>39.300000</ele>
                <time>2019-03-16T06:22:45Z</time>
            </trkpt>
            <trkpt lon="101.553760" lat="12.991966">
                <ele>39.100000</ele>
                <time>2019-03-16T06:22:46Z</time>
            </trkpt>
            <trkpt lon="101.553753" lat="12.991924">
                <ele>38.600000</ele>
                <time>2019-03-16T06:22:47Z</time>
            </trkpt>
            <trkpt lon="101.553751" lat="12.991881">
                <ele>38.300000</ele>
                <time>2019-03-16T06:22:48Z</time>
            </trkpt>
            <trkpt lon="101.553750" lat="12.991838">
                <ele>38.100000</ele>
                <time>2019-03-16T06:22:49Z</time>
            </trkpt>
            <trkpt lon="101.553755" lat="12.991792">
                <ele>38.200000</ele>
                <time>2019-03-16T06:22:50Z</time>
            </trkpt>
            <trkpt lon="101.553766" lat="12.991748">
                <ele>38.100000</ele>
                <time>2019-03-16T06:22:51Z</time>
            </trkpt>
            <trkpt lon="101.553788" lat="12.991705">
                <ele>38.000000</ele>
                <time>2019-03-16T06:22:52Z</time>
            </trkpt>
            <trkpt lon="101.553820" lat="12.991667">
                <ele>38.400000</ele>
                <time>2019-03-16T06:22:53Z</time>
            </trkpt>
            <trkpt lon="101.553862" lat="12.991631">
                <ele>38.500000</ele>
                <time>2019-03-16T06:22:54Z</time>
            </trkpt>
            <trkpt lon="101.553904" lat="12.991607">
                <ele>38.800000</ele>
                <time>2019-03-16T06:22:55Z</time>
            </trkpt>
            <trkpt lon="101.553948" lat="12.991586">
                <ele>39.100000</ele>
                <time>2019-03-16T06:22:56Z</time>
            </trkpt>
            <trkpt lon="101.553998" lat="12.991564">
                <ele>39.600000</ele>
                <time>2019-03-16T06:22:57Z</time>
            </trkpt>
            <trkpt lon="101.554038" lat="12.991548">
                <ele>40.100000</ele>
                <time>2019-03-16T06:22:58Z</time>
            </trkpt>
            <trkpt lon="101.554075" lat="12.991533">
                <ele>40.600000</ele>
                <time>2019-03-16T06:22:59Z</time>
            </trkpt>
            <trkpt lon="101.554112" lat="12.991515">
                <ele>41.000000</ele>
                <time>2019-03-16T06:23:00Z</time>
            </trkpt>
            <trkpt lon="101.554146" lat="12.991500">
                <ele>41.300000</ele>
                <time>2019-03-16T06:23:01Z</time>
            </trkpt>
            <trkpt lon="101.554183" lat="12.991482">
                <ele>41.300000</ele>
                <time>2019-03-16T06:23:02Z</time>
            </trkpt>
            <trkpt lon="101.554227" lat="12.991459">
                <ele>41.800000</ele>
                <time>2019-03-16T06:23:03Z</time>
            </trkpt>
            <trkpt lon="101.554261" lat="12.991440">
                <ele>41.800000</ele>
                <time>2019-03-16T06:23:04Z</time>
            </trkpt>
            <trkpt lon="101.554291" lat="12.991422">
                <ele>41.800000</ele>
                <time>2019-03-16T06:23:05Z</time>
            </trkpt>
            <trkpt lon="101.554325" lat="12.991395">
                <ele>41.800000</ele>
                <time>2019-03-16T06:23:06Z</time>
            </trkpt>
            <trkpt lon="101.554350" lat="12.991369">
                <ele>41.600000</ele>
                <time>2019-03-16T06:23:07Z</time>
            </trkpt>
            <trkpt lon="101.554369" lat="12.991336">
                <ele>41.300000</ele>
                <time>2019-03-16T06:23:08Z</time>
            </trkpt>
            <trkpt lon="101.554377" lat="12.991303">
                <ele>41.300000</ele>
                <time>2019-03-16T06:23:09Z</time>
            </trkpt>
            <trkpt lon="101.554382" lat="12.991271">
                <ele>41.100000</ele>
                <time>2019-03-16T06:23:10Z</time>
            </trkpt>
            <trkpt lon="101.554381" lat="12.991238">
                <ele>41.000000</ele>
                <time>2019-03-16T06:23:11Z</time>
            </trkpt>
            <trkpt lon="101.554380" lat="12.991202">
                <ele>41.000000</ele>
                <time>2019-03-16T06:23:12Z</time>
            </trkpt>
            <trkpt lon="101.554381" lat="12.991168">
                <ele>41.000000</ele>
                <time>2019-03-16T06:23:13Z</time>
            </trkpt>
            <trkpt lon="101.554383" lat="12.991136">
                <ele>41.000000</ele>
                <time>2019-03-16T06:23:14Z</time>
            </trkpt>
            <trkpt lon="101.554386" lat="12.991107">
                <ele>41.000000</ele>
                <time>2019-03-16T06:23:15Z</time>
            </trkpt>
            <trkpt lon="101.554392" lat="12.991073">
                <ele>41.100000</ele>
                <time>2019-03-16T06:23:16Z</time>
            </trkpt>
            <trkpt lon="101.554395" lat="12.991042">
                <ele>41.400000</ele>
                <time>2019-03-16T06:23:17Z</time>
            </trkpt>
            <trkpt lon="101.554399" lat="12.991010">
                <ele>41.400000</ele>
                <time>2019-03-16T06:23:18Z</time>
            </trkpt>
            <trkpt lon="101.554404" lat="12.990977">
                <ele>41.600000</ele>
                <time>2019-03-16T06:23:19Z</time>
            </trkpt>
            <trkpt lon="101.554413" lat="12.990945">
                <ele>41.900000</ele>
                <time>2019-03-16T06:23:20Z</time>
            </trkpt>
            <trkpt lon="101.554437" lat="12.990927">
                <ele>41.900000</ele>
                <time>2019-03-16T06:23:21Z</time>
            </trkpt>
            <trkpt lon="101.554463" lat="12.990919">
                <ele>42.700000</ele>
                <time>2019-03-16T06:23:22Z</time>
            </trkpt>
            <trkpt lon="101.554500" lat="12.990910">
                <ele>43.100000</ele>
                <time>2019-03-16T06:23:23Z</time>
            </trkpt>
            <trkpt lon="101.554536" lat="12.990903">
                <ele>43.600000</ele>
                <time>2019-03-16T06:23:24Z</time>
            </trkpt>
            <trkpt lon="101.554573" lat="12.990895">
                <ele>44.100000</ele>
                <time>2019-03-16T06:23:25Z</time>
            </trkpt>
            <trkpt lon="101.554616" lat="12.990888">
                <ele>44.600000</ele>
                <time>2019-03-16T06:23:26Z</time>
            </trkpt>
            <trkpt lon="101.554660" lat="12.990878">
                <ele>45.600000</ele>
                <time>2019-03-16T06:23:27Z</time>
            </trkpt>
            <trkpt lon="101.554699" lat="12.990870">
                <ele>45.800000</ele>
                <time>2019-03-16T06:23:28Z</time>
            </trkpt>
            <trkpt lon="101.554733" lat="12.990861">
                <ele>45.800000</ele>
                <time>2019-03-16T06:23:29Z</time>
            </trkpt>
            <trkpt lon="101.554766" lat="12.990848">
                <ele>46.100000</ele>
                <time>2019-03-16T06:23:30Z</time>
            </trkpt>
            <trkpt lon="101.554798" lat="12.990833">
                <ele>47.000000</ele>
                <time>2019-03-16T06:23:31Z</time>
            </trkpt>
            <trkpt lon="101.554830" lat="12.990814">
                <ele>47.000000</ele>
                <time>2019-03-16T06:23:32Z</time>
            </trkpt>
            <trkpt lon="101.554860" lat="12.990788">
                <ele>47.700000</ele>
                <time>2019-03-16T06:23:33Z</time>
            </trkpt>
            <trkpt lon="101.554885" lat="12.990762">
                <ele>47.700000</ele>
                <time>2019-03-16T06:23:34Z</time>
            </trkpt>
            <trkpt lon="101.554908" lat="12.990726">
                <ele>48.300000</ele>
                <time>2019-03-16T06:23:35Z</time>
            </trkpt>
            <trkpt lon="101.554927" lat="12.990687">
                <ele>48.800000</ele>
                <time>2019-03-16T06:23:36Z</time>
            </trkpt>
            <trkpt lon="101.554945" lat="12.990652">
                <ele>49.300000</ele>
                <time>2019-03-16T06:23:37Z</time>
            </trkpt>
            <trkpt lon="101.554961" lat="12.990614">
                <ele>49.700000</ele>
                <time>2019-03-16T06:23:38Z</time>
            </trkpt>
            <trkpt lon="101.554973" lat="12.990579">
                <ele>49.900000</ele>
                <time>2019-03-16T06:23:39Z</time>
            </trkpt>
            <trkpt lon="101.554982" lat="12.990543">
                <ele>49.900000</ele>
                <time>2019-03-16T06:23:40Z</time>
            </trkpt>
            <trkpt lon="101.554992" lat="12.990504">
                <ele>49.900000</ele>
                <time>2019-03-16T06:23:41Z</time>
            </trkpt>
            <trkpt lon="101.554998" lat="12.990464">
                <ele>49.900000</ele>
                <time>2019-03-16T06:23:42Z</time>
            </trkpt>
            <trkpt lon="101.555004" lat="12.990426">
                <ele>49.700000</ele>
                <time>2019-03-16T06:23:43Z</time>
            </trkpt>
            <trkpt lon="101.555011" lat="12.990384">
                <ele>49.700000</ele>
                <time>2019-03-16T06:23:44Z</time>
            </trkpt>
            <trkpt lon="101.555018" lat="12.990347">
                <ele>49.700000</ele>
                <time>2019-03-16T06:23:45Z</time>
            </trkpt>
            <trkpt lon="101.555030" lat="12.990310">
                <ele>49.700000</ele>
                <time>2019-03-16T06:23:46Z</time>
            </trkpt>
            <trkpt lon="101.555040" lat="12.990276">
                <ele>49.700000</ele>
                <time>2019-03-16T06:23:47Z</time>
            </trkpt>
            <trkpt lon="101.555053" lat="12.990236">
                <ele>49.600000</ele>
                <time>2019-03-16T06:23:48Z</time>
            </trkpt>
            <trkpt lon="101.555063" lat="12.990196">
                <ele>49.800000</ele>
                <time>2019-03-16T06:23:49Z</time>
            </trkpt>
            <trkpt lon="101.555070" lat="12.990161">
                <ele>50.100000</ele>
                <time>2019-03-16T06:23:50Z</time>
            </trkpt>
            <trkpt lon="101.555078" lat="12.990123">
                <ele>50.300000</ele>
                <time>2019-03-16T06:23:51Z</time>
            </trkpt>
            <trkpt lon="101.555086" lat="12.990084">
                <ele>50.300000</ele>
                <time>2019-03-16T06:23:52Z</time>
            </trkpt>
            <trkpt lon="101.555095" lat="12.990042">
                <ele>50.600000</ele>
                <time>2019-03-16T06:23:53Z</time>
            </trkpt>
            <trkpt lon="101.555105" lat="12.990000">
                <ele>50.800000</ele>
                <time>2019-03-16T06:23:54Z</time>
            </trkpt>
            <trkpt lon="101.555114" lat="12.989963">
                <ele>51.100000</ele>
                <time>2019-03-16T06:23:55Z</time>
            </trkpt>
            <trkpt lon="101.555127" lat="12.989917">
                <ele>51.300000</ele>
                <time>2019-03-16T06:23:56Z</time>
            </trkpt>
            <trkpt lon="101.555138" lat="12.989876">
                <ele>51.100000</ele>
                <time>2019-03-16T06:23:57Z</time>
            </trkpt>
            <trkpt lon="101.555147" lat="12.989834">
                <ele>51.100000</ele>
                <time>2019-03-16T06:23:58Z</time>
            </trkpt>
            <trkpt lon="101.555160" lat="12.989790">
                <ele>51.100000</ele>
                <time>2019-03-16T06:23:59Z</time>
            </trkpt>
            <trkpt lon="101.555169" lat="12.989751">
                <ele>51.200000</ele>
                <time>2019-03-16T06:24:00Z</time>
            </trkpt>
            <trkpt lon="101.555179" lat="12.989709">
                <ele>51.300000</ele>
                <time>2019-03-16T06:24:01Z</time>
            </trkpt>
            <trkpt lon="101.555189" lat="12.989667">
                <ele>51.500000</ele>
                <time>2019-03-16T06:24:02Z</time>
            </trkpt>
            <trkpt lon="101.555199" lat="12.989626">
                <ele>51.700000</ele>
                <time>2019-03-16T06:24:03Z</time>
            </trkpt>
            <trkpt lon="101.555210" lat="12.989583">
                <ele>51.800000</ele>
                <time>2019-03-16T06:24:04Z</time>
            </trkpt>
            <trkpt lon="101.555219" lat="12.989542">
                <ele>51.800000</ele>
                <time>2019-03-16T06:24:05Z</time>
            </trkpt>
            <trkpt lon="101.555230" lat="12.989497">
                <ele>51.900000</ele>
                <time>2019-03-16T06:24:06Z</time>
            </trkpt>
            <trkpt lon="101.555239" lat="12.989452">
                <ele>52.100000</ele>
                <time>2019-03-16T06:24:07Z</time>
            </trkpt>
            <trkpt lon="101.555251" lat="12.989402">
                <ele>52.100000</ele>
                <time>2019-03-16T06:24:08Z</time>
            </trkpt>
            <trkpt lon="101.555260" lat="12.989355">
                <ele>52.100000</ele>
                <time>2019-03-16T06:24:09Z</time>
            </trkpt>
            <trkpt lon="101.555271" lat="12.989310">
                <ele>52.100000</ele>
                <time>2019-03-16T06:24:10Z</time>
            </trkpt>
            <trkpt lon="101.555281" lat="12.989265">
                <ele>52.100000</ele>
                <time>2019-03-16T06:24:11Z</time>
            </trkpt>
            <trkpt lon="101.555292" lat="12.989219">
                <ele>52.100000</ele>
                <time>2019-03-16T06:24:12Z</time>
            </trkpt>
            <trkpt lon="101.555303" lat="12.989172">
                <ele>52.000000</ele>
                <time>2019-03-16T06:24:13Z</time>
            </trkpt>
            <trkpt lon="101.555313" lat="12.989127">
                <ele>52.000000</ele>
                <time>2019-03-16T06:24:14Z</time>
            </trkpt>
            <trkpt lon="101.555324" lat="12.989081">
                <ele>51.800000</ele>
                <time>2019-03-16T06:24:15Z</time>
            </trkpt>
            <trkpt lon="101.555334" lat="12.989039">
                <ele>51.300000</ele>
                <time>2019-03-16T06:24:16Z</time>
            </trkpt>
            <trkpt lon="101.555345" lat="12.988995">
                <ele>50.900000</ele>
                <time>2019-03-16T06:24:17Z</time>
            </trkpt>
            <trkpt lon="101.555355" lat="12.988947">
                <ele>50.600000</ele>
                <time>2019-03-16T06:24:18Z</time>
            </trkpt>
            <trkpt lon="101.555362" lat="12.988900">
                <ele>50.300000</ele>
                <time>2019-03-16T06:24:19Z</time>
            </trkpt>
            <trkpt lon="101.555360" lat="12.988851">
                <ele>50.100000</ele>
                <time>2019-03-16T06:24:20Z</time>
            </trkpt>
            <trkpt lon="101.555345" lat="12.988804">
                <ele>49.800000</ele>
                <time>2019-03-16T06:24:21Z</time>
            </trkpt>
            <trkpt lon="101.555313" lat="12.988762">
                <ele>49.300000</ele>
                <time>2019-03-16T06:24:22Z</time>
            </trkpt>
            <trkpt lon="101.555274" lat="12.988728">
                <ele>49.000000</ele>
                <time>2019-03-16T06:24:23Z</time>
            </trkpt>
            <trkpt lon="101.555236" lat="12.988699">
                <ele>48.700000</ele>
                <time>2019-03-16T06:24:24Z</time>
            </trkpt>
            <trkpt lon="101.555197" lat="12.988675">
                <ele>48.700000</ele>
                <time>2019-03-16T06:24:25Z</time>
            </trkpt>
            <trkpt lon="101.555154" lat="12.988652">
                <ele>48.500000</ele>
                <time>2019-03-16T06:24:26Z</time>
            </trkpt>
            <trkpt lon="101.555112" lat="12.988631">
                <ele>48.500000</ele>
                <time>2019-03-16T06:24:27Z</time>
            </trkpt>
            <trkpt lon="101.555068" lat="12.988611">
                <ele>48.300000</ele>
                <time>2019-03-16T06:24:28Z</time>
            </trkpt>
            <trkpt lon="101.555024" lat="12.988591">
                <ele>48.300000</ele>
                <time>2019-03-16T06:24:29Z</time>
            </trkpt>
            <trkpt lon="101.554981" lat="12.988570">
                <ele>48.100000</ele>
                <time>2019-03-16T06:24:30Z</time>
            </trkpt>
            <trkpt lon="101.554938" lat="12.988552">
                <ele>48.300000</ele>
                <time>2019-03-16T06:24:31Z</time>
            </trkpt>
            <trkpt lon="101.554896" lat="12.988533">
                <ele>48.500000</ele>
                <time>2019-03-16T06:24:32Z</time>
            </trkpt>
            <trkpt lon="101.554855" lat="12.988514">
                <ele>48.800000</ele>
                <time>2019-03-16T06:24:33Z</time>
            </trkpt>
            <trkpt lon="101.554813" lat="12.988494">
                <ele>49.000000</ele>
                <time>2019-03-16T06:24:34Z</time>
            </trkpt>
            <trkpt lon="101.554772" lat="12.988474">
                <ele>49.400000</ele>
                <time>2019-03-16T06:24:35Z</time>
            </trkpt>
            <trkpt lon="101.554731" lat="12.988454">
                <ele>49.900000</ele>
                <time>2019-03-16T06:24:36Z</time>
            </trkpt>
            <trkpt lon="101.554690" lat="12.988434">
                <ele>50.400000</ele>
                <time>2019-03-16T06:24:37Z</time>
            </trkpt>
            <trkpt lon="101.554650" lat="12.988414">
                <ele>50.900000</ele>
                <time>2019-03-16T06:24:38Z</time>
            </trkpt>
            <trkpt lon="101.554609" lat="12.988392">
                <ele>51.300000</ele>
                <time>2019-03-16T06:24:39Z</time>
            </trkpt>
            <trkpt lon="101.554573" lat="12.988368">
                <ele>51.300000</ele>
                <time>2019-03-16T06:24:40Z</time>
            </trkpt>
            <trkpt lon="101.554545" lat="12.988343">
                <ele>51.500000</ele>
                <time>2019-03-16T06:24:41Z</time>
            </trkpt>
            <trkpt lon="101.554515" lat="12.988318">
                <ele>51.800000</ele>
                <time>2019-03-16T06:24:42Z</time>
            </trkpt>
            <trkpt lon="101.554488" lat="12.988295">
                <ele>51.800000</ele>
                <time>2019-03-16T06:24:43Z</time>
            </trkpt>
            <trkpt lon="101.554460" lat="12.988270">
                <ele>52.000000</ele>
                <time>2019-03-16T06:24:44Z</time>
            </trkpt>
            <trkpt lon="101.554433" lat="12.988245">
                <ele>51.900000</ele>
                <time>2019-03-16T06:24:45Z</time>
            </trkpt>
            <trkpt lon="101.554406" lat="12.988222">
                <ele>51.900000</ele>
                <time>2019-03-16T06:24:46Z</time>
            </trkpt>
            <trkpt lon="101.554378" lat="12.988198">
                <ele>51.500000</ele>
                <time>2019-03-16T06:24:47Z</time>
            </trkpt>
            <trkpt lon="101.554358" lat="12.988172">
                <ele>51.500000</ele>
                <time>2019-03-16T06:24:48Z</time>
            </trkpt>
            <trkpt lon="101.554333" lat="12.988149">
                <ele>51.300000</ele>
                <time>2019-03-16T06:24:49Z</time>
            </trkpt>
            <trkpt lon="101.554308" lat="12.988127">
                <ele>51.200000</ele>
                <time>2019-03-16T06:24:50Z</time>
            </trkpt>
            <trkpt lon="101.554281" lat="12.988103">
                <ele>51.100000</ele>
                <time>2019-03-16T06:24:51Z</time>
            </trkpt>
            <trkpt lon="101.554253" lat="12.988078">
                <ele>50.500000</ele>
                <time>2019-03-16T06:24:52Z</time>
            </trkpt>
            <trkpt lon="101.554228" lat="12.988057">
                <ele>50.500000</ele>
                <time>2019-03-16T06:24:53Z</time>
            </trkpt>
            <trkpt lon="101.554192" lat="12.988061">
                <ele>49.800000</ele>
                <time>2019-03-16T06:24:55Z</time>
            </trkpt>
            <trkpt lon="101.554165" lat="12.988068">
                <ele>49.000000</ele>
                <time>2019-03-16T06:24:56Z</time>
            </trkpt>
            <trkpt lon="101.554127" lat="12.988073">
                <ele>48.300000</ele>
                <time>2019-03-16T06:24:58Z</time>
            </trkpt>
            <trkpt lon="101.554098" lat="12.988085">
                <ele>47.600000</ele>
                <time>2019-03-16T06:24:59Z</time>
            </trkpt>
            <trkpt lon="101.554063" lat="12.988099">
                <ele>47.600000</ele>
                <time>2019-03-16T06:25:00Z</time>
            </trkpt>
            <trkpt lon="101.554024" lat="12.988117">
                <ele>46.700000</ele>
                <time>2019-03-16T06:25:01Z</time>
            </trkpt>
            <trkpt lon="101.553981" lat="12.988134">
                <ele>45.900000</ele>
                <time>2019-03-16T06:25:02Z</time>
            </trkpt>
            <trkpt lon="101.553935" lat="12.988153">
                <ele>44.900000</ele>
                <time>2019-03-16T06:25:03Z</time>
            </trkpt>
            <trkpt lon="101.553891" lat="12.988171">
                <ele>44.500000</ele>
                <time>2019-03-16T06:25:04Z</time>
            </trkpt>
            <trkpt lon="101.553849" lat="12.988189">
                <ele>44.000000</ele>
                <time>2019-03-16T06:25:05Z</time>
            </trkpt>
            <trkpt lon="101.553811" lat="12.988203">
                <ele>43.500000</ele>
                <time>2019-03-16T06:25:06Z</time>
            </trkpt>
            <trkpt lon="101.553766" lat="12.988219">
                <ele>43.200000</ele>
                <time>2019-03-16T06:25:07Z</time>
            </trkpt>
            <trkpt lon="101.553731" lat="12.988235">
                <ele>43.000000</ele>
                <time>2019-03-16T06:25:08Z</time>
            </trkpt>
            <trkpt lon="101.553687" lat="12.988249">
                <ele>43.000000</ele>
                <time>2019-03-16T06:25:09Z</time>
            </trkpt>
            <trkpt lon="101.553649" lat="12.988260">
                <ele>43.500000</ele>
                <time>2019-03-16T06:25:10Z</time>
            </trkpt>
            <trkpt lon="101.553620" lat="12.988260">
                <ele>43.500000</ele>
                <time>2019-03-16T06:25:11Z</time>
            </trkpt>
            <trkpt lon="101.553578" lat="12.988264">
                <ele>43.400000</ele>
                <time>2019-03-16T06:25:12Z</time>
            </trkpt>
            <trkpt lon="101.553531" lat="12.988274">
                <ele>43.100000</ele>
                <time>2019-03-16T06:25:13Z</time>
            </trkpt>
            <trkpt lon="101.553491" lat="12.988285">
                <ele>42.900000</ele>
                <time>2019-03-16T06:25:14Z</time>
            </trkpt>
            <trkpt lon="101.553437" lat="12.988298">
                <ele>43.400000</ele>
                <time>2019-03-16T06:25:15Z</time>
            </trkpt>
            <trkpt lon="101.553384" lat="12.988307">
                <ele>43.300000</ele>
                <time>2019-03-16T06:25:16Z</time>
            </trkpt>
            <trkpt lon="101.553327" lat="12.988318">
                <ele>43.300000</ele>
                <time>2019-03-16T06:25:17Z</time>
            </trkpt>
            <trkpt lon="101.553266" lat="12.988322">
                <ele>43.300000</ele>
                <time>2019-03-16T06:25:18Z</time>
            </trkpt>
            <trkpt lon="101.553198" lat="12.988321">
                <ele>43.000000</ele>
                <time>2019-03-16T06:25:19Z</time>
            </trkpt>
            <trkpt lon="101.553142" lat="12.988320">
                <ele>42.200000</ele>
                <time>2019-03-16T06:25:20Z</time>
            </trkpt>
            <trkpt lon="101.553089" lat="12.988320">
                <ele>41.800000</ele>
                <time>2019-03-16T06:25:21Z</time>
            </trkpt>
            <trkpt lon="101.553040" lat="12.988320">
                <ele>41.300000</ele>
                <time>2019-03-16T06:25:22Z</time>
            </trkpt>
            <trkpt lon="101.552995" lat="12.988318">
                <ele>40.700000</ele>
                <time>2019-03-16T06:25:23Z</time>
            </trkpt>
            <trkpt lon="101.552952" lat="12.988318">
                <ele>40.100000</ele>
                <time>2019-03-16T06:25:24Z</time>
            </trkpt>
            <trkpt lon="101.552911" lat="12.988317">
                <ele>39.500000</ele>
                <time>2019-03-16T06:25:25Z</time>
            </trkpt>
            <trkpt lon="101.552879" lat="12.988322">
                <ele>39.000000</ele>
                <time>2019-03-16T06:25:26Z</time>
            </trkpt>
            <trkpt lon="101.552851" lat="12.988324">
                <ele>38.500000</ele>
                <time>2019-03-16T06:25:27Z</time>
            </trkpt>
            <trkpt lon="101.552814" lat="12.988317">
                <ele>38.500000</ele>
                <time>2019-03-16T06:25:30Z</time>
            </trkpt>
            <trkpt lon="101.552781" lat="12.988296">
                <ele>38.000000</ele>
                <time>2019-03-16T06:25:33Z</time>
            </trkpt>
            <trkpt lon="101.552751" lat="12.988265">
                <ele>36.700000</ele>
                <time>2019-03-16T06:25:35Z</time>
            </trkpt>
            <trkpt lon="101.552711" lat="12.988217">
                <ele>36.100000</ele>
                <time>2019-03-16T06:25:37Z</time>
            </trkpt>
            <trkpt lon="101.552684" lat="12.988186">
                <ele>35.900000</ele>
                <time>2019-03-16T06:25:38Z</time>
            </trkpt>
            <trkpt lon="101.552658" lat="12.988158">
                <ele>35.900000</ele>
                <time>2019-03-16T06:25:39Z</time>
            </trkpt>
            <trkpt lon="101.552634" lat="12.988127">
                <ele>36.100000</ele>
                <time>2019-03-16T06:25:40Z</time>
            </trkpt>
            <trkpt lon="101.552611" lat="12.988092">
                <ele>35.900000</ele>
                <time>2019-03-16T06:25:41Z</time>
            </trkpt>
            <trkpt lon="101.552585" lat="12.988059">
                <ele>36.100000</ele>
                <time>2019-03-16T06:25:42Z</time>
            </trkpt>
            <trkpt lon="101.552560" lat="12.988026">
                <ele>36.400000</ele>
                <time>2019-03-16T06:25:43Z</time>
            </trkpt>
            <trkpt lon="101.552534" lat="12.987996">
                <ele>37.000000</ele>
                <time>2019-03-16T06:25:44Z</time>
            </trkpt>
            <trkpt lon="101.552514" lat="12.987964">
                <ele>37.000000</ele>
                <time>2019-03-16T06:25:45Z</time>
            </trkpt>
            <trkpt lon="101.552491" lat="12.987930">
                <ele>37.800000</ele>
                <time>2019-03-16T06:25:46Z</time>
            </trkpt>
            <trkpt lon="101.552467" lat="12.987894">
                <ele>38.600000</ele>
                <time>2019-03-16T06:25:47Z</time>
            </trkpt>
            <trkpt lon="101.552442" lat="12.987861">
                <ele>39.100000</ele>
                <time>2019-03-16T06:25:48Z</time>
            </trkpt>
            <trkpt lon="101.552421" lat="12.987827">
                <ele>40.100000</ele>
                <time>2019-03-16T06:25:49Z</time>
            </trkpt>
            <trkpt lon="101.552400" lat="12.987795">
                <ele>40.100000</ele>
                <time>2019-03-16T06:25:50Z</time>
            </trkpt>
            <trkpt lon="101.552379" lat="12.987766">
                <ele>41.000000</ele>
                <time>2019-03-16T06:25:51Z</time>
            </trkpt>
            <trkpt lon="101.552356" lat="12.987732">
                <ele>41.500000</ele>
                <time>2019-03-16T06:25:52Z</time>
            </trkpt>
            <trkpt lon="101.552335" lat="12.987699">
                <ele>42.100000</ele>
                <time>2019-03-16T06:25:53Z</time>
            </trkpt>
            <trkpt lon="101.552311" lat="12.987665">
                <ele>42.100000</ele>
                <time>2019-03-16T06:25:54Z</time>
            </trkpt>
            <trkpt lon="101.552287" lat="12.987634">
                <ele>42.600000</ele>
                <time>2019-03-16T06:25:55Z</time>
            </trkpt>
            <trkpt lon="101.552260" lat="12.987601">
                <ele>42.900000</ele>
                <time>2019-03-16T06:25:56Z</time>
            </trkpt>
            <trkpt lon="101.552233" lat="12.987570">
                <ele>43.100000</ele>
                <time>2019-03-16T06:25:57Z</time>
            </trkpt>
            <trkpt lon="101.552208" lat="12.987539">
                <ele>43.000000</ele>
                <time>2019-03-16T06:25:58Z</time>
            </trkpt>
            <trkpt lon="101.552182" lat="12.987507">
                <ele>43.000000</ele>
                <time>2019-03-16T06:25:59Z</time>
            </trkpt>
            <trkpt lon="101.552155" lat="12.987477">
                <ele>42.500000</ele>
                <time>2019-03-16T06:26:00Z</time>
            </trkpt>
            <trkpt lon="101.552126" lat="12.987446">
                <ele>42.400000</ele>
                <time>2019-03-16T06:26:01Z</time>
            </trkpt>
            <trkpt lon="101.552097" lat="12.987415">
                <ele>42.000000</ele>
                <time>2019-03-16T06:26:02Z</time>
            </trkpt>
            <trkpt lon="101.552069" lat="12.987386">
                <ele>41.400000</ele>
                <time>2019-03-16T06:26:03Z</time>
            </trkpt>
            <trkpt lon="101.552039" lat="12.987356">
                <ele>41.300000</ele>
                <time>2019-03-16T06:26:04Z</time>
            </trkpt>
            <trkpt lon="101.552010" lat="12.987325">
                <ele>41.100000</ele>
                <time>2019-03-16T06:26:05Z</time>
            </trkpt>
            <trkpt lon="101.551981" lat="12.987295">
                <ele>40.900000</ele>
                <time>2019-03-16T06:26:06Z</time>
            </trkpt>
            <trkpt lon="101.551953" lat="12.987264">
                <ele>40.800000</ele>
                <time>2019-03-16T06:26:07Z</time>
            </trkpt>
            <trkpt lon="101.551922" lat="12.987231">
                <ele>40.400000</ele>
                <time>2019-03-16T06:26:08Z</time>
            </trkpt>
            <trkpt lon="101.551892" lat="12.987200">
                <ele>39.900000</ele>
                <time>2019-03-16T06:26:09Z</time>
            </trkpt>
            <trkpt lon="101.551860" lat="12.987167">
                <ele>39.900000</ele>
                <time>2019-03-16T06:26:10Z</time>
            </trkpt>
            <trkpt lon="101.551829" lat="12.987136">
                <ele>39.600000</ele>
                <time>2019-03-16T06:26:11Z</time>
            </trkpt>
            <trkpt lon="101.551797" lat="12.987103">
                <ele>39.600000</ele>
                <time>2019-03-16T06:26:12Z</time>
            </trkpt>
            <trkpt lon="101.551769" lat="12.987071">
                <ele>39.600000</ele>
                <time>2019-03-16T06:26:13Z</time>
            </trkpt>
            <trkpt lon="101.551741" lat="12.987036">
                <ele>39.400000</ele>
                <time>2019-03-16T06:26:14Z</time>
            </trkpt>
            <trkpt lon="101.551714" lat="12.987001">
                <ele>39.600000</ele>
                <time>2019-03-16T06:26:15Z</time>
            </trkpt>
            <trkpt lon="101.551690" lat="12.986965">
                <ele>39.700000</ele>
                <time>2019-03-16T06:26:16Z</time>
            </trkpt>
            <trkpt lon="101.551667" lat="12.986926">
                <ele>39.400000</ele>
                <time>2019-03-16T06:26:17Z</time>
            </trkpt>
            <trkpt lon="101.551645" lat="12.986889">
                <ele>39.500000</ele>
                <time>2019-03-16T06:26:18Z</time>
            </trkpt>
            <trkpt lon="101.551623" lat="12.986850">
                <ele>39.400000</ele>
                <time>2019-03-16T06:26:19Z</time>
            </trkpt>
            <trkpt lon="101.551601" lat="12.986812">
                <ele>39.400000</ele>
                <time>2019-03-16T06:26:20Z</time>
            </trkpt>
            <trkpt lon="101.551580" lat="12.986773">
                <ele>39.200000</ele>
                <time>2019-03-16T06:26:21Z</time>
            </trkpt>
            <trkpt lon="101.551562" lat="12.986735">
                <ele>39.100000</ele>
                <time>2019-03-16T06:26:22Z</time>
            </trkpt>
            <trkpt lon="101.551545" lat="12.986697">
                <ele>39.100000</ele>
                <time>2019-03-16T06:26:23Z</time>
            </trkpt>
            <trkpt lon="101.551530" lat="12.986659">
                <ele>39.100000</ele>
                <time>2019-03-16T06:26:24Z</time>
            </trkpt>
            <trkpt lon="101.551517" lat="12.986618">
                <ele>39.600000</ele>
                <time>2019-03-16T06:26:25Z</time>
            </trkpt>
            <trkpt lon="101.551509" lat="12.986582">
                <ele>39.600000</ele>
                <time>2019-03-16T06:26:26Z</time>
            </trkpt>
            <trkpt lon="101.551504" lat="12.986543">
                <ele>39.600000</ele>
                <time>2019-03-16T06:26:27Z</time>
            </trkpt>
            <trkpt lon="101.551504" lat="12.986512">
                <ele>39.600000</ele>
                <time>2019-03-16T06:26:28Z</time>
            </trkpt>
            <trkpt lon="101.551503" lat="12.986472">
                <ele>39.600000</ele>
                <time>2019-03-16T06:26:29Z</time>
            </trkpt>
            <trkpt lon="101.551503" lat="12.986432">
                <ele>39.600000</ele>
                <time>2019-03-16T06:26:30Z</time>
            </trkpt>
            <trkpt lon="101.551511" lat="12.986403">
                <ele>39.600000</ele>
                <time>2019-03-16T06:26:31Z</time>
            </trkpt>
            <trkpt lon="101.551522" lat="12.986373">
                <ele>39.600000</ele>
                <time>2019-03-16T06:26:32Z</time>
            </trkpt>
            <trkpt lon="101.551535" lat="12.986337">
                <ele>39.200000</ele>
                <time>2019-03-16T06:26:33Z</time>
            </trkpt>
            <trkpt lon="101.551557" lat="12.986303">
                <ele>39.200000</ele>
                <time>2019-03-16T06:26:34Z</time>
            </trkpt>
            <trkpt lon="101.551583" lat="12.986260">
                <ele>39.400000</ele>
                <time>2019-03-16T06:26:35Z</time>
            </trkpt>
            <trkpt lon="101.551610" lat="12.986220">
                <ele>39.700000</ele>
                <time>2019-03-16T06:26:36Z</time>
            </trkpt>
            <trkpt lon="101.551634" lat="12.986189">
                <ele>39.600000</ele>
                <time>2019-03-16T06:26:37Z</time>
            </trkpt>
            <trkpt lon="101.551669" lat="12.986154">
                <ele>39.900000</ele>
                <time>2019-03-16T06:26:38Z</time>
            </trkpt>
            <trkpt lon="101.551703" lat="12.986125">
                <ele>40.000000</ele>
                <time>2019-03-16T06:26:39Z</time>
            </trkpt>
            <trkpt lon="101.551736" lat="12.986102">
                <ele>40.000000</ele>
                <time>2019-03-16T06:26:40Z</time>
            </trkpt>
            <trkpt lon="101.551780" lat="12.986078">
                <ele>39.800000</ele>
                <time>2019-03-16T06:26:41Z</time>
            </trkpt>
            <trkpt lon="101.551817" lat="12.986055">
                <ele>39.500000</ele>
                <time>2019-03-16T06:26:42Z</time>
            </trkpt>
            <trkpt lon="101.551860" lat="12.986034">
                <ele>39.200000</ele>
                <time>2019-03-16T06:26:43Z</time>
            </trkpt>
            <trkpt lon="101.551899" lat="12.986016">
                <ele>39.000000</ele>
                <time>2019-03-16T06:26:44Z</time>
            </trkpt>
            <trkpt lon="101.551942" lat="12.985995">
                <ele>38.700000</ele>
                <time>2019-03-16T06:26:45Z</time>
            </trkpt>
            <trkpt lon="101.551979" lat="12.985977">
                <ele>38.500000</ele>
                <time>2019-03-16T06:26:46Z</time>
            </trkpt>
            <trkpt lon="101.552014" lat="12.985962">
                <ele>38.300000</ele>
                <time>2019-03-16T06:26:47Z</time>
            </trkpt>
            <trkpt lon="101.552054" lat="12.985946">
                <ele>38.100000</ele>
                <time>2019-03-16T06:26:48Z</time>
            </trkpt>
            <trkpt lon="101.552092" lat="12.985929">
                <ele>38.100000</ele>
                <time>2019-03-16T06:26:49Z</time>
            </trkpt>
            <trkpt lon="101.552137" lat="12.985908">
                <ele>38.000000</ele>
                <time>2019-03-16T06:26:50Z</time>
            </trkpt>
            <trkpt lon="101.552186" lat="12.985886">
                <ele>38.200000</ele>
                <time>2019-03-16T06:26:51Z</time>
            </trkpt>
            <trkpt lon="101.552227" lat="12.985868">
                <ele>38.000000</ele>
                <time>2019-03-16T06:26:52Z</time>
            </trkpt>
            <trkpt lon="101.552274" lat="12.985846">
                <ele>37.700000</ele>
                <time>2019-03-16T06:26:53Z</time>
            </trkpt>
            <trkpt lon="101.552309" lat="12.985830">
                <ele>37.200000</ele>
                <time>2019-03-16T06:26:54Z</time>
            </trkpt>
            <trkpt lon="101.552351" lat="12.985811">
                <ele>37.000000</ele>
                <time>2019-03-16T06:26:55Z</time>
            </trkpt>
            <trkpt lon="101.552386" lat="12.985794">
                <ele>36.600000</ele>
                <time>2019-03-16T06:26:56Z</time>
            </trkpt>
            <trkpt lon="101.552425" lat="12.985776">
                <ele>36.600000</ele>
                <time>2019-03-16T06:26:57Z</time>
            </trkpt>
            <trkpt lon="101.552459" lat="12.985758">
                <ele>36.600000</ele>
                <time>2019-03-16T06:26:58Z</time>
            </trkpt>
            <trkpt lon="101.552497" lat="12.985735">
                <ele>36.700000</ele>
                <time>2019-03-16T06:26:59Z</time>
            </trkpt>
            <trkpt lon="101.552535" lat="12.985716">
                <ele>36.400000</ele>
                <time>2019-03-16T06:27:00Z</time>
            </trkpt>
            <trkpt lon="101.552578" lat="12.985694">
                <ele>36.800000</ele>
                <time>2019-03-16T06:27:01Z</time>
            </trkpt>
            <trkpt lon="101.552621" lat="12.985671">
                <ele>36.700000</ele>
                <time>2019-03-16T06:27:02Z</time>
            </trkpt>
            <trkpt lon="101.552662" lat="12.985649">
                <ele>36.900000</ele>
                <time>2019-03-16T06:27:03Z</time>
            </trkpt>
            <trkpt lon="101.552695" lat="12.985631">
                <ele>36.800000</ele>
                <time>2019-03-16T06:27:04Z</time>
            </trkpt>
            <trkpt lon="101.552737" lat="12.985607">
                <ele>37.000000</ele>
                <time>2019-03-16T06:27:05Z</time>
            </trkpt>
            <trkpt lon="101.552774" lat="12.985583">
                <ele>37.000000</ele>
                <time>2019-03-16T06:27:06Z</time>
            </trkpt>
            <trkpt lon="101.552811" lat="12.985558">
                <ele>37.200000</ele>
                <time>2019-03-16T06:27:07Z</time>
            </trkpt>
            <trkpt lon="101.552848" lat="12.985534">
                <ele>37.200000</ele>
                <time>2019-03-16T06:27:08Z</time>
            </trkpt>
            <trkpt lon="101.552882" lat="12.985511">
                <ele>37.500000</ele>
                <time>2019-03-16T06:27:09Z</time>
            </trkpt>
            <trkpt lon="101.552913" lat="12.985490">
                <ele>37.500000</ele>
                <time>2019-03-16T06:27:10Z</time>
            </trkpt>
            <trkpt lon="101.552943" lat="12.985467">
                <ele>37.700000</ele>
                <time>2019-03-16T06:27:11Z</time>
            </trkpt>
            <trkpt lon="101.552974" lat="12.985443">
                <ele>38.000000</ele>
                <time>2019-03-16T06:27:12Z</time>
            </trkpt>
            <trkpt lon="101.553006" lat="12.985419">
                <ele>38.000000</ele>
                <time>2019-03-16T06:27:13Z</time>
            </trkpt>
            <trkpt lon="101.553039" lat="12.985393">
                <ele>38.200000</ele>
                <time>2019-03-16T06:27:14Z</time>
            </trkpt>
            <trkpt lon="101.553074" lat="12.985363">
                <ele>38.500000</ele>
                <time>2019-03-16T06:27:15Z</time>
            </trkpt>
            <trkpt lon="101.553106" lat="12.985332">
                <ele>38.500000</ele>
                <time>2019-03-16T06:27:16Z</time>
            </trkpt>
            <trkpt lon="101.553136" lat="12.985301">
                <ele>38.700000</ele>
                <time>2019-03-16T06:27:17Z</time>
            </trkpt>
            <trkpt lon="101.553165" lat="12.985272">
                <ele>39.000000</ele>
                <time>2019-03-16T06:27:18Z</time>
            </trkpt>
            <trkpt lon="101.553191" lat="12.985241">
                <ele>39.000000</ele>
                <time>2019-03-16T06:27:19Z</time>
            </trkpt>
            <trkpt lon="101.553216" lat="12.985210">
                <ele>39.100000</ele>
                <time>2019-03-16T06:27:20Z</time>
            </trkpt>
            <trkpt lon="101.553239" lat="12.985181">
                <ele>38.800000</ele>
                <time>2019-03-16T06:27:21Z</time>
            </trkpt>
            <trkpt lon="101.553260" lat="12.985148">
                <ele>38.600000</ele>
                <time>2019-03-16T06:27:22Z</time>
            </trkpt>
            <trkpt lon="101.553277" lat="12.985109">
                <ele>38.400000</ele>
                <time>2019-03-16T06:27:23Z</time>
            </trkpt>
            <trkpt lon="101.553294" lat="12.985070">
                <ele>38.400000</ele>
                <time>2019-03-16T06:27:24Z</time>
            </trkpt>
            <trkpt lon="101.553311" lat="12.985031">
                <ele>38.400000</ele>
                <time>2019-03-16T06:27:25Z</time>
            </trkpt>
            <trkpt lon="101.553325" lat="12.984993">
                <ele>38.200000</ele>
                <time>2019-03-16T06:27:26Z</time>
            </trkpt>
            <trkpt lon="101.553340" lat="12.984955">
                <ele>38.200000</ele>
                <time>2019-03-16T06:27:27Z</time>
            </trkpt>
            <trkpt lon="101.553353" lat="12.984918">
                <ele>37.900000</ele>
                <time>2019-03-16T06:27:28Z</time>
            </trkpt>
            <trkpt lon="101.553366" lat="12.984878">
                <ele>37.700000</ele>
                <time>2019-03-16T06:27:29Z</time>
            </trkpt>
            <trkpt lon="101.553374" lat="12.984836">
                <ele>37.700000</ele>
                <time>2019-03-16T06:27:30Z</time>
            </trkpt>
            <trkpt lon="101.553383" lat="12.984793">
                <ele>37.400000</ele>
                <time>2019-03-16T06:27:31Z</time>
            </trkpt>
            <trkpt lon="101.553391" lat="12.984753">
                <ele>37.200000</ele>
                <time>2019-03-16T06:27:32Z</time>
            </trkpt>
            <trkpt lon="101.553398" lat="12.984708">
                <ele>37.000000</ele>
                <time>2019-03-16T06:27:33Z</time>
            </trkpt>
            <trkpt lon="101.553403" lat="12.984667">
                <ele>37.000000</ele>
                <time>2019-03-16T06:27:34Z</time>
            </trkpt>
            <trkpt lon="101.553409" lat="12.984625">
                <ele>37.000000</ele>
                <time>2019-03-16T06:27:35Z</time>
            </trkpt>
            <trkpt lon="101.553416" lat="12.984575">
                <ele>37.100000</ele>
                <time>2019-03-16T06:27:36Z</time>
            </trkpt>
            <trkpt lon="101.553423" lat="12.984528">
                <ele>37.100000</ele>
                <time>2019-03-16T06:27:37Z</time>
            </trkpt>
            <trkpt lon="101.553429" lat="12.984486">
                <ele>37.200000</ele>
                <time>2019-03-16T06:27:38Z</time>
            </trkpt>
            <trkpt lon="101.553436" lat="12.984446">
                <ele>37.200000</ele>
                <time>2019-03-16T06:27:39Z</time>
            </trkpt>
            <trkpt lon="101.553440" lat="12.984406">
                <ele>37.200000</ele>
                <time>2019-03-16T06:27:40Z</time>
            </trkpt>
            <trkpt lon="101.553448" lat="12.984364">
                <ele>37.400000</ele>
                <time>2019-03-16T06:27:41Z</time>
            </trkpt>
            <trkpt lon="101.553454" lat="12.984321">
                <ele>37.800000</ele>
                <time>2019-03-16T06:27:42Z</time>
            </trkpt>
            <trkpt lon="101.553460" lat="12.984277">
                <ele>38.400000</ele>
                <time>2019-03-16T06:27:43Z</time>
            </trkpt>
            <trkpt lon="101.553466" lat="12.984242">
                <ele>38.800000</ele>
                <time>2019-03-16T06:27:44Z</time>
            </trkpt>
            <trkpt lon="101.553472" lat="12.984207">
                <ele>39.200000</ele>
                <time>2019-03-16T06:27:45Z</time>
            </trkpt>
            <trkpt lon="101.553477" lat="12.984166">
                <ele>39.600000</ele>
                <time>2019-03-16T06:27:46Z</time>
            </trkpt>
            <trkpt lon="101.553483" lat="12.984128">
                <ele>39.900000</ele>
                <time>2019-03-16T06:27:47Z</time>
            </trkpt>
            <trkpt lon="101.553487" lat="12.984093">
                <ele>40.200000</ele>
                <time>2019-03-16T06:27:48Z</time>
            </trkpt>
            <trkpt lon="101.553492" lat="12.984056">
                <ele>40.600000</ele>
                <time>2019-03-16T06:27:49Z</time>
            </trkpt>
            <trkpt lon="101.553496" lat="12.984020">
                <ele>40.900000</ele>
                <time>2019-03-16T06:27:50Z</time>
            </trkpt>
            <trkpt lon="101.553498" lat="12.983982">
                <ele>41.200000</ele>
                <time>2019-03-16T06:27:51Z</time>
            </trkpt>
            <trkpt lon="101.553498" lat="12.983945">
                <ele>41.200000</ele>
                <time>2019-03-16T06:27:52Z</time>
            </trkpt>
            <trkpt lon="101.553496" lat="12.983910">
                <ele>41.500000</ele>
                <time>2019-03-16T06:27:53Z</time>
            </trkpt>
            <trkpt lon="101.553490" lat="12.983869">
                <ele>41.800000</ele>
                <time>2019-03-16T06:27:54Z</time>
            </trkpt>
            <trkpt lon="101.553489" lat="12.983830">
                <ele>41.800000</ele>
                <time>2019-03-16T06:27:55Z</time>
            </trkpt>
            <trkpt lon="101.553480" lat="12.983800">
                <ele>41.800000</ele>
                <time>2019-03-16T06:27:56Z</time>
            </trkpt>
            <trkpt lon="101.553467" lat="12.983768">
                <ele>41.800000</ele>
                <time>2019-03-16T06:27:57Z</time>
            </trkpt>
            <trkpt lon="101.553448" lat="12.983735">
                <ele>42.000000</ele>
                <time>2019-03-16T06:27:58Z</time>
            </trkpt>
            <trkpt lon="101.553425" lat="12.983701">
                <ele>42.000000</ele>
                <time>2019-03-16T06:27:59Z</time>
            </trkpt>
            <trkpt lon="101.553406" lat="12.983672">
                <ele>42.000000</ele>
                <time>2019-03-16T06:28:00Z</time>
            </trkpt>
            <trkpt lon="101.553378" lat="12.983646">
                <ele>41.700000</ele>
                <time>2019-03-16T06:28:01Z</time>
            </trkpt>
            <trkpt lon="101.553350" lat="12.983621">
                <ele>42.000000</ele>
                <time>2019-03-16T06:28:02Z</time>
            </trkpt>
            <trkpt lon="101.553317" lat="12.983590">
                <ele>42.000000</ele>
                <time>2019-03-16T06:28:03Z</time>
            </trkpt>
            <trkpt lon="101.553282" lat="12.983561">
                <ele>42.000000</ele>
                <time>2019-03-16T06:28:04Z</time>
            </trkpt>
            <trkpt lon="101.553250" lat="12.983532">
                <ele>42.000000</ele>
                <time>2019-03-16T06:28:05Z</time>
            </trkpt>
            <trkpt lon="101.553217" lat="12.983506">
                <ele>42.400000</ele>
                <time>2019-03-16T06:28:06Z</time>
            </trkpt>
            <trkpt lon="101.553181" lat="12.983478">
                <ele>42.700000</ele>
                <time>2019-03-16T06:28:07Z</time>
            </trkpt>
            <trkpt lon="101.553148" lat="12.983451">
                <ele>43.000000</ele>
                <time>2019-03-16T06:28:08Z</time>
            </trkpt>
            <trkpt lon="101.553114" lat="12.983424">
                <ele>42.900000</ele>
                <time>2019-03-16T06:28:09Z</time>
            </trkpt>
            <trkpt lon="101.553084" lat="12.983397">
                <ele>43.000000</ele>
                <time>2019-03-16T06:28:10Z</time>
            </trkpt>
            <trkpt lon="101.553051" lat="12.983376">
                <ele>43.400000</ele>
                <time>2019-03-16T06:28:11Z</time>
            </trkpt>
            <trkpt lon="101.553017" lat="12.983356">
                <ele>43.800000</ele>
                <time>2019-03-16T06:28:12Z</time>
            </trkpt>
            <trkpt lon="101.552982" lat="12.983334">
                <ele>44.200000</ele>
                <time>2019-03-16T06:28:13Z</time>
            </trkpt>
            <trkpt lon="101.552948" lat="12.983312">
                <ele>44.000000</ele>
                <time>2019-03-16T06:28:14Z</time>
            </trkpt>
            <trkpt lon="101.552911" lat="12.983288">
                <ele>44.400000</ele>
                <time>2019-03-16T06:28:15Z</time>
            </trkpt>
            <trkpt lon="101.552873" lat="12.983265">
                <ele>44.400000</ele>
                <time>2019-03-16T06:28:16Z</time>
            </trkpt>
            <trkpt lon="101.552833" lat="12.983240">
                <ele>44.400000</ele>
                <time>2019-03-16T06:28:17Z</time>
            </trkpt>
            <trkpt lon="101.552793" lat="12.983217">
                <ele>44.100000</ele>
                <time>2019-03-16T06:28:18Z</time>
            </trkpt>
            <trkpt lon="101.552753" lat="12.983193">
                <ele>44.100000</ele>
                <time>2019-03-16T06:28:19Z</time>
            </trkpt>
            <trkpt lon="101.552716" lat="12.983172">
                <ele>44.000000</ele>
                <time>2019-03-16T06:28:20Z</time>
            </trkpt>
            <trkpt lon="101.552679" lat="12.983150">
                <ele>44.200000</ele>
                <time>2019-03-16T06:28:21Z</time>
            </trkpt>
            <trkpt lon="101.552641" lat="12.983127">
                <ele>43.800000</ele>
                <time>2019-03-16T06:28:22Z</time>
            </trkpt>
            <trkpt lon="101.552602" lat="12.983103">
                <ele>43.800000</ele>
                <time>2019-03-16T06:28:23Z</time>
            </trkpt>
            <trkpt lon="101.552563" lat="12.983080">
                <ele>44.100000</ele>
                <time>2019-03-16T06:28:24Z</time>
            </trkpt>
            <trkpt lon="101.552525" lat="12.983058">
                <ele>44.100000</ele>
                <time>2019-03-16T06:28:25Z</time>
            </trkpt>
            <trkpt lon="101.552486" lat="12.983034">
                <ele>44.100000</ele>
                <time>2019-03-16T06:28:26Z</time>
            </trkpt>
            <trkpt lon="101.552449" lat="12.983009">
                <ele>44.100000</ele>
                <time>2019-03-16T06:28:27Z</time>
            </trkpt>
            <trkpt lon="101.552413" lat="12.982985">
                <ele>44.100000</ele>
                <time>2019-03-16T06:28:28Z</time>
            </trkpt>
            <trkpt lon="101.552380" lat="12.982960">
                <ele>44.200000</ele>
                <time>2019-03-16T06:28:29Z</time>
            </trkpt>
            <trkpt lon="101.552347" lat="12.982932">
                <ele>44.100000</ele>
                <time>2019-03-16T06:28:30Z</time>
            </trkpt>
            <trkpt lon="101.552314" lat="12.982900">
                <ele>44.100000</ele>
                <time>2019-03-16T06:28:31Z</time>
            </trkpt>
            <trkpt lon="101.552287" lat="12.982866">
                <ele>44.500000</ele>
                <time>2019-03-16T06:28:32Z</time>
            </trkpt>
            <trkpt lon="101.552266" lat="12.982826">
                <ele>45.000000</ele>
                <time>2019-03-16T06:28:33Z</time>
            </trkpt>
            <trkpt lon="101.552257" lat="12.982788">
                <ele>45.500000</ele>
                <time>2019-03-16T06:28:34Z</time>
            </trkpt>
            <trkpt lon="101.552257" lat="12.982752">
                <ele>46.000000</ele>
                <time>2019-03-16T06:28:35Z</time>
            </trkpt>
            <trkpt lon="101.552263" lat="12.982717">
                <ele>46.800000</ele>
                <time>2019-03-16T06:28:36Z</time>
            </trkpt>
            <trkpt lon="101.552278" lat="12.982683">
                <ele>47.600000</ele>
                <time>2019-03-16T06:28:37Z</time>
            </trkpt>
            <trkpt lon="101.552299" lat="12.982648">
                <ele>47.700000</ele>
                <time>2019-03-16T06:28:38Z</time>
            </trkpt>
            <trkpt lon="101.552322" lat="12.982616">
                <ele>48.600000</ele>
                <time>2019-03-16T06:28:39Z</time>
            </trkpt>
            <trkpt lon="101.552349" lat="12.982582">
                <ele>49.800000</ele>
                <time>2019-03-16T06:28:40Z</time>
            </trkpt>
            <trkpt lon="101.552374" lat="12.982551">
                <ele>50.800000</ele>
                <time>2019-03-16T06:28:41Z</time>
            </trkpt>
            <trkpt lon="101.552404" lat="12.982519">
                <ele>51.800000</ele>
                <time>2019-03-16T06:28:42Z</time>
            </trkpt>
            <trkpt lon="101.552432" lat="12.982488">
                <ele>51.500000</ele>
                <time>2019-03-16T06:28:43Z</time>
            </trkpt>
            <trkpt lon="101.552465" lat="12.982455">
                <ele>52.500000</ele>
                <time>2019-03-16T06:28:44Z</time>
            </trkpt>
            <trkpt lon="101.552495" lat="12.982424">
                <ele>53.300000</ele>
                <time>2019-03-16T06:28:45Z</time>
            </trkpt>
            <trkpt lon="101.552526" lat="12.982391">
                <ele>54.000000</ele>
                <time>2019-03-16T06:28:46Z</time>
            </trkpt>
            <trkpt lon="101.552560" lat="12.982360">
                <ele>53.800000</ele>
                <time>2019-03-16T06:28:47Z</time>
            </trkpt>
            <trkpt lon="101.552593" lat="12.982326">
                <ele>54.800000</ele>
                <time>2019-03-16T06:28:48Z</time>
            </trkpt>
            <trkpt lon="101.552624" lat="12.982294">
                <ele>55.500000</ele>
                <time>2019-03-16T06:28:49Z</time>
            </trkpt>
            <trkpt lon="101.552657" lat="12.982261">
                <ele>56.300000</ele>
                <time>2019-03-16T06:28:50Z</time>
            </trkpt>
            <trkpt lon="101.552690" lat="12.982229">
                <ele>56.000000</ele>
                <time>2019-03-16T06:28:51Z</time>
            </trkpt>
            <trkpt lon="101.552726" lat="12.982191">
                <ele>56.500000</ele>
                <time>2019-03-16T06:28:52Z</time>
            </trkpt>
            <trkpt lon="101.552757" lat="12.982154">
                <ele>57.000000</ele>
                <time>2019-03-16T06:28:53Z</time>
            </trkpt>
            <trkpt lon="101.552786" lat="12.982118">
                <ele>57.500000</ele>
                <time>2019-03-16T06:28:54Z</time>
            </trkpt>
            <trkpt lon="101.552814" lat="12.982084">
                <ele>58.000000</ele>
                <time>2019-03-16T06:28:55Z</time>
            </trkpt>
            <trkpt lon="101.552841" lat="12.982051">
                <ele>58.000000</ele>
                <time>2019-03-16T06:28:56Z</time>
            </trkpt>
            <trkpt lon="101.552866" lat="12.982021">
                <ele>58.000000</ele>
                <time>2019-03-16T06:28:57Z</time>
            </trkpt>
            <trkpt lon="101.552894" lat="12.981989">
                <ele>57.800000</ele>
                <time>2019-03-16T06:28:58Z</time>
            </trkpt>
            <trkpt lon="101.552921" lat="12.981959">
                <ele>57.400000</ele>
                <time>2019-03-16T06:28:59Z</time>
            </trkpt>
            <trkpt lon="101.552953" lat="12.981928">
                <ele>57.200000</ele>
                <time>2019-03-16T06:29:00Z</time>
            </trkpt>
            <trkpt lon="101.552982" lat="12.981898">
                <ele>57.200000</ele>
                <time>2019-03-16T06:29:01Z</time>
            </trkpt>
            <trkpt lon="101.553007" lat="12.981867">
                <ele>56.900000</ele>
                <time>2019-03-16T06:29:02Z</time>
            </trkpt>
            <trkpt lon="101.553037" lat="12.981832">
                <ele>56.400000</ele>
                <time>2019-03-16T06:29:03Z</time>
            </trkpt>
            <trkpt lon="101.553062" lat="12.981802">
                <ele>55.900000</ele>
                <time>2019-03-16T06:29:04Z</time>
            </trkpt>
            <trkpt lon="101.553092" lat="12.981769">
                <ele>55.800000</ele>
                <time>2019-03-16T06:29:05Z</time>
            </trkpt>
            <trkpt lon="101.553120" lat="12.981737">
                <ele>55.600000</ele>
                <time>2019-03-16T06:29:06Z</time>
            </trkpt>
            <trkpt lon="101.553153" lat="12.981702">
                <ele>55.400000</ele>
                <time>2019-03-16T06:29:07Z</time>
            </trkpt>
            <trkpt lon="101.553186" lat="12.981664">
                <ele>55.500000</ele>
                <time>2019-03-16T06:29:08Z</time>
            </trkpt>
            <trkpt lon="101.553215" lat="12.981628">
                <ele>55.400000</ele>
                <time>2019-03-16T06:29:09Z</time>
            </trkpt>
            <trkpt lon="101.553242" lat="12.981593">
                <ele>55.300000</ele>
                <time>2019-03-16T06:29:10Z</time>
            </trkpt>
            <trkpt lon="101.553267" lat="12.981556">
                <ele>55.200000</ele>
                <time>2019-03-16T06:29:11Z</time>
            </trkpt>
            <trkpt lon="101.553289" lat="12.981519">
                <ele>55.500000</ele>
                <time>2019-03-16T06:29:12Z</time>
            </trkpt>
            <trkpt lon="101.553309" lat="12.981483">
                <ele>55.500000</ele>
                <time>2019-03-16T06:29:13Z</time>
            </trkpt>
            <trkpt lon="101.553329" lat="12.981448">
                <ele>55.700000</ele>
                <time>2019-03-16T06:29:14Z</time>
            </trkpt>
            <trkpt lon="101.553347" lat="12.981410">
                <ele>55.700000</ele>
                <time>2019-03-16T06:29:15Z</time>
            </trkpt>
            <trkpt lon="101.553360" lat="12.981379">
                <ele>55.700000</ele>
                <time>2019-03-16T06:29:16Z</time>
            </trkpt>
            <trkpt lon="101.553365" lat="12.981347">
                <ele>55.600000</ele>
                <time>2019-03-16T06:29:17Z</time>
            </trkpt>
            <trkpt lon="101.553362" lat="12.981312">
                <ele>55.600000</ele>
                <time>2019-03-16T06:29:18Z</time>
            </trkpt>
            <trkpt lon="101.553352" lat="12.981267">
                <ele>55.600000</ele>
                <time>2019-03-16T06:29:19Z</time>
            </trkpt>
            <trkpt lon="101.553341" lat="12.981221">
                <ele>55.300000</ele>
                <time>2019-03-16T06:29:20Z</time>
            </trkpt>
            <trkpt lon="101.553328" lat="12.981177">
                <ele>55.100000</ele>
                <time>2019-03-16T06:29:21Z</time>
            </trkpt>
            <trkpt lon="101.553313" lat="12.981139">
                <ele>55.100000</ele>
                <time>2019-03-16T06:29:22Z</time>
            </trkpt>
            <trkpt lon="101.553294" lat="12.981096">
                <ele>54.800000</ele>
                <time>2019-03-16T06:29:23Z</time>
            </trkpt>
            <trkpt lon="101.553275" lat="12.981052">
                <ele>54.300000</ele>
                <time>2019-03-16T06:29:24Z</time>
            </trkpt>
            <trkpt lon="101.553256" lat="12.981011">
                <ele>53.300000</ele>
                <time>2019-03-16T06:29:25Z</time>
            </trkpt>
            <trkpt lon="101.553236" lat="12.980968">
                <ele>52.700000</ele>
                <time>2019-03-16T06:29:26Z</time>
            </trkpt>
            <trkpt lon="101.553213" lat="12.980928">
                <ele>51.700000</ele>
                <time>2019-03-16T06:29:27Z</time>
            </trkpt>
            <trkpt lon="101.553193" lat="12.980883">
                <ele>51.300000</ele>
                <time>2019-03-16T06:29:28Z</time>
            </trkpt>
            <trkpt lon="101.553171" lat="12.980837">
                <ele>50.400000</ele>
                <time>2019-03-16T06:29:29Z</time>
            </trkpt>
            <trkpt lon="101.553160" lat="12.980778">
                <ele>49.500000</ele>
                <time>2019-03-16T06:29:30Z</time>
            </trkpt>
            <trkpt lon="101.553143" lat="12.980740">
                <ele>49.300000</ele>
                <time>2019-03-16T06:29:31Z</time>
            </trkpt>
            <trkpt lon="101.553126" lat="12.980695">
                <ele>48.400000</ele>
                <time>2019-03-16T06:29:32Z</time>
            </trkpt>
            <trkpt lon="101.553102" lat="12.980663">
                <ele>48.200000</ele>
                <time>2019-03-16T06:29:33Z</time>
            </trkpt>
            <trkpt lon="101.553081" lat="12.980627">
                <ele>47.200000</ele>
                <time>2019-03-16T06:29:34Z</time>
            </trkpt>
            <trkpt lon="101.553055" lat="12.980592">
                <ele>46.600000</ele>
                <time>2019-03-16T06:29:35Z</time>
            </trkpt>
            <trkpt lon="101.553032" lat="12.980558">
                <ele>46.600000</ele>
                <time>2019-03-16T06:29:36Z</time>
            </trkpt>
            <trkpt lon="101.553008" lat="12.980524">
                <ele>45.900000</ele>
                <time>2019-03-16T06:29:37Z</time>
            </trkpt>
            <trkpt lon="101.552984" lat="12.980487">
                <ele>44.900000</ele>
                <time>2019-03-16T06:29:38Z</time>
            </trkpt>
            <trkpt lon="101.552957" lat="12.980449">
                <ele>44.100000</ele>
                <time>2019-03-16T06:29:39Z</time>
            </trkpt>
            <trkpt lon="101.552931" lat="12.980411">
                <ele>43.400000</ele>
                <time>2019-03-16T06:29:40Z</time>
            </trkpt>
            <trkpt lon="101.552906" lat="12.980373">
                <ele>42.900000</ele>
                <time>2019-03-16T06:29:41Z</time>
            </trkpt>
            <trkpt lon="101.552880" lat="12.980336">
                <ele>42.900000</ele>
                <time>2019-03-16T06:29:42Z</time>
            </trkpt>
            <trkpt lon="101.552855" lat="12.980301">
                <ele>42.600000</ele>
                <time>2019-03-16T06:29:43Z</time>
            </trkpt>
            <trkpt lon="101.552831" lat="12.980264">
                <ele>42.900000</ele>
                <time>2019-03-16T06:29:44Z</time>
            </trkpt>
            <trkpt lon="101.552806" lat="12.980229">
                <ele>42.900000</ele>
                <time>2019-03-16T06:29:45Z</time>
            </trkpt>
            <trkpt lon="101.552786" lat="12.980197">
                <ele>42.800000</ele>
                <time>2019-03-16T06:29:46Z</time>
            </trkpt>
            <trkpt lon="101.552761" lat="12.980163">
                <ele>43.000000</ele>
                <time>2019-03-16T06:29:47Z</time>
            </trkpt>
            <trkpt lon="101.552734" lat="12.980127">
                <ele>43.000000</ele>
                <time>2019-03-16T06:29:48Z</time>
            </trkpt>
            <trkpt lon="101.552706" lat="12.980090">
                <ele>43.100000</ele>
                <time>2019-03-16T06:29:49Z</time>
            </trkpt>
            <trkpt lon="101.552683" lat="12.980054">
                <ele>43.100000</ele>
                <time>2019-03-16T06:29:50Z</time>
            </trkpt>
            <trkpt lon="101.552658" lat="12.980018">
                <ele>43.100000</ele>
                <time>2019-03-16T06:29:51Z</time>
            </trkpt>
            <trkpt lon="101.552631" lat="12.979982">
                <ele>43.100000</ele>
                <time>2019-03-16T06:29:52Z</time>
            </trkpt>
            <trkpt lon="101.552608" lat="12.979944">
                <ele>43.100000</ele>
                <time>2019-03-16T06:29:53Z</time>
            </trkpt>
            <trkpt lon="101.552585" lat="12.979905">
                <ele>43.100000</ele>
                <time>2019-03-16T06:29:54Z</time>
            </trkpt>
            <trkpt lon="101.552563" lat="12.979873">
                <ele>43.100000</ele>
                <time>2019-03-16T06:29:55Z</time>
            </trkpt>
            <trkpt lon="101.552543" lat="12.979838">
                <ele>43.100000</ele>
                <time>2019-03-16T06:29:56Z</time>
            </trkpt>
            <trkpt lon="101.552525" lat="12.979806">
                <ele>43.100000</ele>
                <time>2019-03-16T06:29:57Z</time>
            </trkpt>
            <trkpt lon="101.552511" lat="12.979770">
                <ele>43.000000</ele>
                <time>2019-03-16T06:29:58Z</time>
            </trkpt>
            <trkpt lon="101.552500" lat="12.979729">
                <ele>42.800000</ele>
                <time>2019-03-16T06:29:59Z</time>
            </trkpt>
            <trkpt lon="101.552487" lat="12.979688">
                <ele>42.700000</ele>
                <time>2019-03-16T06:30:00Z</time>
            </trkpt>
            <trkpt lon="101.552480" lat="12.979649">
                <ele>42.700000</ele>
                <time>2019-03-16T06:30:01Z</time>
            </trkpt>
            <trkpt lon="101.552473" lat="12.979605">
                <ele>42.700000</ele>
                <time>2019-03-16T06:30:02Z</time>
            </trkpt>
            <trkpt lon="101.552469" lat="12.979562">
                <ele>42.700000</ele>
                <time>2019-03-16T06:30:03Z</time>
            </trkpt>
            <trkpt lon="101.552469" lat="12.979517">
                <ele>42.800000</ele>
                <time>2019-03-16T06:30:04Z</time>
            </trkpt>
            <trkpt lon="101.552469" lat="12.979474">
                <ele>43.000000</ele>
                <time>2019-03-16T06:30:05Z</time>
            </trkpt>
            <trkpt lon="101.552469" lat="12.979427">
                <ele>43.100000</ele>
                <time>2019-03-16T06:30:06Z</time>
            </trkpt>
            <trkpt lon="101.552470" lat="12.979384">
                <ele>43.400000</ele>
                <time>2019-03-16T06:30:07Z</time>
            </trkpt>
            <trkpt lon="101.552473" lat="12.979343">
                <ele>43.400000</ele>
                <time>2019-03-16T06:30:08Z</time>
            </trkpt>
            <trkpt lon="101.552479" lat="12.979307">
                <ele>43.500000</ele>
                <time>2019-03-16T06:30:09Z</time>
            </trkpt>
            <trkpt lon="101.552486" lat="12.979271">
                <ele>43.600000</ele>
                <time>2019-03-16T06:30:10Z</time>
            </trkpt>
            <trkpt lon="101.552492" lat="12.979238">
                <ele>43.700000</ele>
                <time>2019-03-16T06:30:11Z</time>
            </trkpt>
            <trkpt lon="101.552497" lat="12.979209">
                <ele>43.700000</ele>
                <time>2019-03-16T06:30:12Z</time>
            </trkpt>
            <trkpt lon="101.552500" lat="12.979179">
                <ele>43.700000</ele>
                <time>2019-03-16T06:30:13Z</time>
            </trkpt>
            <trkpt lon="101.552501" lat="12.979147">
                <ele>43.700000</ele>
                <time>2019-03-16T06:30:14Z</time>
            </trkpt>
            <trkpt lon="101.552500" lat="12.979115">
                <ele>43.600000</ele>
                <time>2019-03-16T06:30:15Z</time>
            </trkpt>
            <trkpt lon="101.552500" lat="12.979084">
                <ele>43.500000</ele>
                <time>2019-03-16T06:30:16Z</time>
            </trkpt>
            <trkpt lon="101.552498" lat="12.979055">
                <ele>43.500000</ele>
                <time>2019-03-16T06:30:17Z</time>
            </trkpt>
            <trkpt lon="101.552486" lat="12.979028">
                <ele>43.300000</ele>
                <time>2019-03-16T06:30:18Z</time>
            </trkpt>
            <trkpt lon="101.552465" lat="12.979004">
                <ele>43.100000</ele>
                <time>2019-03-16T06:30:19Z</time>
            </trkpt>
            <trkpt lon="101.552445" lat="12.978982">
                <ele>43.100000</ele>
                <time>2019-03-16T06:30:20Z</time>
            </trkpt>
            <trkpt lon="101.552418" lat="12.978958">
                <ele>42.800000</ele>
                <time>2019-03-16T06:30:21Z</time>
            </trkpt>
            <trkpt lon="101.552388" lat="12.978935">
                <ele>42.800000</ele>
                <time>2019-03-16T06:30:22Z</time>
            </trkpt>
            <trkpt lon="101.552351" lat="12.978912">
                <ele>42.400000</ele>
                <time>2019-03-16T06:30:23Z</time>
            </trkpt>
            <trkpt lon="101.552315" lat="12.978892">
                <ele>42.600000</ele>
                <time>2019-03-16T06:30:24Z</time>
            </trkpt>
            <trkpt lon="101.552284" lat="12.978877">
                <ele>42.600000</ele>
                <time>2019-03-16T06:30:25Z</time>
            </trkpt>
            <trkpt lon="101.552249" lat="12.978861">
                <ele>42.900000</ele>
                <time>2019-03-16T06:30:26Z</time>
            </trkpt>
            <trkpt lon="101.552215" lat="12.978849">
                <ele>42.900000</ele>
                <time>2019-03-16T06:30:27Z</time>
            </trkpt>
            <trkpt lon="101.552180" lat="12.978839">
                <ele>43.000000</ele>
                <time>2019-03-16T06:30:28Z</time>
            </trkpt>
            <trkpt lon="101.552124" lat="12.978838">
                <ele>44.000000</ele>
                <time>2019-03-16T06:30:30Z</time>
            </trkpt>
            <trkpt lon="101.552096" lat="12.978842">
                <ele>44.200000</ele>
                <time>2019-03-16T06:30:31Z</time>
            </trkpt>
            <trkpt lon="101.552048" lat="12.978855">
                <ele>44.700000</ele>
                <time>2019-03-16T06:30:33Z</time>
            </trkpt>
            <trkpt lon="101.552009" lat="12.978874">
                <ele>45.200000</ele>
                <time>2019-03-16T06:30:35Z</time>
            </trkpt>
            <trkpt lon="101.551965" lat="12.978903">
                <ele>45.900000</ele>
                <time>2019-03-16T06:30:37Z</time>
            </trkpt>
            <trkpt lon="101.551936" lat="12.978920">
                <ele>46.400000</ele>
                <time>2019-03-16T06:30:38Z</time>
            </trkpt>
            <trkpt lon="101.551910" lat="12.978939">
                <ele>46.400000</ele>
                <time>2019-03-16T06:30:39Z</time>
            </trkpt>
            <trkpt lon="101.551880" lat="12.978963">
                <ele>46.900000</ele>
                <time>2019-03-16T06:30:40Z</time>
            </trkpt>
            <trkpt lon="101.551849" lat="12.978989">
                <ele>47.500000</ele>
                <time>2019-03-16T06:30:41Z</time>
            </trkpt>
            <trkpt lon="101.551817" lat="12.979009">
                <ele>48.300000</ele>
                <time>2019-03-16T06:30:42Z</time>
            </trkpt>
            <trkpt lon="101.551789" lat="12.979027">
                <ele>48.300000</ele>
                <time>2019-03-16T06:30:43Z</time>
            </trkpt>
            <trkpt lon="101.551759" lat="12.979044">
                <ele>49.100000</ele>
                <time>2019-03-16T06:30:44Z</time>
            </trkpt>
            <trkpt lon="101.551731" lat="12.979063">
                <ele>49.500000</ele>
                <time>2019-03-16T06:30:45Z</time>
            </trkpt>
            <trkpt lon="101.551705" lat="12.979083">
                <ele>49.500000</ele>
                <time>2019-03-16T06:30:46Z</time>
            </trkpt>
            <trkpt lon="101.551683" lat="12.979101">
                <ele>49.600000</ele>
                <time>2019-03-16T06:30:47Z</time>
            </trkpt>
            <trkpt lon="101.551656" lat="12.979120">
                <ele>49.600000</ele>
                <time>2019-03-16T06:30:48Z</time>
            </trkpt>
            <trkpt lon="101.551628" lat="12.979138">
                <ele>49.500000</ele>
                <time>2019-03-16T06:30:49Z</time>
            </trkpt>
            <trkpt lon="101.551602" lat="12.979154">
                <ele>49.900000</ele>
                <time>2019-03-16T06:30:50Z</time>
            </trkpt>
            <trkpt lon="101.551573" lat="12.979172">
                <ele>49.900000</ele>
                <time>2019-03-16T06:30:51Z</time>
            </trkpt>
            <trkpt lon="101.551545" lat="12.979192">
                <ele>50.000000</ele>
                <time>2019-03-16T06:30:52Z</time>
            </trkpt>
            <trkpt lon="101.551517" lat="12.979213">
                <ele>50.500000</ele>
                <time>2019-03-16T06:30:53Z</time>
            </trkpt>
            <trkpt lon="101.551488" lat="12.979233">
                <ele>50.300000</ele>
                <time>2019-03-16T06:30:54Z</time>
            </trkpt>
            <trkpt lon="101.551457" lat="12.979250">
                <ele>50.800000</ele>
                <time>2019-03-16T06:30:55Z</time>
            </trkpt>
            <trkpt lon="101.551426" lat="12.979265">
                <ele>50.900000</ele>
                <time>2019-03-16T06:30:56Z</time>
            </trkpt>
            <trkpt lon="101.551397" lat="12.979280">
                <ele>50.900000</ele>
                <time>2019-03-16T06:30:57Z</time>
            </trkpt>
            <trkpt lon="101.551372" lat="12.979298">
                <ele>51.200000</ele>
                <time>2019-03-16T06:30:58Z</time>
            </trkpt>
            <trkpt lon="101.551341" lat="12.979315">
                <ele>51.000000</ele>
                <time>2019-03-16T06:30:59Z</time>
            </trkpt>
            <trkpt lon="101.551312" lat="12.979329">
                <ele>51.000000</ele>
                <time>2019-03-16T06:31:00Z</time>
            </trkpt>
            <trkpt lon="101.551280" lat="12.979349">
                <ele>50.700000</ele>
                <time>2019-03-16T06:31:01Z</time>
            </trkpt>
            <trkpt lon="101.551250" lat="12.979367">
                <ele>50.900000</ele>
                <time>2019-03-16T06:31:02Z</time>
            </trkpt>
            <trkpt lon="101.551221" lat="12.979385">
                <ele>50.900000</ele>
                <time>2019-03-16T06:31:03Z</time>
            </trkpt>
            <trkpt lon="101.551194" lat="12.979398">
                <ele>50.900000</ele>
                <time>2019-03-16T06:31:04Z</time>
            </trkpt>
            <trkpt lon="101.551167" lat="12.979410">
                <ele>50.900000</ele>
                <time>2019-03-16T06:31:05Z</time>
            </trkpt>
            <trkpt lon="101.551140" lat="12.979422">
                <ele>50.900000</ele>
                <time>2019-03-16T06:31:06Z</time>
            </trkpt>
            <trkpt lon="101.551113" lat="12.979431">
                <ele>50.400000</ele>
                <time>2019-03-16T06:31:07Z</time>
            </trkpt>
            <trkpt lon="101.551087" lat="12.979444">
                <ele>50.200000</ele>
                <time>2019-03-16T06:31:08Z</time>
            </trkpt>
            <trkpt lon="101.551061" lat="12.979455">
                <ele>50.200000</ele>
                <time>2019-03-16T06:31:09Z</time>
            </trkpt>
            <trkpt lon="101.551010" lat="12.979468">
                <ele>49.700000</ele>
                <time>2019-03-16T06:31:11Z</time>
            </trkpt>
            <trkpt lon="101.550962" lat="12.979472">
                <ele>49.000000</ele>
                <time>2019-03-16T06:31:13Z</time>
            </trkpt>
            <trkpt lon="101.550914" lat="12.979487">
                <ele>48.700000</ele>
                <time>2019-03-16T06:31:15Z</time>
            </trkpt>
            <trkpt lon="101.550867" lat="12.979491">
                <ele>48.300000</ele>
                <time>2019-03-16T06:31:17Z</time>
            </trkpt>
            <trkpt lon="101.550831" lat="12.979488">
                <ele>48.100000</ele>
                <time>2019-03-16T06:31:19Z</time>
            </trkpt>
            <trkpt lon="101.550812" lat="12.979462">
                <ele>48.100000</ele>
                <time>2019-03-16T06:31:21Z</time>
            </trkpt>
            <trkpt lon="101.550802" lat="12.979420">
                <ele>48.100000</ele>
                <time>2019-03-16T06:31:23Z</time>
            </trkpt>
            <trkpt lon="101.550802" lat="12.979387">
                <ele>48.100000</ele>
                <time>2019-03-16T06:31:24Z</time>
            </trkpt>
            <trkpt lon="101.550801" lat="12.979354">
                <ele>48.100000</ele>
                <time>2019-03-16T06:31:25Z</time>
            </trkpt>
            <trkpt lon="101.550798" lat="12.979326">
                <ele>48.100000</ele>
                <time>2019-03-16T06:31:26Z</time>
            </trkpt>
            <trkpt lon="101.550795" lat="12.979297">
                <ele>48.100000</ele>
                <time>2019-03-16T06:31:27Z</time>
            </trkpt>
            <trkpt lon="101.550792" lat="12.979268">
                <ele>48.100000</ele>
                <time>2019-03-16T06:31:28Z</time>
            </trkpt>
            <trkpt lon="101.550791" lat="12.979238">
                <ele>48.200000</ele>
                <time>2019-03-16T06:31:29Z</time>
            </trkpt>
            <trkpt lon="101.550789" lat="12.979207">
                <ele>48.200000</ele>
                <time>2019-03-16T06:31:30Z</time>
            </trkpt>
            <trkpt lon="101.550785" lat="12.979179">
                <ele>48.200000</ele>
                <time>2019-03-16T06:31:31Z</time>
            </trkpt>
            <trkpt lon="101.550781" lat="12.979144">
                <ele>48.200000</ele>
                <time>2019-03-16T06:31:32Z</time>
            </trkpt>
            <trkpt lon="101.550781" lat="12.979108">
                <ele>48.200000</ele>
                <time>2019-03-16T06:31:33Z</time>
            </trkpt>
            <trkpt lon="101.550778" lat="12.979075">
                <ele>48.200000</ele>
                <time>2019-03-16T06:31:34Z</time>
            </trkpt>
            <trkpt lon="101.550777" lat="12.979036">
                <ele>48.200000</ele>
                <time>2019-03-16T06:31:35Z</time>
            </trkpt>
            <trkpt lon="101.550774" lat="12.979003">
                <ele>48.200000</ele>
                <time>2019-03-16T06:31:36Z</time>
            </trkpt>
            <trkpt lon="101.550772" lat="12.978974">
                <ele>48.200000</ele>
                <time>2019-03-16T06:31:37Z</time>
            </trkpt>
            <trkpt lon="101.550771" lat="12.978943">
                <ele>48.200000</ele>
                <time>2019-03-16T06:31:38Z</time>
            </trkpt>
            <trkpt lon="101.550769" lat="12.978913">
                <ele>48.200000</ele>
                <time>2019-03-16T06:31:39Z</time>
            </trkpt>
            <trkpt lon="101.550767" lat="12.978883">
                <ele>48.200000</ele>
                <time>2019-03-16T06:31:40Z</time>
            </trkpt>
            <trkpt lon="101.550758" lat="12.978847">
                <ele>48.200000</ele>
                <time>2019-03-16T06:31:41Z</time>
            </trkpt>
            <trkpt lon="101.550756" lat="12.978818">
                <ele>48.200000</ele>
                <time>2019-03-16T06:31:42Z</time>
            </trkpt>
            <trkpt lon="101.550754" lat="12.978786">
                <ele>48.200000</ele>
                <time>2019-03-16T06:31:43Z</time>
            </trkpt>
            <trkpt lon="101.550750" lat="12.978750">
                <ele>48.200000</ele>
                <time>2019-03-16T06:31:44Z</time>
            </trkpt>
            <trkpt lon="101.550747" lat="12.978711">
                <ele>48.300000</ele>
                <time>2019-03-16T06:31:45Z</time>
            </trkpt>
            <trkpt lon="101.550749" lat="12.978669">
                <ele>48.300000</ele>
                <time>2019-03-16T06:31:46Z</time>
            </trkpt>
            <trkpt lon="101.550747" lat="12.978636">
                <ele>48.400000</ele>
                <time>2019-03-16T06:31:47Z</time>
            </trkpt>
            <trkpt lon="101.550744" lat="12.978608">
                <ele>48.400000</ele>
                <time>2019-03-16T06:31:48Z</time>
            </trkpt>
            <trkpt lon="101.550739" lat="12.978555">
                <ele>48.500000</ele>
                <time>2019-03-16T06:31:50Z</time>
            </trkpt>
            <trkpt lon="101.550747" lat="12.978523">
                <ele>48.500000</ele>
                <time>2019-03-16T06:31:51Z</time>
            </trkpt>
            <trkpt lon="101.550744" lat="12.978467">
                <ele>48.600000</ele>
                <time>2019-03-16T06:31:53Z</time>
            </trkpt>
            <trkpt lon="101.550739" lat="12.978433">
                <ele>48.700000</ele>
                <time>2019-03-16T06:31:54Z</time>
            </trkpt>
            <trkpt lon="101.550736" lat="12.978403">
                <ele>48.800000</ele>
                <time>2019-03-16T06:31:55Z</time>
            </trkpt>
            <trkpt lon="101.550730" lat="12.978370">
                <ele>48.900000</ele>
                <time>2019-03-16T06:31:56Z</time>
            </trkpt>
            <trkpt lon="101.550725" lat="12.978327">
                <ele>49.000000</ele>
                <time>2019-03-16T06:31:57Z</time>
            </trkpt>
            <trkpt lon="101.550719" lat="12.978273">
                <ele>49.100000</ele>
                <time>2019-03-16T06:31:58Z</time>
            </trkpt>
            <trkpt lon="101.550710" lat="12.978228">
                <ele>49.300000</ele>
                <time>2019-03-16T06:31:59Z</time>
            </trkpt>
            <trkpt lon="101.550703" lat="12.978186">
                <ele>49.400000</ele>
                <time>2019-03-16T06:32:00Z</time>
            </trkpt>
            <trkpt lon="101.550695" lat="12.978140">
                <ele>49.500000</ele>
                <time>2019-03-16T06:32:01Z</time>
            </trkpt>
            <trkpt lon="101.550688" lat="12.978071">
                <ele>49.700000</ele>
                <time>2019-03-16T06:32:02Z</time>
            </trkpt>
            <trkpt lon="101.550685" lat="12.978024">
                <ele>49.800000</ele>
                <time>2019-03-16T06:32:03Z</time>
            </trkpt>
            <trkpt lon="101.550683" lat="12.977996">
                <ele>49.900000</ele>
                <time>2019-03-16T06:32:04Z</time>
            </trkpt>
            <trkpt lon="101.550681" lat="12.977967">
                <ele>50.000000</ele>
                <time>2019-03-16T06:32:05Z</time>
            </trkpt>
            <trkpt lon="101.550677" lat="12.977933">
                <ele>50.100000</ele>
                <time>2019-03-16T06:32:06Z</time>
            </trkpt>
            <trkpt lon="101.550680" lat="12.977889">
                <ele>50.200000</ele>
                <time>2019-03-16T06:32:07Z</time>
            </trkpt>
            <trkpt lon="101.550681" lat="12.977846">
                <ele>50.200000</ele>
                <time>2019-03-16T06:32:08Z</time>
            </trkpt>
            <trkpt lon="101.550676" lat="12.977803">
                <ele>50.300000</ele>
                <time>2019-03-16T06:32:09Z</time>
            </trkpt>
            <trkpt lon="101.550670" lat="12.977758">
                <ele>50.400000</ele>
                <time>2019-03-16T06:32:10Z</time>
            </trkpt>
            <trkpt lon="101.550666" lat="12.977711">
                <ele>50.500000</ele>
                <time>2019-03-16T06:32:11Z</time>
            </trkpt>
            <trkpt lon="101.550660" lat="12.977664">
                <ele>50.600000</ele>
                <time>2019-03-16T06:32:12Z</time>
            </trkpt>
            <trkpt lon="101.550659" lat="12.977630">
                <ele>50.600000</ele>
                <time>2019-03-16T06:32:13Z</time>
            </trkpt>
            <trkpt lon="101.550660" lat="12.977594">
                <ele>50.700000</ele>
                <time>2019-03-16T06:32:14Z</time>
            </trkpt>
            <trkpt lon="101.550659" lat="12.977545">
                <ele>50.800000</ele>
                <time>2019-03-16T06:32:15Z</time>
            </trkpt>
            <trkpt lon="101.550656" lat="12.977492">
                <ele>50.800000</ele>
                <time>2019-03-16T06:32:16Z</time>
            </trkpt>
            <trkpt lon="101.550652" lat="12.977449">
                <ele>50.900000</ele>
                <time>2019-03-16T06:32:17Z</time>
            </trkpt>
            <trkpt lon="101.550648" lat="12.977403">
                <ele>50.900000</ele>
                <time>2019-03-16T06:32:18Z</time>
            </trkpt>
            <trkpt lon="101.550645" lat="12.977359">
                <ele>51.000000</ele>
                <time>2019-03-16T06:32:19Z</time>
            </trkpt>
            <trkpt lon="101.550643" lat="12.977312">
                <ele>51.000000</ele>
                <time>2019-03-16T06:32:20Z</time>
            </trkpt>
            <trkpt lon="101.550638" lat="12.977263">
                <ele>51.100000</ele>
                <time>2019-03-16T06:32:21Z</time>
            </trkpt>
            <trkpt lon="101.550634" lat="12.977218">
                <ele>51.100000</ele>
                <time>2019-03-16T06:32:22Z</time>
            </trkpt>
            <trkpt lon="101.550627" lat="12.977163">
                <ele>51.100000</ele>
                <time>2019-03-16T06:32:23Z</time>
            </trkpt>
            <trkpt lon="101.550614" lat="12.977077">
                <ele>51.200000</ele>
                <time>2019-03-16T06:32:24Z</time>
            </trkpt>
            <trkpt lon="101.550613" lat="12.977013">
                <ele>51.200000</ele>
                <time>2019-03-16T06:32:25Z</time>
            </trkpt>
            <trkpt lon="101.550608" lat="12.976966">
                <ele>51.300000</ele>
                <time>2019-03-16T06:32:26Z</time>
            </trkpt>
            <trkpt lon="101.550607" lat="12.976908">
                <ele>51.300000</ele>
                <time>2019-03-16T06:32:27Z</time>
            </trkpt>
            <trkpt lon="101.550604" lat="12.976855">
                <ele>51.400000</ele>
                <time>2019-03-16T06:32:28Z</time>
            </trkpt>
            <trkpt lon="101.550598" lat="12.976803">
                <ele>51.500000</ele>
                <time>2019-03-16T06:32:29Z</time>
            </trkpt>
            <trkpt lon="101.550595" lat="12.976751">
                <ele>51.600000</ele>
                <time>2019-03-16T06:32:30Z</time>
            </trkpt>
            <trkpt lon="101.550594" lat="12.976705">
                <ele>51.600000</ele>
                <time>2019-03-16T06:32:31Z</time>
            </trkpt>
            <trkpt lon="101.550597" lat="12.976665">
                <ele>51.700000</ele>
                <time>2019-03-16T06:32:32Z</time>
            </trkpt>
            <trkpt lon="101.550593" lat="12.976629">
                <ele>51.700000</ele>
                <time>2019-03-16T06:32:33Z</time>
            </trkpt>
            <trkpt lon="101.550590" lat="12.976587">
                <ele>51.700000</ele>
                <time>2019-03-16T06:32:34Z</time>
            </trkpt>
            <trkpt lon="101.550587" lat="12.976542">
                <ele>51.800000</ele>
                <time>2019-03-16T06:32:35Z</time>
            </trkpt>
            <trkpt lon="101.550586" lat="12.976502">
                <ele>51.900000</ele>
                <time>2019-03-16T06:32:36Z</time>
            </trkpt>
            <trkpt lon="101.550587" lat="12.976458">
                <ele>51.900000</ele>
                <time>2019-03-16T06:32:37Z</time>
            </trkpt>
            <trkpt lon="101.550578" lat="12.976414">
                <ele>52.000000</ele>
                <time>2019-03-16T06:32:38Z</time>
            </trkpt>
            <trkpt lon="101.550572" lat="12.976376">
                <ele>52.100000</ele>
                <time>2019-03-16T06:32:39Z</time>
            </trkpt>
            <trkpt lon="101.550567" lat="12.976335">
                <ele>52.200000</ele>
                <time>2019-03-16T06:32:40Z</time>
            </trkpt>
            <trkpt lon="101.550565" lat="12.976301">
                <ele>52.200000</ele>
                <time>2019-03-16T06:32:41Z</time>
            </trkpt>
            <trkpt lon="101.550563" lat="12.976274">
                <ele>52.300000</ele>
                <time>2019-03-16T06:32:42Z</time>
            </trkpt>
            <trkpt lon="101.550565" lat="12.976244">
                <ele>52.300000</ele>
                <time>2019-03-16T06:32:43Z</time>
            </trkpt>
            <trkpt lon="101.550566" lat="12.976211">
                <ele>52.400000</ele>
                <time>2019-03-16T06:32:44Z</time>
            </trkpt>
            <trkpt lon="101.550561" lat="12.976174">
                <ele>52.500000</ele>
                <time>2019-03-16T06:32:45Z</time>
            </trkpt>
            <trkpt lon="101.550555" lat="12.976126">
                <ele>52.600000</ele>
                <time>2019-03-16T06:32:46Z</time>
            </trkpt>
            <trkpt lon="101.550551" lat="12.976077">
                <ele>52.700000</ele>
                <time>2019-03-16T06:32:47Z</time>
            </trkpt>
            <trkpt lon="101.550531" lat="12.975999">
                <ele>52.800000</ele>
                <time>2019-03-16T06:32:48Z</time>
            </trkpt>
            <trkpt lon="101.550519" lat="12.975951">
                <ele>52.900000</ele>
                <time>2019-03-16T06:32:49Z</time>
            </trkpt>
            <trkpt lon="101.550512" lat="12.975874">
                <ele>53.000000</ele>
                <time>2019-03-16T06:32:50Z</time>
            </trkpt>
            <trkpt lon="101.550519" lat="12.975795">
                <ele>53.200000</ele>
                <time>2019-03-16T06:32:51Z</time>
            </trkpt>
            <trkpt lon="101.550517" lat="12.975715">
                <ele>53.200000</ele>
                <time>2019-03-16T06:32:52Z</time>
            </trkpt>
            <trkpt lon="101.550497" lat="12.975667">
                <ele>53.300000</ele>
                <time>2019-03-16T06:32:53Z</time>
            </trkpt>
            <trkpt lon="101.550492" lat="12.975611">
                <ele>53.300000</ele>
                <time>2019-03-16T06:32:54Z</time>
            </trkpt>
            <trkpt lon="101.550488" lat="12.975547">
                <ele>53.400000</ele>
                <time>2019-03-16T06:32:55Z</time>
            </trkpt>
            <trkpt lon="101.550488" lat="12.975492">
                <ele>53.400000</ele>
                <time>2019-03-16T06:32:56Z</time>
            </trkpt>
            <trkpt lon="101.550490" lat="12.975439">
                <ele>53.400000</ele>
                <time>2019-03-16T06:32:57Z</time>
            </trkpt>
            <trkpt lon="101.550492" lat="12.975380">
                <ele>53.400000</ele>
                <time>2019-03-16T06:32:58Z</time>
            </trkpt>
            <trkpt lon="101.550486" lat="12.975316">
                <ele>53.400000</ele>
                <time>2019-03-16T06:32:59Z</time>
            </trkpt>
            <trkpt lon="101.550484" lat="12.975249">
                <ele>53.400000</ele>
                <time>2019-03-16T06:33:00Z</time>
            </trkpt>
            <trkpt lon="101.550480" lat="12.975184">
                <ele>53.400000</ele>
                <time>2019-03-16T06:33:01Z</time>
            </trkpt>
            <trkpt lon="101.550478" lat="12.975121">
                <ele>53.400000</ele>
                <time>2019-03-16T06:33:02Z</time>
            </trkpt>
            <trkpt lon="101.550476" lat="12.975059">
                <ele>53.500000</ele>
                <time>2019-03-16T06:33:03Z</time>
            </trkpt>
            <trkpt lon="101.550472" lat="12.975001">
                <ele>53.500000</ele>
                <time>2019-03-16T06:33:04Z</time>
            </trkpt>
            <trkpt lon="101.550466" lat="12.974948">
                <ele>53.500000</ele>
                <time>2019-03-16T06:33:05Z</time>
            </trkpt>
            <trkpt lon="101.550464" lat="12.974898">
                <ele>53.500000</ele>
                <time>2019-03-16T06:33:06Z</time>
            </trkpt>
            <trkpt lon="101.550459" lat="12.974841">
                <ele>53.500000</ele>
                <time>2019-03-16T06:33:07Z</time>
            </trkpt>
            <trkpt lon="101.550456" lat="12.974795">
                <ele>53.600000</ele>
                <time>2019-03-16T06:33:08Z</time>
            </trkpt>
            <trkpt lon="101.550451" lat="12.974748">
                <ele>53.600000</ele>
                <time>2019-03-16T06:33:09Z</time>
            </trkpt>
            <trkpt lon="101.550449" lat="12.974707">
                <ele>53.600000</ele>
                <time>2019-03-16T06:33:10Z</time>
            </trkpt>
            <trkpt lon="101.550443" lat="12.974663">
                <ele>53.600000</ele>
                <time>2019-03-16T06:33:11Z</time>
            </trkpt>
            <trkpt lon="101.550437" lat="12.974622">
                <ele>53.600000</ele>
                <time>2019-03-16T06:33:12Z</time>
            </trkpt>
            <trkpt lon="101.550429" lat="12.974573">
                <ele>53.600000</ele>
                <time>2019-03-16T06:33:13Z</time>
            </trkpt>
            <trkpt lon="101.550423" lat="12.974532">
                <ele>53.600000</ele>
                <time>2019-03-16T06:33:14Z</time>
            </trkpt>
            <trkpt lon="101.550415" lat="12.974492">
                <ele>53.500000</ele>
                <time>2019-03-16T06:33:15Z</time>
            </trkpt>
            <trkpt lon="101.550409" lat="12.974461">
                <ele>53.500000</ele>
                <time>2019-03-16T06:33:16Z</time>
            </trkpt>
            <trkpt lon="101.550408" lat="12.974430">
                <ele>53.500000</ele>
                <time>2019-03-16T06:33:17Z</time>
            </trkpt>
            <trkpt lon="101.550404" lat="12.974401">
                <ele>53.400000</ele>
                <time>2019-03-16T06:33:18Z</time>
            </trkpt>
            <trkpt lon="101.550418" lat="12.974371">
                <ele>53.400000</ele>
                <time>2019-03-16T06:33:19Z</time>
            </trkpt>
            <trkpt lon="101.550447" lat="12.974345">
                <ele>53.400000</ele>
                <time>2019-03-16T06:33:20Z</time>
            </trkpt>
            <trkpt lon="101.550496" lat="12.974319">
                <ele>53.400000</ele>
                <time>2019-03-16T06:33:22Z</time>
            </trkpt>
            <trkpt lon="101.550526" lat="12.974308">
                <ele>53.400000</ele>
                <time>2019-03-16T06:33:23Z</time>
            </trkpt>
            <trkpt lon="101.550558" lat="12.974297">
                <ele>53.400000</ele>
                <time>2019-03-16T06:33:24Z</time>
            </trkpt>
            <trkpt lon="101.550587" lat="12.974280">
                <ele>53.400000</ele>
                <time>2019-03-16T06:33:26Z</time>
            </trkpt>
            <trkpt lon="101.550608" lat="12.974240">
                <ele>53.300000</ele>
                <time>2019-03-16T06:33:28Z</time>
            </trkpt>
            <trkpt lon="101.550595" lat="12.974210">
                <ele>53.300000</ele>
                <time>2019-03-16T06:33:30Z</time>
            </trkpt>
            <trkpt lon="101.550595" lat="12.974165">
                <ele>53.300000</ele>
                <time>2019-03-16T06:33:32Z</time>
            </trkpt>
            <trkpt lon="101.550591" lat="12.974120">
                <ele>53.300000</ele>
                <time>2019-03-16T06:33:34Z</time>
            </trkpt>
            <trkpt lon="101.550572" lat="12.974081">
                <ele>53.200000</ele>
                <time>2019-03-16T06:33:36Z</time>
            </trkpt>
            <trkpt lon="101.550550" lat="12.974030">
                <ele>53.200000</ele>
                <time>2019-03-16T06:33:38Z</time>
            </trkpt>
            <trkpt lon="101.550539" lat="12.973995">
                <ele>53.100000</ele>
                <time>2019-03-16T06:33:39Z</time>
            </trkpt>
            <trkpt lon="101.550527" lat="12.973971">
                <ele>53.100000</ele>
                <time>2019-03-16T06:33:40Z</time>
            </trkpt>
            <trkpt lon="101.550514" lat="12.973935">
                <ele>53.100000</ele>
                <time>2019-03-16T06:33:41Z</time>
            </trkpt>
            <trkpt lon="101.550504" lat="12.973910">
                <ele>53.000000</ele>
                <time>2019-03-16T06:33:42Z</time>
            </trkpt>
            <trkpt lon="101.550487" lat="12.973879">
                <ele>53.000000</ele>
                <time>2019-03-16T06:33:43Z</time>
            </trkpt>
            <trkpt lon="101.550472" lat="12.973844">
                <ele>52.900000</ele>
                <time>2019-03-16T06:33:44Z</time>
            </trkpt>
            <trkpt lon="101.550459" lat="12.973813">
                <ele>52.800000</ele>
                <time>2019-03-16T06:33:45Z</time>
            </trkpt>
            <trkpt lon="101.550446" lat="12.973778">
                <ele>52.700000</ele>
                <time>2019-03-16T06:33:46Z</time>
            </trkpt>
            <trkpt lon="101.550433" lat="12.973741">
                <ele>52.600000</ele>
                <time>2019-03-16T06:33:47Z</time>
            </trkpt>
            <trkpt lon="101.550418" lat="12.973695">
                <ele>52.500000</ele>
                <time>2019-03-16T06:33:48Z</time>
            </trkpt>
            <trkpt lon="101.550403" lat="12.973663">
                <ele>52.400000</ele>
                <time>2019-03-16T06:33:49Z</time>
            </trkpt>
            <trkpt lon="101.550390" lat="12.973624">
                <ele>52.300000</ele>
                <time>2019-03-16T06:33:50Z</time>
            </trkpt>
            <trkpt lon="101.550379" lat="12.973588">
                <ele>52.100000</ele>
                <time>2019-03-16T06:33:51Z</time>
            </trkpt>
            <trkpt lon="101.550365" lat="12.973549">
                <ele>52.000000</ele>
                <time>2019-03-16T06:33:52Z</time>
            </trkpt>
            <trkpt lon="101.550350" lat="12.973520">
                <ele>51.900000</ele>
                <time>2019-03-16T06:33:53Z</time>
            </trkpt>
            <trkpt lon="101.550341" lat="12.973493">
                <ele>51.800000</ele>
                <time>2019-03-16T06:33:55Z</time>
            </trkpt>
            <trkpt lon="101.550338" lat="12.973457">
                <ele>51.700000</ele>
                <time>2019-03-16T06:33:57Z</time>
            </trkpt>
            <trkpt lon="101.550324" lat="12.973429">
                <ele>51.600000</ele>
                <time>2019-03-16T06:34:05Z</time>
            </trkpt>
            <trkpt lon="101.550309" lat="12.973383">
                <ele>51.400000</ele>
                <time>2019-03-16T06:34:07Z</time>
            </trkpt>
            <trkpt lon="101.550298" lat="12.973350">
                <ele>51.300000</ele>
                <time>2019-03-16T06:34:08Z</time>
            </trkpt>
            <trkpt lon="101.550283" lat="12.973320">
                <ele>51.200000</ele>
                <time>2019-03-16T06:34:09Z</time>
            </trkpt>
            <trkpt lon="101.550266" lat="12.973287">
                <ele>51.100000</ele>
                <time>2019-03-16T06:34:10Z</time>
            </trkpt>
            <trkpt lon="101.550245" lat="12.973241">
                <ele>51.000000</ele>
                <time>2019-03-16T06:34:11Z</time>
            </trkpt>
            <trkpt lon="101.550229" lat="12.973204">
                <ele>50.900000</ele>
                <time>2019-03-16T06:34:12Z</time>
            </trkpt>
            <trkpt lon="101.550210" lat="12.973156">
                <ele>50.800000</ele>
                <time>2019-03-16T06:34:13Z</time>
            </trkpt>
            <trkpt lon="101.550191" lat="12.973115">
                <ele>50.700000</ele>
                <time>2019-03-16T06:34:14Z</time>
            </trkpt>
            <trkpt lon="101.550171" lat="12.973068">
                <ele>50.600000</ele>
                <time>2019-03-16T06:34:15Z</time>
            </trkpt>
            <trkpt lon="101.550151" lat="12.973017">
                <ele>50.400000</ele>
                <time>2019-03-16T06:34:16Z</time>
            </trkpt>
            <trkpt lon="101.550130" lat="12.972963">
                <ele>50.300000</ele>
                <time>2019-03-16T06:34:17Z</time>
            </trkpt>
            <trkpt lon="101.550113" lat="12.972914">
                <ele>50.200000</ele>
                <time>2019-03-16T06:34:18Z</time>
            </trkpt>
            <trkpt lon="101.550097" lat="12.972867">
                <ele>50.100000</ele>
                <time>2019-03-16T06:34:19Z</time>
            </trkpt>
            <trkpt lon="101.550074" lat="12.972815">
                <ele>50.000000</ele>
                <time>2019-03-16T06:34:20Z</time>
            </trkpt>
            <trkpt lon="101.550055" lat="12.972764">
                <ele>49.900000</ele>
                <time>2019-03-16T06:34:21Z</time>
            </trkpt>
            <trkpt lon="101.550038" lat="12.972720">
                <ele>49.800000</ele>
                <time>2019-03-16T06:34:22Z</time>
            </trkpt>
            <trkpt lon="101.550022" lat="12.972681">
                <ele>49.700000</ele>
                <time>2019-03-16T06:34:23Z</time>
            </trkpt>
            <trkpt lon="101.550004" lat="12.972642">
                <ele>49.700000</ele>
                <time>2019-03-16T06:34:24Z</time>
            </trkpt>
            <trkpt lon="101.549991" lat="12.972603">
                <ele>49.600000</ele>
                <time>2019-03-16T06:34:25Z</time>
            </trkpt>
            <trkpt lon="101.549977" lat="12.972561">
                <ele>49.500000</ele>
                <time>2019-03-16T06:34:26Z</time>
            </trkpt>
            <trkpt lon="101.549968" lat="12.972517">
                <ele>49.400000</ele>
                <time>2019-03-16T06:34:27Z</time>
            </trkpt>
            <trkpt lon="101.549951" lat="12.972479">
                <ele>49.300000</ele>
                <time>2019-03-16T06:34:28Z</time>
            </trkpt>
            <trkpt lon="101.549934" lat="12.972439">
                <ele>49.200000</ele>
                <time>2019-03-16T06:34:29Z</time>
            </trkpt>
            <trkpt lon="101.549920" lat="12.972403">
                <ele>49.100000</ele>
                <time>2019-03-16T06:34:30Z</time>
            </trkpt>
            <trkpt lon="101.549907" lat="12.972369">
                <ele>49.000000</ele>
                <time>2019-03-16T06:34:31Z</time>
            </trkpt>
            <trkpt lon="101.549895" lat="12.972339">
                <ele>49.000000</ele>
                <time>2019-03-16T06:34:32Z</time>
            </trkpt>
            <trkpt lon="101.549887" lat="12.972312">
                <ele>48.900000</ele>
                <time>2019-03-16T06:34:33Z</time>
            </trkpt>
            <trkpt lon="101.549873" lat="12.972271">
                <ele>48.800000</ele>
                <time>2019-03-16T06:34:35Z</time>
            </trkpt>
            <trkpt lon="101.549851" lat="12.972222">
                <ele>48.600000</ele>
                <time>2019-03-16T06:34:37Z</time>
            </trkpt>
            <trkpt lon="101.549835" lat="12.972200">
                <ele>48.600000</ele>
                <time>2019-03-16T06:34:38Z</time>
            </trkpt>
            <trkpt lon="101.549815" lat="12.972163">
                <ele>48.400000</ele>
                <time>2019-03-16T06:34:40Z</time>
            </trkpt>
            <trkpt lon="101.549798" lat="12.972128">
                <ele>48.300000</ele>
                <time>2019-03-16T06:34:43Z</time>
            </trkpt>
            <trkpt lon="101.549795" lat="12.972083">
                <ele>48.200000</ele>
                <time>2019-03-16T06:34:45Z</time>
            </trkpt>
            <trkpt lon="101.549788" lat="12.972056">
                <ele>48.100000</ele>
                <time>2019-03-16T06:34:46Z</time>
            </trkpt>
            <trkpt lon="101.549774" lat="12.972000">
                <ele>47.900000</ele>
                <time>2019-03-16T06:34:48Z</time>
            </trkpt>
            <trkpt lon="101.549765" lat="12.971973">
                <ele>47.800000</ele>
                <time>2019-03-16T06:34:49Z</time>
            </trkpt>
            <trkpt lon="101.549756" lat="12.971943">
                <ele>47.700000</ele>
                <time>2019-03-16T06:34:50Z</time>
            </trkpt>
            <trkpt lon="101.549746" lat="12.971916">
                <ele>47.500000</ele>
                <time>2019-03-16T06:34:51Z</time>
            </trkpt>
            <trkpt lon="101.549733" lat="12.971888">
                <ele>47.400000</ele>
                <time>2019-03-16T06:34:52Z</time>
            </trkpt>
            <trkpt lon="101.549720" lat="12.971860">
                <ele>47.300000</ele>
                <time>2019-03-16T06:34:53Z</time>
            </trkpt>
            <trkpt lon="101.549709" lat="12.971830">
                <ele>47.200000</ele>
                <time>2019-03-16T06:34:54Z</time>
            </trkpt>
            <trkpt lon="101.549696" lat="12.971798">
                <ele>47.000000</ele>
                <time>2019-03-16T06:34:55Z</time>
            </trkpt>
            <trkpt lon="101.549684" lat="12.971767">
                <ele>46.900000</ele>
                <time>2019-03-16T06:34:56Z</time>
            </trkpt>
            <trkpt lon="101.549662" lat="12.971730">
                <ele>46.700000</ele>
                <time>2019-03-16T06:34:58Z</time>
            </trkpt>
            <trkpt lon="101.549636" lat="12.971697">
                <ele>46.600000</ele>
                <time>2019-03-16T06:35:01Z</time>
            </trkpt>
            <trkpt lon="101.549615" lat="12.971675">
                <ele>46.400000</ele>
                <time>2019-03-16T06:35:03Z</time>
            </trkpt>
            <trkpt lon="101.549587" lat="12.971644">
                <ele>46.300000</ele>
                <time>2019-03-16T06:35:05Z</time>
            </trkpt>
            <trkpt lon="101.549556" lat="12.971620">
                <ele>46.100000</ele>
                <time>2019-03-16T06:35:07Z</time>
            </trkpt>
            <trkpt lon="101.549528" lat="12.971601">
                <ele>46.000000</ele>
                <time>2019-03-16T06:35:09Z</time>
            </trkpt>
            <trkpt lon="101.549500" lat="12.971583">
                <ele>45.900000</ele>
                <time>2019-03-16T06:35:11Z</time>
            </trkpt>
            <trkpt lon="101.549462" lat="12.971565">
                <ele>45.700000</ele>
                <time>2019-03-16T06:35:13Z</time>
            </trkpt>
            <trkpt lon="101.549430" lat="12.971554">
                <ele>45.600000</ele>
                <time>2019-03-16T06:35:16Z</time>
            </trkpt>
            <trkpt lon="101.549407" lat="12.971535">
                <ele>45.400000</ele>
                <time>2019-03-16T06:35:19Z</time>
            </trkpt>
            <trkpt lon="101.549380" lat="12.971496">
                <ele>45.300000</ele>
                <time>2019-03-16T06:35:45Z</time>
            </trkpt>
            <trkpt lon="101.549368" lat="12.971448">
                <ele>45.100000</ele>
                <time>2019-03-16T06:35:47Z</time>
            </trkpt>
            <trkpt lon="101.549353" lat="12.971418">
                <ele>44.900000</ele>
                <time>2019-03-16T06:35:48Z</time>
            </trkpt>
            <trkpt lon="101.549342" lat="12.971389">
                <ele>44.800000</ele>
                <time>2019-03-16T06:35:49Z</time>
            </trkpt>
            <trkpt lon="101.549331" lat="12.971356">
                <ele>44.700000</ele>
                <time>2019-03-16T06:35:50Z</time>
            </trkpt>
            <trkpt lon="101.549315" lat="12.971318">
                <ele>44.500000</ele>
                <time>2019-03-16T06:35:51Z</time>
            </trkpt>
            <trkpt lon="101.549298" lat="12.971275">
                <ele>44.300000</ele>
                <time>2019-03-16T06:35:52Z</time>
            </trkpt>
            <trkpt lon="101.549282" lat="12.971236">
                <ele>44.100000</ele>
                <time>2019-03-16T06:35:53Z</time>
            </trkpt>
            <trkpt lon="101.549277" lat="12.971195">
                <ele>43.900000</ele>
                <time>2019-03-16T06:35:54Z</time>
            </trkpt>
            <trkpt lon="101.549265" lat="12.971162">
                <ele>43.800000</ele>
                <time>2019-03-16T06:35:55Z</time>
            </trkpt>
            <trkpt lon="101.549249" lat="12.971124">
                <ele>43.600000</ele>
                <time>2019-03-16T06:35:56Z</time>
            </trkpt>
            <trkpt lon="101.549234" lat="12.971077">
                <ele>43.300000</ele>
                <time>2019-03-16T06:35:57Z</time>
            </trkpt>
            <trkpt lon="101.549217" lat="12.971023">
                <ele>43.100000</ele>
                <time>2019-03-16T06:35:58Z</time>
            </trkpt>
            <trkpt lon="101.549200" lat="12.970970">
                <ele>42.800000</ele>
                <time>2019-03-16T06:35:59Z</time>
            </trkpt>
            <trkpt lon="101.549188" lat="12.970926">
                <ele>42.600000</ele>
                <time>2019-03-16T06:36:00Z</time>
            </trkpt>
            <trkpt lon="101.549174" lat="12.970872">
                <ele>42.300000</ele>
                <time>2019-03-16T06:36:01Z</time>
            </trkpt>
            <trkpt lon="101.549161" lat="12.970828">
                <ele>42.000000</ele>
                <time>2019-03-16T06:36:02Z</time>
            </trkpt>
            <trkpt lon="101.549147" lat="12.970775">
                <ele>41.700000</ele>
                <time>2019-03-16T06:36:03Z</time>
            </trkpt>
            <trkpt lon="101.549135" lat="12.970723">
                <ele>41.400000</ele>
                <time>2019-03-16T06:36:04Z</time>
            </trkpt>
            <trkpt lon="101.549125" lat="12.970667">
                <ele>41.100000</ele>
                <time>2019-03-16T06:36:05Z</time>
            </trkpt>
            <trkpt lon="101.549118" lat="12.970613">
                <ele>40.700000</ele>
                <time>2019-03-16T06:36:06Z</time>
            </trkpt>
            <trkpt lon="101.549112" lat="12.970558">
                <ele>40.400000</ele>
                <time>2019-03-16T06:36:07Z</time>
            </trkpt>
            <trkpt lon="101.549107" lat="12.970504">
                <ele>40.100000</ele>
                <time>2019-03-16T06:36:08Z</time>
            </trkpt>
            <trkpt lon="101.549095" lat="12.970436">
                <ele>39.600000</ele>
                <time>2019-03-16T06:36:09Z</time>
            </trkpt>
            <trkpt lon="101.549092" lat="12.970371">
                <ele>39.400000</ele>
                <time>2019-03-16T06:36:10Z</time>
            </trkpt>
            <trkpt lon="101.549085" lat="12.970302">
                <ele>39.300000</ele>
                <time>2019-03-16T06:36:11Z</time>
            </trkpt>
            <trkpt lon="101.549080" lat="12.970230">
                <ele>39.100000</ele>
                <time>2019-03-16T06:36:12Z</time>
            </trkpt>
            <trkpt lon="101.549073" lat="12.970154">
                <ele>38.900000</ele>
                <time>2019-03-16T06:36:13Z</time>
            </trkpt>
            <trkpt lon="101.549065" lat="12.970090">
                <ele>38.800000</ele>
                <time>2019-03-16T06:36:14Z</time>
            </trkpt>
            <trkpt lon="101.549057" lat="12.970028">
                <ele>38.600000</ele>
                <time>2019-03-16T06:36:15Z</time>
            </trkpt>
            <trkpt lon="101.549052" lat="12.969966">
                <ele>38.500000</ele>
                <time>2019-03-16T06:36:16Z</time>
            </trkpt>
            <trkpt lon="101.549044" lat="12.969899">
                <ele>38.300000</ele>
                <time>2019-03-16T06:36:17Z</time>
            </trkpt>
            <trkpt lon="101.549039" lat="12.969834">
                <ele>38.200000</ele>
                <time>2019-03-16T06:36:18Z</time>
            </trkpt>
            <trkpt lon="101.549036" lat="12.969763">
                <ele>38.100000</ele>
                <time>2019-03-16T06:36:19Z</time>
            </trkpt>
            <trkpt lon="101.549031" lat="12.969691">
                <ele>38.000000</ele>
                <time>2019-03-16T06:36:20Z</time>
            </trkpt>
            <trkpt lon="101.549025" lat="12.969624">
                <ele>37.900000</ele>
                <time>2019-03-16T06:36:21Z</time>
            </trkpt>
            <trkpt lon="101.549019" lat="12.969554">
                <ele>37.700000</ele>
                <time>2019-03-16T06:36:22Z</time>
            </trkpt>
            <trkpt lon="101.549012" lat="12.969483">
                <ele>37.600000</ele>
                <time>2019-03-16T06:36:23Z</time>
            </trkpt>
            <trkpt lon="101.549004" lat="12.969416">
                <ele>37.600000</ele>
                <time>2019-03-16T06:36:24Z</time>
            </trkpt>
            <trkpt lon="101.548994" lat="12.969347">
                <ele>37.500000</ele>
                <time>2019-03-16T06:36:25Z</time>
            </trkpt>
            <trkpt lon="101.548987" lat="12.969278">
                <ele>37.400000</ele>
                <time>2019-03-16T06:36:26Z</time>
            </trkpt>
            <trkpt lon="101.548977" lat="12.969210">
                <ele>37.400000</ele>
                <time>2019-03-16T06:36:27Z</time>
            </trkpt>
            <trkpt lon="101.548969" lat="12.969141">
                <ele>37.300000</ele>
                <time>2019-03-16T06:36:28Z</time>
            </trkpt>
            <trkpt lon="101.548961" lat="12.969074">
                <ele>37.300000</ele>
                <time>2019-03-16T06:36:29Z</time>
            </trkpt>
            <trkpt lon="101.548953" lat="12.969008">
                <ele>37.200000</ele>
                <time>2019-03-16T06:36:30Z</time>
            </trkpt>
            <trkpt lon="101.548943" lat="12.968942">
                <ele>37.200000</ele>
                <time>2019-03-16T06:36:31Z</time>
            </trkpt>
            <trkpt lon="101.548938" lat="12.968877">
                <ele>37.200000</ele>
                <time>2019-03-16T06:36:32Z</time>
            </trkpt>
            <trkpt lon="101.548932" lat="12.968812">
                <ele>37.200000</ele>
                <time>2019-03-16T06:36:33Z</time>
            </trkpt>
            <trkpt lon="101.548931" lat="12.968752">
                <ele>37.300000</ele>
                <time>2019-03-16T06:36:34Z</time>
            </trkpt>
            <trkpt lon="101.548928" lat="12.968691">
                <ele>37.300000</ele>
                <time>2019-03-16T06:36:35Z</time>
            </trkpt>
            <trkpt lon="101.548924" lat="12.968629">
                <ele>37.300000</ele>
                <time>2019-03-16T06:36:36Z</time>
            </trkpt>
            <trkpt lon="101.548921" lat="12.968569">
                <ele>37.400000</ele>
                <time>2019-03-16T06:36:37Z</time>
            </trkpt>
            <trkpt lon="101.548924" lat="12.968508">
                <ele>37.400000</ele>
                <time>2019-03-16T06:36:38Z</time>
            </trkpt>
            <trkpt lon="101.548925" lat="12.968444">
                <ele>37.500000</ele>
                <time>2019-03-16T06:36:39Z</time>
            </trkpt>
            <trkpt lon="101.548927" lat="12.968383">
                <ele>37.500000</ele>
                <time>2019-03-16T06:36:40Z</time>
            </trkpt>
            <trkpt lon="101.548929" lat="12.968321">
                <ele>37.600000</ele>
                <time>2019-03-16T06:36:41Z</time>
            </trkpt>
            <trkpt lon="101.548932" lat="12.968257">
                <ele>37.600000</ele>
                <time>2019-03-16T06:36:42Z</time>
            </trkpt>
            <trkpt lon="101.548937" lat="12.968196">
                <ele>37.700000</ele>
                <time>2019-03-16T06:36:43Z</time>
            </trkpt>
            <trkpt lon="101.548944" lat="12.968138">
                <ele>37.700000</ele>
                <time>2019-03-16T06:36:44Z</time>
            </trkpt>
            <trkpt lon="101.548951" lat="12.968080">
                <ele>37.700000</ele>
                <time>2019-03-16T06:36:45Z</time>
            </trkpt>
            <trkpt lon="101.548958" lat="12.968020">
                <ele>37.700000</ele>
                <time>2019-03-16T06:36:46Z</time>
            </trkpt>
            <trkpt lon="101.548965" lat="12.967959">
                <ele>37.700000</ele>
                <time>2019-03-16T06:36:47Z</time>
            </trkpt>
            <trkpt lon="101.548972" lat="12.967897">
                <ele>37.700000</ele>
                <time>2019-03-16T06:36:48Z</time>
            </trkpt>
            <trkpt lon="101.548980" lat="12.967841">
                <ele>37.700000</ele>
                <time>2019-03-16T06:36:49Z</time>
            </trkpt>
            <trkpt lon="101.548989" lat="12.967783">
                <ele>37.700000</ele>
                <time>2019-03-16T06:36:50Z</time>
            </trkpt>
            <trkpt lon="101.548997" lat="12.967724">
                <ele>37.700000</ele>
                <time>2019-03-16T06:36:51Z</time>
            </trkpt>
            <trkpt lon="101.549007" lat="12.967667">
                <ele>37.800000</ele>
                <time>2019-03-16T06:36:52Z</time>
            </trkpt>
            <trkpt lon="101.549016" lat="12.967611">
                <ele>37.800000</ele>
                <time>2019-03-16T06:36:53Z</time>
            </trkpt>
            <trkpt lon="101.549024" lat="12.967557">
                <ele>37.800000</ele>
                <time>2019-03-16T06:36:54Z</time>
            </trkpt>
            <trkpt lon="101.549032" lat="12.967506">
                <ele>37.800000</ele>
                <time>2019-03-16T06:36:55Z</time>
            </trkpt>
            <trkpt lon="101.549042" lat="12.967455">
                <ele>37.900000</ele>
                <time>2019-03-16T06:36:56Z</time>
            </trkpt>
            <trkpt lon="101.549050" lat="12.967406">
                <ele>37.900000</ele>
                <time>2019-03-16T06:36:57Z</time>
            </trkpt>
            <trkpt lon="101.549059" lat="12.967359">
                <ele>38.000000</ele>
                <time>2019-03-16T06:36:58Z</time>
            </trkpt>
            <trkpt lon="101.549069" lat="12.967313">
                <ele>38.100000</ele>
                <time>2019-03-16T06:36:59Z</time>
            </trkpt>
            <trkpt lon="101.549078" lat="12.967267">
                <ele>38.100000</ele>
                <time>2019-03-16T06:37:00Z</time>
            </trkpt>
            <trkpt lon="101.549089" lat="12.967215">
                <ele>38.200000</ele>
                <time>2019-03-16T06:37:01Z</time>
            </trkpt>
            <trkpt lon="101.549100" lat="12.967165">
                <ele>38.300000</ele>
                <time>2019-03-16T06:37:02Z</time>
            </trkpt>
            <trkpt lon="101.549110" lat="12.967118">
                <ele>38.500000</ele>
                <time>2019-03-16T06:37:03Z</time>
            </trkpt>
            <trkpt lon="101.549120" lat="12.967068">
                <ele>38.600000</ele>
                <time>2019-03-16T06:37:04Z</time>
            </trkpt>
            <trkpt lon="101.549130" lat="12.967019">
                <ele>38.700000</ele>
                <time>2019-03-16T06:37:05Z</time>
            </trkpt>
            <trkpt lon="101.549137" lat="12.966968">
                <ele>38.900000</ele>
                <time>2019-03-16T06:37:06Z</time>
            </trkpt>
            <trkpt lon="101.549145" lat="12.966921">
                <ele>39.000000</ele>
                <time>2019-03-16T06:37:07Z</time>
            </trkpt>
            <trkpt lon="101.549153" lat="12.966871">
                <ele>39.200000</ele>
                <time>2019-03-16T06:37:08Z</time>
            </trkpt>
            <trkpt lon="101.549161" lat="12.966823">
                <ele>39.300000</ele>
                <time>2019-03-16T06:37:09Z</time>
            </trkpt>
            <trkpt lon="101.549170" lat="12.966779">
                <ele>39.500000</ele>
                <time>2019-03-16T06:37:10Z</time>
            </trkpt>
            <trkpt lon="101.549179" lat="12.966733">
                <ele>39.700000</ele>
                <time>2019-03-16T06:37:11Z</time>
            </trkpt>
            <trkpt lon="101.549186" lat="12.966686">
                <ele>39.800000</ele>
                <time>2019-03-16T06:37:12Z</time>
            </trkpt>
            <trkpt lon="101.549192" lat="12.966643">
                <ele>40.000000</ele>
                <time>2019-03-16T06:37:13Z</time>
            </trkpt>
            <trkpt lon="101.549198" lat="12.966595">
                <ele>40.200000</ele>
                <time>2019-03-16T06:37:14Z</time>
            </trkpt>
            <trkpt lon="101.549204" lat="12.966546">
                <ele>40.400000</ele>
                <time>2019-03-16T06:37:15Z</time>
            </trkpt>
            <trkpt lon="101.549211" lat="12.966501">
                <ele>40.600000</ele>
                <time>2019-03-16T06:37:16Z</time>
            </trkpt>
            <trkpt lon="101.549220" lat="12.966453">
                <ele>40.800000</ele>
                <time>2019-03-16T06:37:17Z</time>
            </trkpt>
            <trkpt lon="101.549229" lat="12.966412">
                <ele>41.000000</ele>
                <time>2019-03-16T06:37:18Z</time>
            </trkpt>
            <trkpt lon="101.549237" lat="12.966368">
                <ele>41.200000</ele>
                <time>2019-03-16T06:37:19Z</time>
            </trkpt>
            <trkpt lon="101.549244" lat="12.966324">
                <ele>41.300000</ele>
                <time>2019-03-16T06:37:20Z</time>
            </trkpt>
            <trkpt lon="101.549253" lat="12.966282">
                <ele>41.600000</ele>
                <time>2019-03-16T06:37:21Z</time>
            </trkpt>
            <trkpt lon="101.549268" lat="12.966232">
                <ele>41.800000</ele>
                <time>2019-03-16T06:37:22Z</time>
            </trkpt>
            <trkpt lon="101.549280" lat="12.966190">
                <ele>42.000000</ele>
                <time>2019-03-16T06:37:23Z</time>
            </trkpt>
            <trkpt lon="101.549287" lat="12.966152">
                <ele>42.200000</ele>
                <time>2019-03-16T06:37:24Z</time>
            </trkpt>
            <trkpt lon="101.549295" lat="12.966108">
                <ele>42.200000</ele>
                <time>2019-03-16T06:37:25Z</time>
            </trkpt>
            <trkpt lon="101.549309" lat="12.966056">
                <ele>42.300000</ele>
                <time>2019-03-16T06:37:26Z</time>
            </trkpt>
            <trkpt lon="101.549320" lat="12.966007">
                <ele>42.400000</ele>
                <time>2019-03-16T06:37:27Z</time>
            </trkpt>
            <trkpt lon="101.549325" lat="12.965966">
                <ele>42.500000</ele>
                <time>2019-03-16T06:37:28Z</time>
            </trkpt>
            <trkpt lon="101.549342" lat="12.965921">
                <ele>42.500000</ele>
                <time>2019-03-16T06:37:29Z</time>
            </trkpt>
            <trkpt lon="101.549352" lat="12.965878">
                <ele>42.600000</ele>
                <time>2019-03-16T06:37:30Z</time>
            </trkpt>
            <trkpt lon="101.549364" lat="12.965836">
                <ele>42.600000</ele>
                <time>2019-03-16T06:37:31Z</time>
            </trkpt>
            <trkpt lon="101.549372" lat="12.965792">
                <ele>42.700000</ele>
                <time>2019-03-16T06:37:32Z</time>
            </trkpt>
            <trkpt lon="101.549376" lat="12.965756">
                <ele>42.700000</ele>
                <time>2019-03-16T06:37:33Z</time>
            </trkpt>
            <trkpt lon="101.549382" lat="12.965711">
                <ele>42.800000</ele>
                <time>2019-03-16T06:37:34Z</time>
            </trkpt>
            <trkpt lon="101.549387" lat="12.965667">
                <ele>42.900000</ele>
                <time>2019-03-16T06:37:35Z</time>
            </trkpt>
            <trkpt lon="101.549394" lat="12.965621">
                <ele>42.900000</ele>
                <time>2019-03-16T06:37:36Z</time>
            </trkpt>
            <trkpt lon="101.549400" lat="12.965571">
                <ele>43.000000</ele>
                <time>2019-03-16T06:37:37Z</time>
            </trkpt>
            <trkpt lon="101.549405" lat="12.965519">
                <ele>43.100000</ele>
                <time>2019-03-16T06:37:38Z</time>
            </trkpt>
            <trkpt lon="101.549411" lat="12.965468">
                <ele>43.100000</ele>
                <time>2019-03-16T06:37:39Z</time>
            </trkpt>
            <trkpt lon="101.549417" lat="12.965419">
                <ele>43.200000</ele>
                <time>2019-03-16T06:37:40Z</time>
            </trkpt>
            <trkpt lon="101.549422" lat="12.965365">
                <ele>43.200000</ele>
                <time>2019-03-16T06:37:41Z</time>
            </trkpt>
            <trkpt lon="101.549428" lat="12.965312">
                <ele>43.200000</ele>
                <time>2019-03-16T06:37:42Z</time>
            </trkpt>
            <trkpt lon="101.549434" lat="12.965260">
                <ele>43.200000</ele>
                <time>2019-03-16T06:37:43Z</time>
            </trkpt>
            <trkpt lon="101.549441" lat="12.965209">
                <ele>43.200000</ele>
                <time>2019-03-16T06:37:44Z</time>
            </trkpt>
            <trkpt lon="101.549445" lat="12.965147">
                <ele>43.100000</ele>
                <time>2019-03-16T06:37:45Z</time>
            </trkpt>
            <trkpt lon="101.549452" lat="12.965087">
                <ele>43.000000</ele>
                <time>2019-03-16T06:37:46Z</time>
            </trkpt>
            <trkpt lon="101.549458" lat="12.965026">
                <ele>42.900000</ele>
                <time>2019-03-16T06:37:47Z</time>
            </trkpt>
            <trkpt lon="101.549463" lat="12.964963">
                <ele>42.700000</ele>
                <time>2019-03-16T06:37:48Z</time>
            </trkpt>
            <trkpt lon="101.549468" lat="12.964898">
                <ele>42.500000</ele>
                <time>2019-03-16T06:37:49Z</time>
            </trkpt>
            <trkpt lon="101.549472" lat="12.964835">
                <ele>42.300000</ele>
                <time>2019-03-16T06:37:50Z</time>
            </trkpt>
            <trkpt lon="101.549476" lat="12.964774">
                <ele>42.100000</ele>
                <time>2019-03-16T06:37:51Z</time>
            </trkpt>
            <trkpt lon="101.549480" lat="12.964713">
                <ele>41.800000</ele>
                <time>2019-03-16T06:37:52Z</time>
            </trkpt>
            <trkpt lon="101.549487" lat="12.964648">
                <ele>41.600000</ele>
                <time>2019-03-16T06:37:53Z</time>
            </trkpt>
            <trkpt lon="101.549495" lat="12.964575">
                <ele>41.300000</ele>
                <time>2019-03-16T06:37:54Z</time>
            </trkpt>
            <trkpt lon="101.549502" lat="12.964500">
                <ele>41.000000</ele>
                <time>2019-03-16T06:37:55Z</time>
            </trkpt>
            <trkpt lon="101.549515" lat="12.964413">
                <ele>40.700000</ele>
                <time>2019-03-16T06:37:56Z</time>
            </trkpt>
            <trkpt lon="101.549526" lat="12.964327">
                <ele>40.400000</ele>
                <time>2019-03-16T06:37:57Z</time>
            </trkpt>
            <trkpt lon="101.549531" lat="12.964247">
                <ele>40.100000</ele>
                <time>2019-03-16T06:37:58Z</time>
            </trkpt>
            <trkpt lon="101.549530" lat="12.964166">
                <ele>39.900000</ele>
                <time>2019-03-16T06:37:59Z</time>
            </trkpt>
            <trkpt lon="101.549530" lat="12.964087">
                <ele>39.500000</ele>
                <time>2019-03-16T06:38:00Z</time>
            </trkpt>
            <trkpt lon="101.549530" lat="12.964009">
                <ele>39.200000</ele>
                <time>2019-03-16T06:38:01Z</time>
            </trkpt>
            <trkpt lon="101.549532" lat="12.963929">
                <ele>38.900000</ele>
                <time>2019-03-16T06:38:02Z</time>
            </trkpt>
            <trkpt lon="101.549537" lat="12.963849">
                <ele>38.600000</ele>
                <time>2019-03-16T06:38:03Z</time>
            </trkpt>
            <trkpt lon="101.549542" lat="12.963775">
                <ele>38.300000</ele>
                <time>2019-03-16T06:38:04Z</time>
            </trkpt>
            <trkpt lon="101.549555" lat="12.963702">
                <ele>38.000000</ele>
                <time>2019-03-16T06:38:05Z</time>
            </trkpt>
            <trkpt lon="101.549561" lat="12.963629">
                <ele>37.800000</ele>
                <time>2019-03-16T06:38:06Z</time>
            </trkpt>
            <trkpt lon="101.549566" lat="12.963556">
                <ele>37.500000</ele>
                <time>2019-03-16T06:38:07Z</time>
            </trkpt>
            <trkpt lon="101.549571" lat="12.963485">
                <ele>37.300000</ele>
                <time>2019-03-16T06:38:08Z</time>
            </trkpt>
            <trkpt lon="101.549578" lat="12.963415">
                <ele>37.000000</ele>
                <time>2019-03-16T06:38:09Z</time>
            </trkpt>
            <trkpt lon="101.549593" lat="12.963347">
                <ele>36.800000</ele>
                <time>2019-03-16T06:38:10Z</time>
            </trkpt>
            <trkpt lon="101.549601" lat="12.963280">
                <ele>36.600000</ele>
                <time>2019-03-16T06:38:11Z</time>
            </trkpt>
            <trkpt lon="101.549601" lat="12.963213">
                <ele>36.400000</ele>
                <time>2019-03-16T06:38:12Z</time>
            </trkpt>
            <trkpt lon="101.549607" lat="12.963147">
                <ele>36.300000</ele>
                <time>2019-03-16T06:38:13Z</time>
            </trkpt>
            <trkpt lon="101.549632" lat="12.963082">
                <ele>36.100000</ele>
                <time>2019-03-16T06:38:14Z</time>
            </trkpt>
            <trkpt lon="101.549640" lat="12.963019">
                <ele>35.900000</ele>
                <time>2019-03-16T06:38:15Z</time>
            </trkpt>
            <trkpt lon="101.549659" lat="12.962957">
                <ele>35.800000</ele>
                <time>2019-03-16T06:38:16Z</time>
            </trkpt>
            <trkpt lon="101.549672" lat="12.962898">
                <ele>35.700000</ele>
                <time>2019-03-16T06:38:17Z</time>
            </trkpt>
            <trkpt lon="101.549679" lat="12.962838">
                <ele>35.600000</ele>
                <time>2019-03-16T06:38:18Z</time>
            </trkpt>
            <trkpt lon="101.549694" lat="12.962778">
                <ele>35.500000</ele>
                <time>2019-03-16T06:38:19Z</time>
            </trkpt>
            <trkpt lon="101.549709" lat="12.962719">
                <ele>35.300000</ele>
                <time>2019-03-16T06:38:20Z</time>
            </trkpt>
            <trkpt lon="101.549713" lat="12.962667">
                <ele>35.300000</ele>
                <time>2019-03-16T06:38:21Z</time>
            </trkpt>
            <trkpt lon="101.549723" lat="12.962609">
                <ele>35.200000</ele>
                <time>2019-03-16T06:38:22Z</time>
            </trkpt>
            <trkpt lon="101.549733" lat="12.962554">
                <ele>35.100000</ele>
                <time>2019-03-16T06:38:23Z</time>
            </trkpt>
            <trkpt lon="101.549742" lat="12.962498">
                <ele>35.100000</ele>
                <time>2019-03-16T06:38:24Z</time>
            </trkpt>
            <trkpt lon="101.549750" lat="12.962442">
                <ele>35.000000</ele>
                <time>2019-03-16T06:38:25Z</time>
            </trkpt>
            <trkpt lon="101.549758" lat="12.962384">
                <ele>35.000000</ele>
                <time>2019-03-16T06:38:26Z</time>
            </trkpt>
            <trkpt lon="101.549764" lat="12.962326">
                <ele>35.000000</ele>
                <time>2019-03-16T06:38:27Z</time>
            </trkpt>
            <trkpt lon="101.549771" lat="12.962266">
                <ele>34.900000</ele>
                <time>2019-03-16T06:38:28Z</time>
            </trkpt>
            <trkpt lon="101.549774" lat="12.962208">
                <ele>34.900000</ele>
                <time>2019-03-16T06:38:29Z</time>
            </trkpt>
            <trkpt lon="101.549777" lat="12.962149">
                <ele>34.900000</ele>
                <time>2019-03-16T06:38:30Z</time>
            </trkpt>
            <trkpt lon="101.549779" lat="12.962088">
                <ele>35.000000</ele>
                <time>2019-03-16T06:38:31Z</time>
            </trkpt>
            <trkpt lon="101.549778" lat="12.962023">
                <ele>35.000000</ele>
                <time>2019-03-16T06:38:32Z</time>
            </trkpt>
            <trkpt lon="101.549774" lat="12.961961">
                <ele>35.100000</ele>
                <time>2019-03-16T06:38:33Z</time>
            </trkpt>
            <trkpt lon="101.549773" lat="12.961904">
                <ele>35.100000</ele>
                <time>2019-03-16T06:38:34Z</time>
            </trkpt>
            <trkpt lon="101.549770" lat="12.961855">
                <ele>35.200000</ele>
                <time>2019-03-16T06:38:35Z</time>
            </trkpt>
            <trkpt lon="101.549763" lat="12.961802">
                <ele>35.300000</ele>
                <time>2019-03-16T06:38:36Z</time>
            </trkpt>
            <trkpt lon="101.549751" lat="12.961747">
                <ele>35.300000</ele>
                <time>2019-03-16T06:38:37Z</time>
            </trkpt>
            <trkpt lon="101.549736" lat="12.961693">
                <ele>35.400000</ele>
                <time>2019-03-16T06:38:38Z</time>
            </trkpt>
            <trkpt lon="101.549720" lat="12.961639">
                <ele>35.400000</ele>
                <time>2019-03-16T06:38:39Z</time>
            </trkpt>
            <trkpt lon="101.549700" lat="12.961589">
                <ele>35.500000</ele>
                <time>2019-03-16T06:38:40Z</time>
            </trkpt>
            <trkpt lon="101.549674" lat="12.961538">
                <ele>35.500000</ele>
                <time>2019-03-16T06:38:41Z</time>
            </trkpt>
            <trkpt lon="101.549648" lat="12.961490">
                <ele>35.500000</ele>
                <time>2019-03-16T06:38:42Z</time>
            </trkpt>
            <trkpt lon="101.549618" lat="12.961443">
                <ele>35.500000</ele>
                <time>2019-03-16T06:38:43Z</time>
            </trkpt>
            <trkpt lon="101.549583" lat="12.961395">
                <ele>35.500000</ele>
                <time>2019-03-16T06:38:44Z</time>
            </trkpt>
            <trkpt lon="101.549548" lat="12.961348">
                <ele>35.500000</ele>
                <time>2019-03-16T06:38:45Z</time>
            </trkpt>
            <trkpt lon="101.549512" lat="12.961303">
                <ele>35.500000</ele>
                <time>2019-03-16T06:38:46Z</time>
            </trkpt>
            <trkpt lon="101.549479" lat="12.961262">
                <ele>35.500000</ele>
                <time>2019-03-16T06:38:47Z</time>
            </trkpt>
            <trkpt lon="101.549447" lat="12.961224">
                <ele>35.400000</ele>
                <time>2019-03-16T06:38:48Z</time>
            </trkpt>
            <trkpt lon="101.549417" lat="12.961185">
                <ele>35.400000</ele>
                <time>2019-03-16T06:38:49Z</time>
            </trkpt>
            <trkpt lon="101.549386" lat="12.961147">
                <ele>35.300000</ele>
                <time>2019-03-16T06:38:50Z</time>
            </trkpt>
            <trkpt lon="101.549354" lat="12.961108">
                <ele>35.300000</ele>
                <time>2019-03-16T06:38:51Z</time>
            </trkpt>
            <trkpt lon="101.549323" lat="12.961069">
                <ele>35.200000</ele>
                <time>2019-03-16T06:38:52Z</time>
            </trkpt>
            <trkpt lon="101.549292" lat="12.961029">
                <ele>35.100000</ele>
                <time>2019-03-16T06:38:53Z</time>
            </trkpt>
            <trkpt lon="101.549259" lat="12.960990">
                <ele>35.000000</ele>
                <time>2019-03-16T06:38:54Z</time>
            </trkpt>
            <trkpt lon="101.549226" lat="12.960951">
                <ele>35.000000</ele>
                <time>2019-03-16T06:38:55Z</time>
            </trkpt>
            <trkpt lon="101.549192" lat="12.960911">
                <ele>34.900000</ele>
                <time>2019-03-16T06:38:56Z</time>
            </trkpt>
            <trkpt lon="101.549160" lat="12.960871">
                <ele>34.800000</ele>
                <time>2019-03-16T06:38:57Z</time>
            </trkpt>
            <trkpt lon="101.549127" lat="12.960830">
                <ele>34.700000</ele>
                <time>2019-03-16T06:38:58Z</time>
            </trkpt>
            <trkpt lon="101.549092" lat="12.960790">
                <ele>34.600000</ele>
                <time>2019-03-16T06:38:59Z</time>
            </trkpt>
            <trkpt lon="101.549056" lat="12.960750">
                <ele>34.500000</ele>
                <time>2019-03-16T06:39:00Z</time>
            </trkpt>
            <trkpt lon="101.549019" lat="12.960711">
                <ele>34.400000</ele>
                <time>2019-03-16T06:39:01Z</time>
            </trkpt>
            <trkpt lon="101.548982" lat="12.960673">
                <ele>34.400000</ele>
                <time>2019-03-16T06:39:02Z</time>
            </trkpt>
            <trkpt lon="101.548945" lat="12.960634">
                <ele>34.300000</ele>
                <time>2019-03-16T06:39:03Z</time>
            </trkpt>
            <trkpt lon="101.548910" lat="12.960594">
                <ele>34.200000</ele>
                <time>2019-03-16T06:39:04Z</time>
            </trkpt>
            <trkpt lon="101.548875" lat="12.960553">
                <ele>34.100000</ele>
                <time>2019-03-16T06:39:05Z</time>
            </trkpt>
            <trkpt lon="101.548840" lat="12.960511">
                <ele>34.000000</ele>
                <time>2019-03-16T06:39:06Z</time>
            </trkpt>
            <trkpt lon="101.548805" lat="12.960466">
                <ele>33.900000</ele>
                <time>2019-03-16T06:39:07Z</time>
            </trkpt>
            <trkpt lon="101.548770" lat="12.960422">
                <ele>33.800000</ele>
                <time>2019-03-16T06:39:08Z</time>
            </trkpt>
            <trkpt lon="101.548736" lat="12.960377">
                <ele>33.700000</ele>
                <time>2019-03-16T06:39:09Z</time>
            </trkpt>
            <trkpt lon="101.548699" lat="12.960331">
                <ele>33.600000</ele>
                <time>2019-03-16T06:39:10Z</time>
            </trkpt>
            <trkpt lon="101.548663" lat="12.960284">
                <ele>33.500000</ele>
                <time>2019-03-16T06:39:11Z</time>
            </trkpt>
            <trkpt lon="101.548627" lat="12.960236">
                <ele>33.400000</ele>
                <time>2019-03-16T06:39:12Z</time>
            </trkpt>
            <trkpt lon="101.548590" lat="12.960188">
                <ele>33.200000</ele>
                <time>2019-03-16T06:39:13Z</time>
            </trkpt>
            <trkpt lon="101.548552" lat="12.960140">
                <ele>33.100000</ele>
                <time>2019-03-16T06:39:14Z</time>
            </trkpt>
            <trkpt lon="101.548515" lat="12.960092">
                <ele>33.000000</ele>
                <time>2019-03-16T06:39:15Z</time>
            </trkpt>
            <trkpt lon="101.548478" lat="12.960045">
                <ele>32.800000</ele>
                <time>2019-03-16T06:39:16Z</time>
            </trkpt>
            <trkpt lon="101.548440" lat="12.959997">
                <ele>32.700000</ele>
                <time>2019-03-16T06:39:17Z</time>
            </trkpt>
            <trkpt lon="101.548403" lat="12.959950">
                <ele>32.600000</ele>
                <time>2019-03-16T06:39:18Z</time>
            </trkpt>
            <trkpt lon="101.548365" lat="12.959902">
                <ele>32.500000</ele>
                <time>2019-03-16T06:39:19Z</time>
            </trkpt>
            <trkpt lon="101.548328" lat="12.959856">
                <ele>32.400000</ele>
                <time>2019-03-16T06:39:20Z</time>
            </trkpt>
            <trkpt lon="101.548290" lat="12.959808">
                <ele>32.300000</ele>
                <time>2019-03-16T06:39:21Z</time>
            </trkpt>
            <trkpt lon="101.548252" lat="12.959760">
                <ele>32.200000</ele>
                <time>2019-03-16T06:39:22Z</time>
            </trkpt>
            <trkpt lon="101.548215" lat="12.959714">
                <ele>32.100000</ele>
                <time>2019-03-16T06:39:23Z</time>
            </trkpt>
            <trkpt lon="101.548177" lat="12.959667">
                <ele>32.000000</ele>
                <time>2019-03-16T06:39:24Z</time>
            </trkpt>
            <trkpt lon="101.548141" lat="12.959622">
                <ele>32.000000</ele>
                <time>2019-03-16T06:39:25Z</time>
            </trkpt>
            <trkpt lon="101.548104" lat="12.959575">
                <ele>31.900000</ele>
                <time>2019-03-16T06:39:26Z</time>
            </trkpt>
            <trkpt lon="101.548069" lat="12.959528">
                <ele>31.900000</ele>
                <time>2019-03-16T06:39:27Z</time>
            </trkpt>
            <trkpt lon="101.548031" lat="12.959481">
                <ele>31.800000</ele>
                <time>2019-03-16T06:39:28Z</time>
            </trkpt>
            <trkpt lon="101.547995" lat="12.959434">
                <ele>31.800000</ele>
                <time>2019-03-16T06:39:29Z</time>
            </trkpt>
            <trkpt lon="101.547959" lat="12.959387">
                <ele>31.700000</ele>
                <time>2019-03-16T06:39:30Z</time>
            </trkpt>
            <trkpt lon="101.547922" lat="12.959339">
                <ele>31.700000</ele>
                <time>2019-03-16T06:39:31Z</time>
            </trkpt>
            <trkpt lon="101.547886" lat="12.959294">
                <ele>31.700000</ele>
                <time>2019-03-16T06:39:32Z</time>
            </trkpt>
            <trkpt lon="101.547852" lat="12.959251">
                <ele>31.600000</ele>
                <time>2019-03-16T06:39:33Z</time>
            </trkpt>
            <trkpt lon="101.547817" lat="12.959208">
                <ele>31.600000</ele>
                <time>2019-03-16T06:39:34Z</time>
            </trkpt>
            <trkpt lon="101.547784" lat="12.959166">
                <ele>31.600000</ele>
                <time>2019-03-16T06:39:35Z</time>
            </trkpt>
            <trkpt lon="101.547750" lat="12.959124">
                <ele>31.500000</ele>
                <time>2019-03-16T06:39:36Z</time>
            </trkpt>
            <trkpt lon="101.547718" lat="12.959083">
                <ele>31.500000</ele>
                <time>2019-03-16T06:39:37Z</time>
            </trkpt>
            <trkpt lon="101.547685" lat="12.959042">
                <ele>31.500000</ele>
                <time>2019-03-16T06:39:38Z</time>
            </trkpt>
            <trkpt lon="101.547652" lat="12.959002">
                <ele>31.500000</ele>
                <time>2019-03-16T06:39:39Z</time>
            </trkpt>
            <trkpt lon="101.547618" lat="12.958961">
                <ele>31.400000</ele>
                <time>2019-03-16T06:39:40Z</time>
            </trkpt>
            <trkpt lon="101.547586" lat="12.958922">
                <ele>31.400000</ele>
                <time>2019-03-16T06:39:41Z</time>
            </trkpt>
            <trkpt lon="101.547552" lat="12.958882">
                <ele>31.300000</ele>
                <time>2019-03-16T06:39:42Z</time>
            </trkpt>
            <trkpt lon="101.547518" lat="12.958841">
                <ele>31.300000</ele>
                <time>2019-03-16T06:39:43Z</time>
            </trkpt>
            <trkpt lon="101.547481" lat="12.958802">
                <ele>31.300000</ele>
                <time>2019-03-16T06:39:44Z</time>
            </trkpt>
            <trkpt lon="101.547446" lat="12.958764">
                <ele>31.200000</ele>
                <time>2019-03-16T06:39:45Z</time>
            </trkpt>
            <trkpt lon="101.547413" lat="12.958724">
                <ele>31.100000</ele>
                <time>2019-03-16T06:39:46Z</time>
            </trkpt>
            <trkpt lon="101.547378" lat="12.958685">
                <ele>31.100000</ele>
                <time>2019-03-16T06:39:47Z</time>
            </trkpt>
            <trkpt lon="101.547343" lat="12.958648">
                <ele>31.000000</ele>
                <time>2019-03-16T06:39:48Z</time>
            </trkpt>
            <trkpt lon="101.547306" lat="12.958611">
                <ele>31.000000</ele>
                <time>2019-03-16T06:39:49Z</time>
            </trkpt>
            <trkpt lon="101.547280" lat="12.958574">
                <ele>30.900000</ele>
                <time>2019-03-16T06:39:50Z</time>
            </trkpt>
            <trkpt lon="101.547254" lat="12.958544">
                <ele>30.800000</ele>
                <time>2019-03-16T06:39:51Z</time>
            </trkpt>
            <trkpt lon="101.547224" lat="12.958513">
                <ele>30.800000</ele>
                <time>2019-03-16T06:39:52Z</time>
            </trkpt>
            <trkpt lon="101.547192" lat="12.958480">
                <ele>30.700000</ele>
                <time>2019-03-16T06:39:53Z</time>
            </trkpt>
            <trkpt lon="101.547154" lat="12.958447">
                <ele>30.600000</ele>
                <time>2019-03-16T06:39:54Z</time>
            </trkpt>
            <trkpt lon="101.547119" lat="12.958415">
                <ele>30.600000</ele>
                <time>2019-03-16T06:39:55Z</time>
            </trkpt>
            <trkpt lon="101.547083" lat="12.958386">
                <ele>30.500000</ele>
                <time>2019-03-16T06:39:56Z</time>
            </trkpt>
            <trkpt lon="101.547050" lat="12.958358">
                <ele>30.400000</ele>
                <time>2019-03-16T06:39:57Z</time>
            </trkpt>
            <trkpt lon="101.547017" lat="12.958332">
                <ele>30.400000</ele>
                <time>2019-03-16T06:39:58Z</time>
            </trkpt>
            <trkpt lon="101.546987" lat="12.958305">
                <ele>30.300000</ele>
                <time>2019-03-16T06:39:59Z</time>
            </trkpt>
            <trkpt lon="101.546956" lat="12.958281">
                <ele>30.300000</ele>
                <time>2019-03-16T06:40:00Z</time>
            </trkpt>
            <trkpt lon="101.546924" lat="12.958256">
                <ele>30.200000</ele>
                <time>2019-03-16T06:40:01Z</time>
            </trkpt>
            <trkpt lon="101.546891" lat="12.958231">
                <ele>30.100000</ele>
                <time>2019-03-16T06:40:02Z</time>
            </trkpt>
            <trkpt lon="101.546857" lat="12.958206">
                <ele>30.100000</ele>
                <time>2019-03-16T06:40:03Z</time>
            </trkpt>
            <trkpt lon="101.546822" lat="12.958180">
                <ele>30.000000</ele>
                <time>2019-03-16T06:40:04Z</time>
            </trkpt>
            <trkpt lon="101.546793" lat="12.958161">
                <ele>30.000000</ele>
                <time>2019-03-16T06:40:05Z</time>
            </trkpt>
            <trkpt lon="101.546763" lat="12.958142">
                <ele>29.900000</ele>
                <time>2019-03-16T06:40:06Z</time>
            </trkpt>
            <trkpt lon="101.546739" lat="12.958124">
                <ele>29.900000</ele>
                <time>2019-03-16T06:40:07Z</time>
            </trkpt>
            <trkpt lon="101.546718" lat="12.958102">
                <ele>29.800000</ele>
                <time>2019-03-16T06:40:10Z</time>
            </trkpt>
            <trkpt lon="101.546695" lat="12.958081">
                <ele>29.800000</ele>
                <time>2019-03-16T06:40:12Z</time>
            </trkpt>
            <trkpt lon="101.546664" lat="12.958063">
                <ele>29.700000</ele>
                <time>2019-03-16T06:40:14Z</time>
            </trkpt>
            <trkpt lon="101.546627" lat="12.958050">
                <ele>29.700000</ele>
                <time>2019-03-16T06:40:17Z</time>
            </trkpt>
            <trkpt lon="101.546594" lat="12.958024">
                <ele>29.600000</ele>
                <time>2019-03-16T06:40:19Z</time>
            </trkpt>
            <trkpt lon="101.546560" lat="12.957996">
                <ele>29.600000</ele>
                <time>2019-03-16T06:40:21Z</time>
            </trkpt>
            <trkpt lon="101.546546" lat="12.957967">
                <ele>29.500000</ele>
                <time>2019-03-16T06:40:27Z</time>
            </trkpt>
            <trkpt lon="101.546554" lat="12.957931">
                <ele>29.500000</ele>
                <time>2019-03-16T06:40:29Z</time>
            </trkpt>
            <trkpt lon="101.546491" lat="12.957882">
                <ele>29.300000</ele>
                <time>2019-03-16T06:40:54Z</time>
            </trkpt>
            <trkpt lon="101.546447" lat="12.957850">
                <ele>29.300000</ele>
                <time>2019-03-16T06:40:56Z</time>
            </trkpt>
            <trkpt lon="101.546417" lat="12.957834">
                <ele>29.200000</ele>
                <time>2019-03-16T06:40:57Z</time>
            </trkpt>
            <trkpt lon="101.546387" lat="12.957816">
                <ele>29.200000</ele>
                <time>2019-03-16T06:40:58Z</time>
            </trkpt>
            <trkpt lon="101.546355" lat="12.957800">
                <ele>29.100000</ele>
                <time>2019-03-16T06:40:59Z</time>
            </trkpt>
            <trkpt lon="101.546322" lat="12.957784">
                <ele>29.100000</ele>
                <time>2019-03-16T06:41:00Z</time>
            </trkpt>
            <trkpt lon="101.546288" lat="12.957767">
                <ele>29.000000</ele>
                <time>2019-03-16T06:41:01Z</time>
            </trkpt>
            <trkpt lon="101.546255" lat="12.957747">
                <ele>28.900000</ele>
                <time>2019-03-16T06:41:02Z</time>
            </trkpt>
            <trkpt lon="101.546222" lat="12.957725">
                <ele>28.900000</ele>
                <time>2019-03-16T06:41:03Z</time>
            </trkpt>
            <trkpt lon="101.546188" lat="12.957699">
                <ele>28.800000</ele>
                <time>2019-03-16T06:41:04Z</time>
            </trkpt>
            <trkpt lon="101.546156" lat="12.957673">
                <ele>28.700000</ele>
                <time>2019-03-16T06:41:05Z</time>
            </trkpt>
            <trkpt lon="101.546120" lat="12.957647">
                <ele>28.600000</ele>
                <time>2019-03-16T06:41:06Z</time>
            </trkpt>
            <trkpt lon="101.546087" lat="12.957620">
                <ele>28.600000</ele>
                <time>2019-03-16T06:41:07Z</time>
            </trkpt>
            <trkpt lon="101.546053" lat="12.957593">
                <ele>28.500000</ele>
                <time>2019-03-16T06:41:08Z</time>
            </trkpt>
            <trkpt lon="101.546013" lat="12.957564">
                <ele>28.400000</ele>
                <time>2019-03-16T06:41:09Z</time>
            </trkpt>
            <trkpt lon="101.545978" lat="12.957538">
                <ele>28.400000</ele>
                <time>2019-03-16T06:41:10Z</time>
            </trkpt>
            <trkpt lon="101.545939" lat="12.957511">
                <ele>28.300000</ele>
                <time>2019-03-16T06:41:11Z</time>
            </trkpt>
            <trkpt lon="101.545907" lat="12.957487">
                <ele>28.200000</ele>
                <time>2019-03-16T06:41:12Z</time>
            </trkpt>
            <trkpt lon="101.545875" lat="12.957460">
                <ele>28.200000</ele>
                <time>2019-03-16T06:41:13Z</time>
            </trkpt>
            <trkpt lon="101.545842" lat="12.957433">
                <ele>28.100000</ele>
                <time>2019-03-16T06:41:14Z</time>
            </trkpt>
            <trkpt lon="101.545809" lat="12.957406">
                <ele>28.100000</ele>
                <time>2019-03-16T06:41:15Z</time>
            </trkpt>
            <trkpt lon="101.545776" lat="12.957380">
                <ele>28.100000</ele>
                <time>2019-03-16T06:41:16Z</time>
            </trkpt>
            <trkpt lon="101.545740" lat="12.957353">
                <ele>28.000000</ele>
                <time>2019-03-16T06:41:17Z</time>
            </trkpt>
            <trkpt lon="101.545703" lat="12.957325">
                <ele>28.000000</ele>
                <time>2019-03-16T06:41:18Z</time>
            </trkpt>
            <trkpt lon="101.545667" lat="12.957298">
                <ele>28.000000</ele>
                <time>2019-03-16T06:41:19Z</time>
            </trkpt>
            <trkpt lon="101.545631" lat="12.957270">
                <ele>27.900000</ele>
                <time>2019-03-16T06:41:20Z</time>
            </trkpt>
            <trkpt lon="101.545598" lat="12.957242">
                <ele>27.900000</ele>
                <time>2019-03-16T06:41:21Z</time>
            </trkpt>
            <trkpt lon="101.545563" lat="12.957214">
                <ele>27.900000</ele>
                <time>2019-03-16T06:41:22Z</time>
            </trkpt>
            <trkpt lon="101.545527" lat="12.957186">
                <ele>27.900000</ele>
                <time>2019-03-16T06:41:23Z</time>
            </trkpt>
            <trkpt lon="101.545491" lat="12.957161">
                <ele>27.800000</ele>
                <time>2019-03-16T06:41:24Z</time>
            </trkpt>
            <trkpt lon="101.545455" lat="12.957134">
                <ele>27.800000</ele>
                <time>2019-03-16T06:41:25Z</time>
            </trkpt>
            <trkpt lon="101.545417" lat="12.957106">
                <ele>27.800000</ele>
                <time>2019-03-16T06:41:26Z</time>
            </trkpt>
            <trkpt lon="101.545380" lat="12.957078">
                <ele>27.800000</ele>
                <time>2019-03-16T06:41:27Z</time>
            </trkpt>
            <trkpt lon="101.545341" lat="12.957050">
                <ele>27.800000</ele>
                <time>2019-03-16T06:41:28Z</time>
            </trkpt>
            <trkpt lon="101.545304" lat="12.957022">
                <ele>27.800000</ele>
                <time>2019-03-16T06:41:29Z</time>
            </trkpt>
            <trkpt lon="101.545268" lat="12.956993">
                <ele>27.800000</ele>
                <time>2019-03-16T06:41:30Z</time>
            </trkpt>
            <trkpt lon="101.545230" lat="12.956963">
                <ele>27.700000</ele>
                <time>2019-03-16T06:41:31Z</time>
            </trkpt>
            <trkpt lon="101.545194" lat="12.956934">
                <ele>27.700000</ele>
                <time>2019-03-16T06:41:32Z</time>
            </trkpt>
            <trkpt lon="101.545157" lat="12.956904">
                <ele>27.700000</ele>
                <time>2019-03-16T06:41:33Z</time>
            </trkpt>
            <trkpt lon="101.545120" lat="12.956875">
                <ele>27.700000</ele>
                <time>2019-03-16T06:41:34Z</time>
            </trkpt>
            <trkpt lon="101.545085" lat="12.956846">
                <ele>27.700000</ele>
                <time>2019-03-16T06:41:35Z</time>
            </trkpt>
            <trkpt lon="101.545048" lat="12.956819">
                <ele>27.700000</ele>
                <time>2019-03-16T06:41:36Z</time>
            </trkpt>
            <trkpt lon="101.545010" lat="12.956791">
                <ele>27.700000</ele>
                <time>2019-03-16T06:41:37Z</time>
            </trkpt>
            <trkpt lon="101.544974" lat="12.956765">
                <ele>27.700000</ele>
                <time>2019-03-16T06:41:38Z</time>
            </trkpt>
            <trkpt lon="101.544939" lat="12.956737">
                <ele>27.700000</ele>
                <time>2019-03-16T06:41:39Z</time>
            </trkpt>
            <trkpt lon="101.544901" lat="12.956708">
                <ele>27.700000</ele>
                <time>2019-03-16T06:41:40Z</time>
            </trkpt>
            <trkpt lon="101.544864" lat="12.956679">
                <ele>27.700000</ele>
                <time>2019-03-16T06:41:41Z</time>
            </trkpt>
            <trkpt lon="101.544827" lat="12.956651">
                <ele>27.700000</ele>
                <time>2019-03-16T06:41:42Z</time>
            </trkpt>
            <trkpt lon="101.544789" lat="12.956622">
                <ele>27.700000</ele>
                <time>2019-03-16T06:41:43Z</time>
            </trkpt>
            <trkpt lon="101.544751" lat="12.956594">
                <ele>27.600000</ele>
                <time>2019-03-16T06:41:44Z</time>
            </trkpt>
            <trkpt lon="101.544714" lat="12.956567">
                <ele>27.600000</ele>
                <time>2019-03-16T06:41:45Z</time>
            </trkpt>
            <trkpt lon="101.544676" lat="12.956538">
                <ele>27.600000</ele>
                <time>2019-03-16T06:41:46Z</time>
            </trkpt>
            <trkpt lon="101.544641" lat="12.956511">
                <ele>27.600000</ele>
                <time>2019-03-16T06:41:47Z</time>
            </trkpt>
            <trkpt lon="101.544605" lat="12.956484">
                <ele>27.500000</ele>
                <time>2019-03-16T06:41:48Z</time>
            </trkpt>
            <trkpt lon="101.544569" lat="12.956458">
                <ele>27.500000</ele>
                <time>2019-03-16T06:41:49Z</time>
            </trkpt>
            <trkpt lon="101.544536" lat="12.956431">
                <ele>27.500000</ele>
                <time>2019-03-16T06:41:50Z</time>
            </trkpt>
            <trkpt lon="101.544507" lat="12.956404">
                <ele>27.400000</ele>
                <time>2019-03-16T06:41:51Z</time>
            </trkpt>
            <trkpt lon="101.544480" lat="12.956373">
                <ele>27.400000</ele>
                <time>2019-03-16T06:41:52Z</time>
            </trkpt>
            <trkpt lon="101.544458" lat="12.956342">
                <ele>27.300000</ele>
                <time>2019-03-16T06:41:53Z</time>
            </trkpt>
            <trkpt lon="101.544434" lat="12.956310">
                <ele>27.100000</ele>
                <time>2019-03-16T06:41:54Z</time>
            </trkpt>
            <trkpt lon="101.544424" lat="12.956278">
                <ele>26.700000</ele>
                <time>2019-03-16T06:41:55Z</time>
            </trkpt>
            <trkpt lon="101.544427" lat="12.956243">
                <ele>26.200000</ele>
                <time>2019-03-16T06:41:56Z</time>
            </trkpt>
            <trkpt lon="101.544440" lat="12.956210">
                <ele>25.700000</ele>
                <time>2019-03-16T06:41:57Z</time>
            </trkpt>
            <trkpt lon="101.544475" lat="12.956165">
                <ele>25.100000</ele>
                <time>2019-03-16T06:41:58Z</time>
            </trkpt>
            <trkpt lon="101.544527" lat="12.956125">
                <ele>24.800000</ele>
                <time>2019-03-16T06:42:00Z</time>
            </trkpt>
            <trkpt lon="101.544559" lat="12.956106">
                <ele>25.000000</ele>
                <time>2019-03-16T06:42:01Z</time>
            </trkpt>
            <trkpt lon="101.544617" lat="12.956068">
                <ele>24.900000</ele>
                <time>2019-03-16T06:42:02Z</time>
            </trkpt>
            <trkpt lon="101.544648" lat="12.956047">
                <ele>24.500000</ele>
                <time>2019-03-16T06:42:03Z</time>
            </trkpt>
            <trkpt lon="101.544690" lat="12.956013">
                <ele>24.500000</ele>
                <time>2019-03-16T06:42:04Z</time>
            </trkpt>
            <trkpt lon="101.544730" lat="12.955979">
                <ele>24.300000</ele>
                <time>2019-03-16T06:42:05Z</time>
            </trkpt>
            <trkpt lon="101.544765" lat="12.955944">
                <ele>24.200000</ele>
                <time>2019-03-16T06:42:06Z</time>
            </trkpt>
            <trkpt lon="101.544798" lat="12.955915">
                <ele>24.400000</ele>
                <time>2019-03-16T06:42:07Z</time>
            </trkpt>
            <trkpt lon="101.544829" lat="12.955886">
                <ele>24.700000</ele>
                <time>2019-03-16T06:42:08Z</time>
            </trkpt>
            <trkpt lon="101.544854" lat="12.955857">
                <ele>24.700000</ele>
                <time>2019-03-16T06:42:09Z</time>
            </trkpt>
            <trkpt lon="101.544879" lat="12.955829">
                <ele>24.900000</ele>
                <time>2019-03-16T06:42:10Z</time>
            </trkpt>
            <trkpt lon="101.544902" lat="12.955804">
                <ele>24.900000</ele>
                <time>2019-03-16T06:42:11Z</time>
            </trkpt>
            <trkpt lon="101.544926" lat="12.955787">
                <ele>25.100000</ele>
                <time>2019-03-16T06:42:12Z</time>
            </trkpt>
            <trkpt lon="101.544948" lat="12.955768">
                <ele>25.100000</ele>
                <time>2019-03-16T06:42:13Z</time>
            </trkpt>
            <trkpt lon="101.544967" lat="12.955746">
                <ele>25.600000</ele>
                <time>2019-03-16T06:42:14Z</time>
            </trkpt>
            <trkpt lon="101.544986" lat="12.955721">
                <ele>25.500000</ele>
                <time>2019-03-16T06:42:15Z</time>
            </trkpt>
            <trkpt lon="101.545011" lat="12.955694">
                <ele>26.100000</ele>
                <time>2019-03-16T06:42:16Z</time>
            </trkpt>
            <trkpt lon="101.545032" lat="12.955671">
                <ele>26.300000</ele>
                <time>2019-03-16T06:42:17Z</time>
            </trkpt>
            <trkpt lon="101.545059" lat="12.955649">
                <ele>26.500000</ele>
                <time>2019-03-16T06:42:18Z</time>
            </trkpt>
            <trkpt lon="101.545082" lat="12.955627">
                <ele>26.700000</ele>
                <time>2019-03-16T06:42:19Z</time>
            </trkpt>
            <trkpt lon="101.545112" lat="12.955610">
                <ele>27.000000</ele>
                <time>2019-03-16T06:42:20Z</time>
            </trkpt>
            <trkpt lon="101.545146" lat="12.955591">
                <ele>27.200000</ele>
                <time>2019-03-16T06:42:21Z</time>
            </trkpt>
            <trkpt lon="101.545176" lat="12.955574">
                <ele>27.600000</ele>
                <time>2019-03-16T06:42:22Z</time>
            </trkpt>
            <trkpt lon="101.545206" lat="12.955558">
                <ele>27.600000</ele>
                <time>2019-03-16T06:42:23Z</time>
            </trkpt>
            <trkpt lon="101.545231" lat="12.955543">
                <ele>28.100000</ele>
                <time>2019-03-16T06:42:24Z</time>
            </trkpt>
            <trkpt lon="101.545258" lat="12.955530">
                <ele>28.300000</ele>
                <time>2019-03-16T06:42:25Z</time>
            </trkpt>
            <trkpt lon="101.545284" lat="12.955520">
                <ele>28.300000</ele>
                <time>2019-03-16T06:42:26Z</time>
            </trkpt>
            <trkpt lon="101.545310" lat="12.955510">
                <ele>28.500000</ele>
                <time>2019-03-16T06:42:27Z</time>
            </trkpt>
            <trkpt lon="101.545363" lat="12.955493">
                <ele>28.900000</ele>
                <time>2019-03-16T06:42:29Z</time>
            </trkpt>
            <trkpt lon="101.545394" lat="12.955485">
                <ele>28.900000</ele>
                <time>2019-03-16T06:42:30Z</time>
            </trkpt>
            <trkpt lon="101.545421" lat="12.955478">
                <ele>28.800000</ele>
                <time>2019-03-16T06:42:31Z</time>
            </trkpt>
            <trkpt lon="101.545452" lat="12.955468">
                <ele>28.800000</ele>
                <time>2019-03-16T06:42:32Z</time>
            </trkpt>
            <trkpt lon="101.545481" lat="12.955452">
                <ele>29.000000</ele>
                <time>2019-03-16T06:42:33Z</time>
            </trkpt>
            <trkpt lon="101.545508" lat="12.955435">
                <ele>29.000000</ele>
                <time>2019-03-16T06:42:34Z</time>
            </trkpt>
            <trkpt lon="101.545533" lat="12.955420">
                <ele>29.300000</ele>
                <time>2019-03-16T06:42:35Z</time>
            </trkpt>
            <trkpt lon="101.545576" lat="12.955396">
                <ele>29.500000</ele>
                <time>2019-03-16T06:42:37Z</time>
            </trkpt>
            <trkpt lon="101.545599" lat="12.955379">
                <ele>29.500000</ele>
                <time>2019-03-16T06:42:38Z</time>
            </trkpt>
            <trkpt lon="101.545625" lat="12.955362">
                <ele>29.900000</ele>
                <time>2019-03-16T06:42:39Z</time>
            </trkpt>
            <trkpt lon="101.545650" lat="12.955348">
                <ele>30.200000</ele>
                <time>2019-03-16T06:42:40Z</time>
            </trkpt>
            <trkpt lon="101.545676" lat="12.955333">
                <ele>30.400000</ele>
                <time>2019-03-16T06:42:41Z</time>
            </trkpt>
            <trkpt lon="101.545705" lat="12.955320">
                <ele>30.600000</ele>
                <time>2019-03-16T06:42:42Z</time>
            </trkpt>
            <trkpt lon="101.545732" lat="12.955306">
                <ele>30.800000</ele>
                <time>2019-03-16T06:42:43Z</time>
            </trkpt>
            <trkpt lon="101.545757" lat="12.955293">
                <ele>31.100000</ele>
                <time>2019-03-16T06:42:44Z</time>
            </trkpt>
            <trkpt lon="101.545783" lat="12.955280">
                <ele>31.300000</ele>
                <time>2019-03-16T06:42:45Z</time>
            </trkpt>
            <trkpt lon="101.545808" lat="12.955266">
                <ele>31.300000</ele>
                <time>2019-03-16T06:42:46Z</time>
            </trkpt>
            <trkpt lon="101.545835" lat="12.955250">
                <ele>32.000000</ele>
                <time>2019-03-16T06:42:47Z</time>
            </trkpt>
            <trkpt lon="101.545864" lat="12.955235">
                <ele>32.300000</ele>
                <time>2019-03-16T06:42:48Z</time>
            </trkpt>
            <trkpt lon="101.545893" lat="12.955222">
                <ele>32.300000</ele>
                <time>2019-03-16T06:42:49Z</time>
            </trkpt>
            <trkpt lon="101.545926" lat="12.955210">
                <ele>33.300000</ele>
                <time>2019-03-16T06:42:50Z</time>
            </trkpt>
            <trkpt lon="101.545955" lat="12.955196">
                <ele>33.700000</ele>
                <time>2019-03-16T06:42:51Z</time>
            </trkpt>
            <trkpt lon="101.545983" lat="12.955180">
                <ele>33.700000</ele>
                <time>2019-03-16T06:42:52Z</time>
            </trkpt>
            <trkpt lon="101.546010" lat="12.955166">
                <ele>34.700000</ele>
                <time>2019-03-16T06:42:53Z</time>
            </trkpt>
            <trkpt lon="101.546037" lat="12.955151">
                <ele>35.100000</ele>
                <time>2019-03-16T06:42:54Z</time>
            </trkpt>
            <trkpt lon="101.546064" lat="12.955137">
                <ele>35.100000</ele>
                <time>2019-03-16T06:42:55Z</time>
            </trkpt>
            <trkpt lon="101.546091" lat="12.955122">
                <ele>35.800000</ele>
                <time>2019-03-16T06:42:56Z</time>
            </trkpt>
            <trkpt lon="101.546119" lat="12.955107">
                <ele>36.000000</ele>
                <time>2019-03-16T06:42:57Z</time>
            </trkpt>
            <trkpt lon="101.546147" lat="12.955091">
                <ele>36.000000</ele>
                <time>2019-03-16T06:42:58Z</time>
            </trkpt>
            <trkpt lon="101.546174" lat="12.955076">
                <ele>36.700000</ele>
                <time>2019-03-16T06:42:59Z</time>
            </trkpt>
            <trkpt lon="101.546203" lat="12.955062">
                <ele>36.900000</ele>
                <time>2019-03-16T06:43:00Z</time>
            </trkpt>
            <trkpt lon="101.546231" lat="12.955049">
                <ele>36.800000</ele>
                <time>2019-03-16T06:43:01Z</time>
            </trkpt>
            <trkpt lon="101.546258" lat="12.955036">
                <ele>37.300000</ele>
                <time>2019-03-16T06:43:02Z</time>
            </trkpt>
            <trkpt lon="101.546286" lat="12.955022">
                <ele>37.300000</ele>
                <time>2019-03-16T06:43:03Z</time>
            </trkpt>
            <trkpt lon="101.546317" lat="12.955008">
                <ele>37.200000</ele>
                <time>2019-03-16T06:43:04Z</time>
            </trkpt>
            <trkpt lon="101.546344" lat="12.954994">
                <ele>37.700000</ele>
                <time>2019-03-16T06:43:05Z</time>
            </trkpt>
            <trkpt lon="101.546370" lat="12.954978">
                <ele>37.700000</ele>
                <time>2019-03-16T06:43:06Z</time>
            </trkpt>
            <trkpt lon="101.546396" lat="12.954963">
                <ele>37.500000</ele>
                <time>2019-03-16T06:43:07Z</time>
            </trkpt>
            <trkpt lon="101.546444" lat="12.954932">
                <ele>37.400000</ele>
                <time>2019-03-16T06:43:09Z</time>
            </trkpt>
            <trkpt lon="101.546470" lat="12.954918">
                <ele>37.300000</ele>
                <time>2019-03-16T06:43:10Z</time>
            </trkpt>
            <trkpt lon="101.546495" lat="12.954904">
                <ele>37.300000</ele>
                <time>2019-03-16T06:43:11Z</time>
            </trkpt>
            <trkpt lon="101.546522" lat="12.954891">
                <ele>36.900000</ele>
                <time>2019-03-16T06:43:12Z</time>
            </trkpt>
            <trkpt lon="101.546550" lat="12.954877">
                <ele>36.400000</ele>
                <time>2019-03-16T06:43:13Z</time>
            </trkpt>
            <trkpt lon="101.546577" lat="12.954863">
                <ele>36.900000</ele>
                <time>2019-03-16T06:43:14Z</time>
            </trkpt>
            <trkpt lon="101.546601" lat="12.954849">
                <ele>36.500000</ele>
                <time>2019-03-16T06:43:15Z</time>
            </trkpt>
            <trkpt lon="101.546627" lat="12.954834">
                <ele>36.900000</ele>
                <time>2019-03-16T06:43:16Z</time>
            </trkpt>
            <trkpt lon="101.546651" lat="12.954821">
                <ele>36.000000</ele>
                <time>2019-03-16T06:43:17Z</time>
            </trkpt>
            <trkpt lon="101.546693" lat="12.954795">
                <ele>35.600000</ele>
                <time>2019-03-16T06:43:19Z</time>
            </trkpt>
            <trkpt lon="101.546711" lat="12.954767">
                <ele>35.700000</ele>
                <time>2019-03-16T06:43:21Z</time>
            </trkpt>
            <trkpt lon="101.546725" lat="12.954733">
                <ele>35.600000</ele>
                <time>2019-03-16T06:43:24Z</time>
            </trkpt>
            <trkpt lon="101.546702" lat="12.954703">
                <ele>36.100000</ele>
                <time>2019-03-16T06:43:27Z</time>
            </trkpt>
            <trkpt lon="101.546663" lat="12.954676">
                <ele>36.500000</ele>
                <time>2019-03-16T06:43:29Z</time>
            </trkpt>
            <trkpt lon="101.546641" lat="12.954659">
                <ele>36.700000</ele>
                <time>2019-03-16T06:43:30Z</time>
            </trkpt>
            <trkpt lon="101.546602" lat="12.954628">
                <ele>37.700000</ele>
                <time>2019-03-16T06:43:32Z</time>
            </trkpt>
            <trkpt lon="101.546583" lat="12.954607">
                <ele>38.400000</ele>
                <time>2019-03-16T06:43:33Z</time>
            </trkpt>
            <trkpt lon="101.546563" lat="12.954589">
                <ele>38.400000</ele>
                <time>2019-03-16T06:43:34Z</time>
            </trkpt>
            <trkpt lon="101.546529" lat="12.954553">
                <ele>39.100000</ele>
                <time>2019-03-16T06:43:36Z</time>
            </trkpt>
            <trkpt lon="101.546493" lat="12.954512">
                <ele>39.600000</ele>
                <time>2019-03-16T06:43:38Z</time>
            </trkpt>
            <trkpt lon="101.546458" lat="12.954475">
                <ele>40.000000</ele>
                <time>2019-03-16T06:43:40Z</time>
            </trkpt>
            <trkpt lon="101.546440" lat="12.954453">
                <ele>40.000000</ele>
                <time>2019-03-16T06:43:41Z</time>
            </trkpt>
            <trkpt lon="101.546423" lat="12.954429">
                <ele>40.000000</ele>
                <time>2019-03-16T06:43:42Z</time>
            </trkpt>
            <trkpt lon="101.546382" lat="12.954399">
                <ele>40.200000</ele>
                <time>2019-03-16T06:43:44Z</time>
            </trkpt>
            <trkpt lon="101.546357" lat="12.954377">
                <ele>40.100000</ele>
                <time>2019-03-16T06:43:45Z</time>
            </trkpt>
            <trkpt lon="101.546319" lat="12.954342">
                <ele>39.900000</ele>
                <time>2019-03-16T06:43:47Z</time>
            </trkpt>
            <trkpt lon="101.546285" lat="12.954308">
                <ele>39.600000</ele>
                <time>2019-03-16T06:43:49Z</time>
            </trkpt>
            <trkpt lon="101.546265" lat="12.954288">
                <ele>39.400000</ele>
                <time>2019-03-16T06:43:50Z</time>
            </trkpt>
            <trkpt lon="101.546244" lat="12.954267">
                <ele>39.100000</ele>
                <time>2019-03-16T06:43:51Z</time>
            </trkpt>
            <trkpt lon="101.546221" lat="12.954246">
                <ele>39.100000</ele>
                <time>2019-03-16T06:43:52Z</time>
            </trkpt>
            <trkpt lon="101.546195" lat="12.954221">
                <ele>39.000000</ele>
                <time>2019-03-16T06:43:53Z</time>
            </trkpt>
            <trkpt lon="101.546170" lat="12.954194">
                <ele>39.000000</ele>
                <time>2019-03-16T06:43:54Z</time>
            </trkpt>
            <trkpt lon="101.546149" lat="12.954167">
                <ele>39.000000</ele>
                <time>2019-03-16T06:43:55Z</time>
            </trkpt>
            <trkpt lon="101.546122" lat="12.954141">
                <ele>38.900000</ele>
                <time>2019-03-16T06:43:56Z</time>
            </trkpt>
            <trkpt lon="101.546102" lat="12.954117">
                <ele>39.100000</ele>
                <time>2019-03-16T06:43:57Z</time>
            </trkpt>
            <trkpt lon="101.546081" lat="12.954094">
                <ele>39.000000</ele>
                <time>2019-03-16T06:43:58Z</time>
            </trkpt>
            <trkpt lon="101.546057" lat="12.954069">
                <ele>39.500000</ele>
                <time>2019-03-16T06:43:59Z</time>
            </trkpt>
            <trkpt lon="101.546031" lat="12.954045">
                <ele>39.500000</ele>
                <time>2019-03-16T06:44:00Z</time>
            </trkpt>
            <trkpt lon="101.546010" lat="12.954019">
                <ele>40.100000</ele>
                <time>2019-03-16T06:44:01Z</time>
            </trkpt>
            <trkpt lon="101.545992" lat="12.953990">
                <ele>40.500000</ele>
                <time>2019-03-16T06:44:02Z</time>
            </trkpt>
            <trkpt lon="101.545969" lat="12.953967">
                <ele>40.500000</ele>
                <time>2019-03-16T06:44:03Z</time>
            </trkpt>
            <trkpt lon="101.545948" lat="12.953939">
                <ele>40.800000</ele>
                <time>2019-03-16T06:44:04Z</time>
            </trkpt>
            <trkpt lon="101.545926" lat="12.953913">
                <ele>40.800000</ele>
                <time>2019-03-16T06:44:05Z</time>
            </trkpt>
            <trkpt lon="101.545902" lat="12.953890">
                <ele>40.700000</ele>
                <time>2019-03-16T06:44:06Z</time>
            </trkpt>
            <trkpt lon="101.545876" lat="12.953866">
                <ele>40.600000</ele>
                <time>2019-03-16T06:44:07Z</time>
            </trkpt>
            <trkpt lon="101.545849" lat="12.953840">
                <ele>40.700000</ele>
                <time>2019-03-16T06:44:08Z</time>
            </trkpt>
            <trkpt lon="101.545824" lat="12.953813">
                <ele>40.700000</ele>
                <time>2019-03-16T06:44:09Z</time>
            </trkpt>
            <trkpt lon="101.545802" lat="12.953783">
                <ele>41.100000</ele>
                <time>2019-03-16T06:44:10Z</time>
            </trkpt>
            <trkpt lon="101.545777" lat="12.953754">
                <ele>41.000000</ele>
                <time>2019-03-16T06:44:11Z</time>
            </trkpt>
            <trkpt lon="101.545750" lat="12.953728">
                <ele>41.500000</ele>
                <time>2019-03-16T06:44:12Z</time>
            </trkpt>
            <trkpt lon="101.545727" lat="12.953703">
                <ele>42.000000</ele>
                <time>2019-03-16T06:44:13Z</time>
            </trkpt>
            <trkpt lon="101.545706" lat="12.953679">
                <ele>41.900000</ele>
                <time>2019-03-16T06:44:14Z</time>
            </trkpt>
            <trkpt lon="101.545681" lat="12.953655">
                <ele>42.400000</ele>
                <time>2019-03-16T06:44:15Z</time>
            </trkpt>
            <trkpt lon="101.545656" lat="12.953633">
                <ele>42.400000</ele>
                <time>2019-03-16T06:44:16Z</time>
            </trkpt>
            <trkpt lon="101.545629" lat="12.953613">
                <ele>42.800000</ele>
                <time>2019-03-16T06:44:17Z</time>
            </trkpt>
            <trkpt lon="101.545611" lat="12.953591">
                <ele>42.800000</ele>
                <time>2019-03-16T06:44:18Z</time>
            </trkpt>
            <trkpt lon="101.545589" lat="12.953565">
                <ele>43.100000</ele>
                <time>2019-03-16T06:44:19Z</time>
            </trkpt>
            <trkpt lon="101.545570" lat="12.953544">
                <ele>43.000000</ele>
                <time>2019-03-16T06:44:20Z</time>
            </trkpt>
            <trkpt lon="101.545550" lat="12.953520">
                <ele>43.200000</ele>
                <time>2019-03-16T06:44:21Z</time>
            </trkpt>
            <trkpt lon="101.545528" lat="12.953498">
                <ele>43.100000</ele>
                <time>2019-03-16T06:44:22Z</time>
            </trkpt>
            <trkpt lon="101.545508" lat="12.953476">
                <ele>43.300000</ele>
                <time>2019-03-16T06:44:23Z</time>
            </trkpt>
            <trkpt lon="101.545488" lat="12.953448">
                <ele>43.300000</ele>
                <time>2019-03-16T06:44:24Z</time>
            </trkpt>
            <trkpt lon="101.545462" lat="12.953426">
                <ele>43.500000</ele>
                <time>2019-03-16T06:44:25Z</time>
            </trkpt>
            <trkpt lon="101.545429" lat="12.953403">
                <ele>43.500000</ele>
                <time>2019-03-16T06:44:26Z</time>
            </trkpt>
            <trkpt lon="101.545407" lat="12.953371">
                <ele>43.300000</ele>
                <time>2019-03-16T06:44:27Z</time>
            </trkpt>
            <trkpt lon="101.545384" lat="12.953340">
                <ele>43.400000</ele>
                <time>2019-03-16T06:44:28Z</time>
            </trkpt>
            <trkpt lon="101.545353" lat="12.953312">
                <ele>43.100000</ele>
                <time>2019-03-16T06:44:29Z</time>
            </trkpt>
            <trkpt lon="101.545327" lat="12.953289">
                <ele>43.100000</ele>
                <time>2019-03-16T06:44:30Z</time>
            </trkpt>
            <trkpt lon="101.545297" lat="12.953262">
                <ele>42.800000</ele>
                <time>2019-03-16T06:44:31Z</time>
            </trkpt>
            <trkpt lon="101.545270" lat="12.953239">
                <ele>42.400000</ele>
                <time>2019-03-16T06:44:32Z</time>
            </trkpt>
            <trkpt lon="101.545244" lat="12.953205">
                <ele>42.300000</ele>
                <time>2019-03-16T06:44:33Z</time>
            </trkpt>
            <trkpt lon="101.545217" lat="12.953180">
                <ele>41.800000</ele>
                <time>2019-03-16T06:44:34Z</time>
            </trkpt>
            <trkpt lon="101.545195" lat="12.953160">
                <ele>41.200000</ele>
                <time>2019-03-16T06:44:35Z</time>
            </trkpt>
            <trkpt lon="101.545154" lat="12.953112">
                <ele>40.800000</ele>
                <time>2019-03-16T06:44:37Z</time>
            </trkpt>
            <trkpt lon="101.545133" lat="12.953093">
                <ele>40.800000</ele>
                <time>2019-03-16T06:44:38Z</time>
            </trkpt>
            <trkpt lon="101.545114" lat="12.953069">
                <ele>40.700000</ele>
                <time>2019-03-16T06:44:39Z</time>
            </trkpt>
            <trkpt lon="101.545089" lat="12.953038">
                <ele>40.600000</ele>
                <time>2019-03-16T06:44:40Z</time>
            </trkpt>
            <trkpt lon="101.545067" lat="12.953011">
                <ele>40.300000</ele>
                <time>2019-03-16T06:44:41Z</time>
            </trkpt>
            <trkpt lon="101.545045" lat="12.952985">
                <ele>39.900000</ele>
                <time>2019-03-16T06:44:42Z</time>
            </trkpt>
            <trkpt lon="101.545024" lat="12.952967">
                <ele>39.900000</ele>
                <time>2019-03-16T06:44:43Z</time>
            </trkpt>
            <trkpt lon="101.544997" lat="12.952946">
                <ele>39.000000</ele>
                <time>2019-03-16T06:44:44Z</time>
            </trkpt>
            <trkpt lon="101.544967" lat="12.952926">
                <ele>39.000000</ele>
                <time>2019-03-16T06:44:45Z</time>
            </trkpt>
            <trkpt lon="101.544940" lat="12.952906">
                <ele>37.800000</ele>
                <time>2019-03-16T06:44:46Z</time>
            </trkpt>
            <trkpt lon="101.544907" lat="12.952881">
                <ele>37.400000</ele>
                <time>2019-03-16T06:44:47Z</time>
            </trkpt>
            <trkpt lon="101.544870" lat="12.952852">
                <ele>36.400000</ele>
                <time>2019-03-16T06:44:48Z</time>
            </trkpt>
            <trkpt lon="101.544813" lat="12.952828">
                <ele>36.500000</ele>
                <time>2019-03-16T06:44:49Z</time>
            </trkpt>
            <trkpt lon="101.544781" lat="12.952802">
                <ele>36.600000</ele>
                <time>2019-03-16T06:44:50Z</time>
            </trkpt>
            <trkpt lon="101.544749" lat="12.952765">
                <ele>36.600000</ele>
                <time>2019-03-16T06:44:51Z</time>
            </trkpt>
            <trkpt lon="101.544723" lat="12.952738">
                <ele>36.700000</ele>
                <time>2019-03-16T06:44:52Z</time>
            </trkpt>
            <trkpt lon="101.544694" lat="12.952707">
                <ele>36.800000</ele>
                <time>2019-03-16T06:44:53Z</time>
            </trkpt>
            <trkpt lon="101.544665" lat="12.952667">
                <ele>36.900000</ele>
                <time>2019-03-16T06:44:55Z</time>
            </trkpt>
            <trkpt lon="101.544646" lat="12.952646">
                <ele>37.000000</ele>
                <time>2019-03-16T06:44:56Z</time>
            </trkpt>
            <trkpt lon="101.544624" lat="12.952618">
                <ele>37.000000</ele>
                <time>2019-03-16T06:44:57Z</time>
            </trkpt>
            <trkpt lon="101.544601" lat="12.952592">
                <ele>37.100000</ele>
                <time>2019-03-16T06:44:58Z</time>
            </trkpt>
            <trkpt lon="101.544579" lat="12.952555">
                <ele>37.200000</ele>
                <time>2019-03-16T06:44:59Z</time>
            </trkpt>
            <trkpt lon="101.544553" lat="12.952500">
                <ele>37.300000</ele>
                <time>2019-03-16T06:45:00Z</time>
            </trkpt>
            <trkpt lon="101.544525" lat="12.952456">
                <ele>37.400000</ele>
                <time>2019-03-16T06:45:01Z</time>
            </trkpt>
            <trkpt lon="101.544496" lat="12.952417">
                <ele>37.500000</ele>
                <time>2019-03-16T06:45:02Z</time>
            </trkpt>
            <trkpt lon="101.544466" lat="12.952383">
                <ele>37.600000</ele>
                <time>2019-03-16T06:45:03Z</time>
            </trkpt>
            <trkpt lon="101.544434" lat="12.952353">
                <ele>37.700000</ele>
                <time>2019-03-16T06:45:04Z</time>
            </trkpt>
            <trkpt lon="101.544410" lat="12.952324">
                <ele>37.800000</ele>
                <time>2019-03-16T06:45:05Z</time>
            </trkpt>
            <trkpt lon="101.544378" lat="12.952297">
                <ele>37.900000</ele>
                <time>2019-03-16T06:45:06Z</time>
            </trkpt>
            <trkpt lon="101.544347" lat="12.952271">
                <ele>38.000000</ele>
                <time>2019-03-16T06:45:07Z</time>
            </trkpt>
            <trkpt lon="101.544317" lat="12.952246">
                <ele>38.100000</ele>
                <time>2019-03-16T06:45:08Z</time>
            </trkpt>
            <trkpt lon="101.544283" lat="12.952224">
                <ele>38.200000</ele>
                <time>2019-03-16T06:45:09Z</time>
            </trkpt>
            <trkpt lon="101.544250" lat="12.952200">
                <ele>38.300000</ele>
                <time>2019-03-16T06:45:10Z</time>
            </trkpt>
            <trkpt lon="101.544214" lat="12.952175">
                <ele>38.500000</ele>
                <time>2019-03-16T06:45:11Z</time>
            </trkpt>
            <trkpt lon="101.544182" lat="12.952151">
                <ele>38.600000</ele>
                <time>2019-03-16T06:45:12Z</time>
            </trkpt>
            <trkpt lon="101.544151" lat="12.952124">
                <ele>38.700000</ele>
                <time>2019-03-16T06:45:13Z</time>
            </trkpt>
            <trkpt lon="101.544123" lat="12.952099">
                <ele>38.800000</ele>
                <time>2019-03-16T06:45:14Z</time>
            </trkpt>
            <trkpt lon="101.544094" lat="12.952074">
                <ele>38.900000</ele>
                <time>2019-03-16T06:45:15Z</time>
            </trkpt>
            <trkpt lon="101.544065" lat="12.952048">
                <ele>39.000000</ele>
                <time>2019-03-16T06:45:16Z</time>
            </trkpt>
            <trkpt lon="101.544034" lat="12.952022">
                <ele>39.100000</ele>
                <time>2019-03-16T06:45:17Z</time>
            </trkpt>
            <trkpt lon="101.544001" lat="12.951996">
                <ele>39.300000</ele>
                <time>2019-03-16T06:45:18Z</time>
            </trkpt>
            <trkpt lon="101.543970" lat="12.951974">
                <ele>39.400000</ele>
                <time>2019-03-16T06:45:19Z</time>
            </trkpt>
            <trkpt lon="101.543936" lat="12.951950">
                <ele>39.500000</ele>
                <time>2019-03-16T06:45:20Z</time>
            </trkpt>
            <trkpt lon="101.543911" lat="12.951930">
                <ele>39.600000</ele>
                <time>2019-03-16T06:45:21Z</time>
            </trkpt>
            <trkpt lon="101.543883" lat="12.951906">
                <ele>39.700000</ele>
                <time>2019-03-16T06:45:22Z</time>
            </trkpt>
            <trkpt lon="101.543860" lat="12.951885">
                <ele>39.800000</ele>
                <time>2019-03-16T06:45:23Z</time>
            </trkpt>
            <trkpt lon="101.543838" lat="12.951867">
                <ele>39.800000</ele>
                <time>2019-03-16T06:45:24Z</time>
            </trkpt>
            <trkpt lon="101.543816" lat="12.951842">
                <ele>39.900000</ele>
                <time>2019-03-16T06:45:25Z</time>
            </trkpt>
            <trkpt lon="101.543793" lat="12.951813">
                <ele>40.000000</ele>
                <time>2019-03-16T06:45:26Z</time>
            </trkpt>
            <trkpt lon="101.543776" lat="12.951788">
                <ele>40.100000</ele>
                <time>2019-03-16T06:45:27Z</time>
            </trkpt>
            <trkpt lon="101.543753" lat="12.951764">
                <ele>40.200000</ele>
                <time>2019-03-16T06:45:28Z</time>
            </trkpt>
            <trkpt lon="101.543732" lat="12.951738">
                <ele>40.300000</ele>
                <time>2019-03-16T06:45:29Z</time>
            </trkpt>
            <trkpt lon="101.543712" lat="12.951712">
                <ele>40.400000</ele>
                <time>2019-03-16T06:45:30Z</time>
            </trkpt>
            <trkpt lon="101.543690" lat="12.951684">
                <ele>40.500000</ele>
                <time>2019-03-16T06:45:31Z</time>
            </trkpt>
            <trkpt lon="101.543666" lat="12.951659">
                <ele>40.600000</ele>
                <time>2019-03-16T06:45:32Z</time>
            </trkpt>
            <trkpt lon="101.543646" lat="12.951633">
                <ele>40.600000</ele>
                <time>2019-03-16T06:45:33Z</time>
            </trkpt>
            <trkpt lon="101.543628" lat="12.951606">
                <ele>40.700000</ele>
                <time>2019-03-16T06:45:34Z</time>
            </trkpt>
            <trkpt lon="101.543608" lat="12.951577">
                <ele>40.800000</ele>
                <time>2019-03-16T06:45:35Z</time>
            </trkpt>
            <trkpt lon="101.543587" lat="12.951552">
                <ele>40.900000</ele>
                <time>2019-03-16T06:45:36Z</time>
            </trkpt>
            <trkpt lon="101.543565" lat="12.951524">
                <ele>41.000000</ele>
                <time>2019-03-16T06:45:37Z</time>
            </trkpt>
            <trkpt lon="101.543543" lat="12.951493">
                <ele>41.000000</ele>
                <time>2019-03-16T06:45:38Z</time>
            </trkpt>
            <trkpt lon="101.543519" lat="12.951464">
                <ele>41.100000</ele>
                <time>2019-03-16T06:45:39Z</time>
            </trkpt>
            <trkpt lon="101.543502" lat="12.951435">
                <ele>41.200000</ele>
                <time>2019-03-16T06:45:40Z</time>
            </trkpt>
            <trkpt lon="101.543476" lat="12.951402">
                <ele>41.300000</ele>
                <time>2019-03-16T06:45:41Z</time>
            </trkpt>
            <trkpt lon="101.543454" lat="12.951373">
                <ele>41.400000</ele>
                <time>2019-03-16T06:45:42Z</time>
            </trkpt>
            <trkpt lon="101.543429" lat="12.951341">
                <ele>41.500000</ele>
                <time>2019-03-16T06:45:43Z</time>
            </trkpt>
            <trkpt lon="101.543411" lat="12.951311">
                <ele>41.600000</ele>
                <time>2019-03-16T06:45:44Z</time>
            </trkpt>
            <trkpt lon="101.543389" lat="12.951280">
                <ele>41.700000</ele>
                <time>2019-03-16T06:45:45Z</time>
            </trkpt>
            <trkpt lon="101.543370" lat="12.951250">
                <ele>41.800000</ele>
                <time>2019-03-16T06:45:46Z</time>
            </trkpt>
            <trkpt lon="101.543346" lat="12.951223">
                <ele>41.900000</ele>
                <time>2019-03-16T06:45:47Z</time>
            </trkpt>
            <trkpt lon="101.543322" lat="12.951187">
                <ele>42.000000</ele>
                <time>2019-03-16T06:45:48Z</time>
            </trkpt>
            <trkpt lon="101.543302" lat="12.951156">
                <ele>42.100000</ele>
                <time>2019-03-16T06:45:49Z</time>
            </trkpt>
            <trkpt lon="101.543280" lat="12.951122">
                <ele>42.200000</ele>
                <time>2019-03-16T06:45:50Z</time>
            </trkpt>
            <trkpt lon="101.543258" lat="12.951092">
                <ele>42.300000</ele>
                <time>2019-03-16T06:45:51Z</time>
            </trkpt>
            <trkpt lon="101.543246" lat="12.951057">
                <ele>42.400000</ele>
                <time>2019-03-16T06:45:52Z</time>
            </trkpt>
            <trkpt lon="101.543223" lat="12.951024">
                <ele>42.500000</ele>
                <time>2019-03-16T06:45:53Z</time>
            </trkpt>
            <trkpt lon="101.543207" lat="12.950987">
                <ele>42.600000</ele>
                <time>2019-03-16T06:45:54Z</time>
            </trkpt>
            <trkpt lon="101.543190" lat="12.950951">
                <ele>42.700000</ele>
                <time>2019-03-16T06:45:55Z</time>
            </trkpt>
            <trkpt lon="101.543173" lat="12.950917">
                <ele>42.800000</ele>
                <time>2019-03-16T06:45:56Z</time>
            </trkpt>
            <trkpt lon="101.543153" lat="12.950884">
                <ele>42.900000</ele>
                <time>2019-03-16T06:45:57Z</time>
            </trkpt>
            <trkpt lon="101.543130" lat="12.950853">
                <ele>43.000000</ele>
                <time>2019-03-16T06:45:58Z</time>
            </trkpt>
            <trkpt lon="101.543112" lat="12.950823">
                <ele>43.100000</ele>
                <time>2019-03-16T06:45:59Z</time>
            </trkpt>
            <trkpt lon="101.543092" lat="12.950791">
                <ele>43.200000</ele>
                <time>2019-03-16T06:46:00Z</time>
            </trkpt>
            <trkpt lon="101.543074" lat="12.950757">
                <ele>43.300000</ele>
                <time>2019-03-16T06:46:01Z</time>
            </trkpt>
            <trkpt lon="101.543062" lat="12.950728">
                <ele>43.400000</ele>
                <time>2019-03-16T06:46:02Z</time>
            </trkpt>
            <trkpt lon="101.543042" lat="12.950706">
                <ele>43.500000</ele>
                <time>2019-03-16T06:46:03Z</time>
            </trkpt>
            <trkpt lon="101.543024" lat="12.950684">
                <ele>43.500000</ele>
                <time>2019-03-16T06:46:04Z</time>
            </trkpt>
            <trkpt lon="101.543000" lat="12.950658">
                <ele>43.600000</ele>
                <time>2019-03-16T06:46:05Z</time>
            </trkpt>
            <trkpt lon="101.542973" lat="12.950629">
                <ele>43.700000</ele>
                <time>2019-03-16T06:46:06Z</time>
            </trkpt>
            <trkpt lon="101.542948" lat="12.950600">
                <ele>43.800000</ele>
                <time>2019-03-16T06:46:07Z</time>
            </trkpt>
            <trkpt lon="101.542920" lat="12.950564">
                <ele>43.900000</ele>
                <time>2019-03-16T06:46:08Z</time>
            </trkpt>
            <trkpt lon="101.542896" lat="12.950531">
                <ele>44.000000</ele>
                <time>2019-03-16T06:46:09Z</time>
            </trkpt>
            <trkpt lon="101.542870" lat="12.950492">
                <ele>44.100000</ele>
                <time>2019-03-16T06:46:10Z</time>
            </trkpt>
            <trkpt lon="101.542845" lat="12.950460">
                <ele>44.200000</ele>
                <time>2019-03-16T06:46:11Z</time>
            </trkpt>
            <trkpt lon="101.542820" lat="12.950423">
                <ele>44.300000</ele>
                <time>2019-03-16T06:46:12Z</time>
            </trkpt>
            <trkpt lon="101.542796" lat="12.950382">
                <ele>44.400000</ele>
                <time>2019-03-16T06:46:13Z</time>
            </trkpt>
            <trkpt lon="101.542770" lat="12.950335">
                <ele>44.600000</ele>
                <time>2019-03-16T06:46:14Z</time>
            </trkpt>
            <trkpt lon="101.542747" lat="12.950286">
                <ele>44.700000</ele>
                <time>2019-03-16T06:46:15Z</time>
            </trkpt>
            <trkpt lon="101.542724" lat="12.950237">
                <ele>44.800000</ele>
                <time>2019-03-16T06:46:16Z</time>
            </trkpt>
            <trkpt lon="101.542700" lat="12.950195">
                <ele>44.900000</ele>
                <time>2019-03-16T06:46:17Z</time>
            </trkpt>
            <trkpt lon="101.542680" lat="12.950154">
                <ele>45.100000</ele>
                <time>2019-03-16T06:46:18Z</time>
            </trkpt>
            <trkpt lon="101.542660" lat="12.950116">
                <ele>45.200000</ele>
                <time>2019-03-16T06:46:19Z</time>
            </trkpt>
            <trkpt lon="101.542633" lat="12.950080">
                <ele>45.300000</ele>
                <time>2019-03-16T06:46:20Z</time>
            </trkpt>
            <trkpt lon="101.542609" lat="12.950049">
                <ele>45.400000</ele>
                <time>2019-03-16T06:46:21Z</time>
            </trkpt>
            <trkpt lon="101.542584" lat="12.950019">
                <ele>45.400000</ele>
                <time>2019-03-16T06:46:22Z</time>
            </trkpt>
            <trkpt lon="101.542559" lat="12.949986">
                <ele>45.500000</ele>
                <time>2019-03-16T06:46:23Z</time>
            </trkpt>
            <trkpt lon="101.542536" lat="12.949960">
                <ele>45.600000</ele>
                <time>2019-03-16T06:46:24Z</time>
            </trkpt>
            <trkpt lon="101.542511" lat="12.949933">
                <ele>45.700000</ele>
                <time>2019-03-16T06:46:25Z</time>
            </trkpt>
            <trkpt lon="101.542491" lat="12.949910">
                <ele>45.800000</ele>
                <time>2019-03-16T06:46:26Z</time>
            </trkpt>
            <trkpt lon="101.542467" lat="12.949868">
                <ele>45.900000</ele>
                <time>2019-03-16T06:46:27Z</time>
            </trkpt>
            <trkpt lon="101.542451" lat="12.949837">
                <ele>46.000000</ele>
                <time>2019-03-16T06:46:28Z</time>
            </trkpt>
            <trkpt lon="101.542432" lat="12.949807">
                <ele>46.100000</ele>
                <time>2019-03-16T06:46:29Z</time>
            </trkpt>
            <trkpt lon="101.542409" lat="12.949769">
                <ele>46.200000</ele>
                <time>2019-03-16T06:46:30Z</time>
            </trkpt>
            <trkpt lon="101.542386" lat="12.949734">
                <ele>46.300000</ele>
                <time>2019-03-16T06:46:31Z</time>
            </trkpt>
            <trkpt lon="101.542364" lat="12.949699">
                <ele>46.400000</ele>
                <time>2019-03-16T06:46:32Z</time>
            </trkpt>
            <trkpt lon="101.542338" lat="12.949663">
                <ele>46.600000</ele>
                <time>2019-03-16T06:46:33Z</time>
            </trkpt>
            <trkpt lon="101.542315" lat="12.949635">
                <ele>46.700000</ele>
                <time>2019-03-16T06:46:34Z</time>
            </trkpt>
            <trkpt lon="101.542290" lat="12.949597">
                <ele>46.800000</ele>
                <time>2019-03-16T06:46:35Z</time>
            </trkpt>
            <trkpt lon="101.542267" lat="12.949567">
                <ele>46.900000</ele>
                <time>2019-03-16T06:46:36Z</time>
            </trkpt>
            <trkpt lon="101.542243" lat="12.949529">
                <ele>47.000000</ele>
                <time>2019-03-16T06:46:37Z</time>
            </trkpt>
            <trkpt lon="101.542216" lat="12.949491">
                <ele>47.200000</ele>
                <time>2019-03-16T06:46:38Z</time>
            </trkpt>
            <trkpt lon="101.542192" lat="12.949455">
                <ele>47.300000</ele>
                <time>2019-03-16T06:46:39Z</time>
            </trkpt>
            <trkpt lon="101.542161" lat="12.949420">
                <ele>47.600000</ele>
                <time>2019-03-16T06:46:40Z</time>
            </trkpt>
            <trkpt lon="101.542129" lat="12.949384">
                <ele>47.500000</ele>
                <time>2019-03-16T06:46:41Z</time>
            </trkpt>
            <trkpt lon="101.542101" lat="12.949353">
                <ele>47.500000</ele>
                <time>2019-03-16T06:46:42Z</time>
            </trkpt>
            <trkpt lon="101.542076" lat="12.949321">
                <ele>47.400000</ele>
                <time>2019-03-16T06:46:43Z</time>
            </trkpt>
            <trkpt lon="101.542057" lat="12.949289">
                <ele>47.400000</ele>
                <time>2019-03-16T06:46:44Z</time>
            </trkpt>
            <trkpt lon="101.542042" lat="12.949255">
                <ele>47.300000</ele>
                <time>2019-03-16T06:46:45Z</time>
            </trkpt>
            <trkpt lon="101.542018" lat="12.949220">
                <ele>47.300000</ele>
                <time>2019-03-16T06:46:46Z</time>
            </trkpt>
            <trkpt lon="101.542004" lat="12.949185">
                <ele>47.300000</ele>
                <time>2019-03-16T06:46:47Z</time>
            </trkpt>
            <trkpt lon="101.541986" lat="12.949147">
                <ele>47.200000</ele>
                <time>2019-03-16T06:46:48Z</time>
            </trkpt>
            <trkpt lon="101.541969" lat="12.949114">
                <ele>47.200000</ele>
                <time>2019-03-16T06:46:49Z</time>
            </trkpt>
            <trkpt lon="101.541955" lat="12.949080">
                <ele>47.200000</ele>
                <time>2019-03-16T06:46:50Z</time>
            </trkpt>
            <trkpt lon="101.541937" lat="12.949047">
                <ele>47.100000</ele>
                <time>2019-03-16T06:46:51Z</time>
            </trkpt>
            <trkpt lon="101.541918" lat="12.949014">
                <ele>47.100000</ele>
                <time>2019-03-16T06:46:52Z</time>
            </trkpt>
            <trkpt lon="101.541902" lat="12.948982">
                <ele>47.100000</ele>
                <time>2019-03-16T06:46:53Z</time>
            </trkpt>
            <trkpt lon="101.541882" lat="12.948949">
                <ele>47.100000</ele>
                <time>2019-03-16T06:46:54Z</time>
            </trkpt>
            <trkpt lon="101.541859" lat="12.948917">
                <ele>47.000000</ele>
                <time>2019-03-16T06:46:55Z</time>
            </trkpt>
            <trkpt lon="101.541839" lat="12.948880">
                <ele>47.000000</ele>
                <time>2019-03-16T06:46:56Z</time>
            </trkpt>
            <trkpt lon="101.541817" lat="12.948838">
                <ele>47.000000</ele>
                <time>2019-03-16T06:46:57Z</time>
            </trkpt>
            <trkpt lon="101.541800" lat="12.948808">
                <ele>47.000000</ele>
                <time>2019-03-16T06:46:58Z</time>
            </trkpt>
            <trkpt lon="101.541774" lat="12.948773">
                <ele>47.000000</ele>
                <time>2019-03-16T06:46:59Z</time>
            </trkpt>
            <trkpt lon="101.541752" lat="12.948731">
                <ele>47.000000</ele>
                <time>2019-03-16T06:47:00Z</time>
            </trkpt>
            <trkpt lon="101.541733" lat="12.948693">
                <ele>47.000000</ele>
                <time>2019-03-16T06:47:01Z</time>
            </trkpt>
            <trkpt lon="101.541709" lat="12.948654">
                <ele>47.000000</ele>
                <time>2019-03-16T06:47:02Z</time>
            </trkpt>
            <trkpt lon="101.541687" lat="12.948620">
                <ele>47.000000</ele>
                <time>2019-03-16T06:47:03Z</time>
            </trkpt>
            <trkpt lon="101.541664" lat="12.948583">
                <ele>47.000000</ele>
                <time>2019-03-16T06:47:04Z</time>
            </trkpt>
            <trkpt lon="101.541638" lat="12.948542">
                <ele>47.000000</ele>
                <time>2019-03-16T06:47:05Z</time>
            </trkpt>
            <trkpt lon="101.541609" lat="12.948501">
                <ele>47.000000</ele>
                <time>2019-03-16T06:47:06Z</time>
            </trkpt>
            <trkpt lon="101.541584" lat="12.948461">
                <ele>47.000000</ele>
                <time>2019-03-16T06:47:07Z</time>
            </trkpt>
            <trkpt lon="101.541568" lat="12.948427">
                <ele>47.000000</ele>
                <time>2019-03-16T06:47:08Z</time>
            </trkpt>
            <trkpt lon="101.541547" lat="12.948386">
                <ele>47.000000</ele>
                <time>2019-03-16T06:47:09Z</time>
            </trkpt>
            <trkpt lon="101.541528" lat="12.948344">
                <ele>47.000000</ele>
                <time>2019-03-16T06:47:10Z</time>
            </trkpt>
            <trkpt lon="101.541504" lat="12.948302">
                <ele>47.000000</ele>
                <time>2019-03-16T06:47:11Z</time>
            </trkpt>
            <trkpt lon="101.541479" lat="12.948265">
                <ele>47.000000</ele>
                <time>2019-03-16T06:47:12Z</time>
            </trkpt>
            <trkpt lon="101.541448" lat="12.948225">
                <ele>47.000000</ele>
                <time>2019-03-16T06:47:13Z</time>
            </trkpt>
            <trkpt lon="101.541423" lat="12.948187">
                <ele>47.000000</ele>
                <time>2019-03-16T06:47:14Z</time>
            </trkpt>
            <trkpt lon="101.541400" lat="12.948145">
                <ele>47.000000</ele>
                <time>2019-03-16T06:47:15Z</time>
            </trkpt>
            <trkpt lon="101.541385" lat="12.948098">
                <ele>47.000000</ele>
                <time>2019-03-16T06:47:16Z</time>
            </trkpt>
            <trkpt lon="101.541367" lat="12.948054">
                <ele>47.000000</ele>
                <time>2019-03-16T06:47:17Z</time>
            </trkpt>
            <trkpt lon="101.541346" lat="12.948010">
                <ele>47.000000</ele>
                <time>2019-03-16T06:47:18Z</time>
            </trkpt>
            <trkpt lon="101.541323" lat="12.947971">
                <ele>46.900000</ele>
                <time>2019-03-16T06:47:19Z</time>
            </trkpt>
            <trkpt lon="101.541307" lat="12.947932">
                <ele>46.900000</ele>
                <time>2019-03-16T06:47:20Z</time>
            </trkpt>
            <trkpt lon="101.541290" lat="12.947893">
                <ele>46.900000</ele>
                <time>2019-03-16T06:47:21Z</time>
            </trkpt>
            <trkpt lon="101.541269" lat="12.947856">
                <ele>46.800000</ele>
                <time>2019-03-16T06:47:22Z</time>
            </trkpt>
            <trkpt lon="101.541248" lat="12.947822">
                <ele>46.800000</ele>
                <time>2019-03-16T06:47:23Z</time>
            </trkpt>
            <trkpt lon="101.541225" lat="12.947786">
                <ele>46.800000</ele>
                <time>2019-03-16T06:47:24Z</time>
            </trkpt>
            <trkpt lon="101.541200" lat="12.947750">
                <ele>46.700000</ele>
                <time>2019-03-16T06:47:25Z</time>
            </trkpt>
            <trkpt lon="101.541182" lat="12.947720">
                <ele>46.700000</ele>
                <time>2019-03-16T06:47:26Z</time>
            </trkpt>
            <trkpt lon="101.541154" lat="12.947681">
                <ele>46.700000</ele>
                <time>2019-03-16T06:47:27Z</time>
            </trkpt>
            <trkpt lon="101.541126" lat="12.947643">
                <ele>46.600000</ele>
                <time>2019-03-16T06:47:28Z</time>
            </trkpt>
            <trkpt lon="101.541100" lat="12.947602">
                <ele>46.500000</ele>
                <time>2019-03-16T06:47:29Z</time>
            </trkpt>
            <trkpt lon="101.541078" lat="12.947563">
                <ele>46.500000</ele>
                <time>2019-03-16T06:47:30Z</time>
            </trkpt>
            <trkpt lon="101.541058" lat="12.947524">
                <ele>46.400000</ele>
                <time>2019-03-16T06:47:31Z</time>
            </trkpt>
            <trkpt lon="101.541041" lat="12.947496">
                <ele>46.400000</ele>
                <time>2019-03-16T06:47:32Z</time>
            </trkpt>
            <trkpt lon="101.541024" lat="12.947468">
                <ele>46.300000</ele>
                <time>2019-03-16T06:47:33Z</time>
            </trkpt>
            <trkpt lon="101.540994" lat="12.947432">
                <ele>46.300000</ele>
                <time>2019-03-16T06:47:34Z</time>
            </trkpt>
            <trkpt lon="101.540974" lat="12.947395">
                <ele>46.200000</ele>
                <time>2019-03-16T06:47:35Z</time>
            </trkpt>
            <trkpt lon="101.540950" lat="12.947360">
                <ele>46.100000</ele>
                <time>2019-03-16T06:47:36Z</time>
            </trkpt>
            <trkpt lon="101.540934" lat="12.947329">
                <ele>46.100000</ele>
                <time>2019-03-16T06:47:37Z</time>
            </trkpt>
            <trkpt lon="101.540917" lat="12.947299">
                <ele>46.000000</ele>
                <time>2019-03-16T06:47:38Z</time>
            </trkpt>
            <trkpt lon="101.540900" lat="12.947270">
                <ele>45.900000</ele>
                <time>2019-03-16T06:47:39Z</time>
            </trkpt>
            <trkpt lon="101.540882" lat="12.947237">
                <ele>45.900000</ele>
                <time>2019-03-16T06:47:40Z</time>
            </trkpt>
            <trkpt lon="101.540861" lat="12.947199">
                <ele>45.800000</ele>
                <time>2019-03-16T06:47:41Z</time>
            </trkpt>
            <trkpt lon="101.540837" lat="12.947155">
                <ele>45.600000</ele>
                <time>2019-03-16T06:47:42Z</time>
            </trkpt>
            <trkpt lon="101.540791" lat="12.947079">
                <ele>45.400000</ele>
                <time>2019-03-16T06:47:43Z</time>
            </trkpt>
            <trkpt lon="101.540726" lat="12.947002">
                <ele>45.200000</ele>
                <time>2019-03-16T06:47:44Z</time>
            </trkpt>
            <trkpt lon="101.540678" lat="12.946927">
                <ele>44.900000</ele>
                <time>2019-03-16T06:47:45Z</time>
            </trkpt>
            <trkpt lon="101.540643" lat="12.946874">
                <ele>44.700000</ele>
                <time>2019-03-16T06:47:46Z</time>
            </trkpt>
            <trkpt lon="101.540614" lat="12.946829">
                <ele>44.600000</ele>
                <time>2019-03-16T06:47:47Z</time>
            </trkpt>
            <trkpt lon="101.540584" lat="12.946778">
                <ele>44.400000</ele>
                <time>2019-03-16T06:47:48Z</time>
            </trkpt>
            <trkpt lon="101.540554" lat="12.946732">
                <ele>44.300000</ele>
                <time>2019-03-16T06:47:49Z</time>
            </trkpt>
            <trkpt lon="101.540527" lat="12.946686">
                <ele>44.100000</ele>
                <time>2019-03-16T06:47:50Z</time>
            </trkpt>
            <trkpt lon="101.540498" lat="12.946640">
                <ele>44.000000</ele>
                <time>2019-03-16T06:47:51Z</time>
            </trkpt>
            <trkpt lon="101.540471" lat="12.946589">
                <ele>43.900000</ele>
                <time>2019-03-16T06:47:52Z</time>
            </trkpt>
            <trkpt lon="101.540441" lat="12.946534">
                <ele>43.700000</ele>
                <time>2019-03-16T06:47:53Z</time>
            </trkpt>
            <trkpt lon="101.540410" lat="12.946479">
                <ele>43.600000</ele>
                <time>2019-03-16T06:47:54Z</time>
            </trkpt>
            <trkpt lon="101.540378" lat="12.946426">
                <ele>43.500000</ele>
                <time>2019-03-16T06:47:55Z</time>
            </trkpt>
            <trkpt lon="101.540350" lat="12.946378">
                <ele>43.300000</ele>
                <time>2019-03-16T06:47:56Z</time>
            </trkpt>
            <trkpt lon="101.540320" lat="12.946335">
                <ele>43.200000</ele>
                <time>2019-03-16T06:47:57Z</time>
            </trkpt>
            <trkpt lon="101.540303" lat="12.946288">
                <ele>43.100000</ele>
                <time>2019-03-16T06:47:58Z</time>
            </trkpt>
            <trkpt lon="101.540276" lat="12.946239">
                <ele>43.000000</ele>
                <time>2019-03-16T06:47:59Z</time>
            </trkpt>
            <trkpt lon="101.540249" lat="12.946188">
                <ele>42.900000</ele>
                <time>2019-03-16T06:48:00Z</time>
            </trkpt>
            <trkpt lon="101.540225" lat="12.946142">
                <ele>42.800000</ele>
                <time>2019-03-16T06:48:01Z</time>
            </trkpt>
            <trkpt lon="101.540201" lat="12.946098">
                <ele>42.700000</ele>
                <time>2019-03-16T06:48:02Z</time>
            </trkpt>
            <trkpt lon="101.540182" lat="12.946047">
                <ele>42.700000</ele>
                <time>2019-03-16T06:48:03Z</time>
            </trkpt>
            <trkpt lon="101.540162" lat="12.946001">
                <ele>42.600000</ele>
                <time>2019-03-16T06:48:04Z</time>
            </trkpt>
            <trkpt lon="101.540134" lat="12.945951">
                <ele>42.500000</ele>
                <time>2019-03-16T06:48:05Z</time>
            </trkpt>
            <trkpt lon="101.540110" lat="12.945909">
                <ele>42.400000</ele>
                <time>2019-03-16T06:48:06Z</time>
            </trkpt>
            <trkpt lon="101.540086" lat="12.945860">
                <ele>42.400000</ele>
                <time>2019-03-16T06:48:07Z</time>
            </trkpt>
            <trkpt lon="101.540067" lat="12.945817">
                <ele>42.300000</ele>
                <time>2019-03-16T06:48:08Z</time>
            </trkpt>
            <trkpt lon="101.540043" lat="12.945774">
                <ele>42.200000</ele>
                <time>2019-03-16T06:48:09Z</time>
            </trkpt>
            <trkpt lon="101.540022" lat="12.945728">
                <ele>42.200000</ele>
                <time>2019-03-16T06:48:10Z</time>
            </trkpt>
            <trkpt lon="101.539997" lat="12.945683">
                <ele>42.100000</ele>
                <time>2019-03-16T06:48:11Z</time>
            </trkpt>
            <trkpt lon="101.539978" lat="12.945633">
                <ele>42.100000</ele>
                <time>2019-03-16T06:48:12Z</time>
            </trkpt>
            <trkpt lon="101.539951" lat="12.945584">
                <ele>42.000000</ele>
                <time>2019-03-16T06:48:13Z</time>
            </trkpt>
            <trkpt lon="101.539926" lat="12.945536">
                <ele>42.000000</ele>
                <time>2019-03-16T06:48:14Z</time>
            </trkpt>
            <trkpt lon="101.539901" lat="12.945489">
                <ele>41.900000</ele>
                <time>2019-03-16T06:48:15Z</time>
            </trkpt>
            <trkpt lon="101.539877" lat="12.945444">
                <ele>41.900000</ele>
                <time>2019-03-16T06:48:16Z</time>
            </trkpt>
            <trkpt lon="101.539851" lat="12.945396">
                <ele>41.800000</ele>
                <time>2019-03-16T06:48:17Z</time>
            </trkpt>
            <trkpt lon="101.539824" lat="12.945347">
                <ele>41.800000</ele>
                <time>2019-03-16T06:48:18Z</time>
            </trkpt>
            <trkpt lon="101.539795" lat="12.945295">
                <ele>41.700000</ele>
                <time>2019-03-16T06:48:19Z</time>
            </trkpt>
            <trkpt lon="101.539757" lat="12.945245">
                <ele>41.700000</ele>
                <time>2019-03-16T06:48:20Z</time>
            </trkpt>
            <trkpt lon="101.539721" lat="12.945202">
                <ele>41.700000</ele>
                <time>2019-03-16T06:48:21Z</time>
            </trkpt>
            <trkpt lon="101.539691" lat="12.945165">
                <ele>41.600000</ele>
                <time>2019-03-16T06:48:22Z</time>
            </trkpt>
            <trkpt lon="101.539661" lat="12.945128">
                <ele>41.600000</ele>
                <time>2019-03-16T06:48:23Z</time>
            </trkpt>
            <trkpt lon="101.539621" lat="12.945091">
                <ele>41.600000</ele>
                <time>2019-03-16T06:48:24Z</time>
            </trkpt>
            <trkpt lon="101.539575" lat="12.945048">
                <ele>41.600000</ele>
                <time>2019-03-16T06:48:25Z</time>
            </trkpt>
            <trkpt lon="101.539528" lat="12.945016">
                <ele>41.600000</ele>
                <time>2019-03-16T06:48:26Z</time>
            </trkpt>
            <trkpt lon="101.539477" lat="12.944987">
                <ele>41.600000</ele>
                <time>2019-03-16T06:48:27Z</time>
            </trkpt>
            <trkpt lon="101.539430" lat="12.944956">
                <ele>41.500000</ele>
                <time>2019-03-16T06:48:28Z</time>
            </trkpt>
            <trkpt lon="101.539391" lat="12.944930">
                <ele>41.500000</ele>
                <time>2019-03-16T06:48:29Z</time>
            </trkpt>
            <trkpt lon="101.539344" lat="12.944898">
                <ele>41.500000</ele>
                <time>2019-03-16T06:48:30Z</time>
            </trkpt>
            <trkpt lon="101.539295" lat="12.944867">
                <ele>41.500000</ele>
                <time>2019-03-16T06:48:31Z</time>
            </trkpt>
            <trkpt lon="101.539250" lat="12.944843">
                <ele>41.500000</ele>
                <time>2019-03-16T06:48:32Z</time>
            </trkpt>
            <trkpt lon="101.539204" lat="12.944820">
                <ele>41.500000</ele>
                <time>2019-03-16T06:48:33Z</time>
            </trkpt>
            <trkpt lon="101.539161" lat="12.944796">
                <ele>41.500000</ele>
                <time>2019-03-16T06:48:34Z</time>
            </trkpt>
            <trkpt lon="101.539119" lat="12.944776">
                <ele>41.500000</ele>
                <time>2019-03-16T06:48:35Z</time>
            </trkpt>
            <trkpt lon="101.539069" lat="12.944755">
                <ele>41.500000</ele>
                <time>2019-03-16T06:48:36Z</time>
            </trkpt>
            <trkpt lon="101.539022" lat="12.944729">
                <ele>41.600000</ele>
                <time>2019-03-16T06:48:37Z</time>
            </trkpt>
            <trkpt lon="101.538977" lat="12.944697">
                <ele>41.600000</ele>
                <time>2019-03-16T06:48:38Z</time>
            </trkpt>
            <trkpt lon="101.538931" lat="12.944665">
                <ele>41.600000</ele>
                <time>2019-03-16T06:48:39Z</time>
            </trkpt>
            <trkpt lon="101.538891" lat="12.944638">
                <ele>41.600000</ele>
                <time>2019-03-16T06:48:40Z</time>
            </trkpt>
            <trkpt lon="101.538852" lat="12.944607">
                <ele>41.600000</ele>
                <time>2019-03-16T06:48:41Z</time>
            </trkpt>
            <trkpt lon="101.538816" lat="12.944575">
                <ele>41.600000</ele>
                <time>2019-03-16T06:48:42Z</time>
            </trkpt>
            <trkpt lon="101.538784" lat="12.944535">
                <ele>41.600000</ele>
                <time>2019-03-16T06:48:43Z</time>
            </trkpt>
            <trkpt lon="101.538757" lat="12.944494">
                <ele>41.600000</ele>
                <time>2019-03-16T06:48:44Z</time>
            </trkpt>
            <trkpt lon="101.538723" lat="12.944451">
                <ele>41.600000</ele>
                <time>2019-03-16T06:48:45Z</time>
            </trkpt>
            <trkpt lon="101.538690" lat="12.944409">
                <ele>41.600000</ele>
                <time>2019-03-16T06:48:46Z</time>
            </trkpt>
            <trkpt lon="101.538652" lat="12.944366">
                <ele>41.600000</ele>
                <time>2019-03-16T06:48:47Z</time>
            </trkpt>
            <trkpt lon="101.538622" lat="12.944330">
                <ele>41.600000</ele>
                <time>2019-03-16T06:48:48Z</time>
            </trkpt>
            <trkpt lon="101.538592" lat="12.944291">
                <ele>41.600000</ele>
                <time>2019-03-16T06:48:49Z</time>
            </trkpt>
            <trkpt lon="101.538554" lat="12.944250">
                <ele>41.600000</ele>
                <time>2019-03-16T06:48:50Z</time>
            </trkpt>
            <trkpt lon="101.538518" lat="12.944211">
                <ele>41.600000</ele>
                <time>2019-03-16T06:48:51Z</time>
            </trkpt>
            <trkpt lon="101.538488" lat="12.944171">
                <ele>41.600000</ele>
                <time>2019-03-16T06:48:52Z</time>
            </trkpt>
            <trkpt lon="101.538459" lat="12.944132">
                <ele>41.600000</ele>
                <time>2019-03-16T06:48:53Z</time>
            </trkpt>
            <trkpt lon="101.538427" lat="12.944094">
                <ele>41.600000</ele>
                <time>2019-03-16T06:48:54Z</time>
            </trkpt>
            <trkpt lon="101.538398" lat="12.944054">
                <ele>41.600000</ele>
                <time>2019-03-16T06:48:55Z</time>
            </trkpt>
            <trkpt lon="101.538363" lat="12.944016">
                <ele>41.600000</ele>
                <time>2019-03-16T06:48:56Z</time>
            </trkpt>
            <trkpt lon="101.538329" lat="12.943976">
                <ele>41.600000</ele>
                <time>2019-03-16T06:48:57Z</time>
            </trkpt>
            <trkpt lon="101.538292" lat="12.943935">
                <ele>41.600000</ele>
                <time>2019-03-16T06:48:58Z</time>
            </trkpt>
            <trkpt lon="101.538262" lat="12.943898">
                <ele>41.600000</ele>
                <time>2019-03-16T06:48:59Z</time>
            </trkpt>
            <trkpt lon="101.538225" lat="12.943860">
                <ele>41.600000</ele>
                <time>2019-03-16T06:49:00Z</time>
            </trkpt>
            <trkpt lon="101.538195" lat="12.943825">
                <ele>41.600000</ele>
                <time>2019-03-16T06:49:01Z</time>
            </trkpt>
            <trkpt lon="101.538169" lat="12.943793">
                <ele>41.600000</ele>
                <time>2019-03-16T06:49:02Z</time>
            </trkpt>
            <trkpt lon="101.538142" lat="12.943758">
                <ele>41.600000</ele>
                <time>2019-03-16T06:49:03Z</time>
            </trkpt>
            <trkpt lon="101.538114" lat="12.943725">
                <ele>41.600000</ele>
                <time>2019-03-16T06:49:04Z</time>
            </trkpt>
            <trkpt lon="101.538083" lat="12.943691">
                <ele>41.500000</ele>
                <time>2019-03-16T06:49:05Z</time>
            </trkpt>
            <trkpt lon="101.538052" lat="12.943657">
                <ele>41.500000</ele>
                <time>2019-03-16T06:49:06Z</time>
            </trkpt>
            <trkpt lon="101.538020" lat="12.943622">
                <ele>41.500000</ele>
                <time>2019-03-16T06:49:07Z</time>
            </trkpt>
            <trkpt lon="101.537988" lat="12.943586">
                <ele>41.500000</ele>
                <time>2019-03-16T06:49:08Z</time>
            </trkpt>
            <trkpt lon="101.537961" lat="12.943550">
                <ele>41.500000</ele>
                <time>2019-03-16T06:49:09Z</time>
            </trkpt>
            <trkpt lon="101.537933" lat="12.943515">
                <ele>41.400000</ele>
                <time>2019-03-16T06:49:10Z</time>
            </trkpt>
            <trkpt lon="101.537906" lat="12.943480">
                <ele>41.400000</ele>
                <time>2019-03-16T06:49:11Z</time>
            </trkpt>
            <trkpt lon="101.537877" lat="12.943445">
                <ele>41.400000</ele>
                <time>2019-03-16T06:49:12Z</time>
            </trkpt>
            <trkpt lon="101.537847" lat="12.943410">
                <ele>41.300000</ele>
                <time>2019-03-16T06:49:13Z</time>
            </trkpt>
            <trkpt lon="101.537817" lat="12.943374">
                <ele>41.300000</ele>
                <time>2019-03-16T06:49:14Z</time>
            </trkpt>
            <trkpt lon="101.537788" lat="12.943340">
                <ele>41.200000</ele>
                <time>2019-03-16T06:49:15Z</time>
            </trkpt>
            <trkpt lon="101.537756" lat="12.943300">
                <ele>41.200000</ele>
                <time>2019-03-16T06:49:16Z</time>
            </trkpt>
            <trkpt lon="101.537725" lat="12.943263">
                <ele>41.100000</ele>
                <time>2019-03-16T06:49:17Z</time>
            </trkpt>
            <trkpt lon="101.537694" lat="12.943227">
                <ele>41.000000</ele>
                <time>2019-03-16T06:49:18Z</time>
            </trkpt>
            <trkpt lon="101.537667" lat="12.943195">
                <ele>41.000000</ele>
                <time>2019-03-16T06:49:19Z</time>
            </trkpt>
            <trkpt lon="101.537638" lat="12.943159">
                <ele>40.900000</ele>
                <time>2019-03-16T06:49:20Z</time>
            </trkpt>
            <trkpt lon="101.537611" lat="12.943127">
                <ele>40.900000</ele>
                <time>2019-03-16T06:49:21Z</time>
            </trkpt>
            <trkpt lon="101.537582" lat="12.943094">
                <ele>40.800000</ele>
                <time>2019-03-16T06:49:22Z</time>
            </trkpt>
            <trkpt lon="101.537556" lat="12.943062">
                <ele>40.800000</ele>
                <time>2019-03-16T06:49:23Z</time>
            </trkpt>
            <trkpt lon="101.537529" lat="12.943032">
                <ele>40.700000</ele>
                <time>2019-03-16T06:49:24Z</time>
            </trkpt>
            <trkpt lon="101.537506" lat="12.943003">
                <ele>40.700000</ele>
                <time>2019-03-16T06:49:25Z</time>
            </trkpt>
            <trkpt lon="101.537487" lat="12.942975">
                <ele>40.600000</ele>
                <time>2019-03-16T06:49:26Z</time>
            </trkpt>
            <trkpt lon="101.537465" lat="12.942948">
                <ele>40.600000</ele>
                <time>2019-03-16T06:49:27Z</time>
            </trkpt>
            <trkpt lon="101.537446" lat="12.942922">
                <ele>40.600000</ele>
                <time>2019-03-16T06:49:28Z</time>
            </trkpt>
            <trkpt lon="101.537422" lat="12.942897">
                <ele>40.500000</ele>
                <time>2019-03-16T06:49:29Z</time>
            </trkpt>
            <trkpt lon="101.537403" lat="12.942875">
                <ele>40.500000</ele>
                <time>2019-03-16T06:49:30Z</time>
            </trkpt>
            <trkpt lon="101.537385" lat="12.942853">
                <ele>40.500000</ele>
                <time>2019-03-16T06:49:31Z</time>
            </trkpt>
            <trkpt lon="101.537366" lat="12.942830">
                <ele>40.400000</ele>
                <time>2019-03-16T06:49:32Z</time>
            </trkpt>
            <trkpt lon="101.537347" lat="12.942806">
                <ele>40.400000</ele>
                <time>2019-03-16T06:49:33Z</time>
            </trkpt>
            <trkpt lon="101.537325" lat="12.942774">
                <ele>40.400000</ele>
                <time>2019-03-16T06:49:35Z</time>
            </trkpt>
            <trkpt lon="101.537305" lat="12.942744">
                <ele>40.300000</ele>
                <time>2019-03-16T06:49:38Z</time>
            </trkpt>
            <trkpt lon="101.537282" lat="12.942715">
                <ele>40.300000</ele>
                <time>2019-03-16T06:49:43Z</time>
            </trkpt>
            <trkpt lon="101.537252" lat="12.942679">
                <ele>40.400000</ele>
                <time>2019-03-16T06:49:45Z</time>
            </trkpt>
            <trkpt lon="101.537200" lat="12.942663">
                <ele>40.500000</ele>
                <time>2019-03-16T06:49:47Z</time>
            </trkpt>
            <trkpt lon="101.537167" lat="12.942661">
                <ele>40.600000</ele>
                <time>2019-03-16T06:49:48Z</time>
            </trkpt>
            <trkpt lon="101.537131" lat="12.942664">
                <ele>40.600000</ele>
                <time>2019-03-16T06:49:49Z</time>
            </trkpt>
            <trkpt lon="101.537093" lat="12.942666">
                <ele>40.700000</ele>
                <time>2019-03-16T06:49:50Z</time>
            </trkpt>
            <trkpt lon="101.537056" lat="12.942670">
                <ele>40.900000</ele>
                <time>2019-03-16T06:49:51Z</time>
            </trkpt>
            <trkpt lon="101.537015" lat="12.942674">
                <ele>41.000000</ele>
                <time>2019-03-16T06:49:52Z</time>
            </trkpt>
            <trkpt lon="101.536974" lat="12.942678">
                <ele>41.200000</ele>
                <time>2019-03-16T06:49:53Z</time>
            </trkpt>
            <trkpt lon="101.536934" lat="12.942680">
                <ele>41.300000</ele>
                <time>2019-03-16T06:49:54Z</time>
            </trkpt>
            <trkpt lon="101.536895" lat="12.942681">
                <ele>41.300000</ele>
                <time>2019-03-16T06:49:55Z</time>
            </trkpt>
            <trkpt lon="101.536855" lat="12.942680">
                <ele>41.300000</ele>
                <time>2019-03-16T06:49:56Z</time>
            </trkpt>
            <trkpt lon="101.536819" lat="12.942679">
                <ele>41.300000</ele>
                <time>2019-03-16T06:49:57Z</time>
            </trkpt>
            <trkpt lon="101.536784" lat="12.942677">
                <ele>41.300000</ele>
                <time>2019-03-16T06:49:58Z</time>
            </trkpt>
            <trkpt lon="101.536747" lat="12.942676">
                <ele>41.300000</ele>
                <time>2019-03-16T06:49:59Z</time>
            </trkpt>
            <trkpt lon="101.536710" lat="12.942676">
                <ele>41.200000</ele>
                <time>2019-03-16T06:50:00Z</time>
            </trkpt>
            <trkpt lon="101.536675" lat="12.942677">
                <ele>41.200000</ele>
                <time>2019-03-16T06:50:01Z</time>
            </trkpt>
            <trkpt lon="101.536640" lat="12.942680">
                <ele>41.100000</ele>
                <time>2019-03-16T06:50:02Z</time>
            </trkpt>
            <trkpt lon="101.536604" lat="12.942682">
                <ele>40.700000</ele>
                <time>2019-03-16T06:50:03Z</time>
            </trkpt>
            <trkpt lon="101.536567" lat="12.942683">
                <ele>40.300000</ele>
                <time>2019-03-16T06:50:04Z</time>
            </trkpt>
            <trkpt lon="101.536533" lat="12.942684">
                <ele>40.000000</ele>
                <time>2019-03-16T06:50:05Z</time>
            </trkpt>
            <trkpt lon="101.536498" lat="12.942684">
                <ele>39.800000</ele>
                <time>2019-03-16T06:50:06Z</time>
            </trkpt>
            <trkpt lon="101.536460" lat="12.942684">
                <ele>39.600000</ele>
                <time>2019-03-16T06:50:07Z</time>
            </trkpt>
            <trkpt lon="101.536422" lat="12.942685">
                <ele>39.600000</ele>
                <time>2019-03-16T06:50:08Z</time>
            </trkpt>
            <trkpt lon="101.536380" lat="12.942684">
                <ele>39.500000</ele>
                <time>2019-03-16T06:50:09Z</time>
            </trkpt>
            <trkpt lon="101.536338" lat="12.942684">
                <ele>39.400000</ele>
                <time>2019-03-16T06:50:10Z</time>
            </trkpt>
            <trkpt lon="101.536295" lat="12.942685">
                <ele>39.400000</ele>
                <time>2019-03-16T06:50:11Z</time>
            </trkpt>
            <trkpt lon="101.536252" lat="12.942684">
                <ele>39.300000</ele>
                <time>2019-03-16T06:50:12Z</time>
            </trkpt>
            <trkpt lon="101.536210" lat="12.942685">
                <ele>39.300000</ele>
                <time>2019-03-16T06:50:13Z</time>
            </trkpt>
            <trkpt lon="101.536167" lat="12.942685">
                <ele>39.200000</ele>
                <time>2019-03-16T06:50:14Z</time>
            </trkpt>
            <trkpt lon="101.536124" lat="12.942686">
                <ele>39.100000</ele>
                <time>2019-03-16T06:50:15Z</time>
            </trkpt>
            <trkpt lon="101.536083" lat="12.942687">
                <ele>39.100000</ele>
                <time>2019-03-16T06:50:16Z</time>
            </trkpt>
            <trkpt lon="101.536041" lat="12.942688">
                <ele>39.000000</ele>
                <time>2019-03-16T06:50:17Z</time>
            </trkpt>
            <trkpt lon="101.536000" lat="12.942689">
                <ele>39.000000</ele>
                <time>2019-03-16T06:50:18Z</time>
            </trkpt>
            <trkpt lon="101.535959" lat="12.942690">
                <ele>39.000000</ele>
                <time>2019-03-16T06:50:19Z</time>
            </trkpt>
            <trkpt lon="101.535916" lat="12.942691">
                <ele>38.900000</ele>
                <time>2019-03-16T06:50:20Z</time>
            </trkpt>
            <trkpt lon="101.535871" lat="12.942691">
                <ele>38.900000</ele>
                <time>2019-03-16T06:50:21Z</time>
            </trkpt>
            <trkpt lon="101.535826" lat="12.942693">
                <ele>38.800000</ele>
                <time>2019-03-16T06:50:22Z</time>
            </trkpt>
            <trkpt lon="101.535781" lat="12.942695">
                <ele>38.800000</ele>
                <time>2019-03-16T06:50:23Z</time>
            </trkpt>
            <trkpt lon="101.535735" lat="12.942697">
                <ele>38.700000</ele>
                <time>2019-03-16T06:50:24Z</time>
            </trkpt>
            <trkpt lon="101.535691" lat="12.942700">
                <ele>38.700000</ele>
                <time>2019-03-16T06:50:25Z</time>
            </trkpt>
            <trkpt lon="101.535647" lat="12.942704">
                <ele>38.700000</ele>
                <time>2019-03-16T06:50:26Z</time>
            </trkpt>
            <trkpt lon="101.535603" lat="12.942707">
                <ele>38.600000</ele>
                <time>2019-03-16T06:50:27Z</time>
            </trkpt>
            <trkpt lon="101.535561" lat="12.942711">
                <ele>38.600000</ele>
                <time>2019-03-16T06:50:28Z</time>
            </trkpt>
            <trkpt lon="101.535518" lat="12.942714">
                <ele>38.500000</ele>
                <time>2019-03-16T06:50:29Z</time>
            </trkpt>
            <trkpt lon="101.535475" lat="12.942719">
                <ele>38.400000</ele>
                <time>2019-03-16T06:50:30Z</time>
            </trkpt>
            <trkpt lon="101.535434" lat="12.942725">
                <ele>38.400000</ele>
                <time>2019-03-16T06:50:31Z</time>
            </trkpt>
            <trkpt lon="101.535392" lat="12.942729">
                <ele>38.300000</ele>
                <time>2019-03-16T06:50:32Z</time>
            </trkpt>
            <trkpt lon="101.535350" lat="12.942731">
                <ele>38.300000</ele>
                <time>2019-03-16T06:50:33Z</time>
            </trkpt>
            <trkpt lon="101.535305" lat="12.942732">
                <ele>38.200000</ele>
                <time>2019-03-16T06:50:34Z</time>
            </trkpt>
            <trkpt lon="101.535258" lat="12.942732">
                <ele>38.100000</ele>
                <time>2019-03-16T06:50:35Z</time>
            </trkpt>
            <trkpt lon="101.535213" lat="12.942729">
                <ele>38.000000</ele>
                <time>2019-03-16T06:50:36Z</time>
            </trkpt>
            <trkpt lon="101.535169" lat="12.942729">
                <ele>37.900000</ele>
                <time>2019-03-16T06:50:37Z</time>
            </trkpt>
            <trkpt lon="101.535123" lat="12.942728">
                <ele>37.800000</ele>
                <time>2019-03-16T06:50:38Z</time>
            </trkpt>
            <trkpt lon="101.535073" lat="12.942726">
                <ele>37.700000</ele>
                <time>2019-03-16T06:50:39Z</time>
            </trkpt>
            <trkpt lon="101.535025" lat="12.942725">
                <ele>37.600000</ele>
                <time>2019-03-16T06:50:40Z</time>
            </trkpt>
            <trkpt lon="101.534975" lat="12.942722">
                <ele>37.500000</ele>
                <time>2019-03-16T06:50:41Z</time>
            </trkpt>
            <trkpt lon="101.534921" lat="12.942716">
                <ele>37.400000</ele>
                <time>2019-03-16T06:50:42Z</time>
            </trkpt>
            <trkpt lon="101.534867" lat="12.942710">
                <ele>37.300000</ele>
                <time>2019-03-16T06:50:43Z</time>
            </trkpt>
            <trkpt lon="101.534812" lat="12.942702">
                <ele>37.200000</ele>
                <time>2019-03-16T06:50:44Z</time>
            </trkpt>
            <trkpt lon="101.534755" lat="12.942694">
                <ele>37.000000</ele>
                <time>2019-03-16T06:50:45Z</time>
            </trkpt>
            <trkpt lon="101.534697" lat="12.942685">
                <ele>36.900000</ele>
                <time>2019-03-16T06:50:46Z</time>
            </trkpt>
            <trkpt lon="101.534632" lat="12.942674">
                <ele>36.700000</ele>
                <time>2019-03-16T06:50:47Z</time>
            </trkpt>
            <trkpt lon="101.534570" lat="12.942656">
                <ele>36.600000</ele>
                <time>2019-03-16T06:50:48Z</time>
            </trkpt>
            <trkpt lon="101.534509" lat="12.942640">
                <ele>36.500000</ele>
                <time>2019-03-16T06:50:49Z</time>
            </trkpt>
            <trkpt lon="101.534447" lat="12.942621">
                <ele>36.300000</ele>
                <time>2019-03-16T06:50:50Z</time>
            </trkpt>
            <trkpt lon="101.534384" lat="12.942600">
                <ele>36.200000</ele>
                <time>2019-03-16T06:50:51Z</time>
            </trkpt>
            <trkpt lon="101.534319" lat="12.942578">
                <ele>36.100000</ele>
                <time>2019-03-16T06:50:52Z</time>
            </trkpt>
            <trkpt lon="101.534259" lat="12.942551">
                <ele>36.000000</ele>
                <time>2019-03-16T06:50:53Z</time>
            </trkpt>
            <trkpt lon="101.534199" lat="12.942523">
                <ele>35.900000</ele>
                <time>2019-03-16T06:50:54Z</time>
            </trkpt>
            <trkpt lon="101.534139" lat="12.942495">
                <ele>35.800000</ele>
                <time>2019-03-16T06:50:55Z</time>
            </trkpt>
            <trkpt lon="101.534080" lat="12.942466">
                <ele>35.700000</ele>
                <time>2019-03-16T06:50:56Z</time>
            </trkpt>
            <trkpt lon="101.534021" lat="12.942443">
                <ele>35.600000</ele>
                <time>2019-03-16T06:50:57Z</time>
            </trkpt>
            <trkpt lon="101.533964" lat="12.942417">
                <ele>35.500000</ele>
                <time>2019-03-16T06:50:58Z</time>
            </trkpt>
            <trkpt lon="101.533908" lat="12.942393">
                <ele>35.500000</ele>
                <time>2019-03-16T06:50:59Z</time>
            </trkpt>
            <trkpt lon="101.533855" lat="12.942369">
                <ele>35.400000</ele>
                <time>2019-03-16T06:51:00Z</time>
            </trkpt>
            <trkpt lon="101.533803" lat="12.942348">
                <ele>35.400000</ele>
                <time>2019-03-16T06:51:01Z</time>
            </trkpt>
            <trkpt lon="101.533751" lat="12.942324">
                <ele>35.300000</ele>
                <time>2019-03-16T06:51:02Z</time>
            </trkpt>
            <trkpt lon="101.533700" lat="12.942301">
                <ele>35.300000</ele>
                <time>2019-03-16T06:51:03Z</time>
            </trkpt>
            <trkpt lon="101.533650" lat="12.942278">
                <ele>35.200000</ele>
                <time>2019-03-16T06:51:04Z</time>
            </trkpt>
            <trkpt lon="101.533599" lat="12.942253">
                <ele>35.200000</ele>
                <time>2019-03-16T06:51:05Z</time>
            </trkpt>
            <trkpt lon="101.533551" lat="12.942228">
                <ele>35.200000</ele>
                <time>2019-03-16T06:51:06Z</time>
            </trkpt>
            <trkpt lon="101.533502" lat="12.942201">
                <ele>35.100000</ele>
                <time>2019-03-16T06:51:07Z</time>
            </trkpt>
            <trkpt lon="101.533453" lat="12.942173">
                <ele>35.100000</ele>
                <time>2019-03-16T06:51:08Z</time>
            </trkpt>
            <trkpt lon="101.533406" lat="12.942145">
                <ele>35.000000</ele>
                <time>2019-03-16T06:51:09Z</time>
            </trkpt>
            <trkpt lon="101.533363" lat="12.942119">
                <ele>35.000000</ele>
                <time>2019-03-16T06:51:10Z</time>
            </trkpt>
            <trkpt lon="101.533317" lat="12.942091">
                <ele>35.000000</ele>
                <time>2019-03-16T06:51:11Z</time>
            </trkpt>
            <trkpt lon="101.533270" lat="12.942063">
                <ele>34.900000</ele>
                <time>2019-03-16T06:51:12Z</time>
            </trkpt>
            <trkpt lon="101.533225" lat="12.942036">
                <ele>34.900000</ele>
                <time>2019-03-16T06:51:13Z</time>
            </trkpt>
            <trkpt lon="101.533184" lat="12.942011">
                <ele>34.900000</ele>
                <time>2019-03-16T06:51:14Z</time>
            </trkpt>
            <trkpt lon="101.533139" lat="12.941984">
                <ele>34.900000</ele>
                <time>2019-03-16T06:51:15Z</time>
            </trkpt>
            <trkpt lon="101.533093" lat="12.941957">
                <ele>34.900000</ele>
                <time>2019-03-16T06:51:16Z</time>
            </trkpt>
            <trkpt lon="101.533048" lat="12.941931">
                <ele>34.900000</ele>
                <time>2019-03-16T06:51:17Z</time>
            </trkpt>
            <trkpt lon="101.533000" lat="12.941904">
                <ele>34.900000</ele>
                <time>2019-03-16T06:51:18Z</time>
            </trkpt>
            <trkpt lon="101.532953" lat="12.941877">
                <ele>34.800000</ele>
                <time>2019-03-16T06:51:19Z</time>
            </trkpt>
            <trkpt lon="101.532906" lat="12.941850">
                <ele>34.800000</ele>
                <time>2019-03-16T06:51:20Z</time>
            </trkpt>
            <trkpt lon="101.532857" lat="12.941822">
                <ele>34.800000</ele>
                <time>2019-03-16T06:51:21Z</time>
            </trkpt>
            <trkpt lon="101.532809" lat="12.941795">
                <ele>34.800000</ele>
                <time>2019-03-16T06:51:22Z</time>
            </trkpt>
            <trkpt lon="101.532762" lat="12.941768">
                <ele>34.800000</ele>
                <time>2019-03-16T06:51:23Z</time>
            </trkpt>
            <trkpt lon="101.532717" lat="12.941742">
                <ele>34.800000</ele>
                <time>2019-03-16T06:51:24Z</time>
            </trkpt>
            <trkpt lon="101.532671" lat="12.941716">
                <ele>34.800000</ele>
                <time>2019-03-16T06:51:25Z</time>
            </trkpt>
            <trkpt lon="101.532625" lat="12.941689">
                <ele>34.800000</ele>
                <time>2019-03-16T06:51:26Z</time>
            </trkpt>
            <trkpt lon="101.532579" lat="12.941662">
                <ele>34.800000</ele>
                <time>2019-03-16T06:51:27Z</time>
            </trkpt>
            <trkpt lon="101.532532" lat="12.941634">
                <ele>34.800000</ele>
                <time>2019-03-16T06:51:28Z</time>
            </trkpt>
            <trkpt lon="101.532484" lat="12.941605">
                <ele>34.700000</ele>
                <time>2019-03-16T06:51:29Z</time>
            </trkpt>
            <trkpt lon="101.532436" lat="12.941576">
                <ele>34.700000</ele>
                <time>2019-03-16T06:51:30Z</time>
            </trkpt>
            <trkpt lon="101.532388" lat="12.941546">
                <ele>34.700000</ele>
                <time>2019-03-16T06:51:31Z</time>
            </trkpt>
            <trkpt lon="101.532341" lat="12.941514">
                <ele>34.700000</ele>
                <time>2019-03-16T06:51:32Z</time>
            </trkpt>
            <trkpt lon="101.532299" lat="12.941483">
                <ele>34.700000</ele>
                <time>2019-03-16T06:51:33Z</time>
            </trkpt>
            <trkpt lon="101.532255" lat="12.941453">
                <ele>34.700000</ele>
                <time>2019-03-16T06:51:34Z</time>
            </trkpt>
            <trkpt lon="101.532211" lat="12.941424">
                <ele>34.700000</ele>
                <time>2019-03-16T06:51:35Z</time>
            </trkpt>
            <trkpt lon="101.532167" lat="12.941396">
                <ele>34.800000</ele>
                <time>2019-03-16T06:51:36Z</time>
            </trkpt>
            <trkpt lon="101.532125" lat="12.941369">
                <ele>34.800000</ele>
                <time>2019-03-16T06:51:37Z</time>
            </trkpt>
            <trkpt lon="101.532082" lat="12.941344">
                <ele>34.800000</ele>
                <time>2019-03-16T06:51:38Z</time>
            </trkpt>
            <trkpt lon="101.532042" lat="12.941322">
                <ele>34.800000</ele>
                <time>2019-03-16T06:51:39Z</time>
            </trkpt>
            <trkpt lon="101.532002" lat="12.941301">
                <ele>34.800000</ele>
                <time>2019-03-16T06:51:40Z</time>
            </trkpt>
            <trkpt lon="101.531965" lat="12.941281">
                <ele>34.900000</ele>
                <time>2019-03-16T06:51:41Z</time>
            </trkpt>
            <trkpt lon="101.531931" lat="12.941263">
                <ele>34.900000</ele>
                <time>2019-03-16T06:51:42Z</time>
            </trkpt>
            <trkpt lon="101.531896" lat="12.941245">
                <ele>35.000000</ele>
                <time>2019-03-16T06:51:43Z</time>
            </trkpt>
            <trkpt lon="101.531858" lat="12.941224">
                <ele>35.000000</ele>
                <time>2019-03-16T06:51:44Z</time>
            </trkpt>
            <trkpt lon="101.531817" lat="12.941203">
                <ele>35.100000</ele>
                <time>2019-03-16T06:51:45Z</time>
            </trkpt>
            <trkpt lon="101.531778" lat="12.941183">
                <ele>35.100000</ele>
                <time>2019-03-16T06:51:46Z</time>
            </trkpt>
            <trkpt lon="101.531738" lat="12.941163">
                <ele>35.200000</ele>
                <time>2019-03-16T06:51:47Z</time>
            </trkpt>
            <trkpt lon="101.531700" lat="12.941144">
                <ele>35.300000</ele>
                <time>2019-03-16T06:51:48Z</time>
            </trkpt>
            <trkpt lon="101.531661" lat="12.941126">
                <ele>35.300000</ele>
                <time>2019-03-16T06:51:49Z</time>
            </trkpt>
            <trkpt lon="101.531623" lat="12.941107">
                <ele>35.400000</ele>
                <time>2019-03-16T06:51:50Z</time>
            </trkpt>
            <trkpt lon="101.531585" lat="12.941088">
                <ele>35.400000</ele>
                <time>2019-03-16T06:51:51Z</time>
            </trkpt>
            <trkpt lon="101.531548" lat="12.941067">
                <ele>35.500000</ele>
                <time>2019-03-16T06:51:52Z</time>
            </trkpt>
            <trkpt lon="101.531509" lat="12.941047">
                <ele>35.600000</ele>
                <time>2019-03-16T06:51:53Z</time>
            </trkpt>
            <trkpt lon="101.531471" lat="12.941027">
                <ele>35.600000</ele>
                <time>2019-03-16T06:51:54Z</time>
            </trkpt>
            <trkpt lon="101.531434" lat="12.941006">
                <ele>35.700000</ele>
                <time>2019-03-16T06:51:55Z</time>
            </trkpt>
            <trkpt lon="101.531397" lat="12.940986">
                <ele>35.700000</ele>
                <time>2019-03-16T06:51:56Z</time>
            </trkpt>
            <trkpt lon="101.531360" lat="12.940967">
                <ele>35.800000</ele>
                <time>2019-03-16T06:51:57Z</time>
            </trkpt>
            <trkpt lon="101.531322" lat="12.940949">
                <ele>35.900000</ele>
                <time>2019-03-16T06:51:58Z</time>
            </trkpt>
            <trkpt lon="101.531285" lat="12.940929">
                <ele>35.900000</ele>
                <time>2019-03-16T06:51:59Z</time>
            </trkpt>
            <trkpt lon="101.531251" lat="12.940903">
                <ele>36.000000</ele>
                <time>2019-03-16T06:52:00Z</time>
            </trkpt>
            <trkpt lon="101.531216" lat="12.940877">
                <ele>36.000000</ele>
                <time>2019-03-16T06:52:01Z</time>
            </trkpt>
            <trkpt lon="101.531179" lat="12.940853">
                <ele>36.100000</ele>
                <time>2019-03-16T06:52:02Z</time>
            </trkpt>
            <trkpt lon="101.531146" lat="12.940829">
                <ele>36.100000</ele>
                <time>2019-03-16T06:52:03Z</time>
            </trkpt>
            <trkpt lon="101.531112" lat="12.940806">
                <ele>36.200000</ele>
                <time>2019-03-16T06:52:04Z</time>
            </trkpt>
            <trkpt lon="101.531081" lat="12.940783">
                <ele>36.200000</ele>
                <time>2019-03-16T06:52:05Z</time>
            </trkpt>
            <trkpt lon="101.531047" lat="12.940761">
                <ele>36.300000</ele>
                <time>2019-03-16T06:52:06Z</time>
            </trkpt>
            <trkpt lon="101.531013" lat="12.940741">
                <ele>36.300000</ele>
                <time>2019-03-16T06:52:07Z</time>
            </trkpt>
            <trkpt lon="101.530979" lat="12.940721">
                <ele>36.300000</ele>
                <time>2019-03-16T06:52:08Z</time>
            </trkpt>
            <trkpt lon="101.530947" lat="12.940702">
                <ele>36.400000</ele>
                <time>2019-03-16T06:52:09Z</time>
            </trkpt>
            <trkpt lon="101.530914" lat="12.940685">
                <ele>36.400000</ele>
                <time>2019-03-16T06:52:10Z</time>
            </trkpt>
            <trkpt lon="101.530891" lat="12.940665">
                <ele>36.400000</ele>
                <time>2019-03-16T06:52:11Z</time>
            </trkpt>
            <trkpt lon="101.530860" lat="12.940650">
                <ele>36.500000</ele>
                <time>2019-03-16T06:52:12Z</time>
            </trkpt>
            <trkpt lon="101.530826" lat="12.940634">
                <ele>36.500000</ele>
                <time>2019-03-16T06:52:13Z</time>
            </trkpt>
            <trkpt lon="101.530794" lat="12.940620">
                <ele>36.500000</ele>
                <time>2019-03-16T06:52:14Z</time>
            </trkpt>
            <trkpt lon="101.530759" lat="12.940606">
                <ele>36.500000</ele>
                <time>2019-03-16T06:52:15Z</time>
            </trkpt>
            <trkpt lon="101.530722" lat="12.940589">
                <ele>36.600000</ele>
                <time>2019-03-16T06:52:16Z</time>
            </trkpt>
            <trkpt lon="101.530684" lat="12.940572">
                <ele>36.600000</ele>
                <time>2019-03-16T06:52:17Z</time>
            </trkpt>
            <trkpt lon="101.530645" lat="12.940553">
                <ele>36.700000</ele>
                <time>2019-03-16T06:52:18Z</time>
            </trkpt>
            <trkpt lon="101.530604" lat="12.940534">
                <ele>36.700000</ele>
                <time>2019-03-16T06:52:19Z</time>
            </trkpt>
            <trkpt lon="101.530565" lat="12.940512">
                <ele>36.700000</ele>
                <time>2019-03-16T06:52:20Z</time>
            </trkpt>
            <trkpt lon="101.530526" lat="12.940491">
                <ele>36.800000</ele>
                <time>2019-03-16T06:52:21Z</time>
            </trkpt>
            <trkpt lon="101.530482" lat="12.940469">
                <ele>36.800000</ele>
                <time>2019-03-16T06:52:22Z</time>
            </trkpt>
            <trkpt lon="101.530438" lat="12.940449">
                <ele>36.900000</ele>
                <time>2019-03-16T06:52:23Z</time>
            </trkpt>
            <trkpt lon="101.530399" lat="12.940430">
                <ele>36.900000</ele>
                <time>2019-03-16T06:52:24Z</time>
            </trkpt>
            <trkpt lon="101.530361" lat="12.940411">
                <ele>36.900000</ele>
                <time>2019-03-16T06:52:25Z</time>
            </trkpt>
            <trkpt lon="101.530324" lat="12.940388">
                <ele>37.000000</ele>
                <time>2019-03-16T06:52:26Z</time>
            </trkpt>
            <trkpt lon="101.530287" lat="12.940365">
                <ele>37.000000</ele>
                <time>2019-03-16T06:52:27Z</time>
            </trkpt>
            <trkpt lon="101.530250" lat="12.940341">
                <ele>37.000000</ele>
                <time>2019-03-16T06:52:28Z</time>
            </trkpt>
            <trkpt lon="101.530213" lat="12.940319">
                <ele>37.000000</ele>
                <time>2019-03-16T06:52:29Z</time>
            </trkpt>
            <trkpt lon="101.530177" lat="12.940297">
                <ele>37.000000</ele>
                <time>2019-03-16T06:52:30Z</time>
            </trkpt>
            <trkpt lon="101.530141" lat="12.940277">
                <ele>37.100000</ele>
                <time>2019-03-16T06:52:31Z</time>
            </trkpt>
            <trkpt lon="101.530121" lat="12.940255">
                <ele>37.100000</ele>
                <time>2019-03-16T06:52:32Z</time>
            </trkpt>
            <trkpt lon="101.530093" lat="12.940234">
                <ele>37.100000</ele>
                <time>2019-03-16T06:52:33Z</time>
            </trkpt>
            <trkpt lon="101.530062" lat="12.940211">
                <ele>37.100000</ele>
                <time>2019-03-16T06:52:34Z</time>
            </trkpt>
            <trkpt lon="101.530031" lat="12.940191">
                <ele>37.200000</ele>
                <time>2019-03-16T06:52:35Z</time>
            </trkpt>
            <trkpt lon="101.529992" lat="12.940174">
                <ele>37.200000</ele>
                <time>2019-03-16T06:52:36Z</time>
            </trkpt>
            <trkpt lon="101.529950" lat="12.940154">
                <ele>37.300000</ele>
                <time>2019-03-16T06:52:37Z</time>
            </trkpt>
            <trkpt lon="101.529918" lat="12.940133">
                <ele>37.300000</ele>
                <time>2019-03-16T06:52:38Z</time>
            </trkpt>
            <trkpt lon="101.529878" lat="12.940114">
                <ele>37.300000</ele>
                <time>2019-03-16T06:52:39Z</time>
            </trkpt>
            <trkpt lon="101.529836" lat="12.940095">
                <ele>37.400000</ele>
                <time>2019-03-16T06:52:40Z</time>
            </trkpt>
            <trkpt lon="101.529793" lat="12.940076">
                <ele>37.400000</ele>
                <time>2019-03-16T06:52:41Z</time>
            </trkpt>
            <trkpt lon="101.529755" lat="12.940060">
                <ele>37.500000</ele>
                <time>2019-03-16T06:52:42Z</time>
            </trkpt>
            <trkpt lon="101.529717" lat="12.940043">
                <ele>37.600000</ele>
                <time>2019-03-16T06:52:43Z</time>
            </trkpt>
            <trkpt lon="101.529677" lat="12.940024">
                <ele>37.600000</ele>
                <time>2019-03-16T06:52:44Z</time>
            </trkpt>
            <trkpt lon="101.529638" lat="12.940007">
                <ele>37.700000</ele>
                <time>2019-03-16T06:52:45Z</time>
            </trkpt>
            <trkpt lon="101.529600" lat="12.939989">
                <ele>37.800000</ele>
                <time>2019-03-16T06:52:46Z</time>
            </trkpt>
            <trkpt lon="101.529561" lat="12.939971">
                <ele>37.800000</ele>
                <time>2019-03-16T06:52:47Z</time>
            </trkpt>
            <trkpt lon="101.529521" lat="12.939952">
                <ele>37.900000</ele>
                <time>2019-03-16T06:52:48Z</time>
            </trkpt>
            <trkpt lon="101.529482" lat="12.939934">
                <ele>38.000000</ele>
                <time>2019-03-16T06:52:49Z</time>
            </trkpt>
            <trkpt lon="101.529442" lat="12.939915">
                <ele>38.100000</ele>
                <time>2019-03-16T06:52:50Z</time>
            </trkpt>
            <trkpt lon="101.529401" lat="12.939896">
                <ele>38.300000</ele>
                <time>2019-03-16T06:52:51Z</time>
            </trkpt>
            <trkpt lon="101.529361" lat="12.939878">
                <ele>38.400000</ele>
                <time>2019-03-16T06:52:52Z</time>
            </trkpt>
            <trkpt lon="101.529321" lat="12.939859">
                <ele>38.500000</ele>
                <time>2019-03-16T06:52:53Z</time>
            </trkpt>
            <trkpt lon="101.529282" lat="12.939840">
                <ele>38.600000</ele>
                <time>2019-03-16T06:52:54Z</time>
            </trkpt>
            <trkpt lon="101.529242" lat="12.939821">
                <ele>38.700000</ele>
                <time>2019-03-16T06:52:55Z</time>
            </trkpt>
            <trkpt lon="101.529203" lat="12.939801">
                <ele>38.800000</ele>
                <time>2019-03-16T06:52:56Z</time>
            </trkpt>
            <trkpt lon="101.529165" lat="12.939781">
                <ele>38.800000</ele>
                <time>2019-03-16T06:52:57Z</time>
            </trkpt>
            <trkpt lon="101.529128" lat="12.939763">
                <ele>38.900000</ele>
                <time>2019-03-16T06:52:58Z</time>
            </trkpt>
            <trkpt lon="101.529090" lat="12.939745">
                <ele>39.000000</ele>
                <time>2019-03-16T06:52:59Z</time>
            </trkpt>
            <trkpt lon="101.529053" lat="12.939727">
                <ele>39.100000</ele>
                <time>2019-03-16T06:53:00Z</time>
            </trkpt>
            <trkpt lon="101.529015" lat="12.939709">
                <ele>39.200000</ele>
                <time>2019-03-16T06:53:01Z</time>
            </trkpt>
            <trkpt lon="101.528978" lat="12.939693">
                <ele>39.200000</ele>
                <time>2019-03-16T06:53:02Z</time>
            </trkpt>
            <trkpt lon="101.528940" lat="12.939676">
                <ele>39.300000</ele>
                <time>2019-03-16T06:53:03Z</time>
            </trkpt>
            <trkpt lon="101.528902" lat="12.939658">
                <ele>39.300000</ele>
                <time>2019-03-16T06:53:04Z</time>
            </trkpt>
            <trkpt lon="101.528865" lat="12.939639">
                <ele>39.400000</ele>
                <time>2019-03-16T06:53:05Z</time>
            </trkpt>
            <trkpt lon="101.528832" lat="12.939620">
                <ele>39.400000</ele>
                <time>2019-03-16T06:53:06Z</time>
            </trkpt>
            <trkpt lon="101.528798" lat="12.939601">
                <ele>39.500000</ele>
                <time>2019-03-16T06:53:07Z</time>
            </trkpt>
            <trkpt lon="101.528764" lat="12.939581">
                <ele>39.500000</ele>
                <time>2019-03-16T06:53:08Z</time>
            </trkpt>
            <trkpt lon="101.528729" lat="12.939562">
                <ele>39.600000</ele>
                <time>2019-03-16T06:53:09Z</time>
            </trkpt>
            <trkpt lon="101.528693" lat="12.939539">
                <ele>39.600000</ele>
                <time>2019-03-16T06:53:10Z</time>
            </trkpt>
            <trkpt lon="101.528658" lat="12.939519">
                <ele>39.700000</ele>
                <time>2019-03-16T06:53:11Z</time>
            </trkpt>
            <trkpt lon="101.528622" lat="12.939499">
                <ele>39.700000</ele>
                <time>2019-03-16T06:53:12Z</time>
            </trkpt>
            <trkpt lon="101.528584" lat="12.939479">
                <ele>39.800000</ele>
                <time>2019-03-16T06:53:13Z</time>
            </trkpt>
            <trkpt lon="101.528548" lat="12.939460">
                <ele>39.800000</ele>
                <time>2019-03-16T06:53:14Z</time>
            </trkpt>
            <trkpt lon="101.528511" lat="12.939441">
                <ele>39.900000</ele>
                <time>2019-03-16T06:53:15Z</time>
            </trkpt>
            <trkpt lon="101.528475" lat="12.939424">
                <ele>39.900000</ele>
                <time>2019-03-16T06:53:16Z</time>
            </trkpt>
            <trkpt lon="101.528439" lat="12.939403">
                <ele>40.000000</ele>
                <time>2019-03-16T06:53:17Z</time>
            </trkpt>
            <trkpt lon="101.528402" lat="12.939383">
                <ele>40.000000</ele>
                <time>2019-03-16T06:53:18Z</time>
            </trkpt>
            <trkpt lon="101.528368" lat="12.939365">
                <ele>40.100000</ele>
                <time>2019-03-16T06:53:19Z</time>
            </trkpt>
            <trkpt lon="101.528332" lat="12.939347">
                <ele>40.100000</ele>
                <time>2019-03-16T06:53:20Z</time>
            </trkpt>
            <trkpt lon="101.528294" lat="12.939328">
                <ele>40.200000</ele>
                <time>2019-03-16T06:53:21Z</time>
            </trkpt>
            <trkpt lon="101.528257" lat="12.939312">
                <ele>40.200000</ele>
                <time>2019-03-16T06:53:22Z</time>
            </trkpt>
            <trkpt lon="101.528221" lat="12.939295">
                <ele>40.300000</ele>
                <time>2019-03-16T06:53:23Z</time>
            </trkpt>
            <trkpt lon="101.528183" lat="12.939278">
                <ele>40.300000</ele>
                <time>2019-03-16T06:53:24Z</time>
            </trkpt>
            <trkpt lon="101.528149" lat="12.939263">
                <ele>40.400000</ele>
                <time>2019-03-16T06:53:25Z</time>
            </trkpt>
            <trkpt lon="101.528111" lat="12.939246">
                <ele>40.400000</ele>
                <time>2019-03-16T06:53:26Z</time>
            </trkpt>
            <trkpt lon="101.528074" lat="12.939229">
                <ele>40.400000</ele>
                <time>2019-03-16T06:53:27Z</time>
            </trkpt>
            <trkpt lon="101.528036" lat="12.939211">
                <ele>40.500000</ele>
                <time>2019-03-16T06:53:28Z</time>
            </trkpt>
            <trkpt lon="101.527999" lat="12.939193">
                <ele>40.500000</ele>
                <time>2019-03-16T06:53:29Z</time>
            </trkpt>
            <trkpt lon="101.527963" lat="12.939173">
                <ele>40.500000</ele>
                <time>2019-03-16T06:53:30Z</time>
            </trkpt>
            <trkpt lon="101.527925" lat="12.939153">
                <ele>40.500000</ele>
                <time>2019-03-16T06:53:31Z</time>
            </trkpt>
            <trkpt lon="101.527888" lat="12.939134">
                <ele>40.600000</ele>
                <time>2019-03-16T06:53:32Z</time>
            </trkpt>
            <trkpt lon="101.527850" lat="12.939114">
                <ele>40.600000</ele>
                <time>2019-03-16T06:53:33Z</time>
            </trkpt>
            <trkpt lon="101.527815" lat="12.939097">
                <ele>40.600000</ele>
                <time>2019-03-16T06:53:34Z</time>
            </trkpt>
            <trkpt lon="101.527779" lat="12.939078">
                <ele>40.600000</ele>
                <time>2019-03-16T06:53:35Z</time>
            </trkpt>
            <trkpt lon="101.527744" lat="12.939059">
                <ele>40.600000</ele>
                <time>2019-03-16T06:53:36Z</time>
            </trkpt>
            <trkpt lon="101.527707" lat="12.939039">
                <ele>40.600000</ele>
                <time>2019-03-16T06:53:37Z</time>
            </trkpt>
            <trkpt lon="101.527668" lat="12.939021">
                <ele>40.600000</ele>
                <time>2019-03-16T06:53:38Z</time>
            </trkpt>
            <trkpt lon="101.527631" lat="12.939002">
                <ele>40.600000</ele>
                <time>2019-03-16T06:53:39Z</time>
            </trkpt>
            <trkpt lon="101.527592" lat="12.938982">
                <ele>40.600000</ele>
                <time>2019-03-16T06:53:40Z</time>
            </trkpt>
            <trkpt lon="101.527552" lat="12.938960">
                <ele>40.600000</ele>
                <time>2019-03-16T06:53:41Z</time>
            </trkpt>
            <trkpt lon="101.527515" lat="12.938938">
                <ele>40.600000</ele>
                <time>2019-03-16T06:53:42Z</time>
            </trkpt>
            <trkpt lon="101.527475" lat="12.938917">
                <ele>40.500000</ele>
                <time>2019-03-16T06:53:43Z</time>
            </trkpt>
            <trkpt lon="101.527437" lat="12.938898">
                <ele>40.500000</ele>
                <time>2019-03-16T06:53:44Z</time>
            </trkpt>
            <trkpt lon="101.527401" lat="12.938881">
                <ele>40.400000</ele>
                <time>2019-03-16T06:53:45Z</time>
            </trkpt>
            <trkpt lon="101.527363" lat="12.938861">
                <ele>40.400000</ele>
                <time>2019-03-16T06:53:46Z</time>
            </trkpt>
            <trkpt lon="101.527330" lat="12.938841">
                <ele>40.300000</ele>
                <time>2019-03-16T06:53:47Z</time>
            </trkpt>
            <trkpt lon="101.527296" lat="12.938823">
                <ele>40.200000</ele>
                <time>2019-03-16T06:53:48Z</time>
            </trkpt>
            <trkpt lon="101.527261" lat="12.938803">
                <ele>40.100000</ele>
                <time>2019-03-16T06:53:49Z</time>
            </trkpt>
            <trkpt lon="101.527223" lat="12.938783">
                <ele>40.000000</ele>
                <time>2019-03-16T06:53:50Z</time>
            </trkpt>
            <trkpt lon="101.527202" lat="12.938764">
                <ele>40.000000</ele>
                <time>2019-03-16T06:53:51Z</time>
            </trkpt>
            <trkpt lon="101.527164" lat="12.938745">
                <ele>40.000000</ele>
                <time>2019-03-16T06:53:52Z</time>
            </trkpt>
            <trkpt lon="101.527129" lat="12.938731">
                <ele>40.000000</ele>
                <time>2019-03-16T06:53:53Z</time>
            </trkpt>
            <trkpt lon="101.527092" lat="12.938716">
                <ele>40.000000</ele>
                <time>2019-03-16T06:53:54Z</time>
            </trkpt>
            <trkpt lon="101.527060" lat="12.938703">
                <ele>40.000000</ele>
                <time>2019-03-16T06:53:55Z</time>
            </trkpt>
            <trkpt lon="101.527025" lat="12.938688">
                <ele>40.000000</ele>
                <time>2019-03-16T06:53:56Z</time>
            </trkpt>
            <trkpt lon="101.526994" lat="12.938674">
                <ele>40.000000</ele>
                <time>2019-03-16T06:53:57Z</time>
            </trkpt>
            <trkpt lon="101.526962" lat="12.938654">
                <ele>40.000000</ele>
                <time>2019-03-16T06:53:58Z</time>
            </trkpt>
            <trkpt lon="101.526927" lat="12.938637">
                <ele>40.100000</ele>
                <time>2019-03-16T06:53:59Z</time>
            </trkpt>
            <trkpt lon="101.526894" lat="12.938624">
                <ele>40.100000</ele>
                <time>2019-03-16T06:54:00Z</time>
            </trkpt>
            <trkpt lon="101.526856" lat="12.938609">
                <ele>40.100000</ele>
                <time>2019-03-16T06:54:01Z</time>
            </trkpt>
            <trkpt lon="101.526822" lat="12.938595">
                <ele>40.100000</ele>
                <time>2019-03-16T06:54:02Z</time>
            </trkpt>
            <trkpt lon="101.526788" lat="12.938574">
                <ele>40.100000</ele>
                <time>2019-03-16T06:54:03Z</time>
            </trkpt>
            <trkpt lon="101.526749" lat="12.938550">
                <ele>40.200000</ele>
                <time>2019-03-16T06:54:04Z</time>
            </trkpt>
            <trkpt lon="101.526709" lat="12.938525">
                <ele>40.200000</ele>
                <time>2019-03-16T06:54:05Z</time>
            </trkpt>
            <trkpt lon="101.526669" lat="12.938501">
                <ele>40.200000</ele>
                <time>2019-03-16T06:54:06Z</time>
            </trkpt>
            <trkpt lon="101.526627" lat="12.938481">
                <ele>40.200000</ele>
                <time>2019-03-16T06:54:07Z</time>
            </trkpt>
            <trkpt lon="101.526586" lat="12.938462">
                <ele>40.300000</ele>
                <time>2019-03-16T06:54:08Z</time>
            </trkpt>
            <trkpt lon="101.526543" lat="12.938442">
                <ele>40.300000</ele>
                <time>2019-03-16T06:54:09Z</time>
            </trkpt>
            <trkpt lon="101.526501" lat="12.938422">
                <ele>40.300000</ele>
                <time>2019-03-16T06:54:10Z</time>
            </trkpt>
            <trkpt lon="101.526461" lat="12.938403">
                <ele>40.300000</ele>
                <time>2019-03-16T06:54:11Z</time>
            </trkpt>
            <trkpt lon="101.526418" lat="12.938382">
                <ele>40.300000</ele>
                <time>2019-03-16T06:54:12Z</time>
            </trkpt>
            <trkpt lon="101.526377" lat="12.938362">
                <ele>40.300000</ele>
                <time>2019-03-16T06:54:13Z</time>
            </trkpt>
            <trkpt lon="101.526339" lat="12.938341">
                <ele>40.300000</ele>
                <time>2019-03-16T06:54:14Z</time>
            </trkpt>
            <trkpt lon="101.526301" lat="12.938321">
                <ele>40.300000</ele>
                <time>2019-03-16T06:54:15Z</time>
            </trkpt>
            <trkpt lon="101.526259" lat="12.938301">
                <ele>40.300000</ele>
                <time>2019-03-16T06:54:16Z</time>
            </trkpt>
            <trkpt lon="101.526217" lat="12.938283">
                <ele>40.300000</ele>
                <time>2019-03-16T06:54:17Z</time>
            </trkpt>
            <trkpt lon="101.526173" lat="12.938265">
                <ele>40.300000</ele>
                <time>2019-03-16T06:54:18Z</time>
            </trkpt>
            <trkpt lon="101.526130" lat="12.938247">
                <ele>40.400000</ele>
                <time>2019-03-16T06:54:19Z</time>
            </trkpt>
            <trkpt lon="101.526089" lat="12.938231">
                <ele>40.400000</ele>
                <time>2019-03-16T06:54:20Z</time>
            </trkpt>
            <trkpt lon="101.526048" lat="12.938214">
                <ele>40.500000</ele>
                <time>2019-03-16T06:54:21Z</time>
            </trkpt>
            <trkpt lon="101.526006" lat="12.938200">
                <ele>40.500000</ele>
                <time>2019-03-16T06:54:22Z</time>
            </trkpt>
            <trkpt lon="101.525961" lat="12.938183">
                <ele>40.600000</ele>
                <time>2019-03-16T06:54:23Z</time>
            </trkpt>
            <trkpt lon="101.525915" lat="12.938167">
                <ele>40.700000</ele>
                <time>2019-03-16T06:54:24Z</time>
            </trkpt>
            <trkpt lon="101.525870" lat="12.938149">
                <ele>40.900000</ele>
                <time>2019-03-16T06:54:25Z</time>
            </trkpt>
            <trkpt lon="101.525834" lat="12.938132">
                <ele>41.000000</ele>
                <time>2019-03-16T06:54:26Z</time>
            </trkpt>
            <trkpt lon="101.525787" lat="12.938117">
                <ele>41.100000</ele>
                <time>2019-03-16T06:54:27Z</time>
            </trkpt>
            <trkpt lon="101.525737" lat="12.938100">
                <ele>41.300000</ele>
                <time>2019-03-16T06:54:28Z</time>
            </trkpt>
            <trkpt lon="101.525692" lat="12.938085">
                <ele>41.400000</ele>
                <time>2019-03-16T06:54:29Z</time>
            </trkpt>
            <trkpt lon="101.525647" lat="12.938071">
                <ele>41.900000</ele>
                <time>2019-03-16T06:54:30Z</time>
            </trkpt>
            <trkpt lon="101.525603" lat="12.938056">
                <ele>41.700000</ele>
                <time>2019-03-16T06:54:31Z</time>
            </trkpt>
            <trkpt lon="101.525562" lat="12.938041">
                <ele>41.600000</ele>
                <time>2019-03-16T06:54:32Z</time>
            </trkpt>
            <trkpt lon="101.525519" lat="12.938025">
                <ele>41.500000</ele>
                <time>2019-03-16T06:54:33Z</time>
            </trkpt>
            <trkpt lon="101.525479" lat="12.938011">
                <ele>41.400000</ele>
                <time>2019-03-16T06:54:34Z</time>
            </trkpt>
            <trkpt lon="101.525436" lat="12.937998">
                <ele>41.300000</ele>
                <time>2019-03-16T06:54:35Z</time>
            </trkpt>
            <trkpt lon="101.525407" lat="12.937983">
                <ele>41.200000</ele>
                <time>2019-03-16T06:54:36Z</time>
            </trkpt>
            <trkpt lon="101.525362" lat="12.937975">
                <ele>41.200000</ele>
                <time>2019-03-16T06:54:37Z</time>
            </trkpt>
            <trkpt lon="101.525319" lat="12.937965">
                <ele>41.100000</ele>
                <time>2019-03-16T06:54:38Z</time>
            </trkpt>
            <trkpt lon="101.525274" lat="12.937950">
                <ele>41.000000</ele>
                <time>2019-03-16T06:54:39Z</time>
            </trkpt>
            <trkpt lon="101.525229" lat="12.937933">
                <ele>41.000000</ele>
                <time>2019-03-16T06:54:40Z</time>
            </trkpt>
            <trkpt lon="101.525185" lat="12.937917">
                <ele>40.900000</ele>
                <time>2019-03-16T06:54:41Z</time>
            </trkpt>
            <trkpt lon="101.525142" lat="12.937901">
                <ele>40.900000</ele>
                <time>2019-03-16T06:54:42Z</time>
            </trkpt>
            <trkpt lon="101.525100" lat="12.937886">
                <ele>40.900000</ele>
                <time>2019-03-16T06:54:43Z</time>
            </trkpt>
            <trkpt lon="101.525057" lat="12.937873">
                <ele>40.800000</ele>
                <time>2019-03-16T06:54:44Z</time>
            </trkpt>
            <trkpt lon="101.525012" lat="12.937858">
                <ele>40.800000</ele>
                <time>2019-03-16T06:54:45Z</time>
            </trkpt>
            <trkpt lon="101.524968" lat="12.937842">
                <ele>40.800000</ele>
                <time>2019-03-16T06:54:46Z</time>
            </trkpt>
            <trkpt lon="101.524924" lat="12.937830">
                <ele>40.800000</ele>
                <time>2019-03-16T06:54:47Z</time>
            </trkpt>
            <trkpt lon="101.524878" lat="12.937815">
                <ele>40.700000</ele>
                <time>2019-03-16T06:54:48Z</time>
            </trkpt>
            <trkpt lon="101.524834" lat="12.937799">
                <ele>40.700000</ele>
                <time>2019-03-16T06:54:49Z</time>
            </trkpt>
            <trkpt lon="101.524788" lat="12.937782">
                <ele>40.700000</ele>
                <time>2019-03-16T06:54:50Z</time>
            </trkpt>
            <trkpt lon="101.524761" lat="12.937766">
                <ele>40.700000</ele>
                <time>2019-03-16T06:54:51Z</time>
            </trkpt>
            <trkpt lon="101.524728" lat="12.937749">
                <ele>40.700000</ele>
                <time>2019-03-16T06:54:52Z</time>
            </trkpt>
            <trkpt lon="101.524692" lat="12.937733">
                <ele>40.700000</ele>
                <time>2019-03-16T06:54:53Z</time>
            </trkpt>
            <trkpt lon="101.524644" lat="12.937718">
                <ele>40.700000</ele>
                <time>2019-03-16T06:54:54Z</time>
            </trkpt>
            <trkpt lon="101.524597" lat="12.937705">
                <ele>40.700000</ele>
                <time>2019-03-16T06:54:55Z</time>
            </trkpt>
            <trkpt lon="101.524548" lat="12.937690">
                <ele>40.700000</ele>
                <time>2019-03-16T06:54:56Z</time>
            </trkpt>
            <trkpt lon="101.524502" lat="12.937679">
                <ele>40.700000</ele>
                <time>2019-03-16T06:54:57Z</time>
            </trkpt>
            <trkpt lon="101.524457" lat="12.937669">
                <ele>40.700000</ele>
                <time>2019-03-16T06:54:58Z</time>
            </trkpt>
            <trkpt lon="101.524410" lat="12.937656">
                <ele>40.700000</ele>
                <time>2019-03-16T06:54:59Z</time>
            </trkpt>
            <trkpt lon="101.524364" lat="12.937641">
                <ele>40.800000</ele>
                <time>2019-03-16T06:55:00Z</time>
            </trkpt>
            <trkpt lon="101.524317" lat="12.937627">
                <ele>40.800000</ele>
                <time>2019-03-16T06:55:01Z</time>
            </trkpt>
            <trkpt lon="101.524274" lat="12.937616">
                <ele>40.800000</ele>
                <time>2019-03-16T06:55:02Z</time>
            </trkpt>
            <trkpt lon="101.524232" lat="12.937604">
                <ele>40.900000</ele>
                <time>2019-03-16T06:55:03Z</time>
            </trkpt>
            <trkpt lon="101.524191" lat="12.937591">
                <ele>40.900000</ele>
                <time>2019-03-16T06:55:04Z</time>
            </trkpt>
            <trkpt lon="101.524151" lat="12.937578">
                <ele>41.000000</ele>
                <time>2019-03-16T06:55:05Z</time>
            </trkpt>
            <trkpt lon="101.524111" lat="12.937564">
                <ele>41.000000</ele>
                <time>2019-03-16T06:55:06Z</time>
            </trkpt>
            <trkpt lon="101.524069" lat="12.937550">
                <ele>41.000000</ele>
                <time>2019-03-16T06:55:07Z</time>
            </trkpt>
            <trkpt lon="101.524029" lat="12.937535">
                <ele>41.100000</ele>
                <time>2019-03-16T06:55:08Z</time>
            </trkpt>
            <trkpt lon="101.523986" lat="12.937518">
                <ele>41.200000</ele>
                <time>2019-03-16T06:55:09Z</time>
            </trkpt>
            <trkpt lon="101.523941" lat="12.937502">
                <ele>41.200000</ele>
                <time>2019-03-16T06:55:10Z</time>
            </trkpt>
            <trkpt lon="101.523898" lat="12.937489">
                <ele>41.300000</ele>
                <time>2019-03-16T06:55:11Z</time>
            </trkpt>
            <trkpt lon="101.523853" lat="12.937476">
                <ele>41.400000</ele>
                <time>2019-03-16T06:55:12Z</time>
            </trkpt>
            <trkpt lon="101.523809" lat="12.937465">
                <ele>41.500000</ele>
                <time>2019-03-16T06:55:13Z</time>
            </trkpt>
            <trkpt lon="101.523765" lat="12.937455">
                <ele>41.500000</ele>
                <time>2019-03-16T06:55:14Z</time>
            </trkpt>
            <trkpt lon="101.523724" lat="12.937447">
                <ele>41.600000</ele>
                <time>2019-03-16T06:55:15Z</time>
            </trkpt>
            <trkpt lon="101.523680" lat="12.937436">
                <ele>41.700000</ele>
                <time>2019-03-16T06:55:16Z</time>
            </trkpt>
            <trkpt lon="101.523638" lat="12.937434">
                <ele>41.800000</ele>
                <time>2019-03-16T06:55:17Z</time>
            </trkpt>
            <trkpt lon="101.523597" lat="12.937441">
                <ele>42.000000</ele>
                <time>2019-03-16T06:55:18Z</time>
            </trkpt>
            <trkpt lon="101.523552" lat="12.937451">
                <ele>42.000000</ele>
                <time>2019-03-16T06:55:19Z</time>
            </trkpt>
            <trkpt lon="101.523512" lat="12.937460">
                <ele>42.100000</ele>
                <time>2019-03-16T06:55:20Z</time>
            </trkpt>
            <trkpt lon="101.523479" lat="12.937470">
                <ele>42.100000</ele>
                <time>2019-03-16T06:55:21Z</time>
            </trkpt>
            <trkpt lon="101.523454" lat="12.937497">
                <ele>42.100000</ele>
                <time>2019-03-16T06:55:22Z</time>
            </trkpt>
            <trkpt lon="101.523443" lat="12.937540">
                <ele>42.200000</ele>
                <time>2019-03-16T06:55:23Z</time>
            </trkpt>
            <trkpt lon="101.523429" lat="12.937582">
                <ele>42.200000</ele>
                <time>2019-03-16T06:55:24Z</time>
            </trkpt>
            <trkpt lon="101.523412" lat="12.937626">
                <ele>42.200000</ele>
                <time>2019-03-16T06:55:25Z</time>
            </trkpt>
            <trkpt lon="101.523394" lat="12.937666">
                <ele>42.300000</ele>
                <time>2019-03-16T06:55:26Z</time>
            </trkpt>
            <trkpt lon="101.523378" lat="12.937706">
                <ele>42.400000</ele>
                <time>2019-03-16T06:55:27Z</time>
            </trkpt>
            <trkpt lon="101.523356" lat="12.937740">
                <ele>42.400000</ele>
                <time>2019-03-16T06:55:28Z</time>
            </trkpt>
            <trkpt lon="101.523332" lat="12.937777">
                <ele>42.500000</ele>
                <time>2019-03-16T06:55:29Z</time>
            </trkpt>
            <trkpt lon="101.523304" lat="12.937815">
                <ele>42.600000</ele>
                <time>2019-03-16T06:55:30Z</time>
            </trkpt>
            <trkpt lon="101.523278" lat="12.937852">
                <ele>42.700000</ele>
                <time>2019-03-16T06:55:31Z</time>
            </trkpt>
            <trkpt lon="101.523250" lat="12.937890">
                <ele>42.800000</ele>
                <time>2019-03-16T06:55:32Z</time>
            </trkpt>
            <trkpt lon="101.523220" lat="12.937927">
                <ele>42.900000</ele>
                <time>2019-03-16T06:55:33Z</time>
            </trkpt>
            <trkpt lon="101.523187" lat="12.937963">
                <ele>43.000000</ele>
                <time>2019-03-16T06:55:34Z</time>
            </trkpt>
            <trkpt lon="101.523158" lat="12.937997">
                <ele>43.100000</ele>
                <time>2019-03-16T06:55:35Z</time>
            </trkpt>
            <trkpt lon="101.523130" lat="12.938030">
                <ele>43.000000</ele>
                <time>2019-03-16T06:55:36Z</time>
            </trkpt>
            <trkpt lon="101.523103" lat="12.938063">
                <ele>43.000000</ele>
                <time>2019-03-16T06:55:37Z</time>
            </trkpt>
            <trkpt lon="101.523075" lat="12.938097">
                <ele>43.000000</ele>
                <time>2019-03-16T06:55:38Z</time>
            </trkpt>
            <trkpt lon="101.523048" lat="12.938131">
                <ele>43.000000</ele>
                <time>2019-03-16T06:55:39Z</time>
            </trkpt>
            <trkpt lon="101.523022" lat="12.938165">
                <ele>43.000000</ele>
                <time>2019-03-16T06:55:40Z</time>
            </trkpt>
            <trkpt lon="101.522994" lat="12.938200">
                <ele>43.000000</ele>
                <time>2019-03-16T06:55:41Z</time>
            </trkpt>
            <trkpt lon="101.522969" lat="12.938231">
                <ele>43.000000</ele>
                <time>2019-03-16T06:55:42Z</time>
            </trkpt>
            <trkpt lon="101.522945" lat="12.938261">
                <ele>43.000000</ele>
                <time>2019-03-16T06:55:43Z</time>
            </trkpt>
            <trkpt lon="101.522919" lat="12.938296">
                <ele>43.000000</ele>
                <time>2019-03-16T06:55:44Z</time>
            </trkpt>
            <trkpt lon="101.522891" lat="12.938332">
                <ele>43.000000</ele>
                <time>2019-03-16T06:55:45Z</time>
            </trkpt>
            <trkpt lon="101.522865" lat="12.938365">
                <ele>43.100000</ele>
                <time>2019-03-16T06:55:46Z</time>
            </trkpt>
            <trkpt lon="101.522837" lat="12.938396">
                <ele>43.100000</ele>
                <time>2019-03-16T06:55:47Z</time>
            </trkpt>
            <trkpt lon="101.522806" lat="12.938430">
                <ele>43.100000</ele>
                <time>2019-03-16T06:55:48Z</time>
            </trkpt>
            <trkpt lon="101.522777" lat="12.938462">
                <ele>43.100000</ele>
                <time>2019-03-16T06:55:49Z</time>
            </trkpt>
            <trkpt lon="101.522751" lat="12.938494">
                <ele>43.100000</ele>
                <time>2019-03-16T06:55:50Z</time>
            </trkpt>
            <trkpt lon="101.522722" lat="12.938526">
                <ele>43.100000</ele>
                <time>2019-03-16T06:55:51Z</time>
            </trkpt>
            <trkpt lon="101.522690" lat="12.938550">
                <ele>43.100000</ele>
                <time>2019-03-16T06:55:52Z</time>
            </trkpt>
            <trkpt lon="101.522654" lat="12.938549">
                <ele>43.100000</ele>
                <time>2019-03-16T06:55:53Z</time>
            </trkpt>
            <trkpt lon="101.522616" lat="12.938531">
                <ele>42.600000</ele>
                <time>2019-03-16T06:55:54Z</time>
            </trkpt>
            <trkpt lon="101.522579" lat="12.938510">
                <ele>42.000000</ele>
                <time>2019-03-16T06:55:55Z</time>
            </trkpt>
            <trkpt lon="101.522549" lat="12.938486">
                <ele>41.600000</ele>
                <time>2019-03-16T06:55:56Z</time>
            </trkpt>
            <trkpt lon="101.522515" lat="12.938462">
                <ele>41.500000</ele>
                <time>2019-03-16T06:55:57Z</time>
            </trkpt>
            <trkpt lon="101.522468" lat="12.938443">
                <ele>41.000000</ele>
                <time>2019-03-16T06:55:58Z</time>
            </trkpt>
            <trkpt lon="101.522422" lat="12.938427">
                <ele>40.700000</ele>
                <time>2019-03-16T06:55:59Z</time>
            </trkpt>
            <trkpt lon="101.522374" lat="12.938418">
                <ele>40.400000</ele>
                <time>2019-03-16T06:56:00Z</time>
            </trkpt>
            <trkpt lon="101.522329" lat="12.938416">
                <ele>40.400000</ele>
                <time>2019-03-16T06:56:01Z</time>
            </trkpt>
            <trkpt lon="101.522285" lat="12.938429">
                <ele>40.700000</ele>
                <time>2019-03-16T06:56:02Z</time>
            </trkpt>
            <trkpt lon="101.522252" lat="12.938451">
                <ele>41.100000</ele>
                <time>2019-03-16T06:56:03Z</time>
            </trkpt>
            <trkpt lon="101.522225" lat="12.938486">
                <ele>41.200000</ele>
                <time>2019-03-16T06:56:04Z</time>
            </trkpt>
            <trkpt lon="101.522207" lat="12.938520">
                <ele>41.600000</ele>
                <time>2019-03-16T06:56:05Z</time>
            </trkpt>
            <trkpt lon="101.522192" lat="12.938558">
                <ele>41.800000</ele>
                <time>2019-03-16T06:56:06Z</time>
            </trkpt>
            <trkpt lon="101.522174" lat="12.938597">
                <ele>41.900000</ele>
                <time>2019-03-16T06:56:07Z</time>
            </trkpt>
            <trkpt lon="101.522154" lat="12.938633">
                <ele>42.500000</ele>
                <time>2019-03-16T06:56:08Z</time>
            </trkpt>
            <trkpt lon="101.522135" lat="12.938669">
                <ele>42.500000</ele>
                <time>2019-03-16T06:56:09Z</time>
            </trkpt>
            <trkpt lon="101.522114" lat="12.938703">
                <ele>43.200000</ele>
                <time>2019-03-16T06:56:10Z</time>
            </trkpt>
            <trkpt lon="101.522088" lat="12.938732">
                <ele>43.100000</ele>
                <time>2019-03-16T06:56:11Z</time>
            </trkpt>
            <trkpt lon="101.522058" lat="12.938760">
                <ele>43.800000</ele>
                <time>2019-03-16T06:56:12Z</time>
            </trkpt>
            <trkpt lon="101.522024" lat="12.938787">
                <ele>44.600000</ele>
                <time>2019-03-16T06:56:13Z</time>
            </trkpt>
            <trkpt lon="101.521992" lat="12.938813">
                <ele>45.400000</ele>
                <time>2019-03-16T06:56:14Z</time>
            </trkpt>
            <trkpt lon="101.521959" lat="12.938834">
                <ele>45.300000</ele>
                <time>2019-03-16T06:56:15Z</time>
            </trkpt>
            <trkpt lon="101.521924" lat="12.938854">
                <ele>46.100000</ele>
                <time>2019-03-16T06:56:16Z</time>
            </trkpt>
            <trkpt lon="101.521886" lat="12.938866">
                <ele>46.800000</ele>
                <time>2019-03-16T06:56:17Z</time>
            </trkpt>
            <trkpt lon="101.521848" lat="12.938870">
                <ele>47.500000</ele>
                <time>2019-03-16T06:56:18Z</time>
            </trkpt>
            <trkpt lon="101.521806" lat="12.938868">
                <ele>47.900000</ele>
                <time>2019-03-16T06:56:19Z</time>
            </trkpt>
            <trkpt lon="101.521771" lat="12.938854">
                <ele>48.400000</ele>
                <time>2019-03-16T06:56:20Z</time>
            </trkpt>
            <trkpt lon="101.521739" lat="12.938830">
                <ele>48.600000</ele>
                <time>2019-03-16T06:56:21Z</time>
            </trkpt>
            <trkpt lon="101.521708" lat="12.938803">
                <ele>48.800000</ele>
                <time>2019-03-16T06:56:22Z</time>
            </trkpt>
            <trkpt lon="101.521679" lat="12.938780">
                <ele>49.000000</ele>
                <time>2019-03-16T06:56:23Z</time>
            </trkpt>
            <trkpt lon="101.521649" lat="12.938757">
                <ele>49.200000</ele>
                <time>2019-03-16T06:56:24Z</time>
            </trkpt>
            <trkpt lon="101.521619" lat="12.938738">
                <ele>49.100000</ele>
                <time>2019-03-16T06:56:25Z</time>
            </trkpt>
            <trkpt lon="101.521586" lat="12.938722">
                <ele>48.700000</ele>
                <time>2019-03-16T06:56:26Z</time>
            </trkpt>
            <trkpt lon="101.521548" lat="12.938712">
                <ele>48.400000</ele>
                <time>2019-03-16T06:56:27Z</time>
            </trkpt>
            <trkpt lon="101.521508" lat="12.938715">
                <ele>48.200000</ele>
                <time>2019-03-16T06:56:28Z</time>
            </trkpt>
            <trkpt lon="101.521475" lat="12.938735">
                <ele>47.800000</ele>
                <time>2019-03-16T06:56:29Z</time>
            </trkpt>
            <trkpt lon="101.521449" lat="12.938771">
                <ele>47.800000</ele>
                <time>2019-03-16T06:56:30Z</time>
            </trkpt>
            <trkpt lon="101.521429" lat="12.938807">
                <ele>47.000000</ele>
                <time>2019-03-16T06:56:31Z</time>
            </trkpt>
            <trkpt lon="101.521414" lat="12.938847">
                <ele>46.700000</ele>
                <time>2019-03-16T06:56:32Z</time>
            </trkpt>
            <trkpt lon="101.521404" lat="12.938885">
                <ele>46.400000</ele>
                <time>2019-03-16T06:56:33Z</time>
            </trkpt>
            <trkpt lon="101.521395" lat="12.938922">
                <ele>45.700000</ele>
                <time>2019-03-16T06:56:34Z</time>
            </trkpt>
            <trkpt lon="101.521386" lat="12.938959">
                <ele>45.600000</ele>
                <time>2019-03-16T06:56:35Z</time>
            </trkpt>
            <trkpt lon="101.521378" lat="12.938989">
                <ele>45.400000</ele>
                <time>2019-03-16T06:56:36Z</time>
            </trkpt>
            <trkpt lon="101.521362" lat="12.939020">
                <ele>45.400000</ele>
                <time>2019-03-16T06:56:38Z</time>
            </trkpt>
            <trkpt lon="101.521340" lat="12.939042">
                <ele>45.000000</ele>
                <time>2019-03-16T06:56:40Z</time>
            </trkpt>
            <trkpt lon="101.521296" lat="12.939048">
                <ele>44.800000</ele>
                <time>2019-03-16T06:56:42Z</time>
            </trkpt>
            <trkpt lon="101.521255" lat="12.939031">
                <ele>44.700000</ele>
                <time>2019-03-16T06:56:44Z</time>
            </trkpt>
            <trkpt lon="101.521264" lat="12.938993">
                <ele>44.600000</ele>
                <time>2019-03-16T06:56:48Z</time>
            </trkpt>
            <trkpt lon="101.521286" lat="12.938952">
                <ele>44.600000</ele>
                <time>2019-03-16T06:56:49Z</time>
            </trkpt>
            <trkpt lon="101.521341" lat="12.938889">
                <ele>45.000000</ele>
                <time>2019-03-16T06:56:50Z</time>
            </trkpt>
            <trkpt lon="101.521364" lat="12.938848">
                <ele>45.800000</ele>
                <time>2019-03-16T06:56:51Z</time>
            </trkpt>
            <trkpt lon="101.521372" lat="12.938820">
                <ele>45.700000</ele>
                <time>2019-03-16T06:56:52Z</time>
            </trkpt>
            <trkpt lon="101.521378" lat="12.938793">
                <ele>45.900000</ele>
                <time>2019-03-16T06:56:53Z</time>
            </trkpt>
            <trkpt lon="101.521388" lat="12.938759">
                <ele>46.100000</ele>
                <time>2019-03-16T06:56:54Z</time>
            </trkpt>
            <trkpt lon="101.521408" lat="12.938719">
                <ele>46.600000</ele>
                <time>2019-03-16T06:56:55Z</time>
            </trkpt>
            <trkpt lon="101.521427" lat="12.938679">
                <ele>46.600000</ele>
                <time>2019-03-16T06:56:56Z</time>
            </trkpt>
            <trkpt lon="101.521439" lat="12.938644">
                <ele>46.500000</ele>
                <time>2019-03-16T06:56:57Z</time>
            </trkpt>
            <trkpt lon="101.521453" lat="12.938609">
                <ele>46.600000</ele>
                <time>2019-03-16T06:56:58Z</time>
            </trkpt>
            <trkpt lon="101.521470" lat="12.938575">
                <ele>46.400000</ele>
                <time>2019-03-16T06:56:59Z</time>
            </trkpt>
            <trkpt lon="101.521485" lat="12.938542">
                <ele>46.400000</ele>
                <time>2019-03-16T06:57:00Z</time>
            </trkpt>
            <trkpt lon="101.521499" lat="12.938508">
                <ele>46.300000</ele>
                <time>2019-03-16T06:57:01Z</time>
            </trkpt>
            <trkpt lon="101.521510" lat="12.938472">
                <ele>46.200000</ele>
                <time>2019-03-16T06:57:02Z</time>
            </trkpt>
            <trkpt lon="101.521524" lat="12.938446">
                <ele>46.200000</ele>
                <time>2019-03-16T06:57:03Z</time>
            </trkpt>
            <trkpt lon="101.521537" lat="12.938413">
                <ele>45.900000</ele>
                <time>2019-03-16T06:57:04Z</time>
            </trkpt>
            <trkpt lon="101.521554" lat="12.938381">
                <ele>45.800000</ele>
                <time>2019-03-16T06:57:05Z</time>
            </trkpt>
            <trkpt lon="101.521568" lat="12.938348">
                <ele>45.700000</ele>
                <time>2019-03-16T06:57:06Z</time>
            </trkpt>
            <trkpt lon="101.521580" lat="12.938317">
                <ele>45.400000</ele>
                <time>2019-03-16T06:57:07Z</time>
            </trkpt>
            <trkpt lon="101.521593" lat="12.938290">
                <ele>45.400000</ele>
                <time>2019-03-16T06:57:08Z</time>
            </trkpt>
            <trkpt lon="101.521605" lat="12.938257">
                <ele>45.400000</ele>
                <time>2019-03-16T06:57:09Z</time>
            </trkpt>
            <trkpt lon="101.521616" lat="12.938224">
                <ele>45.100000</ele>
                <time>2019-03-16T06:57:10Z</time>
            </trkpt>
            <trkpt lon="101.521624" lat="12.938194">
                <ele>45.000000</ele>
                <time>2019-03-16T06:57:11Z</time>
            </trkpt>
            <trkpt lon="101.521641" lat="12.938148">
                <ele>45.000000</ele>
                <time>2019-03-16T06:57:13Z</time>
            </trkpt>
            <trkpt lon="101.521656" lat="12.938100">
                <ele>44.700000</ele>
                <time>2019-03-16T06:57:15Z</time>
            </trkpt>
            <trkpt lon="101.521676" lat="12.938057">
                <ele>44.500000</ele>
                <time>2019-03-16T06:57:17Z</time>
            </trkpt>
            <trkpt lon="101.521691" lat="12.937998">
                <ele>44.200000</ele>
                <time>2019-03-16T06:57:19Z</time>
            </trkpt>
            <trkpt lon="101.521711" lat="12.937950">
                <ele>43.700000</ele>
                <time>2019-03-16T06:57:21Z</time>
            </trkpt>
            <trkpt lon="101.521722" lat="12.937942">
                <ele>43.600000</ele>
                <time>2019-03-16T06:57:24Z</time>
            </trkpt>
            <trkpt lon="101.521706" lat="12.937951">
                <ele>43.600000</ele>
                <time>2019-03-16T06:57:55Z</time>
            </trkpt>
            <trkpt lon="101.521690" lat="12.937960">
                <ele>43.800000</ele>
                <time>2019-03-16T06:58:00Z</time>
            </trkpt>
            <trkpt lon="101.521674" lat="12.937969">
                <ele>43.800000</ele>
                <time>2019-03-16T06:58:22Z</time>
            </trkpt>
            <trkpt lon="101.521658" lat="12.937978">
                <ele>43.700000</ele>
                <time>2019-03-16T06:58:23Z</time>
            </trkpt>
            <trkpt lon="101.521622" lat="12.937970">
                <ele>44.000000</ele>
                <time>2019-03-16T06:58:24Z</time>
            </trkpt>
            <trkpt lon="101.521589" lat="12.937963">
                <ele>44.200000</ele>
                <time>2019-03-16T06:58:25Z</time>
            </trkpt>
            <trkpt lon="101.521557" lat="12.937954">
                <ele>44.400000</ele>
                <time>2019-03-16T06:58:26Z</time>
            </trkpt>
            <trkpt lon="101.521525" lat="12.937944">
                <ele>44.600000</ele>
                <time>2019-03-16T06:58:27Z</time>
            </trkpt>
            <trkpt lon="101.521494" lat="12.937934">
                <ele>44.300000</ele>
                <time>2019-03-16T06:58:28Z</time>
            </trkpt>
            <trkpt lon="101.521467" lat="12.937926">
                <ele>44.500000</ele>
                <time>2019-03-16T06:58:29Z</time>
            </trkpt>
            <trkpt lon="101.521417" lat="12.937913">
                <ele>44.700000</ele>
                <time>2019-03-16T06:58:31Z</time>
            </trkpt>
            <trkpt lon="101.521377" lat="12.937899">
                <ele>44.900000</ele>
                <time>2019-03-16T06:58:33Z</time>
            </trkpt>
            <trkpt lon="101.521337" lat="12.937884">
                <ele>44.900000</ele>
                <time>2019-03-16T06:58:35Z</time>
            </trkpt>
            <trkpt lon="101.521296" lat="12.937873">
                <ele>44.900000</ele>
                <time>2019-03-16T06:58:37Z</time>
            </trkpt>
            <trkpt lon="101.521250" lat="12.937867">
                <ele>44.900000</ele>
                <time>2019-03-16T06:58:39Z</time>
            </trkpt>
            <trkpt lon="101.521213" lat="12.937865">
                <ele>44.800000</ele>
                <time>2019-03-16T06:58:41Z</time>
            </trkpt>
            <trkpt lon="101.521242" lat="12.937717">
                <ele>44.700000</ele>
                <time>2019-03-16T06:59:59Z</time>
            </trkpt>
            <trkpt lon="101.521252" lat="12.937674">
                <ele>44.700000</ele>
                <time>2019-03-16T07:00:01Z</time>
            </trkpt>
            <trkpt lon="101.521264" lat="12.937624">
                <ele>44.600000</ele>
                <time>2019-03-16T07:00:03Z</time>
            </trkpt>
            <trkpt lon="101.521270" lat="12.937597">
                <ele>44.600000</ele>
                <time>2019-03-16T07:00:04Z</time>
            </trkpt>
            <trkpt lon="101.521285" lat="12.937553">
                <ele>44.500000</ele>
                <time>2019-03-16T07:00:06Z</time>
            </trkpt>
            <trkpt lon="101.521295" lat="12.937524">
                <ele>44.500000</ele>
                <time>2019-03-16T07:00:07Z</time>
            </trkpt>
            <trkpt lon="101.521310" lat="12.937485">
                <ele>44.400000</ele>
                <time>2019-03-16T07:00:09Z</time>
            </trkpt>
            <trkpt lon="101.521329" lat="12.937429">
                <ele>44.300000</ele>
                <time>2019-03-16T07:00:11Z</time>
            </trkpt>
            <trkpt lon="101.521338" lat="12.937397">
                <ele>44.300000</ele>
                <time>2019-03-16T07:00:12Z</time>
            </trkpt>
            <trkpt lon="101.521347" lat="12.937370">
                <ele>44.300000</ele>
                <time>2019-03-16T07:00:13Z</time>
            </trkpt>
            <trkpt lon="101.521363" lat="12.937334">
                <ele>44.200000</ele>
                <time>2019-03-16T07:00:14Z</time>
            </trkpt>
            <trkpt lon="101.521378" lat="12.937304">
                <ele>44.200000</ele>
                <time>2019-03-16T07:00:15Z</time>
            </trkpt>
            <trkpt lon="101.521391" lat="12.937268">
                <ele>44.100000</ele>
                <time>2019-03-16T07:00:16Z</time>
            </trkpt>
            <trkpt lon="101.521401" lat="12.937238">
                <ele>44.100000</ele>
                <time>2019-03-16T07:00:17Z</time>
            </trkpt>
            <trkpt lon="101.521413" lat="12.937198">
                <ele>44.000000</ele>
                <time>2019-03-16T07:00:18Z</time>
            </trkpt>
            <trkpt lon="101.521422" lat="12.937170">
                <ele>44.000000</ele>
                <time>2019-03-16T07:00:19Z</time>
            </trkpt>
            <trkpt lon="101.521435" lat="12.937135">
                <ele>43.900000</ele>
                <time>2019-03-16T07:00:20Z</time>
            </trkpt>
            <trkpt lon="101.521448" lat="12.937103">
                <ele>43.900000</ele>
                <time>2019-03-16T07:00:21Z</time>
            </trkpt>
            <trkpt lon="101.521460" lat="12.937073">
                <ele>43.800000</ele>
                <time>2019-03-16T07:00:22Z</time>
            </trkpt>
            <trkpt lon="101.521474" lat="12.937038">
                <ele>43.800000</ele>
                <time>2019-03-16T07:00:23Z</time>
            </trkpt>
            <trkpt lon="101.521485" lat="12.937002">
                <ele>43.700000</ele>
                <time>2019-03-16T07:00:24Z</time>
            </trkpt>
            <trkpt lon="101.521493" lat="12.936958">
                <ele>43.700000</ele>
                <time>2019-03-16T07:00:25Z</time>
            </trkpt>
            <trkpt lon="101.521498" lat="12.936911">
                <ele>43.600000</ele>
                <time>2019-03-16T07:00:26Z</time>
            </trkpt>
            <trkpt lon="101.521495" lat="12.936865">
                <ele>43.600000</ele>
                <time>2019-03-16T07:00:27Z</time>
            </trkpt>
            <trkpt lon="101.521476" lat="12.936822">
                <ele>43.500000</ele>
                <time>2019-03-16T07:00:28Z</time>
            </trkpt>
            <trkpt lon="101.521449" lat="12.936785">
                <ele>45.000000</ele>
                <time>2019-03-16T07:00:29Z</time>
            </trkpt>
            <trkpt lon="101.521423" lat="12.936752">
                <ele>45.200000</ele>
                <time>2019-03-16T07:00:30Z</time>
            </trkpt>
            <trkpt lon="101.521399" lat="12.936719">
                <ele>45.300000</ele>
                <time>2019-03-16T07:00:31Z</time>
            </trkpt>
            <trkpt lon="101.521378" lat="12.936689">
                <ele>45.400000</ele>
                <time>2019-03-16T07:00:32Z</time>
            </trkpt>
            <trkpt lon="101.521353" lat="12.936660">
                <ele>45.500000</ele>
                <time>2019-03-16T07:00:33Z</time>
            </trkpt>
            <trkpt lon="101.521328" lat="12.936629">
                <ele>45.600000</ele>
                <time>2019-03-16T07:00:34Z</time>
            </trkpt>
            <trkpt lon="101.521298" lat="12.936603">
                <ele>45.700000</ele>
                <time>2019-03-16T07:00:35Z</time>
            </trkpt>
            <trkpt lon="101.521271" lat="12.936582">
                <ele>45.800000</ele>
                <time>2019-03-16T07:00:36Z</time>
            </trkpt>
            <trkpt lon="101.521243" lat="12.936564">
                <ele>45.900000</ele>
                <time>2019-03-16T07:00:37Z</time>
            </trkpt>
            <trkpt lon="101.521193" lat="12.936543">
                <ele>46.000000</ele>
                <time>2019-03-16T07:00:39Z</time>
            </trkpt>
            <trkpt lon="101.521145" lat="12.936519">
                <ele>46.100000</ele>
                <time>2019-03-16T07:00:41Z</time>
            </trkpt>
            <trkpt lon="101.521122" lat="12.936504">
                <ele>46.200000</ele>
                <time>2019-03-16T07:00:42Z</time>
            </trkpt>
            <trkpt lon="101.521098" lat="12.936488">
                <ele>46.200000</ele>
                <time>2019-03-16T07:00:43Z</time>
            </trkpt>
            <trkpt lon="101.521053" lat="12.936460">
                <ele>46.300000</ele>
                <time>2019-03-16T07:00:45Z</time>
            </trkpt>
            <trkpt lon="101.521006" lat="12.936437">
                <ele>46.400000</ele>
                <time>2019-03-16T07:00:47Z</time>
            </trkpt>
            <trkpt lon="101.520961" lat="12.936418">
                <ele>46.500000</ele>
                <time>2019-03-16T07:00:49Z</time>
            </trkpt>
            <trkpt lon="101.520917" lat="12.936400">
                <ele>46.600000</ele>
                <time>2019-03-16T07:00:51Z</time>
            </trkpt>
            <trkpt lon="101.520881" lat="12.936396">
                <ele>46.700000</ele>
                <time>2019-03-16T07:00:53Z</time>
            </trkpt>
            <trkpt lon="101.520840" lat="12.936403">
                <ele>46.800000</ele>
                <time>2019-03-16T07:00:55Z</time>
            </trkpt>
            <trkpt lon="101.520805" lat="12.936410">
                <ele>46.800000</ele>
                <time>2019-03-16T07:00:57Z</time>
            </trkpt>
            <trkpt lon="101.520767" lat="12.936411">
                <ele>46.900000</ele>
                <time>2019-03-16T07:00:59Z</time>
            </trkpt>
            <trkpt lon="101.520736" lat="12.936425">
                <ele>47.000000</ele>
                <time>2019-03-16T07:01:01Z</time>
            </trkpt>
            <trkpt lon="101.520711" lat="12.936454">
                <ele>47.000000</ele>
                <time>2019-03-16T07:01:04Z</time>
            </trkpt>
            <trkpt lon="101.520711" lat="12.936499">
                <ele>47.100000</ele>
                <time>2019-03-16T07:01:06Z</time>
            </trkpt>
            <trkpt lon="101.520720" lat="12.936529">
                <ele>47.200000</ele>
                <time>2019-03-16T07:01:07Z</time>
            </trkpt>
            <trkpt lon="101.520728" lat="12.936560">
                <ele>47.200000</ele>
                <time>2019-03-16T07:01:08Z</time>
            </trkpt>
            <trkpt lon="101.520739" lat="12.936599">
                <ele>47.300000</ele>
                <time>2019-03-16T07:01:10Z</time>
            </trkpt>
            <trkpt lon="101.520755" lat="12.936630">
                <ele>47.400000</ele>
                <time>2019-03-16T07:01:12Z</time>
            </trkpt>
            <trkpt lon="101.520798" lat="12.936656">
                <ele>47.500000</ele>
                <time>2019-03-16T07:01:14Z</time>
            </trkpt>
            <trkpt lon="101.520830" lat="12.936659">
                <ele>47.500000</ele>
                <time>2019-03-16T07:01:15Z</time>
            </trkpt>
            <trkpt lon="101.520861" lat="12.936660">
                <ele>47.600000</ele>
                <time>2019-03-16T07:01:16Z</time>
            </trkpt>
            <trkpt lon="101.520890" lat="12.936663">
                <ele>47.600000</ele>
                <time>2019-03-16T07:01:17Z</time>
            </trkpt>
            <trkpt lon="101.520928" lat="12.936676">
                <ele>47.700000</ele>
                <time>2019-03-16T07:01:19Z</time>
            </trkpt>
            <trkpt lon="101.520947" lat="12.936697">
                <ele>47.800000</ele>
                <time>2019-03-16T07:01:25Z</time>
            </trkpt>
            <trkpt lon="101.520951" lat="12.936724">
                <ele>47.800000</ele>
                <time>2019-03-16T07:01:34Z</time>
            </trkpt>
            <trkpt lon="101.520987" lat="12.936808">
                <ele>48.000000</ele>
                <time>2019-03-16T07:02:07Z</time>
            </trkpt>
            <trkpt lon="101.521012" lat="12.936821">
                <ele>48.000000</ele>
                <time>2019-03-16T07:02:09Z</time>
            </trkpt>
            <trkpt lon="101.521036" lat="12.936835">
                <ele>48.100000</ele>
                <time>2019-03-16T07:02:11Z</time>
            </trkpt>
            <trkpt lon="101.521007" lat="12.936668">
                <ele>48.400000</ele>
                <time>2019-03-16T07:31:50Z</time>
            </trkpt>
            <trkpt lon="101.520994" lat="12.936820">
                <ele>48.600000</ele>
                <time>2019-03-16T07:44:53Z</time>
            </trkpt>
            <trkpt lon="101.520957" lat="12.936829">
                <ele>48.700000</ele>
                <time>2019-03-16T07:44:55Z</time>
            </trkpt>
            <trkpt lon="101.520929" lat="12.936810">
                <ele>48.700000</ele>
                <time>2019-03-16T07:44:58Z</time>
            </trkpt>
            <trkpt lon="101.520849" lat="12.936753">
                <ele>48.900000</ele>
                <time>2019-03-16T07:46:04Z</time>
            </trkpt>
            <trkpt lon="101.520828" lat="12.936718">
                <ele>48.900000</ele>
                <time>2019-03-16T07:46:06Z</time>
            </trkpt>
            <trkpt lon="101.520823" lat="12.936669">
                <ele>49.000000</ele>
                <time>2019-03-16T07:46:08Z</time>
            </trkpt>
            <trkpt lon="101.520806" lat="12.936634">
                <ele>49.100000</ele>
                <time>2019-03-16T07:46:10Z</time>
            </trkpt>
            <trkpt lon="101.520775" lat="12.936610">
                <ele>49.200000</ele>
                <time>2019-03-16T07:46:12Z</time>
            </trkpt>
            <trkpt lon="101.520745" lat="12.936592">
                <ele>49.200000</ele>
                <time>2019-03-16T07:46:14Z</time>
            </trkpt>
            <trkpt lon="101.520731" lat="12.936563">
                <ele>49.300000</ele>
                <time>2019-03-16T07:46:16Z</time>
            </trkpt>
            <trkpt lon="101.520724" lat="12.936535">
                <ele>49.300000</ele>
                <time>2019-03-16T07:46:17Z</time>
            </trkpt>
            <trkpt lon="101.520718" lat="12.936502">
                <ele>49.400000</ele>
                <time>2019-03-16T07:46:18Z</time>
            </trkpt>
            <trkpt lon="101.520711" lat="12.936476">
                <ele>49.400000</ele>
                <time>2019-03-16T07:46:19Z</time>
            </trkpt>
            <trkpt lon="101.520683" lat="12.936440">
                <ele>49.500000</ele>
                <time>2019-03-16T07:46:21Z</time>
            </trkpt>
            <trkpt lon="101.520649" lat="12.936419">
                <ele>49.500000</ele>
                <time>2019-03-16T07:46:23Z</time>
            </trkpt>
            <trkpt lon="101.520613" lat="12.936400">
                <ele>49.600000</ele>
                <time>2019-03-16T07:46:25Z</time>
            </trkpt>
            <trkpt lon="101.520579" lat="12.936374">
                <ele>49.700000</ele>
                <time>2019-03-16T07:46:27Z</time>
            </trkpt>
            <trkpt lon="101.520547" lat="12.936349">
                <ele>49.700000</ele>
                <time>2019-03-16T07:46:29Z</time>
            </trkpt>
            <trkpt lon="101.520518" lat="12.936333">
                <ele>49.800000</ele>
                <time>2019-03-16T07:46:31Z</time>
            </trkpt>
            <trkpt lon="101.520493" lat="12.936304">
                <ele>49.800000</ele>
                <time>2019-03-16T07:46:33Z</time>
            </trkpt>
            <trkpt lon="101.520459" lat="12.936262">
                <ele>49.900000</ele>
                <time>2019-03-16T07:46:35Z</time>
            </trkpt>
            <trkpt lon="101.520431" lat="12.936243">
                <ele>50.000000</ele>
                <time>2019-03-16T07:46:36Z</time>
            </trkpt>
            <trkpt lon="101.520401" lat="12.936227">
                <ele>50.000000</ele>
                <time>2019-03-16T07:46:37Z</time>
            </trkpt>
            <trkpt lon="101.520370" lat="12.936211">
                <ele>50.100000</ele>
                <time>2019-03-16T07:46:38Z</time>
            </trkpt>
            <trkpt lon="101.520340" lat="12.936196">
                <ele>50.100000</ele>
                <time>2019-03-16T07:46:39Z</time>
            </trkpt>
            <trkpt lon="101.520310" lat="12.936183">
                <ele>50.200000</ele>
                <time>2019-03-16T07:46:40Z</time>
            </trkpt>
            <trkpt lon="101.520279" lat="12.936170">
                <ele>50.300000</ele>
                <time>2019-03-16T07:46:41Z</time>
            </trkpt>
            <trkpt lon="101.520248" lat="12.936157">
                <ele>50.300000</ele>
                <time>2019-03-16T07:46:42Z</time>
            </trkpt>
            <trkpt lon="101.520216" lat="12.936145">
                <ele>50.400000</ele>
                <time>2019-03-16T07:46:43Z</time>
            </trkpt>
            <trkpt lon="101.520186" lat="12.936133">
                <ele>50.400000</ele>
                <time>2019-03-16T07:46:44Z</time>
            </trkpt>
            <trkpt lon="101.520155" lat="12.936122">
                <ele>50.500000</ele>
                <time>2019-03-16T07:46:45Z</time>
            </trkpt>
            <trkpt lon="101.520125" lat="12.936111">
                <ele>50.500000</ele>
                <time>2019-03-16T07:46:46Z</time>
            </trkpt>
            <trkpt lon="101.520093" lat="12.936100">
                <ele>50.600000</ele>
                <time>2019-03-16T07:46:47Z</time>
            </trkpt>
            <trkpt lon="101.520062" lat="12.936088">
                <ele>50.600000</ele>
                <time>2019-03-16T07:46:48Z</time>
            </trkpt>
            <trkpt lon="101.520030" lat="12.936076">
                <ele>50.700000</ele>
                <time>2019-03-16T07:46:49Z</time>
            </trkpt>
            <trkpt lon="101.520000" lat="12.936067">
                <ele>50.700000</ele>
                <time>2019-03-16T07:46:50Z</time>
            </trkpt>
            <trkpt lon="101.519969" lat="12.936056">
                <ele>50.800000</ele>
                <time>2019-03-16T07:46:51Z</time>
            </trkpt>
            <trkpt lon="101.519938" lat="12.936045">
                <ele>50.800000</ele>
                <time>2019-03-16T07:46:52Z</time>
            </trkpt>
            <trkpt lon="101.519907" lat="12.936037">
                <ele>50.900000</ele>
                <time>2019-03-16T07:46:53Z</time>
            </trkpt>
            <trkpt lon="101.519877" lat="12.936027">
                <ele>50.900000</ele>
                <time>2019-03-16T07:46:54Z</time>
            </trkpt>
            <trkpt lon="101.519844" lat="12.936024">
                <ele>51.000000</ele>
                <time>2019-03-16T07:46:55Z</time>
            </trkpt>
            <trkpt lon="101.519816" lat="12.936019">
                <ele>51.000000</ele>
                <time>2019-03-16T07:46:56Z</time>
            </trkpt>
            <trkpt lon="101.519782" lat="12.936017">
                <ele>51.100000</ele>
                <time>2019-03-16T07:46:57Z</time>
            </trkpt>
            <trkpt lon="101.519748" lat="12.936015">
                <ele>51.100000</ele>
                <time>2019-03-16T07:46:58Z</time>
            </trkpt>
            <trkpt lon="101.519717" lat="12.936009">
                <ele>51.200000</ele>
                <time>2019-03-16T07:46:59Z</time>
            </trkpt>
            <trkpt lon="101.519687" lat="12.936004">
                <ele>51.200000</ele>
                <time>2019-03-16T07:47:00Z</time>
            </trkpt>
            <trkpt lon="101.519658" lat="12.935998">
                <ele>51.200000</ele>
                <time>2019-03-16T07:47:01Z</time>
            </trkpt>
            <trkpt lon="101.519627" lat="12.935988">
                <ele>51.300000</ele>
                <time>2019-03-16T07:47:02Z</time>
            </trkpt>
            <trkpt lon="101.519597" lat="12.935978">
                <ele>51.300000</ele>
                <time>2019-03-16T07:47:03Z</time>
            </trkpt>
            <trkpt lon="101.519567" lat="12.935967">
                <ele>51.400000</ele>
                <time>2019-03-16T07:47:04Z</time>
            </trkpt>
            <trkpt lon="101.519536" lat="12.935954">
                <ele>51.400000</ele>
                <time>2019-03-16T07:47:05Z</time>
            </trkpt>
            <trkpt lon="101.519504" lat="12.935943">
                <ele>51.500000</ele>
                <time>2019-03-16T07:47:06Z</time>
            </trkpt>
            <trkpt lon="101.519472" lat="12.935933">
                <ele>51.500000</ele>
                <time>2019-03-16T07:47:07Z</time>
            </trkpt>
            <trkpt lon="101.519441" lat="12.935924">
                <ele>51.600000</ele>
                <time>2019-03-16T07:47:08Z</time>
            </trkpt>
            <trkpt lon="101.519408" lat="12.935917">
                <ele>51.600000</ele>
                <time>2019-03-16T07:47:09Z</time>
            </trkpt>
            <trkpt lon="101.519376" lat="12.935910">
                <ele>51.700000</ele>
                <time>2019-03-16T07:47:10Z</time>
            </trkpt>
            <trkpt lon="101.519345" lat="12.935903">
                <ele>51.700000</ele>
                <time>2019-03-16T07:47:11Z</time>
            </trkpt>
            <trkpt lon="101.519312" lat="12.935895">
                <ele>51.800000</ele>
                <time>2019-03-16T07:47:12Z</time>
            </trkpt>
            <trkpt lon="101.519281" lat="12.935884">
                <ele>51.800000</ele>
                <time>2019-03-16T07:47:13Z</time>
            </trkpt>
            <trkpt lon="101.519247" lat="12.935872">
                <ele>51.900000</ele>
                <time>2019-03-16T07:47:14Z</time>
            </trkpt>
            <trkpt lon="101.519216" lat="12.935860">
                <ele>51.900000</ele>
                <time>2019-03-16T07:47:15Z</time>
            </trkpt>
            <trkpt lon="101.519186" lat="12.935847">
                <ele>52.000000</ele>
                <time>2019-03-16T07:47:16Z</time>
            </trkpt>
            <trkpt lon="101.519156" lat="12.935837">
                <ele>52.000000</ele>
                <time>2019-03-16T07:47:17Z</time>
            </trkpt>
            <trkpt lon="101.519128" lat="12.935824">
                <ele>52.100000</ele>
                <time>2019-03-16T07:47:18Z</time>
            </trkpt>
            <trkpt lon="101.519101" lat="12.935814">
                <ele>52.100000</ele>
                <time>2019-03-16T07:47:19Z</time>
            </trkpt>
            <trkpt lon="101.519046" lat="12.935796">
                <ele>52.200000</ele>
                <time>2019-03-16T07:47:21Z</time>
            </trkpt>
            <trkpt lon="101.519017" lat="12.935786">
                <ele>52.300000</ele>
                <time>2019-03-16T07:47:22Z</time>
            </trkpt>
            <trkpt lon="101.518963" lat="12.935767">
                <ele>52.400000</ele>
                <time>2019-03-16T07:47:24Z</time>
            </trkpt>
            <trkpt lon="101.518911" lat="12.935749">
                <ele>52.500000</ele>
                <time>2019-03-16T07:47:26Z</time>
            </trkpt>
            <trkpt lon="101.518881" lat="12.935740">
                <ele>52.500000</ele>
                <time>2019-03-16T07:47:27Z</time>
            </trkpt>
            <trkpt lon="101.518829" lat="12.935721">
                <ele>52.600000</ele>
                <time>2019-03-16T07:47:29Z</time>
            </trkpt>
            <trkpt lon="101.518804" lat="12.935706">
                <ele>52.700000</ele>
                <time>2019-03-16T07:47:30Z</time>
            </trkpt>
            <trkpt lon="101.518779" lat="12.935693">
                <ele>52.700000</ele>
                <time>2019-03-16T07:47:31Z</time>
            </trkpt>
            <trkpt lon="101.518752" lat="12.935681">
                <ele>52.800000</ele>
                <time>2019-03-16T07:47:32Z</time>
            </trkpt>
            <trkpt lon="101.518722" lat="12.935670">
                <ele>52.800000</ele>
                <time>2019-03-16T07:47:33Z</time>
            </trkpt>
            <trkpt lon="101.518669" lat="12.935653">
                <ele>52.900000</ele>
                <time>2019-03-16T07:47:35Z</time>
            </trkpt>
            <trkpt lon="101.518638" lat="12.935640">
                <ele>53.000000</ele>
                <time>2019-03-16T07:47:36Z</time>
            </trkpt>
            <trkpt lon="101.518608" lat="12.935628">
                <ele>53.900000</ele>
                <time>2019-03-16T07:47:37Z</time>
            </trkpt>
            <trkpt lon="101.518578" lat="12.935617">
                <ele>54.500000</ele>
                <time>2019-03-16T07:47:38Z</time>
            </trkpt>
            <trkpt lon="101.518545" lat="12.935606">
                <ele>55.000000</ele>
                <time>2019-03-16T07:47:39Z</time>
            </trkpt>
            <trkpt lon="101.518515" lat="12.935598">
                <ele>55.500000</ele>
                <time>2019-03-16T07:47:40Z</time>
            </trkpt>
            <trkpt lon="101.518484" lat="12.935588">
                <ele>55.900000</ele>
                <time>2019-03-16T07:47:41Z</time>
            </trkpt>
            <trkpt lon="101.518451" lat="12.935574">
                <ele>56.300000</ele>
                <time>2019-03-16T07:47:42Z</time>
            </trkpt>
            <trkpt lon="101.518419" lat="12.935560">
                <ele>56.500000</ele>
                <time>2019-03-16T07:47:43Z</time>
            </trkpt>
            <trkpt lon="101.518388" lat="12.935547">
                <ele>56.700000</ele>
                <time>2019-03-16T07:47:44Z</time>
            </trkpt>
            <trkpt lon="101.518357" lat="12.935538">
                <ele>56.800000</ele>
                <time>2019-03-16T07:47:45Z</time>
            </trkpt>
            <trkpt lon="101.518326" lat="12.935528">
                <ele>56.900000</ele>
                <time>2019-03-16T07:47:46Z</time>
            </trkpt>
            <trkpt lon="101.518295" lat="12.935518">
                <ele>57.000000</ele>
                <time>2019-03-16T07:47:47Z</time>
            </trkpt>
            <trkpt lon="101.518264" lat="12.935507">
                <ele>57.000000</ele>
                <time>2019-03-16T07:47:48Z</time>
            </trkpt>
            <trkpt lon="101.518232" lat="12.935496">
                <ele>57.000000</ele>
                <time>2019-03-16T07:47:49Z</time>
            </trkpt>
            <trkpt lon="101.518198" lat="12.935487">
                <ele>57.000000</ele>
                <time>2019-03-16T07:47:50Z</time>
            </trkpt>
            <trkpt lon="101.518165" lat="12.935476">
                <ele>57.000000</ele>
                <time>2019-03-16T07:47:51Z</time>
            </trkpt>
            <trkpt lon="101.518131" lat="12.935464">
                <ele>57.100000</ele>
                <time>2019-03-16T07:47:52Z</time>
            </trkpt>
            <trkpt lon="101.518097" lat="12.935452">
                <ele>57.100000</ele>
                <time>2019-03-16T07:47:53Z</time>
            </trkpt>
            <trkpt lon="101.518065" lat="12.935441">
                <ele>57.100000</ele>
                <time>2019-03-16T07:47:54Z</time>
            </trkpt>
            <trkpt lon="101.518033" lat="12.935429">
                <ele>57.100000</ele>
                <time>2019-03-16T07:47:55Z</time>
            </trkpt>
            <trkpt lon="101.518001" lat="12.935416">
                <ele>57.100000</ele>
                <time>2019-03-16T07:47:56Z</time>
            </trkpt>
            <trkpt lon="101.517968" lat="12.935404">
                <ele>57.100000</ele>
                <time>2019-03-16T07:47:57Z</time>
            </trkpt>
            <trkpt lon="101.517934" lat="12.935392">
                <ele>57.100000</ele>
                <time>2019-03-16T07:47:58Z</time>
            </trkpt>
            <trkpt lon="101.517899" lat="12.935381">
                <ele>57.200000</ele>
                <time>2019-03-16T07:47:59Z</time>
            </trkpt>
            <trkpt lon="101.517865" lat="12.935369">
                <ele>57.200000</ele>
                <time>2019-03-16T07:48:00Z</time>
            </trkpt>
            <trkpt lon="101.517834" lat="12.935357">
                <ele>57.200000</ele>
                <time>2019-03-16T07:48:01Z</time>
            </trkpt>
            <trkpt lon="101.517802" lat="12.935346">
                <ele>57.200000</ele>
                <time>2019-03-16T07:48:02Z</time>
            </trkpt>
            <trkpt lon="101.517769" lat="12.935335">
                <ele>57.200000</ele>
                <time>2019-03-16T07:48:03Z</time>
            </trkpt>
            <trkpt lon="101.517735" lat="12.935323">
                <ele>57.200000</ele>
                <time>2019-03-16T07:48:04Z</time>
            </trkpt>
            <trkpt lon="101.517698" lat="12.935309">
                <ele>57.200000</ele>
                <time>2019-03-16T07:48:05Z</time>
            </trkpt>
            <trkpt lon="101.517661" lat="12.935296">
                <ele>57.200000</ele>
                <time>2019-03-16T07:48:06Z</time>
            </trkpt>
            <trkpt lon="101.517626" lat="12.935284">
                <ele>57.200000</ele>
                <time>2019-03-16T07:48:07Z</time>
            </trkpt>
            <trkpt lon="101.517592" lat="12.935272">
                <ele>57.300000</ele>
                <time>2019-03-16T07:48:08Z</time>
            </trkpt>
            <trkpt lon="101.517556" lat="12.935259">
                <ele>57.300000</ele>
                <time>2019-03-16T07:48:09Z</time>
            </trkpt>
            <trkpt lon="101.517517" lat="12.935244">
                <ele>57.300000</ele>
                <time>2019-03-16T07:48:10Z</time>
            </trkpt>
            <trkpt lon="101.517480" lat="12.935230">
                <ele>57.300000</ele>
                <time>2019-03-16T07:48:11Z</time>
            </trkpt>
            <trkpt lon="101.517444" lat="12.935216">
                <ele>57.300000</ele>
                <time>2019-03-16T07:48:12Z</time>
            </trkpt>
            <trkpt lon="101.517407" lat="12.935201">
                <ele>57.300000</ele>
                <time>2019-03-16T07:48:13Z</time>
            </trkpt>
            <trkpt lon="101.517372" lat="12.935191">
                <ele>57.300000</ele>
                <time>2019-03-16T07:48:14Z</time>
            </trkpt>
            <trkpt lon="101.517338" lat="12.935179">
                <ele>57.300000</ele>
                <time>2019-03-16T07:48:15Z</time>
            </trkpt>
            <trkpt lon="101.517303" lat="12.935167">
                <ele>57.300000</ele>
                <time>2019-03-16T07:48:16Z</time>
            </trkpt>
            <trkpt lon="101.517266" lat="12.935154">
                <ele>57.300000</ele>
                <time>2019-03-16T07:48:17Z</time>
            </trkpt>
            <trkpt lon="101.517230" lat="12.935141">
                <ele>57.300000</ele>
                <time>2019-03-16T07:48:18Z</time>
            </trkpt>
            <trkpt lon="101.517195" lat="12.935127">
                <ele>57.200000</ele>
                <time>2019-03-16T07:48:19Z</time>
            </trkpt>
            <trkpt lon="101.517157" lat="12.935113">
                <ele>57.200000</ele>
                <time>2019-03-16T07:48:20Z</time>
            </trkpt>
            <trkpt lon="101.517121" lat="12.935099">
                <ele>57.100000</ele>
                <time>2019-03-16T07:48:21Z</time>
            </trkpt>
            <trkpt lon="101.517083" lat="12.935085">
                <ele>57.100000</ele>
                <time>2019-03-16T07:48:22Z</time>
            </trkpt>
            <trkpt lon="101.517043" lat="12.935071">
                <ele>57.100000</ele>
                <time>2019-03-16T07:48:23Z</time>
            </trkpt>
            <trkpt lon="101.517002" lat="12.935056">
                <ele>57.100000</ele>
                <time>2019-03-16T07:48:24Z</time>
            </trkpt>
            <trkpt lon="101.516959" lat="12.935043">
                <ele>57.200000</ele>
                <time>2019-03-16T07:48:25Z</time>
            </trkpt>
            <trkpt lon="101.516922" lat="12.935028">
                <ele>57.300000</ele>
                <time>2019-03-16T07:48:26Z</time>
            </trkpt>
            <trkpt lon="101.516881" lat="12.935012">
                <ele>57.500000</ele>
                <time>2019-03-16T07:48:27Z</time>
            </trkpt>
            <trkpt lon="101.516836" lat="12.934994">
                <ele>57.800000</ele>
                <time>2019-03-16T07:48:28Z</time>
            </trkpt>
            <trkpt lon="101.516788" lat="12.934977">
                <ele>58.100000</ele>
                <time>2019-03-16T07:48:29Z</time>
            </trkpt>
            <trkpt lon="101.516737" lat="12.934960">
                <ele>58.400000</ele>
                <time>2019-03-16T07:48:30Z</time>
            </trkpt>
            <trkpt lon="101.516686" lat="12.934942">
                <ele>58.600000</ele>
                <time>2019-03-16T07:48:31Z</time>
            </trkpt>
            <trkpt lon="101.516633" lat="12.934924">
                <ele>58.700000</ele>
                <time>2019-03-16T07:48:32Z</time>
            </trkpt>
            <trkpt lon="101.516580" lat="12.934907">
                <ele>58.800000</ele>
                <time>2019-03-16T07:48:33Z</time>
            </trkpt>
            <trkpt lon="101.516525" lat="12.934890">
                <ele>58.800000</ele>
                <time>2019-03-16T07:48:34Z</time>
            </trkpt>
            <trkpt lon="101.516471" lat="12.934871">
                <ele>58.900000</ele>
                <time>2019-03-16T07:48:35Z</time>
            </trkpt>
            <trkpt lon="101.516419" lat="12.934853">
                <ele>58.900000</ele>
                <time>2019-03-16T07:48:36Z</time>
            </trkpt>
            <trkpt lon="101.516366" lat="12.934835">
                <ele>58.900000</ele>
                <time>2019-03-16T07:48:37Z</time>
            </trkpt>
            <trkpt lon="101.516314" lat="12.934817">
                <ele>58.900000</ele>
                <time>2019-03-16T07:48:38Z</time>
            </trkpt>
            <trkpt lon="101.516261" lat="12.934798">
                <ele>58.900000</ele>
                <time>2019-03-16T07:48:39Z</time>
            </trkpt>
            <trkpt lon="101.516209" lat="12.934780">
                <ele>59.000000</ele>
                <time>2019-03-16T07:48:40Z</time>
            </trkpt>
            <trkpt lon="101.516157" lat="12.934762">
                <ele>58.900000</ele>
                <time>2019-03-16T07:48:41Z</time>
            </trkpt>
            <trkpt lon="101.516104" lat="12.934744">
                <ele>58.900000</ele>
                <time>2019-03-16T07:48:42Z</time>
            </trkpt>
            <trkpt lon="101.516050" lat="12.934725">
                <ele>58.800000</ele>
                <time>2019-03-16T07:48:43Z</time>
            </trkpt>
            <trkpt lon="101.515999" lat="12.934707">
                <ele>58.700000</ele>
                <time>2019-03-16T07:48:44Z</time>
            </trkpt>
            <trkpt lon="101.515943" lat="12.934692">
                <ele>58.400000</ele>
                <time>2019-03-16T07:48:45Z</time>
            </trkpt>
            <trkpt lon="101.515887" lat="12.934674">
                <ele>58.000000</ele>
                <time>2019-03-16T07:48:46Z</time>
            </trkpt>
            <trkpt lon="101.515830" lat="12.934655">
                <ele>57.600000</ele>
                <time>2019-03-16T07:48:47Z</time>
            </trkpt>
            <trkpt lon="101.515774" lat="12.934636">
                <ele>57.000000</ele>
                <time>2019-03-16T07:48:48Z</time>
            </trkpt>
            <trkpt lon="101.515714" lat="12.934616">
                <ele>56.600000</ele>
                <time>2019-03-16T07:48:49Z</time>
            </trkpt>
            <trkpt lon="101.515655" lat="12.934595">
                <ele>56.300000</ele>
                <time>2019-03-16T07:48:50Z</time>
            </trkpt>
            <trkpt lon="101.515594" lat="12.934576">
                <ele>56.200000</ele>
                <time>2019-03-16T07:48:51Z</time>
            </trkpt>
            <trkpt lon="101.515532" lat="12.934556">
                <ele>56.200000</ele>
                <time>2019-03-16T07:48:52Z</time>
            </trkpt>
            <trkpt lon="101.515471" lat="12.934535">
                <ele>56.200000</ele>
                <time>2019-03-16T07:48:53Z</time>
            </trkpt>
            <trkpt lon="101.515411" lat="12.934512">
                <ele>56.200000</ele>
                <time>2019-03-16T07:48:54Z</time>
            </trkpt>
            <trkpt lon="101.515353" lat="12.934489">
                <ele>56.200000</ele>
                <time>2019-03-16T07:48:55Z</time>
            </trkpt>
            <trkpt lon="101.515293" lat="12.934469">
                <ele>56.200000</ele>
                <time>2019-03-16T07:48:56Z</time>
            </trkpt>
            <trkpt lon="101.515235" lat="12.934444">
                <ele>56.200000</ele>
                <time>2019-03-16T07:48:57Z</time>
            </trkpt>
            <trkpt lon="101.515176" lat="12.934423">
                <ele>56.300000</ele>
                <time>2019-03-16T07:48:58Z</time>
            </trkpt>
            <trkpt lon="101.515117" lat="12.934402">
                <ele>56.300000</ele>
                <time>2019-03-16T07:48:59Z</time>
            </trkpt>
            <trkpt lon="101.515059" lat="12.934379">
                <ele>56.300000</ele>
                <time>2019-03-16T07:49:00Z</time>
            </trkpt>
            <trkpt lon="101.514999" lat="12.934356">
                <ele>56.300000</ele>
                <time>2019-03-16T07:49:01Z</time>
            </trkpt>
            <trkpt lon="101.514941" lat="12.934335">
                <ele>56.300000</ele>
                <time>2019-03-16T07:49:02Z</time>
            </trkpt>
            <trkpt lon="101.514883" lat="12.934312">
                <ele>56.400000</ele>
                <time>2019-03-16T07:49:03Z</time>
            </trkpt>
            <trkpt lon="101.514825" lat="12.934290">
                <ele>56.400000</ele>
                <time>2019-03-16T07:49:04Z</time>
            </trkpt>
            <trkpt lon="101.514769" lat="12.934268">
                <ele>56.400000</ele>
                <time>2019-03-16T07:49:05Z</time>
            </trkpt>
            <trkpt lon="101.514714" lat="12.934247">
                <ele>56.400000</ele>
                <time>2019-03-16T07:49:06Z</time>
            </trkpt>
            <trkpt lon="101.514659" lat="12.934224">
                <ele>56.400000</ele>
                <time>2019-03-16T07:49:07Z</time>
            </trkpt>
            <trkpt lon="101.514605" lat="12.934201">
                <ele>56.500000</ele>
                <time>2019-03-16T07:49:08Z</time>
            </trkpt>
            <trkpt lon="101.514552" lat="12.934178">
                <ele>56.500000</ele>
                <time>2019-03-16T07:49:09Z</time>
            </trkpt>
            <trkpt lon="101.514503" lat="12.934151">
                <ele>56.500000</ele>
                <time>2019-03-16T07:49:10Z</time>
            </trkpt>
            <trkpt lon="101.514450" lat="12.934124">
                <ele>56.500000</ele>
                <time>2019-03-16T07:49:11Z</time>
            </trkpt>
            <trkpt lon="101.514398" lat="12.934096">
                <ele>56.500000</ele>
                <time>2019-03-16T07:49:12Z</time>
            </trkpt>
            <trkpt lon="101.514346" lat="12.934067">
                <ele>56.600000</ele>
                <time>2019-03-16T07:49:13Z</time>
            </trkpt>
            <trkpt lon="101.514294" lat="12.934035">
                <ele>56.600000</ele>
                <time>2019-03-16T07:49:14Z</time>
            </trkpt>
            <trkpt lon="101.514243" lat="12.934004">
                <ele>56.600000</ele>
                <time>2019-03-16T07:49:15Z</time>
            </trkpt>
            <trkpt lon="101.514191" lat="12.933972">
                <ele>56.600000</ele>
                <time>2019-03-16T07:49:16Z</time>
            </trkpt>
            <trkpt lon="101.514139" lat="12.933942">
                <ele>56.700000</ele>
                <time>2019-03-16T07:49:17Z</time>
            </trkpt>
            <trkpt lon="101.514087" lat="12.933910">
                <ele>56.700000</ele>
                <time>2019-03-16T07:49:18Z</time>
            </trkpt>
            <trkpt lon="101.514040" lat="12.933874">
                <ele>56.700000</ele>
                <time>2019-03-16T07:49:19Z</time>
            </trkpt>
            <trkpt lon="101.513993" lat="12.933836">
                <ele>56.700000</ele>
                <time>2019-03-16T07:49:20Z</time>
            </trkpt>
            <trkpt lon="101.513948" lat="12.933799">
                <ele>56.700000</ele>
                <time>2019-03-16T07:49:21Z</time>
            </trkpt>
            <trkpt lon="101.513904" lat="12.933761">
                <ele>56.800000</ele>
                <time>2019-03-16T07:49:22Z</time>
            </trkpt>
            <trkpt lon="101.513863" lat="12.933723">
                <ele>56.800000</ele>
                <time>2019-03-16T07:49:23Z</time>
            </trkpt>
            <trkpt lon="101.513822" lat="12.933686">
                <ele>56.800000</ele>
                <time>2019-03-16T07:49:24Z</time>
            </trkpt>
            <trkpt lon="101.513784" lat="12.933649">
                <ele>56.800000</ele>
                <time>2019-03-16T07:49:25Z</time>
            </trkpt>
            <trkpt lon="101.513745" lat="12.933612">
                <ele>56.900000</ele>
                <time>2019-03-16T07:49:26Z</time>
            </trkpt>
            <trkpt lon="101.513706" lat="12.933578">
                <ele>56.900000</ele>
                <time>2019-03-16T07:49:27Z</time>
            </trkpt>
            <trkpt lon="101.513667" lat="12.933543">
                <ele>57.000000</ele>
                <time>2019-03-16T07:49:28Z</time>
            </trkpt>
            <trkpt lon="101.513628" lat="12.933508">
                <ele>57.100000</ele>
                <time>2019-03-16T07:49:29Z</time>
            </trkpt>
            <trkpt lon="101.513587" lat="12.933473">
                <ele>57.200000</ele>
                <time>2019-03-16T07:49:30Z</time>
            </trkpt>
            <trkpt lon="101.513547" lat="12.933436">
                <ele>57.500000</ele>
                <time>2019-03-16T07:49:31Z</time>
            </trkpt>
            <trkpt lon="101.513508" lat="12.933400">
                <ele>57.800000</ele>
                <time>2019-03-16T07:49:32Z</time>
            </trkpt>
            <trkpt lon="101.513470" lat="12.933365">
                <ele>58.000000</ele>
                <time>2019-03-16T07:49:33Z</time>
            </trkpt>
            <trkpt lon="101.513433" lat="12.933330">
                <ele>58.200000</ele>
                <time>2019-03-16T07:49:34Z</time>
            </trkpt>
            <trkpt lon="101.513394" lat="12.933292">
                <ele>58.400000</ele>
                <time>2019-03-16T07:49:35Z</time>
            </trkpt>
            <trkpt lon="101.513355" lat="12.933252">
                <ele>58.500000</ele>
                <time>2019-03-16T07:49:36Z</time>
            </trkpt>
            <trkpt lon="101.513317" lat="12.933212">
                <ele>58.600000</ele>
                <time>2019-03-16T07:49:37Z</time>
            </trkpt>
            <trkpt lon="101.513277" lat="12.933173">
                <ele>58.600000</ele>
                <time>2019-03-16T07:49:38Z</time>
            </trkpt>
            <trkpt lon="101.513239" lat="12.933135">
                <ele>58.700000</ele>
                <time>2019-03-16T07:49:39Z</time>
            </trkpt>
            <trkpt lon="101.513203" lat="12.933097">
                <ele>58.700000</ele>
                <time>2019-03-16T07:49:40Z</time>
            </trkpt>
            <trkpt lon="101.513168" lat="12.933059">
                <ele>58.700000</ele>
                <time>2019-03-16T07:49:41Z</time>
            </trkpt>
            <trkpt lon="101.513135" lat="12.933019">
                <ele>58.700000</ele>
                <time>2019-03-16T07:49:42Z</time>
            </trkpt>
            <trkpt lon="101.513100" lat="12.932979">
                <ele>58.700000</ele>
                <time>2019-03-16T07:49:43Z</time>
            </trkpt>
            <trkpt lon="101.513063" lat="12.932937">
                <ele>58.800000</ele>
                <time>2019-03-16T07:49:44Z</time>
            </trkpt>
            <trkpt lon="101.513029" lat="12.932895">
                <ele>58.800000</ele>
                <time>2019-03-16T07:49:45Z</time>
            </trkpt>
            <trkpt lon="101.512995" lat="12.932854">
                <ele>58.800000</ele>
                <time>2019-03-16T07:49:46Z</time>
            </trkpt>
            <trkpt lon="101.512961" lat="12.932813">
                <ele>58.800000</ele>
                <time>2019-03-16T07:49:47Z</time>
            </trkpt>
            <trkpt lon="101.512926" lat="12.932771">
                <ele>58.800000</ele>
                <time>2019-03-16T07:49:48Z</time>
            </trkpt>
            <trkpt lon="101.512891" lat="12.932729">
                <ele>58.900000</ele>
                <time>2019-03-16T07:49:49Z</time>
            </trkpt>
            <trkpt lon="101.512853" lat="12.932694">
                <ele>58.900000</ele>
                <time>2019-03-16T07:49:50Z</time>
            </trkpt>
            <trkpt lon="101.512813" lat="12.932657">
                <ele>58.900000</ele>
                <time>2019-03-16T07:49:51Z</time>
            </trkpt>
            <trkpt lon="101.512772" lat="12.932618">
                <ele>58.900000</ele>
                <time>2019-03-16T07:49:52Z</time>
            </trkpt>
            <trkpt lon="101.512735" lat="12.932577">
                <ele>58.900000</ele>
                <time>2019-03-16T07:49:53Z</time>
            </trkpt>
            <trkpt lon="101.512698" lat="12.932536">
                <ele>59.000000</ele>
                <time>2019-03-16T07:49:54Z</time>
            </trkpt>
            <trkpt lon="101.512656" lat="12.932499">
                <ele>59.000000</ele>
                <time>2019-03-16T07:49:55Z</time>
            </trkpt>
            <trkpt lon="101.512614" lat="12.932463">
                <ele>59.000000</ele>
                <time>2019-03-16T07:49:56Z</time>
            </trkpt>
            <trkpt lon="101.512573" lat="12.932428">
                <ele>59.100000</ele>
                <time>2019-03-16T07:49:57Z</time>
            </trkpt>
            <trkpt lon="101.512535" lat="12.932394">
                <ele>59.200000</ele>
                <time>2019-03-16T07:49:58Z</time>
            </trkpt>
            <trkpt lon="101.512496" lat="12.932362">
                <ele>59.300000</ele>
                <time>2019-03-16T07:49:59Z</time>
            </trkpt>
            <trkpt lon="101.512458" lat="12.932331">
                <ele>59.400000</ele>
                <time>2019-03-16T07:50:00Z</time>
            </trkpt>
            <trkpt lon="101.512418" lat="12.932301">
                <ele>59.600000</ele>
                <time>2019-03-16T07:50:01Z</time>
            </trkpt>
            <trkpt lon="101.512378" lat="12.932268">
                <ele>59.700000</ele>
                <time>2019-03-16T07:50:02Z</time>
            </trkpt>
            <trkpt lon="101.512335" lat="12.932235">
                <ele>59.800000</ele>
                <time>2019-03-16T07:50:03Z</time>
            </trkpt>
            <trkpt lon="101.512291" lat="12.932202">
                <ele>59.900000</ele>
                <time>2019-03-16T07:50:04Z</time>
            </trkpt>
            <trkpt lon="101.512246" lat="12.932166">
                <ele>59.900000</ele>
                <time>2019-03-16T07:50:05Z</time>
            </trkpt>
            <trkpt lon="101.512198" lat="12.932124">
                <ele>60.000000</ele>
                <time>2019-03-16T07:50:06Z</time>
            </trkpt>
            <trkpt lon="101.512152" lat="12.932089">
                <ele>60.000000</ele>
                <time>2019-03-16T07:50:07Z</time>
            </trkpt>
            <trkpt lon="101.512103" lat="12.932048">
                <ele>60.000000</ele>
                <time>2019-03-16T07:50:08Z</time>
            </trkpt>
            <trkpt lon="101.512051" lat="12.932008">
                <ele>60.000000</ele>
                <time>2019-03-16T07:50:09Z</time>
            </trkpt>
            <trkpt lon="101.511998" lat="12.931968">
                <ele>60.100000</ele>
                <time>2019-03-16T07:50:10Z</time>
            </trkpt>
            <trkpt lon="101.511943" lat="12.931927">
                <ele>60.100000</ele>
                <time>2019-03-16T07:50:11Z</time>
            </trkpt>
            <trkpt lon="101.511890" lat="12.931882">
                <ele>60.100000</ele>
                <time>2019-03-16T07:50:12Z</time>
            </trkpt>
            <trkpt lon="101.511834" lat="12.931838">
                <ele>60.100000</ele>
                <time>2019-03-16T07:50:13Z</time>
            </trkpt>
            <trkpt lon="101.511782" lat="12.931790">
                <ele>60.200000</ele>
                <time>2019-03-16T07:50:14Z</time>
            </trkpt>
            <trkpt lon="101.511728" lat="12.931743">
                <ele>60.200000</ele>
                <time>2019-03-16T07:50:15Z</time>
            </trkpt>
            <trkpt lon="101.511673" lat="12.931696">
                <ele>60.200000</ele>
                <time>2019-03-16T07:50:16Z</time>
            </trkpt>
            <trkpt lon="101.511618" lat="12.931649">
                <ele>60.200000</ele>
                <time>2019-03-16T07:50:17Z</time>
            </trkpt>
            <trkpt lon="101.511562" lat="12.931601">
                <ele>60.300000</ele>
                <time>2019-03-16T07:50:18Z</time>
            </trkpt>
            <trkpt lon="101.511502" lat="12.931554">
                <ele>60.300000</ele>
                <time>2019-03-16T07:50:19Z</time>
            </trkpt>
            <trkpt lon="101.511441" lat="12.931505">
                <ele>60.300000</ele>
                <time>2019-03-16T07:50:20Z</time>
            </trkpt>
            <trkpt lon="101.511380" lat="12.931455">
                <ele>60.300000</ele>
                <time>2019-03-16T07:50:21Z</time>
            </trkpt>
            <trkpt lon="101.511319" lat="12.931400">
                <ele>60.200000</ele>
                <time>2019-03-16T07:50:22Z</time>
            </trkpt>
            <trkpt lon="101.511255" lat="12.931349">
                <ele>60.100000</ele>
                <time>2019-03-16T07:50:23Z</time>
            </trkpt>
            <trkpt lon="101.511192" lat="12.931296">
                <ele>60.000000</ele>
                <time>2019-03-16T07:50:24Z</time>
            </trkpt>
            <trkpt lon="101.511132" lat="12.931240">
                <ele>59.900000</ele>
                <time>2019-03-16T07:50:25Z</time>
            </trkpt>
            <trkpt lon="101.511066" lat="12.931189">
                <ele>59.800000</ele>
                <time>2019-03-16T07:50:26Z</time>
            </trkpt>
            <trkpt lon="101.511000" lat="12.931139">
                <ele>59.800000</ele>
                <time>2019-03-16T07:50:27Z</time>
            </trkpt>
            <trkpt lon="101.510934" lat="12.931089">
                <ele>59.800000</ele>
                <time>2019-03-16T07:50:28Z</time>
            </trkpt>
            <trkpt lon="101.510872" lat="12.931036">
                <ele>59.800000</ele>
                <time>2019-03-16T07:50:29Z</time>
            </trkpt>
            <trkpt lon="101.510807" lat="12.930988">
                <ele>59.800000</ele>
                <time>2019-03-16T07:50:30Z</time>
            </trkpt>
            <trkpt lon="101.510746" lat="12.930941">
                <ele>59.800000</ele>
                <time>2019-03-16T07:50:31Z</time>
            </trkpt>
            <trkpt lon="101.510686" lat="12.930894">
                <ele>59.900000</ele>
                <time>2019-03-16T07:50:32Z</time>
            </trkpt>
            <trkpt lon="101.510630" lat="12.930846">
                <ele>59.900000</ele>
                <time>2019-03-16T07:50:33Z</time>
            </trkpt>
            <trkpt lon="101.510576" lat="12.930799">
                <ele>59.900000</ele>
                <time>2019-03-16T07:50:34Z</time>
            </trkpt>
            <trkpt lon="101.510523" lat="12.930756">
                <ele>59.900000</ele>
                <time>2019-03-16T07:50:35Z</time>
            </trkpt>
            <trkpt lon="101.510474" lat="12.930713">
                <ele>60.000000</ele>
                <time>2019-03-16T07:50:36Z</time>
            </trkpt>
            <trkpt lon="101.510429" lat="12.930674">
                <ele>60.000000</ele>
                <time>2019-03-16T07:50:37Z</time>
            </trkpt>
            <trkpt lon="101.510384" lat="12.930636">
                <ele>60.000000</ele>
                <time>2019-03-16T07:50:38Z</time>
            </trkpt>
            <trkpt lon="101.510339" lat="12.930599">
                <ele>60.000000</ele>
                <time>2019-03-16T07:50:39Z</time>
            </trkpt>
            <trkpt lon="101.510295" lat="12.930565">
                <ele>60.000000</ele>
                <time>2019-03-16T07:50:40Z</time>
            </trkpt>
            <trkpt lon="101.510272" lat="12.930520">
                <ele>60.100000</ele>
                <time>2019-03-16T07:50:41Z</time>
            </trkpt>
            <trkpt lon="101.510249" lat="12.930478">
                <ele>60.100000</ele>
                <time>2019-03-16T07:50:42Z</time>
            </trkpt>
            <trkpt lon="101.510228" lat="12.930435">
                <ele>60.100000</ele>
                <time>2019-03-16T07:50:43Z</time>
            </trkpt>
            <trkpt lon="101.510216" lat="12.930393">
                <ele>60.100000</ele>
                <time>2019-03-16T07:50:44Z</time>
            </trkpt>
            <trkpt lon="101.510211" lat="12.930349">
                <ele>60.100000</ele>
                <time>2019-03-16T07:50:45Z</time>
            </trkpt>
            <trkpt lon="101.510209" lat="12.930312">
                <ele>60.100000</ele>
                <time>2019-03-16T07:50:46Z</time>
            </trkpt>
            <trkpt lon="101.510209" lat="12.930278">
                <ele>60.100000</ele>
                <time>2019-03-16T07:50:47Z</time>
            </trkpt>
            <trkpt lon="101.510209" lat="12.930245">
                <ele>60.200000</ele>
                <time>2019-03-16T07:50:48Z</time>
            </trkpt>
            <trkpt lon="101.510209" lat="12.930216">
                <ele>60.200000</ele>
                <time>2019-03-16T07:50:49Z</time>
            </trkpt>
            <trkpt lon="101.510212" lat="12.930189">
                <ele>60.200000</ele>
                <time>2019-03-16T07:50:50Z</time>
            </trkpt>
            <trkpt lon="101.510221" lat="12.930143">
                <ele>60.200000</ele>
                <time>2019-03-16T07:50:52Z</time>
            </trkpt>
            <trkpt lon="101.510230" lat="12.930094">
                <ele>60.200000</ele>
                <time>2019-03-16T07:50:54Z</time>
            </trkpt>
            <trkpt lon="101.510241" lat="12.930047">
                <ele>60.200000</ele>
                <time>2019-03-16T07:50:56Z</time>
            </trkpt>
            <trkpt lon="101.510247" lat="12.930010">
                <ele>60.200000</ele>
                <time>2019-03-16T07:50:58Z</time>
            </trkpt>
            <trkpt lon="101.510253" lat="12.929981">
                <ele>60.200000</ele>
                <time>2019-03-16T07:51:00Z</time>
            </trkpt>
            <trkpt lon="101.510255" lat="12.929928">
                <ele>60.300000</ele>
                <time>2019-03-16T07:51:27Z</time>
            </trkpt>
            <trkpt lon="101.510278" lat="12.929905">
                <ele>60.300000</ele>
                <time>2019-03-16T07:51:31Z</time>
            </trkpt>
            <trkpt lon="101.510261" lat="12.929923">
                <ele>60.300000</ele>
                <time>2019-03-16T07:52:11Z</time>
            </trkpt>
            <trkpt lon="101.510223" lat="12.929941">
                <ele>60.300000</ele>
                <time>2019-03-16T07:52:13Z</time>
            </trkpt>
            <trkpt lon="101.510197" lat="12.929953">
                <ele>60.300000</ele>
                <time>2019-03-16T07:52:15Z</time>
            </trkpt>
            <trkpt lon="101.510157" lat="12.929970">
                <ele>60.300000</ele>
                <time>2019-03-16T07:52:18Z</time>
            </trkpt>
            <trkpt lon="101.510128" lat="12.929978">
                <ele>60.300000</ele>
                <time>2019-03-16T07:52:21Z</time>
            </trkpt>
            <trkpt lon="101.510101" lat="12.929992">
                <ele>60.300000</ele>
                <time>2019-03-16T07:52:24Z</time>
            </trkpt>
            <trkpt lon="101.510079" lat="12.930012">
                <ele>60.400000</ele>
                <time>2019-03-16T07:52:28Z</time>
            </trkpt>
        </trkseg>
    </trk>
</gpx>